﻿<?xml version="1.0" encoding="utf-8"?><gpx creator="Garmin Desktop App" version="1.1" xsi:schemaLocation="http://www.topografix.com/GPX/1/1 http://www.topografix.com/GPX/1/1/gpx.xsd http://www.garmin.com/xmlschemas/WaypointExtension/v1 http://www8.garmin.com/xmlschemas/WaypointExtensionv1.xsd http://www.garmin.com/xmlschemas/TrackPointExtension/v1 http://www.garmin.com/xmlschemas/TrackPointExtensionv1.xsd http://www.garmin.com/xmlschemas/GpxExtensions/v3 http://www8.garmin.com/xmlschemas/GpxExtensionsv3.xsd http://www.garmin.com/xmlschemas/ActivityExtension/v1 http://www8.garmin.com/xmlschemas/ActivityExtensionv1.xsd http://www.garmin.com/xmlschemas/AdventuresExtensions/v1 http://www8.garmin.com/xmlschemas/AdventuresExtensionv1.xsd http://www.garmin.com/xmlschemas/PressureExtension/v1 http://www.garmin.com/xmlschemas/PressureExtensionv1.xsd http://www.garmin.com/xmlschemas/TripExtensions/v1 http://www.garmin.com/xmlschemas/TripExtensionsv1.xsd http://www.garmin.com/xmlschemas/TripMetaDataExtensions/v1 http://www.garmin.com/xmlschemas/TripMetaDataExtensionsv1.xsd http://www.garmin.com/xmlschemas/ViaPointTransportationModeExtensions/v1 http://www.garmin.com/xmlschemas/ViaPointTransportationModeExtensionsv1.xsd http://www.garmin.com/xmlschemas/CreationTimeExtension/v1 http://www.garmin.com/xmlschemas/CreationTimeExtensionsv1.xsd http://www.garmin.com/xmlschemas/AccelerationExtension/v1 http://www.garmin.com/xmlschemas/AccelerationExtensionv1.xsd http://www.garmin.com/xmlschemas/PowerExtension/v1 http://www.garmin.com/xmlschemas/PowerExtensionv1.xsd http://www.garmin.com/xmlschemas/VideoExtension/v1 http://www.garmin.com/xmlschemas/VideoExtensionv1.xsd" xmlns="http://www.topografix.com/GPX/1/1" xmlns:xsi="http://www.w3.org/2001/XMLSchema-instance" xmlns:wptx1="http://www.garmin.com/xmlschemas/WaypointExtension/v1" xmlns:gpxtrx="http://www.garmin.com/xmlschemas/GpxExtensions/v3" xmlns:gpxtpx="http://www.garmin.com/xmlschemas/TrackPointExtension/v1" xmlns:gpxx="http://www.garmin.com/xmlschemas/GpxExtensions/v3" xmlns:trp="http://www.garmin.com/xmlschemas/TripExtensions/v1" xmlns:adv="http://www.garmin.com/xmlschemas/AdventuresExtensions/v1" xmlns:prs="http://www.garmin.com/xmlschemas/PressureExtension/v1" xmlns:tmd="http://www.garmin.com/xmlschemas/TripMetaDataExtensions/v1" xmlns:vptm="http://www.garmin.com/xmlschemas/ViaPointTransportationModeExtensions/v1" xmlns:ctx="http://www.garmin.com/xmlschemas/CreationTimeExtension/v1" xmlns:gpxacc="http://www.garmin.com/xmlschemas/AccelerationExtension/v1" xmlns:gpxpx="http://www.garmin.com/xmlschemas/PowerExtension/v1" xmlns:vidx1="http://www.garmin.com/xmlschemas/VideoExtension/v1">

  <metadata>
    <link href="http://www.garmin.com">
      <text>Garmin International</text>
    </link>
    <time>2025-05-03T14:39:14Z</time>
    <bounds maxlat="41.175557021051645" maxlon="-7.124161971732974" minlat="41.005072966217995" minlon="-8.60493597574532" />
  </metadata>

  <trk>
    <name>250503_G_Track</name>
    <extensions>
      <gpxx:TrackExtension>
        <gpxx:DisplayColor>DarkGray</gpxx:DisplayColor>
      </gpxx:TrackExtension>
    </extensions>
    <trkseg>
      <trkpt lat="41.082974039018154" lon="-7.138136029243469">
        <ele>421.68000000000001</ele>
        <time>2025-05-03T07:39:49Z</time>
      </trkpt>
      <trkpt lat="41.082973033189774" lon="-7.138135023415089">
        <ele>421.68000000000001</ele>
        <time>2025-05-03T07:40:32Z</time>
      </trkpt>
      <trkpt lat="41.082973033189774" lon="-7.138134017586708">
        <ele>422.16000000000003</ele>
        <time>2025-05-03T07:41:06Z</time>
      </trkpt>
      <trkpt lat="41.082972027361393" lon="-7.138131000101566">
        <ele>422.16000000000003</ele>
        <time>2025-05-03T07:41:50Z</time>
      </trkpt>
      <trkpt lat="41.082985019311309" lon="-7.138115996494889">
        <ele>422.63999999999999</ele>
        <time>2025-05-03T07:42:15Z</time>
      </trkpt>
      <trkpt lat="41.083274027332664" lon="-7.137892032042146">
        <ele>421.68000000000001</ele>
        <time>2025-05-03T07:42:26Z</time>
      </trkpt>
      <trkpt lat="41.083442000672221" lon="-7.137704025954008">
        <ele>420.70999999999998</ele>
        <time>2025-05-03T07:42:35Z</time>
      </trkpt>
      <trkpt lat="41.083442000672221" lon="-7.137704025954008">
        <ele>420.23000000000002</ele>
        <time>2025-05-03T07:43:21Z</time>
      </trkpt>
      <trkpt lat="41.083473013713956" lon="-7.137674018740654">
        <ele>420.23000000000002</ele>
        <time>2025-05-03T07:43:26Z</time>
      </trkpt>
      <trkpt lat="41.083553982898593" lon="-7.137596989050508">
        <ele>420.23000000000002</ele>
        <time>2025-05-03T07:43:33Z</time>
      </trkpt>
      <trkpt lat="41.083746012300253" lon="-7.137414012104273">
        <ele>418.79000000000002</ele>
        <time>2025-05-03T07:43:43Z</time>
      </trkpt>
      <trkpt lat="41.083803009241819" lon="-7.137420969083905">
        <ele>418.31</ele>
        <time>2025-05-03T07:43:46Z</time>
      </trkpt>
      <trkpt lat="41.083823963999748" lon="-7.137462962418795">
        <ele>418.31</ele>
        <time>2025-05-03T07:43:47Z</time>
      </trkpt>
      <trkpt lat="41.083851959556341" lon="-7.137519037351012">
        <ele>417.82999999999998</ele>
        <time>2025-05-03T07:43:48Z</time>
      </trkpt>
      <trkpt lat="41.083880960941315" lon="-7.137577962130308">
        <ele>417.82999999999998</ele>
        <time>2025-05-03T07:43:49Z</time>
      </trkpt>
      <trkpt lat="41.083910968154669" lon="-7.137637976557016">
        <ele>417.35000000000002</ele>
        <time>2025-05-03T07:43:50Z</time>
      </trkpt>
      <trkpt lat="41.084007024765015" lon="-7.137830005958676">
        <ele>416.38999999999999</ele>
        <time>2025-05-03T07:43:53Z</time>
      </trkpt>
      <trkpt lat="41.084038037806749" lon="-7.137892032042146">
        <ele>415.91000000000003</ele>
        <time>2025-05-03T07:43:54Z</time>
      </trkpt>
      <trkpt lat="41.084487978368998" lon="-7.13871899060905">
        <ele>410.62</ele>
        <time>2025-05-03T07:44:07Z</time>
      </trkpt>
      <trkpt lat="41.085041016340256" lon="-7.139379987493157">
        <ele>406.29000000000002</ele>
        <time>2025-05-03T07:44:18Z</time>
      </trkpt>
      <trkpt lat="41.085155010223389" lon="-7.13949398137629">
        <ele>406.29000000000002</ele>
        <time>2025-05-03T07:44:20Z</time>
      </trkpt>
      <trkpt lat="41.085216030478477" lon="-7.139547038823366">
        <ele>406.29000000000002</ele>
        <time>2025-05-03T07:44:21Z</time>
      </trkpt>
      <trkpt lat="41.086089005693793" lon="-7.140293028205633">
        <ele>406.29000000000002</ele>
        <time>2025-05-03T07:44:34Z</time>
      </trkpt>
      <trkpt lat="41.086976984515786" lon="-7.141004987061024">
        <ele>405.32999999999998</ele>
        <time>2025-05-03T07:44:46Z</time>
      </trkpt>
      <trkpt lat="41.087342016398907" lon="-7.141261976212263">
        <ele>404.37</ele>
        <time>2025-05-03T07:44:51Z</time>
      </trkpt>
      <trkpt lat="41.08741401694715" lon="-7.141310004517436">
        <ele>404.37</ele>
        <time>2025-05-03T07:44:52Z</time>
      </trkpt>
      <trkpt lat="41.088024973869324" lon="-7.141889026388526">
        <ele>408.69999999999999</ele>
        <time>2025-05-03T07:45:01Z</time>
      </trkpt>
      <trkpt lat="41.088521014899015" lon="-7.142897034063935">
        <ele>412.06</ele>
        <time>2025-05-03T07:45:12Z</time>
      </trkpt>
      <trkpt lat="41.088720001280308" lon="-7.143481001257896">
        <ele>410.13999999999999</ele>
        <time>2025-05-03T07:45:19Z</time>
      </trkpt>
      <trkpt lat="41.088760988786817" lon="-7.143566999584436">
        <ele>409.66000000000003</ele>
        <time>2025-05-03T07:45:20Z</time>
      </trkpt>
      <trkpt lat="41.088807005435228" lon="-7.143629025667906">
        <ele>409.18000000000001</ele>
        <time>2025-05-03T07:45:21Z</time>
      </trkpt>
      <trkpt lat="41.088886968791485" lon="-7.143735978752375">
        <ele>407.74000000000001</ele>
        <time>2025-05-03T07:45:23Z</time>
      </trkpt>
      <trkpt lat="41.088926028460264" lon="-7.143787024542689">
        <ele>406.76999999999998</ele>
        <time>2025-05-03T07:45:24Z</time>
      </trkpt>
      <trkpt lat="41.08900498598814" lon="-7.143806973472238">
        <ele>405.81</ele>
        <time>2025-05-03T07:45:25Z</time>
      </trkpt>
      <trkpt lat="41.089073969051242" lon="-7.143817031756043">
        <ele>404.85000000000002</ele>
        <time>2025-05-03T07:45:26Z</time>
      </trkpt>
      <trkpt lat="41.089074974879622" lon="-7.143817031756043">
        <ele>403.88999999999999</ele>
        <time>2025-05-03T07:45:27Z</time>
      </trkpt>
      <trkpt lat="41.089249989017844" lon="-7.143835974857211">
        <ele>403.41000000000003</ele>
        <time>2025-05-03T07:45:28Z</time>
      </trkpt>
      <trkpt lat="41.0893489792943" lon="-7.143828012049198">
        <ele>401.97000000000003</ele>
        <time>2025-05-03T07:45:29Z</time>
      </trkpt>
      <trkpt lat="41.089454004541039" lon="-7.143819965422154">
        <ele>401.49000000000001</ele>
        <time>2025-05-03T07:45:30Z</time>
      </trkpt>
      <trkpt lat="41.089559029787779" lon="-7.143774032592773">
        <ele>400.52999999999997</ele>
        <time>2025-05-03T07:45:31Z</time>
      </trkpt>
      <trkpt lat="41.089661959558725" lon="-7.143711000680924">
        <ele>399.56999999999999</ele>
        <time>2025-05-03T07:45:32Z</time>
      </trkpt>
      <trkpt lat="41.089771008118987" lon="-7.143643023446202">
        <ele>399.07999999999998</ele>
        <time>2025-05-03T07:45:33Z</time>
      </trkpt>
      <trkpt lat="41.08986496925354" lon="-7.143544033169746">
        <ele>398.12</ele>
        <time>2025-05-03T07:45:34Z</time>
      </trkpt>
      <trkpt lat="41.089955996721983" lon="-7.143448982387781">
        <ele>397.16000000000003</ele>
        <time>2025-05-03T07:45:35Z</time>
      </trkpt>
      <trkpt lat="41.090777004137635" lon="-7.142523033544421">
        <ele>391.87</ele>
        <time>2025-05-03T07:45:44Z</time>
      </trkpt>
      <trkpt lat="41.091077998280525" lon="-7.142245005816221">
        <ele>390.91000000000003</ele>
        <time>2025-05-03T07:45:47Z</time>
      </trkpt>
      <trkpt lat="41.091175982728601" lon="-7.142163030803204">
        <ele>390.43000000000001</ele>
        <time>2025-05-03T07:45:48Z</time>
      </trkpt>
      <trkpt lat="41.091280002146959" lon="-7.142097987234592">
        <ele>389.94999999999999</ele>
        <time>2025-05-03T07:45:49Z</time>
      </trkpt>
      <trkpt lat="41.091398019343615" lon="-7.142088012769818">
        <ele>389.94999999999999</ele>
        <time>2025-05-03T07:45:50Z</time>
      </trkpt>
      <trkpt lat="41.091516958549619" lon="-7.142082983627915">
        <ele>389.47000000000003</ele>
        <time>2025-05-03T07:45:51Z</time>
      </trkpt>
      <trkpt lat="41.091633969917893" lon="-7.142127994447947">
        <ele>388.99000000000001</ele>
        <time>2025-05-03T07:45:52Z</time>
      </trkpt>
      <trkpt lat="41.091750981286168" lon="-7.142173005267978">
        <ele>388.50999999999999</ele>
        <time>2025-05-03T07:45:53Z</time>
      </trkpt>
      <trkpt lat="41.091865980997682" lon="-7.142218016088009">
        <ele>387.55000000000001</ele>
        <time>2025-05-03T07:45:54Z</time>
      </trkpt>
      <trkpt lat="41.092094974592328" lon="-7.142266966402531">
        <ele>385.63</ele>
        <time>2025-05-03T07:45:56Z</time>
      </trkpt>
      <trkpt lat="41.092215003445745" lon="-7.142290016636252">
        <ele>385.14999999999998</ele>
        <time>2025-05-03T07:45:57Z</time>
      </trkpt>
      <trkpt lat="41.092344000935555" lon="-7.142314994707704">
        <ele>384.18000000000001</ele>
        <time>2025-05-03T07:45:58Z</time>
      </trkpt>
      <trkpt lat="41.092438967898488" lon="-7.142273001372814">
        <ele>382.74000000000001</ele>
        <time>2025-05-03T07:45:59Z</time>
      </trkpt>
      <trkpt lat="41.09254902228713" lon="-7.142216004431248">
        <ele>381.77999999999997</ele>
        <time>2025-05-03T07:46:00Z</time>
      </trkpt>
      <trkpt lat="41.092642983421683" lon="-7.142115002498031">
        <ele>381.30000000000001</ele>
        <time>2025-05-03T07:46:01Z</time>
      </trkpt>
      <trkpt lat="41.092736022546887" lon="-7.142015006393194">
        <ele>380.33999999999997</ele>
        <time>2025-05-03T07:46:02Z</time>
      </trkpt>
      <trkpt lat="41.092827972024679" lon="-7.141912998631597">
        <ele>379.38</ele>
        <time>2025-05-03T07:46:03Z</time>
      </trkpt>
      <trkpt lat="41.09334203414619" lon="-7.141236998140812">
        <ele>375.52999999999997</ele>
        <time>2025-05-03T07:46:09Z</time>
      </trkpt>
      <trkpt lat="41.093447981402278" lon="-7.141150999814272">
        <ele>375.05000000000001</ele>
        <time>2025-05-03T07:46:10Z</time>
      </trkpt>
      <trkpt lat="41.093555018305779" lon="-7.141063995659351">
        <ele>374.56999999999999</ele>
        <time>2025-05-03T07:46:11Z</time>
      </trkpt>
      <trkpt lat="41.093662977218628" lon="-7.140981014817953">
        <ele>373.61000000000001</ele>
        <time>2025-05-03T07:46:12Z</time>
      </trkpt>
      <trkpt lat="41.093778982758522" lon="-7.140936003997922">
        <ele>373.13</ele>
        <time>2025-05-03T07:46:13Z</time>
      </trkpt>
      <trkpt lat="41.093893982470036" lon="-7.140891999006271">
        <ele>372.17000000000002</ele>
        <time>2025-05-03T07:46:14Z</time>
      </trkpt>
      <trkpt lat="41.094011999666691" lon="-7.140859980136156">
        <ele>371.20999999999998</ele>
        <time>2025-05-03T07:46:15Z</time>
      </trkpt>
      <trkpt lat="41.094132028520107" lon="-7.140833996236324">
        <ele>370.24000000000001</ele>
        <time>2025-05-03T07:46:16Z</time>
      </trkpt>
      <trkpt lat="41.094251973554492" lon="-7.140814969316125">
        <ele>369.27999999999997</ele>
        <time>2025-05-03T07:46:17Z</time>
      </trkpt>
      <trkpt lat="41.094962004572153" lon="-7.140942960977554">
        <ele>364.48000000000002</ele>
        <time>2025-05-03T07:46:23Z</time>
      </trkpt>
      <trkpt lat="41.095079015940428" lon="-7.140979003161192">
        <ele>363.51999999999998</ele>
        <time>2025-05-03T07:46:24Z</time>
      </trkpt>
      <trkpt lat="41.095304992049932" lon="-7.141048992052674">
        <ele>362.06999999999999</ele>
        <time>2025-05-03T07:46:26Z</time>
      </trkpt>
      <trkpt lat="41.095434995368123" lon="-7.14106198400259">
        <ele>361.58999999999997</ele>
        <time>2025-05-03T07:46:27Z</time>
      </trkpt>
      <trkpt lat="41.095434995368123" lon="-7.14106198400259">
        <ele>361.11000000000001</ele>
        <time>2025-05-03T07:46:28Z</time>
      </trkpt>
      <trkpt lat="41.09566398896277" lon="-7.141016973182559">
        <ele>360.14999999999998</ele>
        <time>2025-05-03T07:46:29Z</time>
      </trkpt>
      <trkpt lat="41.095756022259593" lon="-7.140923012048006">
        <ele>359.67000000000002</ele>
        <time>2025-05-03T07:46:30Z</time>
      </trkpt>
      <trkpt lat="41.095841014757752" lon="-7.140813041478396">
        <ele>359.19</ele>
        <time>2025-05-03T07:46:31Z</time>
      </trkpt>
      <trkpt lat="41.095927013084292" lon="-7.140701981261373">
        <ele>358.70999999999998</ele>
        <time>2025-05-03T07:46:32Z</time>
      </trkpt>
      <trkpt lat="41.096108984202147" lon="-7.14050299488008">
        <ele>357.26999999999998</ele>
        <time>2025-05-03T07:46:34Z</time>
      </trkpt>
      <trkpt lat="41.096219038590789" lon="-7.140448009595275">
        <ele>357.26999999999998</ele>
        <time>2025-05-03T07:46:35Z</time>
      </trkpt>
      <trkpt lat="41.096336971968412" lon="-7.14043702930212">
        <ele>356.79000000000002</ele>
        <time>2025-05-03T07:46:36Z</time>
      </trkpt>
      <trkpt lat="41.096452977508307" lon="-7.140465024858713">
        <ele>356.31</ele>
        <time>2025-05-03T07:46:37Z</time>
      </trkpt>
      <trkpt lat="41.096573006361723" lon="-7.140494026243687">
        <ele>355.82999999999998</ele>
        <time>2025-05-03T07:46:38Z</time>
      </trkpt>
      <trkpt lat="41.09669404104352" lon="-7.14052202180028">
        <ele>355.33999999999997</ele>
        <time>2025-05-03T07:46:39Z</time>
      </trkpt>
      <trkpt lat="41.096810968592763" lon="-7.140530990436673">
        <ele>355.33999999999997</ele>
        <time>2025-05-03T07:46:40Z</time>
      </trkpt>
      <trkpt lat="41.09693200327456" lon="-7.140525039285421">
        <ele>354.86000000000001</ele>
        <time>2025-05-03T07:46:41Z</time>
      </trkpt>
      <trkpt lat="41.097053959965706" lon="-7.140519004315138">
        <ele>354.38</ele>
        <time>2025-05-03T07:46:42Z</time>
      </trkpt>
      <trkpt lat="41.097177006304264" lon="-7.140512969344854">
        <ele>353.89999999999998</ele>
        <time>2025-05-03T07:46:43Z</time>
      </trkpt>
      <trkpt lat="41.097289994359016" lon="-7.140453960746527">
        <ele>353.42000000000002</ele>
        <time>2025-05-03T07:46:44Z</time>
      </trkpt>
      <trkpt lat="41.097418991848826" lon="-7.140377014875412">
        <ele>352.94</ele>
        <time>2025-05-03T07:46:45Z</time>
      </trkpt>
      <trkpt lat="41.097550000995398" lon="-7.140298979356885">
        <ele>352.45999999999998</ele>
        <time>2025-05-03T07:46:46Z</time>
      </trkpt>
      <trkpt lat="41.097671035677195" lon="-7.14018096216023">
        <ele>351.5</ele>
        <time>2025-05-03T07:46:47Z</time>
      </trkpt>
      <trkpt lat="41.097772037610412" lon="-7.140031009912491">
        <ele>350.54000000000002</ele>
        <time>2025-05-03T07:46:48Z</time>
      </trkpt>
      <trkpt lat="41.097867004573345" lon="-7.139888014644384">
        <ele>350.06</ele>
        <time>2025-05-03T07:46:49Z</time>
      </trkpt>
      <trkpt lat="41.097887037321925" lon="-7.139705959707499">
        <ele>349.10000000000002</ele>
        <time>2025-05-03T07:46:50Z</time>
      </trkpt>
      <trkpt lat="41.097896005958319" lon="-7.139519965276122">
        <ele>348.62</ele>
        <time>2025-05-03T07:46:51Z</time>
      </trkpt>
      <trkpt lat="41.097906986251473" lon="-7.139325002208352">
        <ele>347.64999999999998</ele>
        <time>2025-05-03T07:46:52Z</time>
      </trkpt>
      <trkpt lat="41.097922995686531" lon="-7.13912702165544">
        <ele>347.17000000000002</ele>
        <time>2025-05-03T07:46:53Z</time>
      </trkpt>
      <trkpt lat="41.097939005121589" lon="-7.138922000303865">
        <ele>346.69</ele>
        <time>2025-05-03T07:46:54Z</time>
      </trkpt>
      <trkpt lat="41.097975969314575" lon="-7.13871899060905">
        <ele>346.20999999999998</ele>
        <time>2025-05-03T07:46:55Z</time>
      </trkpt>
      <trkpt lat="41.098132040351629" lon="-7.138092024251819">
        <ele>342.85000000000002</ele>
        <time>2025-05-03T07:46:58Z</time>
      </trkpt>
      <trkpt lat="41.098180990666151" lon="-7.137914998456836">
        <ele>341.88999999999999</ele>
        <time>2025-05-03T07:46:59Z</time>
      </trkpt>
      <trkpt lat="41.098282998427749" lon="-7.137781977653503">
        <ele>340.92000000000002</ele>
        <time>2025-05-03T07:47:00Z</time>
      </trkpt>
      <trkpt lat="41.09839498065412" lon="-7.137636970728636">
        <ele>339.95999999999998</ele>
        <time>2025-05-03T07:47:01Z</time>
      </trkpt>
      <trkpt lat="41.098524983972311" lon="-7.137579973787069">
        <ele>339</ele>
        <time>2025-05-03T07:47:02Z</time>
      </trkpt>
      <trkpt lat="41.098681977018714" lon="-7.137547032907605">
        <ele>338.04000000000002</ele>
        <time>2025-05-03T07:47:03Z</time>
      </trkpt>
      <trkpt lat="41.098852967843413" lon="-7.13753798045218">
        <ele>337.56</ele>
        <time>2025-05-03T07:47:04Z</time>
      </trkpt>
      <trkpt lat="41.10017797909677" lon="-7.137614004313946">
        <ele>334.19999999999999</ele>
        <time>2025-05-03T07:47:12Z</time>
      </trkpt>
      <trkpt lat="41.100343018770218" lon="-7.137602018192411">
        <ele>333.70999999999998</ele>
        <time>2025-05-03T07:47:13Z</time>
      </trkpt>
      <trkpt lat="41.100495988503098" lon="-7.13758097961545">
        <ele>333.23000000000002</ele>
        <time>2025-05-03T07:47:14Z</time>
      </trkpt>
      <trkpt lat="41.100639989599586" lon="-7.137533035129309">
        <ele>332.75</ele>
        <time>2025-05-03T07:47:15Z</time>
      </trkpt>
      <trkpt lat="41.100770998746157" lon="-7.137466985732317">
        <ele>332.26999999999998</ele>
        <time>2025-05-03T07:47:16Z</time>
      </trkpt>
      <trkpt lat="41.100926985964179" lon="-7.137358020991087">
        <ele>331.79000000000002</ele>
        <time>2025-05-03T07:47:17Z</time>
      </trkpt>
      <trkpt lat="41.101022958755493" lon="-7.137242015451193">
        <ele>330.82999999999998</ele>
        <time>2025-05-03T07:47:18Z</time>
      </trkpt>
      <trkpt lat="41.101139970123768" lon="-7.137101031839848">
        <ele>330.35000000000002</ele>
        <time>2025-05-03T07:47:19Z</time>
      </trkpt>
      <trkpt lat="41.102262977510691" lon="-7.136199977248907">
        <ele>326.99000000000001</ele>
        <time>2025-05-03T07:47:27Z</time>
      </trkpt>
      <trkpt lat="41.103208037093282" lon="-7.135634031146765">
        <ele>322.18000000000001</ele>
        <time>2025-05-03T07:47:33Z</time>
      </trkpt>
      <trkpt lat="41.103329993784428" lon="-7.135519031435251">
        <ele>321.69999999999999</ele>
        <time>2025-05-03T07:47:34Z</time>
      </trkpt>
      <trkpt lat="41.103438958525658" lon="-7.135381987318397">
        <ele>321.22000000000003</ele>
        <time>2025-05-03T07:47:35Z</time>
      </trkpt>
      <trkpt lat="41.103530991822481" lon="-7.135249972343445">
        <ele>320.74000000000001</ele>
        <time>2025-05-03T07:47:36Z</time>
      </trkpt>
      <trkpt lat="41.103583965450525" lon="-7.135060038417578">
        <ele>319.77999999999997</ele>
        <time>2025-05-03T07:47:37Z</time>
      </trkpt>
      <trkpt lat="41.103638028725982" lon="-7.13487102650106">
        <ele>319.30000000000001</ele>
        <time>2025-05-03T07:47:38Z</time>
      </trkpt>
      <trkpt lat="41.103688990697265" lon="-7.134687965735793">
        <ele>318.81</ele>
        <time>2025-05-03T07:47:39Z</time>
      </trkpt>
      <trkpt lat="41.103739030659199" lon="-7.134511023759842">
        <ele>318.81</ele>
        <time>2025-05-03T07:47:40Z</time>
      </trkpt>
      <trkpt lat="41.103831985965371" lon="-7.13437800295651">
        <ele>318.81</ele>
        <time>2025-05-03T07:47:41Z</time>
      </trkpt>
      <trkpt lat="41.103955032303929" lon="-7.13427197188139">
        <ele>318.32999999999998</ele>
        <time>2025-05-03T07:47:42Z</time>
      </trkpt>
      <trkpt lat="41.1040860414505" lon="-7.134172981604934">
        <ele>318.32999999999998</ele>
        <time>2025-05-03T07:47:43Z</time>
      </trkpt>
      <trkpt lat="41.104239011183381" lon="-7.134113973006606">
        <ele>317.85000000000002</ele>
        <time>2025-05-03T07:47:44Z</time>
      </trkpt>
      <trkpt lat="41.104398015886545" lon="-7.134053036570549">
        <ele>317.37</ele>
        <time>2025-05-03T07:47:45Z</time>
      </trkpt>
      <trkpt lat="41.105304015800357" lon="-7.133538974449039">
        <ele>313.05000000000001</ele>
        <time>2025-05-03T07:47:51Z</time>
      </trkpt>
      <trkpt lat="41.105424966663122" lon="-7.13341198861599">
        <ele>312.08999999999997</ele>
        <time>2025-05-03T07:47:52Z</time>
      </trkpt>
      <trkpt lat="41.106620980426669" lon="-7.131954040378332">
        <ele>303.43000000000001</ele>
        <time>2025-05-03T07:48:01Z</time>
      </trkpt>
      <trkpt lat="41.107435030862689" lon="-7.130830027163029">
        <ele>296.22000000000003</ele>
        <time>2025-05-03T07:48:08Z</time>
      </trkpt>
      <trkpt lat="41.107498984783888" lon="-7.130670016631484">
        <ele>295.25999999999999</ele>
        <time>2025-05-03T07:48:09Z</time>
      </trkpt>
      <trkpt lat="41.107536032795906" lon="-7.130482010543346">
        <ele>294.30000000000001</ele>
        <time>2025-05-03T07:48:10Z</time>
      </trkpt>
      <trkpt lat="41.107536032795906" lon="-7.130277995020151">
        <ele>293.33999999999997</ele>
        <time>2025-05-03T07:48:11Z</time>
      </trkpt>
      <trkpt lat="41.107513988390565" lon="-7.130058975890279">
        <ele>292.86000000000001</ele>
        <time>2025-05-03T07:48:12Z</time>
      </trkpt>
      <trkpt lat="41.107486998662353" lon="-7.129840962588787">
        <ele>291.42000000000002</ele>
        <time>2025-05-03T07:48:13Z</time>
      </trkpt>
      <trkpt lat="41.10748196952045" lon="-7.129632001742721">
        <ele>290.45999999999998</ele>
        <time>2025-05-03T07:48:14Z</time>
      </trkpt>
      <trkpt lat="41.107508037239313" lon="-7.129429997876287">
        <ele>289.97000000000003</ele>
        <time>2025-05-03T07:48:15Z</time>
      </trkpt>
      <trkpt lat="41.107572996988893" lon="-7.129248026758432">
        <ele>289.00999999999999</ele>
        <time>2025-05-03T07:48:16Z</time>
      </trkpt>
      <trkpt lat="41.107656983658671" lon="-7.129080975428224">
        <ele>287.56999999999999</ele>
        <time>2025-05-03T07:48:17Z</time>
      </trkpt>
      <trkpt lat="41.107777012512088" lon="-7.128947032615542">
        <ele>286.61000000000001</ele>
        <time>2025-05-03T07:48:18Z</time>
      </trkpt>
      <trkpt lat="41.107913972809911" lon="-7.128843013197184">
        <ele>285.17000000000002</ele>
        <time>2025-05-03T07:48:19Z</time>
      </trkpt>
      <trkpt lat="41.108065014705062" lon="-7.12874997407198">
        <ele>284.20999999999998</ele>
        <time>2025-05-03T07:48:20Z</time>
      </trkpt>
      <trkpt lat="41.108236005529761" lon="-7.128697000443935">
        <ele>283.25</ele>
        <time>2025-05-03T07:48:21Z</time>
      </trkpt>
      <trkpt lat="41.108409008011222" lon="-7.128636986017227">
        <ele>282.27999999999997</ele>
        <time>2025-05-03T07:48:22Z</time>
      </trkpt>
      <trkpt lat="41.109266979619861" lon="-7.128391982987523">
        <ele>277.48000000000002</ele>
        <time>2025-05-03T07:48:27Z</time>
      </trkpt>
      <trkpt lat="41.10941500402987" lon="-7.128445040434599">
        <ele>276.51999999999998</ele>
        <time>2025-05-03T07:48:28Z</time>
      </trkpt>
      <trkpt lat="41.109555987641215" lon="-7.128531038761139">
        <ele>275.56</ele>
        <time>2025-05-03T07:48:29Z</time>
      </trkpt>
      <trkpt lat="41.109555987641215" lon="-7.128531038761139">
        <ele>274.58999999999997</ele>
        <time>2025-05-03T07:48:30Z</time>
      </trkpt>
      <trkpt lat="41.109834015369415" lon="-7.128737987950444">
        <ele>274.11000000000001</ele>
        <time>2025-05-03T07:48:31Z</time>
      </trkpt>
      <trkpt lat="41.109972987323999" lon="-7.128849970176816">
        <ele>273.14999999999998</ele>
        <time>2025-05-03T07:48:32Z</time>
      </trkpt>
      <trkpt lat="41.110121011734009" lon="-7.128940997645259">
        <ele>272.67000000000002</ele>
        <time>2025-05-03T07:48:33Z</time>
      </trkpt>
      <trkpt lat="41.110282028093934" lon="-7.128990031778812">
        <ele>272.19</ele>
        <time>2025-05-03T07:48:34Z</time>
      </trkpt>
      <trkpt lat="41.110451007261872" lon="-7.128979973495007">
        <ele>271.23000000000002</ele>
        <time>2025-05-03T07:48:35Z</time>
      </trkpt>
      <trkpt lat="41.110620992258191" lon="-7.128971004858613">
        <ele>270.75</ele>
        <time>2025-05-03T07:48:36Z</time>
      </trkpt>
      <trkpt lat="41.110776979476213" lon="-7.12892197072506">
        <ele>269.79000000000002</ele>
        <time>2025-05-03T07:48:37Z</time>
      </trkpt>
      <trkpt lat="41.110931960865855" lon="-7.128854999318719">
        <ele>269.31</ele>
        <time>2025-05-03T07:48:38Z</time>
      </trkpt>
      <trkpt lat="41.11109297722578" lon="-7.128787022083998">
        <ele>268.82999999999998</ele>
        <time>2025-05-03T07:48:39Z</time>
      </trkpt>
      <trkpt lat="41.11126204021275" lon="-7.128714015707374">
        <ele>267.86000000000001</ele>
        <time>2025-05-03T07:48:40Z</time>
      </trkpt>
      <trkpt lat="41.11143403686583" lon="-7.12864100933075">
        <ele>266.89999999999998</ele>
        <time>2025-05-03T07:48:41Z</time>
      </trkpt>
      <trkpt lat="41.111607039347291" lon="-7.128565991297364">
        <ele>266.42000000000002</ele>
        <time>2025-05-03T07:48:42Z</time>
      </trkpt>
      <trkpt lat="41.111943991854787" lon="-7.128400029614568">
        <ele>264.5</ele>
        <time>2025-05-03T07:48:44Z</time>
      </trkpt>
      <trkpt lat="41.112108025699854" lon="-7.128282012417913">
        <ele>264.01999999999998</ele>
        <time>2025-05-03T07:48:45Z</time>
      </trkpt>
      <trkpt lat="41.112256972119212" lon="-7.128173969686031">
        <ele>263.06</ele>
        <time>2025-05-03T07:48:46Z</time>
      </trkpt>
      <trkpt lat="41.112430980429053" lon="-7.128093000501394">
        <ele>262.57999999999998</ele>
        <time>2025-05-03T07:48:47Z</time>
      </trkpt>
      <trkpt lat="41.112598031759262" lon="-7.128015970811248">
        <ele>261.62</ele>
        <time>2025-05-03T07:48:48Z</time>
      </trkpt>
      <trkpt lat="41.112768016755581" lon="-7.127937013283372">
        <ele>260.64999999999998</ele>
        <time>2025-05-03T07:48:49Z</time>
      </trkpt>
      <trkpt lat="41.112935990095139" lon="-7.127857971936464">
        <ele>259.69</ele>
        <time>2025-05-03T07:48:50Z</time>
      </trkpt>
      <trkpt lat="41.113590029999614" lon="-7.12743703275919">
        <ele>255.84999999999999</ele>
        <time>2025-05-03T07:48:54Z</time>
      </trkpt>
      <trkpt lat="41.113907033577561" lon="-7.127199992537499">
        <ele>253.93000000000001</ele>
        <time>2025-05-03T07:48:56Z</time>
      </trkpt>
      <trkpt lat="41.114066038280725" lon="-7.127103013917804">
        <ele>252.96000000000001</ele>
        <time>2025-05-03T07:48:57Z</time>
      </trkpt>
      <trkpt lat="41.114839017391205" lon="-7.126633962616324">
        <ele>249.12</ele>
        <time>2025-05-03T07:49:02Z</time>
      </trkpt>
      <trkpt lat="41.114970026537776" lon="-7.126535978168249">
        <ele>248.16</ele>
        <time>2025-05-03T07:49:03Z</time>
      </trkpt>
      <trkpt lat="41.115089971572161" lon="-7.126403963193297">
        <ele>247.19999999999999</ele>
        <time>2025-05-03T07:49:04Z</time>
      </trkpt>
      <trkpt lat="41.115188039839268" lon="-7.12623699568212">
        <ele>246.22999999999999</ele>
        <time>2025-05-03T07:49:05Z</time>
      </trkpt>
      <trkpt lat="41.115273032337427" lon="-7.126048989593983">
        <ele>245.27000000000001</ele>
        <time>2025-05-03T07:49:06Z</time>
      </trkpt>
      <trkpt lat="41.115355007350445" lon="-7.125858971849084">
        <ele>244.31</ele>
        <time>2025-05-03T07:49:07Z</time>
      </trkpt>
      <trkpt lat="41.115512000396848" lon="-7.125492012128234">
        <ele>243.34999999999999</ele>
        <time>2025-05-03T07:49:09Z</time>
      </trkpt>
      <trkpt lat="41.115616019815207" lon="-7.125351028516889">
        <ele>242.38999999999999</ele>
        <time>2025-05-03T07:49:10Z</time>
      </trkpt>
      <trkpt lat="41.115735964849591" lon="-7.125232005491853">
        <ele>241.91</ele>
        <time>2025-05-03T07:49:11Z</time>
      </trkpt>
      <trkpt lat="41.115867979824543" lon="-7.125136032700539">
        <ele>241.43000000000001</ele>
        <time>2025-05-03T07:49:12Z</time>
      </trkpt>
      <trkpt lat="41.116022039204836" lon="-7.12509797886014">
        <ele>240.47</ele>
        <time>2025-05-03T07:49:13Z</time>
      </trkpt>
      <trkpt lat="41.116172997280955" lon="-7.125065037980676">
        <ele>239.50999999999999</ele>
        <time>2025-05-03T07:49:14Z</time>
      </trkpt>
      <trkpt lat="41.116326972842216" lon="-7.125099990516901">
        <ele>239.02000000000001</ele>
        <time>2025-05-03T07:49:15Z</time>
      </trkpt>
      <trkpt lat="41.116466028615832" lon="-7.125197974964976">
        <ele>238.06</ele>
        <time>2025-05-03T07:49:16Z</time>
      </trkpt>
      <trkpt lat="41.116610029712319" lon="-7.125318003818393">
        <ele>237.58000000000001</ele>
        <time>2025-05-03T07:49:17Z</time>
      </trkpt>
      <trkpt lat="41.116750007495284" lon="-7.125449012964964">
        <ele>236.62</ele>
        <time>2025-05-03T07:49:18Z</time>
      </trkpt>
      <trkpt lat="41.11729902215302" lon="-7.125963997095823">
        <ele>233.25999999999999</ele>
        <time>2025-05-03T07:49:22Z</time>
      </trkpt>
      <trkpt lat="41.117397006601095" lon="-7.126146974042058">
        <ele>232.30000000000001</ele>
        <time>2025-05-03T07:49:23Z</time>
      </trkpt>
      <trkpt lat="41.117469007149339" lon="-7.126341015100479">
        <ele>231.33000000000001</ele>
        <time>2025-05-03T07:49:24Z</time>
      </trkpt>
      <trkpt lat="41.117512006312609" lon="-7.126559028401971">
        <ele>230.37</ele>
        <time>2025-05-03T07:49:25Z</time>
      </trkpt>
      <trkpt lat="41.117544025182724" lon="-7.126778969541192">
        <ele>229.41</ele>
        <time>2025-05-03T07:49:26Z</time>
      </trkpt>
      <trkpt lat="41.117562968283892" lon="-7.127011986449361">
        <ele>227.97</ele>
        <time>2025-05-03T07:49:27Z</time>
      </trkpt>
      <trkpt lat="41.117581995204091" lon="-7.127249026671052">
        <ele>227.00999999999999</ele>
        <time>2025-05-03T07:49:28Z</time>
      </trkpt>
      <trkpt lat="41.117688026279211" lon="-7.128140022978187">
        <ele>223.63999999999999</ele>
        <time>2025-05-03T07:49:32Z</time>
      </trkpt>
      <trkpt lat="41.117771007120609" lon="-7.128313025459647">
        <ele>223.16</ele>
        <time>2025-05-03T07:49:33Z</time>
      </trkpt>
      <trkpt lat="41.117886006832123" lon="-7.128457026556134">
        <ele>222.19999999999999</ele>
        <time>2025-05-03T07:49:34Z</time>
      </trkpt>
      <trkpt lat="41.118007963523269" lon="-7.128592981025577">
        <ele>221.72</ele>
        <time>2025-05-03T07:49:35Z</time>
      </trkpt>
      <trkpt lat="41.118157999590039" lon="-7.128667999058962">
        <ele>220.75999999999999</ele>
        <time>2025-05-03T07:49:36Z</time>
      </trkpt>
      <trkpt lat="41.11831096932292" lon="-7.128735976293683">
        <ele>220.28</ele>
        <time>2025-05-03T07:49:37Z</time>
      </trkpt>
      <trkpt lat="41.11848003230989" lon="-7.128761038184166">
        <ele>219.31999999999999</ele>
        <time>2025-05-03T07:49:38Z</time>
      </trkpt>
      <trkpt lat="41.119809988886118" lon="-7.128924988210201">
        <ele>215.47</ele>
        <time>2025-05-03T07:49:46Z</time>
      </trkpt>
      <trkpt lat="41.119972011074424" lon="-7.128881989046931">
        <ele>215.47</ele>
        <time>2025-05-03T07:49:47Z</time>
      </trkpt>
      <trkpt lat="41.120131015777588" lon="-7.128839995712042">
        <ele>215.47</ele>
        <time>2025-05-03T07:49:48Z</time>
      </trkpt>
      <trkpt lat="41.120226988568902" lon="-7.128723990172148">
        <ele>215.47</ele>
        <time>2025-05-03T07:49:49Z</time>
      </trkpt>
      <trkpt lat="41.120339976623654" lon="-7.128587029874325">
        <ele>215.47</ele>
        <time>2025-05-03T07:49:50Z</time>
      </trkpt>
      <trkpt lat="41.120442990213633" lon="-7.128436993807554">
        <ele>215.47</ele>
        <time>2025-05-03T07:49:51Z</time>
      </trkpt>
      <trkpt lat="41.12050099298358" lon="-7.128248987719417">
        <ele>215.47</ele>
        <time>2025-05-03T07:49:52Z</time>
      </trkpt>
      <trkpt lat="41.120561007410288" lon="-7.128054024651647">
        <ele>215.47</ele>
        <time>2025-05-03T07:49:53Z</time>
      </trkpt>
      <trkpt lat="41.120622027665377" lon="-7.127855960279703">
        <ele>215.47</ele>
        <time>2025-05-03T07:49:54Z</time>
      </trkpt>
      <trkpt lat="41.120683969929814" lon="-7.127656973898411">
        <ele>215.94999999999999</ele>
        <time>2025-05-03T07:49:55Z</time>
      </trkpt>
      <trkpt lat="41.120807016268373" lon="-7.127254977822304">
        <ele>215.94999999999999</ele>
        <time>2025-05-03T07:49:57Z</time>
      </trkpt>
      <trkpt lat="41.120875999331474" lon="-7.127060014754534">
        <ele>216.43000000000001</ele>
        <time>2025-05-03T07:49:58Z</time>
      </trkpt>
      <trkpt lat="41.120988987386227" lon="-7.126905033364892">
        <ele>216.43000000000001</ele>
        <time>2025-05-03T07:49:59Z</time>
      </trkpt>
      <trkpt lat="41.121097030118108" lon="-7.126758014783263">
        <ele>216.91</ele>
        <time>2025-05-03T07:50:00Z</time>
      </trkpt>
      <trkpt lat="41.121247988194227" lon="-7.12664301507175">
        <ele>216.91</ele>
        <time>2025-05-03T07:50:01Z</time>
      </trkpt>
      <trkpt lat="41.121397018432617" lon="-7.126529021188617">
        <ele>216.91</ele>
        <time>2025-05-03T07:50:02Z</time>
      </trkpt>
      <trkpt lat="41.12155300565064" lon="-7.126444028690457">
        <ele>216.43000000000001</ele>
        <time>2025-05-03T07:50:03Z</time>
      </trkpt>
      <trkpt lat="41.121741011738777" lon="-7.126372028142214">
        <ele>216.43000000000001</ele>
        <time>2025-05-03T07:50:04Z</time>
      </trkpt>
      <trkpt lat="41.122539974749088" lon="-7.126024011522532">
        <ele>212.59</ele>
        <time>2025-05-03T07:50:09Z</time>
      </trkpt>
      <trkpt lat="41.12269202247262" lon="-7.125900965183973">
        <ele>211.63</ele>
        <time>2025-05-03T07:50:10Z</time>
      </trkpt>
      <trkpt lat="41.122841974720359" lon="-7.125780014321208">
        <ele>210.66999999999999</ele>
        <time>2025-05-03T07:50:11Z</time>
      </trkpt>
      <trkpt lat="41.123264003545046" lon="-7.125424034893513">
        <ele>208.25999999999999</ele>
        <time>2025-05-03T07:50:14Z</time>
      </trkpt>
      <trkpt lat="41.123412027955055" lon="-7.125337030738592">
        <ele>207.30000000000001</ele>
        <time>2025-05-03T07:50:15Z</time>
      </trkpt>
      <trkpt lat="41.123586036264896" lon="-7.125235022976995">
        <ele>206.81999999999999</ele>
        <time>2025-05-03T07:50:16Z</time>
      </trkpt>
      <trkpt lat="41.125239031389356" lon="-7.124579977244139">
        <ele>197.69</ele>
        <time>2025-05-03T07:50:26Z</time>
      </trkpt>
      <trkpt lat="41.126267993822694" lon="-7.124161971732974">
        <ele>190.96000000000001</ele>
        <time>2025-05-03T07:50:33Z</time>
      </trkpt>
      <trkpt lat="41.126405037939548" lon="-7.12417496368289">
        <ele>189.52000000000001</ele>
        <time>2025-05-03T07:50:34Z</time>
      </trkpt>
      <trkpt lat="41.12653998658061" lon="-7.124188961461186">
        <ele>188.56</ele>
        <time>2025-05-03T07:50:35Z</time>
      </trkpt>
      <trkpt lat="41.127325035631657" lon="-7.124250987544656">
        <ele>180.38</ele>
        <time>2025-05-03T07:50:41Z</time>
      </trkpt>
      <trkpt lat="41.127416985109448" lon="-7.124263979494572">
        <ele>179.41999999999999</ele>
        <time>2025-05-03T07:50:42Z</time>
      </trkpt>
      <trkpt lat="41.127496026456356" lon="-7.124340003356338">
        <ele>177.97999999999999</ele>
        <time>2025-05-03T07:50:43Z</time>
      </trkpt>
      <trkpt lat="41.127533996477723" lon="-7.124442011117935">
        <ele>177.5</ele>
        <time>2025-05-03T07:50:44Z</time>
      </trkpt>
      <trkpt lat="41.127533996477723" lon="-7.12453898973763">
        <ele>177.02000000000001</ele>
        <time>2025-05-03T07:50:45Z</time>
      </trkpt>
      <trkpt lat="41.12750499509275" lon="-7.124625993892551">
        <ele>176.53999999999999</ele>
        <time>2025-05-03T07:50:46Z</time>
      </trkpt>
      <trkpt lat="41.127454033121467" lon="-7.124687014147639">
        <ele>176.53999999999999</ele>
        <time>2025-05-03T07:50:47Z</time>
      </trkpt>
      <trkpt lat="41.127381026744843" lon="-7.124720038846135">
        <ele>176.06</ele>
        <time>2025-05-03T07:50:48Z</time>
      </trkpt>
      <trkpt lat="41.127294022589922" lon="-7.124736970290542">
        <ele>175.58000000000001</ele>
        <time>2025-05-03T07:50:49Z</time>
      </trkpt>
      <trkpt lat="41.127202995121479" lon="-7.12479698471725">
        <ele>175.09999999999999</ele>
        <time>2025-05-03T07:50:50Z</time>
      </trkpt>
      <trkpt lat="41.127104004845023" lon="-7.124864039942622">
        <ele>174.62</ele>
        <time>2025-05-03T07:50:51Z</time>
      </trkpt>
      <trkpt lat="41.126995962113142" lon="-7.124936962500215">
        <ele>174.13999999999999</ele>
        <time>2025-05-03T07:50:52Z</time>
      </trkpt>
      <trkpt lat="41.126898983493447" lon="-7.125049028545618">
        <ele>173.66</ele>
        <time>2025-05-03T07:50:53Z</time>
      </trkpt>
      <trkpt lat="41.126826982945204" lon="-7.125191017985344">
        <ele>173.16999999999999</ele>
        <time>2025-05-03T07:50:54Z</time>
      </trkpt>
      <trkpt lat="41.126777026802301" lon="-7.125347005203366">
        <ele>172.21000000000001</ele>
        <time>2025-05-03T07:50:55Z</time>
      </trkpt>
      <trkpt lat="41.12675397656858" lon="-7.125522019341588">
        <ele>171.25</ele>
        <time>2025-05-03T07:50:56Z</time>
      </trkpt>
      <trkpt lat="41.126755988225341" lon="-7.125722011551261">
        <ele>170.77000000000001</ele>
        <time>2025-05-03T07:50:57Z</time>
      </trkpt>
      <trkpt lat="41.126788007095456" lon="-7.125923009589315">
        <ele>169.81</ele>
        <time>2025-05-03T07:50:58Z</time>
      </trkpt>
      <trkpt lat="41.126820025965571" lon="-7.126132976263762">
        <ele>168.84999999999999</ele>
        <time>2025-05-03T07:50:59Z</time>
      </trkpt>
      <trkpt lat="41.126970984041691" lon="-7.128095012158155">
        <ele>160.68000000000001</ele>
        <time>2025-05-03T07:51:07Z</time>
      </trkpt>
      <trkpt lat="41.126949023455381" lon="-7.128353007137775">
        <ele>159.72</ele>
        <time>2025-05-03T07:51:08Z</time>
      </trkpt>
      <trkpt lat="41.126890014857054" lon="-7.128611002117395">
        <ele>158.27000000000001</ele>
        <time>2025-05-03T07:51:09Z</time>
      </trkpt>
      <trkpt lat="41.126830000430346" lon="-7.128873020410538">
        <ele>156.83000000000001</ele>
        <time>2025-05-03T07:51:10Z</time>
      </trkpt>
      <trkpt lat="41.126762023195624" lon="-7.129126992076635">
        <ele>155.38999999999999</ele>
        <time>2025-05-03T07:51:11Z</time>
      </trkpt>
      <trkpt lat="41.126664960756898" lon="-7.129367971792817">
        <ele>154.43000000000001</ele>
        <time>2025-05-03T07:51:12Z</time>
      </trkpt>
      <trkpt lat="41.125454027205706" lon="-7.132073985412717">
        <ele>141.44999999999999</ele>
        <time>2025-05-03T07:51:23Z</time>
      </trkpt>
      <trkpt lat="41.124427998438478" lon="-7.133128009736538">
        <ele>138.09</ele>
        <time>2025-05-03T07:51:29Z</time>
      </trkpt>
      <trkpt lat="41.122642988339067" lon="-7.133881039917469">
        <ele>139.05000000000001</ele>
        <time>2025-05-03T07:51:38Z</time>
      </trkpt>
      <trkpt lat="41.120049962773919" lon="-7.134596016258001">
        <ele>145.30000000000001</ele>
        <time>2025-05-03T07:51:51Z</time>
      </trkpt>
      <trkpt lat="41.117547964677215" lon="-7.134900027886033">
        <ele>153.94999999999999</ele>
        <time>2025-05-03T07:52:03Z</time>
      </trkpt>
      <trkpt lat="41.115053007379174" lon="-7.134947972372174">
        <ele>158.27000000000001</ele>
        <time>2025-05-03T07:52:15Z</time>
      </trkpt>
      <trkpt lat="41.112152030691504" lon="-7.135041011497378">
        <ele>165.47999999999999</ele>
        <time>2025-05-03T07:52:29Z</time>
      </trkpt>
      <trkpt lat="41.110453018918633" lon="-7.135558007284999">
        <ele>169.33000000000001</ele>
        <time>2025-05-03T07:52:37Z</time>
      </trkpt>
      <trkpt lat="41.108914017677307" lon="-7.136695012450218">
        <ele>170.77000000000001</ele>
        <time>2025-05-03T07:52:45Z</time>
      </trkpt>
      <trkpt lat="41.107484987005591" lon="-7.138523021712899">
        <ele>172.21000000000001</ele>
        <time>2025-05-03T07:52:54Z</time>
      </trkpt>
      <trkpt lat="41.105564022436738" lon="-7.141231968998909">
        <ele>177.97999999999999</ele>
        <time>2025-05-03T07:53:07Z</time>
      </trkpt>
      <trkpt lat="41.103888982906938" lon="-7.142621017992497">
        <ele>183.75</ele>
        <time>2025-05-03T07:53:16Z</time>
      </trkpt>
      <trkpt lat="41.100984988734126" lon="-7.144399993121624">
        <ele>191.91999999999999</ele>
        <time>2025-05-03T07:53:30Z</time>
      </trkpt>
      <trkpt lat="41.098462035879493" lon="-7.145688040181994">
        <ele>199.13</ele>
        <time>2025-05-03T07:53:42Z</time>
      </trkpt>
      <trkpt lat="41.096104960888624" lon="-7.146519022062421">
        <ele>203.46000000000001</ele>
        <time>2025-05-03T07:53:53Z</time>
      </trkpt>
      <trkpt lat="41.094594039022923" lon="-7.14767798781395">
        <ele>207.30000000000001</ele>
        <time>2025-05-03T07:54:01Z</time>
      </trkpt>
      <trkpt lat="41.092862002551556" lon="-7.149269040673971">
        <ele>214.50999999999999</ele>
        <time>2025-05-03T07:54:11Z</time>
      </trkpt>
      <trkpt lat="41.091146981343627" lon="-7.150193983688951">
        <ele>221.72</ele>
        <time>2025-05-03T07:54:20Z</time>
      </trkpt>
      <trkpt lat="41.08829302713275" lon="-7.151665007695556">
        <ele>230.84999999999999</ele>
        <time>2025-05-03T07:54:35Z</time>
      </trkpt>
      <trkpt lat="41.08576001599431" lon="-7.152776028960943">
        <ele>239.02000000000001</ele>
        <time>2025-05-03T07:54:48Z</time>
      </trkpt>
      <trkpt lat="41.083631012588739" lon="-7.153123961761594">
        <ele>245.75</ele>
        <time>2025-05-03T07:54:58Z</time>
      </trkpt>
      <trkpt lat="41.082041971385479" lon="-7.15375897474587">
        <ele>251.03999999999999</ele>
        <time>2025-05-03T07:55:06Z</time>
      </trkpt>
      <trkpt lat="41.080490984022617" lon="-7.155010979622603">
        <ele>257.29000000000002</ele>
        <time>2025-05-03T07:55:15Z</time>
      </trkpt>
      <trkpt lat="41.078559961169958" lon="-7.156832031905651">
        <ele>265.94</ele>
        <time>2025-05-03T07:55:27Z</time>
      </trkpt>
      <trkpt lat="41.076887017115951" lon="-7.158185038715601">
        <ele>271.70999999999998</ele>
        <time>2025-05-03T07:55:37Z</time>
      </trkpt>
      <trkpt lat="41.074948031455278" lon="-7.159075029194355">
        <ele>278.92000000000002</ele>
        <time>2025-05-03T07:55:47Z</time>
      </trkpt>
      <trkpt lat="41.07190296985209" lon="-7.159985974431038">
        <ele>289.00999999999999</ele>
        <time>2025-05-03T07:56:02Z</time>
      </trkpt>
      <trkpt lat="41.06940901838243" lon="-7.160731963813305">
        <ele>305.36000000000001</ele>
        <time>2025-05-03T07:56:15Z</time>
      </trkpt>
      <trkpt lat="41.066842982545495" lon="-7.161890007555485">
        <ele>322.66000000000003</ele>
        <time>2025-05-03T07:56:29Z</time>
      </trkpt>
      <trkpt lat="41.064712973311543" lon="-7.163171013817191">
        <ele>339.95999999999998</ele>
        <time>2025-05-03T07:56:41Z</time>
      </trkpt>
      <trkpt lat="41.062425971031189" lon="-7.164518991485238">
        <ele>358.70999999999998</ele>
        <time>2025-05-03T07:56:54Z</time>
      </trkpt>
      <trkpt lat="41.05999899096787" lon="-7.165454998612404">
        <ele>375.05000000000001</ele>
        <time>2025-05-03T07:57:07Z</time>
      </trkpt>
      <trkpt lat="41.058573983609676" lon="-7.166484966874123">
        <ele>383.69999999999999</ele>
        <time>2025-05-03T07:57:16Z</time>
      </trkpt>
      <trkpt lat="41.056513041257858" lon="-7.168264025822282">
        <ele>393.31999999999999</ele>
        <time>2025-05-03T07:57:30Z</time>
      </trkpt>
      <trkpt lat="41.055587008595467" lon="-7.168836006894708">
        <ele>399.07999999999998</ele>
        <time>2025-05-03T07:57:38Z</time>
      </trkpt>
      <trkpt lat="41.05550997890532" lon="-7.168913036584854">
        <ele>399.56999999999999</ele>
        <time>2025-05-03T07:57:39Z</time>
      </trkpt>
      <trkpt lat="41.055436972528696" lon="-7.168986964970827">
        <ele>399.56999999999999</ele>
        <time>2025-05-03T07:57:40Z</time>
      </trkpt>
      <trkpt lat="41.05538098141551" lon="-7.169097019359469">
        <ele>400.05000000000001</ele>
        <time>2025-05-03T07:57:41Z</time>
      </trkpt>
      <trkpt lat="41.055354997515678" lon="-7.169225011020899">
        <ele>400.05000000000001</ele>
        <time>2025-05-03T07:57:42Z</time>
      </trkpt>
      <trkpt lat="41.055363966152072" lon="-7.169362977147102">
        <ele>400.52999999999997</ele>
        <time>2025-05-03T07:57:43Z</time>
      </trkpt>
      <trkpt lat="41.055363966152072" lon="-7.169532040134072">
        <ele>400.52999999999997</ele>
        <time>2025-05-03T07:57:44Z</time>
      </trkpt>
      <trkpt lat="41.055363966152072" lon="-7.169532040134072">
        <ele>400.52999999999997</ele>
        <time>2025-05-03T07:57:45Z</time>
      </trkpt>
      <trkpt lat="41.055290959775448" lon="-7.169813001528382">
        <ele>401.00999999999999</ele>
        <time>2025-05-03T07:57:46Z</time>
      </trkpt>
      <trkpt lat="41.055216025561094" lon="-7.169919032603502">
        <ele>401.49000000000001</ele>
        <time>2025-05-03T07:57:47Z</time>
      </trkpt>
      <trkpt lat="41.055134972557425" lon="-7.170035038143396">
        <ele>401.97000000000003</ele>
        <time>2025-05-03T07:57:48Z</time>
      </trkpt>
      <trkpt lat="41.055072024464607" lon="-7.170123970136046">
        <ele>402.93000000000001</ele>
        <time>2025-05-03T07:57:49Z</time>
      </trkpt>
      <trkpt lat="41.054946966469288" lon="-7.170265037566423">
        <ele>403.41000000000003</ele>
        <time>2025-05-03T07:57:50Z</time>
      </trkpt>
      <trkpt lat="41.05484495870769" lon="-7.170380959287286">
        <ele>403.88999999999999</ele>
        <time>2025-05-03T07:57:51Z</time>
      </trkpt>
      <trkpt lat="41.054744040593505" lon="-7.170498976483941">
        <ele>404.37</ele>
        <time>2025-05-03T07:57:52Z</time>
      </trkpt>
      <trkpt lat="41.054655024781823" lon="-7.170647000893951">
        <ele>404.85000000000002</ele>
        <time>2025-05-03T07:57:53Z</time>
      </trkpt>
      <trkpt lat="41.054469030350447" lon="-7.171036005020142">
        <ele>407.74000000000001</ele>
        <time>2025-05-03T07:57:56Z</time>
      </trkpt>
      <trkpt lat="41.054441034793854" lon="-7.171176988631487">
        <ele>408.69999999999999</ele>
        <time>2025-05-03T07:57:57Z</time>
      </trkpt>
      <trkpt lat="41.054424019530416" lon="-7.171328030526638">
        <ele>410.13999999999999</ele>
        <time>2025-05-03T07:57:58Z</time>
      </trkpt>
      <trkpt lat="41.054388983175159" lon="-7.171824993565679">
        <ele>413.98000000000002</ele>
        <time>2025-05-03T07:58:01Z</time>
      </trkpt>
      <trkpt lat="41.054350007325411" lon="-7.17197997495532">
        <ele>415.43000000000001</ele>
        <time>2025-05-03T07:58:02Z</time>
      </trkpt>
      <trkpt lat="41.054270965978503" lon="-7.172097992151976">
        <ele>416.38999999999999</ele>
        <time>2025-05-03T07:58:03Z</time>
      </trkpt>
      <trkpt lat="41.05417599901557" lon="-7.172164963558316">
        <ele>417.82999999999998</ele>
        <time>2025-05-03T07:58:04Z</time>
      </trkpt>
      <trkpt lat="41.054079020395875" lon="-7.172158006578684">
        <ele>418.31</ele>
        <time>2025-05-03T07:58:05Z</time>
      </trkpt>
      <trkpt lat="41.053976006805897" lon="-7.172104027122259">
        <ele>418.79000000000002</ele>
        <time>2025-05-03T07:58:06Z</time>
      </trkpt>
      <trkpt lat="41.053868969902396" lon="-7.172047030180693">
        <ele>419.26999999999998</ele>
        <time>2025-05-03T07:58:07Z</time>
      </trkpt>
      <trkpt lat="41.053763022646308" lon="-7.171991039067507">
        <ele>420.23000000000002</ele>
        <time>2025-05-03T07:58:08Z</time>
      </trkpt>
      <trkpt lat="41.053646011278033" lon="-7.171991039067507">
        <ele>421.68000000000001</ele>
        <time>2025-05-03T07:58:09Z</time>
      </trkpt>
      <trkpt lat="41.053544003516436" lon="-7.172063961625099">
        <ele>422.63999999999999</ele>
        <time>2025-05-03T07:58:10Z</time>
      </trkpt>
      <trkpt lat="41.053421963006258" lon="-7.172164041548967">
        <ele>423.60000000000002</ele>
        <time>2025-05-03T07:58:11Z</time>
      </trkpt>
      <trkpt lat="41.053283996880054" lon="-7.172275017946959">
        <ele>425.04000000000002</ele>
        <time>2025-05-03T07:58:12Z</time>
      </trkpt>
      <trkpt lat="41.052748980000615" lon="-7.172691011801362">
        <ele>429.85000000000002</ele>
        <time>2025-05-03T07:58:16Z</time>
      </trkpt>
      <trkpt lat="41.052667004987597" lon="-7.172823026776314">
        <ele>430.81</ele>
        <time>2025-05-03T07:58:17Z</time>
      </trkpt>
      <trkpt lat="41.052592992782593" lon="-7.172998040914536">
        <ele>431.76999999999998</ele>
        <time>2025-05-03T07:58:18Z</time>
      </trkpt>
      <trkpt lat="41.052560973912477" lon="-7.17320297844708">
        <ele>432.73000000000002</ele>
        <time>2025-05-03T07:58:19Z</time>
      </trkpt>
      <trkpt lat="41.052540019154549" lon="-7.173386039212346">
        <ele>433.69</ele>
        <time>2025-05-03T07:58:20Z</time>
      </trkpt>
      <trkpt lat="41.052571032196283" lon="-7.173606986179948">
        <ele>434.64999999999998</ele>
        <time>2025-05-03T07:58:21Z</time>
      </trkpt>
      <trkpt lat="41.052598021924496" lon="-7.173790968954563">
        <ele>436.10000000000002</ele>
        <time>2025-05-03T07:58:22Z</time>
      </trkpt>
      <trkpt lat="41.052688965573907" lon="-7.173926001414657">
        <ele>437.54000000000002</ele>
        <time>2025-05-03T07:58:23Z</time>
      </trkpt>
      <trkpt lat="41.052799019962549" lon="-7.174043012782931">
        <ele>438.5</ele>
        <time>2025-05-03T07:58:24Z</time>
      </trkpt>
      <trkpt lat="41.052903961390257" lon="-7.174153989180923">
        <ele>439.94</ele>
        <time>2025-05-03T07:58:25Z</time>
      </trkpt>
      <trkpt lat="41.052986020222306" lon="-7.174265971407294">
        <ele>440.89999999999998</ele>
        <time>2025-05-03T07:58:26Z</time>
      </trkpt>
      <trkpt lat="41.053007980808616" lon="-7.174403015524149">
        <ele>441.86000000000001</ele>
        <time>2025-05-03T07:58:27Z</time>
      </trkpt>
      <trkpt lat="41.053000018000603" lon="-7.174554979428649">
        <ele>442.81999999999999</ele>
        <time>2025-05-03T07:58:28Z</time>
      </trkpt>
      <trkpt lat="41.052990965545177" lon="-7.174722030758858">
        <ele>443.79000000000002</ele>
        <time>2025-05-03T07:58:29Z</time>
      </trkpt>
      <trkpt lat="41.052980991080403" lon="-7.174895033240318">
        <ele>445.23000000000002</ele>
        <time>2025-05-03T07:58:30Z</time>
      </trkpt>
      <trkpt lat="41.05297202244401" lon="-7.175064012408257">
        <ele>446.19</ele>
        <time>2025-05-03T07:58:31Z</time>
      </trkpt>
      <trkpt lat="41.05299599468708" lon="-7.175206001847982">
        <ele>447.14999999999998</ele>
        <time>2025-05-03T07:58:32Z</time>
      </trkpt>
      <trkpt lat="41.053055003285408" lon="-7.175381015986204">
        <ele>447.63</ele>
        <time>2025-05-03T07:58:33Z</time>
      </trkpt>
      <trkpt lat="41.053135972470045" lon="-7.17550297267735">
        <ele>448.58999999999997</ele>
        <time>2025-05-03T07:58:34Z</time>
      </trkpt>
      <trkpt lat="41.053135972470045" lon="-7.17550297267735">
        <ele>449.06999999999999</ele>
        <time>2025-05-03T07:58:35Z</time>
      </trkpt>
      <trkpt lat="41.053347028791904" lon="-7.175747975707054">
        <ele>450.02999999999997</ele>
        <time>2025-05-03T07:58:36Z</time>
      </trkpt>
      <trkpt lat="41.053475020453334" lon="-7.175821987912059">
        <ele>451</ele>
        <time>2025-05-03T07:58:37Z</time>
      </trkpt>
      <trkpt lat="41.053603012114763" lon="-7.175896000117064">
        <ele>451.95999999999998</ele>
        <time>2025-05-03T07:58:38Z</time>
      </trkpt>
      <trkpt lat="41.053731003776193" lon="-7.17597302980721">
        <ele>452.92000000000002</ele>
        <time>2025-05-03T07:58:39Z</time>
      </trkpt>
      <trkpt lat="41.053853966295719" lon="-7.176051987335086">
        <ele>453.39999999999998</ele>
        <time>2025-05-03T07:58:40Z</time>
      </trkpt>
      <trkpt lat="41.053953040391207" lon="-7.176168998703361">
        <ele>454.36000000000001</ele>
        <time>2025-05-03T07:58:41Z</time>
      </trkpt>
      <trkpt lat="41.05402403511107" lon="-7.176309982314706">
        <ele>454.83999999999997</ele>
        <time>2025-05-03T07:58:42Z</time>
      </trkpt>
      <trkpt lat="41.054041972383857" lon="-7.176476027816534">
        <ele>455.80000000000001</ele>
        <time>2025-05-03T07:58:43Z</time>
      </trkpt>
      <trkpt lat="41.054021017625928" lon="-7.176645006984472">
        <ele>456.75999999999999</ele>
        <time>2025-05-03T07:58:44Z</time>
      </trkpt>
      <trkpt lat="41.053945999592543" lon="-7.176795965060592">
        <ele>457.24000000000001</ele>
        <time>2025-05-03T07:58:45Z</time>
      </trkpt>
      <trkpt lat="41.053864024579525" lon="-7.176959998905659">
        <ele>458.20999999999998</ele>
        <time>2025-05-03T07:58:46Z</time>
      </trkpt>
      <trkpt lat="41.053720023483038" lon="-7.177312038838863">
        <ele>459.17000000000002</ele>
        <time>2025-05-03T07:58:48Z</time>
      </trkpt>
      <trkpt lat="41.053707031533122" lon="-7.177523011341691">
        <ele>460.13</ele>
        <time>2025-05-03T07:58:49Z</time>
      </trkpt>
      <trkpt lat="41.053706025704741" lon="-7.177715040743351">
        <ele>461.08999999999997</ele>
        <time>2025-05-03T07:58:50Z</time>
      </trkpt>
      <trkpt lat="41.053732009604573" lon="-7.17790899798274">
        <ele>462.52999999999997</ele>
        <time>2025-05-03T07:58:51Z</time>
      </trkpt>
      <trkpt lat="41.053807027637959" lon="-7.17805802822113">
        <ele>463.49000000000001</ele>
        <time>2025-05-03T07:58:52Z</time>
      </trkpt>
      <trkpt lat="41.053920015692711" lon="-7.178193982690573">
        <ele>464.93000000000001</ele>
        <time>2025-05-03T07:58:53Z</time>
      </trkpt>
      <trkpt lat="41.054041972383857" lon="-7.178342007100582">
        <ele>465.89999999999998</ele>
        <time>2025-05-03T07:58:54Z</time>
      </trkpt>
      <trkpt lat="41.054193014279008" lon="-7.178392969071865">
        <ele>466.86000000000001</ele>
        <time>2025-05-03T07:58:55Z</time>
      </trkpt>
      <trkpt lat="41.054364005103707" lon="-7.178449966013432">
        <ele>467.81999999999999</ele>
        <time>2025-05-03T07:58:56Z</time>
      </trkpt>
      <trkpt lat="41.054514041170478" lon="-7.178489025682211">
        <ele>469.25999999999999</ele>
        <time>2025-05-03T07:58:57Z</time>
      </trkpt>
      <trkpt lat="41.054833978414536" lon="-7.17857301235199">
        <ele>471.18000000000001</ele>
        <time>2025-05-03T07:58:59Z</time>
      </trkpt>
      <trkpt lat="41.054945038631558" lon="-7.178692035377026">
        <ele>472.63</ele>
        <time>2025-05-03T07:59:00Z</time>
      </trkpt>
      <trkpt lat="41.055045034736395" lon="-7.178822038695216">
        <ele>474.06999999999999</ele>
        <time>2025-05-03T07:59:01Z</time>
      </trkpt>
      <trkpt lat="41.055089961737394" lon="-7.178995041176677">
        <ele>475.50999999999999</ele>
        <time>2025-05-03T07:59:02Z</time>
      </trkpt>
      <trkpt lat="41.055115023627877" lon="-7.179179023951292">
        <ele>476.94999999999999</ele>
        <time>2025-05-03T07:59:03Z</time>
      </trkpt>
      <trkpt lat="41.0551000200212" lon="-7.179393013939261">
        <ele>477.91000000000003</ele>
        <time>2025-05-03T07:59:04Z</time>
      </trkpt>
      <trkpt lat="41.055068001151085" lon="-7.179595017805696">
        <ele>479.35000000000002</ele>
        <time>2025-05-03T07:59:05Z</time>
      </trkpt>
      <trkpt lat="41.054988959804177" lon="-7.179772965610027">
        <ele>480.31999999999999</ele>
        <time>2025-05-03T07:59:06Z</time>
      </trkpt>
      <trkpt lat="41.054878989234567" lon="-7.179952003061771">
        <ele>481.27999999999997</ele>
        <time>2025-05-03T07:59:07Z</time>
      </trkpt>
      <trkpt lat="41.054757032543421" lon="-7.180081000551581">
        <ele>482.24000000000001</ele>
        <time>2025-05-03T07:59:08Z</time>
      </trkpt>
      <trkpt lat="41.054622000083327" lon="-7.180222989991307">
        <ele>483.19999999999999</ele>
        <time>2025-05-03T07:59:09Z</time>
      </trkpt>
      <trkpt lat="41.05436903424561" lon="-7.180516021326184">
        <ele>484.63999999999999</ele>
        <time>2025-05-03T07:59:11Z</time>
      </trkpt>
      <trkpt lat="41.0542849637568" lon="-7.180667985230684">
        <ele>485.60000000000002</ele>
        <time>2025-05-03T07:59:12Z</time>
      </trkpt>
      <trkpt lat="41.054222015663981" lon="-7.180832019075751">
        <ele>486.56</ele>
        <time>2025-05-03T07:59:13Z</time>
      </trkpt>
      <trkpt lat="41.054201982915401" lon="-7.181017007678747">
        <ele>487.52999999999997</ele>
        <time>2025-05-03T07:59:14Z</time>
      </trkpt>
      <trkpt lat="41.054187985137105" lon="-7.181211970746517">
        <ele>488.49000000000001</ele>
        <time>2025-05-03T07:59:15Z</time>
      </trkpt>
      <trkpt lat="41.054174993187189" lon="-7.181398971006274">
        <ele>489.44999999999999</ele>
        <time>2025-05-03T07:59:16Z</time>
      </trkpt>
      <trkpt lat="41.054182033985853" lon="-7.181567028164864">
        <ele>489.93000000000001</ele>
        <time>2025-05-03T07:59:17Z</time>
      </trkpt>
      <trkpt lat="41.054222015663981" lon="-7.181704994291067">
        <ele>490.88999999999999</ele>
        <time>2025-05-03T07:59:18Z</time>
      </trkpt>
      <trkpt lat="41.054310025647283" lon="-7.181812031194568">
        <ele>491.37</ele>
        <time>2025-05-03T07:59:19Z</time>
      </trkpt>
      <trkpt lat="41.054384959861636" lon="-7.18190398067236">
        <ele>491.85000000000002</ele>
        <time>2025-05-03T07:59:20Z</time>
      </trkpt>
      <trkpt lat="41.054470958188176" lon="-7.182055022567511">
        <ele>492.32999999999998</ele>
        <time>2025-05-03T07:59:21Z</time>
      </trkpt>
      <trkpt lat="41.054526027292013" lon="-7.182219978421927">
        <ele>493.29000000000002</ele>
        <time>2025-05-03T07:59:22Z</time>
      </trkpt>
      <trkpt lat="41.054514041170478" lon="-7.182389963418245">
        <ele>493.76999999999998</ele>
        <time>2025-05-03T07:59:23Z</time>
      </trkpt>
      <trkpt lat="41.054486967623234" lon="-7.182561960071325">
        <ele>494.25999999999999</ele>
        <time>2025-05-03T07:59:24Z</time>
      </trkpt>
      <trkpt lat="41.054460983723402" lon="-7.182734040543437">
        <ele>495.22000000000003</ele>
        <time>2025-05-03T07:59:25Z</time>
      </trkpt>
      <trkpt lat="41.054450003430247" lon="-7.182900002226234">
        <ele>496.18000000000001</ele>
        <time>2025-05-03T07:59:26Z</time>
      </trkpt>
      <trkpt lat="41.054487973451614" lon="-7.183038974180818">
        <ele>496.66000000000003</ele>
        <time>2025-05-03T07:59:27Z</time>
      </trkpt>
      <trkpt lat="41.054557040333748" lon="-7.18314902856946">
        <ele>497.13999999999999</ele>
        <time>2025-05-03T07:59:28Z</time>
      </trkpt>
      <trkpt lat="41.054652007296681" lon="-7.183206025511026">
        <ele>497.62</ele>
        <time>2025-05-03T07:59:29Z</time>
      </trkpt>
      <trkpt lat="41.054771030321717" lon="-7.183200996369124">
        <ele>498.57999999999998</ele>
        <time>2025-05-03T07:59:30Z</time>
      </trkpt>
      <trkpt lat="41.054900027811527" lon="-7.183185992762446">
        <ele>499.06</ele>
        <time>2025-05-03T07:59:31Z</time>
      </trkpt>
      <trkpt lat="41.055045034736395" lon="-7.183163026347756">
        <ele>499.54000000000002</ele>
        <time>2025-05-03T07:59:32Z</time>
      </trkpt>
      <trkpt lat="41.055187024176121" lon="-7.183094965294004">
        <ele>500.01999999999998</ele>
        <time>2025-05-03T07:59:33Z</time>
      </trkpt>
      <trkpt lat="41.055482989177108" lon="-7.182952975854278">
        <ele>500.5</ele>
        <time>2025-05-03T07:59:35Z</time>
      </trkpt>
      <trkpt lat="41.055482989177108" lon="-7.182952975854278">
        <ele>500.5</ele>
        <time>2025-05-03T07:59:36Z</time>
      </trkpt>
      <trkpt lat="41.055781971663237" lon="-7.182901008054614">
        <ele>500.98000000000002</ele>
        <time>2025-05-03T07:59:37Z</time>
      </trkpt>
      <trkpt lat="41.055924966931343" lon="-7.182892961427569">
        <ele>501.45999999999998</ele>
        <time>2025-05-03T07:59:38Z</time>
      </trkpt>
      <trkpt lat="41.056029992178082" lon="-7.182960016652942">
        <ele>501.94999999999999</ele>
        <time>2025-05-03T07:59:39Z</time>
      </trkpt>
      <trkpt lat="41.056126970797777" lon="-7.183048026636243">
        <ele>502.43000000000001</ele>
        <time>2025-05-03T07:59:40Z</time>
      </trkpt>
      <trkpt lat="41.056206012144685" lon="-7.18319496139884">
        <ele>503.38999999999999</ele>
        <time>2025-05-03T07:59:41Z</time>
      </trkpt>
      <trkpt lat="41.056291004642844" lon="-7.183352960273624">
        <ele>504.35000000000002</ele>
        <time>2025-05-03T07:59:42Z</time>
      </trkpt>
      <trkpt lat="41.056378008797765" lon="-7.183511964976788">
        <ele>504.82999999999998</ele>
        <time>2025-05-03T07:59:43Z</time>
      </trkpt>
      <trkpt lat="41.056459983810782" lon="-7.1836650185287">
        <ele>505.79000000000002</ele>
        <time>2025-05-03T07:59:44Z</time>
      </trkpt>
      <trkpt lat="41.056536007672548" lon="-7.183804996311665">
        <ele>506.75</ele>
        <time>2025-05-03T07:59:45Z</time>
      </trkpt>
      <trkpt lat="41.056655030697584" lon="-7.183876996859908">
        <ele>507.23000000000002</ele>
        <time>2025-05-03T07:59:46Z</time>
      </trkpt>
      <trkpt lat="41.056785034015775" lon="-7.183928964659572">
        <ele>508.19</ele>
        <time>2025-05-03T07:59:47Z</time>
      </trkpt>
      <trkpt lat="41.056924005970359" lon="-7.183980010449886">
        <ele>508.67000000000002</ele>
        <time>2025-05-03T07:59:48Z</time>
      </trkpt>
      <trkpt lat="41.057604029774666" lon="-7.184264995157719">
        <ele>512.03999999999996</ele>
        <time>2025-05-03T07:59:53Z</time>
      </trkpt>
      <trkpt lat="41.057673012837768" lon="-7.184374965727329">
        <ele>512.51999999999998</ele>
        <time>2025-05-03T07:59:54Z</time>
      </trkpt>
      <trkpt lat="41.057710982859135" lon="-7.184478985145688">
        <ele>513.48000000000002</ele>
        <time>2025-05-03T07:59:55Z</time>
      </trkpt>
      <trkpt lat="41.057710982859135" lon="-7.18461200594902">
        <ele>514.44000000000005</ele>
        <time>2025-05-03T07:59:56Z</time>
      </trkpt>
      <trkpt lat="41.057650968432426" lon="-7.184700015932322">
        <ele>515.39999999999998</ele>
        <time>2025-05-03T07:59:57Z</time>
      </trkpt>
      <trkpt lat="41.057581985369325" lon="-7.184779979288578">
        <ele>516.37</ele>
        <time>2025-05-03T07:59:58Z</time>
      </trkpt>
      <trkpt lat="41.057495987042785" lon="-7.184766987338662">
        <ele>517.33000000000004</ele>
        <time>2025-05-03T07:59:59Z</time>
      </trkpt>
      <trkpt lat="41.057406971231103" lon="-7.184738991782069">
        <ele>517.80999999999995</ele>
        <time>2025-05-03T08:00:00Z</time>
      </trkpt>
      <trkpt lat="41.057306975126266" lon="-7.184661962091923">
        <ele>518.76999999999998</ele>
        <time>2025-05-03T08:00:01Z</time>
      </trkpt>
      <trkpt lat="41.057204967364669" lon="-7.184585016220808">
        <ele>519.25</ele>
        <time>2025-05-03T08:00:02Z</time>
      </trkpt>
      <trkpt lat="41.057106982916594" lon="-7.184509998187423">
        <ele>519.73000000000002</ele>
        <time>2025-05-03T08:00:03Z</time>
      </trkpt>
      <trkpt lat="41.056992989033461" lon="-7.184500023722649">
        <ele>520.21000000000004</ele>
        <time>2025-05-03T08:00:04Z</time>
      </trkpt>
      <trkpt lat="41.056867009028792" lon="-7.184534976258874">
        <ele>520.69000000000005</ele>
        <time>2025-05-03T08:00:05Z</time>
      </trkpt>
      <trkpt lat="41.056730970740318" lon="-7.184574035927653">
        <ele>521.16999999999996</ele>
        <time>2025-05-03T08:00:06Z</time>
      </trkpt>
      <trkpt lat="41.056469958275557" lon="-7.1846769656986">
        <ele>522.61000000000001</ele>
        <time>2025-05-03T08:00:08Z</time>
      </trkpt>
      <trkpt lat="41.05636702850461" lon="-7.184757012873888">
        <ele>523.09000000000003</ele>
        <time>2025-05-03T08:00:09Z</time>
      </trkpt>
      <trkpt lat="41.056286981329322" lon="-7.184880981221795">
        <ele>524.05999999999995</ele>
        <time>2025-05-03T08:00:10Z</time>
      </trkpt>
      <trkpt lat="41.056221015751362" lon="-7.185033028945327">
        <ele>524.53999999999996</ele>
        <time>2025-05-03T08:00:11Z</time>
      </trkpt>
      <trkpt lat="41.056176004931331" lon="-7.1852139942348">
        <ele>525.01999999999998</ele>
        <time>2025-05-03T08:00:12Z</time>
      </trkpt>
      <trkpt lat="41.0561309941113" lon="-7.185394037514925">
        <ele>525.5</ele>
        <time>2025-05-03T08:00:13Z</time>
      </trkpt>
      <trkpt lat="41.056090006604791" lon="-7.18555798754096">
        <ele>525.98000000000002</ele>
        <time>2025-05-03T08:00:14Z</time>
      </trkpt>
      <trkpt lat="41.05600199662149" lon="-7.185659995302558">
        <ele>526.46000000000004</ele>
        <time>2025-05-03T08:00:15Z</time>
      </trkpt>
      <trkpt lat="41.055899988859892" lon="-7.185739036649466">
        <ele>526.94000000000005</ele>
        <time>2025-05-03T08:00:16Z</time>
      </trkpt>
      <trkpt lat="41.055802004411817" lon="-7.185810031369329">
        <ele>527.41999999999996</ele>
        <time>2025-05-03T08:00:17Z</time>
      </trkpt>
      <trkpt lat="41.055712988600135" lon="-7.18589804135263">
        <ele>527.89999999999998</ele>
        <time>2025-05-03T08:00:18Z</time>
      </trkpt>
      <trkpt lat="41.055663032457232" lon="-7.186042964458466">
        <ele>528.38</ele>
        <time>2025-05-03T08:00:19Z</time>
      </trkpt>
      <trkpt lat="41.055650962516665" lon="-7.186197023838759">
        <ele>529.34000000000003</ele>
        <time>2025-05-03T08:00:20Z</time>
      </trkpt>
      <trkpt lat="41.055655991658568" lon="-7.186354016885161">
        <ele>529.82000000000005</ele>
        <time>2025-05-03T08:00:21Z</time>
      </trkpt>
      <trkpt lat="41.055732015520334" lon="-7.186491983011365">
        <ele>530.78999999999996</ele>
        <time>2025-05-03T08:00:22Z</time>
      </trkpt>
      <trkpt lat="41.055823964998126" lon="-7.186622992157936">
        <ele>531.75</ele>
        <time>2025-05-03T08:00:23Z</time>
      </trkpt>
      <trkpt lat="41.055925972759724" lon="-7.186751989647746">
        <ele>532.23000000000002</ele>
        <time>2025-05-03T08:00:24Z</time>
      </trkpt>
      <trkpt lat="41.056029992178082" lon="-7.186889033764601">
        <ele>533.19000000000005</ele>
        <time>2025-05-03T08:00:25Z</time>
      </trkpt>
      <trkpt lat="41.056137029081583" lon="-7.187034040689468">
        <ele>534.14999999999998</ele>
        <time>2025-05-03T08:00:26Z</time>
      </trkpt>
      <trkpt lat="41.056236019358039" lon="-7.187177035957575">
        <ele>535.11000000000001</ele>
        <time>2025-05-03T08:00:27Z</time>
      </trkpt>
      <trkpt lat="41.056288992986083" lon="-7.187336962670088">
        <ele>535.59000000000003</ele>
        <time>2025-05-03T08:00:28Z</time>
      </trkpt>
      <trkpt lat="41.056309025734663" lon="-7.187500996515155">
        <ele>537.02999999999997</ele>
        <time>2025-05-03T08:00:29Z</time>
      </trkpt>
      <trkpt lat="41.056292010471225" lon="-7.18768103979528">
        <ele>537.99000000000001</ele>
        <time>2025-05-03T08:00:30Z</time>
      </trkpt>
      <trkpt lat="41.056273989379406" lon="-7.18787600286305">
        <ele>538.48000000000002</ele>
        <time>2025-05-03T08:00:31Z</time>
      </trkpt>
      <trkpt lat="41.056254962459207" lon="-7.188081024214625">
        <ele>539.44000000000005</ele>
        <time>2025-05-03T08:00:32Z</time>
      </trkpt>
      <trkpt lat="41.056236019358039" lon="-7.188293002545834">
        <ele>540.39999999999998</ele>
        <time>2025-05-03T08:00:33Z</time>
      </trkpt>
      <trkpt lat="41.056214980781078" lon="-7.188512021675706">
        <ele>540.88</ele>
        <time>2025-05-03T08:00:34Z</time>
      </trkpt>
      <trkpt lat="41.05619503185153" lon="-7.188732968643308">
        <ele>541.84000000000003</ele>
        <time>2025-05-03T08:00:35Z</time>
      </trkpt>
      <trkpt lat="41.056153038516641" lon="-7.188950981944799">
        <ele>542.79999999999995</ele>
        <time>2025-05-03T08:00:36Z</time>
      </trkpt>
      <trkpt lat="41.056153038516641" lon="-7.188950981944799">
        <ele>543.75999999999999</ele>
        <time>2025-05-03T08:00:37Z</time>
      </trkpt>
      <trkpt lat="41.056038960814476" lon="-7.189367981627584">
        <ele>544.72000000000003</ele>
        <time>2025-05-03T08:00:38Z</time>
      </trkpt>
      <trkpt lat="41.055955979973078" lon="-7.189535032957792">
        <ele>545.69000000000005</ele>
        <time>2025-05-03T08:00:39Z</time>
      </trkpt>
      <trkpt lat="41.055865958333015" lon="-7.189671993255615">
        <ele>546.64999999999998</ele>
        <time>2025-05-03T08:00:40Z</time>
      </trkpt>
      <trkpt lat="41.055756993591785" lon="-7.189781041815877">
        <ele>547.61000000000001</ele>
        <time>2025-05-03T08:00:41Z</time>
      </trkpt>
      <trkpt lat="41.055629001930356" lon="-7.189819011837244">
        <ele>548.57000000000005</ele>
        <time>2025-05-03T08:00:42Z</time>
      </trkpt>
      <trkpt lat="41.055349968373775" lon="-7.189830997958779">
        <ele>550.00999999999999</ele>
        <time>2025-05-03T08:00:44Z</time>
      </trkpt>
      <trkpt lat="41.055115023627877" lon="-7.189807025715709">
        <ele>551.45000000000005</ele>
        <time>2025-05-03T08:00:46Z</time>
      </trkpt>
      <trkpt lat="41.055012010037899" lon="-7.189851030707359">
        <ele>551.92999999999995</ele>
        <time>2025-05-03T08:00:47Z</time>
      </trkpt>
      <trkpt lat="41.054929029196501" lon="-7.189958989620209">
        <ele>552.89999999999998</ele>
        <time>2025-05-03T08:00:48Z</time>
      </trkpt>
      <trkpt lat="41.054835990071297" lon="-7.190080024302006">
        <ele>553.38</ele>
        <time>2025-05-03T08:00:49Z</time>
      </trkpt>
      <trkpt lat="41.054742028936744" lon="-7.190211033448577">
        <ele>553.86000000000001</ele>
        <time>2025-05-03T08:00:50Z</time>
      </trkpt>
      <trkpt lat="41.05454295873642" lon="-7.190489983186126">
        <ele>555.29999999999995</ele>
        <time>2025-05-03T08:00:52Z</time>
      </trkpt>
      <trkpt lat="41.054427037015557" lon="-7.190576987341046">
        <ele>556.25999999999999</ele>
        <time>2025-05-03T08:00:53Z</time>
      </trkpt>
      <trkpt lat="41.054302984848619" lon="-7.190643958747387">
        <ele>556.74000000000001</ele>
        <time>2025-05-03T08:00:54Z</time>
      </trkpt>
      <trkpt lat="41.054197959601879" lon="-7.190674971789122">
        <ele>557.70000000000005</ele>
        <time>2025-05-03T08:00:55Z</time>
      </trkpt>
      <trkpt lat="41.054084971547127" lon="-7.190658962354064">
        <ele>558.65999999999997</ele>
        <time>2025-05-03T08:00:56Z</time>
      </trkpt>
      <trkpt lat="41.053994027897716" lon="-7.190586039796472">
        <ele>559.62</ele>
        <time>2025-05-03T08:00:57Z</time>
      </trkpt>
      <trkpt lat="41.053951028734446" lon="-7.190471040084958">
        <ele>560.59000000000003</ele>
        <time>2025-05-03T08:00:58Z</time>
      </trkpt>
      <trkpt lat="41.053911969065666" lon="-7.190323015674949">
        <ele>561.07000000000005</ele>
        <time>2025-05-03T08:00:59Z</time>
      </trkpt>
      <trkpt lat="41.05387601070106" lon="-7.190183959901333">
        <ele>562.02999999999997</ele>
        <time>2025-05-03T08:01:00Z</time>
      </trkpt>
      <trkpt lat="41.053849020972848" lon="-7.190080024302006">
        <ele>562.50999999999999</ele>
        <time>2025-05-03T08:01:01Z</time>
      </trkpt>
      <trkpt lat="41.05381297878921" lon="-7.189991008490324">
        <ele>563.47000000000003</ele>
        <time>2025-05-03T08:01:02Z</time>
      </trkpt>
      <trkpt lat="41.053721029311419" lon="-7.189760003238916">
        <ele>565.87</ele>
        <time>2025-05-03T08:01:07Z</time>
      </trkpt>
      <trkpt lat="41.053720023483038" lon="-7.189757991582155">
        <ele>566.35000000000002</ele>
        <time>2025-05-03T08:01:08Z</time>
      </trkpt>
      <trkpt lat="41.053678030148149" lon="-7.189722033217549">
        <ele>567.32000000000005</ele>
        <time>2025-05-03T08:01:09Z</time>
      </trkpt>
      <trkpt lat="41.053652968257666" lon="-7.189699988812208">
        <ele>567.79999999999995</ele>
        <time>2025-05-03T08:01:10Z</time>
      </trkpt>
      <trkpt lat="41.053630001842976" lon="-7.189680961892009">
        <ele>568.27999999999997</ele>
        <time>2025-05-03T08:01:11Z</time>
      </trkpt>
      <trkpt lat="41.053611980751157" lon="-7.189665036275983">
        <ele>569.24000000000001</ele>
        <time>2025-05-03T08:01:21Z</time>
      </trkpt>
      <trkpt lat="41.053611980751157" lon="-7.189665036275983">
        <ele>570.20000000000005</ele>
        <time>2025-05-03T08:02:16Z</time>
      </trkpt>
      <trkpt lat="41.053569987416267" lon="-7.189628994092345">
        <ele>570.67999999999995</ele>
        <time>2025-05-03T08:02:19Z</time>
      </trkpt>
      <trkpt lat="41.053408971056342" lon="-7.189628994092345">
        <ele>571.15999999999997</ele>
        <time>2025-05-03T08:02:22Z</time>
      </trkpt>
      <trkpt lat="41.05331601575017" lon="-7.189628994092345">
        <ele>571.63999999999999</ele>
        <time>2025-05-03T08:02:23Z</time>
      </trkpt>
      <trkpt lat="41.053153993561864" lon="-7.189823035150766">
        <ele>572.12</ele>
        <time>2025-05-03T08:02:25Z</time>
      </trkpt>
      <trkpt lat="41.053104037418962" lon="-7.189939040690661">
        <ele>572.60000000000002</ele>
        <time>2025-05-03T08:02:26Z</time>
      </trkpt>
      <trkpt lat="41.053075036033988" lon="-7.190072983503342">
        <ele>573.08000000000004</ele>
        <time>2025-05-03T08:02:27Z</time>
      </trkpt>
      <trkpt lat="41.052969004958868" lon="-7.19154903665185">
        <ele>576.92999999999995</ele>
        <time>2025-05-03T08:02:37Z</time>
      </trkpt>
      <trkpt lat="41.053018039092422" lon="-7.192719988524914">
        <ele>580.76999999999998</ele>
        <time>2025-05-03T08:02:45Z</time>
      </trkpt>
      <trkpt lat="41.05312499217689" lon="-7.193487016484141">
        <ele>583.65999999999997</ele>
        <time>2025-05-03T08:02:49Z</time>
      </trkpt>
      <trkpt lat="41.053134966641665" lon="-7.193709975108504">
        <ele>584.13999999999999</ele>
        <time>2025-05-03T08:02:50Z</time>
      </trkpt>
      <trkpt lat="41.053121974691749" lon="-7.193940980359912">
        <ele>585.10000000000002</ele>
        <time>2025-05-03T08:02:51Z</time>
      </trkpt>
      <trkpt lat="41.053057014942169" lon="-7.195188039913774">
        <ele>589.42999999999995</ele>
        <time>2025-05-03T08:02:56Z</time>
      </trkpt>
      <trkpt lat="41.053078975528479" lon="-7.195438994094729">
        <ele>590.38999999999999</ele>
        <time>2025-05-03T08:02:57Z</time>
      </trkpt>
      <trkpt lat="41.053161034360528" lon="-7.196354968473315">
        <ele>594.23000000000002</ele>
        <time>2025-05-03T08:03:01Z</time>
      </trkpt>
      <trkpt lat="41.053131027147174" lon="-7.196523025631905">
        <ele>594.71000000000004</ele>
        <time>2025-05-03T08:03:02Z</time>
      </trkpt>
      <trkpt lat="41.053063971921802" lon="-7.196683036163449">
        <ele>595.19000000000005</ele>
        <time>2025-05-03T08:03:03Z</time>
      </trkpt>
      <trkpt lat="41.052748980000615" lon="-7.197388960048556">
        <ele>598.55999999999995</ele>
        <time>2025-05-03T08:03:07Z</time>
      </trkpt>
      <trkpt lat="41.052732970565557" lon="-7.19754695892334">
        <ele>599.51999999999998</ele>
        <time>2025-05-03T08:03:08Z</time>
      </trkpt>
      <trkpt lat="41.05276096612215" lon="-7.197743011638522">
        <ele>600.48000000000002</ele>
        <time>2025-05-03T08:03:09Z</time>
      </trkpt>
      <trkpt lat="41.052787033841014" lon="-7.197929006069899">
        <ele>601.44000000000005</ele>
        <time>2025-05-03T08:03:10Z</time>
      </trkpt>
      <trkpt lat="41.052850987762213" lon="-7.198075018823147">
        <ele>602.88</ele>
        <time>2025-05-03T08:03:11Z</time>
      </trkpt>
      <trkpt lat="41.052949978038669" lon="-7.198213990777731">
        <ele>603.85000000000002</ele>
        <time>2025-05-03T08:03:12Z</time>
      </trkpt>
      <trkpt lat="41.053085010498762" lon="-7.198322033509612">
        <ele>605.28999999999996</ele>
        <time>2025-05-03T08:03:13Z</time>
      </trkpt>
      <trkpt lat="41.053232029080391" lon="-7.198407026007772">
        <ele>606.73000000000002</ele>
        <time>2025-05-03T08:03:14Z</time>
      </trkpt>
      <trkpt lat="41.053393967449665" lon="-7.198443990200758">
        <ele>607.69000000000005</ele>
        <time>2025-05-03T08:03:15Z</time>
      </trkpt>
      <trkpt lat="41.053569987416267" lon="-7.19842697493732">
        <ele>608.64999999999998</ele>
        <time>2025-05-03T08:03:16Z</time>
      </trkpt>
      <trkpt lat="41.053718011826277" lon="-7.198377018794417">
        <ele>609.61000000000001</ele>
        <time>2025-05-03T08:03:17Z</time>
      </trkpt>
      <trkpt lat="41.053869975730777" lon="-7.198344999924302">
        <ele>611.05999999999995</ele>
        <time>2025-05-03T08:03:18Z</time>
      </trkpt>
      <trkpt lat="41.054013976827264" lon="-7.198357991874218">
        <ele>612.5</ele>
        <time>2025-05-03T08:03:19Z</time>
      </trkpt>
      <trkpt lat="41.054137023165822" lon="-7.198422029614449">
        <ele>613.46000000000004</ele>
        <time>2025-05-03T08:03:20Z</time>
      </trkpt>
      <trkpt lat="41.054227966815233" lon="-7.198539962992072">
        <ele>614.41999999999996</ele>
        <time>2025-05-03T08:03:21Z</time>
      </trkpt>
      <trkpt lat="41.054300973191857" lon="-7.19868496991694">
        <ele>615.86000000000001</ele>
        <time>2025-05-03T08:03:22Z</time>
      </trkpt>
      <trkpt lat="41.054360987618566" lon="-7.1988579723984">
        <ele>616.82000000000005</ele>
        <time>2025-05-03T08:03:23Z</time>
      </trkpt>
      <trkpt lat="41.054422007873654" lon="-7.199031980708242">
        <ele>617.77999999999997</ele>
        <time>2025-05-03T08:03:24Z</time>
      </trkpt>
      <trkpt lat="41.054522003978491" lon="-7.19915896654129">
        <ele>618.75</ele>
        <time>2025-05-03T08:03:25Z</time>
      </trkpt>
      <trkpt lat="41.054646978154778" lon="-7.199216969311237">
        <ele>619.71000000000004</ele>
        <time>2025-05-03T08:03:26Z</time>
      </trkpt>
      <trkpt lat="41.054792990908027" lon="-7.199245970696211">
        <ele>620.66999999999996</ele>
        <time>2025-05-03T08:03:27Z</time>
      </trkpt>
      <trkpt lat="41.05495098978281" lon="-7.199277989566326">
        <ele>621.63</ele>
        <time>2025-05-03T08:03:28Z</time>
      </trkpt>
      <trkpt lat="41.055092979222536" lon="-7.1993069909513">
        <ele>622.11000000000001</ele>
        <time>2025-05-03T08:03:29Z</time>
      </trkpt>
      <trkpt lat="41.055219965055585" lon="-7.199420984834433">
        <ele>623.07000000000005</ele>
        <time>2025-05-03T08:03:30Z</time>
      </trkpt>
      <trkpt lat="41.055320966988802" lon="-7.199526010081172">
        <ele>624.02999999999997</ele>
        <time>2025-05-03T08:03:31Z</time>
      </trkpt>
      <trkpt lat="41.05538098141551" lon="-7.199684008955956">
        <ele>624.99000000000001</ele>
        <time>2025-05-03T08:03:32Z</time>
      </trkpt>
      <trkpt lat="41.055407971143723" lon="-7.199862040579319">
        <ele>625.96000000000004</ele>
        <time>2025-05-03T08:03:33Z</time>
      </trkpt>
      <trkpt lat="41.055402019992471" lon="-7.200042000040412">
        <ele>626.91999999999996</ele>
        <time>2025-05-03T08:03:34Z</time>
      </trkpt>
      <trkpt lat="41.055382993072271" lon="-7.200240986421704">
        <ele>627.39999999999998</ele>
        <time>2025-05-03T08:03:35Z</time>
      </trkpt>
      <trkpt lat="41.055362038314342" lon="-7.200454976409674">
        <ele>628.36000000000001</ele>
        <time>2025-05-03T08:03:36Z</time>
      </trkpt>
      <trkpt lat="41.055322978645563" lon="-7.200672989711165">
        <ele>628.84000000000003</ele>
        <time>2025-05-03T08:03:37Z</time>
      </trkpt>
      <trkpt lat="41.055263970047235" lon="-7.200885973870754">
        <ele>629.79999999999995</ele>
        <time>2025-05-03T08:03:38Z</time>
      </trkpt>
      <trkpt lat="41.054847976192832" lon="-7.20220897346735">
        <ele>636.04999999999995</ele>
        <time>2025-05-03T08:03:45Z</time>
      </trkpt>
      <trkpt lat="41.054822998121381" lon="-7.202361021190882">
        <ele>636.52999999999997</ele>
        <time>2025-05-03T08:03:46Z</time>
      </trkpt>
      <trkpt lat="41.054868008941412" lon="-7.202502004802227">
        <ele>637.00999999999999</ele>
        <time>2025-05-03T08:03:47Z</time>
      </trkpt>
      <trkpt lat="41.054912013933063" lon="-7.202643994241953">
        <ele>637.49000000000001</ele>
        <time>2025-05-03T08:03:48Z</time>
      </trkpt>
      <trkpt lat="41.054994994774461" lon="-7.202726975083351">
        <ele>638.45000000000005</ele>
        <time>2025-05-03T08:03:49Z</time>
      </trkpt>
      <trkpt lat="41.05509901419282" lon="-7.202797969803214">
        <ele>638.92999999999995</ele>
        <time>2025-05-03T08:03:50Z</time>
      </trkpt>
      <trkpt lat="41.055204039439559" lon="-7.202868964523077">
        <ele>639.40999999999997</ele>
        <time>2025-05-03T08:03:51Z</time>
      </trkpt>
      <trkpt lat="41.055327001959085" lon="-7.202884973958135">
        <ele>640.38</ele>
        <time>2025-05-03T08:03:52Z</time>
      </trkpt>
      <trkpt lat="41.055699996650219" lon="-7.202935013920069">
        <ele>642.29999999999995</ele>
        <time>2025-05-03T08:03:55Z</time>
      </trkpt>
      <trkpt lat="41.055843997746706" lon="-7.202954040840268">
        <ele>642.77999999999997</ele>
        <time>2025-05-03T08:03:56Z</time>
      </trkpt>
      <trkpt lat="41.055953968316317" lon="-7.20289402641356">
        <ele>643.25999999999999</ele>
        <time>2025-05-03T08:03:57Z</time>
      </trkpt>
      <trkpt lat="41.056070979684591" lon="-7.202802998945117">
        <ele>643.74000000000001</ele>
        <time>2025-05-03T08:03:58Z</time>
      </trkpt>
      <trkpt lat="41.056176004931331" lon="-7.202666038647294">
        <ele>644.22000000000003</ele>
        <time>2025-05-03T08:03:59Z</time>
      </trkpt>
      <trkpt lat="41.05628396384418" lon="-7.202523965388537">
        <ele>644.70000000000005</ele>
        <time>2025-05-03T08:04:00Z</time>
      </trkpt>
      <trkpt lat="41.056572971865535" lon="-7.202139990404248">
        <ele>647.10000000000002</ele>
        <time>2025-05-03T08:04:03Z</time>
      </trkpt>
      <trkpt lat="41.056666010990739" lon="-7.202092967927456">
        <ele>647.59000000000003</ele>
        <time>2025-05-03T08:04:04Z</time>
      </trkpt>
      <trkpt lat="41.056745974346995" lon="-7.202052986249328">
        <ele>648.54999999999995</ele>
        <time>2025-05-03T08:04:05Z</time>
      </trkpt>
      <trkpt lat="41.056838007643819" lon="-7.202091962099075">
        <ele>649.02999999999997</ele>
        <time>2025-05-03T08:04:06Z</time>
      </trkpt>
      <trkpt lat="41.056934986263514" lon="-7.202132027596235">
        <ele>649.50999999999999</ele>
        <time>2025-05-03T08:04:07Z</time>
      </trkpt>
      <trkpt lat="41.057024002075195" lon="-7.202190030366182">
        <ele>649.99000000000001</ele>
        <time>2025-05-03T08:04:08Z</time>
      </trkpt>
      <trkpt lat="41.057100025936961" lon="-7.202298995107412">
        <ele>650.47000000000003</ele>
        <time>2025-05-03T08:04:09Z</time>
      </trkpt>
      <trkpt lat="41.057161968201399" lon="-7.202407037839294">
        <ele>650.95000000000005</ele>
        <time>2025-05-03T08:04:10Z</time>
      </trkpt>
      <trkpt lat="41.057198010385036" lon="-7.202537963166833">
        <ele>651.42999999999995</ele>
        <time>2025-05-03T08:04:11Z</time>
      </trkpt>
      <trkpt lat="41.057203039526939" lon="-7.202666038647294">
        <ele>652.38999999999999</ele>
        <time>2025-05-03T08:04:12Z</time>
      </trkpt>
      <trkpt lat="41.057168003171682" lon="-7.202796963974834">
        <ele>652.87</ele>
        <time>2025-05-03T08:04:13Z</time>
      </trkpt>
      <trkpt lat="41.057133972644806" lon="-7.202925961464644">
        <ele>653.35000000000002</ele>
        <time>2025-05-03T08:04:14Z</time>
      </trkpt>
      <trkpt lat="41.057068007066846" lon="-7.203011959791184">
        <ele>654.30999999999995</ele>
        <time>2025-05-03T08:04:15Z</time>
      </trkpt>
      <trkpt lat="41.056959964334965" lon="-7.203146992251277">
        <ele>655.27999999999997</ele>
        <time>2025-05-03T08:04:16Z</time>
      </trkpt>
      <trkpt lat="41.056876983493567" lon="-7.203216981142759">
        <ele>655.75999999999999</ele>
        <time>2025-05-03T08:04:17Z</time>
      </trkpt>
      <trkpt lat="41.056038038805127" lon="-7.203807989135385">
        <ele>660.08000000000004</ele>
        <time>2025-05-03T08:04:23Z</time>
      </trkpt>
      <trkpt lat="41.055897977203131" lon="-7.203858029097319">
        <ele>660.55999999999995</ele>
        <time>2025-05-03T08:04:24Z</time>
      </trkpt>
      <trkpt lat="41.055753976106644" lon="-7.203870015218854">
        <ele>661.03999999999996</ele>
        <time>2025-05-03T08:04:25Z</time>
      </trkpt>
      <trkpt lat="41.054990971460938" lon="-7.203799020498991">
        <ele>664.40999999999997</ele>
        <time>2025-05-03T08:04:30Z</time>
      </trkpt>
      <trkpt lat="41.054859040305018" lon="-7.203748980537057">
        <ele>665.37</ele>
        <time>2025-05-03T08:04:31Z</time>
      </trkpt>
      <trkpt lat="41.054720990359783" lon="-7.203697012737393">
        <ele>665.85000000000002</ele>
        <time>2025-05-03T08:04:32Z</time>
      </trkpt>
      <trkpt lat="41.053818007931113" lon="-7.20321798697114">
        <ele>670.65999999999997</ele>
        <time>2025-05-03T08:04:38Z</time>
      </trkpt>
      <trkpt lat="41.053656991571188" lon="-7.203185968101025">
        <ele>671.62</ele>
        <time>2025-05-03T08:04:39Z</time>
      </trkpt>
      <trkpt lat="41.053491029888391" lon="-7.203179011121392">
        <ele>672.58000000000004</ele>
        <time>2025-05-03T08:04:40Z</time>
      </trkpt>
      <trkpt lat="41.05280103161931" lon="-7.203267021104693">
        <ele>672.58000000000004</ele>
        <time>2025-05-03T08:04:44Z</time>
      </trkpt>
      <trkpt lat="41.052642026916146" lon="-7.203377997502685">
        <ele>672.10000000000002</ele>
        <time>2025-05-03T08:04:45Z</time>
      </trkpt>
      <trkpt lat="41.052488973364234" lon="-7.203515963628888">
        <ele>671.62</ele>
        <time>2025-05-03T08:04:46Z</time>
      </trkpt>
      <trkpt lat="41.05232804082334" lon="-7.203660970553756">
        <ele>670.65999999999997</ele>
        <time>2025-05-03T08:04:47Z</time>
      </trkpt>
      <trkpt lat="41.052163001149893" lon="-7.203810000792146">
        <ele>669.70000000000005</ele>
        <time>2025-05-03T08:04:48Z</time>
      </trkpt>
      <trkpt lat="41.051291031762958" lon="-7.204703008756042">
        <ele>663.92999999999995</ele>
        <time>2025-05-03T08:04:54Z</time>
      </trkpt>
      <trkpt lat="41.051208972930908" lon="-7.204842986539006">
        <ele>662.97000000000003</ele>
        <time>2025-05-03T08:04:55Z</time>
      </trkpt>
      <trkpt lat="41.051188018172979" lon="-7.205039039254189">
        <ele>662.00999999999999</ele>
        <time>2025-05-03T08:04:56Z</time>
      </trkpt>
      <trkpt lat="41.051166979596019" lon="-7.205235008150339">
        <ele>661.51999999999998</ele>
        <time>2025-05-03T08:04:57Z</time>
      </trkpt>
      <trkpt lat="41.051180977374315" lon="-7.205457966774702">
        <ele>660.55999999999995</ele>
        <time>2025-05-03T08:04:58Z</time>
      </trkpt>
      <trkpt lat="41.051196986809373" lon="-7.205699030309916">
        <ele>660.08000000000004</ele>
        <time>2025-05-03T08:04:59Z</time>
      </trkpt>
      <trkpt lat="41.051251972094178" lon="-7.207182040438056">
        <ele>659.12</ele>
        <time>2025-05-03T08:05:05Z</time>
      </trkpt>
      <trkpt lat="41.051247026771307" lon="-7.207370968535543">
        <ele>659.12</ele>
        <time>2025-05-03T08:05:06Z</time>
      </trkpt>
      <trkpt lat="41.051182989031076" lon="-7.207565009593964">
        <ele>659.12</ele>
        <time>2025-05-03T08:05:07Z</time>
      </trkpt>
      <trkpt lat="41.050880989059806" lon="-7.208486013114452">
        <ele>660.08000000000004</ele>
        <time>2025-05-03T08:05:11Z</time>
      </trkpt>
      <trkpt lat="41.050809994339943" lon="-7.208738978952169">
        <ele>660.08000000000004</ele>
        <time>2025-05-03T08:05:12Z</time>
      </trkpt>
      <trkpt lat="41.050764983519912" lon="-7.209000997245312">
        <ele>660.08000000000004</ele>
        <time>2025-05-03T08:05:13Z</time>
      </trkpt>
      <trkpt lat="41.050533978268504" lon="-7.210476966574788">
        <ele>656.72000000000003</ele>
        <time>2025-05-03T08:05:19Z</time>
      </trkpt>
      <trkpt lat="41.050473041832447" lon="-7.210657009854913">
        <ele>656.24000000000001</ele>
        <time>2025-05-03T08:05:20Z</time>
      </trkpt>
      <trkpt lat="41.050398023799062" lon="-7.210818026214838">
        <ele>655.27999999999997</ele>
        <time>2025-05-03T08:05:21Z</time>
      </trkpt>
      <trkpt lat="41.050228038802743" lon="-7.211007960140705">
        <ele>654.30999999999995</ele>
        <time>2025-05-03T08:05:23Z</time>
      </trkpt>
      <trkpt lat="41.050104992464185" lon="-7.211063029244542">
        <ele>653.83000000000004</ele>
        <time>2025-05-03T08:05:24Z</time>
      </trkpt>
      <trkpt lat="41.049963003024459" lon="-7.211077027022839">
        <ele>653.35000000000002</ele>
        <time>2025-05-03T08:05:25Z</time>
      </trkpt>
      <trkpt lat="41.049806009978056" lon="-7.2110600117594">
        <ele>652.38999999999999</ele>
        <time>2025-05-03T08:05:26Z</time>
      </trkpt>
      <trkpt lat="41.049638036638498" lon="-7.211040984839201">
        <ele>651.90999999999997</ele>
        <time>2025-05-03T08:05:27Z</time>
      </trkpt>
      <trkpt lat="41.04947098530829" lon="-7.211022041738033">
        <ele>651.42999999999995</ele>
        <time>2025-05-03T08:05:28Z</time>
      </trkpt>
      <trkpt lat="41.049313992261887" lon="-7.211116002872586">
        <ele>650.47000000000003</ele>
        <time>2025-05-03T08:05:29Z</time>
      </trkpt>
      <trkpt lat="41.049144007265568" lon="-7.211215998977423">
        <ele>649.50999999999999</ele>
        <time>2025-05-03T08:05:30Z</time>
      </trkpt>
      <trkpt lat="41.04897603392601" lon="-7.21131800673902">
        <ele>648.54999999999995</ele>
        <time>2025-05-03T08:05:31Z</time>
      </trkpt>
      <trkpt lat="41.048523997887969" lon="-7.211657976731658">
        <ele>645.65999999999997</ele>
        <time>2025-05-03T08:05:34Z</time>
      </trkpt>
      <trkpt lat="41.048414027318358" lon="-7.211812036111951">
        <ele>644.22000000000003</ele>
        <time>2025-05-03T08:05:35Z</time>
      </trkpt>
      <trkpt lat="41.04833398014307" lon="-7.211984032765031">
        <ele>643.25999999999999</ele>
        <time>2025-05-03T08:05:36Z</time>
      </trkpt>
      <trkpt lat="41.048303972929716" lon="-7.212156029418111">
        <ele>642.77999999999997</ele>
        <time>2025-05-03T08:05:37Z</time>
      </trkpt>
      <trkpt lat="41.0482909809798" lon="-7.212331965565682">
        <ele>641.82000000000005</ele>
        <time>2025-05-03T08:05:38Z</time>
      </trkpt>
      <trkpt lat="41.048344038426876" lon="-7.212511003017426">
        <ele>640.86000000000001</ele>
        <time>2025-05-03T08:05:39Z</time>
      </trkpt>
      <trkpt lat="41.048402963206172" lon="-7.212709989398718">
        <ele>639.88999999999999</ele>
        <time>2025-05-03T08:05:40Z</time>
      </trkpt>
      <trkpt lat="41.048465995118022" lon="-7.212924985215068">
        <ele>638.92999999999995</ele>
        <time>2025-05-03T08:05:41Z</time>
      </trkpt>
      <trkpt lat="41.048519974574447" lon="-7.213150039315224">
        <ele>637.97000000000003</ele>
        <time>2025-05-03T08:05:42Z</time>
      </trkpt>
      <trkpt lat="41.048556016758084" lon="-7.213389007374644">
        <ele>637.00999999999999</ele>
        <time>2025-05-03T08:05:43Z</time>
      </trkpt>
      <trkpt lat="41.04859096929431" lon="-7.213629987090826">
        <ele>636.04999999999995</ele>
        <time>2025-05-03T08:05:44Z</time>
      </trkpt>
      <trkpt lat="41.048578983172774" lon="-7.213871972635388">
        <ele>634.61000000000001</ele>
        <time>2025-05-03T08:05:45Z</time>
      </trkpt>
      <trkpt lat="41.048558028414845" lon="-7.214095015078783">
        <ele>634.13</ele>
        <time>2025-05-03T08:05:46Z</time>
      </trkpt>
      <trkpt lat="41.048507988452911" lon="-7.214295007288456">
        <ele>633.16999999999996</ele>
        <time>2025-05-03T08:05:47Z</time>
      </trkpt>
      <trkpt lat="41.04844001121819" lon="-7.214447977021337">
        <ele>632.67999999999995</ele>
        <time>2025-05-03T08:05:48Z</time>
      </trkpt>
      <trkpt lat="41.048335991799831" lon="-7.21458200365305">
        <ele>631.72000000000003</ele>
        <time>2025-05-03T08:05:49Z</time>
      </trkpt>
      <trkpt lat="41.04822400957346" lon="-7.214726004749537">
        <ele>630.75999999999999</ele>
        <time>2025-05-03T08:05:50Z</time>
      </trkpt>
      <trkpt lat="41.048081014305353" lon="-7.214852990582585">
        <ele>629.79999999999995</ele>
        <time>2025-05-03T08:05:51Z</time>
      </trkpt>
      <trkpt lat="41.047927038744092" lon="-7.214966984465718">
        <ele>628.84000000000003</ele>
        <time>2025-05-03T08:05:52Z</time>
      </trkpt>
      <trkpt lat="41.047782031819224" lon="-7.215074021369219">
        <ele>627.88</ele>
        <time>2025-05-03T08:05:53Z</time>
      </trkpt>
      <trkpt lat="41.047685975208879" lon="-7.215221961960197">
        <ele>626.91999999999996</ele>
        <time>2025-05-03T08:05:54Z</time>
      </trkpt>
      <trkpt lat="41.047648005187511" lon="-7.215390019118786">
        <ele>625.96000000000004</ele>
        <time>2025-05-03T08:05:55Z</time>
      </trkpt>
      <trkpt lat="41.047619003802538" lon="-7.21559202298522">
        <ele>624.99000000000001</ele>
        <time>2025-05-03T08:05:56Z</time>
      </trkpt>
      <trkpt lat="41.047585979104042" lon="-7.215814981609583">
        <ele>624.02999999999997</ele>
        <time>2025-05-03T08:05:57Z</time>
      </trkpt>
      <trkpt lat="41.04738799855113" lon="-7.217734018340707">
        <ele>615.38</ele>
        <time>2025-05-03T08:06:04Z</time>
      </trkpt>
      <trkpt lat="41.047154981642962" lon="-7.220488982275128">
        <ele>611.05999999999995</ele>
        <time>2025-05-03T08:06:14Z</time>
      </trkpt>
      <trkpt lat="41.047202004119754" lon="-7.220714958384633">
        <ele>611.53999999999996</ele>
        <time>2025-05-03T08:06:15Z</time>
      </trkpt>
      <trkpt lat="41.047251038253307" lon="-7.220948981121182">
        <ele>612.01999999999998</ele>
        <time>2025-05-03T08:06:16Z</time>
      </trkpt>
      <trkpt lat="41.047637024894357" lon="-7.222383040934801">
        <ele>614.41999999999996</ele>
        <time>2025-05-03T08:06:22Z</time>
      </trkpt>
      <trkpt lat="41.04773199185729" lon="-7.222801968455315">
        <ele>615.38</ele>
        <time>2025-05-03T08:06:24Z</time>
      </trkpt>
      <trkpt lat="41.04775495827198" lon="-7.222973965108395">
        <ele>615.38</ele>
        <time>2025-05-03T08:06:25Z</time>
      </trkpt>
      <trkpt lat="41.047722017392516" lon="-7.223183009773493">
        <ele>615.38</ele>
        <time>2025-05-03T08:06:26Z</time>
      </trkpt>
      <trkpt lat="41.047689998522401" lon="-7.223381996154785">
        <ele>614.89999999999998</ele>
        <time>2025-05-03T08:06:27Z</time>
      </trkpt>
      <trkpt lat="41.047635013237596" lon="-7.223559021949768">
        <ele>614.89999999999998</ele>
        <time>2025-05-03T08:06:28Z</time>
      </trkpt>
      <trkpt lat="41.047208961099386" lon="-7.224954022094607">
        <ele>611.53999999999996</ele>
        <time>2025-05-03T08:06:34Z</time>
      </trkpt>
      <trkpt lat="41.047110976651311" lon="-7.225377978757024">
        <ele>610.09000000000003</ele>
        <time>2025-05-03T08:06:36Z</time>
      </trkpt>
      <trkpt lat="41.047122040763497" lon="-7.225558022037149">
        <ele>609.13</ele>
        <time>2025-05-03T08:06:37Z</time>
      </trkpt>
      <trkpt lat="41.04714903049171" lon="-7.225770000368357">
        <ele>608.64999999999998</ele>
        <time>2025-05-03T08:06:38Z</time>
      </trkpt>
      <trkpt lat="41.047218013554811" lon="-7.225980972871184">
        <ele>608.64999999999998</ele>
        <time>2025-05-03T08:06:39Z</time>
      </trkpt>
      <trkpt lat="41.047292025759816" lon="-7.22620602697134">
        <ele>609.13</ele>
        <time>2025-05-03T08:06:40Z</time>
      </trkpt>
      <trkpt lat="41.047990992665291" lon="-7.228274010121822">
        <ele>616.34000000000003</ele>
        <time>2025-05-03T08:06:49Z</time>
      </trkpt>
      <trkpt lat="41.048260973766446" lon="-7.229140028357506">
        <ele>620.66999999999996</ele>
        <time>2025-05-03T08:06:54Z</time>
      </trkpt>
      <trkpt lat="41.048293998464942" lon="-7.229296015575528">
        <ele>621.14999999999998</ele>
        <time>2025-05-03T08:06:55Z</time>
      </trkpt>
      <trkpt lat="41.048309002071619" lon="-7.229458037763834">
        <ele>622.11000000000001</ele>
        <time>2025-05-03T08:06:56Z</time>
      </trkpt>
      <trkpt lat="41.048407992348075" lon="-7.231015982106328">
        <ele>621.63</ele>
        <time>2025-05-03T08:07:05Z</time>
      </trkpt>
      <trkpt lat="41.048404974862933" lon="-7.231382019817829">
        <ele>621.14999999999998</ele>
        <time>2025-05-03T08:07:06Z</time>
      </trkpt>
      <trkpt lat="41.048367004841566" lon="-7.231533983722329">
        <ele>621.14999999999998</ele>
        <time>2025-05-03T08:07:07Z</time>
      </trkpt>
      <trkpt lat="41.048313025385141" lon="-7.231674967333674">
        <ele>620.66999999999996</ele>
        <time>2025-05-03T08:07:08Z</time>
      </trkpt>
      <trkpt lat="41.047783959656954" lon="-7.232901994138956">
        <ele>621.63</ele>
        <time>2025-05-03T08:07:18Z</time>
      </trkpt>
      <trkpt lat="41.047741966322064" lon="-7.233116989955306">
        <ele>621.63</ele>
        <time>2025-05-03T08:07:20Z</time>
      </trkpt>
      <trkpt lat="41.047732997685671" lon="-7.23321002908051">
        <ele>621.14999999999998</ele>
        <time>2025-05-03T08:07:21Z</time>
      </trkpt>
      <trkpt lat="41.047757975757122" lon="-7.233323017135263">
        <ele>620.66999999999996</ele>
        <time>2025-05-03T08:07:22Z</time>
      </trkpt>
      <trkpt lat="41.048110015690327" lon="-7.234828993678093">
        <ele>614.41999999999996</ele>
        <time>2025-05-03T08:07:34Z</time>
      </trkpt>
      <trkpt lat="41.048511005938053" lon="-7.236078986898065">
        <ele>611.53999999999996</ele>
        <time>2025-05-03T08:07:44Z</time>
      </trkpt>
      <trkpt lat="41.048909984529018" lon="-7.237066039815545">
        <ele>609.61000000000001</ele>
        <time>2025-05-03T08:07:50Z</time>
      </trkpt>
      <trkpt lat="41.048996988683939" lon="-7.237199982628226">
        <ele>610.09000000000003</ele>
        <time>2025-05-03T08:07:51Z</time>
      </trkpt>
      <trkpt lat="41.049115005880594" lon="-7.237257985398173">
        <ele>610.09000000000003</ele>
        <time>2025-05-03T08:07:52Z</time>
      </trkpt>
      <trkpt lat="41.049239980056882" lon="-7.237321017310023">
        <ele>610.57000000000005</ele>
        <time>2025-05-03T08:07:53Z</time>
      </trkpt>
      <trkpt lat="41.049368977546692" lon="-7.237384971231222">
        <ele>611.05999999999995</ele>
        <time>2025-05-03T08:07:54Z</time>
      </trkpt>
      <trkpt lat="41.051016021519899" lon="-7.238101959228516">
        <ele>620.19000000000005</ele>
        <time>2025-05-03T08:08:05Z</time>
      </trkpt>
      <trkpt lat="41.052137017250061" lon="-7.238659020513296">
        <ele>626.91999999999996</ele>
        <time>2025-05-03T08:08:12Z</time>
      </trkpt>
      <trkpt lat="41.052233995869756" lon="-7.238771002739668">
        <ele>627.39999999999998</ele>
        <time>2025-05-03T08:08:13Z</time>
      </trkpt>
      <trkpt lat="41.052313959226012" lon="-7.238892037421465">
        <ele>627.88</ele>
        <time>2025-05-03T08:08:14Z</time>
      </trkpt>
      <trkpt lat="41.052368022501469" lon="-7.239089012145996">
        <ele>628.84000000000003</ele>
        <time>2025-05-03T08:08:15Z</time>
      </trkpt>
      <trkpt lat="41.05241403914988" lon="-7.239276012405753">
        <ele>629.32000000000005</ele>
        <time>2025-05-03T08:08:16Z</time>
      </trkpt>
      <trkpt lat="41.052754009142518" lon="-7.240826999768615">
        <ele>628.84000000000003</ele>
        <time>2025-05-03T08:08:23Z</time>
      </trkpt>
      <trkpt lat="41.052726013585925" lon="-7.241038978099823">
        <ele>628.36000000000001</ele>
        <time>2025-05-03T08:08:24Z</time>
      </trkpt>
      <trkpt lat="41.052726013585925" lon="-7.241038978099823">
        <ele>627.88</ele>
        <time>2025-05-03T08:08:25Z</time>
      </trkpt>
      <trkpt lat="41.052604978904128" lon="-7.241337038576603">
        <ele>626.91999999999996</ele>
        <time>2025-05-03T08:08:26Z</time>
      </trkpt>
      <trkpt lat="41.052510011941195" lon="-7.24150400608778">
        <ele>625.96000000000004</ele>
        <time>2025-05-03T08:08:27Z</time>
      </trkpt>
      <trkpt lat="41.052260985597968" lon="-7.241942966356874">
        <ele>623.54999999999995</ele>
        <time>2025-05-03T08:08:30Z</time>
      </trkpt>
      <trkpt lat="41.052239025011659" lon="-7.242163997143507">
        <ele>622.59000000000003</ele>
        <time>2025-05-03T08:08:31Z</time>
      </trkpt>
      <trkpt lat="41.052217986434698" lon="-7.242372035980225">
        <ele>622.11000000000001</ele>
        <time>2025-05-03T08:08:32Z</time>
      </trkpt>
      <trkpt lat="41.052232990041375" lon="-7.242517964914441">
        <ele>621.14999999999998</ele>
        <time>2025-05-03T08:08:33Z</time>
      </trkpt>
      <trkpt lat="41.052250005304813" lon="-7.242698008194566">
        <ele>620.19000000000005</ele>
        <time>2025-05-03T08:08:34Z</time>
      </trkpt>
      <trkpt lat="41.052302978932858" lon="-7.242847960442305">
        <ele>619.23000000000002</ele>
        <time>2025-05-03T08:08:35Z</time>
      </trkpt>
      <trkpt lat="41.052386965602636" lon="-7.242940999567509">
        <ele>618.25999999999999</ele>
        <time>2025-05-03T08:08:36Z</time>
      </trkpt>
      <trkpt lat="41.052475981414318" lon="-7.24303001537919">
        <ele>617.77999999999997</ele>
        <time>2025-05-03T08:08:37Z</time>
      </trkpt>
      <trkpt lat="41.052597016096115" lon="-7.243105033412576">
        <ele>616.82000000000005</ele>
        <time>2025-05-03T08:08:38Z</time>
      </trkpt>
      <trkpt lat="41.052740011364222" lon="-7.243176028132439">
        <ele>615.86000000000001</ele>
        <time>2025-05-03T08:08:39Z</time>
      </trkpt>
      <trkpt lat="41.053806021809578" lon="-7.243661005049944">
        <ele>609.61000000000001</ele>
        <time>2025-05-03T08:08:46Z</time>
      </trkpt>
      <trkpt lat="41.053965026512742" lon="-7.243770975619555">
        <ele>608.64999999999998</ele>
        <time>2025-05-03T08:08:48Z</time>
      </trkpt>
      <trkpt lat="41.05402504093945" lon="-7.243827972561121">
        <ele>608.16999999999996</ele>
        <time>2025-05-03T08:08:49Z</time>
      </trkpt>
      <trkpt lat="41.054050019010901" lon="-7.243941966444254">
        <ele>607.21000000000004</ele>
        <time>2025-05-03T08:08:50Z</time>
      </trkpt>
      <trkpt lat="41.054068962112069" lon="-7.24408202804625">
        <ele>606.25</ele>
        <time>2025-05-03T08:08:51Z</time>
      </trkpt>
      <trkpt lat="41.054084971547127" lon="-7.244302975013852">
        <ele>605.76999999999998</ele>
        <time>2025-05-03T08:08:52Z</time>
      </trkpt>
      <trkpt lat="41.05406703427434" lon="-7.244459968060255">
        <ele>604.33000000000004</ele>
        <time>2025-05-03T08:08:53Z</time>
      </trkpt>
      <trkpt lat="41.054041972383857" lon="-7.244682004675269">
        <ele>603.36000000000001</ele>
        <time>2025-05-03T08:08:54Z</time>
      </trkpt>
      <trkpt lat="41.053758999332786" lon="-7.247083000838757">
        <ele>593.75</ele>
        <time>2025-05-03T08:09:03Z</time>
      </trkpt>
      <trkpt lat="41.053407965227962" lon="-7.249607965350151">
        <ele>584.13999999999999</ele>
        <time>2025-05-03T08:09:12Z</time>
      </trkpt>
      <trkpt lat="41.052484028041363" lon="-7.253288961946964">
        <ele>570.20000000000005</ele>
        <time>2025-05-03T08:09:26Z</time>
      </trkpt>
      <trkpt lat="41.051489012315869" lon="-7.257021004334092">
        <ele>566.83000000000004</ele>
        <time>2025-05-03T08:09:39Z</time>
      </trkpt>
      <trkpt lat="41.050301967188716" lon="-7.259452007710934">
        <ele>557.22000000000003</ele>
        <time>2025-05-03T08:09:49Z</time>
      </trkpt>
      <trkpt lat="41.049995021894574" lon="-7.260192967951298">
        <ele>552.40999999999997</ele>
        <time>2025-05-03T08:09:53Z</time>
      </trkpt>
      <trkpt lat="41.049970965832472" lon="-7.260376028716564">
        <ele>550.97000000000003</ele>
        <time>2025-05-03T08:09:54Z</time>
      </trkpt>
      <trkpt lat="41.04992201551795" lon="-7.26183095946908">
        <ele>545.69000000000005</ele>
        <time>2025-05-03T08:10:02Z</time>
      </trkpt>
      <trkpt lat="41.04992201551795" lon="-7.262204959988594">
        <ele>545.20000000000005</ele>
        <time>2025-05-03T08:10:05Z</time>
      </trkpt>
      <trkpt lat="41.04992201551795" lon="-7.262328006327152">
        <ele>545.20000000000005</ele>
        <time>2025-05-03T08:10:06Z</time>
      </trkpt>
      <trkpt lat="41.049947999417782" lon="-7.262423979118466">
        <ele>544.72000000000003</ele>
        <time>2025-05-03T08:10:07Z</time>
      </trkpt>
      <trkpt lat="41.049974989145994" lon="-7.262526992708445">
        <ele>544.24000000000001</ele>
        <time>2025-05-03T08:10:08Z</time>
      </trkpt>
      <trkpt lat="41.05000801384449" lon="-7.262650039047003">
        <ele>543.75999999999999</ele>
        <time>2025-05-03T08:10:09Z</time>
      </trkpt>
      <trkpt lat="41.050545964390039" lon="-7.263760976493359">
        <ele>538.48000000000002</ele>
        <time>2025-05-03T08:10:18Z</time>
      </trkpt>
      <trkpt lat="41.051480965688825" lon="-7.265638019889593">
        <ele>529.82000000000005</ele>
        <time>2025-05-03T08:10:32Z</time>
      </trkpt>
      <trkpt lat="41.052216980606318" lon="-7.267110971733928">
        <ele>525.98000000000002</ele>
        <time>2025-05-03T08:10:43Z</time>
      </trkpt>
      <trkpt lat="41.052721990272403" lon="-7.268547965213656">
        <ele>524.05999999999995</ele>
        <time>2025-05-03T08:10:53Z</time>
      </trkpt>
      <trkpt lat="41.052750991657376" lon="-7.268701018765569">
        <ele>524.05999999999995</ele>
        <time>2025-05-03T08:10:54Z</time>
      </trkpt>
      <trkpt lat="41.052778987213969" lon="-7.268853988498449">
        <ele>523.58000000000004</ele>
        <time>2025-05-03T08:10:55Z</time>
      </trkpt>
      <trkpt lat="41.053229011595249" lon="-7.270855000242591">
        <ele>518.28999999999996</ele>
        <time>2025-05-03T08:11:08Z</time>
      </trkpt>
      <trkpt lat="41.053772997111082" lon="-7.272596005350351">
        <ele>513</ele>
        <time>2025-05-03T08:11:19Z</time>
      </trkpt>
      <trkpt lat="41.053836029022932" lon="-7.272748975083232">
        <ele>513</ele>
        <time>2025-05-03T08:11:20Z</time>
      </trkpt>
      <trkpt lat="41.05475502088666" lon="-7.274609003216028">
        <ele>509.16000000000003</ele>
        <time>2025-05-03T08:11:31Z</time>
      </trkpt>
      <trkpt lat="41.055015027523041" lon="-7.275146031752229">
        <ele>507.70999999999998</ele>
        <time>2025-05-03T08:11:34Z</time>
      </trkpt>
      <trkpt lat="41.055072024464607" lon="-7.275331020355225">
        <ele>507.23000000000002</ele>
        <time>2025-05-03T08:11:35Z</time>
      </trkpt>
      <trkpt lat="41.055103959515691" lon="-7.275541992858052">
        <ele>506.75</ele>
        <time>2025-05-03T08:11:36Z</time>
      </trkpt>
      <trkpt lat="41.055463962256908" lon="-7.278022030368447">
        <ele>500.98000000000002</ele>
        <time>2025-05-03T08:11:47Z</time>
      </trkpt>
      <trkpt lat="41.055493969470263" lon="-7.278225040063262">
        <ele>500.01999999999998</ele>
        <time>2025-05-03T08:11:48Z</time>
      </trkpt>
      <trkpt lat="41.055559013038874" lon="-7.278401982039213">
        <ele>499.54000000000002</ele>
        <time>2025-05-03T08:11:49Z</time>
      </trkpt>
      <trkpt lat="41.055653980001807" lon="-7.278515975922346">
        <ele>499.06</ele>
        <time>2025-05-03T08:11:50Z</time>
      </trkpt>
      <trkpt lat="41.055779960006475" lon="-7.278613960370421">
        <ele>498.57999999999998</ele>
        <time>2025-05-03T08:11:51Z</time>
      </trkpt>
      <trkpt lat="41.055880961939692" lon="-7.27863198146224">
        <ele>497.62</ele>
        <time>2025-05-03T08:11:52Z</time>
      </trkpt>
      <trkpt lat="41.056014988571405" lon="-7.278656959533691">
        <ele>497.13999999999999</ele>
        <time>2025-05-03T08:11:53Z</time>
      </trkpt>
      <trkpt lat="41.056150021031499" lon="-7.278681015595794">
        <ele>496.66000000000003</ele>
        <time>2025-05-03T08:11:54Z</time>
      </trkpt>
      <trkpt lat="41.056270971894264" lon="-7.2787169739604">
        <ele>495.69999999999999</ele>
        <time>2025-05-03T08:11:55Z</time>
      </trkpt>
      <trkpt lat="41.056374991312623" lon="-7.278811018913984">
        <ele>494.74000000000001</ele>
        <time>2025-05-03T08:11:56Z</time>
      </trkpt>
      <trkpt lat="41.056467024609447" lon="-7.278892993927002">
        <ele>494.25999999999999</ele>
        <time>2025-05-03T08:11:57Z</time>
      </trkpt>
      <trkpt lat="41.056476999074221" lon="-7.279031965881586">
        <ele>493.29000000000002</ele>
        <time>2025-05-03T08:11:58Z</time>
      </trkpt>
      <trkpt lat="41.056487979367375" lon="-7.279172027483583">
        <ele>492.81</ele>
        <time>2025-05-03T08:11:59Z</time>
      </trkpt>
      <trkpt lat="41.056459983810782" lon="-7.279314016923308">
        <ele>492.32999999999998</ele>
        <time>2025-05-03T08:12:00Z</time>
      </trkpt>
      <trkpt lat="41.056411033496261" lon="-7.279462041333318">
        <ele>491.85000000000002</ele>
        <time>2025-05-03T08:12:01Z</time>
      </trkpt>
      <trkpt lat="41.05634699575603" lon="-7.279605958610773">
        <ele>490.88999999999999</ele>
        <time>2025-05-03T08:12:02Z</time>
      </trkpt>
      <trkpt lat="41.056282036006451" lon="-7.279749037697911">
        <ele>490.41000000000003</ele>
        <time>2025-05-03T08:12:03Z</time>
      </trkpt>
      <trkpt lat="41.056254962459207" lon="-7.279917011037469">
        <ele>489.93000000000001</ele>
        <time>2025-05-03T08:12:04Z</time>
      </trkpt>
      <trkpt lat="41.056262003257871" lon="-7.280107028782368">
        <ele>489.44999999999999</ele>
        <time>2025-05-03T08:12:05Z</time>
      </trkpt>
      <trkpt lat="41.056268960237503" lon="-7.280311966314912">
        <ele>488.97000000000003</ele>
        <time>2025-05-03T08:12:06Z</time>
      </trkpt>
      <trkpt lat="41.05628103017807" lon="-7.280527967959642">
        <ele>488.00999999999999</ele>
        <time>2025-05-03T08:12:07Z</time>
      </trkpt>
      <trkpt lat="41.056463001295924" lon="-7.28247600607574">
        <ele>482.24000000000001</ele>
        <time>2025-05-03T08:12:15Z</time>
      </trkpt>
      <trkpt lat="41.056379014626145" lon="-7.283746032044292">
        <ele>477.43000000000001</ele>
        <time>2025-05-03T08:12:20Z</time>
      </trkpt>
      <trkpt lat="41.056343978270888" lon="-7.283978965133429">
        <ele>476.47000000000003</ele>
        <time>2025-05-03T08:12:21Z</time>
      </trkpt>
      <trkpt lat="41.05626099742949" lon="-7.284181974828243">
        <ele>475.50999999999999</ele>
        <time>2025-05-03T08:12:22Z</time>
      </trkpt>
      <trkpt lat="41.056167036294937" lon="-7.284380039200187">
        <ele>474.55000000000001</ele>
        <time>2025-05-03T08:12:23Z</time>
      </trkpt>
      <trkpt lat="41.056071985512972" lon="-7.284575002267957">
        <ele>473.58999999999997</ele>
        <time>2025-05-03T08:12:24Z</time>
      </trkpt>
      <trkpt lat="41.055886996909976" lon="-7.284943973645568">
        <ele>471.66000000000003</ele>
        <time>2025-05-03T08:12:26Z</time>
      </trkpt>
      <trkpt lat="41.055845003575087" lon="-7.285154024139047">
        <ele>470.69999999999999</ele>
        <time>2025-05-03T08:12:27Z</time>
      </trkpt>
      <trkpt lat="41.055826982483268" lon="-7.285344041883946">
        <ele>469.74000000000001</ele>
        <time>2025-05-03T08:12:28Z</time>
      </trkpt>
      <trkpt lat="41.055836034938693" lon="-7.285541016608477">
        <ele>468.77999999999997</ele>
        <time>2025-05-03T08:12:29Z</time>
      </trkpt>
      <trkpt lat="41.055848021060228" lon="-7.285747965797782">
        <ele>467.33999999999997</ele>
        <time>2025-05-03T08:12:30Z</time>
      </trkpt>
      <trkpt lat="41.056009037420154" lon="-7.286833003163338">
        <ele>463.00999999999999</ele>
        <time>2025-05-03T08:12:35Z</time>
      </trkpt>
      <trkpt lat="41.056073997169733" lon="-7.287029977887869">
        <ele>462.05000000000001</ele>
        <time>2025-05-03T08:12:36Z</time>
      </trkpt>
      <trkpt lat="41.05615203268826" lon="-7.287221001461148">
        <ele>461.08999999999997</ele>
        <time>2025-05-03T08:12:37Z</time>
      </trkpt>
      <trkpt lat="41.056257979944348" lon="-7.287385035306215">
        <ele>460.13</ele>
        <time>2025-05-03T08:12:38Z</time>
      </trkpt>
      <trkpt lat="41.056379014626145" lon="-7.287539010867477">
        <ele>459.17000000000002</ele>
        <time>2025-05-03T08:12:39Z</time>
      </trkpt>
      <trkpt lat="41.05651899240911" lon="-7.287672031670809">
        <ele>458.20999999999998</ele>
        <time>2025-05-03T08:12:40Z</time>
      </trkpt>
      <trkpt lat="41.056658970192075" lon="-7.287800023332238">
        <ele>456.75999999999999</ele>
        <time>2025-05-03T08:12:41Z</time>
      </trkpt>
      <trkpt lat="41.057232040911913" lon="-7.288439981639385">
        <ele>452.44</ele>
        <time>2025-05-03T08:12:46Z</time>
      </trkpt>
      <trkpt lat="41.057293983176351" lon="-7.288583982735872">
        <ele>451.48000000000002</ele>
        <time>2025-05-03T08:12:47Z</time>
      </trkpt>
      <trkpt lat="41.057320972904563" lon="-7.288734018802643">
        <ele>451</ele>
        <time>2025-05-03T08:12:48Z</time>
      </trkpt>
      <trkpt lat="41.057312004268169" lon="-7.288912972435355">
        <ele>450.02999999999997</ele>
        <time>2025-05-03T08:12:49Z</time>
      </trkpt>
      <trkpt lat="41.057302029803395" lon="-7.289102990180254">
        <ele>449.06999999999999</ele>
        <time>2025-05-03T08:12:50Z</time>
      </trkpt>
      <trkpt lat="41.057291971519589" lon="-7.289298959076405">
        <ele>448.58999999999997</ele>
        <time>2025-05-03T08:12:51Z</time>
      </trkpt>
      <trkpt lat="41.057281997054815" lon="-7.289493000134826">
        <ele>447.63</ele>
        <time>2025-05-03T08:12:52Z</time>
      </trkpt>
      <trkpt lat="41.057330025359988" lon="-7.289668014273047">
        <ele>446.67000000000002</ele>
        <time>2025-05-03T08:12:53Z</time>
      </trkpt>
      <trkpt lat="41.057346034795046" lon="-7.289729034528136">
        <ele>445.70999999999998</ele>
        <time>2025-05-03T08:12:54Z</time>
      </trkpt>
      <trkpt lat="41.05746204033494" lon="-7.28984504006803">
        <ele>445.23000000000002</ele>
        <time>2025-05-03T08:12:55Z</time>
      </trkpt>
      <trkpt lat="41.057561030611396" lon="-7.289944030344486">
        <ele>444.26999999999998</ele>
        <time>2025-05-03T08:12:56Z</time>
      </trkpt>
      <trkpt lat="41.057662032544613" lon="-7.289993986487389">
        <ele>443.79000000000002</ele>
        <time>2025-05-03T08:12:57Z</time>
      </trkpt>
      <trkpt lat="41.059181001037359" lon="-7.290630005300045">
        <ele>438.5</ele>
        <time>2025-05-03T08:13:08Z</time>
      </trkpt>
      <trkpt lat="41.059319972991943" lon="-7.290651965886354">
        <ele>438.98000000000002</ele>
        <time>2025-05-03T08:13:09Z</time>
      </trkpt>
      <trkpt lat="41.059434972703457" lon="-7.290613995864987">
        <ele>438.98000000000002</ele>
        <time>2025-05-03T08:13:10Z</time>
      </trkpt>
      <trkpt lat="41.059551984071732" lon="-7.29057502001524">
        <ele>439.45999999999998</ele>
        <time>2025-05-03T08:13:11Z</time>
      </trkpt>
      <trkpt lat="41.059670001268387" lon="-7.290525985881686">
        <ele>439.45999999999998</ele>
        <time>2025-05-03T08:13:12Z</time>
      </trkpt>
      <trkpt lat="41.059774020686746" lon="-7.290457002818584">
        <ele>439.45999999999998</ele>
        <time>2025-05-03T08:13:13Z</time>
      </trkpt>
      <trkpt lat="41.060152966529131" lon="-7.290299003943801">
        <ele>439.94</ele>
        <time>2025-05-03T08:13:17Z</time>
      </trkpt>
      <trkpt lat="41.060240976512432" lon="-7.290284000337124">
        <ele>439.94</ele>
        <time>2025-05-03T08:13:18Z</time>
      </trkpt>
      <trkpt lat="41.060324963182211" lon="-7.290270002558827">
        <ele>440.42000000000002</ele>
        <time>2025-05-03T08:13:19Z</time>
      </trkpt>
      <trkpt lat="41.060324963182211" lon="-7.290270002558827">
        <ele>440.42000000000002</ele>
        <time>2025-05-03T08:13:20Z</time>
      </trkpt>
      <trkpt lat="41.060482040047646" lon="-7.290336973965168">
        <ele>440.89999999999998</ele>
        <time>2025-05-03T08:13:21Z</time>
      </trkpt>
      <trkpt lat="41.060573989525437" lon="-7.290386008098722">
        <ele>440.89999999999998</ele>
        <time>2025-05-03T08:13:22Z</time>
      </trkpt>
      <trkpt lat="41.06066501699388" lon="-7.290443005040288">
        <ele>441.38</ele>
        <time>2025-05-03T08:13:23Z</time>
      </trkpt>
      <trkpt lat="41.061965972185135" lon="-7.291426034644246">
        <ele>448.58999999999997</ele>
        <time>2025-05-03T08:13:36Z</time>
      </trkpt>
      <trkpt lat="41.062479028478265" lon="-7.291855020448566">
        <ele>453.88</ele>
        <time>2025-05-03T08:13:41Z</time>
      </trkpt>
      <trkpt lat="41.062581036239862" lon="-7.291941018775106">
        <ele>453.88</ele>
        <time>2025-05-03T08:13:42Z</time>
      </trkpt>
      <trkpt lat="41.062682960182428" lon="-7.292027017101646">
        <ele>454.36000000000001</ele>
        <time>2025-05-03T08:13:43Z</time>
      </trkpt>
      <trkpt lat="41.063677975907922" lon="-7.293196963146329">
        <ele>458.69</ele>
        <time>2025-05-03T08:13:54Z</time>
      </trkpt>
      <trkpt lat="41.063910992816091" lon="-7.293544979766011">
        <ele>459.64999999999998</ele>
        <time>2025-05-03T08:13:57Z</time>
      </trkpt>
      <trkpt lat="41.063956003636122" lon="-7.293679006397724">
        <ele>460.13</ele>
        <time>2025-05-03T08:13:58Z</time>
      </trkpt>
      <trkpt lat="41.063997996971011" lon="-7.293805992230773">
        <ele>460.61000000000001</ele>
        <time>2025-05-03T08:13:59Z</time>
      </trkpt>
      <trkpt lat="41.064001014456153" lon="-7.293938007205725">
        <ele>460.61000000000001</ele>
        <time>2025-05-03T08:14:00Z</time>
      </trkpt>
      <trkpt lat="41.064003026112914" lon="-7.294082008302212">
        <ele>461.08999999999997</ele>
        <time>2025-05-03T08:14:01Z</time>
      </trkpt>
      <trkpt lat="41.064005959779024" lon="-7.294227015227079">
        <ele>461.08999999999997</ele>
        <time>2025-05-03T08:14:02Z</time>
      </trkpt>
      <trkpt lat="41.063989028334618" lon="-7.296189973130822">
        <ele>462.05000000000001</ele>
        <time>2025-05-03T08:14:14Z</time>
      </trkpt>
      <trkpt lat="41.063959021121264" lon="-7.29652700945735">
        <ele>462.52999999999997</ele>
        <time>2025-05-03T08:14:16Z</time>
      </trkpt>
      <trkpt lat="41.063937982544303" lon="-7.296690037474036">
        <ele>462.52999999999997</ele>
        <time>2025-05-03T08:14:17Z</time>
      </trkpt>
      <trkpt lat="41.063885008916259" lon="-7.296846024692059">
        <ele>463.00999999999999</ele>
        <time>2025-05-03T08:14:18Z</time>
      </trkpt>
      <trkpt lat="41.063820971176028" lon="-7.297006035223603">
        <ele>463.49000000000001</ele>
        <time>2025-05-03T08:14:19Z</time>
      </trkpt>
      <trkpt lat="41.063746036961675" lon="-7.297169985249639">
        <ele>463.49000000000001</ele>
        <time>2025-05-03T08:14:20Z</time>
      </trkpt>
      <trkpt lat="41.062849005684257" lon="-7.298651989549398">
        <ele>467.81999999999999</ele>
        <time>2025-05-03T08:14:29Z</time>
      </trkpt>
      <trkpt lat="41.062332009896636" lon="-7.299396973103285">
        <ele>469.25999999999999</ele>
        <time>2025-05-03T08:14:34Z</time>
      </trkpt>
      <trkpt lat="41.062266966328025" lon="-7.299542985856533">
        <ele>469.25999999999999</ele>
        <time>2025-05-03T08:14:35Z</time>
      </trkpt>
      <trkpt lat="41.062238970771432" lon="-7.29968598112464">
        <ele>469.25999999999999</ele>
        <time>2025-05-03T08:14:36Z</time>
      </trkpt>
      <trkpt lat="41.06225498020649" lon="-7.299854038283229">
        <ele>469.25999999999999</ele>
        <time>2025-05-03T08:14:37Z</time>
      </trkpt>
      <trkpt lat="41.062286999076605" lon="-7.300010025501251">
        <ele>469.25999999999999</ele>
        <time>2025-05-03T08:14:38Z</time>
      </trkpt>
      <trkpt lat="41.062326980754733" lon="-7.300174981355667">
        <ele>468.77999999999997</ele>
        <time>2025-05-03T08:14:39Z</time>
      </trkpt>
      <trkpt lat="41.062368974089622" lon="-7.300348989665508">
        <ele>469.25999999999999</ele>
        <time>2025-05-03T08:14:40Z</time>
      </trkpt>
      <trkpt lat="41.062522027641535" lon="-7.300848970189691">
        <ele>469.25999999999999</ele>
        <time>2025-05-03T08:14:43Z</time>
      </trkpt>
      <trkpt lat="41.062592016533017" lon="-7.301005963236094">
        <ele>469.74000000000001</ele>
        <time>2025-05-03T08:14:44Z</time>
      </trkpt>
      <trkpt lat="41.062687989324331" lon="-7.301134960725904">
        <ele>470.22000000000003</ele>
        <time>2025-05-03T08:14:45Z</time>
      </trkpt>
      <trkpt lat="41.062812963500619" lon="-7.301244009286165">
        <ele>470.69999999999999</ele>
        <time>2025-05-03T08:14:46Z</time>
      </trkpt>
      <trkpt lat="41.062946990132332" lon="-7.30136102065444">
        <ele>470.69999999999999</ele>
        <time>2025-05-03T08:14:47Z</time>
      </trkpt>
      <trkpt lat="41.063085962086916" lon="-7.301481971517205">
        <ele>471.18000000000001</ele>
        <time>2025-05-03T08:14:48Z</time>
      </trkpt>
      <trkpt lat="41.063348986208439" lon="-7.301747007295489">
        <ele>471.66000000000003</ele>
        <time>2025-05-03T08:14:50Z</time>
      </trkpt>
      <trkpt lat="41.063444958999753" lon="-7.301892014220357">
        <ele>472.13999999999999</ele>
        <time>2025-05-03T08:14:51Z</time>
      </trkpt>
      <trkpt lat="41.063493993133307" lon="-7.302066022530198">
        <ele>472.63</ele>
        <time>2025-05-03T08:14:52Z</time>
      </trkpt>
      <trkpt lat="41.063535986468196" lon="-7.302256962284446">
        <ele>472.63</ele>
        <time>2025-05-03T08:14:53Z</time>
      </trkpt>
      <trkpt lat="41.063574040308595" lon="-7.302457960322499">
        <ele>473.11000000000001</ele>
        <time>2025-05-03T08:14:54Z</time>
      </trkpt>
      <trkpt lat="41.063771015033126" lon="-7.304358975961804">
        <ele>475.99000000000001</ele>
        <time>2025-05-03T08:15:02Z</time>
      </trkpt>
      <trkpt lat="41.064051976427436" lon="-7.307132966816425">
        <ele>477.43000000000001</ele>
        <time>2025-05-03T08:15:13Z</time>
      </trkpt>
      <trkpt lat="41.064063040539622" lon="-7.307518031448126">
        <ele>476.94999999999999</ele>
        <time>2025-05-03T08:15:15Z</time>
      </trkpt>
      <trkpt lat="41.064036972820759" lon="-7.307676030322909">
        <ele>476.47000000000003</ele>
        <time>2025-05-03T08:15:16Z</time>
      </trkpt>
      <trkpt lat="41.063997996971011" lon="-7.307818019762635">
        <ele>476.47000000000003</ele>
        <time>2025-05-03T08:15:17Z</time>
      </trkpt>
      <trkpt lat="41.063917027786374" lon="-7.307952968403697">
        <ele>476.47000000000003</ele>
        <time>2025-05-03T08:15:18Z</time>
      </trkpt>
      <trkpt lat="41.06382398866117" lon="-7.308063022792339">
        <ele>475.99000000000001</ele>
        <time>2025-05-03T08:15:19Z</time>
      </trkpt>
      <trkpt lat="41.063703037798405" lon="-7.308143991976976">
        <ele>475.99000000000001</ele>
        <time>2025-05-03T08:15:20Z</time>
      </trkpt>
      <trkpt lat="41.063569011166692" lon="-7.308191014453769">
        <ele>475.99000000000001</ele>
        <time>2025-05-03T08:15:21Z</time>
      </trkpt>
      <trkpt lat="41.063569011166692" lon="-7.308191014453769">
        <ele>475.99000000000001</ele>
        <time>2025-05-03T08:15:22Z</time>
      </trkpt>
      <trkpt lat="41.063283020630479" lon="-7.308191014453769">
        <ele>475.99000000000001</ele>
        <time>2025-05-03T08:15:23Z</time>
      </trkpt>
      <trkpt lat="41.063143964856863" lon="-7.308160001412034">
        <ele>475.99000000000001</ele>
        <time>2025-05-03T08:15:24Z</time>
      </trkpt>
      <trkpt lat="41.063039023429155" lon="-7.308118008077145">
        <ele>475.99000000000001</ele>
        <time>2025-05-03T08:15:25Z</time>
      </trkpt>
      <trkpt lat="41.062957970425487" lon="-7.30800099670887">
        <ele>475.99000000000001</ele>
        <time>2025-05-03T08:15:26Z</time>
      </trkpt>
      <trkpt lat="41.062877001240849" lon="-7.307883985340595">
        <ele>475.99000000000001</ele>
        <time>2025-05-03T08:15:27Z</time>
      </trkpt>
      <trkpt lat="41.062844982370734" lon="-7.307748030871153">
        <ele>475.99000000000001</ele>
        <time>2025-05-03T08:15:28Z</time>
      </trkpt>
      <trkpt lat="41.062818998470902" lon="-7.307563964277506">
        <ele>475.99000000000001</ele>
        <time>2025-05-03T08:15:29Z</time>
      </trkpt>
      <trkpt lat="41.062793014571071" lon="-7.307367995381355">
        <ele>475.99000000000001</ele>
        <time>2025-05-03T08:15:30Z</time>
      </trkpt>
      <trkpt lat="41.062772981822491" lon="-7.307154005393386">
        <ele>475.99000000000001</ele>
        <time>2025-05-03T08:15:31Z</time>
      </trkpt>
      <trkpt lat="41.062731994315982" lon="-7.306724013760686">
        <ele>476.47000000000003</ele>
        <time>2025-05-03T08:15:33Z</time>
      </trkpt>
      <trkpt lat="41.062682960182428" lon="-7.306513963267207">
        <ele>476.94999999999999</ele>
        <time>2025-05-03T08:15:34Z</time>
      </trkpt>
      <trkpt lat="41.062622023746371" lon="-7.306308019906282">
        <ele>476.94999999999999</ele>
        <time>2025-05-03T08:15:35Z</time>
      </trkpt>
      <trkpt lat="41.06218901462853" lon="-7.305459016934037">
        <ele>477.91000000000003</ele>
        <time>2025-05-03T08:15:40Z</time>
      </trkpt>
      <trkpt lat="41.062113996595144" lon="-7.305362960323691">
        <ele>478.38999999999999</ele>
        <time>2025-05-03T08:15:41Z</time>
      </trkpt>
      <trkpt lat="41.06201802380383" lon="-7.30531501583755">
        <ele>478.38999999999999</ele>
        <time>2025-05-03T08:15:42Z</time>
      </trkpt>
      <trkpt lat="41.061907969415188" lon="-7.305311998352408">
        <ele>478.87</ele>
        <time>2025-05-03T08:15:43Z</time>
      </trkpt>
      <trkpt lat="41.061777966096997" lon="-7.305318033322692">
        <ele>479.35000000000002</ele>
        <time>2025-05-03T08:15:44Z</time>
      </trkpt>
      <trkpt lat="41.061632037162781" lon="-7.305324990302324">
        <ele>479.83999999999997</ele>
        <time>2025-05-03T08:15:45Z</time>
      </trkpt>
      <trkpt lat="41.061475966125727" lon="-7.305304035544395">
        <ele>480.80000000000001</ele>
        <time>2025-05-03T08:15:46Z</time>
      </trkpt>
      <trkpt lat="41.061318973079324" lon="-7.30525097809732">
        <ele>481.27999999999997</ele>
        <time>2025-05-03T08:15:47Z</time>
      </trkpt>
      <trkpt lat="41.061158962547779" lon="-7.305198004469276">
        <ele>482.24000000000001</ele>
        <time>2025-05-03T08:15:48Z</time>
      </trkpt>
      <trkpt lat="41.061000963672996" lon="-7.305145030841231">
        <ele>483.19999999999999</ele>
        <time>2025-05-03T08:15:49Z</time>
      </trkpt>
      <trkpt lat="41.060843970626593" lon="-7.305092979222536">
        <ele>484.16000000000003</ele>
        <time>2025-05-03T08:15:50Z</time>
      </trkpt>
      <trkpt lat="41.060695024207234" lon="-7.305113011971116">
        <ele>485.12</ele>
        <time>2025-05-03T08:15:51Z</time>
      </trkpt>
      <trkpt lat="41.060552028939128" lon="-7.305132038891316">
        <ele>486.07999999999998</ele>
        <time>2025-05-03T08:15:52Z</time>
      </trkpt>
      <trkpt lat="41.060422025620937" lon="-7.305205967277288">
        <ele>487.05000000000001</ele>
        <time>2025-05-03T08:15:53Z</time>
      </trkpt>
      <trkpt lat="41.060294033959508" lon="-7.305302023887634">
        <ele>488.00999999999999</ele>
        <time>2025-05-03T08:15:54Z</time>
      </trkpt>
      <trkpt lat="41.060180962085724" lon="-7.305430015549064">
        <ele>488.97000000000003</ele>
        <time>2025-05-03T08:15:55Z</time>
      </trkpt>
      <trkpt lat="41.060102004557848" lon="-7.305581979453564">
        <ele>489.93000000000001</ele>
        <time>2025-05-03T08:15:56Z</time>
      </trkpt>
      <trkpt lat="41.060077026486397" lon="-7.305718017742038">
        <ele>490.88999999999999</ele>
        <time>2025-05-03T08:15:57Z</time>
      </trkpt>
      <trkpt lat="41.060087000951171" lon="-7.305848021060228">
        <ele>491.85000000000002</ele>
        <time>2025-05-03T08:15:58Z</time>
      </trkpt>
      <trkpt lat="41.060121031478047" lon="-7.305967966094613">
        <ele>492.32999999999998</ele>
        <time>2025-05-03T08:15:59Z</time>
      </trkpt>
      <trkpt lat="41.060208035632968" lon="-7.306082965806127">
        <ele>493.29000000000002</ele>
        <time>2025-05-03T08:16:00Z</time>
      </trkpt>
      <trkpt lat="41.060303002595901" lon="-7.306212969124317">
        <ele>493.76999999999998</ele>
        <time>2025-05-03T08:16:01Z</time>
      </trkpt>
      <trkpt lat="41.060408027842641" lon="-7.306354958564043">
        <ele>494.74000000000001</ele>
        <time>2025-05-03T08:16:02Z</time>
      </trkpt>
      <trkpt lat="41.060505006462336" lon="-7.306524021551013">
        <ele>495.22000000000003</ele>
        <time>2025-05-03T08:16:03Z</time>
      </trkpt>
      <trkpt lat="41.060596033930779" lon="-7.306717978790402">
        <ele>496.18000000000001</ele>
        <time>2025-05-03T08:16:04Z</time>
      </trkpt>
      <trkpt lat="41.061619967222214" lon="-7.308933986350894">
        <ele>508.67000000000002</ele>
        <time>2025-05-03T08:16:14Z</time>
      </trkpt>
      <trkpt lat="41.061763968318701" lon="-7.309330031275749">
        <ele>510.60000000000002</ele>
        <time>2025-05-03T08:16:16Z</time>
      </trkpt>
      <trkpt lat="41.061831023544073" lon="-7.309513008221984">
        <ele>511.56</ele>
        <time>2025-05-03T08:16:17Z</time>
      </trkpt>
      <trkpt lat="41.061840998008847" lon="-7.309691961854696">
        <ele>512.51999999999998</ele>
        <time>2025-05-03T08:16:18Z</time>
      </trkpt>
      <trkpt lat="41.061851978302002" lon="-7.309878040105104">
        <ele>513.48000000000002</ele>
        <time>2025-05-03T08:16:19Z</time>
      </trkpt>
      <trkpt lat="41.06180596165359" lon="-7.310064034536481">
        <ele>514.44000000000005</ele>
        <time>2025-05-03T08:16:20Z</time>
      </trkpt>
      <trkpt lat="41.061741001904011" lon="-7.310248017311096">
        <ele>515.39999999999998</ele>
        <time>2025-05-03T08:16:21Z</time>
      </trkpt>
      <trkpt lat="41.061663972213864" lon="-7.310436023399234">
        <ele>516.37</ele>
        <time>2025-05-03T08:16:22Z</time>
      </trkpt>
      <trkpt lat="41.060969028621912" lon="-7.311690039932728">
        <ele>523.09000000000003</ele>
        <time>2025-05-03T08:16:29Z</time>
      </trkpt>
      <trkpt lat="41.059984993189573" lon="-7.312745992094278">
        <ele>527.41999999999996</ele>
        <time>2025-05-03T08:16:37Z</time>
      </trkpt>
      <trkpt lat="41.059922967106104" lon="-7.31285696849227">
        <ele>527.89999999999998</ele>
        <time>2025-05-03T08:16:38Z</time>
      </trkpt>
      <trkpt lat="41.059921039268374" lon="-7.312973979860544">
        <ele>528.38</ele>
        <time>2025-05-03T08:16:39Z</time>
      </trkpt>
      <trkpt lat="41.059923972934484" lon="-7.313079005107284">
        <ele>528.86000000000001</ele>
        <time>2025-05-03T08:16:40Z</time>
      </trkpt>
      <trkpt lat="41.059989016503096" lon="-7.313175983726978">
        <ele>529.34000000000003</ele>
        <time>2025-05-03T08:16:41Z</time>
      </trkpt>
      <trkpt lat="41.060055987909436" lon="-7.313269022852182">
        <ele>529.82000000000005</ele>
        <time>2025-05-03T08:16:42Z</time>
      </trkpt>
      <trkpt lat="41.060166964307427" lon="-7.313282014802098">
        <ele>530.29999999999995</ele>
        <time>2025-05-03T08:16:43Z</time>
      </trkpt>
      <trkpt lat="41.060283975675702" lon="-7.313295006752014">
        <ele>531.26999999999998</ele>
        <time>2025-05-03T08:16:44Z</time>
      </trkpt>
      <trkpt lat="41.060410961508751" lon="-7.313310010358691">
        <ele>531.75</ele>
        <time>2025-05-03T08:16:45Z</time>
      </trkpt>
      <trkpt lat="41.060537025332451" lon="-7.313325013965368">
        <ele>532.23000000000002</ele>
        <time>2025-05-03T08:16:46Z</time>
      </trkpt>
      <trkpt lat="41.060650013387203" lon="-7.313374970108271">
        <ele>533.19000000000005</ele>
        <time>2025-05-03T08:16:47Z</time>
      </trkpt>
      <trkpt lat="41.060744980350137" lon="-7.313470020890236">
        <ele>533.66999999999996</ele>
        <time>2025-05-03T08:16:48Z</time>
      </trkpt>
      <trkpt lat="41.060825027525425" lon="-7.313594995066524">
        <ele>534.14999999999998</ele>
        <time>2025-05-03T08:16:49Z</time>
      </trkpt>
      <trkpt lat="41.060881018638611" lon="-7.313752993941307">
        <ele>535.11000000000001</ele>
        <time>2025-05-03T08:16:50Z</time>
      </trkpt>
      <trkpt lat="41.060939021408558" lon="-7.313918033614755">
        <ele>535.59000000000003</ele>
        <time>2025-05-03T08:16:51Z</time>
      </trkpt>
      <trkpt lat="41.061110012233257" lon="-7.314365040510893">
        <ele>538.48000000000002</ele>
        <time>2025-05-03T08:16:54Z</time>
      </trkpt>
      <trkpt lat="41.061209002509713" lon="-7.314512981101871">
        <ele>539.44000000000005</ele>
        <time>2025-05-03T08:16:55Z</time>
      </trkpt>
      <trkpt lat="41.061292989179492" lon="-7.314550029113889">
        <ele>539.91999999999996</ele>
        <time>2025-05-03T08:16:56Z</time>
      </trkpt>
      <trkpt lat="41.061417041346431" lon="-7.314594034105539">
        <ele>540.88</ele>
        <time>2025-05-03T08:16:57Z</time>
      </trkpt>
      <trkpt lat="41.061556013301015" lon="-7.31455497443676">
        <ele>541.36000000000001</ele>
        <time>2025-05-03T08:16:58Z</time>
      </trkpt>
      <trkpt lat="41.061703031882644" lon="-7.31451197527349">
        <ele>542.32000000000005</ele>
        <time>2025-05-03T08:16:59Z</time>
      </trkpt>
      <trkpt lat="41.061852984130383" lon="-7.314437963068485">
        <ele>543.27999999999997</ele>
        <time>2025-05-03T08:17:00Z</time>
      </trkpt>
      <trkpt lat="41.06279100291431" lon="-7.313997996971011">
        <ele>551.45000000000005</ele>
        <time>2025-05-03T08:17:07Z</time>
      </trkpt>
      <trkpt lat="41.062896028161049" lon="-7.313975030556321">
        <ele>552.40999999999997</ele>
        <time>2025-05-03T08:17:08Z</time>
      </trkpt>
      <trkpt lat="41.063004992902279" lon="-7.313959021121264">
        <ele>552.89999999999998</ele>
        <time>2025-05-03T08:17:09Z</time>
      </trkpt>
      <trkpt lat="41.063128961250186" lon="-7.313990034162998">
        <ele>553.38</ele>
        <time>2025-05-03T08:17:10Z</time>
      </trkpt>
      <trkpt lat="41.063258964568377" lon="-7.314047031104565">
        <ele>554.34000000000003</ele>
        <time>2025-05-03T08:17:11Z</time>
      </trkpt>
      <trkpt lat="41.063531963154674" lon="-7.314182985574007">
        <ele>555.29999999999995</ele>
        <time>2025-05-03T08:17:13Z</time>
      </trkpt>
      <trkpt lat="41.063652997836471" lon="-7.314304020255804">
        <ele>555.77999999999997</ele>
        <time>2025-05-03T08:17:14Z</time>
      </trkpt>
      <trkpt lat="41.063770009204745" lon="-7.314431006088853">
        <ele>556.25999999999999</ele>
        <time>2025-05-03T08:17:15Z</time>
      </trkpt>
      <trkpt lat="41.063870005309582" lon="-7.314592022448778">
        <ele>557.22000000000003</ele>
        <time>2025-05-03T08:17:16Z</time>
      </trkpt>
      <trkpt lat="41.063946029171348" lon="-7.31476997025311">
        <ele>558.17999999999995</ele>
        <time>2025-05-03T08:17:17Z</time>
      </trkpt>
      <trkpt lat="41.064021969214082" lon="-7.314954036846757">
        <ele>559.13999999999999</ele>
        <time>2025-05-03T08:17:18Z</time>
      </trkpt>
      <trkpt lat="41.064053988084197" lon="-7.31515503488481">
        <ele>560.59000000000003</ele>
        <time>2025-05-03T08:17:19Z</time>
      </trkpt>
      <trkpt lat="41.064088018611073" lon="-7.315361984074116">
        <ele>561.54999999999995</ele>
        <time>2025-05-03T08:17:20Z</time>
      </trkpt>
      <trkpt lat="41.064148033037782" lon="-7.315770015120506">
        <ele>563.95000000000005</ele>
        <time>2025-05-03T08:17:22Z</time>
      </trkpt>
      <trkpt lat="41.064148033037782" lon="-7.315974030643702">
        <ele>566.35000000000002</ele>
        <time>2025-05-03T08:17:24Z</time>
      </trkpt>
      <trkpt lat="41.064107967540622" lon="-7.316389018669725">
        <ele>567.32000000000005</ele>
        <time>2025-05-03T08:17:25Z</time>
      </trkpt>
      <trkpt lat="41.064069997519255" lon="-7.316597979515791">
        <ele>568.27999999999997</ele>
        <time>2025-05-03T08:17:26Z</time>
      </trkpt>
      <trkpt lat="41.063789958134294" lon="-7.317868005484343">
        <ele>574.52999999999997</ele>
        <time>2025-05-03T08:17:32Z</time>
      </trkpt>
      <trkpt lat="41.063771015033126" lon="-7.318069003522396">
        <ele>575.49000000000001</ele>
        <time>2025-05-03T08:17:33Z</time>
      </trkpt>
      <trkpt lat="41.063791969791055" lon="-7.318257009610534">
        <ele>575.97000000000003</ele>
        <time>2025-05-03T08:17:34Z</time>
      </trkpt>
      <trkpt lat="41.063842009752989" lon="-7.318436969071627">
        <ele>576.92999999999995</ele>
        <time>2025-05-03T08:17:35Z</time>
      </trkpt>
      <trkpt lat="41.063935970887542" lon="-7.3185920342803">
        <ele>577.88999999999999</ele>
        <time>2025-05-03T08:17:36Z</time>
      </trkpt>
      <trkpt lat="41.064058011397719" lon="-7.31872002594173">
        <ele>578.85000000000002</ele>
        <time>2025-05-03T08:17:37Z</time>
      </trkpt>
      <trkpt lat="41.064178962260485" lon="-7.318848017603159">
        <ele>579.80999999999995</ele>
        <time>2025-05-03T08:17:38Z</time>
      </trkpt>
      <trkpt lat="41.06429697945714" lon="-7.318970980122685">
        <ele>580.76999999999998</ele>
        <time>2025-05-03T08:17:39Z</time>
      </trkpt>
      <trkpt lat="41.064392030239105" lon="-7.319109030067921">
        <ele>581.73000000000002</ele>
        <time>2025-05-03T08:17:40Z</time>
      </trkpt>
      <trkpt lat="41.064469981938601" lon="-7.319297958165407">
        <ele>582.70000000000005</ele>
        <time>2025-05-03T08:17:41Z</time>
      </trkpt>
      <trkpt lat="41.064512981101871" lon="-7.319469032809138">
        <ele>583.17999999999995</ele>
        <time>2025-05-03T08:17:42Z</time>
      </trkpt>
      <trkpt lat="41.064561009407043" lon="-7.319662990048528">
        <ele>584.13999999999999</ele>
        <time>2025-05-03T08:17:43Z</time>
      </trkpt>
      <trkpt lat="41.064609037712216" lon="-7.319852001965046">
        <ele>584.62</ele>
        <time>2025-05-03T08:17:44Z</time>
      </trkpt>
      <trkpt lat="41.064686989411712" lon="-7.320025004446507">
        <ele>585.58000000000004</ele>
        <time>2025-05-03T08:17:45Z</time>
      </trkpt>
      <trkpt lat="41.064776005223393" lon="-7.320191971957684">
        <ele>586.05999999999995</ele>
        <time>2025-05-03T08:17:46Z</time>
      </trkpt>
      <trkpt lat="41.06536902487278" lon="-7.321288995444775">
        <ele>592.78999999999996</ele>
        <time>2025-05-03T08:17:53Z</time>
      </trkpt>
      <trkpt lat="41.065431972965598" lon="-7.321414975449443">
        <ele>593.26999999999998</ele>
        <time>2025-05-03T08:17:54Z</time>
      </trkpt>
      <trkpt lat="41.065459968522191" lon="-7.321555959060788">
        <ele>594.23000000000002</ele>
        <time>2025-05-03T08:17:55Z</time>
      </trkpt>
      <trkpt lat="41.06547899544239" lon="-7.321697026491165">
        <ele>595.19000000000005</ele>
        <time>2025-05-03T08:17:56Z</time>
      </trkpt>
      <trkpt lat="41.06547899544239" lon="-7.321852007880807">
        <ele>595.66999999999996</ele>
        <time>2025-05-03T08:17:57Z</time>
      </trkpt>
      <trkpt lat="41.06547899544239" lon="-7.322018975391984">
        <ele>596.63999999999999</ele>
        <time>2025-05-03T08:17:58Z</time>
      </trkpt>
      <trkpt lat="41.065503973513842" lon="-7.32254502363503">
        <ele>598.55999999999995</ele>
        <time>2025-05-03T08:18:01Z</time>
      </trkpt>
      <trkpt lat="41.065514031797647" lon="-7.322733029723167">
        <ele>599.03999999999996</ele>
        <time>2025-05-03T08:18:02Z</time>
      </trkpt>
      <trkpt lat="41.065688040107489" lon="-7.323478013277054">
        <ele>602.88</ele>
        <time>2025-05-03T08:18:06Z</time>
      </trkpt>
      <trkpt lat="41.065776972100139" lon="-7.323606004938483">
        <ele>603.85000000000002</ele>
        <time>2025-05-03T08:18:07Z</time>
      </trkpt>
      <trkpt lat="41.065876968204975" lon="-7.323690997436643">
        <ele>604.33000000000004</ele>
        <time>2025-05-03T08:18:08Z</time>
      </trkpt>
      <trkpt lat="41.065988028421998" lon="-7.323703989386559">
        <ele>605.28999999999996</ele>
        <time>2025-05-03T08:18:09Z</time>
      </trkpt>
      <trkpt lat="41.066102022305131" lon="-7.32368303462863">
        <ele>606.25</ele>
        <time>2025-05-03T08:18:10Z</time>
      </trkpt>
      <trkpt lat="41.066222973167896" lon="-7.323669036850333">
        <ele>607.21000000000004</ele>
        <time>2025-05-03T08:18:11Z</time>
      </trkpt>
      <trkpt lat="41.066347025334835" lon="-7.323657972738147">
        <ele>608.16999999999996</ele>
        <time>2025-05-03T08:18:12Z</time>
      </trkpt>
      <trkpt lat="41.06646403670311" lon="-7.323699966073036">
        <ele>609.13</ele>
        <time>2025-05-03T08:18:13Z</time>
      </trkpt>
      <trkpt lat="41.06657300144434" lon="-7.323783030733466">
        <ele>609.61000000000001</ele>
        <time>2025-05-03T08:18:14Z</time>
      </trkpt>
      <trkpt lat="41.066668974235654" lon="-7.3238779976964">
        <ele>610.57000000000005</ele>
        <time>2025-05-03T08:18:15Z</time>
      </trkpt>
      <trkpt lat="41.066765030846" lon="-7.323973970487714">
        <ele>611.05999999999995</ele>
        <time>2025-05-03T08:18:16Z</time>
      </trkpt>
      <trkpt lat="41.066886987537146" lon="-7.324012024328113">
        <ele>611.53999999999996</ele>
        <time>2025-05-03T08:18:17Z</time>
      </trkpt>
      <trkpt lat="41.067010033875704" lon="-7.32403096742928">
        <ele>612.01999999999998</ele>
        <time>2025-05-03T08:18:18Z</time>
      </trkpt>
      <trkpt lat="41.067135008051991" lon="-7.324011018499732">
        <ele>612.01999999999998</ele>
        <time>2025-05-03T08:18:19Z</time>
      </trkpt>
      <trkpt lat="41.067255958914757" lon="-7.323930971324444">
        <ele>612.5</ele>
        <time>2025-05-03T08:18:20Z</time>
      </trkpt>
      <trkpt lat="41.067345980554819" lon="-7.323825024068356">
        <ele>612.01999999999998</ele>
        <time>2025-05-03T08:18:21Z</time>
      </trkpt>
      <trkpt lat="41.067400965839624" lon="-7.32364003546536">
        <ele>612.01999999999998</ele>
        <time>2025-05-03T08:18:22Z</time>
      </trkpt>
      <trkpt lat="41.067451005801558" lon="-7.323473989963532">
        <ele>612.5</ele>
        <time>2025-05-03T08:18:23Z</time>
      </trkpt>
      <trkpt lat="41.067500961944461" lon="-7.323306016623974">
        <ele>612.5</ele>
        <time>2025-05-03T08:18:24Z</time>
      </trkpt>
      <trkpt lat="41.067563993856311" lon="-7.323137037456036">
        <ele>612.98000000000002</ele>
        <time>2025-05-03T08:18:25Z</time>
      </trkpt>
      <trkpt lat="41.067654015496373" lon="-7.322977026924491">
        <ele>613.46000000000004</ele>
        <time>2025-05-03T08:18:26Z</time>
      </trkpt>
      <trkpt lat="41.067746970802546" lon="-7.322810981422663">
        <ele>614.41999999999996</ele>
        <time>2025-05-03T08:18:27Z</time>
      </trkpt>
      <trkpt lat="41.06784000992775" lon="-7.322646025568247">
        <ele>614.41999999999996</ele>
        <time>2025-05-03T08:18:28Z</time>
      </trkpt>
      <trkpt lat="41.067925002425909" lon="-7.322490960359573">
        <ele>614.89999999999998</ele>
        <time>2025-05-03T08:18:29Z</time>
      </trkpt>
      <trkpt lat="41.067945035174489" lon="-7.322314018383622">
        <ele>615.38</ele>
        <time>2025-05-03T08:18:30Z</time>
      </trkpt>
      <trkpt lat="41.067922990769148" lon="-7.322146967053413">
        <ele>616.34000000000003</ele>
        <time>2025-05-03T08:18:31Z</time>
      </trkpt>
      <trkpt lat="41.067899018526077" lon="-7.322001038119197">
        <ele>616.82000000000005</ele>
        <time>2025-05-03T08:18:32Z</time>
      </trkpt>
      <trkpt lat="41.067875968292356" lon="-7.321889977902174">
        <ele>617.77999999999997</ele>
        <time>2025-05-03T08:18:33Z</time>
      </trkpt>
      <trkpt lat="41.067817965522408" lon="-7.321614967659116">
        <ele>622.11000000000001</ele>
        <time>2025-05-03T08:18:39Z</time>
      </trkpt>
      <trkpt lat="41.067817965522408" lon="-7.321614967659116">
        <ele>623.07000000000005</ele>
        <time>2025-05-03T08:18:40Z</time>
      </trkpt>
      <trkpt lat="41.067817965522408" lon="-7.321614967659116">
        <ele>624.50999999999999</ele>
        <time>2025-05-03T08:18:49Z</time>
      </trkpt>
      <trkpt lat="41.067773038521409" lon="-7.321619996801019">
        <ele>628.84000000000003</ele>
        <time>2025-05-03T08:24:34Z</time>
      </trkpt>
      <trkpt lat="41.067759040743113" lon="-7.321565011516213">
        <ele>632.20000000000005</ele>
        <time>2025-05-03T08:25:19Z</time>
      </trkpt>
      <trkpt lat="41.06773498468101" lon="-7.32157900929451">
        <ele>631.24000000000001</ele>
        <time>2025-05-03T08:26:09Z</time>
      </trkpt>
      <trkpt lat="41.06784000992775" lon="-7.321482030674815">
        <ele>630.75999999999999</ele>
        <time>2025-05-03T08:26:16Z</time>
      </trkpt>
      <trkpt lat="41.067879991605878" lon="-7.321320008486509">
        <ele>631.24000000000001</ele>
        <time>2025-05-03T08:26:18Z</time>
      </trkpt>
      <trkpt lat="41.067922990769148" lon="-7.321233004331589">
        <ele>631.24000000000001</ele>
        <time>2025-05-03T08:26:19Z</time>
      </trkpt>
      <trkpt lat="41.06796900741756" lon="-7.321140971034765">
        <ele>631.24000000000001</ele>
        <time>2025-05-03T08:26:20Z</time>
      </trkpt>
      <trkpt lat="41.068394975736737" lon="-7.320394981652498">
        <ele>634.13</ele>
        <time>2025-05-03T08:26:26Z</time>
      </trkpt>
      <trkpt lat="41.068489020690322" lon="-7.320316024124622">
        <ele>635.09000000000003</ele>
        <time>2025-05-03T08:26:27Z</time>
      </trkpt>
      <trkpt lat="41.068580970168114" lon="-7.320285011082888">
        <ele>635.57000000000005</ele>
        <time>2025-05-03T08:26:28Z</time>
      </trkpt>
      <trkpt lat="41.068681972101331" lon="-7.320285011082888">
        <ele>636.52999999999997</ele>
        <time>2025-05-03T08:26:29Z</time>
      </trkpt>
      <trkpt lat="41.06876696459949" lon="-7.320315018296242">
        <ele>637.00999999999999</ele>
        <time>2025-05-03T08:26:30Z</time>
      </trkpt>
      <trkpt lat="41.068846005946398" lon="-7.320404034107924">
        <ele>637.49000000000001</ele>
        <time>2025-05-03T08:26:31Z</time>
      </trkpt>
      <trkpt lat="41.068921023979783" lon="-7.320496989414096">
        <ele>637.97000000000003</ele>
        <time>2025-05-03T08:26:32Z</time>
      </trkpt>
      <trkpt lat="41.068982966244221" lon="-7.320626992732287">
        <ele>638.45000000000005</ele>
        <time>2025-05-03T08:26:33Z</time>
      </trkpt>
      <trkpt lat="41.069052033126354" lon="-7.320770993828774">
        <ele>638.92999999999995</ele>
        <time>2025-05-03T08:26:34Z</time>
      </trkpt>
      <trkpt lat="41.069749994203448" lon="-7.322218967601657">
        <ele>644.70000000000005</ele>
        <time>2025-05-03T08:26:42Z</time>
      </trkpt>
      <trkpt lat="41.07071902602911" lon="-7.323709018528462">
        <ele>652.87</ele>
        <time>2025-05-03T08:26:50Z</time>
      </trkpt>
      <trkpt lat="41.071060001850128" lon="-7.324212016537786">
        <ele>655.75999999999999</ele>
        <time>2025-05-03T08:26:53Z</time>
      </trkpt>
      <trkpt lat="41.071139965206385" lon="-7.324388958513737">
        <ele>656.72000000000003</ele>
        <time>2025-05-03T08:26:54Z</time>
      </trkpt>
      <trkpt lat="41.071206014603376" lon="-7.324582999572158">
        <ele>657.67999999999995</ele>
        <time>2025-05-03T08:26:55Z</time>
      </trkpt>
      <trkpt lat="41.071329982951283" lon="-7.324943002313376">
        <ele>660.08000000000004</ele>
        <time>2025-05-03T08:26:57Z</time>
      </trkpt>
      <trkpt lat="41.071431990712881" lon="-7.325071999803186">
        <ele>660.55999999999995</ele>
        <time>2025-05-03T08:26:58Z</time>
      </trkpt>
      <trkpt lat="41.071547996252775" lon="-7.325204014778137">
        <ele>662.00999999999999</ele>
        <time>2025-05-03T08:26:59Z</time>
      </trkpt>
      <trkpt lat="41.072036996483803" lon="-7.325766021385789">
        <ele>665.85000000000002</ele>
        <time>2025-05-03T08:27:03Z</time>
      </trkpt>
      <trkpt lat="41.072097010910511" lon="-7.325938018038869">
        <ele>666.80999999999995</ele>
        <time>2025-05-03T08:27:04Z</time>
      </trkpt>
      <trkpt lat="41.072132969275117" lon="-7.326100040227175">
        <ele>667.28999999999996</ele>
        <time>2025-05-03T08:27:05Z</time>
      </trkpt>
      <trkpt lat="41.07213799841702" lon="-7.326260972768068">
        <ele>668.25</ele>
        <time>2025-05-03T08:27:06Z</time>
      </trkpt>
      <trkpt lat="41.072105979546905" lon="-7.326431963592768">
        <ele>669.22000000000003</ele>
        <time>2025-05-03T08:27:07Z</time>
      </trkpt>
      <trkpt lat="41.072058035060763" lon="-7.326601026579738">
        <ele>670.17999999999995</ele>
        <time>2025-05-03T08:27:08Z</time>
      </trkpt>
      <trkpt lat="41.07198603451252" lon="-7.326773023232818">
        <ele>670.65999999999997</ele>
        <time>2025-05-03T08:27:09Z</time>
      </trkpt>
      <trkpt lat="41.071368958801031" lon="-7.327923020347953">
        <ele>677.38999999999999</ele>
        <time>2025-05-03T08:27:16Z</time>
      </trkpt>
      <trkpt lat="41.070980038493872" lon="-7.328198030591011">
        <ele>681.23000000000002</ele>
        <time>2025-05-03T08:27:19Z</time>
      </trkpt>
      <trkpt lat="41.070822039619088" lon="-7.328288974240422">
        <ele>682.66999999999996</ele>
        <time>2025-05-03T08:27:20Z</time>
      </trkpt>
      <trkpt lat="41.069862982258201" lon="-7.328699016943574">
        <ele>687.96000000000004</ele>
        <time>2025-05-03T08:27:26Z</time>
      </trkpt>
      <trkpt lat="41.069739013910294" lon="-7.328803036361933">
        <ele>688.44000000000005</ele>
        <time>2025-05-03T08:27:27Z</time>
      </trkpt>
      <trkpt lat="41.06966701336205" lon="-7.328962041065097">
        <ele>689.39999999999998</ele>
        <time>2025-05-03T08:27:28Z</time>
      </trkpt>
      <trkpt lat="41.069628037512302" lon="-7.329139988869429">
        <ele>689.88</ele>
        <time>2025-05-03T08:27:29Z</time>
      </trkpt>
      <trkpt lat="41.069606998935342" lon="-7.329320032149553">
        <ele>690.84000000000003</ele>
        <time>2025-05-03T08:27:30Z</time>
      </trkpt>
      <trkpt lat="41.069585960358381" lon="-7.329500997439027">
        <ele>691.33000000000004</ele>
        <time>2025-05-03T08:27:31Z</time>
      </trkpt>
      <trkpt lat="41.069590989500284" lon="-7.329899976029992">
        <ele>693.25</ele>
        <time>2025-05-03T08:27:33Z</time>
      </trkpt>
      <trkpt lat="41.069612028077245" lon="-7.330098040401936">
        <ele>693.73000000000002</ele>
        <time>2025-05-03T08:27:34Z</time>
      </trkpt>
      <trkpt lat="41.069682016968727" lon="-7.330250004306436">
        <ele>694.69000000000005</ele>
        <time>2025-05-03T08:27:35Z</time>
      </trkpt>
      <trkpt lat="41.069770026952028" lon="-7.330377995967865">
        <ele>695.64999999999998</ele>
        <time>2025-05-03T08:27:36Z</time>
      </trkpt>
      <trkpt lat="41.069899024441838" lon="-7.330466005951166">
        <ele>696.61000000000001</ele>
        <time>2025-05-03T08:27:37Z</time>
      </trkpt>
      <trkpt lat="41.070042019709945" lon="-7.330562984570861">
        <ele>697.57000000000005</ele>
        <time>2025-05-03T08:27:38Z</time>
      </trkpt>
      <trkpt lat="41.070191971957684" lon="-7.330664992332459">
        <ele>698.04999999999995</ele>
        <time>2025-05-03T08:27:39Z</time>
      </trkpt>
      <trkpt lat="41.070362040773034" lon="-7.330708997324109">
        <ele>699.01999999999998</ele>
        <time>2025-05-03T08:27:40Z</time>
      </trkpt>
      <trkpt lat="41.070538982748985" lon="-7.330751996487379">
        <ele>699.5</ele>
        <time>2025-05-03T08:27:41Z</time>
      </trkpt>
      <trkpt lat="41.070736041292548" lon="-7.330799018964171">
        <ele>700.46000000000004</ele>
        <time>2025-05-03T08:27:42Z</time>
      </trkpt>
      <trkpt lat="41.070916000753641" lon="-7.330808993428946">
        <ele>701.41999999999996</ele>
        <time>2025-05-03T08:27:43Z</time>
      </trkpt>
      <trkpt lat="41.072345031425357" lon="-7.330928016453981">
        <ele>709.11000000000001</ele>
        <time>2025-05-03T08:27:51Z</time>
      </trkpt>
      <trkpt lat="41.072490960359573" lon="-7.331022983416915">
        <ele>709.59000000000003</ele>
        <time>2025-05-03T08:27:52Z</time>
      </trkpt>
      <trkpt lat="41.072644013911486" lon="-7.331121973693371">
        <ele>710.54999999999995</ele>
        <time>2025-05-03T08:27:53Z</time>
      </trkpt>
      <trkpt lat="41.072805030271411" lon="-7.331228004768491">
        <ele>711.50999999999999</ele>
        <time>2025-05-03T08:27:54Z</time>
      </trkpt>
      <trkpt lat="41.072973003610969" lon="-7.33133202418685">
        <ele>711.99000000000001</ele>
        <time>2025-05-03T08:27:55Z</time>
      </trkpt>
      <trkpt lat="41.073146006092429" lon="-7.331437971442938">
        <ele>712.47000000000003</ele>
        <time>2025-05-03T08:27:56Z</time>
      </trkpt>
      <trkpt lat="41.073324959725142" lon="-7.33154802583158">
        <ele>712.95000000000005</ele>
        <time>2025-05-03T08:27:57Z</time>
      </trkpt>
      <trkpt lat="41.073508020490408" lon="-7.331659002229571">
        <ele>713.44000000000005</ele>
        <time>2025-05-03T08:27:58Z</time>
      </trkpt>
      <trkpt lat="41.074326010420918" lon="-7.33206401579082">
        <ele>714.88</ele>
        <time>2025-05-03T08:28:03Z</time>
      </trkpt>
      <trkpt lat="41.074429024010897" lon="-7.332183960825205">
        <ele>715.36000000000001</ele>
        <time>2025-05-03T08:28:04Z</time>
      </trkpt>
      <trkpt lat="41.074505969882011" lon="-7.332310024648905">
        <ele>715.84000000000003</ele>
        <time>2025-05-03T08:28:05Z</time>
      </trkpt>
      <trkpt lat="41.074548969045281" lon="-7.332455031573772">
        <ele>715.84000000000003</ele>
        <time>2025-05-03T08:28:06Z</time>
      </trkpt>
      <trkpt lat="41.074598003178835" lon="-7.33262300491333">
        <ele>715.84000000000003</ele>
        <time>2025-05-03T08:28:07Z</time>
      </trkpt>
      <trkpt lat="41.0745860170573" lon="-7.33275099657476">
        <ele>715.84000000000003</ele>
        <time>2025-05-03T08:28:08Z</time>
      </trkpt>
      <trkpt lat="41.074553998187184" lon="-7.332926010712981">
        <ele>716.32000000000005</ele>
        <time>2025-05-03T08:28:09Z</time>
      </trkpt>
      <trkpt lat="41.074515022337437" lon="-7.333113010972738">
        <ele>716.32000000000005</ele>
        <time>2025-05-03T08:28:10Z</time>
      </trkpt>
      <trkpt lat="41.074420977383852" lon="-7.333457004278898">
        <ele>716.79999999999995</ele>
        <time>2025-05-03T08:28:12Z</time>
      </trkpt>
      <trkpt lat="41.074347971007228" lon="-7.333609974011779">
        <ele>717.27999999999997</ele>
        <time>2025-05-03T08:28:13Z</time>
      </trkpt>
      <trkpt lat="41.074250992387533" lon="-7.333755986765027">
        <ele>717.75999999999999</ele>
        <time>2025-05-03T08:28:14Z</time>
      </trkpt>
      <trkpt lat="41.07390196993947" lon="-7.334348000586033">
        <ele>719.67999999999995</ele>
        <time>2025-05-03T08:28:18Z</time>
      </trkpt>
      <trkpt lat="41.0738589707762" lon="-7.334509016945958">
        <ele>719.67999999999995</ele>
        <time>2025-05-03T08:28:19Z</time>
      </trkpt>
      <trkpt lat="41.073843967169523" lon="-7.334687970578671">
        <ele>720.15999999999997</ele>
        <time>2025-05-03T08:28:20Z</time>
      </trkpt>
      <trkpt lat="41.073790993541479" lon="-7.335473019629717">
        <ele>722.57000000000005</ele>
        <time>2025-05-03T08:28:24Z</time>
      </trkpt>
      <trkpt lat="41.073730979114771" lon="-7.335654990747571">
        <ele>723.04999999999995</ele>
        <time>2025-05-03T08:28:25Z</time>
      </trkpt>
      <trkpt lat="41.073574991896749" lon="-7.3362129740417">
        <ele>724.97000000000003</ele>
        <time>2025-05-03T08:28:28Z</time>
      </trkpt>
      <trkpt lat="41.073551019653678" lon="-7.336392011493444">
        <ele>725.45000000000005</ele>
        <time>2025-05-03T08:28:29Z</time>
      </trkpt>
      <trkpt lat="41.07360097579658" lon="-7.336549004539847">
        <ele>725.92999999999995</ele>
        <time>2025-05-03T08:28:30Z</time>
      </trkpt>
      <trkpt lat="41.073668031021953" lon="-7.336709015071392">
        <ele>726.40999999999997</ele>
        <time>2025-05-03T08:28:31Z</time>
      </trkpt>
      <trkpt lat="41.073741959407926" lon="-7.336871037259698">
        <ele>726.88999999999999</ele>
        <time>2025-05-03T08:28:32Z</time>
      </trkpt>
      <trkpt lat="41.073830975219607" lon="-7.337034987285733">
        <ele>727.37</ele>
        <time>2025-05-03T08:28:33Z</time>
      </trkpt>
      <trkpt lat="41.073918985202909" lon="-7.337196003645659">
        <ele>727.86000000000001</ele>
        <time>2025-05-03T08:28:34Z</time>
      </trkpt>
      <trkpt lat="41.073989979922771" lon="-7.337360959500074">
        <ele>728.34000000000003</ele>
        <time>2025-05-03T08:28:35Z</time>
      </trkpt>
      <trkpt lat="41.0740299616009" lon="-7.337534967809916">
        <ele>728.82000000000005</ele>
        <time>2025-05-03T08:28:36Z</time>
      </trkpt>
      <trkpt lat="41.074040019884706" lon="-7.337722973898053">
        <ele>729.29999999999995</ele>
        <time>2025-05-03T08:28:37Z</time>
      </trkpt>
      <trkpt lat="41.074040019884706" lon="-7.337917014956474">
        <ele>729.29999999999995</ele>
        <time>2025-05-03T08:28:38Z</time>
      </trkpt>
      <trkpt lat="41.074009006842971" lon="-7.33812103047967">
        <ele>729.29999999999995</ele>
        <time>2025-05-03T08:28:39Z</time>
      </trkpt>
      <trkpt lat="41.073971036821604" lon="-7.338334014639258">
        <ele>728.82000000000005</ele>
        <time>2025-05-03T08:28:40Z</time>
      </trkpt>
      <trkpt lat="41.073760986328125" lon="-7.339902017265558">
        <ele>724.00999999999999</ele>
        <time>2025-05-03T08:28:47Z</time>
      </trkpt>
      <trkpt lat="41.07381203211844" lon="-7.340063033625484">
        <ele>723.52999999999997</ele>
        <time>2025-05-03T08:28:48Z</time>
      </trkpt>
      <trkpt lat="41.073868023231626" lon="-7.340221032500267">
        <ele>722.57000000000005</ele>
        <time>2025-05-03T08:28:49Z</time>
      </trkpt>
      <trkpt lat="41.073954021558166" lon="-7.340366961434484">
        <ele>721.61000000000001</ele>
        <time>2025-05-03T08:28:50Z</time>
      </trkpt>
      <trkpt lat="41.074064997956157" lon="-7.340510040521622">
        <ele>721.13</ele>
        <time>2025-05-03T08:28:51Z</time>
      </trkpt>
      <trkpt lat="41.074188966304064" lon="-7.340655969455838">
        <ele>720.64999999999998</ele>
        <time>2025-05-03T08:28:52Z</time>
      </trkpt>
      <trkpt lat="41.074427012354136" lon="-7.340922011062503">
        <ele>719.67999999999995</ele>
        <time>2025-05-03T08:28:54Z</time>
      </trkpt>
      <trkpt lat="41.074502030387521" lon="-7.341059977188706">
        <ele>719.67999999999995</ele>
        <time>2025-05-03T08:28:55Z</time>
      </trkpt>
      <trkpt lat="41.074555004015565" lon="-7.341204984113574">
        <ele>719.20000000000005</ele>
        <time>2025-05-03T08:28:56Z</time>
      </trkpt>
      <trkpt lat="41.074555004015565" lon="-7.341362982988358">
        <ele>719.20000000000005</ele>
        <time>2025-05-03T08:28:57Z</time>
      </trkpt>
      <trkpt lat="41.074555004015565" lon="-7.341571021825075">
        <ele>718.72000000000003</ele>
        <time>2025-05-03T08:28:58Z</time>
      </trkpt>
      <trkpt lat="41.074538994580507" lon="-7.341704964637756">
        <ele>718.24000000000001</ele>
        <time>2025-05-03T08:28:59Z</time>
      </trkpt>
      <trkpt lat="41.074404967948794" lon="-7.342480961233378">
        <ele>715.84000000000003</ele>
        <time>2025-05-03T08:29:06Z</time>
      </trkpt>
      <trkpt lat="41.074383007362485" lon="-7.34257198870182">
        <ele>714.39999999999998</ele>
        <time>2025-05-03T08:29:09Z</time>
      </trkpt>
      <trkpt lat="41.074383007362485" lon="-7.34257198870182">
        <ele>713.91999999999996</ele>
        <time>2025-05-03T08:29:10Z</time>
      </trkpt>
      <trkpt lat="41.074383007362485" lon="-7.34257198870182">
        <ele>712.95000000000005</ele>
        <time>2025-05-03T08:29:27Z</time>
      </trkpt>
      <trkpt lat="41.074376972392201" lon="-7.342599984258413">
        <ele>711.99000000000001</ele>
        <time>2025-05-03T08:30:05Z</time>
      </trkpt>
      <trkpt lat="41.074373032897711" lon="-7.342618005350232">
        <ele>711.99000000000001</ele>
        <time>2025-05-03T08:30:06Z</time>
      </trkpt>
      <trkpt lat="41.07420195825398" lon="-7.342965016141534">
        <ele>711.50999999999999</ele>
        <time>2025-05-03T08:30:11Z</time>
      </trkpt>
      <trkpt lat="41.073616985231638" lon="-7.343759033828974">
        <ele>710.54999999999995</ele>
        <time>2025-05-03T08:30:17Z</time>
      </trkpt>
      <trkpt lat="41.073390003293753" lon="-7.344062039628625">
        <ele>710.07000000000005</ele>
        <time>2025-05-03T08:30:19Z</time>
      </trkpt>
      <trkpt lat="41.072720037773252" lon="-7.345408005639911">
        <ele>710.54999999999995</ele>
        <time>2025-05-03T08:30:26Z</time>
      </trkpt>
      <trkpt lat="41.072449972853065" lon="-7.345954002812505">
        <ele>710.54999999999995</ele>
        <time>2025-05-03T08:30:29Z</time>
      </trkpt>
      <trkpt lat="41.072338996455073" lon="-7.346074031665921">
        <ele>710.54999999999995</ele>
        <time>2025-05-03T08:30:30Z</time>
      </trkpt>
      <trkpt lat="41.072215028107166" lon="-7.346185008063912">
        <ele>711.02999999999997</ele>
        <time>2025-05-03T08:30:31Z</time>
      </trkpt>
      <trkpt lat="41.072070021182299" lon="-7.34622398391366">
        <ele>711.02999999999997</ele>
        <time>2025-05-03T08:30:32Z</time>
      </trkpt>
      <trkpt lat="41.071915039792657" lon="-7.34626597724855">
        <ele>711.50999999999999</ele>
        <time>2025-05-03T08:30:33Z</time>
      </trkpt>
      <trkpt lat="41.071757040917873" lon="-7.34630897641182">
        <ele>711.50999999999999</ele>
        <time>2025-05-03T08:30:34Z</time>
      </trkpt>
      <trkpt lat="41.071467027068138" lon="-7.346387011930347">
        <ele>711.50999999999999</ele>
        <time>2025-05-03T08:30:36Z</time>
      </trkpt>
      <trkpt lat="41.071353033185005" lon="-7.346462029963732">
        <ele>711.50999999999999</ele>
        <time>2025-05-03T08:30:37Z</time>
      </trkpt>
      <trkpt lat="41.071251025423408" lon="-7.346552973613143">
        <ele>711.50999999999999</ele>
        <time>2025-05-03T08:30:38Z</time>
      </trkpt>
      <trkpt lat="41.071167960762978" lon="-7.346682976931334">
        <ele>711.50999999999999</ele>
        <time>2025-05-03T08:30:39Z</time>
      </trkpt>
      <trkpt lat="41.071109035983682" lon="-7.346851034089923">
        <ele>711.50999999999999</ele>
        <time>2025-05-03T08:30:40Z</time>
      </trkpt>
      <trkpt lat="41.071069976314902" lon="-7.347037028521299">
        <ele>711.02999999999997</ele>
        <time>2025-05-03T08:30:41Z</time>
      </trkpt>
      <trkpt lat="41.070711985230446" lon="-7.348741991445422">
        <ele>709.11000000000001</ele>
        <time>2025-05-03T08:30:49Z</time>
      </trkpt>
      <trkpt lat="41.070643002167344" lon="-7.348881969228387">
        <ele>708.63</ele>
        <time>2025-05-03T08:30:50Z</time>
      </trkpt>
      <trkpt lat="41.070536971092224" lon="-7.348954975605011">
        <ele>708.63</ele>
        <time>2025-05-03T08:30:51Z</time>
      </trkpt>
      <trkpt lat="41.070407973602414" lon="-7.349019013345242">
        <ele>708.63</ele>
        <time>2025-05-03T08:30:52Z</time>
      </trkpt>
      <trkpt lat="41.070261038839817" lon="-7.349064024165273">
        <ele>708.14999999999998</ele>
        <time>2025-05-03T08:30:53Z</time>
      </trkpt>
      <trkpt lat="41.069539021700621" lon="-7.349311960861087">
        <ele>707.66999999999996</ele>
        <time>2025-05-03T08:30:58Z</time>
      </trkpt>
      <trkpt lat="41.069443970918655" lon="-7.349408017471433">
        <ele>707.66999999999996</ele>
        <time>2025-05-03T08:30:59Z</time>
      </trkpt>
      <trkpt lat="41.069383034482598" lon="-7.349513964727521">
        <ele>707.66999999999996</ele>
        <time>2025-05-03T08:31:00Z</time>
      </trkpt>
      <trkpt lat="41.069340035319328" lon="-7.349642962217331">
        <ele>707.19000000000005</ele>
        <time>2025-05-03T08:31:01Z</time>
      </trkpt>
      <trkpt lat="41.069329977035522" lon="-7.349792998284102">
        <ele>707.19000000000005</ele>
        <time>2025-05-03T08:31:02Z</time>
      </trkpt>
      <trkpt lat="41.069357972592115" lon="-7.349959965795279">
        <ele>707.19000000000005</ele>
        <time>2025-05-03T08:31:03Z</time>
      </trkpt>
      <trkpt lat="41.069403989240527" lon="-7.350140009075403">
        <ele>707.19000000000005</ele>
        <time>2025-05-03T08:31:04Z</time>
      </trkpt>
      <trkpt lat="41.069454029202461" lon="-7.350332960486412">
        <ele>706.71000000000004</ele>
        <time>2025-05-03T08:31:05Z</time>
      </trkpt>
      <trkpt lat="41.069721998646855" lon="-7.351252036169171">
        <ele>704.77999999999997</ele>
        <time>2025-05-03T08:31:10Z</time>
      </trkpt>
      <trkpt lat="41.069713030010462" lon="-7.351414980366826">
        <ele>704.77999999999997</ele>
        <time>2025-05-03T08:31:11Z</time>
      </trkpt>
      <trkpt lat="41.069690985605121" lon="-7.35155001282692">
        <ele>704.29999999999995</ele>
        <time>2025-05-03T08:31:12Z</time>
      </trkpt>
      <trkpt lat="41.069614039734006" lon="-7.351665012538433">
        <ele>704.29999999999995</ele>
        <time>2025-05-03T08:31:13Z</time>
      </trkpt>
      <trkpt lat="41.069533992558718" lon="-7.35178504139185">
        <ele>703.82000000000005</ele>
        <time>2025-05-03T08:31:14Z</time>
      </trkpt>
      <trkpt lat="41.069411030039191" lon="-7.351872967556119">
        <ele>703.82000000000005</ele>
        <time>2025-05-03T08:31:15Z</time>
      </trkpt>
      <trkpt lat="41.069277003407478" lon="-7.351968018338084">
        <ele>703.34000000000003</ele>
        <time>2025-05-03T08:31:16Z</time>
      </trkpt>
      <trkpt lat="41.068458007648587" lon="-7.352606970816851">
        <ele>699.98000000000002</ele>
        <time>2025-05-03T08:31:22Z</time>
      </trkpt>
      <trkpt lat="41.068363962695003" lon="-7.352743009105325">
        <ele>699.01999999999998</ele>
        <time>2025-05-03T08:31:23Z</time>
      </trkpt>
      <trkpt lat="41.0683140065521" lon="-7.352886004373431">
        <ele>698.52999999999997</ele>
        <time>2025-05-03T08:31:24Z</time>
      </trkpt>
      <trkpt lat="41.068280981853604" lon="-7.353050038218498">
        <ele>697.57000000000005</ele>
        <time>2025-05-03T08:31:25Z</time>
      </trkpt>
      <trkpt lat="41.06824703514576" lon="-7.35322798602283">
        <ele>697.09000000000003</ele>
        <time>2025-05-03T08:31:26Z</time>
      </trkpt>
      <trkpt lat="41.06824703514576" lon="-7.353433007374406">
        <ele>696.61000000000001</ele>
        <time>2025-05-03T08:31:27Z</time>
      </trkpt>
      <trkpt lat="41.068241000175476" lon="-7.353650014847517">
        <ele>696.13</ele>
        <time>2025-05-03T08:31:28Z</time>
      </trkpt>
      <trkpt lat="41.068156007677317" lon="-7.354275975376368">
        <ele>693.73000000000002</ele>
        <time>2025-05-03T08:31:31Z</time>
      </trkpt>
      <trkpt lat="41.068088030442595" lon="-7.354466998949647">
        <ele>692.76999999999998</ele>
        <time>2025-05-03T08:31:32Z</time>
      </trkpt>
      <trkpt lat="41.067900024354458" lon="-7.355095976963639">
        <ele>690.84000000000003</ele>
        <time>2025-05-03T08:31:35Z</time>
      </trkpt>
      <trkpt lat="41.067839004099369" lon="-7.355324970558286">
        <ele>689.88</ele>
        <time>2025-05-03T08:31:36Z</time>
      </trkpt>
      <trkpt lat="41.067791981622577" lon="-7.356412019580603">
        <ele>686.03999999999996</ele>
        <time>2025-05-03T08:31:41Z</time>
      </trkpt>
      <trkpt lat="41.067812014371157" lon="-7.356562977656722">
        <ele>685.55999999999995</ele>
        <time>2025-05-03T08:31:42Z</time>
      </trkpt>
      <trkpt lat="41.067871022969484" lon="-7.356695998460054">
        <ele>684.60000000000002</ele>
        <time>2025-05-03T08:31:43Z</time>
      </trkpt>
      <trkpt lat="41.067960960790515" lon="-7.356781996786594">
        <ele>684.12</ele>
        <time>2025-05-03T08:31:44Z</time>
      </trkpt>
      <trkpt lat="41.068060034886003" lon="-7.35685802064836">
        <ele>683.63</ele>
        <time>2025-05-03T08:31:45Z</time>
      </trkpt>
      <trkpt lat="41.068152990192175" lon="-7.356861038133502">
        <ele>682.66999999999996</ele>
        <time>2025-05-03T08:31:46Z</time>
      </trkpt>
      <trkpt lat="41.068267989903688" lon="-7.356846034526825">
        <ele>682.19000000000005</ele>
        <time>2025-05-03T08:31:47Z</time>
      </trkpt>
      <trkpt lat="41.068401010707021" lon="-7.356830025091767">
        <ele>681.71000000000004</ele>
        <time>2025-05-03T08:31:48Z</time>
      </trkpt>
      <trkpt lat="41.068511987105012" lon="-7.356769004836679">
        <ele>681.23000000000002</ele>
        <time>2025-05-03T08:31:49Z</time>
      </trkpt>
      <trkpt lat="41.068664034828544" lon="-7.356673032045364">
        <ele>680.26999999999998</ele>
        <time>2025-05-03T08:31:50Z</time>
      </trkpt>
      <trkpt lat="41.068824967369437" lon="-7.356571024283767">
        <ele>679.78999999999996</ele>
        <time>2025-05-03T08:31:51Z</time>
      </trkpt>
      <trkpt lat="41.068990007042885" lon="-7.35647002235055">
        <ele>678.83000000000004</ele>
        <time>2025-05-03T08:31:52Z</time>
      </trkpt>
      <trkpt lat="41.069322014227509" lon="-7.356270030140877">
        <ele>676.90999999999997</ele>
        <time>2025-05-03T08:31:54Z</time>
      </trkpt>
      <trkpt lat="41.069459980353713" lon="-7.356280004605651">
        <ele>676.41999999999996</ele>
        <time>2025-05-03T08:31:55Z</time>
      </trkpt>
      <trkpt lat="41.069622002542019" lon="-7.356302971020341">
        <ele>675.46000000000004</ele>
        <time>2025-05-03T08:31:56Z</time>
      </trkpt>
      <trkpt lat="41.069767009466887" lon="-7.356381006538868">
        <ele>674.98000000000002</ele>
        <time>2025-05-03T08:31:57Z</time>
      </trkpt>
      <trkpt lat="41.069926014170051" lon="-7.356467004865408">
        <ele>674.5</ele>
        <time>2025-05-03T08:31:58Z</time>
      </trkpt>
      <trkpt lat="41.070708967745304" lon="-7.356848968192935">
        <ele>671.13999999999999</ele>
        <time>2025-05-03T08:32:03Z</time>
      </trkpt>
      <trkpt lat="41.070836959406734" lon="-7.356884004548192">
        <ele>670.65999999999997</ele>
        <time>2025-05-03T08:32:04Z</time>
      </trkpt>
      <trkpt lat="41.070951959118247" lon="-7.356827007606626">
        <ele>670.17999999999995</ele>
        <time>2025-05-03T08:32:05Z</time>
      </trkpt>
      <trkpt lat="41.07108598574996" lon="-7.356740003451705">
        <ele>669.70000000000005</ele>
        <time>2025-05-03T08:32:06Z</time>
      </trkpt>
      <trkpt lat="41.071218000724912" lon="-7.35662198625505">
        <ele>669.22000000000003</ele>
        <time>2025-05-03T08:32:07Z</time>
      </trkpt>
      <trkpt lat="41.071613039821386" lon="-7.356270030140877">
        <ele>668.25</ele>
        <time>2025-05-03T08:32:10Z</time>
      </trkpt>
      <trkpt lat="41.071725022047758" lon="-7.356240022927523">
        <ele>667.76999999999998</ele>
        <time>2025-05-03T08:32:11Z</time>
      </trkpt>
      <trkpt lat="41.071872962638736" lon="-7.356227030977607">
        <ele>667.76999999999998</ele>
        <time>2025-05-03T08:32:12Z</time>
      </trkpt>
      <trkpt lat="41.071952003985643" lon="-7.356287967413664">
        <ele>668.25</ele>
        <time>2025-05-03T08:32:13Z</time>
      </trkpt>
      <trkpt lat="41.072065997868776" lon="-7.356376983225346">
        <ele>668.25</ele>
        <time>2025-05-03T08:32:14Z</time>
      </trkpt>
      <trkpt lat="41.072110002860427" lon="-7.356529030948877">
        <ele>667.76999999999998</ele>
        <time>2025-05-03T08:32:15Z</time>
      </trkpt>
      <trkpt lat="41.072155013680458" lon="-7.356701027601957">
        <ele>667.76999999999998</ele>
        <time>2025-05-03T08:32:16Z</time>
      </trkpt>
      <trkpt lat="41.072179991751909" lon="-7.356886016204953">
        <ele>667.76999999999998</ele>
        <time>2025-05-03T08:32:17Z</time>
      </trkpt>
      <trkpt lat="41.072202958166599" lon="-7.357077039778233">
        <ele>667.28999999999996</ele>
        <time>2025-05-03T08:32:18Z</time>
      </trkpt>
      <trkpt lat="41.07237696647644" lon="-7.358926003798842">
        <ele>666.33000000000004</ele>
        <time>2025-05-03T08:32:26Z</time>
      </trkpt>
      <trkpt lat="41.072488026693463" lon="-7.359741982072592">
        <ele>665.37</ele>
        <time>2025-05-03T08:32:30Z</time>
      </trkpt>
      <trkpt lat="41.072553992271423" lon="-7.359866034239531">
        <ele>664.40999999999997</ele>
        <time>2025-05-03T08:32:31Z</time>
      </trkpt>
      <trkpt lat="41.072636973112822" lon="-7.359965024515986">
        <ele>663.92999999999995</ele>
        <time>2025-05-03T08:32:32Z</time>
      </trkpt>
      <trkpt lat="41.072744010016322" lon="-7.360008023679256">
        <ele>663.92999999999995</ele>
        <time>2025-05-03T08:32:33Z</time>
      </trkpt>
      <trkpt lat="41.07289002276957" lon="-7.360031995922327">
        <ele>663.45000000000005</ele>
        <time>2025-05-03T08:32:34Z</time>
      </trkpt>
      <trkpt lat="41.073033018037677" lon="-7.359993020072579">
        <ele>663.45000000000005</ele>
        <time>2025-05-03T08:32:35Z</time>
      </trkpt>
      <trkpt lat="41.073192022740841" lon="-7.359949015080929">
        <ele>662.97000000000003</ele>
        <time>2025-05-03T08:32:36Z</time>
      </trkpt>
      <trkpt lat="41.073638023808599" lon="-7.359825968742371">
        <ele>662.00999999999999</ele>
        <time>2025-05-03T08:32:39Z</time>
      </trkpt>
      <trkpt lat="41.073746988549829" lon="-7.359818005934358">
        <ele>661.51999999999998</ele>
        <time>2025-05-03T08:32:40Z</time>
      </trkpt>
      <trkpt lat="41.073843967169523" lon="-7.359849018976092">
        <ele>661.51999999999998</ele>
        <time>2025-05-03T08:32:41Z</time>
      </trkpt>
      <trkpt lat="41.073932982981205" lon="-7.359939040616155">
        <ele>660.55999999999995</ele>
        <time>2025-05-03T08:32:42Z</time>
      </trkpt>
      <trkpt lat="41.073981011286378" lon="-7.360083963721991">
        <ele>660.08000000000004</ele>
        <time>2025-05-03T08:32:43Z</time>
      </trkpt>
      <trkpt lat="41.073998026549816" lon="-7.360266018658876">
        <ele>659.60000000000002</ele>
        <time>2025-05-03T08:32:44Z</time>
      </trkpt>
      <trkpt lat="41.073995009064674" lon="-7.360466010868549">
        <ele>659.12</ele>
        <time>2025-05-03T08:32:45Z</time>
      </trkpt>
      <trkpt lat="41.074013030156493" lon="-7.361549958586693">
        <ele>656.72000000000003</ele>
        <time>2025-05-03T08:32:50Z</time>
      </trkpt>
      <trkpt lat="41.074040019884706" lon="-7.361740982159972">
        <ele>656.24000000000001</ele>
        <time>2025-05-03T08:32:51Z</time>
      </trkpt>
      <trkpt lat="41.074105985462666" lon="-7.361872997134924">
        <ele>655.75999999999999</ele>
        <time>2025-05-03T08:32:52Z</time>
      </trkpt>
      <trkpt lat="41.074206987395883" lon="-7.36201498657465">
        <ele>654.79999999999995</ele>
        <time>2025-05-03T08:32:53Z</time>
      </trkpt>
      <trkpt lat="41.074334979057312" lon="-7.362142978236079">
        <ele>654.30999999999995</ele>
        <time>2025-05-03T08:32:54Z</time>
      </trkpt>
      <trkpt lat="41.074705962091684" lon="-7.362556960433722">
        <ele>652.38999999999999</ele>
        <time>2025-05-03T08:32:57Z</time>
      </trkpt>
      <trkpt lat="41.074777040630579" lon="-7.362694004550576">
        <ele>652.38999999999999</ele>
        <time>2025-05-03T08:32:58Z</time>
      </trkpt>
      <trkpt lat="41.074800007045269" lon="-7.362855020910502">
        <ele>651.90999999999997</ele>
        <time>2025-05-03T08:32:59Z</time>
      </trkpt>
      <trkpt lat="41.074847029522061" lon="-7.363181998953223">
        <ele>651.90999999999997</ele>
        <time>2025-05-03T08:33:01Z</time>
      </trkpt>
      <trkpt lat="41.074903020635247" lon="-7.363321976736188">
        <ele>651.42999999999995</ele>
        <time>2025-05-03T08:33:02Z</time>
      </trkpt>
      <trkpt lat="41.074967980384827" lon="-7.36343102529645">
        <ele>651.90999999999997</ele>
        <time>2025-05-03T08:33:03Z</time>
      </trkpt>
      <trkpt lat="41.075079962611198" lon="-7.363463966175914">
        <ele>651.90999999999997</ele>
        <time>2025-05-03T08:33:04Z</time>
      </trkpt>
      <trkpt lat="41.075194040313363" lon="-7.363473018631339">
        <ele>652.38999999999999</ele>
        <time>2025-05-03T08:33:05Z</time>
      </trkpt>
      <trkpt lat="41.075328988954425" lon="-7.363447034731507">
        <ele>652.87</ele>
        <time>2025-05-03T08:33:06Z</time>
      </trkpt>
      <trkpt lat="41.075449017807841" lon="-7.363356007263064">
        <ele>652.87</ele>
        <time>2025-05-03T08:33:07Z</time>
      </trkpt>
      <trkpt lat="41.075582038611174" lon="-7.363246958702803">
        <ele>653.35000000000002</ele>
        <time>2025-05-03T08:33:08Z</time>
      </trkpt>
      <trkpt lat="41.076560039073229" lon="-7.362206010147929">
        <ele>654.30999999999995</ele>
        <time>2025-05-03T08:33:15Z</time>
      </trkpt>
      <trkpt lat="41.076657017692924" lon="-7.362029990181327">
        <ele>654.30999999999995</ele>
        <time>2025-05-03T08:33:16Z</time>
      </trkpt>
      <trkpt lat="41.076748967170715" lon="-7.361841984093189">
        <ele>653.83000000000004</ele>
        <time>2025-05-03T08:33:17Z</time>
      </trkpt>
      <trkpt lat="41.076821973547339" lon="-7.36164903268218">
        <ele>653.83000000000004</ele>
        <time>2025-05-03T08:33:18Z</time>
      </trkpt>
      <trkpt lat="41.076857009902596" lon="-7.361446022987366">
        <ele>653.83000000000004</ele>
        <time>2025-05-03T08:33:19Z</time>
      </trkpt>
      <trkpt lat="41.076866984367371" lon="-7.361249970272183">
        <ele>653.35000000000002</ele>
        <time>2025-05-03T08:33:20Z</time>
      </trkpt>
      <trkpt lat="41.076876958832145" lon="-7.361057018861175">
        <ele>653.35000000000002</ele>
        <time>2025-05-03T08:33:21Z</time>
      </trkpt>
      <trkpt lat="41.07688601128757" lon="-7.360874963924289">
        <ele>652.87</ele>
        <time>2025-05-03T08:33:22Z</time>
      </trkpt>
      <trkpt lat="41.076893974095583" lon="-7.360711013898253">
        <ele>652.87</ele>
        <time>2025-05-03T08:33:23Z</time>
      </trkpt>
      <trkpt lat="41.076977038756013" lon="-7.360598025843501">
        <ele>652.38999999999999</ele>
        <time>2025-05-03T08:33:24Z</time>
      </trkpt>
      <trkpt lat="41.077065970748663" lon="-7.360474979504943">
        <ele>652.38999999999999</ele>
        <time>2025-05-03T08:33:25Z</time>
      </trkpt>
      <trkpt lat="41.077168984338641" lon="-7.360432986170054">
        <ele>651.90999999999997</ele>
        <time>2025-05-03T08:33:26Z</time>
      </trkpt>
      <trkpt lat="41.077297981828451" lon="-7.360379006713629">
        <ele>651.42999999999995</ele>
        <time>2025-05-03T08:33:27Z</time>
      </trkpt>
      <trkpt lat="41.077884966507554" lon="-7.360182031989098">
        <ele>649.99000000000001</ele>
        <time>2025-05-03T08:33:31Z</time>
      </trkpt>
      <trkpt lat="41.078038020059466" lon="-7.360206004232168">
        <ele>649.99000000000001</ele>
        <time>2025-05-03T08:33:32Z</time>
      </trkpt>
      <trkpt lat="41.07819601893425" lon="-7.360250009223819">
        <ele>649.50999999999999</ele>
        <time>2025-05-03T08:33:33Z</time>
      </trkpt>
      <trkpt lat="41.078807981684804" lon="-7.360477996990085">
        <ele>648.07000000000005</ele>
        <time>2025-05-03T08:33:37Z</time>
      </trkpt>
      <trkpt lat="41.078910995274782" lon="-7.360560977831483">
        <ele>647.59000000000003</ele>
        <time>2025-05-03T08:33:38Z</time>
      </trkpt>
      <trkpt lat="41.07894997112453" lon="-7.360703973099589">
        <ele>646.62</ele>
        <time>2025-05-03T08:33:39Z</time>
      </trkpt>
      <trkpt lat="41.078997999429703" lon="-7.360878987237811">
        <ele>646.13999999999999</ele>
        <time>2025-05-03T08:33:40Z</time>
      </trkpt>
      <trkpt lat="41.079047033563256" lon="-7.361072022467852">
        <ele>645.17999999999995</ele>
        <time>2025-05-03T08:33:41Z</time>
      </trkpt>
      <trkpt lat="41.079154992476106" lon="-7.361465971916914">
        <ele>643.74000000000001</ele>
        <time>2025-05-03T08:33:43Z</time>
      </trkpt>
      <trkpt lat="41.079246019944549" lon="-7.361582983285189">
        <ele>642.77999999999997</ele>
        <time>2025-05-03T08:33:44Z</time>
      </trkpt>
      <trkpt lat="41.079345010221004" lon="-7.361680967733264">
        <ele>641.82000000000005</ele>
        <time>2025-05-03T08:33:45Z</time>
      </trkpt>
      <trkpt lat="41.079438971355557" lon="-7.361745005473495">
        <ele>640.86000000000001</ele>
        <time>2025-05-03T08:33:46Z</time>
      </trkpt>
      <trkpt lat="41.079575009644032" lon="-7.361762020736933">
        <ele>640.38</ele>
        <time>2025-05-03T08:33:47Z</time>
      </trkpt>
      <trkpt lat="41.079699983820319" lon="-7.361722039058805">
        <ele>639.88999999999999</ele>
        <time>2025-05-03T08:33:48Z</time>
      </trkpt>
      <trkpt lat="41.079812971875072" lon="-7.36164903268218">
        <ele>639.40999999999997</ele>
        <time>2025-05-03T08:33:49Z</time>
      </trkpt>
      <trkpt lat="41.079923026263714" lon="-7.361525986343622">
        <ele>638.45000000000005</ele>
        <time>2025-05-03T08:33:50Z</time>
      </trkpt>
      <trkpt lat="41.080009024590254" lon="-7.361361030489206">
        <ele>637.97000000000003</ele>
        <time>2025-05-03T08:33:51Z</time>
      </trkpt>
      <trkpt lat="41.080098962411284" lon="-7.361170006915927">
        <ele>637.00999999999999</ele>
        <time>2025-05-03T08:33:52Z</time>
      </trkpt>
      <trkpt lat="41.080617969855666" lon="-7.360154036432505">
        <ele>632.67999999999995</ele>
        <time>2025-05-03T08:33:57Z</time>
      </trkpt>
      <trkpt lat="41.080735987052321" lon="-7.359984973445535">
        <ele>631.72000000000003</ele>
        <time>2025-05-03T08:33:58Z</time>
      </trkpt>
      <trkpt lat="41.080887028947473" lon="-7.359862010926008">
        <ele>630.75999999999999</ele>
        <time>2025-05-03T08:33:59Z</time>
      </trkpt>
      <trkpt lat="41.081186011433601" lon="-7.359617007896304">
        <ele>629.32000000000005</ele>
        <time>2025-05-03T08:34:01Z</time>
      </trkpt>
      <trkpt lat="41.081334035843611" lon="-7.359434030950069">
        <ele>628.36000000000001</ele>
        <time>2025-05-03T08:34:02Z</time>
      </trkpt>
      <trkpt lat="41.081743994727731" lon="-7.358930027112365">
        <ele>624.99000000000001</ele>
        <time>2025-05-03T08:34:05Z</time>
      </trkpt>
      <trkpt lat="41.081896964460611" lon="-7.358830031007528">
        <ele>624.02999999999997</ele>
        <time>2025-05-03T08:34:06Z</time>
      </trkpt>
      <trkpt lat="41.08272903598845" lon="-7.358352011069655">
        <ele>620.19000000000005</ele>
        <time>2025-05-03T08:34:11Z</time>
      </trkpt>
      <trkpt lat="41.082882005721331" lon="-7.358345976099372">
        <ele>619.71000000000004</ele>
        <time>2025-05-03T08:34:12Z</time>
      </trkpt>
      <trkpt lat="41.083050984889269" lon="-7.358371037989855">
        <ele>619.23000000000002</ele>
        <time>2025-05-03T08:34:13Z</time>
      </trkpt>
      <trkpt lat="41.083806026726961" lon="-7.358528031036258">
        <ele>616.34000000000003</ele>
        <time>2025-05-03T08:34:17Z</time>
      </trkpt>
      <trkpt lat="41.083999983966351" lon="-7.358604976907373">
        <ele>615.86000000000001</ele>
        <time>2025-05-03T08:34:18Z</time>
      </trkpt>
      <trkpt lat="41.084177009761333" lon="-7.358741015195847">
        <ele>615.38</ele>
        <time>2025-05-03T08:34:19Z</time>
      </trkpt>
      <trkpt lat="41.084346994757652" lon="-7.358903037384152">
        <ele>614.41999999999996</ele>
        <time>2025-05-03T08:34:20Z</time>
      </trkpt>
      <trkpt lat="41.084521003067493" lon="-7.359068999066949">
        <ele>613.46000000000004</ele>
        <time>2025-05-03T08:34:21Z</time>
      </trkpt>
      <trkpt lat="41.085191974416375" lon="-7.359677022323012">
        <ele>610.57000000000005</ele>
        <time>2025-05-03T08:34:25Z</time>
      </trkpt>
      <trkpt lat="41.085371011868119" lon="-7.359782969579101">
        <ele>609.61000000000001</ele>
        <time>2025-05-03T08:34:26Z</time>
      </trkpt>
      <trkpt lat="41.085563041269779" lon="-7.359852958470583">
        <ele>609.13</ele>
        <time>2025-05-03T08:34:27Z</time>
      </trkpt>
      <trkpt lat="41.085756998509169" lon="-7.359862010926008">
        <ele>608.16999999999996</ele>
        <time>2025-05-03T08:34:28Z</time>
      </trkpt>
      <trkpt lat="41.085949027910829" lon="-7.359870979562402">
        <ele>607.69000000000005</ele>
        <time>2025-05-03T08:34:29Z</time>
      </trkpt>
      <trkpt lat="41.086128987371922" lon="-7.359841978177428">
        <ele>607.69000000000005</ele>
        <time>2025-05-03T08:34:30Z</time>
      </trkpt>
      <trkpt lat="41.086311964318156" lon="-7.359792022034526">
        <ele>607.69000000000005</ele>
        <time>2025-05-03T08:34:31Z</time>
      </trkpt>
      <trkpt lat="41.086485972627997" lon="-7.359709963202477">
        <ele>607.69000000000005</ele>
        <time>2025-05-03T08:34:32Z</time>
      </trkpt>
      <trkpt lat="41.086654029786587" lon="-7.359597980976105">
        <ele>607.69000000000005</ele>
        <time>2025-05-03T08:34:33Z</time>
      </trkpt>
      <trkpt lat="41.086820997297764" lon="-7.359485998749733">
        <ele>608.16999999999996</ele>
        <time>2025-05-03T08:34:34Z</time>
      </trkpt>
      <trkpt lat="41.086966004222631" lon="-7.359339985996485">
        <ele>608.16999999999996</ele>
        <time>2025-05-03T08:34:35Z</time>
      </trkpt>
      <trkpt lat="41.087103970348835" lon="-7.359180981293321">
        <ele>608.16999999999996</ele>
        <time>2025-05-03T08:34:36Z</time>
      </trkpt>
      <trkpt lat="41.08722098171711" lon="-7.35898501239717">
        <ele>608.16999999999996</ele>
        <time>2025-05-03T08:34:37Z</time>
      </trkpt>
      <trkpt lat="41.087338998913765" lon="-7.358788037672639">
        <ele>608.16999999999996</ele>
        <time>2025-05-03T08:34:38Z</time>
      </trkpt>
      <trkpt lat="41.087670000270009" lon="-7.358271041885018">
        <ele>608.16999999999996</ele>
        <time>2025-05-03T08:34:41Z</time>
      </trkpt>
      <trkpt lat="41.087788017466664" lon="-7.358199041336775">
        <ele>608.16999999999996</ele>
        <time>2025-05-03T08:34:42Z</time>
      </trkpt>
      <trkpt lat="41.087904023006558" lon="-7.358161993324757">
        <ele>608.16999999999996</ele>
        <time>2025-05-03T08:34:43Z</time>
      </trkpt>
      <trkpt lat="41.088034026324749" lon="-7.358184959739447">
        <ele>608.16999999999996</ele>
        <time>2025-05-03T08:34:44Z</time>
      </trkpt>
      <trkpt lat="41.088172998279333" lon="-7.358244974166155">
        <ele>608.16999999999996</ele>
        <time>2025-05-03T08:34:45Z</time>
      </trkpt>
      <trkpt lat="41.088310964405537" lon="-7.358354022726417">
        <ele>608.16999999999996</ele>
        <time>2025-05-03T08:34:46Z</time>
      </trkpt>
      <trkpt lat="41.088458988815546" lon="-7.358471034094691">
        <ele>608.16999999999996</ele>
        <time>2025-05-03T08:34:47Z</time>
      </trkpt>
      <trkpt lat="41.088611958548427" lon="-7.358602965250611">
        <ele>608.64999999999998</ele>
        <time>2025-05-03T08:34:48Z</time>
      </trkpt>
      <trkpt lat="41.089601023122668" lon="-7.359472000971437">
        <ele>608.64999999999998</ele>
        <time>2025-05-03T08:34:54Z</time>
      </trkpt>
      <trkpt lat="41.089779976755381" lon="-7.359541989862919">
        <ele>608.64999999999998</ele>
        <time>2025-05-03T08:34:55Z</time>
      </trkpt>
      <trkpt lat="41.090504005551338" lon="-7.359843989834189">
        <ele>608.64999999999998</ele>
        <time>2025-05-03T08:34:59Z</time>
      </trkpt>
      <trkpt lat="41.090686982497573" lon="-7.359934011474252">
        <ele>608.16999999999996</ele>
        <time>2025-05-03T08:35:00Z</time>
      </trkpt>
      <trkpt lat="41.090845987200737" lon="-7.360087987035513">
        <ele>608.16999999999996</ele>
        <time>2025-05-03T08:35:01Z</time>
      </trkpt>
      <trkpt lat="41.091297017410398" lon="-7.360524013638496">
        <ele>608.64999999999998</ele>
        <time>2025-05-03T08:35:04Z</time>
      </trkpt>
      <trkpt lat="41.091384021565318" lon="-7.360690981149674">
        <ele>608.16999999999996</ele>
        <time>2025-05-03T08:35:05Z</time>
      </trkpt>
      <trkpt lat="41.09143003821373" lon="-7.360874963924289">
        <ele>608.16999999999996</ele>
        <time>2025-05-03T08:35:06Z</time>
      </trkpt>
      <trkpt lat="41.091486029326916" lon="-7.361097000539303">
        <ele>607.69000000000005</ele>
        <time>2025-05-03T08:35:07Z</time>
      </trkpt>
      <trkpt lat="41.091517964377999" lon="-7.361278971657157">
        <ele>607.21000000000004</ele>
        <time>2025-05-03T08:35:08Z</time>
      </trkpt>
      <trkpt lat="41.091613015159965" lon="-7.361645009368658">
        <ele>605.76999999999998</ele>
        <time>2025-05-03T08:35:10Z</time>
      </trkpt>
      <trkpt lat="41.091678980737925" lon="-7.361763026565313">
        <ele>605.28999999999996</ele>
        <time>2025-05-03T08:35:11Z</time>
      </trkpt>
      <trkpt lat="41.091809989884496" lon="-7.361861011013389">
        <ele>604.80999999999995</ele>
        <time>2025-05-03T08:35:12Z</time>
      </trkpt>
      <trkpt lat="41.09194703400135" lon="-7.361933011561632">
        <ele>604.33000000000004</ele>
        <time>2025-05-03T08:35:13Z</time>
      </trkpt>
      <trkpt lat="41.092101009562612" lon="-7.362000988796353">
        <ele>603.36000000000001</ele>
        <time>2025-05-03T08:35:14Z</time>
      </trkpt>
      <trkpt lat="41.092397980391979" lon="-7.362178014591336">
        <ele>602.39999999999998</ele>
        <time>2025-05-03T08:35:16Z</time>
      </trkpt>
      <trkpt lat="41.092518009245396" lon="-7.36229402013123">
        <ele>601.91999999999996</ele>
        <time>2025-05-03T08:35:17Z</time>
      </trkpt>
      <trkpt lat="41.092594033107162" lon="-7.362449001520872">
        <ele>601.44000000000005</ele>
        <time>2025-05-03T08:35:18Z</time>
      </trkpt>
      <trkpt lat="41.092647006735206" lon="-7.362615969032049">
        <ele>600.48000000000002</ele>
        <time>2025-05-03T08:35:19Z</time>
      </trkpt>
      <trkpt lat="41.092680031433702" lon="-7.362804980948567">
        <ele>599.51999999999998</ele>
        <time>2025-05-03T08:35:20Z</time>
      </trkpt>
      <trkpt lat="41.092714983969927" lon="-7.363005978986621">
        <ele>599.03999999999996</ele>
        <time>2025-05-03T08:35:21Z</time>
      </trkpt>
      <trkpt lat="41.092783967033029" lon="-7.363400012254715">
        <ele>597.12</ele>
        <time>2025-05-03T08:35:23Z</time>
      </trkpt>
      <trkpt lat="41.092862002551556" lon="-7.363532027229667">
        <ele>596.14999999999998</ele>
        <time>2025-05-03T08:35:24Z</time>
      </trkpt>
      <trkpt lat="41.092963004484773" lon="-7.363644009456039">
        <ele>594.71000000000004</ele>
        <time>2025-05-03T08:35:25Z</time>
      </trkpt>
      <trkpt lat="41.093171965330839" lon="-7.363875014707446">
        <ele>592.78999999999996</ele>
        <time>2025-05-03T08:35:27Z</time>
      </trkpt>
      <trkpt lat="41.093260981142521" lon="-7.364025972783566">
        <ele>591.83000000000004</ele>
        <time>2025-05-03T08:35:28Z</time>
      </trkpt>
      <trkpt lat="41.09334203414619" lon="-7.364202998578548">
        <ele>590.38999999999999</ele>
        <time>2025-05-03T08:35:29Z</time>
      </trkpt>
      <trkpt lat="41.093403976410627" lon="-7.364413971081376">
        <ele>589.42999999999995</ele>
        <time>2025-05-03T08:35:30Z</time>
      </trkpt>
      <trkpt lat="41.093466002494097" lon="-7.364645982161164">
        <ele>588.46000000000004</ele>
        <time>2025-05-03T08:35:31Z</time>
      </trkpt>
      <trkpt lat="41.093952991068363" lon="-7.366718994453549">
        <ele>577.40999999999997</ele>
        <time>2025-05-03T08:35:39Z</time>
      </trkpt>
      <trkpt lat="41.094018034636974" lon="-7.36717002466321">
        <ele>575.49000000000001</ele>
        <time>2025-05-03T08:35:41Z</time>
      </trkpt>
      <trkpt lat="41.094002025201917" lon="-7.367386026307941">
        <ele>574.52999999999997</ele>
        <time>2025-05-03T08:35:42Z</time>
      </trkpt>
      <trkpt lat="41.093972017988563" lon="-7.368553960695863">
        <ele>570.20000000000005</ele>
        <time>2025-05-03T08:35:47Z</time>
      </trkpt>
      <trkpt lat="41.09400998800993" lon="-7.368749007582665">
        <ele>569.72000000000003</ele>
        <time>2025-05-03T08:35:48Z</time>
      </trkpt>
      <trkpt lat="41.094067990779877" lon="-7.368927961215377">
        <ele>569.24000000000001</ele>
        <time>2025-05-03T08:35:49Z</time>
      </trkpt>
      <trkpt lat="41.094145020470023" lon="-7.369099035859108">
        <ele>569.24000000000001</ele>
        <time>2025-05-03T08:35:50Z</time>
      </trkpt>
      <trkpt lat="41.094252979382873" lon="-7.36923398450017">
        <ele>568.75999999999999</ele>
        <time>2025-05-03T08:35:51Z</time>
      </trkpt>
      <trkpt lat="41.094372002407908" lon="-7.369354013353586">
        <ele>568.75999999999999</ele>
        <time>2025-05-03T08:35:52Z</time>
      </trkpt>
      <trkpt lat="41.094511980190873" lon="-7.3694499861449">
        <ele>568.75999999999999</ele>
        <time>2025-05-03T08:35:53Z</time>
      </trkpt>
      <trkpt lat="41.09465497545898" lon="-7.369536990299821">
        <ele>568.75999999999999</ele>
        <time>2025-05-03T08:35:54Z</time>
      </trkpt>
      <trkpt lat="41.095481012016535" lon="-7.369979973882437">
        <ele>568.75999999999999</ele>
        <time>2025-05-03T08:36:00Z</time>
      </trkpt>
      <trkpt lat="41.095588970929384" lon="-7.370103020220995">
        <ele>568.27999999999997</ele>
        <time>2025-05-03T08:36:01Z</time>
      </trkpt>
      <trkpt lat="41.095678992569447" lon="-7.370262024924159">
        <ele>568.27999999999997</ele>
        <time>2025-05-03T08:36:02Z</time>
      </trkpt>
      <trkpt lat="41.095754010602832" lon="-7.370451036840677">
        <ele>567.79999999999995</ele>
        <time>2025-05-03T08:36:03Z</time>
      </trkpt>
      <trkpt lat="41.095831040292978" lon="-7.370649017393589">
        <ele>567.79999999999995</ele>
        <time>2025-05-03T08:36:04Z</time>
      </trkpt>
      <trkpt lat="41.096350969746709" lon="-7.372088022530079">
        <ele>566.83000000000004</ele>
        <time>2025-05-03T08:36:12Z</time>
      </trkpt>
      <trkpt lat="41.096478039398789" lon="-7.372452970594168">
        <ele>566.83000000000004</ele>
        <time>2025-05-03T08:36:15Z</time>
      </trkpt>
      <trkpt lat="41.096503017470241" lon="-7.372580962255597">
        <ele>566.83000000000004</ele>
        <time>2025-05-03T08:36:16Z</time>
      </trkpt>
      <trkpt lat="41.096398998051882" lon="-7.374058021232486">
        <ele>565.87</ele>
        <time>2025-05-03T08:36:26Z</time>
      </trkpt>
      <trkpt lat="41.096406038850546" lon="-7.374227000400424">
        <ele>565.38999999999999</ele>
        <time>2025-05-03T08:36:27Z</time>
      </trkpt>
      <trkpt lat="41.096435040235519" lon="-7.374392040073872">
        <ele>565.38999999999999</ele>
        <time>2025-05-03T08:36:28Z</time>
      </trkpt>
      <trkpt lat="41.096465969458222" lon="-7.374566970393062">
        <ele>565.38999999999999</ele>
        <time>2025-05-03T08:36:29Z</time>
      </trkpt>
      <trkpt lat="41.096512991935015" lon="-7.374751036986709">
        <ele>565.87</ele>
        <time>2025-05-03T08:36:30Z</time>
      </trkpt>
      <trkpt lat="41.096577029675245" lon="-7.374911969527602">
        <ele>566.35000000000002</ele>
        <time>2025-05-03T08:36:31Z</time>
      </trkpt>
      <trkpt lat="41.096640983596444" lon="-7.375071980059147">
        <ele>566.35000000000002</ele>
        <time>2025-05-03T08:36:32Z</time>
      </trkpt>
      <trkpt lat="41.097551006823778" lon="-7.37714197486639">
        <ele>566.35000000000002</ele>
        <time>2025-05-03T08:36:45Z</time>
      </trkpt>
      <trkpt lat="41.097865998744965" lon="-7.377962982282043">
        <ele>565.38999999999999</ele>
        <time>2025-05-03T08:36:51Z</time>
      </trkpt>
      <trkpt lat="41.097885025665164" lon="-7.378121986985207">
        <ele>565.38999999999999</ele>
        <time>2025-05-03T08:36:52Z</time>
      </trkpt>
      <trkpt lat="41.097902962937951" lon="-7.378280991688371">
        <ele>564.90999999999997</ele>
        <time>2025-05-03T08:36:53Z</time>
      </trkpt>
      <trkpt lat="41.09792198985815" lon="-7.378437984734774">
        <ele>564.90999999999997</ele>
        <time>2025-05-03T08:36:54Z</time>
      </trkpt>
      <trkpt lat="41.097944034263492" lon="-7.378628002479672">
        <ele>564.42999999999995</ele>
        <time>2025-05-03T08:36:55Z</time>
      </trkpt>
      <trkpt lat="41.097928024828434" lon="-7.379220016300678">
        <ele>563.47000000000003</ele>
        <time>2025-05-03T08:36:59Z</time>
      </trkpt>
      <trkpt lat="41.097949985414743" lon="-7.379373991861939">
        <ele>563.47000000000003</ele>
        <time>2025-05-03T08:37:00Z</time>
      </trkpt>
      <trkpt lat="41.097978986799717" lon="-7.379514975473285">
        <ele>563.47000000000003</ele>
        <time>2025-05-03T08:37:01Z</time>
      </trkpt>
      <trkpt lat="41.098039001226425" lon="-7.379645984619856">
        <ele>562.99000000000001</ele>
        <time>2025-05-03T08:37:02Z</time>
      </trkpt>
      <trkpt lat="41.098102033138275" lon="-7.379775987938047">
        <ele>563.47000000000003</ele>
        <time>2025-05-03T08:37:03Z</time>
      </trkpt>
      <trkpt lat="41.098186019808054" lon="-7.37989098764956">
        <ele>563.47000000000003</ele>
        <time>2025-05-03T08:37:04Z</time>
      </trkpt>
      <trkpt lat="41.098271012306213" lon="-7.380006993189454">
        <ele>563.47000000000003</ele>
        <time>2025-05-03T08:37:05Z</time>
      </trkpt>
      <trkpt lat="41.099523017182946" lon="-7.381468964740634">
        <ele>566.35000000000002</ele>
        <time>2025-05-03T08:37:17Z</time>
      </trkpt>
      <trkpt lat="41.099777994677424" lon="-7.381712039932609">
        <ele>566.83000000000004</ele>
        <time>2025-05-03T08:37:19Z</time>
      </trkpt>
      <trkpt lat="41.099917972460389" lon="-7.38184698857367">
        <ele>567.32000000000005</ele>
        <time>2025-05-03T08:37:20Z</time>
      </trkpt>
      <trkpt lat="41.100055016577244" lon="-7.381865009665489">
        <ele>567.32000000000005</ele>
        <time>2025-05-03T08:37:21Z</time>
      </trkpt>
      <trkpt lat="41.100202035158873" lon="-7.381884958595038">
        <ele>567.79999999999995</ele>
        <time>2025-05-03T08:37:22Z</time>
      </trkpt>
      <trkpt lat="41.100353999063373" lon="-7.381857968866825">
        <ele>568.27999999999997</ele>
        <time>2025-05-03T08:37:23Z</time>
      </trkpt>
      <trkpt lat="41.100508980453014" lon="-7.381814969703555">
        <ele>569.24000000000001</ele>
        <time>2025-05-03T08:37:24Z</time>
      </trkpt>
      <trkpt lat="41.100989012047648" lon="-7.381682032719255">
        <ele>572.12</ele>
        <time>2025-05-03T08:37:27Z</time>
      </trkpt>
      <trkpt lat="41.101137036457658" lon="-7.381684966385365">
        <ele>573.08000000000004</ele>
        <time>2025-05-03T08:37:28Z</time>
      </trkpt>
      <trkpt lat="41.1012920178473" lon="-7.381697036325932">
        <ele>574.03999999999996</ele>
        <time>2025-05-03T08:37:29Z</time>
      </trkpt>
      <trkpt lat="41.101438030600548" lon="-7.381789991632104">
        <ele>575.00999999999999</ele>
        <time>2025-05-03T08:37:30Z</time>
      </trkpt>
      <trkpt lat="41.101589994505048" lon="-7.381885964423418">
        <ele>575.97000000000003</ele>
        <time>2025-05-03T08:37:31Z</time>
      </trkpt>
      <trkpt lat="41.10305598936975" lon="-7.382988017052412">
        <ele>582.22000000000003</ele>
        <time>2025-05-03T08:37:40Z</time>
      </trkpt>
      <trkpt lat="41.103186998516321" lon="-7.383165964856744">
        <ele>583.17999999999995</ele>
        <time>2025-05-03T08:37:41Z</time>
      </trkpt>
      <trkpt lat="41.103305015712976" lon="-7.383351037278771">
        <ele>584.13999999999999</ele>
        <time>2025-05-03T08:37:42Z</time>
      </trkpt>
      <trkpt lat="41.103395037353039" lon="-7.383568966761231">
        <ele>585.10000000000002</ele>
        <time>2025-05-03T08:37:43Z</time>
      </trkpt>
      <trkpt lat="41.103482041507959" lon="-7.383786980062723">
        <ele>586.53999999999996</ele>
        <time>2025-05-03T08:37:44Z</time>
      </trkpt>
      <trkpt lat="41.103537026792765" lon="-7.384027037769556">
        <ele>587.5</ele>
        <time>2025-05-03T08:37:45Z</time>
      </trkpt>
      <trkpt lat="41.10359201207757" lon="-7.384268017485738">
        <ele>588.95000000000005</ele>
        <time>2025-05-03T08:37:46Z</time>
      </trkpt>
      <trkpt lat="41.103757973760366" lon="-7.385001014918089">
        <ele>592.78999999999996</ele>
        <time>2025-05-03T08:37:49Z</time>
      </trkpt>
      <trkpt lat="41.103828968480229" lon="-7.385237971320748">
        <ele>594.23000000000002</ele>
        <time>2025-05-03T08:37:50Z</time>
      </trkpt>
      <trkpt lat="41.103957965970039" lon="-7.385442992672324">
        <ele>596.14999999999998</ele>
        <time>2025-05-03T08:37:51Z</time>
      </trkpt>
      <trkpt lat="41.104089980944991" lon="-7.385654971003532">
        <ele>597.60000000000002</ele>
        <time>2025-05-03T08:37:52Z</time>
      </trkpt>
      <trkpt lat="41.104252003133297" lon="-7.38584197126329">
        <ele>599.51999999999998</ele>
        <time>2025-05-03T08:37:53Z</time>
      </trkpt>
      <trkpt lat="41.104423999786377" lon="-7.386017991229892">
        <ele>600.96000000000004</ele>
        <time>2025-05-03T08:37:54Z</time>
      </trkpt>
      <trkpt lat="41.106367008760571" lon="-7.387935016304255">
        <ele>613.94000000000005</ele>
        <time>2025-05-03T08:38:05Z</time>
      </trkpt>
      <trkpt lat="41.107793021947145" lon="-7.388734985142946">
        <ele>621.14999999999998</ele>
        <time>2025-05-03T08:38:12Z</time>
      </trkpt>
      <trkpt lat="41.107994019985199" lon="-7.388756023719907">
        <ele>621.63</ele>
        <time>2025-05-03T08:38:13Z</time>
      </trkpt>
      <trkpt lat="41.108199963346124" lon="-7.388777984306216">
        <ele>623.07000000000005</ele>
        <time>2025-05-03T08:38:14Z</time>
      </trkpt>
      <trkpt lat="41.108409008011222" lon="-7.388683017343283">
        <ele>624.02999999999997</ele>
        <time>2025-05-03T08:38:15Z</time>
      </trkpt>
      <trkpt lat="41.108613023534417" lon="-7.388590984046459">
        <ele>624.99000000000001</ele>
        <time>2025-05-03T08:38:16Z</time>
      </trkpt>
      <trkpt lat="41.108788959681988" lon="-7.388455029577017">
        <ele>625.96000000000004</ele>
        <time>2025-05-03T08:38:17Z</time>
      </trkpt>
      <trkpt lat="41.10896497964859" lon="-7.388289989903569">
        <ele>626.91999999999996</ele>
        <time>2025-05-03T08:38:18Z</time>
      </trkpt>
      <trkpt lat="41.109144017100334" lon="-7.388122016564012">
        <ele>627.88</ele>
        <time>2025-05-03T08:38:19Z</time>
      </trkpt>
      <trkpt lat="41.109646009281278" lon="-7.387651959434152">
        <ele>631.24000000000001</ele>
        <time>2025-05-03T08:38:22Z</time>
      </trkpt>
      <trkpt lat="41.109835021197796" lon="-7.387551041319966">
        <ele>632.20000000000005</ele>
        <time>2025-05-03T08:38:23Z</time>
      </trkpt>
      <trkpt lat="41.110028978437185" lon="-7.387513993307948">
        <ele>633.16999999999996</ele>
        <time>2025-05-03T08:38:24Z</time>
      </trkpt>
      <trkpt lat="41.110224025323987" lon="-7.387492032721639">
        <ele>634.13</ele>
        <time>2025-05-03T08:38:25Z</time>
      </trkpt>
      <trkpt lat="41.110399039462209" lon="-7.38756000995636">
        <ele>634.61000000000001</ele>
        <time>2025-05-03T08:38:26Z</time>
      </trkpt>
      <trkpt lat="41.110571036115289" lon="-7.387652965262532">
        <ele>634.61000000000001</ele>
        <time>2025-05-03T08:38:27Z</time>
      </trkpt>
      <trkpt lat="41.110723000019789" lon="-7.387795960530639">
        <ele>635.09000000000003</ele>
        <time>2025-05-03T08:38:28Z</time>
      </trkpt>
      <trkpt lat="41.110865995287895" lon="-7.387979021295905">
        <ele>635.09000000000003</ele>
        <time>2025-05-03T08:38:29Z</time>
      </trkpt>
      <trkpt lat="41.111015025526285" lon="-7.388169039040804">
        <ele>635.57000000000005</ele>
        <time>2025-05-03T08:38:30Z</time>
      </trkpt>
      <trkpt lat="41.111487010493875" lon="-7.388729033991695">
        <ele>636.04999999999995</ele>
        <time>2025-05-03T08:38:33Z</time>
      </trkpt>
      <trkpt lat="41.111660012975335" lon="-7.388901030644774">
        <ele>636.04999999999995</ele>
        <time>2025-05-03T08:38:34Z</time>
      </trkpt>
      <trkpt lat="41.111856987699866" lon="-7.389018964022398">
        <ele>636.52999999999997</ele>
        <time>2025-05-03T08:38:35Z</time>
      </trkpt>
      <trkpt lat="41.112054968252778" lon="-7.389137987047434">
        <ele>637.00999999999999</ele>
        <time>2025-05-03T08:38:36Z</time>
      </trkpt>
      <trkpt lat="41.11227398738265" lon="-7.389190038666129">
        <ele>637.00999999999999</ele>
        <time>2025-05-03T08:38:37Z</time>
      </trkpt>
      <trkpt lat="41.11248797737062" lon="-7.389238988980651">
        <ele>637.49000000000001</ele>
        <time>2025-05-03T08:38:38Z</time>
      </trkpt>
      <trkpt lat="41.11270397901535" lon="-7.389224991202354">
        <ele>637.97000000000003</ele>
        <time>2025-05-03T08:38:39Z</time>
      </trkpt>
      <trkpt lat="41.112922998145223" lon="-7.389192972332239">
        <ele>638.45000000000005</ele>
        <time>2025-05-03T08:38:40Z</time>
      </trkpt>
      <trkpt lat="41.113115027546883" lon="-7.389163970947266">
        <ele>638.92999999999995</ele>
        <time>2025-05-03T08:38:41Z</time>
      </trkpt>
      <trkpt lat="41.113335974514484" lon="-7.389032039791346">
        <ele>639.40999999999997</ele>
        <time>2025-05-03T08:38:42Z</time>
      </trkpt>
      <trkpt lat="41.113532027229667" lon="-7.38891402259469">
        <ele>639.88999999999999</ele>
        <time>2025-05-03T08:38:43Z</time>
      </trkpt>
      <trkpt lat="41.113692037761211" lon="-7.388749988749623">
        <ele>639.88999999999999</ele>
        <time>2025-05-03T08:38:44Z</time>
      </trkpt>
      <trkpt lat="41.113860011100769" lon="-7.388572040945292">
        <ele>640.38</ele>
        <time>2025-05-03T08:38:45Z</time>
      </trkpt>
      <trkpt lat="41.113995965570211" lon="-7.388370037078857">
        <ele>640.38</ele>
        <time>2025-05-03T08:38:46Z</time>
      </trkpt>
      <trkpt lat="41.114130998030305" lon="-7.388137020170689">
        <ele>640.38</ele>
        <time>2025-05-03T08:38:47Z</time>
      </trkpt>
      <trkpt lat="41.114944964647293" lon="-7.386813014745712">
        <ele>641.82000000000005</ele>
        <time>2025-05-03T08:38:53Z</time>
      </trkpt>
      <trkpt lat="41.1150879599154" lon="-7.386650992557406">
        <ele>642.77999999999997</ele>
        <time>2025-05-03T08:38:54Z</time>
      </trkpt>
      <trkpt lat="41.115260040387511" lon="-7.386527024209499">
        <ele>643.25999999999999</ele>
        <time>2025-05-03T08:38:55Z</time>
      </trkpt>
      <trkpt lat="41.115428013727069" lon="-7.386415963992477">
        <ele>643.74000000000001</ele>
        <time>2025-05-03T08:38:56Z</time>
      </trkpt>
      <trkpt lat="41.115617025643587" lon="-7.386398026719689">
        <ele>644.22000000000003</ele>
        <time>2025-05-03T08:38:57Z</time>
      </trkpt>
      <trkpt lat="41.115805031731725" lon="-7.386380005627871">
        <ele>644.70000000000005</ele>
        <time>2025-05-03T08:38:58Z</time>
      </trkpt>
      <trkpt lat="41.115985997021198" lon="-7.386429039761424">
        <ele>645.17999999999995</ele>
        <time>2025-05-03T08:38:59Z</time>
      </trkpt>
      <trkpt lat="41.116178026422858" lon="-7.386512020602822">
        <ele>645.17999999999995</ele>
        <time>2025-05-03T08:39:00Z</time>
      </trkpt>
      <trkpt lat="41.116372989490628" lon="-7.386601958423853">
        <ele>645.17999999999995</ele>
        <time>2025-05-03T08:39:01Z</time>
      </trkpt>
      <trkpt lat="41.116556972265244" lon="-7.386735985055566">
        <ele>645.17999999999995</ele>
        <time>2025-05-03T08:39:02Z</time>
      </trkpt>
      <trkpt lat="41.117614014074206" lon="-7.387685989961028">
        <ele>645.17999999999995</ele>
        <time>2025-05-03T08:39:08Z</time>
      </trkpt>
      <trkpt lat="41.117756003513932" lon="-7.387902997434139">
        <ele>645.17999999999995</ele>
        <time>2025-05-03T08:39:09Z</time>
      </trkpt>
      <trkpt lat="41.118964003399014" lon="-7.389611983671784">
        <ele>645.17999999999995</ele>
        <time>2025-05-03T08:39:17Z</time>
      </trkpt>
      <trkpt lat="41.119146980345249" lon="-7.38977300003171">
        <ele>644.70000000000005</ele>
        <time>2025-05-03T08:39:18Z</time>
      </trkpt>
      <trkpt lat="41.119352001696825" lon="-7.38988196477294">
        <ele>644.70000000000005</ele>
        <time>2025-05-03T08:39:19Z</time>
      </trkpt>
      <trkpt lat="41.119558028876781" lon="-7.389973998069763">
        <ele>644.70000000000005</ele>
        <time>2025-05-03T08:39:20Z</time>
      </trkpt>
      <trkpt lat="41.119779981672764" lon="-7.390015991404653">
        <ele>644.70000000000005</ele>
        <time>2025-05-03T08:39:21Z</time>
      </trkpt>
      <trkpt lat="41.120000006631017" lon="-7.390036024153233">
        <ele>644.70000000000005</ele>
        <time>2025-05-03T08:39:22Z</time>
      </trkpt>
      <trkpt lat="41.120226988568902" lon="-7.390049016103149">
        <ele>644.70000000000005</ele>
        <time>2025-05-03T08:39:23Z</time>
      </trkpt>
      <trkpt lat="41.12138201482594" lon="-7.390119004994631">
        <ele>646.13999999999999</ele>
        <time>2025-05-03T08:39:28Z</time>
      </trkpt>
      <trkpt lat="41.121604973450303" lon="-7.390197962522507">
        <ele>646.62</ele>
        <time>2025-05-03T08:39:29Z</time>
      </trkpt>
      <trkpt lat="41.121821980923414" lon="-7.390292007476091">
        <ele>647.10000000000002</ele>
        <time>2025-05-03T08:39:30Z</time>
      </trkpt>
      <trkpt lat="41.123161995783448" lon="-7.390776984393597">
        <ele>650.95000000000005</ele>
        <time>2025-05-03T08:39:36Z</time>
      </trkpt>
      <trkpt lat="41.124050980433822" lon="-7.390946969389916">
        <ele>653.35000000000002</ele>
        <time>2025-05-03T08:39:40Z</time>
      </trkpt>
      <trkpt lat="41.12424099817872" lon="-7.391047971323133">
        <ele>653.83000000000004</ele>
        <time>2025-05-03T08:39:41Z</time>
      </trkpt>
      <trkpt lat="41.125502977520227" lon="-7.392154969274998">
        <ele>656.72000000000003</ele>
        <time>2025-05-03T08:39:48Z</time>
      </trkpt>
      <trkpt lat="41.127284970134497" lon="-7.394198980182409">
        <ele>654.30999999999995</ele>
        <time>2025-05-03T08:39:58Z</time>
      </trkpt>
      <trkpt lat="41.127408016473055" lon="-7.394439037889242">
        <ele>653.83000000000004</ele>
        <time>2025-05-03T08:39:59Z</time>
      </trkpt>
      <trkpt lat="41.127503989264369" lon="-7.394706001505256">
        <ele>653.35000000000002</ele>
        <time>2025-05-03T08:40:00Z</time>
      </trkpt>
      <trkpt lat="41.127601973712444" lon="-7.39497497677803">
        <ele>652.38999999999999</ele>
        <time>2025-05-03T08:40:01Z</time>
      </trkpt>
      <trkpt lat="41.12767799757421" lon="-7.39525300450623">
        <ele>651.42999999999995</ele>
        <time>2025-05-03T08:40:02Z</time>
      </trkpt>
      <trkpt lat="41.127742035314441" lon="-7.395548969507217">
        <ele>649.99000000000001</ele>
        <time>2025-05-03T08:40:03Z</time>
      </trkpt>
      <trkpt lat="41.128102038055658" lon="-7.39699199795723">
        <ele>641.34000000000003</ele>
        <time>2025-05-03T08:40:08Z</time>
      </trkpt>
      <trkpt lat="41.128200022503734" lon="-7.397260973230004">
        <ele>639.40999999999997</ele>
        <time>2025-05-03T08:40:09Z</time>
      </trkpt>
      <trkpt lat="41.128347963094711" lon="-7.397480998188257">
        <ele>637.49000000000001</ele>
        <time>2025-05-03T08:40:10Z</time>
      </trkpt>
      <trkpt lat="41.128505039960146" lon="-7.397683002054691">
        <ele>635.57000000000005</ele>
        <time>2025-05-03T08:40:11Z</time>
      </trkpt>
      <trkpt lat="41.128696985542774" lon="-7.39780998788774">
        <ele>633.64999999999998</ele>
        <time>2025-05-03T08:40:12Z</time>
      </trkpt>
      <trkpt lat="41.128899995237589" lon="-7.397931022569537">
        <ele>631.72000000000003</ele>
        <time>2025-05-03T08:40:13Z</time>
      </trkpt>
      <trkpt lat="41.129120020195842" lon="-7.39800101146102">
        <ele>629.79999999999995</ele>
        <time>2025-05-03T08:40:14Z</time>
      </trkpt>
      <trkpt lat="41.12935203127563" lon="-7.39804401062429">
        <ele>627.88</ele>
        <time>2025-05-03T08:40:15Z</time>
      </trkpt>
      <trkpt lat="41.129585970193148" lon="-7.398078963160515">
        <ele>625.96000000000004</ele>
        <time>2025-05-03T08:40:16Z</time>
      </trkpt>
      <trkpt lat="41.132317967712879" lon="-7.398467967286706">
        <ele>615.86000000000001</ele>
        <time>2025-05-03T08:40:28Z</time>
      </trkpt>
      <trkpt lat="41.133180968463421" lon="-7.39858103916049">
        <ele>617.77999999999997</ele>
        <time>2025-05-03T08:40:32Z</time>
      </trkpt>
      <trkpt lat="41.133400993421674" lon="-7.398593025282025">
        <ele>618.75</ele>
        <time>2025-05-03T08:40:33Z</time>
      </trkpt>
      <trkpt lat="41.133602997288108" lon="-7.398509960621595">
        <ele>619.71000000000004</ele>
        <time>2025-05-03T08:40:34Z</time>
      </trkpt>
      <trkpt lat="41.133802989497781" lon="-7.398404013365507">
        <ele>620.66999999999996</ele>
        <time>2025-05-03T08:40:35Z</time>
      </trkpt>
      <trkpt lat="41.133976997807622" lon="-7.398270992562175">
        <ele>622.11000000000001</ele>
        <time>2025-05-03T08:40:36Z</time>
      </trkpt>
      <trkpt lat="41.134310010820627" lon="-7.398072006180883">
        <ele>624.50999999999999</ele>
        <time>2025-05-03T08:40:38Z</time>
      </trkpt>
      <trkpt lat="41.134472033008933" lon="-7.39802498370409">
        <ele>625.96000000000004</ele>
        <time>2025-05-03T08:40:39Z</time>
      </trkpt>
      <trkpt lat="41.134621985256672" lon="-7.398020960390568">
        <ele>627.39999999999998</ele>
        <time>2025-05-03T08:40:40Z</time>
      </trkpt>
      <trkpt lat="41.134771015495062" lon="-7.398074017837644">
        <ele>628.36000000000001</ele>
        <time>2025-05-03T08:40:41Z</time>
      </trkpt>
      <trkpt lat="41.13491702824831" lon="-7.398190023377538">
        <ele>629.79999999999995</ele>
        <time>2025-05-03T08:40:42Z</time>
      </trkpt>
      <trkpt lat="41.135058011859655" lon="-7.398357996717095">
        <ele>630.75999999999999</ele>
        <time>2025-05-03T08:40:43Z</time>
      </trkpt>
      <trkpt lat="41.135191032662988" lon="-7.398555977270007">
        <ele>632.20000000000005</ele>
        <time>2025-05-03T08:40:44Z</time>
      </trkpt>
      <trkpt lat="41.136106001213193" lon="-7.399668004363775">
        <ele>639.88999999999999</ele>
        <time>2025-05-03T08:40:50Z</time>
      </trkpt>
      <trkpt lat="41.136262994259596" lon="-7.399770012125373">
        <ele>640.86000000000001</ele>
        <time>2025-05-03T08:40:51Z</time>
      </trkpt>
      <trkpt lat="41.136429961770773" lon="-7.39980798214674">
        <ele>641.82000000000005</ele>
        <time>2025-05-03T08:40:52Z</time>
      </trkpt>
      <trkpt lat="41.136592989787459" lon="-7.399761965498328">
        <ele>643.25999999999999</ele>
        <time>2025-05-03T08:40:53Z</time>
      </trkpt>
      <trkpt lat="41.136733973398805" lon="-7.399643026292324">
        <ele>643.74000000000001</ele>
        <time>2025-05-03T08:40:54Z</time>
      </trkpt>
      <trkpt lat="41.136887026950717" lon="-7.399514028802514">
        <ele>644.70000000000005</ele>
        <time>2025-05-03T08:40:55Z</time>
      </trkpt>
      <trkpt lat="41.138178007677197" lon="-7.398183988407254">
        <ele>650.47000000000003</ele>
        <time>2025-05-03T08:41:03Z</time>
      </trkpt>
      <trkpt lat="41.138619985431433" lon="-7.397535983473063">
        <ele>653.35000000000002</ele>
        <time>2025-05-03T08:41:07Z</time>
      </trkpt>
      <trkpt lat="41.138672959059477" lon="-7.397381002083421">
        <ele>654.30999999999995</ele>
        <time>2025-05-03T08:41:08Z</time>
      </trkpt>
      <trkpt lat="41.13872199319303" lon="-7.397234989330173">
        <ele>654.79999999999995</ele>
        <time>2025-05-03T08:41:09Z</time>
      </trkpt>
      <trkpt lat="41.139011001214385" lon="-7.396406019106507">
        <ele>659.60000000000002</ele>
        <time>2025-05-03T08:41:17Z</time>
      </trkpt>
      <trkpt lat="41.139078978449106" lon="-7.396245002746582">
        <ele>662.97000000000003</ele>
        <time>2025-05-03T08:41:24Z</time>
      </trkpt>
      <trkpt lat="41.139078978449106" lon="-7.396245002746582">
        <ele>664.40999999999997</ele>
        <time>2025-05-03T08:41:38Z</time>
      </trkpt>
      <trkpt lat="41.139038996770978" lon="-7.396084992215037">
        <ele>670.65999999999997</ele>
        <time>2025-05-03T09:14:29Z</time>
      </trkpt>
      <trkpt lat="41.139004966244102" lon="-7.395997988060117">
        <ele>656.24000000000001</ele>
        <time>2025-05-03T09:15:02Z</time>
      </trkpt>
      <trkpt lat="41.139005972072482" lon="-7.396041993051767">
        <ele>659.60000000000002</ele>
        <time>2025-05-03T09:15:17Z</time>
      </trkpt>
      <trkpt lat="41.139229014515877" lon="-7.396031012758613">
        <ele>659.60000000000002</ele>
        <time>2025-05-03T09:15:26Z</time>
      </trkpt>
      <trkpt lat="41.139229014515877" lon="-7.396031012758613">
        <ele>659.12</ele>
        <time>2025-05-03T09:15:27Z</time>
      </trkpt>
      <trkpt lat="41.139554986730218" lon="-7.395838983356953">
        <ele>656.72000000000003</ele>
        <time>2025-05-03T09:15:34Z</time>
      </trkpt>
      <trkpt lat="41.139604020863771" lon="-7.395817022770643">
        <ele>656.72000000000003</ele>
        <time>2025-05-03T09:15:35Z</time>
      </trkpt>
      <trkpt lat="41.139678033068776" lon="-7.395823979750276">
        <ele>656.72000000000003</ele>
        <time>2025-05-03T09:15:36Z</time>
      </trkpt>
      <trkpt lat="41.139755984768271" lon="-7.39583202637732">
        <ele>656.24000000000001</ele>
        <time>2025-05-03T09:15:37Z</time>
      </trkpt>
      <trkpt lat="41.139821028336883" lon="-7.395849041640759">
        <ele>655.75999999999999</ele>
        <time>2025-05-03T09:15:38Z</time>
      </trkpt>
      <trkpt lat="41.139892023056746" lon="-7.395915007218719">
        <ele>655.27999999999997</ele>
        <time>2025-05-03T09:15:39Z</time>
      </trkpt>
      <trkpt lat="41.13996796309948" lon="-7.395984996110201">
        <ele>654.79999999999995</ele>
        <time>2025-05-03T09:15:40Z</time>
      </trkpt>
      <trkpt lat="41.140913022682071" lon="-7.396902982145548">
        <ele>650.95000000000005</ele>
        <time>2025-05-03T09:15:51Z</time>
      </trkpt>
      <trkpt lat="41.141286017373204" lon="-7.397289974614978">
        <ele>649.02999999999997</ele>
        <time>2025-05-03T09:15:55Z</time>
      </trkpt>
      <trkpt lat="41.141347959637642" lon="-7.397413020953536">
        <ele>649.02999999999997</ele>
        <time>2025-05-03T09:15:56Z</time>
      </trkpt>
      <trkpt lat="41.141379978507757" lon="-7.397556016221643">
        <ele>648.54999999999995</ele>
        <time>2025-05-03T09:15:57Z</time>
      </trkpt>
      <trkpt lat="41.141413003206253" lon="-7.397705968469381">
        <ele>647.59000000000003</ele>
        <time>2025-05-03T09:15:58Z</time>
      </trkpt>
      <trkpt lat="41.14144803956151" lon="-7.397863967344165">
        <ele>646.62</ele>
        <time>2025-05-03T09:15:59Z</time>
      </trkpt>
      <trkpt lat="41.141477040946484" lon="-7.398028001189232">
        <ele>646.13999999999999</ele>
        <time>2025-05-03T09:16:00Z</time>
      </trkpt>
      <trkpt lat="41.141520962119102" lon="-7.398366965353489">
        <ele>643.74000000000001</ele>
        <time>2025-05-03T09:16:02Z</time>
      </trkpt>
      <trkpt lat="41.141538983210921" lon="-7.39853803999722">
        <ele>642.29999999999995</ele>
        <time>2025-05-03T09:16:03Z</time>
      </trkpt>
      <trkpt lat="41.141567984595895" lon="-7.398906005546451">
        <ele>639.88999999999999</ele>
        <time>2025-05-03T09:16:05Z</time>
      </trkpt>
      <trkpt lat="41.141544012352824" lon="-7.399091999977827">
        <ele>638.92999999999995</ele>
        <time>2025-05-03T09:16:06Z</time>
      </trkpt>
      <trkpt lat="41.141516016796231" lon="-7.399583011865616">
        <ele>637.97000000000003</ele>
        <time>2025-05-03T09:16:09Z</time>
      </trkpt>
      <trkpt lat="41.141549041494727" lon="-7.399727012962103">
        <ele>637.49000000000001</ele>
        <time>2025-05-03T09:16:10Z</time>
      </trkpt>
      <trkpt lat="41.141618024557829" lon="-7.399806976318359">
        <ele>637.49000000000001</ele>
        <time>2025-05-03T09:16:11Z</time>
      </trkpt>
      <trkpt lat="41.141697987914085" lon="-7.399883000180125">
        <ele>637.00999999999999</ele>
        <time>2025-05-03T09:16:12Z</time>
      </trkpt>
      <trkpt lat="41.141790021210909" lon="-7.399929016828537">
        <ele>637.00999999999999</ele>
        <time>2025-05-03T09:16:13Z</time>
      </trkpt>
      <trkpt lat="41.141882976517081" lon="-7.399976039305329">
        <ele>637.00999999999999</ele>
        <time>2025-05-03T09:16:14Z</time>
      </trkpt>
      <trkpt lat="41.141980038955808" lon="-7.400023983791471">
        <ele>637.00999999999999</ele>
        <time>2025-05-03T09:16:15Z</time>
      </trkpt>
      <trkpt lat="41.142061008140445" lon="-7.400064971297979">
        <ele>637.00999999999999</ele>
        <time>2025-05-03T09:16:16Z</time>
      </trkpt>
      <trkpt lat="41.14213602617383" lon="-7.400188017636538">
        <ele>636.52999999999997</ele>
        <time>2025-05-03T09:16:17Z</time>
      </trkpt>
      <trkpt lat="41.142209032550454" lon="-7.400307040661573">
        <ele>636.04999999999995</ele>
        <time>2025-05-03T09:16:18Z</time>
      </trkpt>
      <trkpt lat="41.142296958714724" lon="-7.400451041758061">
        <ele>636.04999999999995</ele>
        <time>2025-05-03T09:16:19Z</time>
      </trkpt>
      <trkpt lat="41.142909005284309" lon="-7.401515962556005">
        <ele>632.67999999999995</ele>
        <time>2025-05-03T09:16:27Z</time>
      </trkpt>
      <trkpt lat="41.143070021644235" lon="-7.401716960594058">
        <ele>631.72000000000003</ele>
        <time>2025-05-03T09:16:29Z</time>
      </trkpt>
      <trkpt lat="41.143130036070943" lon="-7.401786027476192">
        <ele>631.24000000000001</ele>
        <time>2025-05-03T09:16:30Z</time>
      </trkpt>
      <trkpt lat="41.143191978335381" lon="-7.401857022196055">
        <ele>631.24000000000001</ele>
        <time>2025-05-03T09:16:31Z</time>
      </trkpt>
      <trkpt lat="41.143327010795474" lon="-7.401823997497559">
        <ele>630.75999999999999</ele>
        <time>2025-05-03T09:16:32Z</time>
      </trkpt>
      <trkpt lat="41.143380990251899" lon="-7.401836989447475">
        <ele>630.27999999999997</ele>
        <time>2025-05-03T09:16:33Z</time>
      </trkpt>
      <trkpt lat="41.143466988578439" lon="-7.401927011087537">
        <ele>630.27999999999997</ele>
        <time>2025-05-03T09:16:34Z</time>
      </trkpt>
      <trkpt lat="41.143499007448554" lon="-7.402081992477179">
        <ele>629.79999999999995</ele>
        <time>2025-05-03T09:16:35Z</time>
      </trkpt>
      <trkpt lat="41.143548963591456" lon="-7.402154998853803">
        <ele>629.32000000000005</ele>
        <time>2025-05-03T09:16:36Z</time>
      </trkpt>
      <trkpt lat="41.143614007160068" lon="-7.402248959988356">
        <ele>628.84000000000003</ele>
        <time>2025-05-03T09:16:37Z</time>
      </trkpt>
      <trkpt lat="41.143681984394789" lon="-7.402348034083843">
        <ele>628.36000000000001</ele>
        <time>2025-05-03T09:16:38Z</time>
      </trkpt>
      <trkpt lat="41.143768988549709" lon="-7.402444006875157">
        <ele>627.88</ele>
        <time>2025-05-03T09:16:39Z</time>
      </trkpt>
      <trkpt lat="41.143872002139688" lon="-7.402501003816724">
        <ele>627.39999999999998</ele>
        <time>2025-05-03T09:16:40Z</time>
      </trkpt>
      <trkpt lat="41.145074972882867" lon="-7.403142973780632">
        <ele>619.23000000000002</ele>
        <time>2025-05-03T09:16:51Z</time>
      </trkpt>
      <trkpt lat="41.145184021443129" lon="-7.403252022340894">
        <ele>617.77999999999997</ele>
        <time>2025-05-03T09:16:53Z</time>
      </trkpt>
      <trkpt lat="41.145225008949637" lon="-7.403293009847403">
        <ele>617.29999999999995</ele>
        <time>2025-05-03T09:16:54Z</time>
      </trkpt>
      <trkpt lat="41.145323999226093" lon="-7.403229977935553">
        <ele>616.34000000000003</ele>
        <time>2025-05-03T09:16:55Z</time>
      </trkpt>
      <trkpt lat="41.145378984510899" lon="-7.403182033449411">
        <ele>615.86000000000001</ele>
        <time>2025-05-03T09:16:56Z</time>
      </trkpt>
      <trkpt lat="41.145443022251129" lon="-7.403126964345574">
        <ele>614.89999999999998</ele>
        <time>2025-05-03T09:16:57Z</time>
      </trkpt>
      <trkpt lat="41.145513011142612" lon="-7.403067033737898">
        <ele>614.41999999999996</ele>
        <time>2025-05-03T09:16:58Z</time>
      </trkpt>
      <trkpt lat="41.145583000034094" lon="-7.403006013482809">
        <ele>613.94000000000005</ele>
        <time>2025-05-03T09:16:59Z</time>
      </trkpt>
      <trkpt lat="41.145696993917227" lon="-7.402908029034734">
        <ele>612.98000000000002</ele>
        <time>2025-05-03T09:17:01Z</time>
      </trkpt>
      <trkpt lat="41.145733036100864" lon="-7.402877015992999">
        <ele>612.5</ele>
        <time>2025-05-03T09:17:02Z</time>
      </trkpt>
      <trkpt lat="41.145759020000696" lon="-7.402854971587658">
        <ele>612.01999999999998</ele>
        <time>2025-05-03T09:17:03Z</time>
      </trkpt>
      <trkpt lat="41.145777963101864" lon="-7.402838040143251">
        <ele>611.05999999999995</ele>
        <time>2025-05-03T09:17:04Z</time>
      </trkpt>
      <trkpt lat="41.145887011662126" lon="-7.402850026264787">
        <ele>611.05999999999995</ele>
        <time>2025-05-03T09:17:05Z</time>
      </trkpt>
      <trkpt lat="41.145895980298519" lon="-7.40287902764976">
        <ele>610.57000000000005</ele>
        <time>2025-05-03T09:17:06Z</time>
      </trkpt>
      <trkpt lat="41.145907966420054" lon="-7.402915991842747">
        <ele>609.61000000000001</ele>
        <time>2025-05-03T09:17:07Z</time>
      </trkpt>
      <trkpt lat="41.14591802470386" lon="-7.402953961864114">
        <ele>609.13</ele>
        <time>2025-05-03T09:17:08Z</time>
      </trkpt>
      <trkpt lat="41.145932022482157" lon="-7.403001990169287">
        <ele>608.16999999999996</ele>
        <time>2025-05-03T09:17:09Z</time>
      </trkpt>
      <trkpt lat="41.146151041612029" lon="-7.403697017580271">
        <ele>602.88</ele>
        <time>2025-05-03T09:17:17Z</time>
      </trkpt>
      <trkpt lat="41.146216001361609" lon="-7.403948977589607">
        <ele>603.85000000000002</ele>
        <time>2025-05-03T09:17:20Z</time>
      </trkpt>
      <trkpt lat="41.146234022453427" lon="-7.404025001451373">
        <ele>603.85000000000002</ele>
        <time>2025-05-03T09:17:21Z</time>
      </trkpt>
      <trkpt lat="41.146337036043406" lon="-7.404385004192591">
        <ele>604.33000000000004</ele>
        <time>2025-05-03T09:17:26Z</time>
      </trkpt>
      <trkpt lat="41.146428985521197" lon="-7.404709970578551">
        <ele>606.73000000000002</ele>
        <time>2025-05-03T09:17:34Z</time>
      </trkpt>
      <trkpt lat="41.146583966910839" lon="-7.405076008290052">
        <ele>607.21000000000004</ele>
        <time>2025-05-03T09:17:46Z</time>
      </trkpt>
      <trkpt lat="41.146807009354234" lon="-7.405594009906054">
        <ele>605.28999999999996</ele>
        <time>2025-05-03T09:17:55Z</time>
      </trkpt>
      <trkpt lat="41.146998032927513" lon="-7.406141012907028">
        <ele>605.76999999999998</ele>
        <time>2025-05-03T09:18:03Z</time>
      </trkpt>
      <trkpt lat="41.147060981020331" lon="-7.406545020639896">
        <ele>604.80999999999995</ele>
        <time>2025-05-03T09:18:12Z</time>
      </trkpt>
      <trkpt lat="41.14710196852684" lon="-7.406663037836552">
        <ele>604.80999999999995</ele>
        <time>2025-05-03T09:18:13Z</time>
      </trkpt>
      <trkpt lat="41.147082019597292" lon="-7.406709976494312">
        <ele>604.80999999999995</ele>
        <time>2025-05-03T09:18:14Z</time>
      </trkpt>
      <trkpt lat="41.147076990455389" lon="-7.406862024217844">
        <ele>605.28999999999996</ele>
        <time>2025-05-03T09:18:16Z</time>
      </trkpt>
      <trkpt lat="41.147103980183601" lon="-7.407037960365415">
        <ele>605.28999999999996</ele>
        <time>2025-05-03T09:18:19Z</time>
      </trkpt>
      <trkpt lat="41.147220991551876" lon="-7.407403998076916">
        <ele>604.33000000000004</ele>
        <time>2025-05-03T09:18:25Z</time>
      </trkpt>
      <trkpt lat="41.14735996350646" lon="-7.407742962241173">
        <ele>603.85000000000002</ele>
        <time>2025-05-03T09:18:32Z</time>
      </trkpt>
      <trkpt lat="41.147387037053704" lon="-7.407786967232823">
        <ele>603.36000000000001</ele>
        <time>2025-05-03T09:18:33Z</time>
      </trkpt>
      <trkpt lat="41.147414026781917" lon="-7.407831978052855">
        <ele>603.36000000000001</ele>
        <time>2025-05-03T09:18:34Z</time>
      </trkpt>
      <trkpt lat="41.147445961833" lon="-7.407886041328311">
        <ele>604.80999999999995</ele>
        <time>2025-05-03T09:18:35Z</time>
      </trkpt>
      <trkpt lat="41.147475969046354" lon="-7.407934991642833">
        <ele>605.28999999999996</ele>
        <time>2025-05-03T09:18:36Z</time>
      </trkpt>
      <trkpt lat="41.14752902649343" lon="-7.408021995797753">
        <ele>605.28999999999996</ele>
        <time>2025-05-03T09:18:38Z</time>
      </trkpt>
      <trkpt lat="41.147586023434997" lon="-7.408116962760687">
        <ele>604.80999999999995</ele>
        <time>2025-05-03T09:18:40Z</time>
      </trkpt>
      <trkpt lat="41.147854998707771" lon="-7.408571010455489">
        <ele>602.39999999999998</ele>
        <time>2025-05-03T09:18:48Z</time>
      </trkpt>
      <trkpt lat="41.147891962900758" lon="-7.408636976033449">
        <ele>601.91999999999996</ele>
        <time>2025-05-03T09:18:49Z</time>
      </trkpt>
      <trkpt lat="41.147972010076046" lon="-7.408781982958317">
        <ele>601.44000000000005</ele>
        <time>2025-05-03T09:18:56Z</time>
      </trkpt>
      <trkpt lat="41.147972010076046" lon="-7.408781982958317">
        <ele>601.44000000000005</ele>
        <time>2025-05-03T09:19:27Z</time>
      </trkpt>
      <trkpt lat="41.148030012845993" lon="-7.408889019861817">
        <ele>601.44000000000005</ele>
        <time>2025-05-03T09:19:44Z</time>
      </trkpt>
      <trkpt lat="41.147570013999939" lon="-7.408577967435122">
        <ele>596.63999999999999</ele>
        <time>2025-05-03T09:26:53Z</time>
      </trkpt>
      <trkpt lat="41.148187005892396" lon="-7.40893897600472">
        <ele>616.82000000000005</ele>
        <time>2025-05-03T09:27:20Z</time>
      </trkpt>
      <trkpt lat="41.148162027820945" lon="-7.408987004309893">
        <ele>623.07000000000005</ele>
        <time>2025-05-03T09:27:43Z</time>
      </trkpt>
      <trkpt lat="41.148126991465688" lon="-7.409027991816402">
        <ele>618.75</ele>
        <time>2025-05-03T09:28:29Z</time>
      </trkpt>
      <trkpt lat="41.148149035871029" lon="-7.409104015678167">
        <ele>620.66999999999996</ele>
        <time>2025-05-03T09:29:11Z</time>
      </trkpt>
      <trkpt lat="41.148202009499073" lon="-7.409198982641101">
        <ele>620.66999999999996</ele>
        <time>2025-05-03T09:29:13Z</time>
      </trkpt>
      <trkpt lat="41.148261018097401" lon="-7.409350024536252">
        <ele>620.19000000000005</ele>
        <time>2025-05-03T09:29:16Z</time>
      </trkpt>
      <trkpt lat="41.148279039189219" lon="-7.409420013427734">
        <ele>620.19000000000005</ele>
        <time>2025-05-03T09:29:17Z</time>
      </trkpt>
      <trkpt lat="41.148296976462007" lon="-7.409493019804359">
        <ele>619.71000000000004</ele>
        <time>2025-05-03T09:29:18Z</time>
      </trkpt>
      <trkpt lat="41.148326983675361" lon="-7.409656969830394">
        <ele>619.23000000000002</ele>
        <time>2025-05-03T09:29:20Z</time>
      </trkpt>
      <trkpt lat="41.148326983675361" lon="-7.410380998626351">
        <ele>616.82000000000005</ele>
        <time>2025-05-03T09:29:28Z</time>
      </trkpt>
      <trkpt lat="41.148340981453657" lon="-7.410479988902807">
        <ele>616.34000000000003</ele>
        <time>2025-05-03T09:29:29Z</time>
      </trkpt>
      <trkpt lat="41.148380963131785" lon="-7.410565987229347">
        <ele>615.38</ele>
        <time>2025-05-03T09:29:30Z</time>
      </trkpt>
      <trkpt lat="41.148419016972184" lon="-7.410649973899126">
        <ele>614.89999999999998</ele>
        <time>2025-05-03T09:29:31Z</time>
      </trkpt>
      <trkpt lat="41.148455981165171" lon="-7.410729015246034">
        <ele>614.41999999999996</ele>
        <time>2025-05-03T09:29:32Z</time>
      </trkpt>
      <trkpt lat="41.148536028340459" lon="-7.410772014409304">
        <ele>614.41999999999996</ele>
        <time>2025-05-03T09:29:33Z</time>
      </trkpt>
      <trkpt lat="41.148599982261658" lon="-7.410806966945529">
        <ele>613.94000000000005</ele>
        <time>2025-05-03T09:29:34Z</time>
      </trkpt>
      <trkpt lat="41.148666031658649" lon="-7.410842003300786">
        <ele>613.46000000000004</ele>
        <time>2025-05-03T09:29:35Z</time>
      </trkpt>
      <trkpt lat="41.148738032206893" lon="-7.410879973322153">
        <ele>612.98000000000002</ele>
        <time>2025-05-03T09:29:36Z</time>
      </trkpt>
      <trkpt lat="41.149473963305354" lon="-7.411061022430658">
        <ele>612.01999999999998</ele>
        <time>2025-05-03T09:29:46Z</time>
      </trkpt>
      <trkpt lat="41.149620981886983" lon="-7.411145009100437">
        <ele>612.01999999999998</ele>
        <time>2025-05-03T09:29:48Z</time>
      </trkpt>
      <trkpt lat="41.149694994091988" lon="-7.411185996606946">
        <ele>612.01999999999998</ele>
        <time>2025-05-03T09:29:49Z</time>
      </trkpt>
      <trkpt lat="41.149746961891651" lon="-7.411241987720132">
        <ele>612.01999999999998</ele>
        <time>2025-05-03T09:29:50Z</time>
      </trkpt>
      <trkpt lat="41.149795996025205" lon="-7.41132203489542">
        <ele>612.01999999999998</ele>
        <time>2025-05-03T09:29:51Z</time>
      </trkpt>
      <trkpt lat="41.149848969653249" lon="-7.41140702739358">
        <ele>612.01999999999998</ele>
        <time>2025-05-03T09:29:52Z</time>
      </trkpt>
      <trkpt lat="41.149902027100325" lon="-7.41149302572012">
        <ele>612.01999999999998</ele>
        <time>2025-05-03T09:29:53Z</time>
      </trkpt>
      <trkpt lat="41.150005962699652" lon="-7.41166602820158">
        <ele>612.5</ele>
        <time>2025-05-03T09:29:55Z</time>
      </trkpt>
      <trkpt lat="41.15004301071167" lon="-7.411757977679372">
        <ele>612.5</ele>
        <time>2025-05-03T09:29:56Z</time>
      </trkpt>
      <trkpt lat="41.150283990427852" lon="-7.412417968735099">
        <ele>612.5</ele>
        <time>2025-05-03T09:30:03Z</time>
      </trkpt>
      <trkpt lat="41.150311985984445" lon="-7.412525005638599">
        <ele>612.5</ele>
        <time>2025-05-03T09:30:04Z</time>
      </trkpt>
      <trkpt lat="41.150341993197799" lon="-7.41263497620821">
        <ele>612.98000000000002</ele>
        <time>2025-05-03T09:30:05Z</time>
      </trkpt>
      <trkpt lat="41.150374012067914" lon="-7.412750981748104">
        <ele>612.98000000000002</ele>
        <time>2025-05-03T09:30:06Z</time>
      </trkpt>
      <trkpt lat="41.15040703676641" lon="-7.412873022258282">
        <ele>612.98000000000002</ele>
        <time>2025-05-03T09:30:07Z</time>
      </trkpt>
      <trkpt lat="41.15049404092133" lon="-7.413196982815862">
        <ele>612.98000000000002</ele>
        <time>2025-05-03T09:30:10Z</time>
      </trkpt>
      <trkpt lat="41.150683974847198" lon="-7.414648979902268">
        <ele>615.86000000000001</ele>
        <time>2025-05-03T09:30:21Z</time>
      </trkpt>
      <trkpt lat="41.150834010913968" lon="-7.416094020009041">
        <ele>618.25999999999999</ele>
        <time>2025-05-03T09:30:30Z</time>
      </trkpt>
      <trkpt lat="41.150977006182075" lon="-7.417470999062061">
        <ele>620.66999999999996</ele>
        <time>2025-05-03T09:30:39Z</time>
      </trkpt>
      <trkpt lat="41.150998966768384" lon="-7.419004971161485">
        <ele>621.63</ele>
        <time>2025-05-03T09:30:49Z</time>
      </trkpt>
      <trkpt lat="41.150873992592096" lon="-7.420268962159753">
        <ele>619.71000000000004</ele>
        <time>2025-05-03T09:30:58Z</time>
      </trkpt>
      <trkpt lat="41.150828981772065" lon="-7.420860975980759">
        <ele>619.71000000000004</ele>
        <time>2025-05-03T09:31:03Z</time>
      </trkpt>
      <trkpt lat="41.150930989533663" lon="-7.422113986685872">
        <ele>622.11000000000001</ele>
        <time>2025-05-03T09:31:13Z</time>
      </trkpt>
      <trkpt lat="41.150959990918636" lon="-7.42238899692893">
        <ele>622.11000000000001</ele>
        <time>2025-05-03T09:31:15Z</time>
      </trkpt>
      <trkpt lat="41.151002990081906" lon="-7.422797027975321">
        <ele>623.07000000000005</ele>
        <time>2025-05-03T09:31:18Z</time>
      </trkpt>
      <trkpt lat="41.15100902505219" lon="-7.422853019088507">
        <ele>623.54999999999995</ele>
        <time>2025-05-03T09:31:19Z</time>
      </trkpt>
      <trkpt lat="41.151030985638499" lon="-7.423110008239746">
        <ele>623.54999999999995</ele>
        <time>2025-05-03T09:31:20Z</time>
      </trkpt>
      <trkpt lat="41.151048000901937" lon="-7.42324797436595">
        <ele>624.02999999999997</ele>
        <time>2025-05-03T09:31:21Z</time>
      </trkpt>
      <trkpt lat="41.151069961488247" lon="-7.423423994332552">
        <ele>624.50999999999999</ele>
        <time>2025-05-03T09:31:22Z</time>
      </trkpt>
      <trkpt lat="41.151092005893588" lon="-7.423604959622026">
        <ele>624.99000000000001</ele>
        <time>2025-05-03T09:31:23Z</time>
      </trkpt>
      <trkpt lat="41.151170963421464" lon="-7.42434298619628">
        <ele>626.91999999999996</ele>
        <time>2025-05-03T09:31:27Z</time>
      </trkpt>
      <trkpt lat="41.151189990341663" lon="-7.424529986456037">
        <ele>627.88</ele>
        <time>2025-05-03T09:31:28Z</time>
      </trkpt>
      <trkpt lat="41.151405991986394" lon="-7.426392026245594">
        <ele>635.57000000000005</ele>
        <time>2025-05-03T09:31:38Z</time>
      </trkpt>
      <trkpt lat="41.151593998074532" lon="-7.427864978089929">
        <ele>640.86000000000001</ele>
        <time>2025-05-03T09:31:44Z</time>
      </trkpt>
      <trkpt lat="41.151649989187717" lon="-7.428326988592744">
        <ele>642.29999999999995</ele>
        <time>2025-05-03T09:31:46Z</time>
      </trkpt>
      <trkpt lat="41.151722995564342" lon="-7.428504014387727">
        <ele>642.77999999999997</ele>
        <time>2025-05-03T09:31:47Z</time>
      </trkpt>
      <trkpt lat="41.151789966970682" lon="-7.428651032969356">
        <ele>643.74000000000001</ele>
        <time>2025-05-03T09:31:48Z</time>
      </trkpt>
      <trkpt lat="41.151903960853815" lon="-7.42872403934598">
        <ele>644.22000000000003</ele>
        <time>2025-05-03T09:31:49Z</time>
      </trkpt>
      <trkpt lat="41.152016026899219" lon="-7.428795034065843">
        <ele>644.22000000000003</ele>
        <time>2025-05-03T09:31:50Z</time>
      </trkpt>
      <trkpt lat="41.152131026610732" lon="-7.428868040442467">
        <ele>644.70000000000005</ele>
        <time>2025-05-03T09:31:51Z</time>
      </trkpt>
      <trkpt lat="41.152253989130259" lon="-7.428946997970343">
        <ele>645.17999999999995</ele>
        <time>2025-05-03T09:31:52Z</time>
      </trkpt>
      <trkpt lat="41.152358008548617" lon="-7.429065015166998">
        <ele>645.65999999999997</ele>
        <time>2025-05-03T09:31:53Z</time>
      </trkpt>
      <trkpt lat="41.152552971616387" lon="-7.429287973791361">
        <ele>647.10000000000002</ele>
        <time>2025-05-03T09:31:55Z</time>
      </trkpt>
      <trkpt lat="41.152584990486503" lon="-7.429423006251454">
        <ele>647.59000000000003</ele>
        <time>2025-05-03T09:31:56Z</time>
      </trkpt>
      <trkpt lat="41.152618015184999" lon="-7.429569019004703">
        <ele>648.07000000000005</ele>
        <time>2025-05-03T09:31:57Z</time>
      </trkpt>
      <trkpt lat="41.152593037113547" lon="-7.429699022322893">
        <ele>649.02999999999997</ele>
        <time>2025-05-03T09:31:58Z</time>
      </trkpt>
      <trkpt lat="41.152563029900193" lon="-7.429860038682818">
        <ele>649.50999999999999</ele>
        <time>2025-05-03T09:31:59Z</time>
      </trkpt>
      <trkpt lat="41.152528999373317" lon="-7.430033963173628">
        <ele>649.50999999999999</ele>
        <time>2025-05-03T09:32:00Z</time>
      </trkpt>
      <trkpt lat="41.152521036565304" lon="-7.430219035595655">
        <ele>649.99000000000001</ele>
        <time>2025-05-03T09:32:01Z</time>
      </trkpt>
      <trkpt lat="41.152542997151613" lon="-7.430417016148567">
        <ele>650.47000000000003</ele>
        <time>2025-05-03T09:32:02Z</time>
      </trkpt>
      <trkpt lat="41.152591025456786" lon="-7.430842984467745">
        <ele>651.90999999999997</ele>
        <time>2025-05-03T09:32:04Z</time>
      </trkpt>
      <trkpt lat="41.152585996314883" lon="-7.43106602691114">
        <ele>652.38999999999999</ele>
        <time>2025-05-03T09:32:05Z</time>
      </trkpt>
      <trkpt lat="41.152553977444768" lon="-7.431715037673712">
        <ele>654.30999999999995</ele>
        <time>2025-05-03T09:32:08Z</time>
      </trkpt>
      <trkpt lat="41.152587002143264" lon="-7.431931039318442">
        <ele>654.79999999999995</ele>
        <time>2025-05-03T09:32:09Z</time>
      </trkpt>
      <trkpt lat="41.152660008519888" lon="-7.432127008214593">
        <ele>654.79999999999995</ele>
        <time>2025-05-03T09:32:10Z</time>
      </trkpt>
      <trkpt lat="41.15274902433157" lon="-7.432323982939124">
        <ele>655.27999999999997</ele>
        <time>2025-05-03T09:32:11Z</time>
      </trkpt>
      <trkpt lat="41.152842985466123" lon="-7.432527998462319">
        <ele>655.75999999999999</ele>
        <time>2025-05-03T09:32:12Z</time>
      </trkpt>
      <trkpt lat="41.153921987861395" lon="-7.43493402376771">
        <ele>664.88999999999999</ele>
        <time>2025-05-03T09:32:23Z</time>
      </trkpt>
      <trkpt lat="41.154563035815954" lon="-7.436777036637068">
        <ele>671.13999999999999</ele>
        <time>2025-05-03T09:32:31Z</time>
      </trkpt>
      <trkpt lat="41.15468398667872" lon="-7.436922965571284">
        <ele>671.62</ele>
        <time>2025-05-03T09:32:32Z</time>
      </trkpt>
      <trkpt lat="41.154822036623955" lon="-7.437051963061094">
        <ele>671.62</ele>
        <time>2025-05-03T09:32:33Z</time>
      </trkpt>
      <trkpt lat="41.154981963336468" lon="-7.43716998025775">
        <ele>672.10000000000002</ele>
        <time>2025-05-03T09:32:34Z</time>
      </trkpt>
      <trkpt lat="41.155145997181535" lon="-7.437291014939547">
        <ele>672.10000000000002</ele>
        <time>2025-05-03T09:32:35Z</time>
      </trkpt>
      <trkpt lat="41.155920987948775" lon="-7.437883028760552">
        <ele>675.94000000000005</ele>
        <time>2025-05-03T09:32:40Z</time>
      </trkpt>
      <trkpt lat="41.156026013195515" lon="-7.437995010986924">
        <ele>676.90999999999997</ele>
        <time>2025-05-03T09:32:41Z</time>
      </trkpt>
      <trkpt lat="41.156079992651939" lon="-7.438155021518469">
        <ele>677.87</ele>
        <time>2025-05-03T09:32:42Z</time>
      </trkpt>
      <trkpt lat="41.156121985986829" lon="-7.438343027606607">
        <ele>678.83000000000004</ele>
        <time>2025-05-03T09:32:43Z</time>
      </trkpt>
      <trkpt lat="41.156163979321718" lon="-7.438536984845996">
        <ele>679.78999999999996</ele>
        <time>2025-05-03T09:32:44Z</time>
      </trkpt>
      <trkpt lat="41.156333964318037" lon="-7.439574999734759">
        <ele>684.60000000000002</ele>
        <time>2025-05-03T09:32:51Z</time>
      </trkpt>
      <trkpt lat="41.156351985409856" lon="-7.439695028588176">
        <ele>685.08000000000004</ele>
        <time>2025-05-03T09:32:52Z</time>
      </trkpt>
      <trkpt lat="41.156332958489656" lon="-7.439786978065968">
        <ele>685.55999999999995</ele>
        <time>2025-05-03T09:32:53Z</time>
      </trkpt>
      <trkpt lat="41.156310997903347" lon="-7.439890997484326">
        <ele>686.03999999999996</ele>
        <time>2025-05-03T09:32:54Z</time>
      </trkpt>
      <trkpt lat="41.156288031488657" lon="-7.439997028559446">
        <ele>686.51999999999998</ele>
        <time>2025-05-03T09:32:55Z</time>
      </trkpt>
      <trkpt lat="41.156223993748426" lon="-7.440073974430561">
        <ele>687</ele>
        <time>2025-05-03T09:32:56Z</time>
      </trkpt>
      <trkpt lat="41.156160039827228" lon="-7.440151004120708">
        <ele>687</ele>
        <time>2025-05-03T09:32:57Z</time>
      </trkpt>
      <trkpt lat="41.156093990430236" lon="-7.440229961648583">
        <ele>687.48000000000002</ele>
        <time>2025-05-03T09:32:58Z</time>
      </trkpt>
      <trkpt lat="41.155485967174172" lon="-7.440874027088285">
        <ele>692.28999999999996</ele>
        <time>2025-05-03T09:33:07Z</time>
      </trkpt>
      <trkpt lat="41.155432993546128" lon="-7.440967988222837">
        <ele>692.76999999999998</ele>
        <time>2025-05-03T09:33:08Z</time>
      </trkpt>
      <trkpt lat="41.155391000211239" lon="-7.441078964620829">
        <ele>693.25</ele>
        <time>2025-05-03T09:33:09Z</time>
      </trkpt>
      <trkpt lat="41.155356969684362" lon="-7.441201005131006">
        <ele>693.73000000000002</ele>
        <time>2025-05-03T09:33:10Z</time>
      </trkpt>
      <trkpt lat="41.155322017148137" lon="-7.441327990964055">
        <ele>694.21000000000004</ele>
        <time>2025-05-03T09:33:11Z</time>
      </trkpt>
      <trkpt lat="41.155322017148137" lon="-7.441476015374064">
        <ele>694.21000000000004</ele>
        <time>2025-05-03T09:33:12Z</time>
      </trkpt>
      <trkpt lat="41.155322017148137" lon="-7.441624039784074">
        <ele>694.69000000000005</ele>
        <time>2025-05-03T09:33:13Z</time>
      </trkpt>
      <trkpt lat="41.15526401437819" lon="-7.442639004439116">
        <ele>694.69000000000005</ele>
        <time>2025-05-03T09:33:18Z</time>
      </trkpt>
      <trkpt lat="41.155208023265004" lon="-7.442817036062479">
        <ele>694.69000000000005</ele>
        <time>2025-05-03T09:33:19Z</time>
      </trkpt>
      <trkpt lat="41.154609974473715" lon="-7.444344973191619">
        <ele>694.69000000000005</ele>
        <time>2025-05-03T09:33:26Z</time>
      </trkpt>
      <trkpt lat="41.154291965067387" lon="-7.445603013038635">
        <ele>694.69000000000005</ele>
        <time>2025-05-03T09:33:32Z</time>
      </trkpt>
      <trkpt lat="41.154303029179573" lon="-7.445778027176857">
        <ele>694.69000000000005</ele>
        <time>2025-05-03T09:33:33Z</time>
      </trkpt>
      <trkpt lat="41.154356002807617" lon="-7.445920016616583">
        <ele>694.69000000000005</ele>
        <time>2025-05-03T09:33:34Z</time>
      </trkpt>
      <trkpt lat="41.154451975598931" lon="-7.446068041026592">
        <ele>695.16999999999996</ele>
        <time>2025-05-03T09:33:35Z</time>
      </trkpt>
      <trkpt lat="41.154549038037658" lon="-7.446220004931092">
        <ele>695.16999999999996</ele>
        <time>2025-05-03T09:33:36Z</time>
      </trkpt>
      <trkpt lat="41.154733020812273" lon="-7.446519993245602">
        <ele>695.16999999999996</ele>
        <time>2025-05-03T09:33:38Z</time>
      </trkpt>
      <trkpt lat="41.154781971126795" lon="-7.446651002392173">
        <ele>694.69000000000005</ele>
        <time>2025-05-03T09:33:39Z</time>
      </trkpt>
      <trkpt lat="41.154767973348498" lon="-7.446812018752098">
        <ele>694.21000000000004</ele>
        <time>2025-05-03T09:33:40Z</time>
      </trkpt>
      <trkpt lat="41.154751963913441" lon="-7.446994995698333">
        <ele>694.21000000000004</ele>
        <time>2025-05-03T09:33:41Z</time>
      </trkpt>
      <trkpt lat="41.154731009155512" lon="-7.447201022878289">
        <ele>693.73000000000002</ele>
        <time>2025-05-03T09:33:42Z</time>
      </trkpt>
      <trkpt lat="41.154655991122127" lon="-7.448206013068557">
        <ele>693.25</ele>
        <time>2025-05-03T09:33:47Z</time>
      </trkpt>
      <trkpt lat="41.154695972800255" lon="-7.448351019993424">
        <ele>692.76999999999998</ele>
        <time>2025-05-03T09:33:48Z</time>
      </trkpt>
      <trkpt lat="41.154780965298414" lon="-7.448446992784739">
        <ele>692.28999999999996</ele>
        <time>2025-05-03T09:33:49Z</time>
      </trkpt>
      <trkpt lat="41.154892025515437" lon="-7.448526034131646">
        <ele>692.28999999999996</ele>
        <time>2025-05-03T09:33:50Z</time>
      </trkpt>
      <trkpt lat="41.155035020783544" lon="-7.44859803467989">
        <ele>691.80999999999995</ele>
        <time>2025-05-03T09:33:51Z</time>
      </trkpt>
      <trkpt lat="41.156313009560108" lon="-7.449073037132621">
        <ele>688.44000000000005</ele>
        <time>2025-05-03T09:33:58Z</time>
      </trkpt>
      <trkpt lat="41.157181961461902" lon="-7.449260959401727">
        <ele>685.08000000000004</ele>
        <time>2025-05-03T09:34:03Z</time>
      </trkpt>
      <trkpt lat="41.157277012243867" lon="-7.449342012405396">
        <ele>684.12</ele>
        <time>2025-05-03T09:34:04Z</time>
      </trkpt>
      <trkpt lat="41.157382037490606" lon="-7.449460029602051">
        <ele>683.63</ele>
        <time>2025-05-03T09:34:05Z</time>
      </trkpt>
      <trkpt lat="41.157419001683593" lon="-7.449559019878507">
        <ele>683.14999999999998</ele>
        <time>2025-05-03T09:34:06Z</time>
      </trkpt>
      <trkpt lat="41.157432999461889" lon="-7.44971701875329">
        <ele>682.19000000000005</ele>
        <time>2025-05-03T09:34:07Z</time>
      </trkpt>
      <trkpt lat="41.157405003905296" lon="-7.449903013184667">
        <ele>681.71000000000004</ele>
        <time>2025-05-03T09:34:08Z</time>
      </trkpt>
      <trkpt lat="41.157320011407137" lon="-7.450085990130901">
        <ele>681.23000000000002</ele>
        <time>2025-05-03T09:34:09Z</time>
      </trkpt>
      <trkpt lat="41.157224960625172" lon="-7.450283970683813">
        <ele>680.75</ele>
        <time>2025-05-03T09:34:10Z</time>
      </trkpt>
      <trkpt lat="41.157126976177096" lon="-7.45048999786377">
        <ele>680.26999999999998</ele>
        <time>2025-05-03T09:34:11Z</time>
      </trkpt>
      <trkpt lat="41.156862024217844" lon="-7.451142026111484">
        <ele>678.83000000000004</ele>
        <time>2025-05-03T09:34:14Z</time>
      </trkpt>
      <trkpt lat="41.156566981226206" lon="-7.45225103572011">
        <ele>676.41999999999996</ele>
        <time>2025-05-03T09:34:19Z</time>
      </trkpt>
      <trkpt lat="41.156566981226206" lon="-7.452427977696061">
        <ele>675.94000000000005</ele>
        <time>2025-05-03T09:34:20Z</time>
      </trkpt>
      <trkpt lat="41.156616015359759" lon="-7.452542977407575">
        <ele>675.46000000000004</ele>
        <time>2025-05-03T09:34:21Z</time>
      </trkpt>
      <trkpt lat="41.156689021736383" lon="-7.452649008482695">
        <ele>674.98000000000002</ele>
        <time>2025-05-03T09:34:22Z</time>
      </trkpt>
      <trkpt lat="41.156796980649233" lon="-7.452742969617248">
        <ele>674.5</ele>
        <time>2025-05-03T09:34:23Z</time>
      </trkpt>
      <trkpt lat="41.156909968703985" lon="-7.452840032055974">
        <ele>674.01999999999998</ele>
        <time>2025-05-03T09:34:24Z</time>
      </trkpt>
      <trkpt lat="41.157012982293963" lon="-7.452950002625585">
        <ele>674.01999999999998</ele>
        <time>2025-05-03T09:34:25Z</time>
      </trkpt>
      <trkpt lat="41.157081965357065" lon="-7.453086040914059">
        <ele>673.05999999999995</ele>
        <time>2025-05-03T09:34:26Z</time>
      </trkpt>
      <trkpt lat="41.157109038904309" lon="-7.45326298289001">
        <ele>672.58000000000004</ele>
        <time>2025-05-03T09:34:27Z</time>
      </trkpt>
      <trkpt lat="41.157136028632522" lon="-7.453433973714709">
        <ele>672.10000000000002</ele>
        <time>2025-05-03T09:34:28Z</time>
      </trkpt>
      <trkpt lat="41.157165030017495" lon="-7.453618040308356">
        <ele>671.13999999999999</ele>
        <time>2025-05-03T09:34:29Z</time>
      </trkpt>
      <trkpt lat="41.157196965068579" lon="-7.453820966184139">
        <ele>670.65999999999997</ele>
        <time>2025-05-03T09:34:30Z</time>
      </trkpt>
      <trkpt lat="41.157229989767075" lon="-7.45403403416276">
        <ele>670.17999999999995</ele>
        <time>2025-05-03T09:34:31Z</time>
      </trkpt>
      <trkpt lat="41.157360998913646" lon="-7.454867027699947">
        <ele>667.76999999999998</ele>
        <time>2025-05-03T09:34:35Z</time>
      </trkpt>
      <trkpt lat="41.157344989478588" lon="-7.455073976889253">
        <ele>666.80999999999995</ele>
        <time>2025-05-03T09:34:36Z</time>
      </trkpt>
      <trkpt lat="41.157297967001796" lon="-7.455256031826139">
        <ele>666.33000000000004</ele>
        <time>2025-05-03T09:34:37Z</time>
      </trkpt>
      <trkpt lat="41.157084982842207" lon="-7.455944018438458">
        <ele>663.45000000000005</ele>
        <time>2025-05-03T09:34:41Z</time>
      </trkpt>
      <trkpt lat="41.157100992277265" lon="-7.456073015928268">
        <ele>662.97000000000003</ele>
        <time>2025-05-03T09:34:42Z</time>
      </trkpt>
      <trkpt lat="41.157154971733689" lon="-7.456181980669498">
        <ele>662.97000000000003</ele>
        <time>2025-05-03T09:34:43Z</time>
      </trkpt>
      <trkpt lat="41.157234013080597" lon="-7.456274013966322">
        <ele>662.49000000000001</ele>
        <time>2025-05-03T09:34:44Z</time>
      </trkpt>
      <trkpt lat="41.157342977821827" lon="-7.456354983150959">
        <ele>662.00999999999999</ele>
        <time>2025-05-03T09:34:45Z</time>
      </trkpt>
      <trkpt lat="41.157466024160385" lon="-7.456445004791021">
        <ele>661.51999999999998</ele>
        <time>2025-05-03T09:34:46Z</time>
      </trkpt>
      <trkpt lat="41.157592004165053" lon="-7.456537960097194">
        <ele>661.51999999999998</ele>
        <time>2025-05-03T09:34:47Z</time>
      </trkpt>
      <trkpt lat="41.157718989998102" lon="-7.456595962867141">
        <ele>661.51999999999998</ele>
        <time>2025-05-03T09:34:48Z</time>
      </trkpt>
      <trkpt lat="41.157846981659532" lon="-7.456612978130579">
        <ele>661.03999999999996</ele>
        <time>2025-05-03T09:34:49Z</time>
      </trkpt>
      <trkpt lat="41.157978996634483" lon="-7.456574002280831">
        <ele>661.03999999999996</ele>
        <time>2025-05-03T09:34:50Z</time>
      </trkpt>
      <trkpt lat="41.158108999952674" lon="-7.456495966762304">
        <ele>661.03999999999996</ele>
        <time>2025-05-03T09:34:51Z</time>
      </trkpt>
      <trkpt lat="41.158248977735639" lon="-7.456410974264145">
        <ele>661.03999999999996</ele>
        <time>2025-05-03T09:34:52Z</time>
      </trkpt>
      <trkpt lat="41.158967977389693" lon="-7.455991040915251">
        <ele>659.60000000000002</ele>
        <time>2025-05-03T09:34:57Z</time>
      </trkpt>
      <trkpt lat="41.159078031778336" lon="-7.455944018438458">
        <ele>658.63999999999999</ele>
        <time>2025-05-03T09:34:58Z</time>
      </trkpt>
      <trkpt lat="41.159188002347946" lon="-7.455963967368007">
        <ele>658.15999999999997</ele>
        <time>2025-05-03T09:34:59Z</time>
      </trkpt>
      <trkpt lat="41.159313982352614" lon="-7.456008978188038">
        <ele>657.67999999999995</ele>
        <time>2025-05-03T09:35:00Z</time>
      </trkpt>
      <trkpt lat="41.159407021477818" lon="-7.4561180267483">
        <ele>657.20000000000005</ele>
        <time>2025-05-03T09:35:01Z</time>
      </trkpt>
      <trkpt lat="41.159502994269133" lon="-7.456240989267826">
        <ele>656.72000000000003</ele>
        <time>2025-05-03T09:35:02Z</time>
      </trkpt>
      <trkpt lat="41.159594021737576" lon="-7.456359006464481">
        <ele>655.75999999999999</ele>
        <time>2025-05-03T09:35:03Z</time>
      </trkpt>
      <trkpt lat="41.159681025892496" lon="-7.456422038376331">
        <ele>655.27999999999997</ele>
        <time>2025-05-03T09:35:04Z</time>
      </trkpt>
      <trkpt lat="41.15979895927012" lon="-7.456447016447783">
        <ele>654.30999999999995</ele>
        <time>2025-05-03T09:35:05Z</time>
      </trkpt>
      <trkpt lat="41.159934997558594" lon="-7.456477023661137">
        <ele>653.83000000000004</ele>
        <time>2025-05-03T09:35:06Z</time>
      </trkpt>
      <trkpt lat="41.160092996433377" lon="-7.456457996740937">
        <ele>653.35000000000002</ele>
        <time>2025-05-03T09:35:07Z</time>
      </trkpt>
      <trkpt lat="41.161304013803601" lon="-7.456264039501548">
        <ele>649.02999999999997</ele>
        <time>2025-05-03T09:35:14Z</time>
      </trkpt>
      <trkpt lat="41.161586986854672" lon="-7.456225985661149">
        <ele>647.59000000000003</ele>
        <time>2025-05-03T09:35:16Z</time>
      </trkpt>
      <trkpt lat="41.161705004051328" lon="-7.456235960125923">
        <ele>647.10000000000002</ele>
        <time>2025-05-03T09:35:17Z</time>
      </trkpt>
      <trkpt lat="41.161808017641306" lon="-7.45631399564445">
        <ele>646.62</ele>
        <time>2025-05-03T09:35:18Z</time>
      </trkpt>
      <trkpt lat="41.161867026239634" lon="-7.456435030326247">
        <ele>646.13999999999999</ele>
        <time>2025-05-03T09:35:19Z</time>
      </trkpt>
      <trkpt lat="41.161910025402904" lon="-7.456593029201031">
        <ele>645.65999999999997</ele>
        <time>2025-05-03T09:35:20Z</time>
      </trkpt>
      <trkpt lat="41.161910025402904" lon="-7.456761002540588">
        <ele>645.17999999999995</ele>
        <time>2025-05-03T09:35:21Z</time>
      </trkpt>
      <trkpt lat="41.161910025402904" lon="-7.456949008628726">
        <ele>644.70000000000005</ele>
        <time>2025-05-03T09:35:22Z</time>
      </trkpt>
      <trkpt lat="41.161879012361169" lon="-7.45796699076891">
        <ele>641.82000000000005</ele>
        <time>2025-05-03T09:35:27Z</time>
      </trkpt>
      <trkpt lat="41.161836013197899" lon="-7.458115015178919">
        <ele>641.34000000000003</ele>
        <time>2025-05-03T09:35:28Z</time>
      </trkpt>
      <trkpt lat="41.161768035963178" lon="-7.458229009062052">
        <ele>640.86000000000001</ele>
        <time>2025-05-03T09:35:29Z</time>
      </trkpt>
      <trkpt lat="41.161671979352832" lon="-7.45831198990345">
        <ele>640.86000000000001</ele>
        <time>2025-05-03T09:35:30Z</time>
      </trkpt>
      <trkpt lat="41.161557985469699" lon="-7.458368986845017">
        <ele>640.38</ele>
        <time>2025-05-03T09:35:31Z</time>
      </trkpt>
      <trkpt lat="41.161446003243327" lon="-7.458424977958202">
        <ele>640.38</ele>
        <time>2025-05-03T09:35:32Z</time>
      </trkpt>
      <trkpt lat="41.161341983824968" lon="-7.458492033183575">
        <ele>639.88999999999999</ele>
        <time>2025-05-03T09:35:33Z</time>
      </trkpt>
      <trkpt lat="41.161286998540163" lon="-7.458600997924805">
        <ele>639.40999999999997</ele>
        <time>2025-05-03T09:35:34Z</time>
      </trkpt>
      <trkpt lat="41.161278029903769" lon="-7.458758996799588">
        <ele>638.92999999999995</ele>
        <time>2025-05-03T09:35:35Z</time>
      </trkpt>
      <trkpt lat="41.161267971619964" lon="-7.458928981795907">
        <ele>637.97000000000003</ele>
        <time>2025-05-03T09:35:36Z</time>
      </trkpt>
      <trkpt lat="41.161256991326809" lon="-7.459117993712425">
        <ele>637.49000000000001</ele>
        <time>2025-05-03T09:35:37Z</time>
      </trkpt>
      <trkpt lat="41.161243999376893" lon="-7.459330977872014">
        <ele>637.00999999999999</ele>
        <time>2025-05-03T09:35:38Z</time>
      </trkpt>
      <trkpt lat="41.161190019920468" lon="-7.459485037252307">
        <ele>636.52999999999997</ele>
        <time>2025-05-03T09:35:39Z</time>
      </trkpt>
      <trkpt lat="41.16112899966538" lon="-7.459660973399878">
        <ele>636.04999999999995</ele>
        <time>2025-05-03T09:35:40Z</time>
      </trkpt>
      <trkpt lat="41.161090023815632" lon="-7.459850991144776">
        <ele>635.09000000000003</ele>
        <time>2025-05-03T09:35:41Z</time>
      </trkpt>
      <trkpt lat="41.161079965531826" lon="-7.46005299501121">
        <ele>634.13</ele>
        <time>2025-05-03T09:35:42Z</time>
      </trkpt>
      <trkpt lat="41.161076026037335" lon="-7.460270002484322">
        <ele>633.16999999999996</ele>
        <time>2025-05-03T09:35:43Z</time>
      </trkpt>
      <trkpt lat="41.16108700633049" lon="-7.460488015785813">
        <ele>632.20000000000005</ele>
        <time>2025-05-03T09:35:44Z</time>
      </trkpt>
      <trkpt lat="41.161084994673729" lon="-7.460693037137389">
        <ele>631.72000000000003</ele>
        <time>2025-05-03T09:35:45Z</time>
      </trkpt>
      <trkpt lat="41.161060016602278" lon="-7.46088900603354">
        <ele>631.24000000000001</ele>
        <time>2025-05-03T09:35:46Z</time>
      </trkpt>
      <trkpt lat="41.160995978862047" lon="-7.461055973544717">
        <ele>630.75999999999999</ele>
        <time>2025-05-03T09:35:47Z</time>
      </trkpt>
      <trkpt lat="41.160902017727494" lon="-7.461216989904642">
        <ele>629.79999999999995</ele>
        <time>2025-05-03T09:35:48Z</time>
      </trkpt>
      <trkpt lat="41.160806966945529" lon="-7.461381023749709">
        <ele>629.32000000000005</ele>
        <time>2025-05-03T09:35:49Z</time>
      </trkpt>
      <trkpt lat="41.160632958635688" lon="-7.46168696321547">
        <ele>628.36000000000001</ele>
        <time>2025-05-03T09:35:51Z</time>
      </trkpt>
      <trkpt lat="41.160557018592954" lon="-7.461841022595763">
        <ele>627.39999999999998</ele>
        <time>2025-05-03T09:35:52Z</time>
      </trkpt>
      <trkpt lat="41.160548971965909" lon="-7.462021987885237">
        <ele>626.44000000000005</ele>
        <time>2025-05-03T09:35:53Z</time>
      </trkpt>
      <trkpt lat="41.160541009157896" lon="-7.462218040600419">
        <ele>625.96000000000004</ele>
        <time>2025-05-03T09:35:54Z</time>
      </trkpt>
      <trkpt lat="41.160535980015993" lon="-7.462429013103247">
        <ele>624.99000000000001</ele>
        <time>2025-05-03T09:35:55Z</time>
      </trkpt>
      <trkpt lat="41.160578979179263" lon="-7.464131964370608">
        <ele>616.82000000000005</ele>
        <time>2025-05-03T09:36:04Z</time>
      </trkpt>
      <trkpt lat="41.160560036078095" lon="-7.46428401209414">
        <ele>616.34000000000003</ele>
        <time>2025-05-03T09:36:05Z</time>
      </trkpt>
      <trkpt lat="41.160538997501135" lon="-7.464441005140543">
        <ele>615.38</ele>
        <time>2025-05-03T09:36:06Z</time>
      </trkpt>
      <trkpt lat="41.160489041358232" lon="-7.464580982923508">
        <ele>614.41999999999996</ele>
        <time>2025-05-03T09:36:07Z</time>
      </trkpt>
      <trkpt lat="41.160431038588285" lon="-7.464730013161898">
        <ele>613.94000000000005</ele>
        <time>2025-05-03T09:36:08Z</time>
      </trkpt>
      <trkpt lat="41.160374963656068" lon="-7.464876025915146">
        <ele>612.98000000000002</ele>
        <time>2025-05-03T09:36:09Z</time>
      </trkpt>
      <trkpt lat="41.160127026960254" lon="-7.465445995330811">
        <ele>610.57000000000005</ele>
        <time>2025-05-03T09:36:13Z</time>
      </trkpt>
      <trkpt lat="41.160101965069771" lon="-7.465607011690736">
        <ele>609.61000000000001</ele>
        <time>2025-05-03T09:36:14Z</time>
      </trkpt>
      <trkpt lat="41.160094002261758" lon="-7.465769033879042">
        <ele>609.13</ele>
        <time>2025-05-03T09:36:15Z</time>
      </trkpt>
      <trkpt lat="41.160086039453745" lon="-7.465940024703741">
        <ele>608.16999999999996</ele>
        <time>2025-05-03T09:36:16Z</time>
      </trkpt>
      <trkpt lat="41.160086039453745" lon="-7.466116966679692">
        <ele>607.69000000000005</ele>
        <time>2025-05-03T09:36:17Z</time>
      </trkpt>
      <trkpt lat="41.160086039453745" lon="-7.466299021616578">
        <ele>607.21000000000004</ele>
        <time>2025-05-03T09:36:18Z</time>
      </trkpt>
      <trkpt lat="41.160110011696815" lon="-7.467339970171452">
        <ele>604.80999999999995</ele>
        <time>2025-05-03T09:36:24Z</time>
      </trkpt>
      <trkpt lat="41.160135995596647" lon="-7.467501992359757">
        <ele>604.33000000000004</ele>
        <time>2025-05-03T09:36:25Z</time>
      </trkpt>
      <trkpt lat="41.160191986709833" lon="-7.467644987627864">
        <ele>603.85000000000002</ele>
        <time>2025-05-03T09:36:26Z</time>
      </trkpt>
      <trkpt lat="41.160276979207993" lon="-7.467754036188126">
        <ele>603.36000000000001</ele>
        <time>2025-05-03T09:36:27Z</time>
      </trkpt>
      <trkpt lat="41.160360965877771" lon="-7.467860989272595">
        <ele>602.88</ele>
        <time>2025-05-03T09:36:28Z</time>
      </trkpt>
      <trkpt lat="41.160534974187613" lon="-7.468083025887609">
        <ele>602.39999999999998</ele>
        <time>2025-05-03T09:36:30Z</time>
      </trkpt>
      <trkpt lat="41.160580990836024" lon="-7.468205988407135">
        <ele>602.39999999999998</ele>
        <time>2025-05-03T09:36:31Z</time>
      </trkpt>
      <trkpt lat="41.160601023584604" lon="-7.468320988118649">
        <ele>601.91999999999996</ele>
        <time>2025-05-03T09:36:32Z</time>
      </trkpt>
      <trkpt lat="41.160601023584604" lon="-7.468450991436839">
        <ele>601.91999999999996</ele>
        <time>2025-05-03T09:36:33Z</time>
      </trkpt>
      <trkpt lat="41.160575039684772" lon="-7.468587029725313">
        <ele>601.91999999999996</ele>
        <time>2025-05-03T09:36:34Z</time>
      </trkpt>
      <trkpt lat="41.160516031086445" lon="-7.468704963102937">
        <ele>601.91999999999996</ele>
        <time>2025-05-03T09:36:35Z</time>
      </trkpt>
      <trkpt lat="41.160450987517834" lon="-7.468835972249508">
        <ele>601.91999999999996</ele>
        <time>2025-05-03T09:36:36Z</time>
      </trkpt>
      <trkpt lat="41.160388961434364" lon="-7.468974022194743">
        <ele>601.44000000000005</ele>
        <time>2025-05-03T09:36:37Z</time>
      </trkpt>
      <trkpt lat="41.160333976149559" lon="-7.469106959179044">
        <ele>601.44000000000005</ele>
        <time>2025-05-03T09:36:38Z</time>
      </trkpt>
      <trkpt lat="41.160321990028024" lon="-7.469249032437801">
        <ele>601.44000000000005</ele>
        <time>2025-05-03T09:36:39Z</time>
      </trkpt>
      <trkpt lat="41.16035501472652" lon="-7.469389010220766">
        <ele>600.96000000000004</ele>
        <time>2025-05-03T09:36:40Z</time>
      </trkpt>
      <trkpt lat="41.16042198613286" lon="-7.469510966911912">
        <ele>600.96000000000004</ele>
        <time>2025-05-03T09:36:41Z</time>
      </trkpt>
      <trkpt lat="41.160492980852723" lon="-7.469638036563993">
        <ele>600.96000000000004</ele>
        <time>2025-05-03T09:36:42Z</time>
      </trkpt>
      <trkpt lat="41.160565987229347" lon="-7.469768961891532">
        <ele>600.96000000000004</ele>
        <time>2025-05-03T09:36:43Z</time>
      </trkpt>
      <trkpt lat="41.160644022747874" lon="-7.469909023493528">
        <ele>600.48000000000002</ele>
        <time>2025-05-03T09:36:44Z</time>
      </trkpt>
      <trkpt lat="41.160667994990945" lon="-7.470067022368312">
        <ele>600.48000000000002</ele>
        <time>2025-05-03T09:36:45Z</time>
      </trkpt>
      <trkpt lat="41.16067998111248" lon="-7.470243964344263">
        <ele>600.48000000000002</ele>
        <time>2025-05-03T09:36:46Z</time>
      </trkpt>
      <trkpt lat="41.160664977505803" lon="-7.470415960997343">
        <ele>600.48000000000002</ele>
        <time>2025-05-03T09:36:47Z</time>
      </trkpt>
      <trkpt lat="41.160664977505803" lon="-7.470588041469455">
        <ele>600.96000000000004</ele>
        <time>2025-05-03T09:36:48Z</time>
      </trkpt>
      <trkpt lat="41.160664977505803" lon="-7.470747968181968">
        <ele>600.48000000000002</ele>
        <time>2025-05-03T09:36:49Z</time>
      </trkpt>
      <trkpt lat="41.160691967234015" lon="-7.470902027562261">
        <ele>600.48000000000002</ele>
        <time>2025-05-03T09:36:50Z</time>
      </trkpt>
      <trkpt lat="41.160753993317485" lon="-7.471017027273774">
        <ele>600.48000000000002</ele>
        <time>2025-05-03T09:36:51Z</time>
      </trkpt>
      <trkpt lat="41.160833034664392" lon="-7.471104031428695">
        <ele>600.48000000000002</ele>
        <time>2025-05-03T09:36:52Z</time>
      </trkpt>
      <trkpt lat="41.160934958606958" lon="-7.471140995621681">
        <ele>600.48000000000002</ele>
        <time>2025-05-03T09:36:53Z</time>
      </trkpt>
      <trkpt lat="41.16104300133884" lon="-7.47118097729981">
        <ele>600.96000000000004</ele>
        <time>2025-05-03T09:36:54Z</time>
      </trkpt>
      <trkpt lat="41.161154983565211" lon="-7.471222970634699">
        <ele>601.44000000000005</ele>
        <time>2025-05-03T09:36:55Z</time>
      </trkpt>
      <trkpt lat="41.162454010918736" lon="-7.471553971990943">
        <ele>600.96000000000004</ele>
        <time>2025-05-03T09:37:06Z</time>
      </trkpt>
      <trkpt lat="41.162747964262962" lon="-7.471577022224665">
        <ele>599.51999999999998</ele>
        <time>2025-05-03T09:37:09Z</time>
      </trkpt>
      <trkpt lat="41.162837985903025" lon="-7.471554977819324">
        <ele>598.55999999999995</ele>
        <time>2025-05-03T09:37:10Z</time>
      </trkpt>
      <trkpt lat="41.163077959790826" lon="-7.471430003643036">
        <ele>596.14999999999998</ele>
        <time>2025-05-03T09:37:13Z</time>
      </trkpt>
      <trkpt lat="41.163145015016198" lon="-7.471388010308147">
        <ele>595.19000000000005</ele>
        <time>2025-05-03T09:37:14Z</time>
      </trkpt>
      <trkpt lat="41.163216009736061" lon="-7.471345011144877">
        <ele>594.23000000000002</ele>
        <time>2025-05-03T09:37:15Z</time>
      </trkpt>
      <trkpt lat="41.16342899389565" lon="-7.471233028918505">
        <ele>591.35000000000002</ele>
        <time>2025-05-03T09:37:18Z</time>
      </trkpt>
      <trkpt lat="41.163986977189779" lon="-7.470961036160588">
        <ele>585.10000000000002</ele>
        <time>2025-05-03T09:37:26Z</time>
      </trkpt>
      <trkpt lat="41.164045985788107" lon="-7.470933040603995">
        <ele>584.62</ele>
        <time>2025-05-03T09:37:27Z</time>
      </trkpt>
      <trkpt lat="41.164106000214815" lon="-7.470925999805331">
        <ele>584.13999999999999</ele>
        <time>2025-05-03T09:37:28Z</time>
      </trkpt>
      <trkpt lat="41.164178000763059" lon="-7.470945026725531">
        <ele>583.17999999999995</ele>
        <time>2025-05-03T09:37:29Z</time>
      </trkpt>
      <trkpt lat="41.164255030453205" lon="-7.47096598148346">
        <ele>582.70000000000005</ele>
        <time>2025-05-03T09:37:30Z</time>
      </trkpt>
      <trkpt lat="41.164318984374404" lon="-7.470993977040052">
        <ele>582.22000000000003</ele>
        <time>2025-05-03T09:37:31Z</time>
      </trkpt>
      <trkpt lat="41.164356032386422" lon="-7.471068995073438">
        <ele>582.22000000000003</ele>
        <time>2025-05-03T09:37:32Z</time>
      </trkpt>
      <trkpt lat="41.16439500823617" lon="-7.471146024763584">
        <ele>582.22000000000003</ele>
        <time>2025-05-03T09:37:33Z</time>
      </trkpt>
      <trkpt lat="41.164437001571059" lon="-7.471230011433363">
        <ele>581.73000000000002</ele>
        <time>2025-05-03T09:37:34Z</time>
      </trkpt>
      <trkpt lat="41.16446097381413" lon="-7.471327995881438">
        <ele>581.73000000000002</ele>
        <time>2025-05-03T09:37:35Z</time>
      </trkpt>
      <trkpt lat="41.164656020700932" lon="-7.472371961921454">
        <ele>579.33000000000004</ele>
        <time>2025-05-03T09:37:44Z</time>
      </trkpt>
      <trkpt lat="41.164656020700932" lon="-7.472500959411264">
        <ele>578.85000000000002</ele>
        <time>2025-05-03T09:37:45Z</time>
      </trkpt>
      <trkpt lat="41.164628025144339" lon="-7.472625011578202">
        <ele>578.37</ele>
        <time>2025-05-03T09:37:46Z</time>
      </trkpt>
      <trkpt lat="41.164579996839166" lon="-7.472739005461335">
        <ele>577.40999999999997</ele>
        <time>2025-05-03T09:37:47Z</time>
      </trkpt>
      <trkpt lat="41.164512019604445" lon="-7.472845036536455">
        <ele>576.92999999999995</ele>
        <time>2025-05-03T09:37:48Z</time>
      </trkpt>
      <trkpt lat="41.164443036541343" lon="-7.472952995449305">
        <ele>575.97000000000003</ele>
        <time>2025-05-03T09:37:49Z</time>
      </trkpt>
      <trkpt lat="41.164247989654541" lon="-7.473257007077336">
        <ele>573.55999999999995</ele>
        <time>2025-05-03T09:37:52Z</time>
      </trkpt>
      <trkpt lat="41.164207002148032" lon="-7.473366977646947">
        <ele>572.60000000000002</ele>
        <time>2025-05-03T09:37:53Z</time>
      </trkpt>
      <trkpt lat="41.164197027683258" lon="-7.473479965701699">
        <ele>571.63999999999999</ele>
        <time>2025-05-03T09:37:54Z</time>
      </trkpt>
      <trkpt lat="41.164220999926329" lon="-7.473574010655284">
        <ele>571.15999999999997</ele>
        <time>2025-05-03T09:37:55Z</time>
      </trkpt>
      <trkpt lat="41.164247989654541" lon="-7.473685992881656">
        <ele>570.67999999999995</ele>
        <time>2025-05-03T09:37:56Z</time>
      </trkpt>
      <trkpt lat="41.164299035444856" lon="-7.47376000508666">
        <ele>569.72000000000003</ele>
        <time>2025-05-03T09:37:57Z</time>
      </trkpt>
      <trkpt lat="41.164355026558042" lon="-7.473840974271298">
        <ele>569.24000000000001</ele>
        <time>2025-05-03T09:37:58Z</time>
      </trkpt>
      <trkpt lat="41.164411017671227" lon="-7.473922027274966">
        <ele>568.27999999999997</ele>
        <time>2025-05-03T09:37:59Z</time>
      </trkpt>
      <trkpt lat="41.164887025952339" lon="-7.474444974213839">
        <ele>564.42999999999995</ele>
        <time>2025-05-03T09:38:07Z</time>
      </trkpt>
      <trkpt lat="41.165071008726954" lon="-7.47461998835206">
        <ele>563.47000000000003</ele>
        <time>2025-05-03T09:38:10Z</time>
      </trkpt>
      <trkpt lat="41.165134040638804" lon="-7.474680002778769">
        <ele>562.99000000000001</ele>
        <time>2025-05-03T09:38:11Z</time>
      </trkpt>
      <trkpt lat="41.165245017036796" lon="-7.474827021360397">
        <ele>562.99000000000001</ele>
        <time>2025-05-03T09:38:13Z</time>
      </trkpt>
      <trkpt lat="41.16527603007853" lon="-7.474896004423499">
        <ele>562.50999999999999</ele>
        <time>2025-05-03T09:38:14Z</time>
      </trkpt>
      <trkpt lat="41.165396980941296" lon="-7.475275034084916">
        <ele>562.50999999999999</ele>
        <time>2025-05-03T09:38:19Z</time>
      </trkpt>
      <trkpt lat="41.16540796123445" lon="-7.475367989391089">
        <ele>562.02999999999997</ele>
        <time>2025-05-03T09:38:20Z</time>
      </trkpt>
      <trkpt lat="41.165449032559991" lon="-7.475825976580381">
        <ele>562.02999999999997</ele>
        <time>2025-05-03T09:38:24Z</time>
      </trkpt>
      <trkpt lat="41.165479039773345" lon="-7.47594902291894">
        <ele>562.50999999999999</ele>
        <time>2025-05-03T09:38:25Z</time>
      </trkpt>
      <trkpt lat="41.16553695872426" lon="-7.476075002923608">
        <ele>562.50999999999999</ele>
        <time>2025-05-03T09:38:26Z</time>
      </trkpt>
      <trkpt lat="41.165604013949633" lon="-7.476183967664838">
        <ele>562.02999999999997</ele>
        <time>2025-05-03T09:38:27Z</time>
      </trkpt>
      <trkpt lat="41.165665034204721" lon="-7.476282035931945">
        <ele>561.54999999999995</ele>
        <time>2025-05-03T09:38:28Z</time>
      </trkpt>
      <trkpt lat="41.165775004774332" lon="-7.476343978196383">
        <ele>561.07000000000005</ele>
        <time>2025-05-03T09:38:29Z</time>
      </trkpt>
      <trkpt lat="41.165875000879169" lon="-7.476400975137949">
        <ele>560.59000000000003</ele>
        <time>2025-05-03T09:38:30Z</time>
      </trkpt>
      <trkpt lat="41.165969967842102" lon="-7.476455038413405">
        <ele>560.11000000000001</ele>
        <time>2025-05-03T09:38:31Z</time>
      </trkpt>
      <trkpt lat="41.166062001138926" lon="-7.476507006213069">
        <ele>560.11000000000001</ele>
        <time>2025-05-03T09:38:32Z</time>
      </trkpt>
      <trkpt lat="41.167214009910822" lon="-7.477045962586999">
        <ele>555.77999999999997</ele>
        <time>2025-05-03T09:38:44Z</time>
      </trkpt>
      <trkpt lat="41.167507041245699" lon="-7.47719599865377">
        <ele>553.86000000000001</ele>
        <time>2025-05-03T09:38:47Z</time>
      </trkpt>
      <trkpt lat="41.167595973238349" lon="-7.477272022515535">
        <ele>552.89999999999998</ele>
        <time>2025-05-03T09:38:48Z</time>
      </trkpt>
      <trkpt lat="41.167664034292102" lon="-7.477384004741907">
        <ele>552.40999999999997</ele>
        <time>2025-05-03T09:38:49Z</time>
      </trkpt>
      <trkpt lat="41.167720025405288" lon="-7.477516019716859">
        <ele>551.45000000000005</ele>
        <time>2025-05-03T09:38:50Z</time>
      </trkpt>
      <trkpt lat="41.167766964063048" lon="-7.477665971964598">
        <ele>550.49000000000001</ele>
        <time>2025-05-03T09:38:51Z</time>
      </trkpt>
      <trkpt lat="41.167814992368221" lon="-7.477821037173271">
        <ele>550.00999999999999</ele>
        <time>2025-05-03T09:38:52Z</time>
      </trkpt>
      <trkpt lat="41.167865032330155" lon="-7.477980041876435">
        <ele>549.52999999999997</ele>
        <time>2025-05-03T09:38:53Z</time>
      </trkpt>
      <trkpt lat="41.167911970987916" lon="-7.478132005780935">
        <ele>548.57000000000005</ele>
        <time>2025-05-03T09:38:54Z</time>
      </trkpt>
      <trkpt lat="41.168022025376558" lon="-7.478219009935856">
        <ele>548.09000000000003</ele>
        <time>2025-05-03T09:38:55Z</time>
      </trkpt>
      <trkpt lat="41.16813400760293" lon="-7.478293022140861">
        <ele>547.61000000000001</ele>
        <time>2025-05-03T09:38:56Z</time>
      </trkpt>
      <trkpt lat="41.168252024799585" lon="-7.478343984112144">
        <ele>547.61000000000001</ele>
        <time>2025-05-03T09:38:57Z</time>
      </trkpt>
      <trkpt lat="41.168389990925789" lon="-7.478384971618652">
        <ele>547.13</ele>
        <time>2025-05-03T09:38:58Z</time>
      </trkpt>
      <trkpt lat="41.169287022203207" lon="-7.478483039885759">
        <ele>542.32000000000005</ele>
        <time>2025-05-03T09:39:05Z</time>
      </trkpt>
      <trkpt lat="41.169440997764468" lon="-7.478492008522153">
        <ele>541.84000000000003</ele>
        <time>2025-05-03T09:39:06Z</time>
      </trkpt>
      <trkpt lat="41.169494977220893" lon="-7.478452026844025">
        <ele>540.88</ele>
        <time>2025-05-03T09:39:07Z</time>
      </trkpt>
      <trkpt lat="41.169565971940756" lon="-7.478350019082427">
        <ele>540.39999999999998</ele>
        <time>2025-05-03T09:39:08Z</time>
      </trkpt>
      <trkpt lat="41.169591033831239" lon="-7.478212974965572">
        <ele>539.44000000000005</ele>
        <time>2025-05-03T09:39:09Z</time>
      </trkpt>
      <trkpt lat="41.169572006911039" lon="-7.478067968040705">
        <ele>538.96000000000004</ele>
        <time>2025-05-03T09:39:10Z</time>
      </trkpt>
      <trkpt lat="41.169526996091008" lon="-7.477977024391294">
        <ele>537.99000000000001</ele>
        <time>2025-05-03T09:39:11Z</time>
      </trkpt>
      <trkpt lat="41.169393975287676" lon="-7.47788499109447">
        <ele>537.02999999999997</ele>
        <time>2025-05-03T09:39:12Z</time>
      </trkpt>
      <trkpt lat="41.169280987232924" lon="-7.477807039394975">
        <ele>536.54999999999995</ele>
        <time>2025-05-03T09:39:13Z</time>
      </trkpt>
      <trkpt lat="41.169154001399875" lon="-7.477734033018351">
        <ele>535.59000000000003</ele>
        <time>2025-05-03T09:39:14Z</time>
      </trkpt>
      <trkpt lat="41.168899023905396" lon="-7.477600006386638">
        <ele>533.66999999999996</ele>
        <time>2025-05-03T09:39:16Z</time>
      </trkpt>
      <trkpt lat="41.168812019750476" lon="-7.477478971704841">
        <ele>532.71000000000004</ele>
        <time>2025-05-03T09:39:17Z</time>
      </trkpt>
      <trkpt lat="41.168742030858994" lon="-7.47736900113523">
        <ele>531.75</ele>
        <time>2025-05-03T09:39:18Z</time>
      </trkpt>
      <trkpt lat="41.168743036687374" lon="-7.477226005867124">
        <ele>531.75</ele>
        <time>2025-05-03T09:39:19Z</time>
      </trkpt>
      <trkpt lat="41.168755022808909" lon="-7.477075969800353">
        <ele>531.26999999999998</ele>
        <time>2025-05-03T09:39:20Z</time>
      </trkpt>
      <trkpt lat="41.168806990608573" lon="-7.47693900950253">
        <ele>530.78999999999996</ele>
        <time>2025-05-03T09:39:21Z</time>
      </trkpt>
      <trkpt lat="41.168865999206901" lon="-7.476786961778998">
        <ele>530.29999999999995</ele>
        <time>2025-05-03T09:39:22Z</time>
      </trkpt>
      <trkpt lat="41.169194988906384" lon="-7.476044995710254">
        <ele>527.41999999999996</ele>
        <time>2025-05-03T09:39:27Z</time>
      </trkpt>
      <trkpt lat="41.169261038303375" lon="-7.47592899017036">
        <ele>526.94000000000005</ele>
        <time>2025-05-03T09:39:28Z</time>
      </trkpt>
      <trkpt lat="41.169347036629915" lon="-7.475860007107258">
        <ele>525.98000000000002</ele>
        <time>2025-05-03T09:39:29Z</time>
      </trkpt>
      <trkpt lat="41.169434040784836" lon="-7.475868975743651">
        <ele>525.5</ele>
        <time>2025-05-03T09:39:30Z</time>
      </trkpt>
      <trkpt lat="41.169535964727402" lon="-7.475889008492231">
        <ele>524.05999999999995</ele>
        <time>2025-05-03T09:39:31Z</time>
      </trkpt>
      <trkpt lat="41.169649036601186" lon="-7.475911974906921">
        <ele>523.09000000000003</ele>
        <time>2025-05-03T09:39:32Z</time>
      </trkpt>
      <trkpt lat="41.169766969978809" lon="-7.475935025140643">
        <ele>522.13</ele>
        <time>2025-05-03T09:39:33Z</time>
      </trkpt>
      <trkpt lat="41.169897979125381" lon="-7.475908035412431">
        <ele>521.16999999999996</ele>
        <time>2025-05-03T09:39:34Z</time>
      </trkpt>
      <trkpt lat="41.170023959130049" lon="-7.475872999057174">
        <ele>520.69000000000005</ele>
        <time>2025-05-03T09:39:35Z</time>
      </trkpt>
      <trkpt lat="41.170147005468607" lon="-7.475828994065523">
        <ele>519.73000000000002</ele>
        <time>2025-05-03T09:39:36Z</time>
      </trkpt>
      <trkpt lat="41.17026099935174" lon="-7.475789012387395">
        <ele>519.25</ele>
        <time>2025-05-03T09:39:37Z</time>
      </trkpt>
      <trkpt lat="41.170377004891634" lon="-7.475794963538647">
        <ele>518.28999999999996</ele>
        <time>2025-05-03T09:39:38Z</time>
      </trkpt>
      <trkpt lat="41.170484041795135" lon="-7.475848020985723">
        <ele>517.80999999999995</ele>
        <time>2025-05-03T09:39:39Z</time>
      </trkpt>
      <trkpt lat="41.17054296657443" lon="-7.475980035960674">
        <ele>516.85000000000002</ele>
        <time>2025-05-03T09:39:40Z</time>
      </trkpt>
      <trkpt lat="41.170602981001139" lon="-7.476128982380033">
        <ele>515.88</ele>
        <time>2025-05-03T09:39:41Z</time>
      </trkpt>
      <trkpt lat="41.17066903039813" lon="-7.476295027881861">
        <ele>515.39999999999998</ele>
        <time>2025-05-03T09:39:42Z</time>
      </trkpt>
      <trkpt lat="41.170993996784091" lon="-7.477019978687167">
        <ele>512.03999999999996</ele>
        <time>2025-05-03T09:39:46Z</time>
      </trkpt>
      <trkpt lat="41.171225002035499" lon="-7.477313010022044">
        <ele>510.12</ele>
        <time>2025-05-03T09:39:48Z</time>
      </trkpt>
      <trkpt lat="41.171300020068884" lon="-7.477480983361602">
        <ele>509.63999999999999</ele>
        <time>2025-05-03T09:39:49Z</time>
      </trkpt>
      <trkpt lat="41.171361962333322" lon="-7.477655997499824">
        <ele>508.67000000000002</ele>
        <time>2025-05-03T09:39:50Z</time>
      </trkpt>
      <trkpt lat="41.171520967036486" lon="-7.478257985785604">
        <ele>506.26999999999998</ele>
        <time>2025-05-03T09:39:53Z</time>
      </trkpt>
      <trkpt lat="41.171577963978052" lon="-7.478440040722489">
        <ele>505.79000000000002</ele>
        <time>2025-05-03T09:39:54Z</time>
      </trkpt>
      <trkpt lat="41.171697992831469" lon="-7.478549005463719">
        <ele>505.31</ele>
        <time>2025-05-03T09:39:55Z</time>
      </trkpt>
      <trkpt lat="41.171823972836137" lon="-7.478664005175233">
        <ele>504.35000000000002</ele>
        <time>2025-05-03T09:39:56Z</time>
      </trkpt>
      <trkpt lat="41.171971997246146" lon="-7.478743968531489">
        <ele>503.38999999999999</ele>
        <time>2025-05-03T09:39:57Z</time>
      </trkpt>
      <trkpt lat="41.172702983021736" lon="-7.479072036221623">
        <ele>499.06</ele>
        <time>2025-05-03T09:40:02Z</time>
      </trkpt>
      <trkpt lat="41.172793004661798" lon="-7.479184018447995">
        <ele>498.10000000000002</ele>
        <time>2025-05-03T09:40:03Z</time>
      </trkpt>
      <trkpt lat="41.172873973846436" lon="-7.479286026209593">
        <ele>497.13999999999999</ele>
        <time>2025-05-03T09:40:04Z</time>
      </trkpt>
      <trkpt lat="41.172927031293511" lon="-7.479438995942473">
        <ele>496.18000000000001</ele>
        <time>2025-05-03T09:40:05Z</time>
      </trkpt>
      <trkpt lat="41.172986039891839" lon="-7.479609986767173">
        <ele>495.22000000000003</ele>
        <time>2025-05-03T09:40:06Z</time>
      </trkpt>
      <trkpt lat="41.173115959390998" lon="-7.479984993115068">
        <ele>493.29000000000002</ele>
        <time>2025-05-03T09:40:08Z</time>
      </trkpt>
      <trkpt lat="41.17324504069984" lon="-7.480359999462962">
        <ele>491.85000000000002</ele>
        <time>2025-05-03T09:40:10Z</time>
      </trkpt>
      <trkpt lat="41.173279993236065" lon="-7.480537025257945">
        <ele>491.37</ele>
        <time>2025-05-03T09:40:11Z</time>
      </trkpt>
      <trkpt lat="41.173274964094162" lon="-7.48072100803256">
        <ele>490.41000000000003</ele>
        <time>2025-05-03T09:40:12Z</time>
      </trkpt>
      <trkpt lat="41.173270018771291" lon="-7.480901973322034">
        <ele>489.44999999999999</ele>
        <time>2025-05-03T09:40:13Z</time>
      </trkpt>
      <trkpt lat="41.173264989629388" lon="-7.481078999117017">
        <ele>488.97000000000003</ele>
        <time>2025-05-03T09:40:14Z</time>
      </trkpt>
      <trkpt lat="41.173282004892826" lon="-7.481249989941716">
        <ele>488.00999999999999</ele>
        <time>2025-05-03T09:40:15Z</time>
      </trkpt>
      <trkpt lat="41.173362974077463" lon="-7.481371024623513">
        <ele>487.52999999999997</ele>
        <time>2025-05-03T09:40:16Z</time>
      </trkpt>
      <trkpt lat="41.173455007374287" lon="-7.481475966051221">
        <ele>487.52999999999997</ele>
        <time>2025-05-03T09:40:17Z</time>
      </trkpt>
      <trkpt lat="41.173557015135884" lon="-7.481577973812819">
        <ele>487.05000000000001</ele>
        <time>2025-05-03T09:40:18Z</time>
      </trkpt>
      <trkpt lat="41.173659022897482" lon="-7.481680987402797">
        <ele>486.56</ele>
        <time>2025-05-03T09:40:19Z</time>
      </trkpt>
      <trkpt lat="41.173745021224022" lon="-7.48179498128593">
        <ele>486.07999999999998</ele>
        <time>2025-05-03T09:40:20Z</time>
      </trkpt>
      <trkpt lat="41.173792965710163" lon="-7.481949040666223">
        <ele>485.12</ele>
        <time>2025-05-03T09:40:21Z</time>
      </trkpt>
      <trkpt lat="41.173819033429027" lon="-7.482121959328651">
        <ele>484.63999999999999</ele>
        <time>2025-05-03T09:40:22Z</time>
      </trkpt>
      <trkpt lat="41.173819033429027" lon="-7.482319017872214">
        <ele>483.68000000000001</ele>
        <time>2025-05-03T09:40:23Z</time>
      </trkpt>
      <trkpt lat="41.173823978751898" lon="-7.4825269728899">
        <ele>482.72000000000003</ele>
        <time>2025-05-03T09:40:24Z</time>
      </trkpt>
      <trkpt lat="41.173833031207323" lon="-7.482728976756334">
        <ele>482.24000000000001</ele>
        <time>2025-05-03T09:40:25Z</time>
      </trkpt>
      <trkpt lat="41.173862032592297" lon="-7.482916982844472">
        <ele>481.27999999999997</ele>
        <time>2025-05-03T09:40:26Z</time>
      </trkpt>
      <trkpt lat="41.173945013433695" lon="-7.483095014467835">
        <ele>480.31999999999999</ele>
        <time>2025-05-03T09:40:27Z</time>
      </trkpt>
      <trkpt lat="41.174151962623" lon="-7.483417969197035">
        <ele>478.38999999999999</ele>
        <time>2025-05-03T09:40:29Z</time>
      </trkpt>
      <trkpt lat="41.174271991476417" lon="-7.483540009707212">
        <ele>477.43000000000001</ele>
        <time>2025-05-03T09:40:30Z</time>
      </trkpt>
      <trkpt lat="41.174415992572904" lon="-7.483644029125571">
        <ele>476.47000000000003</ele>
        <time>2025-05-03T09:40:31Z</time>
      </trkpt>
      <trkpt lat="41.17481698282063" lon="-7.483983999118209">
        <ele>474.06999999999999</ele>
        <time>2025-05-03T09:40:34Z</time>
      </trkpt>
      <trkpt lat="41.174930976703763" lon="-7.484091036021709">
        <ele>473.58999999999997</ele>
        <time>2025-05-03T09:40:35Z</time>
      </trkpt>
      <trkpt lat="41.175030972808599" lon="-7.484237970784307">
        <ele>473.11000000000001</ele>
        <time>2025-05-03T09:40:36Z</time>
      </trkpt>
      <trkpt lat="41.175119988620281" lon="-7.484409967437387">
        <ele>472.63</ele>
        <time>2025-05-03T09:40:37Z</time>
      </trkpt>
      <trkpt lat="41.175212021917105" lon="-7.484584981575608">
        <ele>472.13999999999999</ele>
        <time>2025-05-03T09:40:38Z</time>
      </trkpt>
      <trkpt lat="41.175522990524769" lon="-7.485233992338181">
        <ele>469.25999999999999</ele>
        <time>2025-05-03T09:40:42Z</time>
      </trkpt>
      <trkpt lat="41.175557021051645" lon="-7.485358966514468">
        <ele>468.30000000000001</ele>
        <time>2025-05-03T09:40:43Z</time>
      </trkpt>
      <trkpt lat="41.175531037151814" lon="-7.485511014238">
        <ele>467.81999999999999</ele>
        <time>2025-05-03T09:40:44Z</time>
      </trkpt>
      <trkpt lat="41.175512010231614" lon="-7.485618973150849">
        <ele>466.86000000000001</ele>
        <time>2025-05-03T09:40:45Z</time>
      </trkpt>
      <trkpt lat="41.175441015511751" lon="-7.485720980912447">
        <ele>465.89999999999998</ele>
        <time>2025-05-03T09:40:46Z</time>
      </trkpt>
      <trkpt lat="41.175359040498734" lon="-7.485837992280722">
        <ele>465.42000000000002</ele>
        <time>2025-05-03T09:40:47Z</time>
      </trkpt>
      <trkpt lat="41.174586983397603" lon="-7.486896961927414">
        <ele>459.17000000000002</ele>
        <time>2025-05-03T09:40:55Z</time>
      </trkpt>
      <trkpt lat="41.174486987292767" lon="-7.486986983567476">
        <ele>458.69</ele>
        <time>2025-05-03T09:40:56Z</time>
      </trkpt>
      <trkpt lat="41.174373999238014" lon="-7.487028976902366">
        <ele>457.72000000000003</ele>
        <time>2025-05-03T09:40:57Z</time>
      </trkpt>
      <trkpt lat="41.173552991822362" lon="-7.487374981865287">
        <ele>453.88</ele>
        <time>2025-05-03T09:41:03Z</time>
      </trkpt>
      <trkpt lat="41.173418965190649" lon="-7.487458968535066">
        <ele>452.92000000000002</ele>
        <time>2025-05-03T09:41:04Z</time>
      </trkpt>
      <trkpt lat="41.172698037698865" lon="-7.488173022866249">
        <ele>449.06999999999999</ele>
        <time>2025-05-03T09:41:10Z</time>
      </trkpt>
      <trkpt lat="41.172612039372325" lon="-7.488333033397794">
        <ele>448.11000000000001</ele>
        <time>2025-05-03T09:41:11Z</time>
      </trkpt>
      <trkpt lat="41.172561999410391" lon="-7.488517016172409">
        <ele>447.14999999999998</ele>
        <time>2025-05-03T09:41:12Z</time>
      </trkpt>
      <trkpt lat="41.172520006075501" lon="-7.48871399089694">
        <ele>446.67000000000002</ele>
        <time>2025-05-03T09:41:13Z</time>
      </trkpt>
      <trkpt lat="41.172478012740612" lon="-7.488910965621471">
        <ele>445.70999999999998</ele>
        <time>2025-05-03T09:41:14Z</time>
      </trkpt>
      <trkpt lat="41.172462003305554" lon="-7.48912001028657">
        <ele>445.23000000000002</ele>
        <time>2025-05-03T09:41:15Z</time>
      </trkpt>
      <trkpt lat="41.172439036890864" lon="-7.489854013547301">
        <ele>441.86000000000001</ele>
        <time>2025-05-03T09:41:20Z</time>
      </trkpt>
      <trkpt lat="41.172437025234103" lon="-7.489920984953642">
        <ele>441.38</ele>
        <time>2025-05-03T09:41:21Z</time>
      </trkpt>
      <trkpt lat="41.172435013577342" lon="-7.489970019087195">
        <ele>440.42000000000002</ele>
        <time>2025-05-03T09:41:22Z</time>
      </trkpt>
      <trkpt lat="41.172434007748961" lon="-7.490012012422085">
        <ele>439.94</ele>
        <time>2025-05-03T09:41:23Z</time>
      </trkpt>
      <trkpt lat="41.172433001920581" lon="-7.490054005756974">
        <ele>438.98000000000002</ele>
        <time>2025-05-03T09:41:24Z</time>
      </trkpt>
      <trkpt lat="41.17243099026382" lon="-7.490093987435103">
        <ele>438.5</ele>
        <time>2025-05-03T09:41:25Z</time>
      </trkpt>
      <trkpt lat="41.172429984435439" lon="-7.49013002961874">
        <ele>438.01999999999998</ele>
        <time>2025-05-03T09:41:26Z</time>
      </trkpt>
      <trkpt lat="41.172428978607059" lon="-7.490166993811727">
        <ele>437.54000000000002</ele>
        <time>2025-05-03T09:41:27Z</time>
      </trkpt>
      <trkpt lat="41.172414980828762" lon="-7.490363968536258">
        <ele>434.17000000000002</ele>
        <time>2025-05-03T09:41:32Z</time>
      </trkpt>
      <trkpt lat="41.172397965565324" lon="-7.490416020154953">
        <ele>433.69</ele>
        <time>2025-05-03T09:41:33Z</time>
      </trkpt>
      <trkpt lat="41.172381034120917" lon="-7.490464970469475">
        <ele>433.20999999999998</ele>
        <time>2025-05-03T09:41:34Z</time>
      </trkpt>
      <trkpt lat="41.17236896418035" lon="-7.490502018481493">
        <ele>432.73000000000002</ele>
        <time>2025-05-03T09:41:35Z</time>
      </trkpt>
      <trkpt lat="41.172361001372337" lon="-7.490526996552944">
        <ele>432.25</ele>
        <time>2025-05-03T09:41:36Z</time>
      </trkpt>
      <trkpt lat="41.172361001372337" lon="-7.490526996552944">
        <ele>431.29000000000002</ele>
        <time>2025-05-03T09:41:46Z</time>
      </trkpt>
      <trkpt lat="41.172361001372337" lon="-7.490526996552944">
        <ele>430.32999999999998</ele>
        <time>2025-05-03T09:42:27Z</time>
      </trkpt>
      <trkpt lat="41.172338034957647" lon="-7.490593967959285">
        <ele>430.32999999999998</ele>
        <time>2025-05-03T09:42:32Z</time>
      </trkpt>
      <trkpt lat="41.172093031927943" lon="-7.490989007055759">
        <ele>429.37</ele>
        <time>2025-05-03T09:42:38Z</time>
      </trkpt>
      <trkpt lat="41.172019019722939" lon="-7.491108030080795">
        <ele>428.88999999999999</ele>
        <time>2025-05-03T09:42:39Z</time>
      </trkpt>
      <trkpt lat="41.171949030831456" lon="-7.491236021742225">
        <ele>428.39999999999998</ele>
        <time>2025-05-03T09:42:40Z</time>
      </trkpt>
      <trkpt lat="41.171918017789721" lon="-7.491418998688459">
        <ele>428.39999999999998</ele>
        <time>2025-05-03T09:42:41Z</time>
      </trkpt>
      <trkpt lat="41.171884993091226" lon="-7.491616979241371">
        <ele>427.92000000000002</ele>
        <time>2025-05-03T09:42:42Z</time>
      </trkpt>
      <trkpt lat="41.171772005036473" lon="-7.492294991388917">
        <ele>426.95999999999998</ele>
        <time>2025-05-03T09:42:45Z</time>
      </trkpt>
      <trkpt lat="41.1717239767313" lon="-7.492533959448338">
        <ele>426.48000000000002</ele>
        <time>2025-05-03T09:42:46Z</time>
      </trkpt>
      <trkpt lat="41.171632027253509" lon="-7.492749039083719">
        <ele>426</ele>
        <time>2025-05-03T09:42:47Z</time>
      </trkpt>
      <trkpt lat="41.171437986195087" lon="-7.493197973817587">
        <ele>425.04000000000002</ele>
        <time>2025-05-03T09:42:49Z</time>
      </trkpt>
      <trkpt lat="41.171342013403773" lon="-7.493420010432601">
        <ele>424.07999999999998</ele>
        <time>2025-05-03T09:42:50Z</time>
      </trkpt>
      <trkpt lat="41.171291973441839" lon="-7.49365696683526">
        <ele>423.60000000000002</ele>
        <time>2025-05-03T09:42:51Z</time>
      </trkpt>
      <trkpt lat="41.171248974278569" lon="-7.49389199540019">
        <ele>422.63999999999999</ele>
        <time>2025-05-03T09:42:52Z</time>
      </trkpt>
      <trkpt lat="41.171208992600441" lon="-7.494109002873302">
        <ele>421.68000000000001</ele>
        <time>2025-05-03T09:42:53Z</time>
      </trkpt>
      <trkpt lat="41.171230031177402" lon="-7.494310000911355">
        <ele>421.19</ele>
        <time>2025-05-03T09:42:54Z</time>
      </trkpt>
      <trkpt lat="41.17127001285553" lon="-7.494518039748073">
        <ele>421.19</ele>
        <time>2025-05-03T09:42:55Z</time>
      </trkpt>
      <trkpt lat="41.171324998140335" lon="-7.49472800642252">
        <ele>420.23000000000002</ele>
        <time>2025-05-03T09:42:56Z</time>
      </trkpt>
      <trkpt lat="41.171375960111618" lon="-7.49492397531867">
        <ele>419.75</ele>
        <time>2025-05-03T09:42:57Z</time>
      </trkpt>
      <trkpt lat="41.171380989253521" lon="-7.495093960314989">
        <ele>418.79000000000002</ele>
        <time>2025-05-03T09:42:58Z</time>
      </trkpt>
      <trkpt lat="41.171359028667212" lon="-7.495272997766733">
        <ele>417.82999999999998</ele>
        <time>2025-05-03T09:42:59Z</time>
      </trkpt>
      <trkpt lat="41.171334972605109" lon="-7.495467038825154">
        <ele>416.87</ele>
        <time>2025-05-03T09:43:00Z</time>
      </trkpt>
      <trkpt lat="41.171321980655193" lon="-7.495678011327982">
        <ele>415.91000000000003</ele>
        <time>2025-05-03T09:43:01Z</time>
      </trkpt>
      <trkpt lat="41.171312006190419" lon="-7.49590901657939">
        <ele>414.94999999999999</ele>
        <time>2025-05-03T09:43:02Z</time>
      </trkpt>
      <trkpt lat="41.171324998140335" lon="-7.496143961325288">
        <ele>413.98000000000002</ele>
        <time>2025-05-03T09:43:03Z</time>
      </trkpt>
      <trkpt lat="41.171467993408442" lon="-7.497314997017384">
        <ele>409.18000000000001</ele>
        <time>2025-05-03T09:43:08Z</time>
      </trkpt>
      <trkpt lat="41.171494983136654" lon="-7.497540973126888">
        <ele>407.74000000000001</ele>
        <time>2025-05-03T09:43:09Z</time>
      </trkpt>
      <trkpt lat="41.171498000621796" lon="-7.498692981898785">
        <ele>401.49000000000001</ele>
        <time>2025-05-03T09:43:14Z</time>
      </trkpt>
      <trkpt lat="41.171544017270207" lon="-7.498899009078741">
        <ele>400.52999999999997</ele>
        <time>2025-05-03T09:43:15Z</time>
      </trkpt>
      <trkpt lat="41.171605959534645" lon="-7.499034963548183">
        <ele>399.56999999999999</ele>
        <time>2025-05-03T09:43:16Z</time>
      </trkpt>
      <trkpt lat="41.171672008931637" lon="-7.499181982129812">
        <ele>398.60000000000002</ele>
        <time>2025-05-03T09:43:17Z</time>
      </trkpt>
      <trkpt lat="41.171736968681216" lon="-7.499330006539822">
        <ele>398.12</ele>
        <time>2025-05-03T09:43:18Z</time>
      </trkpt>
      <trkpt lat="41.171759013086557" lon="-7.499495968222618">
        <ele>397.16000000000003</ele>
        <time>2025-05-03T09:43:19Z</time>
      </trkpt>
      <trkpt lat="41.171781979501247" lon="-7.499678023159504">
        <ele>396.19999999999999</ele>
        <time>2025-05-03T09:43:20Z</time>
      </trkpt>
      <trkpt lat="41.171831013634801" lon="-7.500060992315412">
        <ele>394.27999999999997</ele>
        <time>2025-05-03T09:43:22Z</time>
      </trkpt>
      <trkpt lat="41.171878036111593" lon="-7.50020801089704">
        <ele>393.31999999999999</ele>
        <time>2025-05-03T09:43:23Z</time>
      </trkpt>
      <trkpt lat="41.171965040266514" lon="-7.500318987295032">
        <ele>392.83999999999997</ele>
        <time>2025-05-03T09:43:24Z</time>
      </trkpt>
      <trkpt lat="41.172051038593054" lon="-7.500429963693023">
        <ele>392.36000000000001</ele>
        <time>2025-05-03T09:43:25Z</time>
      </trkpt>
      <trkpt lat="41.172141982242465" lon="-7.500547980889678">
        <ele>391.87</ele>
        <time>2025-05-03T09:43:26Z</time>
      </trkpt>
      <trkpt lat="41.172213982790709" lon="-7.500706985592842">
        <ele>391.87</ele>
        <time>2025-05-03T09:43:27Z</time>
      </trkpt>
      <trkpt lat="41.172268968075514" lon="-7.500887028872967">
        <ele>391.38999999999999</ele>
        <time>2025-05-03T09:43:28Z</time>
      </trkpt>
      <trkpt lat="41.172320013865829" lon="-7.501077968627214">
        <ele>391.38999999999999</ele>
        <time>2025-05-03T09:43:29Z</time>
      </trkpt>
      <trkpt lat="41.172370975837111" lon="-7.501268992200494">
        <ele>390.43000000000001</ele>
        <time>2025-05-03T09:43:30Z</time>
      </trkpt>
      <trkpt lat="41.172420009970665" lon="-7.501452974975109">
        <ele>389.94999999999999</ele>
        <time>2025-05-03T09:43:31Z</time>
      </trkpt>
      <trkpt lat="41.172466026619077" lon="-7.50162698328495">
        <ele>388.99000000000001</ele>
        <time>2025-05-03T09:43:32Z</time>
      </trkpt>
      <trkpt lat="41.172530986368656" lon="-7.501757992431521">
        <ele>388.50999999999999</ele>
        <time>2025-05-03T09:43:33Z</time>
      </trkpt>
      <trkpt lat="41.172638023272157" lon="-7.50188103877008">
        <ele>388.02999999999997</ele>
        <time>2025-05-03T09:43:34Z</time>
      </trkpt>
      <trkpt lat="41.172756040468812" lon="-7.501942981034517">
        <ele>387.06999999999999</ele>
        <time>2025-05-03T09:43:35Z</time>
      </trkpt>
      <trkpt lat="41.172894006595016" lon="-7.50201397575438">
        <ele>386.11000000000001</ele>
        <time>2025-05-03T09:43:36Z</time>
      </trkpt>
      <trkpt lat="41.173172034323215" lon="-7.502168035134673">
        <ele>384.66000000000003</ele>
        <time>2025-05-03T09:43:38Z</time>
      </trkpt>
      <trkpt lat="41.173418965190649" lon="-7.502343971282244">
        <ele>383.22000000000003</ele>
        <time>2025-05-03T09:43:40Z</time>
      </trkpt>
      <trkpt lat="41.173512004315853" lon="-7.502459976822138">
        <ele>382.74000000000001</ele>
        <time>2025-05-03T09:43:41Z</time>
      </trkpt>
      <trkpt lat="41.17359297350049" lon="-7.502587968483567">
        <ele>382.25999999999999</ele>
        <time>2025-05-03T09:43:42Z</time>
      </trkpt>
      <trkpt lat="41.173662040382624" lon="-7.502727024257183">
        <ele>381.30000000000001</ele>
        <time>2025-05-03T09:43:43Z</time>
      </trkpt>
      <trkpt lat="41.173734040930867" lon="-7.50287102535367">
        <ele>380.81999999999999</ele>
        <time>2025-05-03T09:43:44Z</time>
      </trkpt>
      <trkpt lat="41.173796989023685" lon="-7.503030030056834">
        <ele>380.33999999999997</ele>
        <time>2025-05-03T09:43:45Z</time>
      </trkpt>
      <trkpt lat="41.173948030918837" lon="-7.503453986719251">
        <ele>378.42000000000002</ele>
        <time>2025-05-03T09:43:48Z</time>
      </trkpt>
      <trkpt lat="41.173964040353894" lon="-7.503598993644118">
        <ele>377.44999999999999</ele>
        <time>2025-05-03T09:43:49Z</time>
      </trkpt>
      <trkpt lat="41.173945013433695" lon="-7.50375296920538">
        <ele>376.97000000000003</ele>
        <time>2025-05-03T09:43:50Z</time>
      </trkpt>
      <trkpt lat="41.173904025927186" lon="-7.503940975293517">
        <ele>376.00999999999999</ele>
        <time>2025-05-03T09:43:51Z</time>
      </trkpt>
      <trkpt lat="41.173852980136871" lon="-7.504125963896513">
        <ele>375.52999999999997</ele>
        <time>2025-05-03T09:43:52Z</time>
      </trkpt>
      <trkpt lat="41.173433968797326" lon="-7.505807960405946">
        <ele>368.31999999999999</ele>
        <time>2025-05-03T09:43:59Z</time>
      </trkpt>
      <trkpt lat="41.173216961324215" lon="-7.507133977487683">
        <ele>362.06999999999999</ele>
        <time>2025-05-03T09:44:05Z</time>
      </trkpt>
      <trkpt lat="41.172836003825068" lon="-7.50817702151835">
        <ele>357.26999999999998</ele>
        <time>2025-05-03T09:44:12Z</time>
      </trkpt>
      <trkpt lat="41.172314984723926" lon="-7.509316960349679">
        <ele>352.45999999999998</ele>
        <time>2025-05-03T09:44:20Z</time>
      </trkpt>
      <trkpt lat="41.172251030802727" lon="-7.509474959224463">
        <ele>351.5</ele>
        <time>2025-05-03T09:44:21Z</time>
      </trkpt>
      <trkpt lat="41.172238038852811" lon="-7.509656008332968">
        <ele>350.54000000000002</ele>
        <time>2025-05-03T09:44:22Z</time>
      </trkpt>
      <trkpt lat="41.17223602719605" lon="-7.50985398888588">
        <ele>349.10000000000002</ele>
        <time>2025-05-03T09:44:23Z</time>
      </trkpt>
      <trkpt lat="41.172246001660824" lon="-7.510054986923933">
        <ele>347.64999999999998</ele>
        <time>2025-05-03T09:44:24Z</time>
      </trkpt>
      <trkpt lat="41.172242984175682" lon="-7.510239975526929">
        <ele>346.69</ele>
        <time>2025-05-03T09:44:25Z</time>
      </trkpt>
      <trkpt lat="41.172223035246134" lon="-7.510410966351628">
        <ele>345.73000000000002</ele>
        <time>2025-05-03T09:44:26Z</time>
      </trkpt>
      <trkpt lat="41.172187998890877" lon="-7.510559996590018">
        <ele>344.76999999999998</ele>
        <time>2025-05-03T09:44:27Z</time>
      </trkpt>
      <trkpt lat="41.172109041363001" lon="-7.510679019615054">
        <ele>343.81</ele>
        <time>2025-05-03T09:44:28Z</time>
      </trkpt>
      <trkpt lat="41.1720210313797" lon="-7.510812040418387">
        <ele>342.37</ele>
        <time>2025-05-03T09:44:29Z</time>
      </trkpt>
      <trkpt lat="41.171118970960379" lon="-7.511939993128181">
        <ele>332.75</ele>
        <time>2025-05-03T09:44:37Z</time>
      </trkpt>
      <trkpt lat="41.171009000390768" lon="-7.512023979797959">
        <ele>331.79000000000002</ele>
        <time>2025-05-03T09:44:38Z</time>
      </trkpt>
      <trkpt lat="41.170895006507635" lon="-7.512091035023332">
        <ele>330.82999999999998</ele>
        <time>2025-05-03T09:44:39Z</time>
      </trkpt>
      <trkpt lat="41.170225962996483" lon="-7.512259008362889">
        <ele>326.99000000000001</ele>
        <time>2025-05-03T09:44:44Z</time>
      </trkpt>
      <trkpt lat="41.169434962794185" lon="-7.512312987819314">
        <ele>323.62</ele>
        <time>2025-05-03T09:44:50Z</time>
      </trkpt>
      <trkpt lat="41.169308982789516" lon="-7.512326985597611">
        <ele>323.13999999999999</ele>
        <time>2025-05-03T09:44:51Z</time>
      </trkpt>
      <trkpt lat="41.169201023876667" lon="-7.512394962832332">
        <ele>322.18000000000001</ele>
        <time>2025-05-03T09:44:52Z</time>
      </trkpt>
      <trkpt lat="41.169097004458308" lon="-7.512491019442678">
        <ele>321.22000000000003</ele>
        <time>2025-05-03T09:44:53Z</time>
      </trkpt>
      <trkpt lat="41.168990973383188" lon="-7.512589003890753">
        <ele>320.74000000000001</ele>
        <time>2025-05-03T09:44:54Z</time>
      </trkpt>
      <trkpt lat="41.168935988098383" lon="-7.512745996937156">
        <ele>319.77999999999997</ele>
        <time>2025-05-03T09:44:55Z</time>
      </trkpt>
      <trkpt lat="41.168877985328436" lon="-7.512913970276713">
        <ele>318.81</ele>
        <time>2025-05-03T09:44:56Z</time>
      </trkpt>
      <trkpt lat="41.168757034465671" lon="-7.513241032138467">
        <ele>317.85000000000002</ele>
        <time>2025-05-03T09:44:58Z</time>
      </trkpt>
      <trkpt lat="41.168669024482369" lon="-7.513383021578193">
        <ele>317.37</ele>
        <time>2025-05-03T09:44:59Z</time>
      </trkpt>
      <trkpt lat="41.168581014499068" lon="-7.513525011017919">
        <ele>316.41000000000003</ele>
        <time>2025-05-03T09:45:00Z</time>
      </trkpt>
      <trkpt lat="41.168496022000909" lon="-7.513662977144122">
        <ele>315.93000000000001</ele>
        <time>2025-05-03T09:45:01Z</time>
      </trkpt>
      <trkpt lat="41.168417986482382" lon="-7.513787029311061">
        <ele>315.44999999999999</ele>
        <time>2025-05-03T09:45:02Z</time>
      </trkpt>
      <trkpt lat="41.168397031724453" lon="-7.51391401514411">
        <ele>314.49000000000001</ele>
        <time>2025-05-03T09:45:03Z</time>
      </trkpt>
      <trkpt lat="41.168411029502749" lon="-7.514091040939093">
        <ele>314.00999999999999</ele>
        <time>2025-05-03T09:45:04Z</time>
      </trkpt>
      <trkpt lat="41.168453022837639" lon="-7.514167986810207">
        <ele>313.05000000000001</ele>
        <time>2025-05-03T09:45:05Z</time>
      </trkpt>
      <trkpt lat="41.168517982587218" lon="-7.514288015663624">
        <ele>312.56999999999999</ele>
        <time>2025-05-03T09:45:06Z</time>
      </trkpt>
      <trkpt lat="41.168585959821939" lon="-7.51441097818315">
        <ele>311.60000000000002</ele>
        <time>2025-05-03T09:45:07Z</time>
      </trkpt>
      <trkpt lat="41.168656032532454" lon="-7.514525977894664">
        <ele>310.63999999999999</ele>
        <time>2025-05-03T09:45:08Z</time>
      </trkpt>
      <trkpt lat="41.168697020038962" lon="-7.514649024233222">
        <ele>309.68000000000001</ele>
        <time>2025-05-03T09:45:09Z</time>
      </trkpt>
      <trkpt lat="41.168710011988878" lon="-7.514785984531045">
        <ele>308.72000000000003</ele>
        <time>2025-05-03T09:45:10Z</time>
      </trkpt>
      <trkpt lat="41.168659972026944" lon="-7.514887992292643">
        <ele>307.75999999999999</ele>
        <time>2025-05-03T09:45:11Z</time>
      </trkpt>
      <trkpt lat="41.168598029762506" lon="-7.514993017539382">
        <ele>307.27999999999997</ele>
        <time>2025-05-03T09:45:12Z</time>
      </trkpt>
      <trkpt lat="41.168517982587218" lon="-7.515093013644218">
        <ele>306.80000000000001</ele>
        <time>2025-05-03T09:45:13Z</time>
      </trkpt>
      <trkpt lat="41.168413041159511" lon="-7.5151820294559">
        <ele>306.31999999999999</ele>
        <time>2025-05-03T09:45:14Z</time>
      </trkpt>
      <trkpt lat="41.168022025376558" lon="-7.515604980289936">
        <ele>304.88</ele>
        <time>2025-05-03T09:45:18Z</time>
      </trkpt>
      <trkpt lat="41.167938038706779" lon="-7.515732971951366">
        <ele>303.91000000000003</ele>
        <time>2025-05-03T09:45:19Z</time>
      </trkpt>
      <trkpt lat="41.167870983481407" lon="-7.51589197665453">
        <ele>303.43000000000001</ele>
        <time>2025-05-03T09:45:20Z</time>
      </trkpt>
      <trkpt lat="41.167406039312482" lon="-7.517584031447768">
        <ele>298.63</ele>
        <time>2025-05-03T09:45:29Z</time>
      </trkpt>
      <trkpt lat="41.167418025434017" lon="-7.517756028100848">
        <ele>298.63</ele>
        <time>2025-05-03T09:45:30Z</time>
      </trkpt>
      <trkpt lat="41.167453983798623" lon="-7.517922995612025">
        <ele>298.14999999999998</ele>
        <time>2025-05-03T09:45:31Z</time>
      </trkpt>
      <trkpt lat="41.167515004053712" lon="-7.51808300614357">
        <ele>297.67000000000002</ele>
        <time>2025-05-03T09:45:32Z</time>
      </trkpt>
      <trkpt lat="41.167610976845026" lon="-7.518223989754915">
        <ele>297.18000000000001</ele>
        <time>2025-05-03T09:45:33Z</time>
      </trkpt>
      <trkpt lat="41.167724970728159" lon="-7.51836396753788">
        <ele>296.69999999999999</ele>
        <time>2025-05-03T09:45:34Z</time>
      </trkpt>
      <trkpt lat="41.167848017066717" lon="-7.518502017483115">
        <ele>296.69999999999999</ele>
        <time>2025-05-03T09:45:35Z</time>
      </trkpt>
      <trkpt lat="41.167989000678062" lon="-7.518625985831022">
        <ele>296.22000000000003</ele>
        <time>2025-05-03T09:45:36Z</time>
      </trkpt>
      <trkpt lat="41.168248001486063" lon="-7.518852967768908">
        <ele>295.74000000000001</ele>
        <time>2025-05-03T09:45:38Z</time>
      </trkpt>
      <trkpt lat="41.168312039226294" lon="-7.519019013270736">
        <ele>294.77999999999997</ele>
        <time>2025-05-03T09:45:39Z</time>
      </trkpt>
      <trkpt lat="41.16837196983397" lon="-7.519171983003616">
        <ele>294.77999999999997</ele>
        <time>2025-05-03T09:45:40Z</time>
      </trkpt>
      <trkpt lat="41.168365012854338" lon="-7.519316989928484">
        <ele>294.30000000000001</ele>
        <time>2025-05-03T09:45:41Z</time>
      </trkpt>
      <trkpt lat="41.168325031176209" lon="-7.519477000460029">
        <ele>293.81999999999999</ele>
        <time>2025-05-03T09:45:42Z</time>
      </trkpt>
      <trkpt lat="41.168254036456347" lon="-7.519593005999923">
        <ele>293.81999999999999</ele>
        <time>2025-05-03T09:45:43Z</time>
      </trkpt>
      <trkpt lat="41.168160997331142" lon="-7.519742958247662">
        <ele>293.33999999999997</ele>
        <time>2025-05-03T09:45:44Z</time>
      </trkpt>
      <trkpt lat="41.167809963226318" lon="-7.520356010645628">
        <ele>289.97000000000003</ele>
        <time>2025-05-03T09:45:48Z</time>
      </trkpt>
      <trkpt lat="41.167840976268053" lon="-7.520472016185522">
        <ele>288.52999999999997</ele>
        <time>2025-05-03T09:45:49Z</time>
      </trkpt>
      <trkpt lat="41.16787601262331" lon="-7.520607970654964">
        <ele>287.56999999999999</ele>
        <time>2025-05-03T09:45:50Z</time>
      </trkpt>
      <trkpt lat="41.167963016778231" lon="-7.520945006981492">
        <ele>286.13</ele>
        <time>2025-05-03T09:45:52Z</time>
      </trkpt>
      <trkpt lat="41.168004004284739" lon="-7.521107029169798">
        <ele>285.17000000000002</ele>
        <time>2025-05-03T09:45:53Z</time>
      </trkpt>
      <trkpt lat="41.167989000678062" lon="-7.521313978359103">
        <ele>284.69</ele>
        <time>2025-05-03T09:45:54Z</time>
      </trkpt>
      <trkpt lat="41.167958993464708" lon="-7.521436018869281">
        <ele>283.73000000000002</ele>
        <time>2025-05-03T09:45:55Z</time>
      </trkpt>
      <trkpt lat="41.167885987088084" lon="-7.521527968347073">
        <ele>283.25</ele>
        <time>2025-05-03T09:45:56Z</time>
      </trkpt>
      <trkpt lat="41.167798982933164" lon="-7.521631987765431">
        <ele>283.25</ele>
        <time>2025-05-03T09:45:57Z</time>
      </trkpt>
      <trkpt lat="41.167692029848695" lon="-7.521729972213507">
        <ele>282.76999999999998</ele>
        <time>2025-05-03T09:45:58Z</time>
      </trkpt>
      <trkpt lat="41.166937993839383" lon="-7.522451989352703">
        <ele>277</ele>
        <time>2025-05-03T09:46:04Z</time>
      </trkpt>
      <trkpt lat="41.166808996349573" lon="-7.522493982687593">
        <ele>276.04000000000002</ele>
        <time>2025-05-03T09:46:05Z</time>
      </trkpt>
      <trkpt lat="41.166706988587976" lon="-7.52246699295938">
        <ele>275.06999999999999</ele>
        <time>2025-05-03T09:46:06Z</time>
      </trkpt>
      <trkpt lat="41.166610009968281" lon="-7.522419970482588">
        <ele>274.58999999999997</ele>
        <time>2025-05-03T09:46:07Z</time>
      </trkpt>
      <trkpt lat="41.166512025520205" lon="-7.522372025996447">
        <ele>274.11000000000001</ele>
        <time>2025-05-03T09:46:08Z</time>
      </trkpt>
      <trkpt lat="41.16628403775394" lon="-7.522261971607804">
        <ele>272.67000000000002</ele>
        <time>2025-05-03T09:46:10Z</time>
      </trkpt>
      <trkpt lat="41.166161997243762" lon="-7.522202963009477">
        <ele>271.70999999999998</ele>
        <time>2025-05-03T09:46:11Z</time>
      </trkpt>
      <trkpt lat="41.166041968390346" lon="-7.522201035171747">
        <ele>271.23000000000002</ele>
        <time>2025-05-03T09:46:12Z</time>
      </trkpt>
      <trkpt lat="41.165913976728916" lon="-7.522235987707973">
        <ele>270.75</ele>
        <time>2025-05-03T09:46:13Z</time>
      </trkpt>
      <trkpt lat="41.165769975632429" lon="-7.522275969386101">
        <ele>269.79000000000002</ele>
        <time>2025-05-03T09:46:14Z</time>
      </trkpt>
      <trkpt lat="41.165306959301233" lon="-7.522373031824827">
        <ele>267.86000000000001</ele>
        <time>2025-05-03T09:46:17Z</time>
      </trkpt>
      <trkpt lat="41.165163964033127" lon="-7.522373031824827">
        <ele>266.89999999999998</ele>
        <time>2025-05-03T09:46:18Z</time>
      </trkpt>
      <trkpt lat="41.165027003735304" lon="-7.522371020168066">
        <ele>265.94</ele>
        <time>2025-05-03T09:46:19Z</time>
      </trkpt>
      <trkpt lat="41.164897000417113" lon="-7.522362973541021">
        <ele>264.98000000000002</ele>
        <time>2025-05-03T09:46:20Z</time>
      </trkpt>
      <trkpt lat="41.164777977392077" lon="-7.522356016561389">
        <ele>264.5</ele>
        <time>2025-05-03T09:46:21Z</time>
      </trkpt>
      <trkpt lat="41.164687033742666" lon="-7.522395998239517">
        <ele>264.01999999999998</ele>
        <time>2025-05-03T09:46:22Z</time>
      </trkpt>
      <trkpt lat="41.164614027366042" lon="-7.522489037364721">
        <ele>263.54000000000002</ele>
        <time>2025-05-03T09:46:23Z</time>
      </trkpt>
      <trkpt lat="41.164565999060869" lon="-7.52259498462081">
        <ele>263.06</ele>
        <time>2025-05-03T09:46:24Z</time>
      </trkpt>
      <trkpt lat="41.164554012939334" lon="-7.522722976282239">
        <ele>262.10000000000002</ele>
        <time>2025-05-03T09:46:25Z</time>
      </trkpt>
      <trkpt lat="41.164586031809449" lon="-7.522855997085571">
        <ele>261.62</ele>
        <time>2025-05-03T09:46:26Z</time>
      </trkpt>
      <trkpt lat="41.164650991559029" lon="-7.522984994575381">
        <ele>260.64999999999998</ele>
        <time>2025-05-03T09:46:27Z</time>
      </trkpt>
      <trkpt lat="41.164720980450511" lon="-7.523123966529965">
        <ele>259.69</ele>
        <time>2025-05-03T09:46:28Z</time>
      </trkpt>
      <trkpt lat="41.164946034550667" lon="-7.523636016994715">
        <ele>257.29000000000002</ele>
        <time>2025-05-03T09:46:31Z</time>
      </trkpt>
      <trkpt lat="41.164957014843822" lon="-7.523798039183021">
        <ele>256.81</ele>
        <time>2025-05-03T09:46:32Z</time>
      </trkpt>
      <trkpt lat="41.164944022893906" lon="-7.523955032229424">
        <ele>255.84999999999999</ele>
        <time>2025-05-03T09:46:33Z</time>
      </trkpt>
      <trkpt lat="41.16489197127521" lon="-7.524112025275827">
        <ele>255.37</ele>
        <time>2025-05-03T09:46:34Z</time>
      </trkpt>
      <trkpt lat="41.164830029010773" lon="-7.524281004443765">
        <ele>254.88999999999999</ele>
        <time>2025-05-03T09:46:35Z</time>
      </trkpt>
      <trkpt lat="41.16469600237906" lon="-7.524603959172964">
        <ele>253.44</ele>
        <time>2025-05-03T09:46:37Z</time>
      </trkpt>
      <trkpt lat="41.164684016257524" lon="-7.524763969704509">
        <ele>252.47999999999999</ele>
        <time>2025-05-03T09:46:38Z</time>
      </trkpt>
      <trkpt lat="41.164683010429144" lon="-7.524926997721195">
        <ele>251.52000000000001</ele>
        <time>2025-05-03T09:46:39Z</time>
      </trkpt>
      <trkpt lat="41.164693990722299" lon="-7.525103017687798">
        <ele>251.03999999999999</ele>
        <time>2025-05-03T09:46:40Z</time>
      </trkpt>
      <trkpt lat="41.164744030684233" lon="-7.525257999077439">
        <ele>250.08000000000001</ele>
        <time>2025-05-03T09:46:41Z</time>
      </trkpt>
      <trkpt lat="41.164829023182392" lon="-7.525396971032023">
        <ele>249.12</ele>
        <time>2025-05-03T09:46:42Z</time>
      </trkpt>
      <trkpt lat="41.164921978488564" lon="-7.525548012927175">
        <ele>248.16</ele>
        <time>2025-05-03T09:46:43Z</time>
      </trkpt>
      <trkpt lat="41.165021974593401" lon="-7.525704000145197">
        <ele>247.19999999999999</ele>
        <time>2025-05-03T09:46:44Z</time>
      </trkpt>
      <trkpt lat="41.165214003995061" lon="-7.525998037308455">
        <ele>245.75</ele>
        <time>2025-05-03T09:46:46Z</time>
      </trkpt>
      <trkpt lat="41.165266977623105" lon="-7.526145977899432">
        <ele>244.78999999999999</ele>
        <time>2025-05-03T09:46:47Z</time>
      </trkpt>
      <trkpt lat="41.165286004543304" lon="-7.526294002309442">
        <ele>243.83000000000001</ele>
        <time>2025-05-03T09:46:48Z</time>
      </trkpt>
      <trkpt lat="41.165277035906911" lon="-7.526450995355845">
        <ele>242.87</ele>
        <time>2025-05-03T09:46:49Z</time>
      </trkpt>
      <trkpt lat="41.165194977074862" lon="-7.526610000059009">
        <ele>242.38999999999999</ele>
        <time>2025-05-03T09:46:50Z</time>
      </trkpt>
      <trkpt lat="41.165100010111928" lon="-7.526793982833624">
        <ele>241.43000000000001</ele>
        <time>2025-05-03T09:46:51Z</time>
      </trkpt>
      <trkpt lat="41.16450497880578" lon="-7.528315968811512">
        <ele>236.13999999999999</ele>
        <time>2025-05-03T09:46:59Z</time>
      </trkpt>
      <trkpt lat="41.164467008784413" lon="-7.52848100848496">
        <ele>235.18000000000001</ele>
        <time>2025-05-03T09:47:00Z</time>
      </trkpt>
      <trkpt lat="41.164429960772395" lon="-7.528645964339376">
        <ele>234.22</ele>
        <time>2025-05-03T09:47:01Z</time>
      </trkpt>
      <trkpt lat="41.164392996579409" lon="-7.52880496904254">
        <ele>233.74000000000001</ele>
        <time>2025-05-03T09:47:02Z</time>
      </trkpt>
      <trkpt lat="41.164399031549692" lon="-7.528972020372748">
        <ele>232.78</ele>
        <time>2025-05-03T09:47:03Z</time>
      </trkpt>
      <trkpt lat="41.16443901322782" lon="-7.529119038954377">
        <ele>232.30000000000001</ele>
        <time>2025-05-03T09:47:04Z</time>
      </trkpt>
      <trkpt lat="41.1645039729774" lon="-7.529258010908961">
        <ele>231.33000000000001</ele>
        <time>2025-05-03T09:47:05Z</time>
      </trkpt>
      <trkpt lat="41.164603969082236" lon="-7.529350966215134">
        <ele>230.84999999999999</ele>
        <time>2025-05-03T09:47:06Z</time>
      </trkpt>
      <trkpt lat="41.16471603512764" lon="-7.529453979805112">
        <ele>229.88999999999999</ele>
        <time>2025-05-03T09:47:07Z</time>
      </trkpt>
      <trkpt lat="41.164836985990405" lon="-7.529570991173387">
        <ele>229.41</ele>
        <time>2025-05-03T09:47:08Z</time>
      </trkpt>
      <trkpt lat="41.165182990953326" lon="-7.5299640186131">
        <ele>227.49000000000001</ele>
        <time>2025-05-03T09:47:11Z</time>
      </trkpt>
      <trkpt lat="41.165272006765008" lon="-7.530108019709587">
        <ele>226.53</ele>
        <time>2025-05-03T09:47:12Z</time>
      </trkpt>
      <trkpt lat="41.165672997012734" lon="-7.530730962753296">
        <ele>224.12</ele>
        <time>2025-05-03T09:47:16Z</time>
      </trkpt>
      <trkpt lat="41.166189992800355" lon="-7.53127402625978">
        <ele>221.72</ele>
        <time>2025-05-03T09:47:20Z</time>
      </trkpt>
      <trkpt lat="41.166284959763288" lon="-7.531436970457435">
        <ele>221.24000000000001</ele>
        <time>2025-05-03T09:47:21Z</time>
      </trkpt>
      <trkpt lat="41.166385961696506" lon="-7.531609972938895">
        <ele>220.28</ele>
        <time>2025-05-03T09:47:22Z</time>
      </trkpt>
      <trkpt lat="41.166878985241055" lon="-7.532530976459384">
        <ele>215.94999999999999</ele>
        <time>2025-05-03T09:47:28Z</time>
      </trkpt>
      <trkpt lat="41.166917039081454" lon="-7.532682018354535">
        <ele>214.99000000000001</ele>
        <time>2025-05-03T09:47:29Z</time>
      </trkpt>
      <trkpt lat="41.166919972747564" lon="-7.532834988087416">
        <ele>214.50999999999999</ele>
        <time>2025-05-03T09:47:30Z</time>
      </trkpt>
      <trkpt lat="41.166901029646397" lon="-7.533001033589244">
        <ele>213.55000000000001</ele>
        <time>2025-05-03T09:47:31Z</time>
      </trkpt>
      <trkpt lat="41.166880996897817" lon="-7.533175963908434">
        <ele>213.06999999999999</ele>
        <time>2025-05-03T09:47:32Z</time>
      </trkpt>
      <trkpt lat="41.166802039369941" lon="-7.534705996513367">
        <ele>207.78</ele>
        <time>2025-05-03T09:47:40Z</time>
      </trkpt>
      <trkpt lat="41.166802039369941" lon="-7.53484002314508">
        <ele>207.30000000000001</ele>
        <time>2025-05-03T09:47:41Z</time>
      </trkpt>
      <trkpt lat="41.166871022433043" lon="-7.534964997321367">
        <ele>206.81999999999999</ele>
        <time>2025-05-03T09:47:42Z</time>
      </trkpt>
      <trkpt lat="41.166938999667764" lon="-7.53503599204123">
        <ele>205.86000000000001</ele>
        <time>2025-05-03T09:47:43Z</time>
      </trkpt>
      <trkpt lat="41.16703798994422" lon="-7.535045966506004">
        <ele>204.90000000000001</ele>
        <time>2025-05-03T09:47:44Z</time>
      </trkpt>
      <trkpt lat="41.167139997705817" lon="-7.535049989819527">
        <ele>203.94</ele>
        <time>2025-05-03T09:47:45Z</time>
      </trkpt>
      <trkpt lat="41.16725298576057" lon="-7.535014031454921">
        <ele>203.46000000000001</ele>
        <time>2025-05-03T09:47:46Z</time>
      </trkpt>
      <trkpt lat="41.16761801764369" lon="-7.534875981509686">
        <ele>200.56999999999999</ele>
        <time>2025-05-03T09:47:49Z</time>
      </trkpt>
      <trkpt lat="41.167713990435004" lon="-7.5348199903965">
        <ele>200.09</ele>
        <time>2025-05-03T09:47:50Z</time>
      </trkpt>
      <trkpt lat="41.167794959619641" lon="-7.534747989848256">
        <ele>199.13</ele>
        <time>2025-05-03T09:47:51Z</time>
      </trkpt>
      <trkpt lat="41.167823038995266" lon="-7.53462603315711">
        <ele>198.16999999999999</ele>
        <time>2025-05-03T09:47:52Z</time>
      </trkpt>
      <trkpt lat="41.16785497404635" lon="-7.534483959898353">
        <ele>197.21000000000001</ele>
        <time>2025-05-03T09:47:53Z</time>
      </trkpt>
      <trkpt lat="41.167890010401607" lon="-7.534330990165472">
        <ele>196.72999999999999</ele>
        <time>2025-05-03T09:47:54Z</time>
      </trkpt>
      <trkpt lat="41.168082961812615" lon="-7.533464971929789">
        <ele>192.88</ele>
        <time>2025-05-03T09:48:00Z</time>
      </trkpt>
      <trkpt lat="41.168141970410943" lon="-7.533342009410262">
        <ele>192.40000000000001</ele>
        <time>2025-05-03T09:48:01Z</time>
      </trkpt>
      <trkpt lat="41.168234003707767" lon="-7.533289035782218">
        <ele>191.91999999999999</ele>
        <time>2025-05-03T09:48:02Z</time>
      </trkpt>
      <trkpt lat="41.168331988155842" lon="-7.533261962234974">
        <ele>191.44</ele>
        <time>2025-05-03T09:48:03Z</time>
      </trkpt>
      <trkpt lat="41.168428966775537" lon="-7.533286018297076">
        <ele>190.96000000000001</ele>
        <time>2025-05-03T09:48:04Z</time>
      </trkpt>
      <trkpt lat="41.168509013950825" lon="-7.533357013016939">
        <ele>190.47999999999999</ele>
        <time>2025-05-03T09:48:05Z</time>
      </trkpt>
      <trkpt lat="41.168576991185546" lon="-7.53344502300024">
        <ele>189.52000000000001</ele>
        <time>2025-05-03T09:48:06Z</time>
      </trkpt>
      <trkpt lat="41.168623007833958" lon="-7.533571003004909">
        <ele>189.03999999999999</ele>
        <time>2025-05-03T09:48:07Z</time>
      </trkpt>
      <trkpt lat="41.168673969805241" lon="-7.533710980787873">
        <ele>189.03999999999999</ele>
        <time>2025-05-03T09:48:08Z</time>
      </trkpt>
      <trkpt lat="41.168768014758825" lon="-7.534027984365821">
        <ele>188.08000000000001</ele>
        <time>2025-05-03T09:48:10Z</time>
      </trkpt>
      <trkpt lat="41.168806990608573" lon="-7.534199981018901">
        <ele>187.59</ele>
        <time>2025-05-03T09:48:11Z</time>
      </trkpt>
      <trkpt lat="41.168841021135449" lon="-7.534383041784167">
        <ele>187.11000000000001</ele>
        <time>2025-05-03T09:48:12Z</time>
      </trkpt>
      <trkpt lat="41.168845966458321" lon="-7.534565012902021">
        <ele>186.63</ele>
        <time>2025-05-03T09:48:13Z</time>
      </trkpt>
      <trkpt lat="41.168850995600224" lon="-7.534739021211863">
        <ele>186.15000000000001</ele>
        <time>2025-05-03T09:48:14Z</time>
      </trkpt>
      <trkpt lat="41.168898018077016" lon="-7.53537897951901">
        <ele>184.22999999999999</ele>
        <time>2025-05-03T09:48:18Z</time>
      </trkpt>
      <trkpt lat="41.168936993926764" lon="-7.535525998100638">
        <ele>183.27000000000001</ele>
        <time>2025-05-03T09:48:19Z</time>
      </trkpt>
      <trkpt lat="41.169029027223587" lon="-7.535827998071909">
        <ele>182.31</ele>
        <time>2025-05-03T09:48:21Z</time>
      </trkpt>
      <trkpt lat="41.169060040265322" lon="-7.53597903996706">
        <ele>181.83000000000001</ele>
        <time>2025-05-03T09:48:22Z</time>
      </trkpt>
      <trkpt lat="41.169072026386857" lon="-7.536133015528321">
        <ele>181.34999999999999</ele>
        <time>2025-05-03T09:48:23Z</time>
      </trkpt>
      <trkpt lat="41.169094992801547" lon="-7.536435015499592">
        <ele>180.38</ele>
        <time>2025-05-03T09:48:25Z</time>
      </trkpt>
      <trkpt lat="41.169134974479675" lon="-7.536570969969034">
        <ele>180.38</ele>
        <time>2025-05-03T09:48:26Z</time>
      </trkpt>
      <trkpt lat="41.169371008872986" lon="-7.537116967141628">
        <ele>179.41999999999999</ele>
        <time>2025-05-03T09:48:30Z</time>
      </trkpt>
      <trkpt lat="41.169454995542765" lon="-7.53720598295331">
        <ele>178.94</ele>
        <time>2025-05-03T09:48:31Z</time>
      </trkpt>
      <trkpt lat="41.169555997475982" lon="-7.53724898211658">
        <ele>178.46000000000001</ele>
        <time>2025-05-03T09:48:32Z</time>
      </trkpt>
      <trkpt lat="41.16991801187396" lon="-7.537379991263151">
        <ele>177.97999999999999</ele>
        <time>2025-05-03T09:48:36Z</time>
      </trkpt>
      <trkpt lat="41.170006021857262" lon="-7.537389965727925">
        <ele>177.5</ele>
        <time>2025-05-03T09:48:37Z</time>
      </trkpt>
      <trkpt lat="41.170103000476956" lon="-7.537400024011731">
        <ele>177.02000000000001</ele>
        <time>2025-05-03T09:48:38Z</time>
      </trkpt>
      <trkpt lat="41.170205008238554" lon="-7.537412010133266">
        <ele>176.53999999999999</ele>
        <time>2025-05-03T09:48:39Z</time>
      </trkpt>
      <trkpt lat="41.170291006565094" lon="-7.537489961832762">
        <ele>176.06</ele>
        <time>2025-05-03T09:48:40Z</time>
      </trkpt>
      <trkpt lat="41.170365018770099" lon="-7.537588030099869">
        <ele>175.58000000000001</ele>
        <time>2025-05-03T09:48:41Z</time>
      </trkpt>
      <trkpt lat="41.170427966862917" lon="-7.53767604008317">
        <ele>175.09999999999999</ele>
        <time>2025-05-03T09:48:42Z</time>
      </trkpt>
      <trkpt lat="41.170427966862917" lon="-7.537800008431077">
        <ele>174.62</ele>
        <time>2025-05-03T09:48:43Z</time>
      </trkpt>
      <trkpt lat="41.170416986569762" lon="-7.537917019799352">
        <ele>174.13999999999999</ele>
        <time>2025-05-03T09:48:44Z</time>
      </trkpt>
      <trkpt lat="41.170371975749731" lon="-7.538035036996007">
        <ele>173.66</ele>
        <time>2025-05-03T09:48:45Z</time>
      </trkpt>
      <trkpt lat="41.170329982414842" lon="-7.538141990080476">
        <ele>173.66</ele>
        <time>2025-05-03T09:48:46Z</time>
      </trkpt>
      <trkpt lat="41.170309027656913" lon="-7.538248021155596">
        <ele>173.66</ele>
        <time>2025-05-03T09:48:47Z</time>
      </trkpt>
      <trkpt lat="41.170311961323023" lon="-7.538357991725206">
        <ele>173.16999999999999</ele>
        <time>2025-05-03T09:48:48Z</time>
      </trkpt>
      <trkpt lat="41.17034699767828" lon="-7.538468968123198">
        <ele>173.16999999999999</ele>
        <time>2025-05-03T09:48:49Z</time>
      </trkpt>
      <trkpt lat="41.170382034033537" lon="-7.538583967834711">
        <ele>172.69</ele>
        <time>2025-05-03T09:48:50Z</time>
      </trkpt>
      <trkpt lat="41.170487981289625" lon="-7.538922009989619">
        <ele>172.69</ele>
        <time>2025-05-03T09:48:53Z</time>
      </trkpt>
      <trkpt lat="41.170486975461245" lon="-7.53901001997292">
        <ele>172.69</ele>
        <time>2025-05-03T09:48:54Z</time>
      </trkpt>
      <trkpt lat="41.170479012653232" lon="-7.539113033562899">
        <ele>172.21000000000001</ele>
        <time>2025-05-03T09:48:55Z</time>
      </trkpt>
      <trkpt lat="41.170422015711665" lon="-7.539315959438682">
        <ele>171.72999999999999</ele>
        <time>2025-05-03T09:48:57Z</time>
      </trkpt>
      <trkpt lat="41.170341968536377" lon="-7.539517963305116">
        <ele>171.25</ele>
        <time>2025-05-03T09:48:59Z</time>
      </trkpt>
      <trkpt lat="41.170319002121687" lon="-7.539651989936829">
        <ele>170.77000000000001</ele>
        <time>2025-05-03T09:49:00Z</time>
      </trkpt>
      <trkpt lat="41.170295029878616" lon="-7.539785010740161">
        <ele>170.28999999999999</ele>
        <time>2025-05-03T09:49:01Z</time>
      </trkpt>
      <trkpt lat="41.170320007950068" lon="-7.540975995361805">
        <ele>165.96000000000001</ele>
        <time>2025-05-03T09:49:09Z</time>
      </trkpt>
      <trkpt lat="41.170396031811833" lon="-7.541099963709712">
        <ele>165</ele>
        <time>2025-05-03T09:49:10Z</time>
      </trkpt>
      <trkpt lat="41.17047599516809" lon="-7.541211023926735">
        <ele>164.52000000000001</ele>
        <time>2025-05-03T09:49:11Z</time>
      </trkpt>
      <trkpt lat="41.170558976009488" lon="-7.541323006153107">
        <ele>163.56</ele>
        <time>2025-05-03T09:49:12Z</time>
      </trkpt>
      <trkpt lat="41.170643968507648" lon="-7.541439011693001">
        <ele>163.08000000000001</ele>
        <time>2025-05-03T09:49:13Z</time>
      </trkpt>
      <trkpt lat="41.170801967382431" lon="-7.541671022772789">
        <ele>162.12</ele>
        <time>2025-05-03T09:49:15Z</time>
      </trkpt>
      <trkpt lat="41.170844966545701" lon="-7.541814018040896">
        <ele>161.63999999999999</ele>
        <time>2025-05-03T09:49:16Z</time>
      </trkpt>
      <trkpt lat="41.170849995687604" lon="-7.541948966681957">
        <ele>161.16</ele>
        <time>2025-05-03T09:49:17Z</time>
      </trkpt>
      <trkpt lat="41.170816970989108" lon="-7.542387004941702">
        <ele>159.24000000000001</ele>
        <time>2025-05-03T09:49:20Z</time>
      </trkpt>
      <trkpt lat="41.170782018452883" lon="-7.542504016309977">
        <ele>158.75</ele>
        <time>2025-05-03T09:49:21Z</time>
      </trkpt>
      <trkpt lat="41.170739019289613" lon="-7.542623961344361">
        <ele>158.75</ele>
        <time>2025-05-03T09:49:22Z</time>
      </trkpt>
      <trkpt lat="41.170681016519666" lon="-7.542717000469565">
        <ele>158.27000000000001</ele>
        <time>2025-05-03T09:49:23Z</time>
      </trkpt>
      <trkpt lat="41.170621002092957" lon="-7.542800987139344">
        <ele>157.31</ele>
        <time>2025-05-03T09:49:24Z</time>
      </trkpt>
      <trkpt lat="41.170524023473263" lon="-7.542873993515968">
        <ele>156.83000000000001</ele>
        <time>2025-05-03T09:49:25Z</time>
      </trkpt>
      <trkpt lat="41.170428972691298" lon="-7.542944988235831">
        <ele>156.34999999999999</ele>
        <time>2025-05-03T09:49:26Z</time>
      </trkpt>
      <trkpt lat="41.169976014643908" lon="-7.543339021503925">
        <ele>152.03</ele>
        <time>2025-05-03T09:49:31Z</time>
      </trkpt>
      <trkpt lat="41.169923041015863" lon="-7.543448992073536">
        <ele>151.06</ele>
        <time>2025-05-03T09:49:32Z</time>
      </trkpt>
      <trkpt lat="41.16987501271069" lon="-7.543581007048488">
        <ele>150.09999999999999</ele>
        <time>2025-05-03T09:49:33Z</time>
      </trkpt>
      <trkpt lat="41.169773004949093" lon="-7.54386599175632">
        <ele>148.66</ele>
        <time>2025-05-03T09:49:35Z</time>
      </trkpt>
      <trkpt lat="41.169725982472301" lon="-7.544013010337949">
        <ele>148.18000000000001</ele>
        <time>2025-05-03T09:49:36Z</time>
      </trkpt>
      <trkpt lat="41.169630009680986" lon="-7.544315010309219">
        <ele>146.74000000000001</ele>
        <time>2025-05-03T09:49:38Z</time>
      </trkpt>
      <trkpt lat="41.169550968334079" lon="-7.544456999748945">
        <ele>146.25999999999999</ele>
        <time>2025-05-03T09:49:39Z</time>
      </trkpt>
      <trkpt lat="41.16880196146667" lon="-7.545517981052399">
        <ele>141.93000000000001</ele>
        <time>2025-05-03T09:49:47Z</time>
      </trkpt>
      <trkpt lat="41.168626025319099" lon="-7.545741023495793">
        <ele>140.97</ele>
        <time>2025-05-03T09:49:49Z</time>
      </trkpt>
      <trkpt lat="41.168510019779205" lon="-7.545795002952218">
        <ele>140.00999999999999</ele>
        <time>2025-05-03T09:49:50Z</time>
      </trkpt>
      <trkpt lat="41.168390996754169" lon="-7.545849988237023">
        <ele>139.53</ele>
        <time>2025-05-03T09:49:51Z</time>
      </trkpt>
      <trkpt lat="41.168266022577882" lon="-7.545896004885435">
        <ele>139.53</ele>
        <time>2025-05-03T09:49:52Z</time>
      </trkpt>
      <trkpt lat="41.168137025088072" lon="-7.545915031805635">
        <ele>139.05000000000001</ele>
        <time>2025-05-03T09:49:53Z</time>
      </trkpt>
      <trkpt lat="41.167908031493425" lon="-7.545988960191608">
        <ele>137.61000000000001</ele>
        <time>2025-05-03T09:49:55Z</time>
      </trkpt>
      <trkpt lat="41.167839970439672" lon="-7.54605702124536">
        <ele>136.63999999999999</ele>
        <time>2025-05-03T09:49:56Z</time>
      </trkpt>
      <trkpt lat="41.167798982933164" lon="-7.546170009300113">
        <ele>135.68000000000001</ele>
        <time>2025-05-03T09:49:57Z</time>
      </trkpt>
      <trkpt lat="41.167767969891429" lon="-7.546275034546852">
        <ele>134.72</ele>
        <time>2025-05-03T09:49:58Z</time>
      </trkpt>
      <trkpt lat="41.167767969891429" lon="-7.546402020379901">
        <ele>134.24000000000001</ele>
        <time>2025-05-03T09:49:59Z</time>
      </trkpt>
      <trkpt lat="41.167805017903447" lon="-7.546514002606273">
        <ele>133.28</ele>
        <time>2025-05-03T09:50:00Z</time>
      </trkpt>
      <trkpt lat="41.167871989309788" lon="-7.546612992882729">
        <ele>132.31999999999999</ele>
        <time>2025-05-03T09:50:01Z</time>
      </trkpt>
      <trkpt lat="41.167971985414624" lon="-7.546688010916114">
        <ele>131.36000000000001</ele>
        <time>2025-05-03T09:50:02Z</time>
      </trkpt>
      <trkpt lat="41.168082039803267" lon="-7.546769985929132">
        <ele>130.88</ele>
        <time>2025-05-03T09:50:03Z</time>
      </trkpt>
      <trkpt lat="41.168211959302425" lon="-7.546817008405924">
        <ele>129.91999999999999</ele>
        <time>2025-05-03T09:50:04Z</time>
      </trkpt>
      <trkpt lat="41.168354032561183" lon="-7.54685296677053">
        <ele>129.43000000000001</ele>
        <time>2025-05-03T09:50:05Z</time>
      </trkpt>
      <trkpt lat="41.168503984808922" lon="-7.546891020610929">
        <ele>128.47</ele>
        <time>2025-05-03T09:50:06Z</time>
      </trkpt>
      <trkpt lat="41.169946007430553" lon="-7.546911975368857">
        <ele>122.22</ele>
        <time>2025-05-03T09:50:15Z</time>
      </trkpt>
      <trkpt lat="41.170082967728376" lon="-7.546876017004252">
        <ele>121.73999999999999</ele>
        <time>2025-05-03T09:50:16Z</time>
      </trkpt>
      <trkpt lat="41.170212971046567" lon="-7.546842992305756">
        <ele>121.26000000000001</ele>
        <time>2025-05-03T09:50:17Z</time>
      </trkpt>
      <trkpt lat="41.170340040698647" lon="-7.54680996760726">
        <ele>120.78</ele>
        <time>2025-05-03T09:50:18Z</time>
      </trkpt>
      <trkpt lat="41.170464009046555" lon="-7.546778032556176">
        <ele>120.3</ele>
        <time>2025-05-03T09:50:19Z</time>
      </trkpt>
      <trkpt lat="41.170575991272926" lon="-7.546811979264021">
        <ele>119.81999999999999</ele>
        <time>2025-05-03T09:50:20Z</time>
      </trkpt>
      <trkpt lat="41.170682022348046" lon="-7.546892026439309">
        <ele>118.86</ele>
        <time>2025-05-03T09:50:21Z</time>
      </trkpt>
      <trkpt lat="41.170786041766405" lon="-7.546989005059004">
        <ele>118.38</ele>
        <time>2025-05-03T09:50:22Z</time>
      </trkpt>
      <trkpt lat="41.170888971537352" lon="-7.547085983678699">
        <ele>117.90000000000001</ele>
        <time>2025-05-03T09:50:23Z</time>
      </trkpt>
      <trkpt lat="41.170983016490936" lon="-7.547157984226942">
        <ele>116.94</ele>
        <time>2025-05-03T09:50:24Z</time>
      </trkpt>
      <trkpt lat="41.171097010374069" lon="-7.547164019197226">
        <ele>116.45999999999999</ele>
        <time>2025-05-03T09:50:25Z</time>
      </trkpt>
      <trkpt lat="41.171218967065215" lon="-7.547170976176858">
        <ele>115.5</ele>
        <time>2025-05-03T09:50:26Z</time>
      </trkpt>
      <trkpt lat="41.171350982040167" lon="-7.547178016975522">
        <ele>115.01000000000001</ele>
        <time>2025-05-03T09:50:27Z</time>
      </trkpt>
      <trkpt lat="41.171621968969703" lon="-7.547196038067341">
        <ele>113.56999999999999</ele>
        <time>2025-05-03T09:50:29Z</time>
      </trkpt>
      <trkpt lat="41.171753983944654" lon="-7.547252029180527">
        <ele>113.09</ele>
        <time>2025-05-03T09:50:30Z</time>
      </trkpt>
      <trkpt lat="41.172252036631107" lon="-7.547591999173164">
        <ele>109.73</ele>
        <time>2025-05-03T09:50:34Z</time>
      </trkpt>
      <trkpt lat="41.172342980280519" lon="-7.547709010541439">
        <ele>108.77</ele>
        <time>2025-05-03T09:50:35Z</time>
      </trkpt>
      <trkpt lat="41.172401988878846" lon="-7.547850999981165">
        <ele>107.81</ele>
        <time>2025-05-03T09:50:36Z</time>
      </trkpt>
      <trkpt lat="41.172438031062484" lon="-7.548013022169471">
        <ele>107.31999999999999</ele>
        <time>2025-05-03T09:50:37Z</time>
      </trkpt>
      <trkpt lat="41.172470971941948" lon="-7.548176972195506">
        <ele>106.36</ele>
        <time>2025-05-03T09:50:38Z</time>
      </trkpt>
      <trkpt lat="41.17249402217567" lon="-7.548347041010857">
        <ele>105.88</ele>
        <time>2025-05-03T09:50:39Z</time>
      </trkpt>
      <trkpt lat="41.17251799441874" lon="-7.548519959673286">
        <ele>104.92</ele>
        <time>2025-05-03T09:50:40Z</time>
      </trkpt>
      <trkpt lat="41.172526041045785" lon="-7.548701008781791">
        <ele>104.44</ele>
        <time>2025-05-03T09:50:41Z</time>
      </trkpt>
      <trkpt lat="41.172514976933599" lon="-7.548879040405154">
        <ele>103.48</ele>
        <time>2025-05-03T09:50:42Z</time>
      </trkpt>
      <trkpt lat="41.172503996640444" lon="-7.549057994037867">
        <ele>103</ele>
        <time>2025-05-03T09:50:43Z</time>
      </trkpt>
      <trkpt lat="41.172506008297205" lon="-7.549384972080588">
        <ele>101.08</ele>
        <time>2025-05-03T09:50:45Z</time>
      </trkpt>
      <trkpt lat="41.172549007460475" lon="-7.549503995105624">
        <ele>100.11</ele>
        <time>2025-05-03T09:50:46Z</time>
      </trkpt>
      <trkpt lat="41.172596029937267" lon="-7.549582030624151">
        <ele>99.629999999999995</ele>
        <time>2025-05-03T09:50:47Z</time>
      </trkpt>
      <trkpt lat="41.172686973586679" lon="-7.549592005088925">
        <ele>98.670000000000002</ele>
        <time>2025-05-03T09:50:48Z</time>
      </trkpt>
      <trkpt lat="41.172788981348276" lon="-7.54960298538208">
        <ele>97.709999999999994</ele>
        <time>2025-05-03T09:50:49Z</time>
      </trkpt>
      <trkpt lat="41.172900041565299" lon="-7.549554035067558">
        <ele>96.75</ele>
        <time>2025-05-03T09:50:50Z</time>
      </trkpt>
      <trkpt lat="41.173015963286161" lon="-7.549506006762385">
        <ele>95.790000000000006</ele>
        <time>2025-05-03T09:50:51Z</time>
      </trkpt>
      <trkpt lat="41.173121994361281" lon="-7.549469964578748">
        <ele>94.829999999999998</ele>
        <time>2025-05-03T09:50:52Z</time>
      </trkpt>
      <trkpt lat="41.173230959102511" lon="-7.549434006214142">
        <ele>93.870000000000005</ele>
        <time>2025-05-03T09:50:53Z</time>
      </trkpt>
      <trkpt lat="41.17333103902638" lon="-7.549424031749368">
        <ele>92.900000000000006</ele>
        <time>2025-05-03T09:50:54Z</time>
      </trkpt>
      <trkpt lat="41.173435980454087" lon="-7.549475999549031">
        <ele>91.939999999999998</ele>
        <time>2025-05-03T09:50:55Z</time>
      </trkpt>
      <trkpt lat="41.173561038449407" lon="-7.549539031460881">
        <ele>91.459999999999994</ele>
        <time>2025-05-03T09:50:56Z</time>
      </trkpt>
      <trkpt lat="41.173666985705495" lon="-7.549612037837505">
        <ele>90.5</ele>
        <time>2025-05-03T09:50:57Z</time>
      </trkpt>
      <trkpt lat="41.173778967931867" lon="-7.549689989537001">
        <ele>90.019999999999996</ele>
        <time>2025-05-03T09:50:58Z</time>
      </trkpt>
      <trkpt lat="41.173877958208323" lon="-7.549787973985076">
        <ele>89.540000000000006</ele>
        <time>2025-05-03T09:50:59Z</time>
      </trkpt>
      <trkpt lat="41.173959011211991" lon="-7.549910014495254">
        <ele>89.060000000000002</ele>
        <time>2025-05-03T09:51:00Z</time>
      </trkpt>
      <trkpt lat="41.174044003710151" lon="-7.550038006156683">
        <ele>88.579999999999998</ele>
        <time>2025-05-03T09:51:01Z</time>
      </trkpt>
      <trkpt lat="41.174131007865071" lon="-7.550168009474874">
        <ele>88.099999999999994</ele>
        <time>2025-05-03T09:51:02Z</time>
      </trkpt>
      <trkpt lat="41.174202002584934" lon="-7.550302036106587">
        <ele>88.099999999999994</ele>
        <time>2025-05-03T09:51:03Z</time>
      </trkpt>
      <trkpt lat="41.174269979819655" lon="-7.550435978919268">
        <ele>88.099999999999994</ele>
        <time>2025-05-03T09:51:04Z</time>
      </trkpt>
      <trkpt lat="41.174338040873408" lon="-7.5505689997226">
        <ele>87.620000000000005</ele>
        <time>2025-05-03T09:51:05Z</time>
      </trkpt>
      <trkpt lat="41.174697959795594" lon="-7.55136301741004">
        <ele>84.25</ele>
        <time>2025-05-03T09:51:11Z</time>
      </trkpt>
      <trkpt lat="41.174694020301104" lon="-7.55147198215127">
        <ele>83.769999999999996</ele>
        <time>2025-05-03T09:51:12Z</time>
      </trkpt>
      <trkpt lat="41.174689996987581" lon="-7.551580024883151">
        <ele>83.769999999999996</ele>
        <time>2025-05-03T09:51:13Z</time>
      </trkpt>
      <trkpt lat="41.174684967845678" lon="-7.551685972139239">
        <ele>83.290000000000006</ele>
        <time>2025-05-03T09:51:14Z</time>
      </trkpt>
      <trkpt lat="41.174681028351188" lon="-7.551794014871121">
        <ele>82.810000000000002</ele>
        <time>2025-05-03T09:51:15Z</time>
      </trkpt>
      <trkpt lat="41.174608021974564" lon="-7.552626002579927">
        <ele>79.450000000000003</ele>
        <time>2025-05-03T09:51:23Z</time>
      </trkpt>
      <trkpt lat="41.174591006711125" lon="-7.552692973986268">
        <ele>78.969999999999999</ele>
        <time>2025-05-03T09:51:24Z</time>
      </trkpt>
      <trkpt lat="41.174526968970895" lon="-7.552730021998286">
        <ele>78.969999999999999</ele>
        <time>2025-05-03T09:51:25Z</time>
      </trkpt>
      <trkpt lat="41.174440970644355" lon="-7.552778972312808">
        <ele>78.969999999999999</ele>
        <time>2025-05-03T09:51:26Z</time>
      </trkpt>
      <trkpt lat="41.174366036430001" lon="-7.552774026989937">
        <ele>78.480000000000004</ele>
        <time>2025-05-03T09:51:27Z</time>
      </trkpt>
      <trkpt lat="41.174265034496784" lon="-7.552766986191273">
        <ele>78.480000000000004</ele>
        <time>2025-05-03T09:51:28Z</time>
      </trkpt>
      <trkpt lat="41.173819033429027" lon="-7.552791964262724">
        <ele>78</ele>
        <time>2025-05-03T09:51:32Z</time>
      </trkpt>
      <trkpt lat="41.173725994303823" lon="-7.552842004224658">
        <ele>78</ele>
        <time>2025-05-03T09:51:33Z</time>
      </trkpt>
      <trkpt lat="41.173604037612677" lon="-7.552907969802618">
        <ele>78</ele>
        <time>2025-05-03T09:51:34Z</time>
      </trkpt>
      <trkpt lat="41.173560032621026" lon="-7.5529969856143">
        <ele>78</ele>
        <time>2025-05-03T09:51:35Z</time>
      </trkpt>
      <trkpt lat="41.173497000709176" lon="-7.55312598310411">
        <ele>78</ele>
        <time>2025-05-03T09:51:36Z</time>
      </trkpt>
      <trkpt lat="41.173221990466118" lon="-7.553691007196903">
        <ele>78.480000000000004</ele>
        <time>2025-05-03T09:51:40Z</time>
      </trkpt>
      <trkpt lat="41.173145966604352" lon="-7.553820004686713">
        <ele>78.969999999999999</ele>
        <time>2025-05-03T09:51:41Z</time>
      </trkpt>
      <trkpt lat="41.172525035217404" lon="-7.554487958550453">
        <ele>79.930000000000007</ele>
        <time>2025-05-03T09:51:47Z</time>
      </trkpt>
      <trkpt lat="41.172406012192369" lon="-7.554546967148781">
        <ele>80.409999999999997</ele>
        <time>2025-05-03T09:51:48Z</time>
      </trkpt>
      <trkpt lat="41.172171989455819" lon="-7.554663978517056">
        <ele>80.890000000000001</ele>
        <time>2025-05-03T09:51:50Z</time>
      </trkpt>
      <trkpt lat="41.172037962824106" lon="-7.554731033742428">
        <ele>80.890000000000001</ele>
        <time>2025-05-03T09:51:51Z</time>
      </trkpt>
      <trkpt lat="41.171970991417766" lon="-7.554842010140419">
        <ele>80.890000000000001</ele>
        <time>2025-05-03T09:51:52Z</time>
      </trkpt>
      <trkpt lat="41.171119976788759" lon="-7.55632502026856">
        <ele>84.25</ele>
        <time>2025-05-03T09:52:01Z</time>
      </trkpt>
      <trkpt lat="41.169805023819208" lon="-7.558717969805002">
        <ele>90.980000000000004</ele>
        <time>2025-05-03T09:52:14Z</time>
      </trkpt>
      <trkpt lat="41.169586004689336" lon="-7.559027010574937">
        <ele>92.420000000000002</ele>
        <time>2025-05-03T09:52:16Z</time>
      </trkpt>
      <trkpt lat="41.169473016634583" lon="-7.559145027771592">
        <ele>92.900000000000006</ele>
        <time>2025-05-03T09:52:17Z</time>
      </trkpt>
      <trkpt lat="41.169338990002871" lon="-7.55920403636992">
        <ele>93.870000000000005</ele>
        <time>2025-05-03T09:52:18Z</time>
      </trkpt>
      <trkpt lat="41.169178979471326" lon="-7.559216022491455">
        <ele>94.829999999999998</ele>
        <time>2025-05-03T09:52:19Z</time>
      </trkpt>
      <trkpt lat="41.169017041102052" lon="-7.559216022491455">
        <ele>95.310000000000002</ele>
        <time>2025-05-03T09:52:20Z</time>
      </trkpt>
      <trkpt lat="41.168867005035281" lon="-7.559216022491455">
        <ele>96.269999999999996</ele>
        <time>2025-05-03T09:52:21Z</time>
      </trkpt>
      <trkpt lat="41.168743036687374" lon="-7.559243012219667">
        <ele>96.75</ele>
        <time>2025-05-03T09:52:22Z</time>
      </trkpt>
      <trkpt lat="41.168631976470351" lon="-7.559268996119499">
        <ele>97.230000000000004</ele>
        <time>2025-05-03T09:52:23Z</time>
      </trkpt>
      <trkpt lat="41.168542960658669" lon="-7.559323981404305">
        <ele>97.709999999999994</ele>
        <time>2025-05-03T09:52:24Z</time>
      </trkpt>
      <trkpt lat="41.168461991474032" lon="-7.559411991387606">
        <ele>98.189999999999998</ele>
        <time>2025-05-03T09:52:25Z</time>
      </trkpt>
      <trkpt lat="41.168382028117776" lon="-7.559501007199287">
        <ele>98.670000000000002</ele>
        <time>2025-05-03T09:52:26Z</time>
      </trkpt>
      <trkpt lat="41.168298041447997" lon="-7.559593040496111">
        <ele>99.150000000000006</ele>
        <time>2025-05-03T09:52:27Z</time>
      </trkpt>
      <trkpt lat="41.167523972690105" lon="-7.560497028753161">
        <ele>102.52</ele>
        <time>2025-05-03T09:52:35Z</time>
      </trkpt>
      <trkpt lat="41.167454989627004" lon="-7.560634994879365">
        <ele>103</ele>
        <time>2025-05-03T09:52:36Z</time>
      </trkpt>
      <trkpt lat="41.167427999898791" lon="-7.560806991532445">
        <ele>103.95999999999999</ele>
        <time>2025-05-03T09:52:37Z</time>
      </trkpt>
      <trkpt lat="41.167435040697455" lon="-7.56098703481257">
        <ele>104.92</ele>
        <time>2025-05-03T09:52:38Z</time>
      </trkpt>
      <trkpt lat="41.167441997677088" lon="-7.561185015365481">
        <ele>105.40000000000001</ele>
        <time>2025-05-03T09:52:39Z</time>
      </trkpt>
      <trkpt lat="41.16742598824203" lon="-7.561373021453619">
        <ele>106.36</ele>
        <time>2025-05-03T09:52:40Z</time>
      </trkpt>
      <trkpt lat="41.167374020442367" lon="-7.56156999617815">
        <ele>107.31999999999999</ele>
        <time>2025-05-03T09:52:41Z</time>
      </trkpt>
      <trkpt lat="41.167305037379265" lon="-7.561758002266288">
        <ele>108.29000000000001</ele>
        <time>2025-05-03T09:52:42Z</time>
      </trkpt>
      <trkpt lat="41.167196994647384" lon="-7.561925975605846">
        <ele>108.77</ele>
        <time>2025-05-03T09:52:43Z</time>
      </trkpt>
      <trkpt lat="41.167090041562915" lon="-7.562092021107674">
        <ele>109.73</ele>
        <time>2025-05-03T09:52:44Z</time>
      </trkpt>
      <trkpt lat="41.166990967467427" lon="-7.562244990840554">
        <ele>110.69</ele>
        <time>2025-05-03T09:52:45Z</time>
      </trkpt>
      <trkpt lat="41.16693296469748" lon="-7.562417993322015">
        <ele>111.17</ele>
        <time>2025-05-03T09:52:46Z</time>
      </trkpt>
      <trkpt lat="41.166904969140887" lon="-7.56257900968194">
        <ele>111.65000000000001</ele>
        <time>2025-05-03T09:52:47Z</time>
      </trkpt>
      <trkpt lat="41.166851995512843" lon="-7.562886038795114">
        <ele>112.61</ele>
        <time>2025-05-03T09:52:49Z</time>
      </trkpt>
      <trkpt lat="41.166789969429374" lon="-7.563028028234839">
        <ele>113.09</ele>
        <time>2025-05-03T09:52:50Z</time>
      </trkpt>
      <trkpt lat="41.166710006073117" lon="-7.563178986310959">
        <ele>113.56999999999999</ele>
        <time>2025-05-03T09:52:51Z</time>
      </trkpt>
      <trkpt lat="41.166571034118533" lon="-7.563525997102261">
        <ele>114.05</ele>
        <time>2025-05-03T09:52:53Z</time>
      </trkpt>
      <trkpt lat="41.165918000042439" lon="-7.565142028033733">
        <ele>116.45999999999999</ele>
        <time>2025-05-03T09:53:01Z</time>
      </trkpt>
      <trkpt lat="41.165836025029421" lon="-7.565331039950252">
        <ele>116.45999999999999</ele>
        <time>2025-05-03T09:53:02Z</time>
      </trkpt>
      <trkpt lat="41.165718007832766" lon="-7.565477974712849">
        <ele>116.45999999999999</ele>
        <time>2025-05-03T09:53:03Z</time>
      </trkpt>
      <trkpt lat="41.165595967322588" lon="-7.565629016608">
        <ele>116.45999999999999</ele>
        <time>2025-05-03T09:53:04Z</time>
      </trkpt>
      <trkpt lat="41.1654709931463" lon="-7.565783997997642">
        <ele>116.45999999999999</ele>
        <time>2025-05-03T09:53:05Z</time>
      </trkpt>
      <trkpt lat="41.165358005091548" lon="-7.565947026014328">
        <ele>116.45999999999999</ele>
        <time>2025-05-03T09:53:06Z</time>
      </trkpt>
      <trkpt lat="41.165263960137963" lon="-7.566139977425337">
        <ele>116.45999999999999</ele>
        <time>2025-05-03T09:53:07Z</time>
      </trkpt>
      <trkpt lat="41.16516999900341" lon="-7.566334018483758">
        <ele>115.98</ele>
        <time>2025-05-03T09:53:08Z</time>
      </trkpt>
      <trkpt lat="41.164572034031153" lon="-7.567911995574832">
        <ele>114.05</ele>
        <time>2025-05-03T09:53:16Z</time>
      </trkpt>
      <trkpt lat="41.164521994069219" lon="-7.568071000277996">
        <ele>113.56999999999999</ele>
        <time>2025-05-03T09:53:17Z</time>
      </trkpt>
      <trkpt lat="41.164445970207453" lon="-7.56816303357482">
        <ele>113.09</ele>
        <time>2025-05-03T09:53:18Z</time>
      </trkpt>
      <trkpt lat="41.164345974102616" lon="-7.568233022466302">
        <ele>112.61</ele>
        <time>2025-05-03T09:53:19Z</time>
      </trkpt>
      <trkpt lat="41.164234997704625" lon="-7.568270992487669">
        <ele>111.65000000000001</ele>
        <time>2025-05-03T09:53:20Z</time>
      </trkpt>
      <trkpt lat="41.164099965244532" lon="-7.568270992487669">
        <ele>111.17</ele>
        <time>2025-05-03T09:53:21Z</time>
      </trkpt>
      <trkpt lat="41.163959987461567" lon="-7.568270992487669">
        <ele>110.20999999999999</ele>
        <time>2025-05-03T09:53:22Z</time>
      </trkpt>
      <trkpt lat="41.163696963340044" lon="-7.568270992487669">
        <ele>108.77</ele>
        <time>2025-05-03T09:53:24Z</time>
      </trkpt>
      <trkpt lat="41.163589004427195" lon="-7.56833896972239">
        <ele>107.81</ele>
        <time>2025-05-03T09:53:25Z</time>
      </trkpt>
      <trkpt lat="41.163524966686964" lon="-7.568432008847594">
        <ele>107.31999999999999</ele>
        <time>2025-05-03T09:53:26Z</time>
      </trkpt>
      <trkpt lat="41.163502000272274" lon="-7.568519013002515">
        <ele>106.36</ele>
        <time>2025-05-03T09:53:27Z</time>
      </trkpt>
      <trkpt lat="41.163519015535712" lon="-7.568635018542409">
        <ele>105.88</ele>
        <time>2025-05-03T09:53:28Z</time>
      </trkpt>
      <trkpt lat="41.163539970293641" lon="-7.568785976618528">
        <ele>104.92</ele>
        <time>2025-05-03T09:53:29Z</time>
      </trkpt>
      <trkpt lat="41.163610965013504" lon="-7.568867029622197">
        <ele>104.44</ele>
        <time>2025-05-03T09:53:30Z</time>
      </trkpt>
      <trkpt lat="41.163699980825186" lon="-7.568969037383795">
        <ele>103.48</ele>
        <time>2025-05-03T09:53:31Z</time>
      </trkpt>
      <trkpt lat="41.163785979151726" lon="-7.56906601600349">
        <ele>103</ele>
        <time>2025-05-03T09:53:32Z</time>
      </trkpt>
      <trkpt lat="41.163849011063576" lon="-7.569188978523016">
        <ele>102.52</ele>
        <time>2025-05-03T09:53:33Z</time>
      </trkpt>
      <trkpt lat="41.163872983306646" lon="-7.569353012368083">
        <ele>101.56</ele>
        <time>2025-05-03T09:53:34Z</time>
      </trkpt>
      <trkpt lat="41.163897961378098" lon="-7.569531966000795">
        <ele>101.08</ele>
        <time>2025-05-03T09:53:35Z</time>
      </trkpt>
      <trkpt lat="41.163897961378098" lon="-7.569716032594442">
        <ele>100.59999999999999</ele>
        <time>2025-05-03T09:53:36Z</time>
      </trkpt>
      <trkpt lat="41.163888992741704" lon="-7.569899009540677">
        <ele>100.11</ele>
        <time>2025-05-03T09:53:37Z</time>
      </trkpt>
      <trkpt lat="41.163850016891956" lon="-7.570081986486912">
        <ele>99.629999999999995</ele>
        <time>2025-05-03T09:53:38Z</time>
      </trkpt>
      <trkpt lat="41.163771981373429" lon="-7.570249037817121">
        <ele>99.150000000000006</ele>
        <time>2025-05-03T09:53:39Z</time>
      </trkpt>
      <trkpt lat="41.163691012188792" lon="-7.570424973964691">
        <ele>99.150000000000006</ele>
        <time>2025-05-03T09:53:40Z</time>
      </trkpt>
      <trkpt lat="41.163605013862252" lon="-7.570609962567687">
        <ele>99.150000000000006</ele>
        <time>2025-05-03T09:53:41Z</time>
      </trkpt>
      <trkpt lat="41.163370991125703" lon="-7.570906011387706">
        <ele>98.670000000000002</ele>
        <time>2025-05-03T09:53:43Z</time>
      </trkpt>
      <trkpt lat="41.163262026384473" lon="-7.571028973907232">
        <ele>98.189999999999998</ele>
        <time>2025-05-03T09:53:44Z</time>
      </trkpt>
      <trkpt lat="41.163132023066282" lon="-7.571101980283856">
        <ele>97.709999999999994</ele>
        <time>2025-05-03T09:53:45Z</time>
      </trkpt>
      <trkpt lat="41.162861036136746" lon="-7.571272971108556">
        <ele>97.230000000000004</ele>
        <time>2025-05-03T09:53:47Z</time>
      </trkpt>
      <trkpt lat="41.162745030596852" lon="-7.571405991911888">
        <ele>97.230000000000004</ele>
        <time>2025-05-03T09:53:48Z</time>
      </trkpt>
      <trkpt lat="41.162623995915055" lon="-7.571544963866472">
        <ele>97.230000000000004</ele>
        <time>2025-05-03T09:53:49Z</time>
      </trkpt>
      <trkpt lat="41.162383016198874" lon="-7.571821985766292">
        <ele>97.230000000000004</ele>
        <time>2025-05-03T09:53:51Z</time>
      </trkpt>
      <trkpt lat="41.162252007052302" lon="-7.571928016841412">
        <ele>97.709999999999994</ele>
        <time>2025-05-03T09:53:52Z</time>
      </trkpt>
      <trkpt lat="41.162105994299054" lon="-7.571995994076133">
        <ele>97.709999999999994</ele>
        <time>2025-05-03T09:53:53Z</time>
      </trkpt>
      <trkpt lat="41.161955036222935" lon="-7.572058020159602">
        <ele>97.709999999999994</ele>
        <time>2025-05-03T09:53:54Z</time>
      </trkpt>
      <trkpt lat="41.161787984892726" lon="-7.572102025151253">
        <ele>97.230000000000004</ele>
        <time>2025-05-03T09:53:55Z</time>
      </trkpt>
      <trkpt lat="41.161621017381549" lon="-7.572145024314523">
        <ele>97.230000000000004</ele>
        <time>2025-05-03T09:53:56Z</time>
      </trkpt>
      <trkpt lat="41.161285992711782" lon="-7.572274021804333">
        <ele>96.75</ele>
        <time>2025-05-03T09:53:58Z</time>
      </trkpt>
      <trkpt lat="41.161133022978902" lon="-7.572374017909169">
        <ele>96.269999999999996</ele>
        <time>2025-05-03T09:53:59Z</time>
      </trkpt>
      <trkpt lat="41.160996984690428" lon="-7.572509972378612">
        <ele>95.790000000000006</ele>
        <time>2025-05-03T09:54:00Z</time>
      </trkpt>
      <trkpt lat="41.160501027479768" lon="-7.573006013408303">
        <ele>92.900000000000006</ele>
        <time>2025-05-03T09:54:04Z</time>
      </trkpt>
      <trkpt lat="41.160392984747887" lon="-7.573113972321153">
        <ele>91.939999999999998</ele>
        <time>2025-05-03T09:54:05Z</time>
      </trkpt>
      <trkpt lat="41.160016972571611" lon="-7.57359903305769">
        <ele>89.540000000000006</ele>
        <time>2025-05-03T09:54:09Z</time>
      </trkpt>
      <trkpt lat="41.159749003127217" lon="-7.573972027748823">
        <ele>88.099999999999994</ele>
        <time>2025-05-03T09:54:11Z</time>
      </trkpt>
      <trkpt lat="41.159194959327579" lon="-7.574966959655285">
        <ele>85.689999999999998</ele>
        <time>2025-05-03T09:54:16Z</time>
      </trkpt>
      <trkpt lat="41.158749964088202" lon="-7.576573016121984">
        <ele>82.810000000000002</ele>
        <time>2025-05-03T09:54:23Z</time>
      </trkpt>
      <trkpt lat="41.15829398855567" lon="-7.578793969005346">
        <ele>82.810000000000002</ele>
        <time>2025-05-03T09:54:32Z</time>
      </trkpt>
      <trkpt lat="41.158001963049173" lon="-7.580335987731814">
        <ele>82.329999999999998</ele>
        <time>2025-05-03T09:54:39Z</time>
      </trkpt>
      <trkpt lat="41.157845975831151" lon="-7.581102009862661">
        <ele>80.409999999999997</ele>
        <time>2025-05-03T09:54:46Z</time>
      </trkpt>
      <trkpt lat="41.157556967809796" lon="-7.582258963957429">
        <ele>78.969999999999999</ele>
        <time>2025-05-03T09:54:55Z</time>
      </trkpt>
      <trkpt lat="41.157224038615823" lon="-7.583534019067884">
        <ele>79.930000000000007</ele>
        <time>2025-05-03T09:55:03Z</time>
      </trkpt>
      <trkpt lat="41.156516019254923" lon="-7.585521033033729">
        <ele>80.409999999999997</ele>
        <time>2025-05-03T09:55:13Z</time>
      </trkpt>
      <trkpt lat="41.155662992969155" lon="-7.587646013125777">
        <ele>81.370000000000005</ele>
        <time>2025-05-03T09:55:22Z</time>
      </trkpt>
      <trkpt lat="41.155023034662008" lon="-7.589639984071255">
        <ele>83.769999999999996</ele>
        <time>2025-05-03T09:55:30Z</time>
      </trkpt>
      <trkpt lat="41.15464199334383" lon="-7.591602019965649">
        <ele>85.689999999999998</ele>
        <time>2025-05-03T09:55:37Z</time>
      </trkpt>
      <trkpt lat="41.154744001105428" lon="-7.594007039442658">
        <ele>86.180000000000007</ele>
        <time>2025-05-03T09:55:45Z</time>
      </trkpt>
      <trkpt lat="41.154975006356835" lon="-7.596345003694296">
        <ele>85.209999999999994</ele>
        <time>2025-05-03T09:55:53Z</time>
      </trkpt>
      <trkpt lat="41.155052036046982" lon="-7.596614984795451">
        <ele>84.730000000000004</ele>
        <time>2025-05-03T09:55:54Z</time>
      </trkpt>
      <trkpt lat="41.155134011059999" lon="-7.596875997260213">
        <ele>84.730000000000004</ele>
        <time>2025-05-03T09:55:55Z</time>
      </trkpt>
      <trkpt lat="41.155833983793855" lon="-7.598695959895849">
        <ele>83.769999999999996</ele>
        <time>2025-05-03T09:56:02Z</time>
      </trkpt>
      <trkpt lat="41.155901961028576" lon="-7.598981028422713">
        <ele>83.769999999999996</ele>
        <time>2025-05-03T09:56:03Z</time>
      </trkpt>
      <trkpt lat="41.15646799094975" lon="-7.602147040888667">
        <ele>84.730000000000004</ele>
        <time>2025-05-03T09:56:14Z</time>
      </trkpt>
      <trkpt lat="41.157247005030513" lon="-7.605136027559638">
        <ele>85.209999999999994</ele>
        <time>2025-05-03T09:56:25Z</time>
      </trkpt>
      <trkpt lat="41.157744973897934" lon="-7.606809977442026">
        <ele>85.689999999999998</ele>
        <time>2025-05-03T09:56:33Z</time>
      </trkpt>
      <trkpt lat="41.158346962183714" lon="-7.608817024156451">
        <ele>85.209999999999994</ele>
        <time>2025-05-03T09:56:42Z</time>
      </trkpt>
      <trkpt lat="41.159069985151291" lon="-7.611649017781019">
        <ele>84.25</ele>
        <time>2025-05-03T09:56:53Z</time>
      </trkpt>
      <trkpt lat="41.159392017871141" lon="-7.614112040027976">
        <ele>84.25</ele>
        <time>2025-05-03T09:57:02Z</time>
      </trkpt>
      <trkpt lat="41.159318005666137" lon="-7.617492964491248">
        <ele>84.25</ele>
        <time>2025-05-03T09:57:14Z</time>
      </trkpt>
      <trkpt lat="41.159085994586349" lon="-7.620185986161232">
        <ele>83.769999999999996</ele>
        <time>2025-05-03T09:57:24Z</time>
      </trkpt>
      <trkpt lat="41.158693972975016" lon="-7.62260802090168">
        <ele>83.290000000000006</ele>
        <time>2025-05-03T09:57:33Z</time>
      </trkpt>
      <trkpt lat="41.158023001626134" lon="-7.62488697655499">
        <ele>80.409999999999997</ele>
        <time>2025-05-03T09:57:42Z</time>
      </trkpt>
      <trkpt lat="41.157569959759712" lon="-7.627214966341853">
        <ele>79.930000000000007</ele>
        <time>2025-05-03T09:57:51Z</time>
      </trkpt>
      <trkpt lat="41.157222026959062" lon="-7.629926009103656">
        <ele>81.849999999999994</ele>
        <time>2025-05-03T09:58:01Z</time>
      </trkpt>
      <trkpt lat="41.157213980332017" lon="-7.630202025175095">
        <ele>81.849999999999994</ele>
        <time>2025-05-03T09:58:02Z</time>
      </trkpt>
      <trkpt lat="41.157205011695623" lon="-7.630482986569405">
        <ele>81.849999999999994</ele>
        <time>2025-05-03T09:58:03Z</time>
      </trkpt>
      <trkpt lat="41.157082971185446" lon="-7.634559022262693">
        <ele>78.969999999999999</ele>
        <time>2025-05-03T09:58:18Z</time>
      </trkpt>
      <trkpt lat="41.157206017524004" lon="-7.637056997045875">
        <ele>76.560000000000002</ele>
        <time>2025-05-03T09:58:28Z</time>
      </trkpt>
      <trkpt lat="41.157167041674256" lon="-7.638918031007052">
        <ele>75.120000000000005</ele>
        <time>2025-05-03T09:58:37Z</time>
      </trkpt>
      <trkpt lat="41.157281035557389" lon="-7.640704968944192">
        <ele>74.159999999999997</ele>
        <time>2025-05-03T09:58:47Z</time>
      </trkpt>
      <trkpt lat="41.157746985554695" lon="-7.642967998981476">
        <ele>74.159999999999997</ele>
        <time>2025-05-03T09:59:00Z</time>
      </trkpt>
      <trkpt lat="41.158331036567688" lon="-7.645049979910255">
        <ele>75.120000000000005</ele>
        <time>2025-05-03T09:59:11Z</time>
      </trkpt>
      <trkpt lat="41.159146009013057" lon="-7.647620039060712">
        <ele>78.480000000000004</ele>
        <time>2025-05-03T09:59:23Z</time>
      </trkpt>
      <trkpt lat="41.159844975918531" lon="-7.649822970852256">
        <ele>82.810000000000002</ele>
        <time>2025-05-03T09:59:33Z</time>
      </trkpt>
      <trkpt lat="41.160723986104131" lon="-7.65288102440536">
        <ele>86.659999999999997</ele>
        <time>2025-05-03T09:59:46Z</time>
      </trkpt>
      <trkpt lat="41.16102397441864" lon="-7.655434990301728">
        <ele>85.209999999999994</ele>
        <time>2025-05-03T09:59:56Z</time>
      </trkpt>
      <trkpt lat="41.161323040723801" lon="-7.65855498611927">
        <ele>83.769999999999996</ele>
        <time>2025-05-03T10:00:08Z</time>
      </trkpt>
      <trkpt lat="41.161383977159858" lon="-7.66119796782732">
        <ele>82.329999999999998</ele>
        <time>2025-05-03T10:00:18Z</time>
      </trkpt>
      <trkpt lat="41.161041995510459" lon="-7.66416298225522">
        <ele>85.209999999999994</ele>
        <time>2025-05-03T10:00:29Z</time>
      </trkpt>
      <trkpt lat="41.160535980015993" lon="-7.666140021756291">
        <ele>88.099999999999994</ele>
        <time>2025-05-03T10:00:37Z</time>
      </trkpt>
      <trkpt lat="41.159222032874823" lon="-7.668485026806593">
        <ele>91.459999999999994</ele>
        <time>2025-05-03T10:00:48Z</time>
      </trkpt>
      <trkpt lat="41.157789984717965" lon="-7.671022983267903">
        <ele>93.390000000000001</ele>
        <time>2025-05-03T10:01:00Z</time>
      </trkpt>
      <trkpt lat="41.156323989853263" lon="-7.673440994694829">
        <ele>92.420000000000002</ele>
        <time>2025-05-03T10:01:12Z</time>
      </trkpt>
      <trkpt lat="41.155118001624942" lon="-7.675146041437984">
        <ele>89.060000000000002</ele>
        <time>2025-05-03T10:01:22Z</time>
      </trkpt>
      <trkpt lat="41.154732014983892" lon="-7.675830004736781">
        <ele>87.620000000000005</ele>
        <time>2025-05-03T10:01:28Z</time>
      </trkpt>
      <trkpt lat="41.154121980071068" lon="-7.676910012960434">
        <ele>85.209999999999994</ele>
        <time>2025-05-03T10:01:37Z</time>
      </trkpt>
      <trkpt lat="41.153295021504164" lon="-7.678555967286229">
        <ele>82.329999999999998</ele>
        <time>2025-05-03T10:01:50Z</time>
      </trkpt>
      <trkpt lat="41.153237018734217" lon="-7.67868597060442">
        <ele>81.849999999999994</ele>
        <time>2025-05-03T10:01:51Z</time>
      </trkpt>
      <trkpt lat="41.152692027390003" lon="-7.679876033216715">
        <ele>79.450000000000003</ele>
        <time>2025-05-03T10:02:00Z</time>
      </trkpt>
      <trkpt lat="41.15223697386682" lon="-7.680866019800305">
        <ele>78.480000000000004</ele>
        <time>2025-05-03T10:02:09Z</time>
      </trkpt>
      <trkpt lat="41.152151981368661" lon="-7.681033993139863">
        <ele>78</ele>
        <time>2025-05-03T10:02:11Z</time>
      </trkpt>
      <trkpt lat="41.152114011347294" lon="-7.681102976202965">
        <ele>77.519999999999996</ele>
        <time>2025-05-03T10:02:12Z</time>
      </trkpt>
      <trkpt lat="41.151965986937284" lon="-7.681378992274404">
        <ele>77.040000000000006</ele>
        <time>2025-05-03T10:02:16Z</time>
      </trkpt>
      <trkpt lat="41.151415966451168" lon="-7.682191031053662">
        <ele>75.599999999999994</ele>
        <time>2025-05-03T10:02:26Z</time>
      </trkpt>
      <trkpt lat="41.150685986503959" lon="-7.683252012357116">
        <ele>71.760000000000005</ele>
        <time>2025-05-03T10:02:36Z</time>
      </trkpt>
      <trkpt lat="41.14969901740551" lon="-7.684650029987097">
        <ele>68.390000000000001</ele>
        <time>2025-05-03T10:02:46Z</time>
      </trkpt>
      <trkpt lat="41.148666031658649" lon="-7.685659965500236">
        <ele>67.430000000000007</ele>
        <time>2025-05-03T10:02:54Z</time>
      </trkpt>
      <trkpt lat="41.147286035120487" lon="-7.68654802814126">
        <ele>68.870000000000005</ele>
        <time>2025-05-03T10:03:04Z</time>
      </trkpt>
      <trkpt lat="41.145809981971979" lon="-7.68773096613586">
        <ele>71.760000000000005</ele>
        <time>2025-05-03T10:03:15Z</time>
      </trkpt>
      <trkpt lat="41.144384974613786" lon="-7.689076010137796">
        <ele>71.269999999999996</ele>
        <time>2025-05-03T10:03:26Z</time>
      </trkpt>
      <trkpt lat="41.14413502626121" lon="-7.689358983188868">
        <ele>70.790000000000006</ele>
        <time>2025-05-03T10:03:28Z</time>
      </trkpt>
      <trkpt lat="41.143137998878956" lon="-7.690812991932035">
        <ele>68.870000000000005</ele>
        <time>2025-05-03T10:03:37Z</time>
      </trkpt>
      <trkpt lat="41.142151029780507" lon="-7.692403038963676">
        <ele>68.870000000000005</ele>
        <time>2025-05-03T10:03:46Z</time>
      </trkpt>
      <trkpt lat="41.141481986269355" lon="-7.694052010774612">
        <ele>69.829999999999998</ele>
        <time>2025-05-03T10:03:54Z</time>
      </trkpt>
      <trkpt lat="41.141179986298084" lon="-7.695440975949168">
        <ele>70.790000000000006</ele>
        <time>2025-05-03T10:04:02Z</time>
      </trkpt>
      <trkpt lat="41.140686040744185" lon="-7.697729989886284">
        <ele>69.829999999999998</ele>
        <time>2025-05-03T10:04:13Z</time>
      </trkpt>
      <trkpt lat="41.140533993020654" lon="-7.698521995916963">
        <ele>68.870000000000005</ele>
        <time>2025-05-03T10:04:17Z</time>
      </trkpt>
      <trkpt lat="41.140513038262725" lon="-7.698707990348339">
        <ele>68.390000000000001</ele>
        <time>2025-05-03T10:04:18Z</time>
      </trkpt>
      <trkpt lat="41.140491999685764" lon="-7.698890967294574">
        <ele>68.390000000000001</ele>
        <time>2025-05-03T10:04:19Z</time>
      </trkpt>
      <trkpt lat="41.140476996079087" lon="-7.69907302223146">
        <ele>67.909999999999997</ele>
        <time>2025-05-03T10:04:20Z</time>
      </trkpt>
      <trkpt lat="41.140518989413977" lon="-7.699261028319597">
        <ele>67.909999999999997</ele>
        <time>2025-05-03T10:04:21Z</time>
      </trkpt>
      <trkpt lat="41.140561988577247" lon="-7.699456997215748">
        <ele>67.430000000000007</ele>
        <time>2025-05-03T10:04:22Z</time>
      </trkpt>
      <trkpt lat="41.140604987740517" lon="-7.699651038274169">
        <ele>66.950000000000003</ele>
        <time>2025-05-03T10:04:23Z</time>
      </trkpt>
      <trkpt lat="41.141143022105098" lon="-7.701929993927479">
        <ele>65.510000000000005</ele>
        <time>2025-05-03T10:04:34Z</time>
      </trkpt>
      <trkpt lat="41.141478968784213" lon="-7.703232960775495">
        <ele>64.549999999999997</ele>
        <time>2025-05-03T10:04:40Z</time>
      </trkpt>
      <trkpt lat="41.141813993453979" lon="-7.704118005931377">
        <ele>64.069999999999993</ele>
        <time>2025-05-03T10:04:45Z</time>
      </trkpt>
      <trkpt lat="41.141870990395546" lon="-7.704272987321019">
        <ele>64.069999999999993</ele>
        <time>2025-05-03T10:04:46Z</time>
      </trkpt>
      <trkpt lat="41.141931004822254" lon="-7.704438026994467">
        <ele>64.069999999999993</ele>
        <time>2025-05-03T10:04:47Z</time>
      </trkpt>
      <trkpt lat="41.141981966793537" lon="-7.704610023647547">
        <ele>63.579999999999998</ele>
        <time>2025-05-03T10:04:48Z</time>
      </trkpt>
      <trkpt lat="41.142035024240613" lon="-7.704786965623498">
        <ele>63.579999999999998</ele>
        <time>2025-05-03T10:04:49Z</time>
      </trkpt>
      <trkpt lat="41.142541961744428" lon="-7.7067019790411">
        <ele>63.579999999999998</ele>
        <time>2025-05-03T10:04:59Z</time>
      </trkpt>
      <trkpt lat="41.142567023634911" lon="-7.706909012049437">
        <ele>64.069999999999993</ele>
        <time>2025-05-03T10:05:00Z</time>
      </trkpt>
      <trkpt lat="41.142699960619211" lon="-7.708283979445696">
        <ele>65.510000000000005</ele>
        <time>2025-05-03T10:05:05Z</time>
      </trkpt>
      <trkpt lat="41.142913028597832" lon="-7.711016982793808">
        <ele>68.870000000000005</ele>
        <time>2025-05-03T10:05:14Z</time>
      </trkpt>
      <trkpt lat="41.143321981653571" lon="-7.713515041396022">
        <ele>68.390000000000001</ele>
        <time>2025-05-03T10:05:23Z</time>
      </trkpt>
      <trkpt lat="41.143723977729678" lon="-7.716550966724753">
        <ele>70.790000000000006</ele>
        <time>2025-05-03T10:05:34Z</time>
      </trkpt>
      <trkpt lat="41.143897986039519" lon="-7.719339039176703">
        <ele>73.200000000000003</ele>
        <time>2025-05-03T10:05:44Z</time>
      </trkpt>
      <trkpt lat="41.14402798935771" lon="-7.722702026367188">
        <ele>74.159999999999997</ele>
        <time>2025-05-03T10:05:56Z</time>
      </trkpt>
      <trkpt lat="41.14409496076405" lon="-7.725978009402752">
        <ele>76.079999999999998</ele>
        <time>2025-05-03T10:06:08Z</time>
      </trkpt>
      <trkpt lat="41.144230999052525" lon="-7.728093015030026">
        <ele>77.040000000000006</ele>
        <time>2025-05-03T10:06:16Z</time>
      </trkpt>
      <trkpt lat="41.144313979893923" lon="-7.730748988687992">
        <ele>75.599999999999994</ele>
        <time>2025-05-03T10:06:26Z</time>
      </trkpt>
      <trkpt lat="41.144290007650852" lon="-7.731014024466276">
        <ele>76.079999999999998</ele>
        <time>2025-05-03T10:06:27Z</time>
      </trkpt>
      <trkpt lat="41.144261006265879" lon="-7.731284005567431">
        <ele>75.599999999999994</ele>
        <time>2025-05-03T10:06:28Z</time>
      </trkpt>
      <trkpt lat="41.144010974094272" lon="-7.73287002928555">
        <ele>75.120000000000005</ele>
        <time>2025-05-03T10:06:34Z</time>
      </trkpt>
      <trkpt lat="41.144003011286259" lon="-7.733133975416422">
        <ele>75.120000000000005</ele>
        <time>2025-05-03T10:06:35Z</time>
      </trkpt>
      <trkpt lat="41.143935034051538" lon="-7.735302038490772">
        <ele>75.599999999999994</ele>
        <time>2025-05-03T10:06:44Z</time>
      </trkpt>
      <trkpt lat="41.14409202709794" lon="-7.737007001414895">
        <ele>77.040000000000006</ele>
        <time>2025-05-03T10:06:52Z</time>
      </trkpt>
      <trkpt lat="41.144325966015458" lon="-7.738323966041207">
        <ele>76.560000000000002</ele>
        <time>2025-05-03T10:06:59Z</time>
      </trkpt>
      <trkpt lat="41.144617991521955" lon="-7.740105958655477">
        <ele>75.120000000000005</ele>
        <time>2025-05-03T10:07:11Z</time>
      </trkpt>
      <trkpt lat="41.144784959033132" lon="-7.741597015410662">
        <ele>70.310000000000002</ele>
        <time>2025-05-03T10:07:22Z</time>
      </trkpt>
      <trkpt lat="41.14484497345984" lon="-7.742014015093446">
        <ele>68.390000000000001</ele>
        <time>2025-05-03T10:07:26Z</time>
      </trkpt>
      <trkpt lat="41.144860982894897" lon="-7.74213002063334">
        <ele>67.909999999999997</ele>
        <time>2025-05-03T10:07:27Z</time>
      </trkpt>
      <trkpt lat="41.145245963707566" lon="-7.74314196780324">
        <ele>63.579999999999998</ele>
        <time>2025-05-03T10:07:35Z</time>
      </trkpt>
      <trkpt lat="41.145392982289195" lon="-7.743509011343122">
        <ele>62.140000000000001</ele>
        <time>2025-05-03T10:07:39Z</time>
      </trkpt>
      <trkpt lat="41.14544696174562" lon="-7.743643959984183">
        <ele>60.219999999999999</ele>
        <time>2025-05-03T10:07:45Z</time>
      </trkpt>
      <trkpt lat="41.145451990887523" lon="-7.743657035753131">
        <ele>60.219999999999999</ele>
        <time>2025-05-03T10:07:49Z</time>
      </trkpt>
      <trkpt lat="41.145904026925564" lon="-7.743345983326435">
        <ele>100.11</ele>
        <time>2025-05-03T10:25:48Z</time>
      </trkpt>
      <trkpt lat="41.14548702724278" lon="-7.743743034079671">
        <ele>91.939999999999998</ele>
        <time>2025-05-03T10:25:51Z</time>
      </trkpt>
      <trkpt lat="41.145501025021076" lon="-7.743777986615896">
        <ele>91.459999999999994</ele>
        <time>2025-05-03T10:25:52Z</time>
      </trkpt>
      <trkpt lat="41.14555299282074" lon="-7.743910001590848">
        <ele>90.980000000000004</ele>
        <time>2025-05-03T10:25:53Z</time>
      </trkpt>
      <trkpt lat="41.14559699781239" lon="-7.744018966332078">
        <ele>90.5</ele>
        <time>2025-05-03T10:25:54Z</time>
      </trkpt>
      <trkpt lat="41.145957000553608" lon="-7.744918009266257">
        <ele>84.730000000000004</ele>
        <time>2025-05-03T10:26:00Z</time>
      </trkpt>
      <trkpt lat="41.146553037688136" lon="-7.74623597972095">
        <ele>83.769999999999996</ele>
        <time>2025-05-03T10:26:08Z</time>
      </trkpt>
      <trkpt lat="41.146637024357915" lon="-7.746365983039141">
        <ele>83.769999999999996</ele>
        <time>2025-05-03T10:26:09Z</time>
      </trkpt>
      <trkpt lat="41.147373039275408" lon="-7.747791996225715">
        <ele>78.969999999999999</ele>
        <time>2025-05-03T10:26:18Z</time>
      </trkpt>
      <trkpt lat="41.14787201397121" lon="-7.749076019972563">
        <ele>75.120000000000005</ele>
        <time>2025-05-03T10:26:25Z</time>
      </trkpt>
      <trkpt lat="41.147919958457351" lon="-7.749240975826979">
        <ele>74.640000000000001</ele>
        <time>2025-05-03T10:26:26Z</time>
      </trkpt>
      <trkpt lat="41.147968992590904" lon="-7.749410038813949">
        <ele>74.640000000000001</ele>
        <time>2025-05-03T10:26:27Z</time>
      </trkpt>
      <trkpt lat="41.148352967575192" lon="-7.75096002034843">
        <ele>73.200000000000003</ele>
        <time>2025-05-03T10:26:36Z</time>
      </trkpt>
      <trkpt lat="41.148390015587211" lon="-7.751148026436567">
        <ele>72.719999999999999</ele>
        <time>2025-05-03T10:26:37Z</time>
      </trkpt>
      <trkpt lat="41.148445000872016" lon="-7.751317005604506">
        <ele>72.239999999999995</ele>
        <time>2025-05-03T10:26:38Z</time>
      </trkpt>
      <trkpt lat="41.148555977270007" lon="-7.751650018617511">
        <ele>73.200000000000003</ele>
        <time>2025-05-03T10:26:40Z</time>
      </trkpt>
      <trkpt lat="41.148609034717083" lon="-7.751809023320675">
        <ele>74.640000000000001</ele>
        <time>2025-05-03T10:26:41Z</time>
      </trkpt>
      <trkpt lat="41.148664020001888" lon="-7.75197196751833">
        <ele>76.079999999999998</ele>
        <time>2025-05-03T10:26:42Z</time>
      </trkpt>
      <trkpt lat="41.148715987801552" lon="-7.752132983878255">
        <ele>77.519999999999996</ele>
        <time>2025-05-03T10:26:43Z</time>
      </trkpt>
      <trkpt lat="41.148754041641951" lon="-7.752296011894941">
        <ele>78.480000000000004</ele>
        <time>2025-05-03T10:26:44Z</time>
      </trkpt>
      <trkpt lat="41.148793017491698" lon="-7.752463985234499">
        <ele>78.969999999999999</ele>
        <time>2025-05-03T10:26:45Z</time>
      </trkpt>
      <trkpt lat="41.148834004998207" lon="-7.752641011029482">
        <ele>79.930000000000007</ele>
        <time>2025-05-03T10:26:46Z</time>
      </trkpt>
      <trkpt lat="41.148877004161477" lon="-7.752821976318955">
        <ele>80.409999999999997</ele>
        <time>2025-05-03T10:26:47Z</time>
      </trkpt>
      <trkpt lat="41.148918997496367" lon="-7.753003025427461">
        <ele>80.890000000000001</ele>
        <time>2025-05-03T10:26:48Z</time>
      </trkpt>
      <trkpt lat="41.148961996659636" lon="-7.753189019858837">
        <ele>81.849999999999994</ele>
        <time>2025-05-03T10:26:49Z</time>
      </trkpt>
      <trkpt lat="41.149402968585491" lon="-7.754832040518522">
        <ele>81.370000000000005</ele>
        <time>2025-05-03T10:26:57Z</time>
      </trkpt>
      <trkpt lat="41.149649983271956" lon="-7.75586100295186">
        <ele>77.040000000000006</ele>
        <time>2025-05-03T10:27:02Z</time>
      </trkpt>
      <trkpt lat="41.149760959669948" lon="-7.756500039249659">
        <ele>75.120000000000005</ele>
        <time>2025-05-03T10:27:05Z</time>
      </trkpt>
      <trkpt lat="41.150179971009493" lon="-7.758081033825874">
        <ele>75.599999999999994</ele>
        <time>2025-05-03T10:27:14Z</time>
      </trkpt>
      <trkpt lat="41.150254989042878" lon="-7.758456040173769">
        <ele>75.599999999999994</ele>
        <time>2025-05-03T10:27:17Z</time>
      </trkpt>
      <trkpt lat="41.150404019281268" lon="-7.759203035384417">
        <ele>72.239999999999995</ele>
        <time>2025-05-03T10:27:26Z</time>
      </trkpt>
      <trkpt lat="41.150706019252539" lon="-7.760213976725936">
        <ele>68.870000000000005</ele>
        <time>2025-05-03T10:27:34Z</time>
      </trkpt>
      <trkpt lat="41.150742983445525" lon="-7.760377004742622">
        <ele>68.870000000000005</ele>
        <time>2025-05-03T10:27:35Z</time>
      </trkpt>
      <trkpt lat="41.150949010625482" lon="-7.761966967955232">
        <ele>67.909999999999997</ele>
        <time>2025-05-03T10:27:44Z</time>
      </trkpt>
      <trkpt lat="41.15096996538341" lon="-7.762141982093453">
        <ele>67.909999999999997</ele>
        <time>2025-05-03T10:27:45Z</time>
      </trkpt>
      <trkpt lat="41.151152020320296" lon="-7.763429023325443">
        <ele>68.390000000000001</ele>
        <time>2025-05-03T10:27:53Z</time>
      </trkpt>
      <trkpt lat="41.151372967287898" lon="-7.764972969889641">
        <ele>67.430000000000007</ele>
        <time>2025-05-03T10:28:02Z</time>
      </trkpt>
      <trkpt lat="41.151382019743323" lon="-7.765137003734708">
        <ele>67.909999999999997</ele>
        <time>2025-05-03T10:28:03Z</time>
      </trkpt>
      <trkpt lat="41.151416972279549" lon="-7.766788993030787">
        <ele>68.390000000000001</ele>
        <time>2025-05-03T10:28:13Z</time>
      </trkpt>
      <trkpt lat="41.151416972279549" lon="-7.767117982730269">
        <ele>68.390000000000001</ele>
        <time>2025-05-03T10:28:15Z</time>
      </trkpt>
      <trkpt lat="41.151416972279549" lon="-7.767283022403717">
        <ele>68.390000000000001</ele>
        <time>2025-05-03T10:28:16Z</time>
      </trkpt>
      <trkpt lat="41.151435999199748" lon="-7.768259011209011">
        <ele>69.349999999999994</ele>
        <time>2025-05-03T10:28:22Z</time>
      </trkpt>
      <trkpt lat="41.151456031948328" lon="-7.768419021740556">
        <ele>69.349999999999994</ele>
        <time>2025-05-03T10:28:23Z</time>
      </trkpt>
      <trkpt lat="41.151475980877876" lon="-7.7685790322721">
        <ele>69.349999999999994</ele>
        <time>2025-05-03T10:28:24Z</time>
      </trkpt>
      <trkpt lat="41.15154798142612" lon="-7.769221002236009">
        <ele>68.870000000000005</ele>
        <time>2025-05-03T10:28:28Z</time>
      </trkpt>
      <trkpt lat="41.151554016396403" lon="-7.769381012767553">
        <ele>68.870000000000005</ele>
        <time>2025-05-03T10:28:29Z</time>
      </trkpt>
      <trkpt lat="41.151639008894563" lon="-7.771829031407833">
        <ele>70.310000000000002</ele>
        <time>2025-05-03T10:28:44Z</time>
      </trkpt>
      <trkpt lat="41.151674967259169" lon="-7.772803008556366">
        <ele>70.310000000000002</ele>
        <time>2025-05-03T10:28:50Z</time>
      </trkpt>
      <trkpt lat="41.151653006672859" lon="-7.772964024916291">
        <ele>70.310000000000002</ele>
        <time>2025-05-03T10:28:51Z</time>
      </trkpt>
      <trkpt lat="41.151356035843492" lon="-7.775045000016689">
        <ele>67.430000000000007</ele>
        <time>2025-05-03T10:29:04Z</time>
      </trkpt>
      <trkpt lat="41.151361986994743" lon="-7.775208028033376">
        <ele>66.950000000000003</ele>
        <time>2025-05-03T10:29:05Z</time>
      </trkpt>
      <trkpt lat="41.151368021965027" lon="-7.775366026908159">
        <ele>66.469999999999999</ele>
        <time>2025-05-03T10:29:06Z</time>
      </trkpt>
      <trkpt lat="41.151374978944659" lon="-7.775534000247717">
        <ele>65.989999999999995</ele>
        <time>2025-05-03T10:29:07Z</time>
      </trkpt>
      <trkpt lat="41.151414960622787" lon="-7.775685964152217">
        <ele>65.510000000000005</ele>
        <time>2025-05-03T10:29:08Z</time>
      </trkpt>
      <trkpt lat="41.151455026119947" lon="-7.775837006047368">
        <ele>65.030000000000001</ele>
        <time>2025-05-03T10:29:09Z</time>
      </trkpt>
      <trkpt lat="41.151773035526276" lon="-7.77704400010407">
        <ele>64.069999999999993</ele>
        <time>2025-05-03T10:29:17Z</time>
      </trkpt>
      <trkpt lat="41.15180597640574" lon="-7.777204010635614">
        <ele>64.069999999999993</ele>
        <time>2025-05-03T10:29:18Z</time>
      </trkpt>
      <trkpt lat="41.152267986908555" lon="-7.778874021023512">
        <ele>64.549999999999997</ele>
        <time>2025-05-03T10:29:28Z</time>
      </trkpt>
      <trkpt lat="41.152951028198004" lon="-7.780874026939273">
        <ele>64.549999999999997</ele>
        <time>2025-05-03T10:29:39Z</time>
      </trkpt>
      <trkpt lat="41.153013976290822" lon="-7.781051974743605">
        <ele>64.069999999999993</ele>
        <time>2025-05-03T10:29:40Z</time>
      </trkpt>
      <trkpt lat="41.153227966278791" lon="-7.781624039635062">
        <ele>65.510000000000005</ele>
        <time>2025-05-03T10:29:44Z</time>
      </trkpt>
      <trkpt lat="41.153347995132208" lon="-7.781988987699151">
        <ele>67.909999999999997</ele>
        <time>2025-05-03T10:29:48Z</time>
      </trkpt>
      <trkpt lat="41.153347995132208" lon="-7.782044978812337">
        <ele>68.870000000000005</ele>
        <time>2025-05-03T10:29:49Z</time>
      </trkpt>
      <trkpt lat="41.153347995132208" lon="-7.782074986025691">
        <ele>69.349999999999994</ele>
        <time>2025-05-03T10:29:50Z</time>
      </trkpt>
      <trkpt lat="41.153298038989305" lon="-7.78213600628078">
        <ele>69.829999999999998</ele>
        <time>2025-05-03T10:29:51Z</time>
      </trkpt>
      <trkpt lat="41.153240958228707" lon="-7.782203983515501">
        <ele>70.310000000000002</ele>
        <time>2025-05-03T10:29:52Z</time>
      </trkpt>
      <trkpt lat="41.153195025399327" lon="-7.782225022092462">
        <ele>70.790000000000006</ele>
        <time>2025-05-03T10:29:53Z</time>
      </trkpt>
      <trkpt lat="41.153125958517194" lon="-7.782257040962577">
        <ele>71.269999999999996</ele>
        <time>2025-05-03T10:29:54Z</time>
      </trkpt>
      <trkpt lat="41.153052030131221" lon="-7.782290987670422">
        <ele>71.269999999999996</ele>
        <time>2025-05-03T10:29:55Z</time>
      </trkpt>
      <trkpt lat="41.152661014348269" lon="-7.782526016235352">
        <ele>72.719999999999999</ele>
        <time>2025-05-03T10:30:00Z</time>
      </trkpt>
      <trkpt lat="41.15262103267014" lon="-7.782606985419989">
        <ele>73.200000000000003</ele>
        <time>2025-05-03T10:30:01Z</time>
      </trkpt>
      <trkpt lat="41.152574010193348" lon="-7.782723996788263">
        <ele>73.200000000000003</ele>
        <time>2025-05-03T10:30:02Z</time>
      </trkpt>
      <trkpt lat="41.152524976059794" lon="-7.782846037298441">
        <ele>73.200000000000003</ele>
        <time>2025-05-03T10:30:03Z</time>
      </trkpt>
      <trkpt lat="41.152474014088511" lon="-7.78297402895987">
        <ele>73.680000000000007</ele>
        <time>2025-05-03T10:30:04Z</time>
      </trkpt>
      <trkpt lat="41.152421040460467" lon="-7.78310596011579">
        <ele>73.680000000000007</ele>
        <time>2025-05-03T10:30:05Z</time>
      </trkpt>
      <trkpt lat="41.151859033852816" lon="-7.784109022468329">
        <ele>72.719999999999999</ele>
        <time>2025-05-03T10:30:14Z</time>
      </trkpt>
      <trkpt lat="41.15180597640574" lon="-7.784252017736435">
        <ele>72.719999999999999</ele>
        <time>2025-05-03T10:30:15Z</time>
      </trkpt>
      <trkpt lat="41.151812011376023" lon="-7.784356959164143">
        <ele>72.719999999999999</ele>
        <time>2025-05-03T10:30:16Z</time>
      </trkpt>
      <trkpt lat="41.151817962527275" lon="-7.784460978582501">
        <ele>72.719999999999999</ele>
        <time>2025-05-03T10:30:17Z</time>
      </trkpt>
      <trkpt lat="41.15189298056066" lon="-7.784611014649272">
        <ele>72.719999999999999</ele>
        <time>2025-05-03T10:30:18Z</time>
      </trkpt>
      <trkpt lat="41.151952994987369" lon="-7.78464999049902">
        <ele>72.719999999999999</ele>
        <time>2025-05-03T10:30:19Z</time>
      </trkpt>
      <trkpt lat="41.152070006355643" lon="-7.784661976620555">
        <ele>72.719999999999999</ele>
        <time>2025-05-03T10:30:20Z</time>
      </trkpt>
      <trkpt lat="41.152172014117241" lon="-7.784673040732741">
        <ele>72.719999999999999</ele>
        <time>2025-05-03T10:30:21Z</time>
      </trkpt>
      <trkpt lat="41.152283996343613" lon="-7.784684021025896">
        <ele>73.200000000000003</ele>
        <time>2025-05-03T10:30:22Z</time>
      </trkpt>
      <trkpt lat="41.152400001883507" lon="-7.784696007147431">
        <ele>73.200000000000003</ele>
        <time>2025-05-03T10:30:23Z</time>
      </trkpt>
      <trkpt lat="41.153254033997655" lon="-7.78482299298048">
        <ele>72.719999999999999</ele>
        <time>2025-05-03T10:30:31Z</time>
      </trkpt>
      <trkpt lat="41.153345983475447" lon="-7.78486599214375">
        <ele>72.719999999999999</ele>
        <time>2025-05-03T10:30:32Z</time>
      </trkpt>
      <trkpt lat="41.153427036479115" lon="-7.784925000742078">
        <ele>72.719999999999999</ele>
        <time>2025-05-03T10:30:33Z</time>
      </trkpt>
      <trkpt lat="41.153510017320514" lon="-7.785013010725379">
        <ele>72.719999999999999</ele>
        <time>2025-05-03T10:30:34Z</time>
      </trkpt>
      <trkpt lat="41.153597021475434" lon="-7.785104960203171">
        <ele>72.239999999999995</ele>
        <time>2025-05-03T10:30:35Z</time>
      </trkpt>
      <trkpt lat="41.153686037287116" lon="-7.785199005156755">
        <ele>72.239999999999995</ele>
        <time>2025-05-03T10:30:36Z</time>
      </trkpt>
      <trkpt lat="41.154324989765882" lon="-7.786111040040851">
        <ele>70.790000000000006</ele>
        <time>2025-05-03T10:30:45Z</time>
      </trkpt>
      <trkpt lat="41.154676023870707" lon="-7.786646978929639">
        <ele>71.269999999999996</ele>
        <time>2025-05-03T10:30:50Z</time>
      </trkpt>
      <trkpt lat="41.155414972454309" lon="-7.788263009861112">
        <ele>72.239999999999995</ele>
        <time>2025-05-03T10:31:02Z</time>
      </trkpt>
      <trkpt lat="41.155528966337442" lon="-7.788570038974285">
        <ele>72.239999999999995</ele>
        <time>2025-05-03T10:31:04Z</time>
      </trkpt>
      <trkpt lat="41.155581017956138" lon="-7.788728959858418">
        <ele>72.719999999999999</ele>
        <time>2025-05-03T10:31:05Z</time>
      </trkpt>
      <trkpt lat="41.155594009906054" lon="-7.788918977603316">
        <ele>72.719999999999999</ele>
        <time>2025-05-03T10:31:06Z</time>
      </trkpt>
      <trkpt lat="41.155589986592531" lon="-7.789111007004976">
        <ele>73.200000000000003</ele>
        <time>2025-05-03T10:31:07Z</time>
      </trkpt>
      <trkpt lat="41.155564002692699" lon="-7.789302030578256">
        <ele>73.680000000000007</ele>
        <time>2025-05-03T10:31:08Z</time>
      </trkpt>
      <trkpt lat="41.155496025457978" lon="-7.789475033059716">
        <ele>74.159999999999997</ele>
        <time>2025-05-03T10:31:09Z</time>
      </trkpt>
      <trkpt lat="41.155402986332774" lon="-7.789620039984584">
        <ele>74.640000000000001</ele>
        <time>2025-05-03T10:31:10Z</time>
      </trkpt>
      <trkpt lat="41.155293015763164" lon="-7.789749037474394">
        <ele>75.599999999999994</ele>
        <time>2025-05-03T10:31:11Z</time>
      </trkpt>
      <trkpt lat="41.155182961374521" lon="-7.78987199999392">
        <ele>76.079999999999998</ele>
        <time>2025-05-03T10:31:12Z</time>
      </trkpt>
      <trkpt lat="41.155062010511756" lon="-7.78995799832046">
        <ele>76.560000000000002</ele>
        <time>2025-05-03T10:31:13Z</time>
      </trkpt>
      <trkpt lat="41.154639981687069" lon="-7.790256980806589">
        <ele>78.969999999999999</ele>
        <time>2025-05-03T10:31:17Z</time>
      </trkpt>
      <trkpt lat="41.154545014724135" lon="-7.790325041860342">
        <ele>79.930000000000007</ele>
        <time>2025-05-03T10:31:18Z</time>
      </trkpt>
      <trkpt lat="41.154435966163874" lon="-7.790412968024612">
        <ele>80.409999999999997</ele>
        <time>2025-05-03T10:31:19Z</time>
      </trkpt>
      <trkpt lat="41.154310991987586" lon="-7.790517993271351">
        <ele>80.890000000000001</ele>
        <time>2025-05-03T10:31:20Z</time>
      </trkpt>
      <trkpt lat="41.154177971184254" lon="-7.790628969669342">
        <ele>81.370000000000005</ele>
        <time>2025-05-03T10:31:21Z</time>
      </trkpt>
      <trkpt lat="41.154051991179585" lon="-7.790793003514409">
        <ele>82.329999999999998</ele>
        <time>2025-05-03T10:31:22Z</time>
      </trkpt>
      <trkpt lat="41.153931962326169" lon="-7.790973968803883">
        <ele>83.290000000000006</ele>
        <time>2025-05-03T10:31:23Z</time>
      </trkpt>
      <trkpt lat="41.153841018676758" lon="-7.791192987933755">
        <ele>84.730000000000004</ele>
        <time>2025-05-03T10:31:24Z</time>
      </trkpt>
      <trkpt lat="41.153756026178598" lon="-7.791403960436583">
        <ele>85.689999999999998</ele>
        <time>2025-05-03T10:31:25Z</time>
      </trkpt>
      <trkpt lat="41.15302998572588" lon="-7.79341796413064">
        <ele>95.790000000000006</ele>
        <time>2025-05-03T10:31:34Z</time>
      </trkpt>
      <trkpt lat="41.152431014925241" lon="-7.795152012258768">
        <ele>99.150000000000006</ele>
        <time>2025-05-03T10:31:42Z</time>
      </trkpt>
      <trkpt lat="41.152201015502214" lon="-7.795775961130858">
        <ele>97.230000000000004</ele>
        <time>2025-05-03T10:31:45Z</time>
      </trkpt>
      <trkpt lat="41.15208400413394" lon="-7.795947035774589">
        <ele>96.75</ele>
        <time>2025-05-03T10:31:46Z</time>
      </trkpt>
      <trkpt lat="41.151701034978032" lon="-7.796408962458372">
        <ele>93.870000000000005</ele>
        <time>2025-05-03T10:31:49Z</time>
      </trkpt>
      <trkpt lat="41.151558961719275" lon="-7.796523040160537">
        <ele>92.900000000000006</ele>
        <time>2025-05-03T10:31:50Z</time>
      </trkpt>
      <trkpt lat="41.150506027042866" lon="-7.797448989003897">
        <ele>86.180000000000007</ele>
        <time>2025-05-03T10:31:58Z</time>
      </trkpt>
      <trkpt lat="41.149744028225541" lon="-7.798661012202501">
        <ele>80.890000000000001</ele>
        <time>2025-05-03T10:32:05Z</time>
      </trkpt>
      <trkpt lat="41.148714981973171" lon="-7.800794960930944">
        <ele>71.760000000000005</ele>
        <time>2025-05-03T10:32:16Z</time>
      </trkpt>
      <trkpt lat="41.148028001189232" lon="-7.802098011597991">
        <ele>66.950000000000003</ele>
        <time>2025-05-03T10:32:24Z</time>
      </trkpt>
      <trkpt lat="41.147060981020331" lon="-7.803268041461706">
        <ele>68.390000000000001</ele>
        <time>2025-05-03T10:32:33Z</time>
      </trkpt>
      <trkpt lat="41.146083986386657" lon="-7.804700005799532">
        <ele>77.040000000000006</ele>
        <time>2025-05-03T10:32:43Z</time>
      </trkpt>
      <trkpt lat="41.145129036158323" lon="-7.806173041462898">
        <ele>88.099999999999994</ele>
        <time>2025-05-03T10:32:53Z</time>
      </trkpt>
      <trkpt lat="41.143979961052537" lon="-7.807091027498245">
        <ele>96.75</ele>
        <time>2025-05-03T10:33:01Z</time>
      </trkpt>
      <trkpt lat="41.143601015210152" lon="-7.807418005540967">
        <ele>99.629999999999995</ele>
        <time>2025-05-03T10:33:04Z</time>
      </trkpt>
      <trkpt lat="41.143508981913328" lon="-7.807568041607738">
        <ele>100.59999999999999</ele>
        <time>2025-05-03T10:33:05Z</time>
      </trkpt>
      <trkpt lat="41.143413009122014" lon="-7.807726040482521">
        <ele>101.56</ele>
        <time>2025-05-03T10:33:06Z</time>
      </trkpt>
      <trkpt lat="41.14336003549397" lon="-7.807935001328588">
        <ele>102.52</ele>
        <time>2025-05-03T10:33:07Z</time>
      </trkpt>
      <trkpt lat="41.143321981653571" lon="-7.808143962174654">
        <ele>103.48</ele>
        <time>2025-05-03T10:33:08Z</time>
      </trkpt>
      <trkpt lat="41.143283005803823" lon="-7.808357030153275">
        <ele>104.44</ele>
        <time>2025-05-03T10:33:09Z</time>
      </trkpt>
      <trkpt lat="41.143157025799155" lon="-7.808989025652409">
        <ele>107.31999999999999</ele>
        <time>2025-05-03T10:33:12Z</time>
      </trkpt>
      <trkpt lat="41.143078990280628" lon="-7.809174014255405">
        <ele>108.29000000000001</ele>
        <time>2025-05-03T10:33:13Z</time>
      </trkpt>
      <trkpt lat="41.142995003610849" lon="-7.80935799703002">
        <ele>109.25</ele>
        <time>2025-05-03T10:33:14Z</time>
      </trkpt>
      <trkpt lat="41.142857959493995" lon="-7.809495041146874">
        <ele>110.20999999999999</ele>
        <time>2025-05-03T10:33:15Z</time>
      </trkpt>
      <trkpt lat="41.142716975882649" lon="-7.80963602475822">
        <ele>111.65000000000001</ele>
        <time>2025-05-03T10:33:16Z</time>
      </trkpt>
      <trkpt lat="41.142570041120052" lon="-7.809767033904791">
        <ele>112.61</ele>
        <time>2025-05-03T10:33:17Z</time>
      </trkpt>
      <trkpt lat="41.141975009813905" lon="-7.810286963358522">
        <ele>117.90000000000001</ele>
        <time>2025-05-03T10:33:21Z</time>
      </trkpt>
      <trkpt lat="41.141855986788869" lon="-7.810466000810266">
        <ele>118.86</ele>
        <time>2025-05-03T10:33:22Z</time>
      </trkpt>
      <trkpt lat="41.141758002340794" lon="-7.810662975534797">
        <ele>120.3</ele>
        <time>2025-05-03T10:33:23Z</time>
      </trkpt>
      <trkpt lat="41.141683990135789" lon="-7.810875959694386">
        <ele>121.26000000000001</ele>
        <time>2025-05-03T10:33:24Z</time>
      </trkpt>
      <trkpt lat="41.141626993194222" lon="-7.811101013794541">
        <ele>122.70999999999999</ele>
        <time>2025-05-03T10:33:25Z</time>
      </trkpt>
      <trkpt lat="41.141569996252656" lon="-7.811324978247285">
        <ele>123.67</ele>
        <time>2025-05-03T10:33:26Z</time>
      </trkpt>
      <trkpt lat="41.141236983239651" lon="-7.812333991751075">
        <ele>128.47</ele>
        <time>2025-05-03T10:33:31Z</time>
      </trkpt>
      <trkpt lat="41.140545979142189" lon="-7.813860001042485">
        <ele>134.72</ele>
        <time>2025-05-03T10:33:39Z</time>
      </trkpt>
      <trkpt lat="41.139820022508502" lon="-7.816149014979601">
        <ele>142.41</ele>
        <time>2025-05-03T10:33:49Z</time>
      </trkpt>
      <trkpt lat="41.139673003926873" lon="-7.816784027963877">
        <ele>144.81999999999999</ele>
        <time>2025-05-03T10:33:52Z</time>
      </trkpt>
      <trkpt lat="41.13966504111886" lon="-7.817000029608607">
        <ele>145.78</ele>
        <time>2025-05-03T10:33:53Z</time>
      </trkpt>
      <trkpt lat="41.139682978391647" lon="-7.817216031253338">
        <ele>146.74000000000001</ele>
        <time>2025-05-03T10:33:54Z</time>
      </trkpt>
      <trkpt lat="41.139714997261763" lon="-7.817444019019604">
        <ele>147.22</ele>
        <time>2025-05-03T10:33:55Z</time>
      </trkpt>
      <trkpt lat="41.139809964224696" lon="-7.817634036764503">
        <ele>148.18000000000001</ele>
        <time>2025-05-03T10:33:56Z</time>
      </trkpt>
      <trkpt lat="41.139927981421351" lon="-7.817808967083693">
        <ele>149.13999999999999</ele>
        <time>2025-05-03T10:33:57Z</time>
      </trkpt>
      <trkpt lat="41.140069970861077" lon="-7.817943999543786">
        <ele>149.62</ele>
        <time>2025-05-03T10:33:58Z</time>
      </trkpt>
      <trkpt lat="41.140235010534525" lon="-7.818026980385184">
        <ele>150.58000000000001</ele>
        <time>2025-05-03T10:33:59Z</time>
      </trkpt>
      <trkpt lat="41.140401978045702" lon="-7.818075008690357">
        <ele>151.06</ele>
        <time>2025-05-03T10:34:00Z</time>
      </trkpt>
      <trkpt lat="41.140572968870401" lon="-7.818055981770158">
        <ele>152.03</ele>
        <time>2025-05-03T10:34:01Z</time>
      </trkpt>
      <trkpt lat="41.140744965523481" lon="-7.818026980385184">
        <ele>152.50999999999999</ele>
        <time>2025-05-03T10:34:02Z</time>
      </trkpt>
      <trkpt lat="41.140899024903774" lon="-7.817903012037277">
        <ele>153.47</ele>
        <time>2025-05-03T10:34:03Z</time>
      </trkpt>
      <trkpt lat="41.141061969101429" lon="-7.817770997062326">
        <ele>153.94999999999999</ele>
        <time>2025-05-03T10:34:04Z</time>
      </trkpt>
      <trkpt lat="41.141224997118115" lon="-7.817632025107741">
        <ele>154.91</ele>
        <time>2025-05-03T10:34:05Z</time>
      </trkpt>
      <trkpt lat="41.142310034483671" lon="-7.816583029925823">
        <ele>160.19999999999999</ele>
        <time>2025-05-03T10:34:13Z</time>
      </trkpt>
      <trkpt lat="41.142439031973481" lon="-7.81649200245738">
        <ele>160.68000000000001</ele>
        <time>2025-05-03T10:34:14Z</time>
      </trkpt>
      <trkpt lat="41.142583033069968" lon="-7.816431988030672">
        <ele>161.16</ele>
        <time>2025-05-03T10:34:15Z</time>
      </trkpt>
      <trkpt lat="41.142725022509694" lon="-7.816421007737517">
        <ele>162.12</ele>
        <time>2025-05-03T10:34:16Z</time>
      </trkpt>
      <trkpt lat="41.142874974757433" lon="-7.816444979980588">
        <ele>162.59999999999999</ele>
        <time>2025-05-03T10:34:17Z</time>
      </trkpt>
      <trkpt lat="41.143047977238894" lon="-7.8164719697088">
        <ele>163.08000000000001</ele>
        <time>2025-05-03T10:34:18Z</time>
      </trkpt>
      <trkpt lat="41.143154008314013" lon="-7.816551011055708">
        <ele>163.56</ele>
        <time>2025-05-03T10:34:19Z</time>
      </trkpt>
      <trkpt lat="41.143262973055243" lon="-7.816671961918473">
        <ele>164.03999999999999</ele>
        <time>2025-05-03T10:34:20Z</time>
      </trkpt>
      <trkpt lat="41.143359029665589" lon="-7.816827027127147">
        <ele>164.52000000000001</ele>
        <time>2025-05-03T10:34:21Z</time>
      </trkpt>
      <trkpt lat="41.143420971930027" lon="-7.817002963274717">
        <ele>165</ele>
        <time>2025-05-03T10:34:22Z</time>
      </trkpt>
      <trkpt lat="41.143466988578439" lon="-7.81720002181828">
        <ele>165.47999999999999</ele>
        <time>2025-05-03T10:34:23Z</time>
      </trkpt>
      <trkpt lat="41.143485009670258" lon="-7.817404959350824">
        <ele>165.96000000000001</ele>
        <time>2025-05-03T10:34:24Z</time>
      </trkpt>
      <trkpt lat="41.143495989963412" lon="-7.817619033157826">
        <ele>166.44999999999999</ele>
        <time>2025-05-03T10:34:25Z</time>
      </trkpt>
      <trkpt lat="41.143504958599806" lon="-7.817837968468666">
        <ele>167.41</ele>
        <time>2025-05-03T10:34:26Z</time>
      </trkpt>
      <trkpt lat="41.14351199939847" lon="-7.81806000508368">
        <ele>168.37</ele>
        <time>2025-05-03T10:34:27Z</time>
      </trkpt>
      <trkpt lat="41.143672009930015" lon="-7.819947022944689">
        <ele>174.62</ele>
        <time>2025-05-03T10:34:35Z</time>
      </trkpt>
      <trkpt lat="41.143737975507975" lon="-7.820165958255529">
        <ele>175.09999999999999</ele>
        <time>2025-05-03T10:34:36Z</time>
      </trkpt>
      <trkpt lat="41.144271986559033" lon="-7.822222961112857">
        <ele>183.27000000000001</ele>
        <time>2025-05-03T10:34:45Z</time>
      </trkpt>
      <trkpt lat="41.144493017345667" lon="-7.823657020926476">
        <ele>189.03999999999999</ele>
        <time>2025-05-03T10:34:51Z</time>
      </trkpt>
      <trkpt lat="41.144555965438485" lon="-7.82388299703598">
        <ele>190</ele>
        <time>2025-05-03T10:34:52Z</time>
      </trkpt>
      <trkpt lat="41.144655961543322" lon="-7.824087012559176">
        <ele>190.47999999999999</ele>
        <time>2025-05-03T10:34:53Z</time>
      </trkpt>
      <trkpt lat="41.144766015931964" lon="-7.824279963970184">
        <ele>190.96000000000001</ele>
        <time>2025-05-03T10:34:54Z</time>
      </trkpt>
      <trkpt lat="41.144894007593393" lon="-7.824450032785535">
        <ele>191.44</ele>
        <time>2025-05-03T10:34:55Z</time>
      </trkpt>
      <trkpt lat="41.145042032003403" lon="-7.824587998911738">
        <ele>192.40000000000001</ele>
        <time>2025-05-03T10:34:56Z</time>
      </trkpt>
      <trkpt lat="41.145192990079522" lon="-7.824727976694703">
        <ele>192.88</ele>
        <time>2025-05-03T10:34:57Z</time>
      </trkpt>
      <trkpt lat="41.145476968958974" lon="-7.825011033564806">
        <ele>194.80000000000001</ele>
        <time>2025-05-03T10:34:59Z</time>
      </trkpt>
      <trkpt lat="41.145604038611054" lon="-7.825180012732744">
        <ele>195.77000000000001</ele>
        <time>2025-05-03T10:35:00Z</time>
      </trkpt>
      <trkpt lat="41.145722977817059" lon="-7.825361983850598">
        <ele>197.21000000000001</ele>
        <time>2025-05-03T10:35:01Z</time>
      </trkpt>
      <trkpt lat="41.145826997235417" lon="-7.825569016858935">
        <ele>198.16999999999999</ele>
        <time>2025-05-03T10:35:02Z</time>
      </trkpt>
      <trkpt lat="41.145902015268803" lon="-7.825789041817188">
        <ele>199.13</ele>
        <time>2025-05-03T10:35:03Z</time>
      </trkpt>
      <trkpt lat="41.145947026088834" lon="-7.826028009876609">
        <ele>200.09</ele>
        <time>2025-05-03T10:35:04Z</time>
      </trkpt>
      <trkpt lat="41.14596102386713" lon="-7.826262032613158">
        <ele>201.05000000000001</ele>
        <time>2025-05-03T10:35:05Z</time>
      </trkpt>
      <trkpt lat="41.145951971411705" lon="-7.826501000672579">
        <ele>202.00999999999999</ele>
        <time>2025-05-03T10:35:06Z</time>
      </trkpt>
      <trkpt lat="41.145935961976647" lon="-7.826734017580748">
        <ele>202.97999999999999</ele>
        <time>2025-05-03T10:35:07Z</time>
      </trkpt>
      <trkpt lat="41.145890029147267" lon="-7.826970973983407">
        <ele>203.94</ele>
        <time>2025-05-03T10:35:08Z</time>
      </trkpt>
      <trkpt lat="41.145605966448784" lon="-7.828300008550286">
        <ele>210.66999999999999</ele>
        <time>2025-05-03T10:35:14Z</time>
      </trkpt>
      <trkpt lat="41.145515022799373" lon="-7.828470999374986">
        <ele>211.63</ele>
        <time>2025-05-03T10:35:15Z</time>
      </trkpt>
      <trkpt lat="41.145414020866156" lon="-7.828650958836079">
        <ele>212.59</ele>
        <time>2025-05-03T10:35:16Z</time>
      </trkpt>
      <trkpt lat="41.145283011719584" lon="-7.828775011003017">
        <ele>213.06999999999999</ele>
        <time>2025-05-03T10:35:17Z</time>
      </trkpt>
      <trkpt lat="41.145150996744633" lon="-7.828895961865783">
        <ele>213.55000000000001</ele>
        <time>2025-05-03T10:35:18Z</time>
      </trkpt>
      <trkpt lat="41.14497497677803" lon="-7.828969974070787">
        <ele>214.03</ele>
        <time>2025-05-03T10:35:19Z</time>
      </trkpt>
      <trkpt lat="41.144797028973699" lon="-7.829043986275792">
        <ele>214.03</ele>
        <time>2025-05-03T10:35:20Z</time>
      </trkpt>
      <trkpt lat="41.144614974036813" lon="-7.829120010137558">
        <ele>214.50999999999999</ele>
        <time>2025-05-03T10:35:21Z</time>
      </trkpt>
      <trkpt lat="41.143946014344692" lon="-7.829407006502152">
        <ele>215.47</ele>
        <time>2025-05-03T10:35:25Z</time>
      </trkpt>
      <trkpt lat="41.143821040168405" lon="-7.829497028142214">
        <ele>215.94999999999999</ele>
        <time>2025-05-03T10:35:26Z</time>
      </trkpt>
      <trkpt lat="41.143711991608143" lon="-7.829632982611656">
        <ele>216.43000000000001</ele>
        <time>2025-05-03T10:35:27Z</time>
      </trkpt>
      <trkpt lat="41.143636973574758" lon="-7.829759968444705">
        <ele>216.43000000000001</ele>
        <time>2025-05-03T10:35:28Z</time>
      </trkpt>
      <trkpt lat="41.14359799772501" lon="-7.829915033653379">
        <ele>216.91</ele>
        <time>2025-05-03T10:35:29Z</time>
      </trkpt>
      <trkpt lat="41.143594980239868" lon="-7.83006900921464">
        <ele>217.40000000000001</ele>
        <time>2025-05-03T10:35:30Z</time>
      </trkpt>
      <trkpt lat="41.143605960533023" lon="-7.830184008926153">
        <ele>217.88</ele>
        <time>2025-05-03T10:35:31Z</time>
      </trkpt>
      <trkpt lat="41.143678966909647" lon="-7.830389030277729">
        <ele>217.88</ele>
        <time>2025-05-03T10:35:32Z</time>
      </trkpt>
      <trkpt lat="41.143739987164736" lon="-7.830558009445667">
        <ele>218.36000000000001</ele>
        <time>2025-05-03T10:35:33Z</time>
      </trkpt>
      <trkpt lat="41.143836965784431" lon="-7.830720031633973">
        <ele>218.36000000000001</ele>
        <time>2025-05-03T10:35:34Z</time>
      </trkpt>
      <trkpt lat="41.143934028223157" lon="-7.830882975831628">
        <ele>218.36000000000001</ele>
        <time>2025-05-03T10:35:35Z</time>
      </trkpt>
      <trkpt lat="41.144112981855869" lon="-7.831184975802898">
        <ele>218.84</ele>
        <time>2025-05-03T10:35:37Z</time>
      </trkpt>
      <trkpt lat="41.144169978797436" lon="-7.83135898411274">
        <ele>218.84</ele>
        <time>2025-05-03T10:35:38Z</time>
      </trkpt>
      <trkpt lat="41.144185988232493" lon="-7.8315510135144">
        <ele>218.84</ele>
        <time>2025-05-03T10:35:39Z</time>
      </trkpt>
      <trkpt lat="41.144182970747352" lon="-7.831741031259298">
        <ele>219.31999999999999</ele>
        <time>2025-05-03T10:35:40Z</time>
      </trkpt>
      <trkpt lat="41.144119016826153" lon="-7.831915961578488">
        <ele>219.31999999999999</ele>
        <time>2025-05-03T10:35:41Z</time>
      </trkpt>
      <trkpt lat="41.144024971872568" lon="-7.832083012908697">
        <ele>219.80000000000001</ele>
        <time>2025-05-03T10:35:42Z</time>
      </trkpt>
      <trkpt lat="41.143910977989435" lon="-7.832247968763113">
        <ele>220.28</ele>
        <time>2025-05-03T10:35:43Z</time>
      </trkpt>
      <trkpt lat="41.143777035176754" lon="-7.832403033971787">
        <ele>220.75999999999999</ele>
        <time>2025-05-03T10:35:44Z</time>
      </trkpt>
      <trkpt lat="41.142610022798181" lon="-7.833757968619466">
        <ele>225.09</ele>
        <time>2025-05-03T10:35:52Z</time>
      </trkpt>
      <trkpt lat="41.14248001947999" lon="-7.833930971100926">
        <ele>225.56999999999999</ele>
        <time>2025-05-03T10:35:53Z</time>
      </trkpt>
      <trkpt lat="41.142396032810211" lon="-7.834107996895909">
        <ele>226.05000000000001</ele>
        <time>2025-05-03T10:35:54Z</time>
      </trkpt>
      <trkpt lat="41.142338030040264" lon="-7.834304971620441">
        <ele>226.53</ele>
        <time>2025-05-03T10:35:55Z</time>
      </trkpt>
      <trkpt lat="41.142281033098698" lon="-7.834502030164003">
        <ele>227.00999999999999</ele>
        <time>2025-05-03T10:35:56Z</time>
      </trkpt>
      <trkpt lat="41.142276003956795" lon="-7.834693975746632">
        <ele>227.49000000000001</ele>
        <time>2025-05-03T10:35:57Z</time>
      </trkpt>
      <trkpt lat="41.142276003956795" lon="-7.834915006533265">
        <ele>227.97</ele>
        <time>2025-05-03T10:35:58Z</time>
      </trkpt>
      <trkpt lat="41.142312968149781" lon="-7.835122961550951">
        <ele>228.44999999999999</ele>
        <time>2025-05-03T10:35:59Z</time>
      </trkpt>
      <trkpt lat="41.142374994233251" lon="-7.835318008437753">
        <ele>228.93000000000001</ele>
        <time>2025-05-03T10:36:00Z</time>
      </trkpt>
      <trkpt lat="41.142471972852945" lon="-7.835510037839413">
        <ele>229.41</ele>
        <time>2025-05-03T10:36:01Z</time>
      </trkpt>
      <trkpt lat="41.142560988664627" lon="-7.835689997300506">
        <ele>229.88999999999999</ele>
        <time>2025-05-03T10:36:02Z</time>
      </trkpt>
      <trkpt lat="41.142668025568128" lon="-7.835814971476793">
        <ele>230.84999999999999</ele>
        <time>2025-05-03T10:36:03Z</time>
      </trkpt>
      <trkpt lat="41.142816971987486" lon="-7.835927037522197">
        <ele>230.84999999999999</ele>
        <time>2025-05-03T10:36:04Z</time>
      </trkpt>
      <trkpt lat="41.14297597669065" lon="-7.836026027798653">
        <ele>231.33000000000001</ele>
        <time>2025-05-03T10:36:05Z</time>
      </trkpt>
      <trkpt lat="41.143158031627536" lon="-7.836056035012007">
        <ele>231.81</ele>
        <time>2025-05-03T10:36:06Z</time>
      </trkpt>
      <trkpt lat="41.143333967775106" lon="-7.836083024740219">
        <ele>232.30000000000001</ele>
        <time>2025-05-03T10:36:07Z</time>
      </trkpt>
      <trkpt lat="41.143508981913328" lon="-7.836045976728201">
        <ele>232.78</ele>
        <time>2025-05-03T10:36:08Z</time>
      </trkpt>
      <trkpt lat="41.143679972738028" lon="-7.835990991443396">
        <ele>233.25999999999999</ele>
        <time>2025-05-03T10:36:09Z</time>
      </trkpt>
      <trkpt lat="41.143832020461559" lon="-7.835905998945236">
        <ele>233.74000000000001</ele>
        <time>2025-05-03T10:36:10Z</time>
      </trkpt>
      <trkpt lat="41.14424399100244" lon="-7.835675999522209">
        <ele>235.66</ele>
        <time>2025-05-03T10:36:13Z</time>
      </trkpt>
      <trkpt lat="41.144388997927308" lon="-7.835611961781979">
        <ele>236.62</ele>
        <time>2025-05-03T10:36:14Z</time>
      </trkpt>
      <trkpt lat="41.144541967660189" lon="-7.835607016459107">
        <ele>237.58000000000001</ele>
        <time>2025-05-03T10:36:15Z</time>
      </trkpt>
      <trkpt lat="41.14576899446547" lon="-7.835550019517541">
        <ele>243.83000000000001</ele>
        <time>2025-05-03T10:36:23Z</time>
      </trkpt>
      <trkpt lat="41.145914001390338" lon="-7.835478018969297">
        <ele>244.78999999999999</ele>
        <time>2025-05-03T10:36:24Z</time>
      </trkpt>
      <trkpt lat="41.146074011921883" lon="-7.835397971794009">
        <ele>245.75</ele>
        <time>2025-05-03T10:36:25Z</time>
      </trkpt>
      <trkpt lat="41.146183982491493" lon="-7.835261011496186">
        <ele>246.72</ele>
        <time>2025-05-03T10:36:26Z</time>
      </trkpt>
      <trkpt lat="41.146303005516529" lon="-7.835111981257796">
        <ele>248.16</ele>
        <time>2025-05-03T10:36:27Z</time>
      </trkpt>
      <trkpt lat="41.146411970257759" lon="-7.834954988211393">
        <ele>249.59999999999999</ele>
        <time>2025-05-03T10:36:28Z</time>
      </trkpt>
      <trkpt lat="41.14651900716126" lon="-7.834793971851468">
        <ele>250.56</ele>
        <time>2025-05-03T10:36:29Z</time>
      </trkpt>
      <trkpt lat="41.14671497605741" lon="-7.834501024335623">
        <ele>253.93000000000001</ele>
        <time>2025-05-03T10:36:31Z</time>
      </trkpt>
      <trkpt lat="41.146826958283782" lon="-7.834405973553658">
        <ele>255.37</ele>
        <time>2025-05-03T10:36:32Z</time>
      </trkpt>
      <trkpt lat="41.146947992965579" lon="-7.834357023239136">
        <ele>256.81</ele>
        <time>2025-05-03T10:36:33Z</time>
      </trkpt>
      <trkpt lat="41.147074978798628" lon="-7.834375966340303">
        <ele>257.76999999999998</ele>
        <time>2025-05-03T10:36:34Z</time>
      </trkpt>
      <trkpt lat="41.147189978510141" lon="-7.834411002695561">
        <ele>259.20999999999998</ele>
        <time>2025-05-03T10:36:35Z</time>
      </trkpt>
      <trkpt lat="41.147272037342191" lon="-7.83453899435699">
        <ele>260.64999999999998</ele>
        <time>2025-05-03T10:36:36Z</time>
      </trkpt>
      <trkpt lat="41.147353006526828" lon="-7.834664974361658">
        <ele>262.57999999999998</ele>
        <time>2025-05-03T10:36:37Z</time>
      </trkpt>
      <trkpt lat="41.147388964891434" lon="-7.834806041792035">
        <ele>264.01999999999998</ele>
        <time>2025-05-03T10:36:38Z</time>
      </trkpt>
      <trkpt lat="41.14740002900362" lon="-7.834964962676168">
        <ele>264.98000000000002</ele>
        <time>2025-05-03T10:36:39Z</time>
      </trkpt>
      <trkpt lat="41.14737899042666" lon="-7.835102006793022">
        <ele>265.94</ele>
        <time>2025-05-03T10:36:40Z</time>
      </trkpt>
      <trkpt lat="41.147317970171571" lon="-7.835268974304199">
        <ele>266.89999999999998</ele>
        <time>2025-05-03T10:36:41Z</time>
      </trkpt>
      <trkpt lat="41.147234989330173" lon="-7.835380034521222">
        <ele>268.35000000000002</ele>
        <time>2025-05-03T10:36:42Z</time>
      </trkpt>
      <trkpt lat="41.147147985175252" lon="-7.835496040061116">
        <ele>268.82999999999998</ele>
        <time>2025-05-03T10:36:43Z</time>
      </trkpt>
      <trkpt lat="41.147070033475757" lon="-7.835599975660443">
        <ele>269.79000000000002</ele>
        <time>2025-05-03T10:36:44Z</time>
      </trkpt>
      <trkpt lat="41.146922009065747" lon="-7.835792005062103">
        <ele>271.23000000000002</ele>
        <time>2025-05-03T10:36:46Z</time>
      </trkpt>
      <trkpt lat="41.146869035437703" lon="-7.835898036137223">
        <ele>271.70999999999998</ele>
        <time>2025-05-03T10:36:47Z</time>
      </trkpt>
      <trkpt lat="41.14682000130415" lon="-7.836005995050073">
        <ele>272.19</ele>
        <time>2025-05-03T10:36:48Z</time>
      </trkpt>
      <trkpt lat="41.146789994090796" lon="-7.836122000589967">
        <ele>273.14999999999998</ele>
        <time>2025-05-03T10:36:49Z</time>
      </trkpt>
      <trkpt lat="41.146774990484118" lon="-7.836244041100144">
        <ele>273.63</ele>
        <time>2025-05-03T10:36:50Z</time>
      </trkpt>
      <trkpt lat="41.146764010190964" lon="-7.836370021104813">
        <ele>274.11000000000001</ele>
        <time>2025-05-03T10:36:51Z</time>
      </trkpt>
      <trkpt lat="41.146759986877441" lon="-7.83679598942399">
        <ele>276.04000000000002</ele>
        <time>2025-05-03T10:36:54Z</time>
      </trkpt>
      <trkpt lat="41.146768033504486" lon="-7.836965974420309">
        <ele>276.04000000000002</ele>
        <time>2025-05-03T10:36:55Z</time>
      </trkpt>
      <trkpt lat="41.146844979375601" lon="-7.838592985644937">
        <ele>274.58999999999997</ele>
        <time>2025-05-03T10:37:03Z</time>
      </trkpt>
      <trkpt lat="41.14688403904438" lon="-7.839021971449256">
        <ele>274.11000000000001</ele>
        <time>2025-05-03T10:37:05Z</time>
      </trkpt>
      <trkpt lat="41.146902982145548" lon="-7.839218024164438">
        <ele>273.63</ele>
        <time>2025-05-03T10:37:06Z</time>
      </trkpt>
      <trkpt lat="41.146967019885778" lon="-7.839399995282292">
        <ele>272.67000000000002</ele>
        <time>2025-05-03T10:37:07Z</time>
      </trkpt>
      <trkpt lat="41.147051006555557" lon="-7.839543996378779">
        <ele>272.19</ele>
        <time>2025-05-03T10:37:08Z</time>
      </trkpt>
      <trkpt lat="41.147154020145535" lon="-7.839640974998474">
        <ele>271.70999999999998</ele>
        <time>2025-05-03T10:37:09Z</time>
      </trkpt>
      <trkpt lat="41.147261979058385" lon="-7.839691014960408">
        <ele>271.23000000000002</ele>
        <time>2025-05-03T10:37:10Z</time>
      </trkpt>
      <trkpt lat="41.14737999625504" lon="-7.839695038273931">
        <ele>271.23000000000002</ele>
        <time>2025-05-03T10:37:11Z</time>
      </trkpt>
      <trkpt lat="41.147500025108457" lon="-7.839699983596802">
        <ele>270.75</ele>
        <time>2025-05-03T10:37:12Z</time>
      </trkpt>
      <trkpt lat="41.147731030359864" lon="-7.839708030223846">
        <ele>270.26999999999998</ele>
        <time>2025-05-03T10:37:14Z</time>
      </trkpt>
      <trkpt lat="41.147839995101094" lon="-7.839722028002143">
        <ele>269.79000000000002</ele>
        <time>2025-05-03T10:37:15Z</time>
      </trkpt>
      <trkpt lat="41.148640969768167" lon="-7.840113965794444">
        <ele>272.67000000000002</ele>
        <time>2025-05-03T10:37:23Z</time>
      </trkpt>
      <trkpt lat="41.148724034428596" lon="-7.840214967727661">
        <ele>273.14999999999998</ele>
        <time>2025-05-03T10:37:24Z</time>
      </trkpt>
      <trkpt lat="41.148820007219911" lon="-7.840332984924316">
        <ele>274.11000000000001</ele>
        <time>2025-05-03T10:37:25Z</time>
      </trkpt>
      <trkpt lat="41.148830987513065" lon="-7.840486960485578">
        <ele>275.06999999999999</ele>
        <time>2025-05-03T10:37:26Z</time>
      </trkpt>
      <trkpt lat="41.148840961977839" lon="-7.840659040957689">
        <ele>276.04000000000002</ele>
        <time>2025-05-03T10:37:27Z</time>
      </trkpt>
      <trkpt lat="41.148822018876672" lon="-7.840837994590402">
        <ele>276.51999999999998</ele>
        <time>2025-05-03T10:37:28Z</time>
      </trkpt>
      <trkpt lat="41.148772984743118" lon="-7.841019965708256">
        <ele>277.48000000000002</ele>
        <time>2025-05-03T10:37:29Z</time>
      </trkpt>
      <trkpt lat="41.148723028600216" lon="-7.841205960139632">
        <ele>277.95999999999998</ele>
        <time>2025-05-03T10:37:30Z</time>
      </trkpt>
      <trkpt lat="41.148657985031605" lon="-7.841397989541292">
        <ele>278.92000000000002</ele>
        <time>2025-05-03T10:37:31Z</time>
      </trkpt>
      <trkpt lat="41.148321032524109" lon="-7.842331985011697">
        <ele>282.76999999999998</ele>
        <time>2025-05-03T10:37:36Z</time>
      </trkpt>
      <trkpt lat="41.148210978135467" lon="-7.842841017991304">
        <ele>284.20999999999998</ele>
        <time>2025-05-03T10:37:39Z</time>
      </trkpt>
      <trkpt lat="41.148092960938811" lon="-7.84457297064364">
        <ele>285.17000000000002</ele>
        <time>2025-05-03T10:37:48Z</time>
      </trkpt>
      <trkpt lat="41.148098995909095" lon="-7.844755025580525">
        <ele>285.17000000000002</ele>
        <time>2025-05-03T10:37:49Z</time>
      </trkpt>
      <trkpt lat="41.14810997620225" lon="-7.844930961728096">
        <ele>285.17000000000002</ele>
        <time>2025-05-03T10:37:50Z</time>
      </trkpt>
      <trkpt lat="41.148164961487055" lon="-7.845077980309725">
        <ele>285.64999999999998</ele>
        <time>2025-05-03T10:37:51Z</time>
      </trkpt>
      <trkpt lat="41.14823897369206" lon="-7.845232039690018">
        <ele>285.64999999999998</ele>
        <time>2025-05-03T10:37:52Z</time>
      </trkpt>
      <trkpt lat="41.148310974240303" lon="-7.845384003594518">
        <ele>285.64999999999998</ele>
        <time>2025-05-03T10:37:53Z</time>
      </trkpt>
      <trkpt lat="41.148423040285707" lon="-7.845705030485988">
        <ele>285.64999999999998</ele>
        <time>2025-05-03T10:37:55Z</time>
      </trkpt>
      <trkpt lat="41.148446006700397" lon="-7.845877027139068">
        <ele>285.64999999999998</ele>
        <time>2025-05-03T10:37:56Z</time>
      </trkpt>
      <trkpt lat="41.148446006700397" lon="-7.846064027398825">
        <ele>285.64999999999998</ele>
        <time>2025-05-03T10:37:57Z</time>
      </trkpt>
      <trkpt lat="41.148420022800565" lon="-7.846247004345059">
        <ele>286.13</ele>
        <time>2025-05-03T10:37:58Z</time>
      </trkpt>
      <trkpt lat="41.148394038900733" lon="-7.846429981291294">
        <ele>286.13</ele>
        <time>2025-05-03T10:37:59Z</time>
      </trkpt>
      <trkpt lat="41.148323966190219" lon="-7.846606001257896">
        <ele>286.61000000000001</ele>
        <time>2025-05-03T10:38:00Z</time>
      </trkpt>
      <trkpt lat="41.148251965641975" lon="-7.846774980425835">
        <ele>286.61000000000001</ele>
        <time>2025-05-03T10:38:01Z</time>
      </trkpt>
      <trkpt lat="41.148034958168864" lon="-7.847308991476893">
        <ele>287.56999999999999</ele>
        <time>2025-05-03T10:38:04Z</time>
      </trkpt>
      <trkpt lat="41.147923981770873" lon="-7.847442012280226">
        <ele>287.56999999999999</ele>
        <time>2025-05-03T10:38:05Z</time>
      </trkpt>
      <trkpt lat="41.14780998788774" lon="-7.847552988678217">
        <ele>287.56999999999999</ele>
        <time>2025-05-03T10:38:06Z</time>
      </trkpt>
      <trkpt lat="41.147673027589917" lon="-7.847616020590067">
        <ele>288.05000000000001</ele>
        <time>2025-05-03T10:38:07Z</time>
      </trkpt>
      <trkpt lat="41.147537995129824" lon="-7.847659019753337">
        <ele>288.52999999999997</ele>
        <time>2025-05-03T10:38:08Z</time>
      </trkpt>
      <trkpt lat="41.147393994033337" lon="-7.847678968682885">
        <ele>289.00999999999999</ele>
        <time>2025-05-03T10:38:09Z</time>
      </trkpt>
      <trkpt lat="41.147027034312487" lon="-7.847767984494567">
        <ele>289.97000000000003</ele>
        <time>2025-05-03T10:38:12Z</time>
      </trkpt>
      <trkpt lat="41.146954027935863" lon="-7.847800003364682">
        <ele>290.45999999999998</ele>
        <time>2025-05-03T10:38:13Z</time>
      </trkpt>
      <trkpt lat="41.146915974095464" lon="-7.847934029996395">
        <ele>290.45999999999998</ele>
        <time>2025-05-03T10:38:14Z</time>
      </trkpt>
      <trkpt lat="41.146911028772593" lon="-7.848040983080864">
        <ele>290.45999999999998</ele>
        <time>2025-05-03T10:38:15Z</time>
      </trkpt>
      <trkpt lat="41.146911028772593" lon="-7.848208034411073">
        <ele>290.94</ele>
        <time>2025-05-03T10:38:16Z</time>
      </trkpt>
      <trkpt lat="41.146930977702141" lon="-7.848353963345289">
        <ele>290.94</ele>
        <time>2025-05-03T10:38:17Z</time>
      </trkpt>
      <trkpt lat="41.147132981568575" lon="-7.849708981812">
        <ele>291.89999999999998</ele>
        <time>2025-05-03T10:38:24Z</time>
      </trkpt>
      <trkpt lat="41.147155025973916" lon="-7.849873015657067">
        <ele>291.89999999999998</ele>
        <time>2025-05-03T10:38:25Z</time>
      </trkpt>
      <trkpt lat="41.147268014028668" lon="-7.850616993382573">
        <ele>291.89999999999998</ele>
        <time>2025-05-03T10:38:30Z</time>
      </trkpt>
      <trkpt lat="41.147563979029655" lon="-7.851702030748129">
        <ele>294.30000000000001</ele>
        <time>2025-05-03T10:38:37Z</time>
      </trkpt>
      <trkpt lat="41.147597003728151" lon="-7.851833961904049">
        <ele>294.77999999999997</ele>
        <time>2025-05-03T10:38:38Z</time>
      </trkpt>
      <trkpt lat="41.147570013999939" lon="-7.851990032941103">
        <ele>295.25999999999999</ele>
        <time>2025-05-03T10:38:39Z</time>
      </trkpt>
      <trkpt lat="41.147543024271727" lon="-7.852141996845603">
        <ele>295.74000000000001</ele>
        <time>2025-05-03T10:38:40Z</time>
      </trkpt>
      <trkpt lat="41.14748502150178" lon="-7.852277029305697">
        <ele>295.74000000000001</ele>
        <time>2025-05-03T10:38:41Z</time>
      </trkpt>
      <trkpt lat="41.147403968498111" lon="-7.852407032623887">
        <ele>295.74000000000001</ele>
        <time>2025-05-03T10:38:42Z</time>
      </trkpt>
      <trkpt lat="41.146835004910827" lon="-7.853257041424513">
        <ele>295.74000000000001</ele>
        <time>2025-05-03T10:38:49Z</time>
      </trkpt>
      <trkpt lat="41.146750012412667" lon="-7.853331975638866">
        <ele>295.74000000000001</ele>
        <time>2025-05-03T10:38:50Z</time>
      </trkpt>
      <trkpt lat="41.146680023521185" lon="-7.853383021429181">
        <ele>295.74000000000001</ele>
        <time>2025-05-03T10:38:51Z</time>
      </trkpt>
      <trkpt lat="41.146591007709503" lon="-7.853401964530349">
        <ele>295.25999999999999</ele>
        <time>2025-05-03T10:38:52Z</time>
      </trkpt>
      <trkpt lat="41.14649998024106" lon="-7.853420991450548">
        <ele>295.25999999999999</ele>
        <time>2025-05-03T10:38:53Z</time>
      </trkpt>
      <trkpt lat="41.146395960822701" lon="-7.85344404168427">
        <ele>295.25999999999999</ele>
        <time>2025-05-03T10:38:54Z</time>
      </trkpt>
      <trkpt lat="41.146311974152923" lon="-7.853456027805805">
        <ele>295.25999999999999</ele>
        <time>2025-05-03T10:38:55Z</time>
      </trkpt>
      <trkpt lat="41.146217007189989" lon="-7.853471031412482">
        <ele>295.25999999999999</ele>
        <time>2025-05-03T10:38:56Z</time>
      </trkpt>
      <trkpt lat="41.145147979259491" lon="-7.853400958701968">
        <ele>293.81999999999999</ele>
        <time>2025-05-03T10:39:07Z</time>
      </trkpt>
      <trkpt lat="41.144657973200083" lon="-7.853357959538698">
        <ele>291.89999999999998</ele>
        <time>2025-05-03T10:39:12Z</time>
      </trkpt>
      <trkpt lat="41.144583038985729" lon="-7.853395007550716">
        <ele>291.42000000000002</ele>
        <time>2025-05-03T10:39:13Z</time>
      </trkpt>
      <trkpt lat="41.144516989588737" lon="-7.853470025584102">
        <ele>290.94</ele>
        <time>2025-05-03T10:39:14Z</time>
      </trkpt>
      <trkpt lat="41.144462004303932" lon="-7.853544037789106">
        <ele>290.94</ele>
        <time>2025-05-03T10:39:15Z</time>
      </trkpt>
      <trkpt lat="41.144444989040494" lon="-7.853667000308633">
        <ele>290.45999999999998</ele>
        <time>2025-05-03T10:39:16Z</time>
      </trkpt>
      <trkpt lat="41.14445898681879" lon="-7.853784011676908">
        <ele>290.45999999999998</ele>
        <time>2025-05-03T10:39:17Z</time>
      </trkpt>
      <trkpt lat="41.144485976547003" lon="-7.853959025815129">
        <ele>290.45999999999998</ele>
        <time>2025-05-03T10:39:18Z</time>
      </trkpt>
      <trkpt lat="41.144526964053512" lon="-7.854030020534992">
        <ele>290.45999999999998</ele>
        <time>2025-05-03T10:39:19Z</time>
      </trkpt>
      <trkpt lat="41.144595025107265" lon="-7.854148959740996">
        <ele>290.45999999999998</ele>
        <time>2025-05-03T10:39:20Z</time>
      </trkpt>
      <trkpt lat="41.144992997869849" lon="-7.854686994105578">
        <ele>289.00999999999999</ele>
        <time>2025-05-03T10:39:25Z</time>
      </trkpt>
      <trkpt lat="41.145256021991372" lon="-7.855022018775344">
        <ele>287.56999999999999</ele>
        <time>2025-05-03T10:39:28Z</time>
      </trkpt>
      <trkpt lat="41.1453150305897" lon="-7.855166019871831">
        <ele>287.08999999999997</ele>
        <time>2025-05-03T10:39:29Z</time>
      </trkpt>
      <trkpt lat="41.145965969190001" lon="-7.856624973937869">
        <ele>283.73000000000002</ele>
        <time>2025-05-03T10:39:38Z</time>
      </trkpt>
      <trkpt lat="41.146708019077778" lon="-7.857772037386894">
        <ele>282.76999999999998</ele>
        <time>2025-05-03T10:39:45Z</time>
      </trkpt>
      <trkpt lat="41.146838022395968" lon="-7.857902962714434">
        <ele>281.80000000000001</ele>
        <time>2025-05-03T10:39:46Z</time>
      </trkpt>
      <trkpt lat="41.14699300378561" lon="-7.857983009889722">
        <ele>281.31999999999999</ele>
        <time>2025-05-03T10:39:47Z</time>
      </trkpt>
      <trkpt lat="41.147930016741157" lon="-7.858526995405555">
        <ele>276.51999999999998</ele>
        <time>2025-05-03T10:39:54Z</time>
      </trkpt>
      <trkpt lat="41.148026995360851" lon="-7.858594972640276">
        <ele>275.56</ele>
        <time>2025-05-03T10:39:55Z</time>
      </trkpt>
      <trkpt lat="41.148078963160515" lon="-7.858717013150454">
        <ele>275.06999999999999</ele>
        <time>2025-05-03T10:39:56Z</time>
      </trkpt>
      <trkpt lat="41.148101007565856" lon="-7.858852967619896">
        <ele>274.58999999999997</ele>
        <time>2025-05-03T10:39:57Z</time>
      </trkpt>
      <trkpt lat="41.148111987859011" lon="-7.858980037271977">
        <ele>274.11000000000001</ele>
        <time>2025-05-03T10:39:58Z</time>
      </trkpt>
      <trkpt lat="41.148072006180882" lon="-7.859093025326729">
        <ele>273.63</ele>
        <time>2025-05-03T10:39:59Z</time>
      </trkpt>
      <trkpt lat="41.14802397787571" lon="-7.85922696813941">
        <ele>273.14999999999998</ele>
        <time>2025-05-03T10:40:00Z</time>
      </trkpt>
      <trkpt lat="41.147949965670705" lon="-7.859354037791491">
        <ele>272.67000000000002</ele>
        <time>2025-05-03T10:40:01Z</time>
      </trkpt>
      <trkpt lat="41.147848963737488" lon="-7.859469959512353">
        <ele>272.19</ele>
        <time>2025-05-03T10:40:02Z</time>
      </trkpt>
      <trkpt lat="41.14763698540628" lon="-7.859705993905664">
        <ele>270.75</ele>
        <time>2025-05-03T10:40:04Z</time>
      </trkpt>
      <trkpt lat="41.147523997351527" lon="-7.859800038859248">
        <ele>270.26999999999998</ele>
        <time>2025-05-03T10:40:05Z</time>
      </trkpt>
      <trkpt lat="41.147391982376575" lon="-7.859866004437208">
        <ele>269.31</ele>
        <time>2025-05-03T10:40:06Z</time>
      </trkpt>
      <trkpt lat="41.147264996543527" lon="-7.859913026914001">
        <ele>268.82999999999998</ele>
        <time>2025-05-03T10:40:07Z</time>
      </trkpt>
      <trkpt lat="41.147135999053717" lon="-7.859939010813832">
        <ele>267.86000000000001</ele>
        <time>2025-05-03T10:40:08Z</time>
      </trkpt>
      <trkpt lat="41.147037008777261" lon="-7.859915038570762">
        <ele>267.38</ele>
        <time>2025-05-03T10:40:09Z</time>
      </trkpt>
      <trkpt lat="41.14692603237927" lon="-7.859864998608828">
        <ele>266.89999999999998</ele>
        <time>2025-05-03T10:40:10Z</time>
      </trkpt>
      <trkpt lat="41.146817989647388" lon="-7.8598059900105">
        <ele>266.42000000000002</ele>
        <time>2025-05-03T10:40:11Z</time>
      </trkpt>
      <trkpt lat="41.14658203907311" lon="-7.859687972813845">
        <ele>265.45999999999998</ele>
        <time>2025-05-03T10:40:13Z</time>
      </trkpt>
      <trkpt lat="41.146450024098158" lon="-7.859687972813845">
        <ele>264.5</ele>
        <time>2025-05-03T10:40:14Z</time>
      </trkpt>
      <trkpt lat="41.146309962496161" lon="-7.859694007784128">
        <ele>264.01999999999998</ele>
        <time>2025-05-03T10:40:15Z</time>
      </trkpt>
      <trkpt lat="41.146027995273471" lon="-7.859733989462256">
        <ele>263.06</ele>
        <time>2025-05-03T10:40:17Z</time>
      </trkpt>
      <trkpt lat="41.145774023607373" lon="-7.859771037474275">
        <ele>261.62</ele>
        <time>2025-05-03T10:40:19Z</time>
      </trkpt>
      <trkpt lat="41.145690036937594" lon="-7.859856029972434">
        <ele>261.13999999999999</ele>
        <time>2025-05-03T10:40:20Z</time>
      </trkpt>
      <trkpt lat="41.145622981712222" lon="-7.859944961965084">
        <ele>261.13999999999999</ele>
        <time>2025-05-03T10:40:21Z</time>
      </trkpt>
      <trkpt lat="41.145622981712222" lon="-7.860040012747049">
        <ele>260.64999999999998</ele>
        <time>2025-05-03T10:40:22Z</time>
      </trkpt>
      <trkpt lat="41.145622981712222" lon="-7.860160041600466">
        <ele>260.64999999999998</ele>
        <time>2025-05-03T10:40:23Z</time>
      </trkpt>
      <trkpt lat="41.145670004189014" lon="-7.860242016613483">
        <ele>260.17000000000002</ele>
        <time>2025-05-03T10:40:24Z</time>
      </trkpt>
      <trkpt lat="41.14574602805078" lon="-7.860332038253546">
        <ele>260.64999999999998</ele>
        <time>2025-05-03T10:40:25Z</time>
      </trkpt>
      <trkpt lat="41.145852981135249" lon="-7.860396998003125">
        <ele>260.64999999999998</ele>
        <time>2025-05-03T10:40:26Z</time>
      </trkpt>
      <trkpt lat="41.145972004160285" lon="-7.860467992722988">
        <ele>261.13999999999999</ele>
        <time>2025-05-03T10:40:27Z</time>
      </trkpt>
      <trkpt lat="41.14608901552856" lon="-7.860537981614471">
        <ele>261.13999999999999</ele>
        <time>2025-05-03T10:40:28Z</time>
      </trkpt>
      <trkpt lat="41.146196974441409" lon="-7.860606964677572">
        <ele>261.62</ele>
        <time>2025-05-03T10:40:29Z</time>
      </trkpt>
      <trkpt lat="41.146295964717865" lon="-7.860673014074564">
        <ele>261.62</ele>
        <time>2025-05-03T10:40:30Z</time>
      </trkpt>
      <trkpt lat="41.146377017721534" lon="-7.860776027664542">
        <ele>262.10000000000002</ele>
        <time>2025-05-03T10:40:31Z</time>
      </trkpt>
      <trkpt lat="41.146458992734551" lon="-7.860919022932649">
        <ele>263.06</ele>
        <time>2025-05-03T10:40:32Z</time>
      </trkpt>
      <trkpt lat="41.146538034081459" lon="-7.861059000715613">
        <ele>263.06</ele>
        <time>2025-05-03T10:40:33Z</time>
      </trkpt>
      <trkpt lat="41.146610034629703" lon="-7.861183974891901">
        <ele>264.01999999999998</ele>
        <time>2025-05-03T10:40:34Z</time>
      </trkpt>
      <trkpt lat="41.146674994379282" lon="-7.861296962946653">
        <ele>264.5</ele>
        <time>2025-05-03T10:40:35Z</time>
      </trkpt>
      <trkpt lat="41.146774990484118" lon="-7.861336022615433">
        <ele>264.98000000000002</ele>
        <time>2025-05-03T10:40:36Z</time>
      </trkpt>
      <trkpt lat="41.146880015730858" lon="-7.861377010121942">
        <ele>265.94</ele>
        <time>2025-05-03T10:40:37Z</time>
      </trkpt>
      <trkpt lat="41.146996021270752" lon="-7.861423026770353">
        <ele>266.42000000000002</ele>
        <time>2025-05-03T10:40:38Z</time>
      </trkpt>
      <trkpt lat="41.147123007103801" lon="-7.861471977084875">
        <ele>266.89999999999998</ele>
        <time>2025-05-03T10:40:39Z</time>
      </trkpt>
      <trkpt lat="41.147752990946174" lon="-7.861654032021761">
        <ele>270.75</ele>
        <time>2025-05-03T10:40:44Z</time>
      </trkpt>
      <trkpt lat="41.147854998707771" lon="-7.861726032570005">
        <ele>271.23000000000002</ele>
        <time>2025-05-03T10:40:45Z</time>
      </trkpt>
      <trkpt lat="41.147935967892408" lon="-7.861816976219416">
        <ele>272.19</ele>
        <time>2025-05-03T10:40:46Z</time>
      </trkpt>
      <trkpt lat="41.148026995360851" lon="-7.861918983981013">
        <ele>273.14999999999998</ele>
        <time>2025-05-03T10:40:47Z</time>
      </trkpt>
      <trkpt lat="41.148119028657675" lon="-7.862021997570992">
        <ele>273.63</ele>
        <time>2025-05-03T10:40:48Z</time>
      </trkpt>
      <trkpt lat="41.148207038640976" lon="-7.862119982019067">
        <ele>274.58999999999997</ele>
        <time>2025-05-03T10:40:49Z</time>
      </trkpt>
      <trkpt lat="41.148263029754162" lon="-7.862247973680496">
        <ele>275.06999999999999</ele>
        <time>2025-05-03T10:40:50Z</time>
      </trkpt>
      <trkpt lat="41.148319020867348" lon="-7.862400021404028">
        <ele>276.04000000000002</ele>
        <time>2025-05-03T10:40:51Z</time>
      </trkpt>
      <trkpt lat="41.148438965901732" lon="-7.862699003890157">
        <ele>277</ele>
        <time>2025-05-03T10:40:53Z</time>
      </trkpt>
      <trkpt lat="41.148498980328441" lon="-7.862847028300166">
        <ele>277.48000000000002</ele>
        <time>2025-05-03T10:40:54Z</time>
      </trkpt>
      <trkpt lat="41.148558994755149" lon="-7.862993963062763">
        <ele>277.95999999999998</ele>
        <time>2025-05-03T10:40:55Z</time>
      </trkpt>
      <trkpt lat="41.148636024445295" lon="-7.863111980259419">
        <ele>278.44</ele>
        <time>2025-05-03T10:40:56Z</time>
      </trkpt>
      <trkpt lat="41.148724034428596" lon="-7.863207031041384">
        <ele>279.39999999999998</ele>
        <time>2025-05-03T10:40:57Z</time>
      </trkpt>
      <trkpt lat="41.148809026926756" lon="-7.863296968862414">
        <ele>279.88</ele>
        <time>2025-05-03T10:40:58Z</time>
      </trkpt>
      <trkpt lat="41.14888496696949" lon="-7.863379027694464">
        <ele>280.83999999999997</ele>
        <time>2025-05-03T10:40:59Z</time>
      </trkpt>
      <trkpt lat="41.148950010538101" lon="-7.863477012142539">
        <ele>281.31999999999999</ele>
        <time>2025-05-03T10:41:00Z</time>
      </trkpt>
      <trkpt lat="41.1490139644593" lon="-7.863571979105473">
        <ele>281.80000000000001</ele>
        <time>2025-05-03T10:41:01Z</time>
      </trkpt>
      <trkpt lat="41.149051012471318" lon="-7.863699970766902">
        <ele>282.76999999999998</ele>
        <time>2025-05-03T10:41:02Z</time>
      </trkpt>
      <trkpt lat="41.149093005806208" lon="-7.863842966035008">
        <ele>283.25</ele>
        <time>2025-05-03T10:41:03Z</time>
      </trkpt>
      <trkpt lat="41.149166012182832" lon="-7.863981015980244">
        <ele>283.73000000000002</ele>
        <time>2025-05-03T10:41:04Z</time>
      </trkpt>
      <trkpt lat="41.149262990802526" lon="-7.864079000428319">
        <ele>284.20999999999998</ele>
        <time>2025-05-03T10:41:05Z</time>
      </trkpt>
      <trkpt lat="41.149361981078982" lon="-7.864177990704775">
        <ele>285.17000000000002</ele>
        <time>2025-05-03T10:41:06Z</time>
      </trkpt>
      <trkpt lat="41.14946398884058" lon="-7.864279998466373">
        <ele>285.64999999999998</ele>
        <time>2025-05-03T10:41:07Z</time>
      </trkpt>
      <trkpt lat="41.149559039622545" lon="-7.864384017884731">
        <ele>286.13</ele>
        <time>2025-05-03T10:41:08Z</time>
      </trkpt>
      <trkpt lat="41.149627016857266" lon="-7.864529024809599">
        <ele>287.08999999999997</ele>
        <time>2025-05-03T10:41:09Z</time>
      </trkpt>
      <trkpt lat="41.150048039853573" lon="-7.865449022501707">
        <ele>292.86000000000001</ele>
        <time>2025-05-03T10:41:16Z</time>
      </trkpt>
      <trkpt lat="41.150068994611502" lon="-7.865590006113052">
        <ele>293.81999999999999</ele>
        <time>2025-05-03T10:41:17Z</time>
      </trkpt>
      <trkpt lat="41.150146024301648" lon="-7.866814015433192">
        <ele>299.11000000000001</ele>
        <time>2025-05-03T10:41:25Z</time>
      </trkpt>
      <trkpt lat="41.150150969624519" lon="-7.866935972124338">
        <ele>299.58999999999997</ele>
        <time>2025-05-03T10:41:26Z</time>
      </trkpt>
      <trkpt lat="41.150122974067926" lon="-7.867052983492613">
        <ele>299.58999999999997</ele>
        <time>2025-05-03T10:41:27Z</time>
      </trkpt>
      <trkpt lat="41.15008600987494" lon="-7.867197990417481">
        <ele>299.58999999999997</ele>
        <time>2025-05-03T10:41:28Z</time>
      </trkpt>
      <trkpt lat="41.150029012933373" lon="-7.867296980693936">
        <ele>300.06999999999999</ele>
        <time>2025-05-03T10:41:29Z</time>
      </trkpt>
      <trkpt lat="41.149960029870272" lon="-7.867416003718972">
        <ele>300.06999999999999</ele>
        <time>2025-05-03T10:41:30Z</time>
      </trkpt>
      <trkpt lat="41.149884006008506" lon="-7.867524968460202">
        <ele>300.06999999999999</ele>
        <time>2025-05-03T10:41:31Z</time>
      </trkpt>
      <trkpt lat="41.149720977991819" lon="-7.86771398037672">
        <ele>301.02999999999997</ele>
        <time>2025-05-03T10:41:33Z</time>
      </trkpt>
      <trkpt lat="41.149610001593828" lon="-7.867800984531641">
        <ele>301.02999999999997</ele>
        <time>2025-05-03T10:41:34Z</time>
      </trkpt>
      <trkpt lat="41.148644993081689" lon="-7.868468016386032">
        <ele>304.38999999999999</ele>
        <time>2025-05-03T10:41:40Z</time>
      </trkpt>
      <trkpt lat="41.147699011489749" lon="-7.869199002161622">
        <ele>308.72000000000003</ele>
        <time>2025-05-03T10:41:46Z</time>
      </trkpt>
      <trkpt lat="41.147618964314461" lon="-7.869278965517879">
        <ele>309.19999999999999</ele>
        <time>2025-05-03T10:41:47Z</time>
      </trkpt>
      <trkpt lat="41.147605972364545" lon="-7.869421960785985">
        <ele>309.68000000000001</ele>
        <time>2025-05-03T10:41:48Z</time>
      </trkpt>
      <trkpt lat="41.14759398624301" lon="-7.869555987417698">
        <ele>310.63999999999999</ele>
        <time>2025-05-03T10:41:49Z</time>
      </trkpt>
      <trkpt lat="41.147582000121474" lon="-7.869698982685804">
        <ele>311.12</ele>
        <time>2025-05-03T10:41:50Z</time>
      </trkpt>
      <trkpt lat="41.147569008171558" lon="-7.869848012924194">
        <ele>312.08999999999997</ele>
        <time>2025-05-03T10:41:51Z</time>
      </trkpt>
      <trkpt lat="41.147556016221642" lon="-7.869996037334204">
        <ele>312.56999999999999</ele>
        <time>2025-05-03T10:41:52Z</time>
      </trkpt>
      <trkpt lat="41.147472029551864" lon="-7.87011799402535">
        <ele>313.52999999999997</ele>
        <time>2025-05-03T10:41:53Z</time>
      </trkpt>
      <trkpt lat="41.147390976548195" lon="-7.87022695876658">
        <ele>314.00999999999999</ele>
        <time>2025-05-03T10:41:54Z</time>
      </trkpt>
      <trkpt lat="41.147297015413642" lon="-7.870338018983603">
        <ele>314.97000000000003</ele>
        <time>2025-05-03T10:41:55Z</time>
      </trkpt>
      <trkpt lat="41.147197019308805" lon="-7.870450001209974">
        <ele>315.93000000000001</ele>
        <time>2025-05-03T10:41:56Z</time>
      </trkpt>
      <trkpt lat="41.146773984655738" lon="-7.870902037248015">
        <ele>318.32999999999998</ele>
        <time>2025-05-03T10:42:00Z</time>
      </trkpt>
      <trkpt lat="41.146645992994308" lon="-7.870990969240665">
        <ele>318.81</ele>
        <time>2025-05-03T10:42:01Z</time>
      </trkpt>
      <trkpt lat="41.14652001298964" lon="-7.871070010587573">
        <ele>319.30000000000001</ele>
        <time>2025-05-03T10:42:02Z</time>
      </trkpt>
      <trkpt lat="41.146399984136224" lon="-7.871114015579224">
        <ele>319.30000000000001</ele>
        <time>2025-05-03T10:42:03Z</time>
      </trkpt>
      <trkpt lat="41.146309962496161" lon="-7.871146034449339">
        <ele>319.77999999999997</ele>
        <time>2025-05-03T10:42:04Z</time>
      </trkpt>
      <trkpt lat="41.146213989704847" lon="-7.871086020022631">
        <ele>320.25999999999999</ele>
        <time>2025-05-03T10:42:05Z</time>
      </trkpt>
      <trkpt lat="41.146108964458108" lon="-7.87102097645402">
        <ele>320.25999999999999</ele>
        <time>2025-05-03T10:42:06Z</time>
      </trkpt>
      <trkpt lat="41.145996982231736" lon="-7.870950987562537">
        <ele>320.74000000000001</ele>
        <time>2025-05-03T10:42:07Z</time>
      </trkpt>
      <trkpt lat="41.145857004448771" lon="-7.870931960642338">
        <ele>320.74000000000001</ele>
        <time>2025-05-03T10:42:08Z</time>
      </trkpt>
      <trkpt lat="41.145720966160297" lon="-7.870931960642338">
        <ele>321.22000000000003</ele>
        <time>2025-05-03T10:42:09Z</time>
      </trkpt>
      <trkpt lat="41.145577970892191" lon="-7.870931960642338">
        <ele>321.69999999999999</ele>
        <time>2025-05-03T10:42:10Z</time>
      </trkpt>
      <trkpt lat="41.145443022251129" lon="-7.870905976742506">
        <ele>322.18000000000001</ele>
        <time>2025-05-03T10:42:11Z</time>
      </trkpt>
      <trkpt lat="41.145302038639784" lon="-7.870856020599604">
        <ele>322.66000000000003</ele>
        <time>2025-05-03T10:42:12Z</time>
      </trkpt>
      <trkpt lat="41.14516700617969" lon="-7.870808998122811">
        <ele>323.13999999999999</ele>
        <time>2025-05-03T10:42:13Z</time>
      </trkpt>
      <trkpt lat="41.145035997033119" lon="-7.870845962315798">
        <ele>323.62</ele>
        <time>2025-05-03T10:42:14Z</time>
      </trkpt>
      <trkpt lat="41.144925020635128" lon="-7.870915029197931">
        <ele>324.10000000000002</ele>
        <time>2025-05-03T10:42:15Z</time>
      </trkpt>
      <trkpt lat="41.144817983731627" lon="-7.871007984504104">
        <ele>324.57999999999998</ele>
        <time>2025-05-03T10:42:16Z</time>
      </trkpt>
      <trkpt lat="41.144708013162017" lon="-7.871075039729476">
        <ele>325.06</ele>
        <time>2025-05-03T10:42:17Z</time>
      </trkpt>
      <trkpt lat="41.144609022885561" lon="-7.871103035286069">
        <ele>325.06</ele>
        <time>2025-05-03T10:42:18Z</time>
      </trkpt>
      <trkpt lat="41.144525036215782" lon="-7.871100017800927">
        <ele>325.54000000000002</ele>
        <time>2025-05-03T10:42:19Z</time>
      </trkpt>
      <trkpt lat="41.144439037889242" lon="-7.8710219822824">
        <ele>325.54000000000002</ele>
        <time>2025-05-03T10:42:20Z</time>
      </trkpt>
      <trkpt lat="41.144333006814122" lon="-7.870928021147847">
        <ele>325.54000000000002</ele>
        <time>2025-05-03T10:42:21Z</time>
      </trkpt>
      <trkpt lat="41.144206020981073" lon="-7.870824001729488">
        <ele>325.54000000000002</ele>
        <time>2025-05-03T10:42:22Z</time>
      </trkpt>
      <trkpt lat="41.14379103295505" lon="-7.870529964566231">
        <ele>325.06</ele>
        <time>2025-05-03T10:42:25Z</time>
      </trkpt>
      <trkpt lat="41.143664969131351" lon="-7.8704400267452">
        <ele>324.57999999999998</ele>
        <time>2025-05-03T10:42:26Z</time>
      </trkpt>
      <trkpt lat="41.143410997465253" lon="-7.870278004556894">
        <ele>323.13999999999999</ele>
        <time>2025-05-03T10:42:28Z</time>
      </trkpt>
      <trkpt lat="41.143271019682288" lon="-7.870279010385275">
        <ele>322.66000000000003</ele>
        <time>2025-05-03T10:42:29Z</time>
      </trkpt>
      <trkpt lat="41.143155014142394" lon="-7.870314968749881">
        <ele>322.18000000000001</ele>
        <time>2025-05-03T10:42:30Z</time>
      </trkpt>
      <trkpt lat="41.143090976402164" lon="-7.870395015925169">
        <ele>321.69999999999999</ele>
        <time>2025-05-03T10:42:31Z</time>
      </trkpt>
      <trkpt lat="41.143056023865938" lon="-7.870570030063391">
        <ele>321.69999999999999</ele>
        <time>2025-05-03T10:42:32Z</time>
      </trkpt>
      <trkpt lat="41.143047977238894" lon="-7.87074102088809">
        <ele>321.22000000000003</ele>
        <time>2025-05-03T10:42:33Z</time>
      </trkpt>
      <trkpt lat="41.143047977238894" lon="-7.870926009491086">
        <ele>321.22000000000003</ele>
        <time>2025-05-03T10:42:34Z</time>
      </trkpt>
      <trkpt lat="41.143047977238894" lon="-7.871103035286069">
        <ele>320.74000000000001</ele>
        <time>2025-05-03T10:42:35Z</time>
      </trkpt>
      <trkpt lat="41.143000032752752" lon="-7.871274026110768">
        <ele>320.74000000000001</ele>
        <time>2025-05-03T10:42:36Z</time>
      </trkpt>
      <trkpt lat="41.142945969477296" lon="-7.871434958651662">
        <ele>320.25999999999999</ele>
        <time>2025-05-03T10:42:37Z</time>
      </trkpt>
      <trkpt lat="41.142605999484658" lon="-7.872063014656305">
        <ele>319.77999999999997</ele>
        <time>2025-05-03T10:42:41Z</time>
      </trkpt>
      <trkpt lat="41.142498040571809" lon="-7.872181031852961">
        <ele>319.77999999999997</ele>
        <time>2025-05-03T10:42:42Z</time>
      </trkpt>
      <trkpt lat="41.142383962869644" lon="-7.872295025736094">
        <ele>319.30000000000001</ele>
        <time>2025-05-03T10:42:43Z</time>
      </trkpt>
      <trkpt lat="41.14172900095582" lon="-7.872714959084988">
        <ele>316.41000000000003</ele>
        <time>2025-05-03T10:42:48Z</time>
      </trkpt>
      <trkpt lat="41.141614001244307" lon="-7.872813027352095">
        <ele>316.41000000000003</ele>
        <time>2025-05-03T10:42:49Z</time>
      </trkpt>
      <trkpt lat="41.141500007361174" lon="-7.872919980436564">
        <ele>315.93000000000001</ele>
        <time>2025-05-03T10:42:50Z</time>
      </trkpt>
      <trkpt lat="41.14138500764966" lon="-7.873027017340064">
        <ele>315.44999999999999</ele>
        <time>2025-05-03T10:42:51Z</time>
      </trkpt>
      <trkpt lat="41.141269002109766" lon="-7.873135982081294">
        <ele>314.97000000000003</ele>
        <time>2025-05-03T10:42:52Z</time>
      </trkpt>
      <trkpt lat="41.141146961599588" lon="-7.873250981792808">
        <ele>314.49000000000001</ele>
        <time>2025-05-03T10:42:53Z</time>
      </trkpt>
      <trkpt lat="41.140988040715456" lon="-7.873399006202817">
        <ele>314.00999999999999</ele>
        <time>2025-05-03T10:42:54Z</time>
      </trkpt>
      <trkpt lat="41.140906987711787" lon="-7.873514005914331">
        <ele>313.52999999999997</ele>
        <time>2025-05-03T10:42:55Z</time>
      </trkpt>
      <trkpt lat="41.140733985230327" lon="-7.873760014772415">
        <ele>312.56999999999999</ele>
        <time>2025-05-03T10:42:57Z</time>
      </trkpt>
      <trkpt lat="41.140658967196941" lon="-7.873805025592446">
        <ele>312.08999999999997</ele>
        <time>2025-05-03T10:42:58Z</time>
      </trkpt>
      <trkpt lat="41.140581015497446" lon="-7.873850036412478">
        <ele>311.60000000000002</ele>
        <time>2025-05-03T10:42:59Z</time>
      </trkpt>
      <trkpt lat="41.1404849588871" lon="-7.87381399422884">
        <ele>311.12</ele>
        <time>2025-05-03T10:43:00Z</time>
      </trkpt>
      <trkpt lat="41.140381023287773" lon="-7.873775018379092">
        <ele>310.63999999999999</ele>
        <time>2025-05-03T10:43:01Z</time>
      </trkpt>
      <trkpt lat="41.140270968899131" lon="-7.873734030872583">
        <ele>310.63999999999999</ele>
        <time>2025-05-03T10:43:02Z</time>
      </trkpt>
      <trkpt lat="41.14016099832952" lon="-7.87366496399045">
        <ele>310.16000000000003</ele>
        <time>2025-05-03T10:43:03Z</time>
      </trkpt>
      <trkpt lat="41.140044992789626" lon="-7.873581983149052">
        <ele>310.16000000000003</ele>
        <time>2025-05-03T10:43:04Z</time>
      </trkpt>
      <trkpt lat="41.139928987249732" lon="-7.873491961508989">
        <ele>309.68000000000001</ele>
        <time>2025-05-03T10:43:05Z</time>
      </trkpt>
      <trkpt lat="41.139728995040059" lon="-7.873364975675941">
        <ele>309.68000000000001</ele>
        <time>2025-05-03T10:43:07Z</time>
      </trkpt>
      <trkpt lat="41.139635033905506" lon="-7.873344020918012">
        <ele>309.68000000000001</ele>
        <time>2025-05-03T10:43:08Z</time>
      </trkpt>
      <trkpt lat="41.139556998386979" lon="-7.87336396984756">
        <ele>309.68000000000001</ele>
        <time>2025-05-03T10:43:09Z</time>
      </trkpt>
      <trkpt lat="41.139484997838736" lon="-7.873423984274268">
        <ele>310.16000000000003</ele>
        <time>2025-05-03T10:43:10Z</time>
      </trkpt>
      <trkpt lat="41.139432024210691" lon="-7.873522974550724">
        <ele>310.63999999999999</ele>
        <time>2025-05-03T10:43:11Z</time>
      </trkpt>
      <trkpt lat="41.139372009783983" lon="-7.873637974262238">
        <ele>310.63999999999999</ele>
        <time>2025-05-03T10:43:12Z</time>
      </trkpt>
      <trkpt lat="41.139307972043753" lon="-7.873759008944035">
        <ele>311.12</ele>
        <time>2025-05-03T10:43:13Z</time>
      </trkpt>
      <trkpt lat="41.13921501673758" lon="-7.873850958421826">
        <ele>312.08999999999997</ele>
        <time>2025-05-03T10:43:14Z</time>
      </trkpt>
      <trkpt lat="41.139089958742261" lon="-7.873900998383761">
        <ele>312.56999999999999</ele>
        <time>2025-05-03T10:43:15Z</time>
      </trkpt>
      <trkpt lat="41.138942018151283" lon="-7.87389999255538">
        <ele>313.52999999999997</ele>
        <time>2025-05-03T10:43:16Z</time>
      </trkpt>
      <trkpt lat="41.13878795877099" lon="-7.873880965635181">
        <ele>314.49000000000001</ele>
        <time>2025-05-03T10:43:17Z</time>
      </trkpt>
      <trkpt lat="41.138627026230097" lon="-7.873861016705632">
        <ele>315.44999999999999</ele>
        <time>2025-05-03T10:43:18Z</time>
      </trkpt>
      <trkpt lat="41.138149006292224" lon="-7.873695977032185">
        <ele>318.81</ele>
        <time>2025-05-03T10:43:21Z</time>
      </trkpt>
      <trkpt lat="41.138002993538976" lon="-7.873620036989451">
        <ele>319.77999999999997</ele>
        <time>2025-05-03T10:43:22Z</time>
      </trkpt>
      <trkpt lat="41.137639973312616" lon="-7.873330023139715">
        <ele>323.62</ele>
        <time>2025-05-03T10:43:25Z</time>
      </trkpt>
      <trkpt lat="41.13754098303616" lon="-7.873202031478286">
        <ele>324.57999999999998</ele>
        <time>2025-05-03T10:43:26Z</time>
      </trkpt>
      <trkpt lat="41.137450961396098" lon="-7.873075967654586">
        <ele>325.54000000000002</ele>
        <time>2025-05-03T10:43:27Z</time>
      </trkpt>
      <trkpt lat="41.137301009148359" lon="-7.872862983494997">
        <ele>327.47000000000003</ele>
        <time>2025-05-03T10:43:29Z</time>
      </trkpt>
      <trkpt lat="41.137243006378412" lon="-7.872799029573798">
        <ele>327.94999999999999</ele>
        <time>2025-05-03T10:43:30Z</time>
      </trkpt>
      <trkpt lat="41.137165976688266" lon="-7.872799029573798">
        <ele>328.91000000000003</ele>
        <time>2025-05-03T10:43:31Z</time>
      </trkpt>
      <trkpt lat="41.137086013332009" lon="-7.872834987938404">
        <ele>328.91000000000003</ele>
        <time>2025-05-03T10:43:32Z</time>
      </trkpt>
      <trkpt lat="41.137031028047204" lon="-7.872944958508015">
        <ele>329.38999999999999</ele>
        <time>2025-05-03T10:43:33Z</time>
      </trkpt>
      <trkpt lat="41.137016024440527" lon="-7.873096000403166">
        <ele>329.87</ele>
        <time>2025-05-03T10:43:34Z</time>
      </trkpt>
      <trkpt lat="41.137012001127005" lon="-7.87327797152102">
        <ele>330.35000000000002</ele>
        <time>2025-05-03T10:43:35Z</time>
      </trkpt>
      <trkpt lat="41.137006971985102" lon="-7.873481987044215">
        <ele>330.82999999999998</ele>
        <time>2025-05-03T10:43:36Z</time>
      </trkpt>
      <trkpt lat="41.13698098808527" lon="-7.87454598583281">
        <ele>334.68000000000001</ele>
        <time>2025-05-03T10:43:42Z</time>
      </trkpt>
      <trkpt lat="41.136976964771748" lon="-7.874705996364355">
        <ele>335.16000000000003</ele>
        <time>2025-05-03T10:43:43Z</time>
      </trkpt>
      <trkpt lat="41.136947041377425" lon="-7.874837005510926">
        <ele>335.16000000000003</ele>
        <time>2025-05-03T10:43:44Z</time>
      </trkpt>
      <trkpt lat="41.136875040829182" lon="-7.874912023544312">
        <ele>335.63999999999999</ele>
        <time>2025-05-03T10:43:45Z</time>
      </trkpt>
      <trkpt lat="41.136777978390455" lon="-7.874966003000736">
        <ele>336.12</ele>
        <time>2025-05-03T10:43:46Z</time>
      </trkpt>
      <trkpt lat="41.136658033356071" lon="-7.874993998557329">
        <ele>336.60000000000002</ele>
        <time>2025-05-03T10:43:47Z</time>
      </trkpt>
      <trkpt lat="41.136509003117681" lon="-7.875007996335626">
        <ele>337.56</ele>
        <time>2025-05-03T10:43:48Z</time>
      </trkpt>
      <trkpt lat="41.136176995933056" lon="-7.875036997720599">
        <ele>338.04000000000002</ele>
        <time>2025-05-03T10:43:50Z</time>
      </trkpt>
      <trkpt lat="41.135870972648263" lon="-7.87510497495532">
        <ele>339</ele>
        <time>2025-05-03T10:43:52Z</time>
      </trkpt>
      <trkpt lat="41.135716997087002" lon="-7.875165995210409">
        <ele>339.48000000000002</ele>
        <time>2025-05-03T10:43:53Z</time>
      </trkpt>
      <trkpt lat="41.135554974898696" lon="-7.875229027122259">
        <ele>340.44</ele>
        <time>2025-05-03T10:43:54Z</time>
      </trkpt>
      <trkpt lat="41.135397981852293" lon="-7.875289041548967">
        <ele>340.92000000000002</ele>
        <time>2025-05-03T10:43:55Z</time>
      </trkpt>
      <trkpt lat="41.135250041261315" lon="-7.875346960499883">
        <ele>340.92000000000002</ele>
        <time>2025-05-03T10:43:56Z</time>
      </trkpt>
      <trkpt lat="41.135107968002558" lon="-7.875421978533268">
        <ele>340.92000000000002</ele>
        <time>2025-05-03T10:43:57Z</time>
      </trkpt>
      <trkpt lat="41.1349590215832" lon="-7.875502025708556">
        <ele>340.92000000000002</ele>
        <time>2025-05-03T10:43:58Z</time>
      </trkpt>
      <trkpt lat="41.134823989123106" lon="-7.875586012378335">
        <ele>340.92000000000002</ele>
        <time>2025-05-03T10:43:59Z</time>
      </trkpt>
      <trkpt lat="41.133889993652701" lon="-7.876140978187323">
        <ele>338.51999999999998</ele>
        <time>2025-05-03T10:44:06Z</time>
      </trkpt>
      <trkpt lat="41.133770970627666" lon="-7.876172997057438">
        <ele>338.04000000000002</ele>
        <time>2025-05-03T10:44:07Z</time>
      </trkpt>
      <trkpt lat="41.13364901393652" lon="-7.876188000664115">
        <ele>337.56</ele>
        <time>2025-05-03T10:44:08Z</time>
      </trkpt>
      <trkpt lat="41.133527979254723" lon="-7.876201998442411">
        <ele>337.07999999999998</ele>
        <time>2025-05-03T10:44:09Z</time>
      </trkpt>
      <trkpt lat="41.13345698453486" lon="-7.876209961250424">
        <ele>336.60000000000002</ele>
        <time>2025-05-03T10:44:10Z</time>
      </trkpt>
      <trkpt lat="41.133350031450391" lon="-7.876387992873788">
        <ele>336.12</ele>
        <time>2025-05-03T10:44:11Z</time>
      </trkpt>
      <trkpt lat="41.133320024237037" lon="-7.876486983150244">
        <ele>335.63999999999999</ele>
        <time>2025-05-03T10:44:12Z</time>
      </trkpt>
      <trkpt lat="41.133307032287121" lon="-7.876597037538886">
        <ele>335.16000000000003</ele>
        <time>2025-05-03T10:44:13Z</time>
      </trkpt>
      <trkpt lat="41.133323963731527" lon="-7.876716982573271">
        <ele>334.19999999999999</ele>
        <time>2025-05-03T10:44:14Z</time>
      </trkpt>
      <trkpt lat="41.133339973166585" lon="-7.876827958971262">
        <ele>333.23000000000002</ele>
        <time>2025-05-03T10:44:15Z</time>
      </trkpt>
      <trkpt lat="41.133313989266753" lon="-7.876980006694794">
        <ele>332.75</ele>
        <time>2025-05-03T10:44:16Z</time>
      </trkpt>
      <trkpt lat="41.13328498788178" lon="-7.877046978101134">
        <ele>332.26999999999998</ele>
        <time>2025-05-03T10:44:17Z</time>
      </trkpt>
      <trkpt lat="41.133218016475439" lon="-7.877128031104803">
        <ele>331.79000000000002</ele>
        <time>2025-05-03T10:44:18Z</time>
      </trkpt>
      <trkpt lat="41.133152972906828" lon="-7.877199025824666">
        <ele>330.82999999999998</ele>
        <time>2025-05-03T10:44:19Z</time>
      </trkpt>
      <trkpt lat="41.133067980408669" lon="-7.8772749658674">
        <ele>330.35000000000002</ele>
        <time>2025-05-03T10:44:20Z</time>
      </trkpt>
      <trkpt lat="41.132975025102496" lon="-7.87735995836556">
        <ele>329.38999999999999</ele>
        <time>2025-05-03T10:44:21Z</time>
      </trkpt>
      <trkpt lat="41.132044969126582" lon="-7.878118017688394">
        <ele>322.18000000000001</ele>
        <time>2025-05-03T10:44:29Z</time>
      </trkpt>
      <trkpt lat="41.131655965000391" lon="-7.878352040424943">
        <ele>318.81</ele>
        <time>2025-05-03T10:44:32Z</time>
      </trkpt>
      <trkpt lat="41.131533002480865" lon="-7.878441978245974">
        <ele>317.85000000000002</ele>
        <time>2025-05-03T10:44:33Z</time>
      </trkpt>
      <trkpt lat="41.13143996335566" lon="-7.878569969907403">
        <ele>316.41000000000003</ele>
        <time>2025-05-03T10:44:34Z</time>
      </trkpt>
      <trkpt lat="41.131349019706249" lon="-7.878722017630935">
        <ele>315.93000000000001</ele>
        <time>2025-05-03T10:44:35Z</time>
      </trkpt>
      <trkpt lat="41.131260003894567" lon="-7.878869958221912">
        <ele>314.97000000000003</ele>
        <time>2025-05-03T10:44:36Z</time>
      </trkpt>
      <trkpt lat="41.13118196837604" lon="-7.878999961540103">
        <ele>314.00999999999999</ele>
        <time>2025-05-03T10:44:37Z</time>
      </trkpt>
      <trkpt lat="41.13105196505785" lon="-7.879129964858294">
        <ele>313.05000000000001</ele>
        <time>2025-05-03T10:44:38Z</time>
      </trkpt>
      <trkpt lat="41.130463974550366" lon="-7.879570014774799">
        <ele>308.24000000000001</ele>
        <time>2025-05-03T10:44:43Z</time>
      </trkpt>
      <trkpt lat="41.130340006202459" lon="-7.879587030038238">
        <ele>307.75999999999999</ele>
        <time>2025-05-03T10:44:44Z</time>
      </trkpt>
      <trkpt lat="41.130226012319326" lon="-7.879595998674631">
        <ele>306.80000000000001</ele>
        <time>2025-05-03T10:44:45Z</time>
      </trkpt>
      <trkpt lat="41.130109000951052" lon="-7.879552999511361">
        <ele>305.83999999999997</ele>
        <time>2025-05-03T10:44:46Z</time>
      </trkpt>
      <trkpt lat="41.129996012896299" lon="-7.879512012004852">
        <ele>304.88</ele>
        <time>2025-05-03T10:44:47Z</time>
      </trkpt>
      <trkpt lat="41.129886964336038" lon="-7.879471024498344">
        <ele>303.91000000000003</ele>
        <time>2025-05-03T10:44:48Z</time>
      </trkpt>
      <trkpt lat="41.129781017079949" lon="-7.879458032548428">
        <ele>303.43000000000001</ele>
        <time>2025-05-03T10:44:49Z</time>
      </trkpt>
      <trkpt lat="41.129681020975113" lon="-7.879473036155105">
        <ele>303.43000000000001</ele>
        <time>2025-05-03T10:44:50Z</time>
      </trkpt>
      <trkpt lat="41.129587981849909" lon="-7.879488039761782">
        <ele>303.43000000000001</ele>
        <time>2025-05-03T10:44:51Z</time>
      </trkpt>
      <trkpt lat="41.129413973540068" lon="-7.879572026431561">
        <ele>304.38999999999999</ele>
        <time>2025-05-03T10:44:53Z</time>
      </trkpt>
      <trkpt lat="41.129360999912024" lon="-7.879660036414862">
        <ele>304.38999999999999</ele>
        <time>2025-05-03T10:44:54Z</time>
      </trkpt>
      <trkpt lat="41.129315989091992" lon="-7.879748968407512">
        <ele>304.88</ele>
        <time>2025-05-03T10:44:55Z</time>
      </trkpt>
      <trkpt lat="41.129314983263612" lon="-7.879844019189477">
        <ele>304.38999999999999</ele>
        <time>2025-05-03T10:44:56Z</time>
      </trkpt>
      <trkpt lat="41.129318000748754" lon="-7.879945021122694">
        <ele>304.38999999999999</ele>
        <time>2025-05-03T10:44:57Z</time>
      </trkpt>
      <trkpt lat="41.129329986870289" lon="-7.880048034712672">
        <ele>303.91000000000003</ele>
        <time>2025-05-03T10:44:58Z</time>
      </trkpt>
      <trkpt lat="41.129414979368448" lon="-7.88079502992332">
        <ele>301.50999999999999</ele>
        <time>2025-05-03T10:45:04Z</time>
      </trkpt>
      <trkpt lat="41.129423025995493" lon="-7.88105696439743">
        <ele>300.55000000000001</ele>
        <time>2025-05-03T10:45:06Z</time>
      </trkpt>
      <trkpt lat="41.129384972155094" lon="-7.88116198964417">
        <ele>299.58999999999997</ele>
        <time>2025-05-03T10:45:07Z</time>
      </trkpt>
      <trkpt lat="41.129310037940741" lon="-7.881279001012445">
        <ele>298.63</ele>
        <time>2025-05-03T10:45:08Z</time>
      </trkpt>
      <trkpt lat="41.129215992987156" lon="-7.881387965753675">
        <ele>297.67000000000002</ele>
        <time>2025-05-03T10:45:09Z</time>
      </trkpt>
      <trkpt lat="41.129107028245926" lon="-7.881485028192401">
        <ele>296.69999999999999</ele>
        <time>2025-05-03T10:45:10Z</time>
      </trkpt>
      <trkpt lat="41.128999991342425" lon="-7.881579995155335">
        <ele>296.22000000000003</ele>
        <time>2025-05-03T10:45:11Z</time>
      </trkpt>
      <trkpt lat="41.128519959747791" lon="-7.881967993453145">
        <ele>293.33999999999997</ele>
        <time>2025-05-03T10:45:16Z</time>
      </trkpt>
      <trkpt lat="41.128433961421251" lon="-7.88199900649488">
        <ele>292.86000000000001</ele>
        <time>2025-05-03T10:45:17Z</time>
      </trkpt>
      <trkpt lat="41.128328014165163" lon="-7.882024990394712">
        <ele>291.89999999999998</ele>
        <time>2025-05-03T10:45:18Z</time>
      </trkpt>
      <trkpt lat="41.127608008682728" lon="-7.88178401067853">
        <ele>287.56999999999999</ele>
        <time>2025-05-03T10:45:25Z</time>
      </trkpt>
      <trkpt lat="41.126748025417328" lon="-7.881546970456839">
        <ele>284.20999999999998</ele>
        <time>2025-05-03T10:45:31Z</time>
      </trkpt>
      <trkpt lat="41.12662497907877" lon="-7.881550993770361">
        <ele>283.73000000000002</ele>
        <time>2025-05-03T10:45:32Z</time>
      </trkpt>
      <trkpt lat="41.126520959660411" lon="-7.881621988490224">
        <ele>283.25</ele>
        <time>2025-05-03T10:45:33Z</time>
      </trkpt>
      <trkpt lat="41.126429010182619" lon="-7.881719972938299">
        <ele>282.76999999999998</ele>
        <time>2025-05-03T10:45:34Z</time>
      </trkpt>
      <trkpt lat="41.126334965229034" lon="-7.881818963214755">
        <ele>282.27999999999997</ele>
        <time>2025-05-03T10:45:35Z</time>
      </trkpt>
      <trkpt lat="41.126236980780959" lon="-7.881920970976353">
        <ele>281.80000000000001</ele>
        <time>2025-05-03T10:45:36Z</time>
      </trkpt>
      <trkpt lat="41.126141007989645" lon="-7.882020967081189">
        <ele>280.83999999999997</ele>
        <time>2025-05-03T10:45:37Z</time>
      </trkpt>
      <trkpt lat="41.126036988571286" lon="-7.882083998993039">
        <ele>279.39999999999998</ele>
        <time>2025-05-03T10:45:38Z</time>
      </trkpt>
      <trkpt lat="41.125908996909857" lon="-7.882118029519916">
        <ele>277.95999999999998</ele>
        <time>2025-05-03T10:45:39Z</time>
      </trkpt>
      <trkpt lat="41.125640021637082" lon="-7.882188018411398">
        <ele>275.56</ele>
        <time>2025-05-03T10:45:41Z</time>
      </trkpt>
      <trkpt lat="41.125369034707546" lon="-7.882297988981009">
        <ele>273.63</ele>
        <time>2025-05-03T10:45:43Z</time>
      </trkpt>
      <trkpt lat="41.12460502423346" lon="-7.882697973400354">
        <ele>267.86000000000001</ele>
        <time>2025-05-03T10:45:49Z</time>
      </trkpt>
      <trkpt lat="41.124474015086889" lon="-7.882727980613709">
        <ele>266.89999999999998</ele>
        <time>2025-05-03T10:45:50Z</time>
      </trkpt>
      <trkpt lat="41.123946961015463" lon="-7.882802998647094">
        <ele>264.5</ele>
        <time>2025-05-03T10:45:54Z</time>
      </trkpt>
      <trkpt lat="41.123870015144348" lon="-7.882739966735244">
        <ele>264.01999999999998</ele>
        <time>2025-05-03T10:45:55Z</time>
      </trkpt>
      <trkpt lat="41.123804971575737" lon="-7.882642988115549">
        <ele>263.54000000000002</ele>
        <time>2025-05-03T10:45:56Z</time>
      </trkpt>
      <trkpt lat="41.123731965199113" lon="-7.882534023374319">
        <ele>263.06</ele>
        <time>2025-05-03T10:45:57Z</time>
      </trkpt>
      <trkpt lat="41.123654013499618" lon="-7.882416006177664">
        <ele>263.06</ele>
        <time>2025-05-03T10:45:58Z</time>
      </trkpt>
      <trkpt lat="41.123535996302962" lon="-7.882354985922575">
        <ele>263.06</ele>
        <time>2025-05-03T10:45:59Z</time>
      </trkpt>
      <trkpt lat="41.123417979106307" lon="-7.882295977324247">
        <ele>263.06</ele>
        <time>2025-05-03T10:46:00Z</time>
      </trkpt>
      <trkpt lat="41.123297028243542" lon="-7.88223504088819">
        <ele>263.06</ele>
        <time>2025-05-03T10:46:01Z</time>
      </trkpt>
      <trkpt lat="41.123178005218506" lon="-7.882175026461482">
        <ele>263.06</ele>
        <time>2025-05-03T10:46:02Z</time>
      </trkpt>
      <trkpt lat="41.123064011335373" lon="-7.882118029519916">
        <ele>263.54000000000002</ele>
        <time>2025-05-03T10:46:03Z</time>
      </trkpt>
      <trkpt lat="41.122888997197151" lon="-7.881968999281526">
        <ele>263.54000000000002</ele>
        <time>2025-05-03T10:46:05Z</time>
      </trkpt>
      <trkpt lat="41.122811967507005" lon="-7.881901022046804">
        <ele>264.01999999999998</ele>
        <time>2025-05-03T10:46:06Z</time>
      </trkpt>
      <trkpt lat="41.122738039121032" lon="-7.881836984306574">
        <ele>264.01999999999998</ele>
        <time>2025-05-03T10:46:07Z</time>
      </trkpt>
      <trkpt lat="41.122655980288982" lon="-7.881803959608078">
        <ele>264.01999999999998</ele>
        <time>2025-05-03T10:46:08Z</time>
      </trkpt>
      <trkpt lat="41.122580040246248" lon="-7.881842013448477">
        <ele>264.01999999999998</ele>
        <time>2025-05-03T10:46:09Z</time>
      </trkpt>
      <trkpt lat="41.122508961707354" lon="-7.881895992904902">
        <ele>263.54000000000002</ele>
        <time>2025-05-03T10:46:10Z</time>
      </trkpt>
      <trkpt lat="41.122485995292664" lon="-7.88199900649488">
        <ele>263.54000000000002</ele>
        <time>2025-05-03T10:46:11Z</time>
      </trkpt>
      <trkpt lat="41.122469985857606" lon="-7.882125992327929">
        <ele>263.06</ele>
        <time>2025-05-03T10:46:12Z</time>
      </trkpt>
      <trkpt lat="41.122482977807522" lon="-7.882278962060809">
        <ele>263.06</ele>
        <time>2025-05-03T10:46:13Z</time>
      </trkpt>
      <trkpt lat="41.122528994455934" lon="-7.882416006177664">
        <ele>263.06</ele>
        <time>2025-05-03T10:46:14Z</time>
      </trkpt>
      <trkpt lat="41.122575011104345" lon="-7.882554978132248">
        <ele>263.54000000000002</ele>
        <time>2025-05-03T10:46:15Z</time>
      </trkpt>
      <trkpt lat="41.122632008045912" lon="-7.882697973400354">
        <ele>263.54000000000002</ele>
        <time>2025-05-03T10:46:16Z</time>
      </trkpt>
      <trkpt lat="41.122696967795491" lon="-7.882839040830731">
        <ele>264.01999999999998</ele>
        <time>2025-05-03T10:46:17Z</time>
      </trkpt>
      <trkpt lat="41.122766034677625" lon="-7.88298798725009">
        <ele>264.5</ele>
        <time>2025-05-03T10:46:18Z</time>
      </trkpt>
      <trkpt lat="41.122837029397488" lon="-7.883142968639731">
        <ele>265.45999999999998</ele>
        <time>2025-05-03T10:46:19Z</time>
      </trkpt>
      <trkpt lat="41.12290701828897" lon="-7.883295016363263">
        <ele>265.94</ele>
        <time>2025-05-03T10:46:20Z</time>
      </trkpt>
      <trkpt lat="41.122974995523691" lon="-7.883443040773273">
        <ele>267.38</ele>
        <time>2025-05-03T10:46:21Z</time>
      </trkpt>
      <trkpt lat="41.123042972758412" lon="-7.883591987192631">
        <ele>267.86000000000001</ele>
        <time>2025-05-03T10:46:22Z</time>
      </trkpt>
      <trkpt lat="41.123098041862249" lon="-7.883753003552556">
        <ele>269.31</ele>
        <time>2025-05-03T10:46:23Z</time>
      </trkpt>
      <trkpt lat="41.123117990791798" lon="-7.883942015469074">
        <ele>270.26999999999998</ele>
        <time>2025-05-03T10:46:24Z</time>
      </trkpt>
      <trkpt lat="41.123132994398475" lon="-7.884135972708464">
        <ele>271.23000000000002</ele>
        <time>2025-05-03T10:46:25Z</time>
      </trkpt>
      <trkpt lat="41.123118996620178" lon="-7.884323978796601">
        <ele>272.67000000000002</ele>
        <time>2025-05-03T10:46:26Z</time>
      </trkpt>
      <trkpt lat="41.123104998841882" lon="-7.884504022076726">
        <ele>273.63</ele>
        <time>2025-05-03T10:46:27Z</time>
      </trkpt>
      <trkpt lat="41.123094018548727" lon="-7.884675012901425">
        <ele>274.58999999999997</ele>
        <time>2025-05-03T10:46:28Z</time>
      </trkpt>
      <trkpt lat="41.123117990791798" lon="-7.884844997897744">
        <ele>275.56</ele>
        <time>2025-05-03T10:46:29Z</time>
      </trkpt>
      <trkpt lat="41.123136011883616" lon="-7.885018000379205">
        <ele>276.51999999999998</ele>
        <time>2025-05-03T10:46:30Z</time>
      </trkpt>
      <trkpt lat="41.123125031590462" lon="-7.88520198315382">
        <ele>277.48000000000002</ele>
        <time>2025-05-03T10:46:31Z</time>
      </trkpt>
      <trkpt lat="41.123096030205488" lon="-7.885393006727099">
        <ele>278.44</ele>
        <time>2025-05-03T10:46:32Z</time>
      </trkpt>
      <trkpt lat="41.122944988310337" lon="-7.886375030502677">
        <ele>284.20999999999998</ele>
        <time>2025-05-03T10:46:38Z</time>
      </trkpt>
      <trkpt lat="41.122921016067266" lon="-7.886531017720699">
        <ele>285.17000000000002</ele>
        <time>2025-05-03T10:46:39Z</time>
      </trkpt>
      <trkpt lat="41.122868964448571" lon="-7.886669989675283">
        <ele>285.64999999999998</ele>
        <time>2025-05-03T10:46:40Z</time>
      </trkpt>
      <trkpt lat="41.122385999187827" lon="-7.887732982635498">
        <ele>290.94</ele>
        <time>2025-05-03T10:46:48Z</time>
      </trkpt>
      <trkpt lat="41.122293965891004" lon="-7.887830967083573">
        <ele>291.42000000000002</ele>
        <time>2025-05-03T10:46:49Z</time>
      </trkpt>
      <trkpt lat="41.122181983664632" lon="-7.88788503035903">
        <ele>291.89999999999998</ele>
        <time>2025-05-03T10:46:50Z</time>
      </trkpt>
      <trkpt lat="41.121624000370502" lon="-7.88810396566987">
        <ele>292.38</ele>
        <time>2025-05-03T10:46:55Z</time>
      </trkpt>
      <trkpt lat="41.121569015085697" lon="-7.888118969276547">
        <ele>292.38</ele>
        <time>2025-05-03T10:46:56Z</time>
      </trkpt>
      <trkpt lat="41.121501959860325" lon="-7.888026013970375">
        <ele>292.38</ele>
        <time>2025-05-03T10:46:57Z</time>
      </trkpt>
      <trkpt lat="41.121433982625604" lon="-7.887932974845171">
        <ele>292.38</ele>
        <time>2025-05-03T10:46:58Z</time>
      </trkpt>
      <trkpt lat="41.121374974027276" lon="-7.887838007882237">
        <ele>292.38</ele>
        <time>2025-05-03T10:46:59Z</time>
      </trkpt>
      <trkpt lat="41.121314959600568" lon="-7.887718984857202">
        <ele>291.89999999999998</ele>
        <time>2025-05-03T10:47:00Z</time>
      </trkpt>
      <trkpt lat="41.121202977374196" lon="-7.88762996904552">
        <ele>291.42000000000002</ele>
        <time>2025-05-03T10:47:01Z</time>
      </trkpt>
      <trkpt lat="41.121088983491063" lon="-7.887583030387759">
        <ele>290.94</ele>
        <time>2025-05-03T10:47:02Z</time>
      </trkpt>
      <trkpt lat="41.120972977951169" lon="-7.887583030387759">
        <ele>290.45999999999998</ele>
        <time>2025-05-03T10:47:03Z</time>
      </trkpt>
      <trkpt lat="41.120855966582894" lon="-7.887614965438843">
        <ele>289.97000000000003</ele>
        <time>2025-05-03T10:47:04Z</time>
      </trkpt>
      <trkpt lat="41.120739039033651" lon="-7.887669028714299">
        <ele>289.49000000000001</ele>
        <time>2025-05-03T10:47:05Z</time>
      </trkpt>
      <trkpt lat="41.120623033493757" lon="-7.887726025655866">
        <ele>289.00999999999999</ele>
        <time>2025-05-03T10:47:06Z</time>
      </trkpt>
      <trkpt lat="41.120432009920478" lon="-7.887840019538999">
        <ele>288.05000000000001</ele>
        <time>2025-05-03T10:47:08Z</time>
      </trkpt>
      <trkpt lat="41.120382975786924" lon="-7.888001035898924">
        <ele>287.56999999999999</ele>
        <time>2025-05-03T10:47:09Z</time>
      </trkpt>
      <trkpt lat="41.120340982452035" lon="-7.888134978711605">
        <ele>287.08999999999997</ele>
        <time>2025-05-03T10:47:10Z</time>
      </trkpt>
      <trkpt lat="41.120186001062393" lon="-7.88853102363646">
        <ele>286.13</ele>
        <time>2025-05-03T10:47:13Z</time>
      </trkpt>
      <trkpt lat="41.120116012170911" lon="-7.888658009469509">
        <ele>286.13</ele>
        <time>2025-05-03T10:47:14Z</time>
      </trkpt>
      <trkpt lat="41.119299028068781" lon="-7.889880007132888">
        <ele>284.20999999999998</ele>
        <time>2025-05-03T10:47:25Z</time>
      </trkpt>
      <trkpt lat="41.119112027809024" lon="-7.89003599435091">
        <ele>282.76999999999998</ele>
        <time>2025-05-03T10:47:27Z</time>
      </trkpt>
      <trkpt lat="41.119014965370297" lon="-7.890093997120857">
        <ele>281.80000000000001</ele>
        <time>2025-05-03T10:47:28Z</time>
      </trkpt>
      <trkpt lat="41.118912035599351" lon="-7.890130039304495">
        <ele>280.83999999999997</ele>
        <time>2025-05-03T10:47:29Z</time>
      </trkpt>
      <trkpt lat="41.11871900036931" lon="-7.890197010710836">
        <ele>280.36000000000001</ele>
        <time>2025-05-03T10:47:31Z</time>
      </trkpt>
      <trkpt lat="41.118622021749616" lon="-7.890231041237712">
        <ele>279.39999999999998</ele>
        <time>2025-05-03T10:47:32Z</time>
      </trkpt>
      <trkpt lat="41.118539962917566" lon="-7.890302035957575">
        <ele>279.39999999999998</ele>
        <time>2025-05-03T10:47:33Z</time>
      </trkpt>
      <trkpt lat="41.118468968197703" lon="-7.890392979606986">
        <ele>279.39999999999998</ele>
        <time>2025-05-03T10:47:34Z</time>
      </trkpt>
      <trkpt lat="41.118392022326589" lon="-7.890489036217332">
        <ele>278.92000000000002</ele>
        <time>2025-05-03T10:47:35Z</time>
      </trkpt>
      <trkpt lat="41.118312980979681" lon="-7.890589032322168">
        <ele>279.39999999999998</ele>
        <time>2025-05-03T10:47:36Z</time>
      </trkpt>
      <trkpt lat="41.118235029280186" lon="-7.890687016770244">
        <ele>279.39999999999998</ele>
        <time>2025-05-03T10:47:37Z</time>
      </trkpt>
      <trkpt lat="41.117618037387729" lon="-7.891513975337148">
        <ele>282.27999999999997</ele>
        <time>2025-05-03T10:47:45Z</time>
      </trkpt>
      <trkpt lat="41.117390971630812" lon="-7.891723020002246">
        <ele>283.25</ele>
        <time>2025-05-03T10:47:47Z</time>
      </trkpt>
      <trkpt lat="41.117268009111285" lon="-7.891808012500405">
        <ele>283.73000000000002</ele>
        <time>2025-05-03T10:47:48Z</time>
      </trkpt>
      <trkpt lat="41.117138005793095" lon="-7.891880013048649">
        <ele>284.20999999999998</ele>
        <time>2025-05-03T10:47:49Z</time>
      </trkpt>
      <trkpt lat="41.116450019180775" lon="-7.892143959179521">
        <ele>286.13</ele>
        <time>2025-05-03T10:47:54Z</time>
      </trkpt>
      <trkpt lat="41.116321021690965" lon="-7.892174972221255">
        <ele>286.61000000000001</ele>
        <time>2025-05-03T10:47:55Z</time>
      </trkpt>
      <trkpt lat="41.116199987009168" lon="-7.892203973606229">
        <ele>287.08999999999997</ele>
        <time>2025-05-03T10:47:56Z</time>
      </trkpt>
      <trkpt lat="41.116088004782796" lon="-7.892230963334441">
        <ele>287.56999999999999</ele>
        <time>2025-05-03T10:47:57Z</time>
      </trkpt>
      <trkpt lat="41.116028996184468" lon="-7.892306987196207">
        <ele>287.56999999999999</ele>
        <time>2025-05-03T10:47:58Z</time>
      </trkpt>
      <trkpt lat="41.115983985364437" lon="-7.892425004392862">
        <ele>287.56999999999999</ele>
        <time>2025-05-03T10:47:59Z</time>
      </trkpt>
      <trkpt lat="41.115936040878296" lon="-7.892548972740769">
        <ele>287.56999999999999</ele>
        <time>2025-05-03T10:48:00Z</time>
      </trkpt>
      <trkpt lat="41.115829003974795" lon="-7.892829012125731">
        <ele>287.56999999999999</ele>
        <time>2025-05-03T10:48:02Z</time>
      </trkpt>
      <trkpt lat="41.115762032568455" lon="-7.892981981858611">
        <ele>288.05000000000001</ele>
        <time>2025-05-03T10:48:03Z</time>
      </trkpt>
      <trkpt lat="41.115652984008193" lon="-7.893102010712028">
        <ele>288.52999999999997</ele>
        <time>2025-05-03T10:48:04Z</time>
      </trkpt>
      <trkpt lat="41.115184016525745" lon="-7.89362202398479">
        <ele>290.45999999999998</ele>
        <time>2025-05-03T10:48:08Z</time>
      </trkpt>
      <trkpt lat="41.11512802541256" lon="-7.893753033131361">
        <ele>290.94</ele>
        <time>2025-05-03T10:48:09Z</time>
      </trkpt>
      <trkpt lat="41.115091983228922" lon="-7.893892005085945">
        <ele>291.42000000000002</ele>
        <time>2025-05-03T10:48:10Z</time>
      </trkpt>
      <trkpt lat="41.115054013207555" lon="-7.894038017839193">
        <ele>292.38</ele>
        <time>2025-05-03T10:48:11Z</time>
      </trkpt>
      <trkpt lat="41.115012019872665" lon="-7.89420498535037">
        <ele>293.33999999999997</ele>
        <time>2025-05-03T10:48:12Z</time>
      </trkpt>
      <trkpt lat="41.114955022931099" lon="-7.894390979781747">
        <ele>293.81999999999999</ele>
        <time>2025-05-03T10:48:13Z</time>
      </trkpt>
      <trkpt lat="41.114878999069333" lon="-7.894588960334659">
        <ele>294.77999999999997</ele>
        <time>2025-05-03T10:48:14Z</time>
      </trkpt>
      <trkpt lat="41.114799035713077" lon="-7.894794987514615">
        <ele>295.74000000000001</ele>
        <time>2025-05-03T10:48:15Z</time>
      </trkpt>
      <trkpt lat="41.114718988537788" lon="-7.895005038008094">
        <ele>296.22000000000003</ele>
        <time>2025-05-03T10:48:16Z</time>
      </trkpt>
      <trkpt lat="41.11463600769639" lon="-7.895219027996063">
        <ele>297.18000000000001</ele>
        <time>2025-05-03T10:48:17Z</time>
      </trkpt>
      <trkpt lat="41.114552021026611" lon="-7.895437963306904">
        <ele>297.67000000000002</ele>
        <time>2025-05-03T10:48:18Z</time>
      </trkpt>
      <trkpt lat="41.114437021315098" lon="-7.895625969395042">
        <ele>298.63</ele>
        <time>2025-05-03T10:48:19Z</time>
      </trkpt>
      <trkpt lat="41.11414197832346" lon="-7.896169032901526">
        <ele>300.06999999999999</ele>
        <time>2025-05-03T10:48:22Z</time>
      </trkpt>
      <trkpt lat="41.113980039954185" lon="-7.896443037316203">
        <ele>301.02999999999997</ele>
        <time>2025-05-03T10:48:24Z</time>
      </trkpt>
      <trkpt lat="41.11388498917222" lon="-7.896548984572291">
        <ele>301.50999999999999</ele>
        <time>2025-05-03T10:48:25Z</time>
      </trkpt>
      <trkpt lat="41.113779963925481" lon="-7.896646969020367">
        <ele>302.47000000000003</ele>
        <time>2025-05-03T10:48:26Z</time>
      </trkpt>
      <trkpt lat="41.113673010841012" lon="-7.896745037287474">
        <ele>302.94999999999999</ele>
        <time>2025-05-03T10:48:27Z</time>
      </trkpt>
      <trkpt lat="41.113544013351202" lon="-7.896852996200323">
        <ele>303.43000000000001</ele>
        <time>2025-05-03T10:48:28Z</time>
      </trkpt>
      <trkpt lat="41.113448040559888" lon="-7.896919967606664">
        <ele>304.38999999999999</ele>
        <time>2025-05-03T10:48:29Z</time>
      </trkpt>
      <trkpt lat="41.112430980429053" lon="-7.897685989737511">
        <ele>312.08999999999997</ele>
        <time>2025-05-03T10:48:38Z</time>
      </trkpt>
      <trkpt lat="41.112338025122881" lon="-7.897824961692095">
        <ele>313.05000000000001</ele>
        <time>2025-05-03T10:48:39Z</time>
      </trkpt>
      <trkpt lat="41.112249009311199" lon="-7.897958988323808">
        <ele>314.00999999999999</ele>
        <time>2025-05-03T10:48:40Z</time>
      </trkpt>
      <trkpt lat="41.112170973792672" lon="-7.898075999692082">
        <ele>314.49000000000001</ele>
        <time>2025-05-03T10:48:41Z</time>
      </trkpt>
      <trkpt lat="41.112053040415049" lon="-7.898120004683733">
        <ele>315.44999999999999</ele>
        <time>2025-05-03T10:48:42Z</time>
      </trkpt>
      <trkpt lat="41.111942986026406" lon="-7.898142971098423">
        <ele>316.41000000000003</ele>
        <time>2025-05-03T10:48:43Z</time>
      </trkpt>
      <trkpt lat="41.11182002350688" lon="-7.898149006068707">
        <ele>317.37</ele>
        <time>2025-05-03T10:48:44Z</time>
      </trkpt>
      <trkpt lat="41.111699994653463" lon="-7.898155963048339">
        <ele>318.32999999999998</ele>
        <time>2025-05-03T10:48:45Z</time>
      </trkpt>
      <trkpt lat="41.111591029912233" lon="-7.898161998018622">
        <ele>318.81</ele>
        <time>2025-05-03T10:48:46Z</time>
      </trkpt>
      <trkpt lat="41.111505031585693" lon="-7.898100977763534">
        <ele>320.25999999999999</ele>
        <time>2025-05-03T10:48:47Z</time>
      </trkpt>
      <trkpt lat="41.111377039924264" lon="-7.898011039942503">
        <ele>320.74000000000001</ele>
        <time>2025-05-03T10:48:48Z</time>
      </trkpt>
      <trkpt lat="41.110832970589399" lon="-7.897351970896125">
        <ele>325.54000000000002</ele>
        <time>2025-05-03T10:48:54Z</time>
      </trkpt>
      <trkpt lat="41.11068301834166" lon="-7.897157007828355">
        <ele>326.99000000000001</ele>
        <time>2025-05-03T10:48:56Z</time>
      </trkpt>
      <trkpt lat="41.110591990873218" lon="-7.897099005058408">
        <ele>327.47000000000003</ele>
        <time>2025-05-03T10:48:57Z</time>
      </trkpt>
      <trkpt lat="41.11048998311162" lon="-7.897078972309828">
        <ele>327.94999999999999</ele>
        <time>2025-05-03T10:48:58Z</time>
      </trkpt>
      <trkpt lat="41.110382024198771" lon="-7.897101016715169">
        <ele>328.43000000000001</ele>
        <time>2025-05-03T10:48:59Z</time>
      </trkpt>
      <trkpt lat="41.110288985073566" lon="-7.897162958979607">
        <ele>329.38999999999999</ele>
        <time>2025-05-03T10:49:00Z</time>
      </trkpt>
      <trkpt lat="41.110189994797111" lon="-7.897229008376598">
        <ele>329.87</ele>
        <time>2025-05-03T10:49:01Z</time>
      </trkpt>
      <trkpt lat="41.109977010637522" lon="-7.897374015301466">
        <ele>330.35000000000002</ele>
        <time>2025-05-03T10:49:03Z</time>
      </trkpt>
      <trkpt lat="41.109901992604136" lon="-7.897483985871077">
        <ele>330.82999999999998</ele>
        <time>2025-05-03T10:49:04Z</time>
      </trkpt>
      <trkpt lat="41.109828986227512" lon="-7.897592028602958">
        <ele>331.31</ele>
        <time>2025-05-03T10:49:05Z</time>
      </trkpt>
      <trkpt lat="41.109751034528017" lon="-7.89770501665771">
        <ele>332.26999999999998</ele>
        <time>2025-05-03T10:49:06Z</time>
      </trkpt>
      <trkpt lat="41.109666964039207" lon="-7.897793026641011">
        <ele>332.75</ele>
        <time>2025-05-03T10:49:07Z</time>
      </trkpt>
      <trkpt lat="41.10956403426826" lon="-7.897837031632662">
        <ele>333.23000000000002</ele>
        <time>2025-05-03T10:49:08Z</time>
      </trkpt>
      <trkpt lat="41.109439982101321" lon="-7.897805012762547">
        <ele>333.23000000000002</ele>
        <time>2025-05-03T10:49:09Z</time>
      </trkpt>
      <trkpt lat="41.109302015975118" lon="-7.897768970578909">
        <ele>333.70999999999998</ele>
        <time>2025-05-03T10:49:10Z</time>
      </trkpt>
      <trkpt lat="41.108932960778475" lon="-7.897703005000949">
        <ele>335.63999999999999</ele>
        <time>2025-05-03T10:49:13Z</time>
      </trkpt>
      <trkpt lat="41.10883598215878" lon="-7.897724965587258">
        <ele>336.12</ele>
        <time>2025-05-03T10:49:14Z</time>
      </trkpt>
      <trkpt lat="41.108765993267298" lon="-7.897816998884082">
        <ele>336.12</ele>
        <time>2025-05-03T10:49:15Z</time>
      </trkpt>
      <trkpt lat="41.108714025467634" lon="-7.89794197306037">
        <ele>336.60000000000002</ele>
        <time>2025-05-03T10:49:16Z</time>
      </trkpt>
      <trkpt lat="41.108658034354448" lon="-7.898074993863702">
        <ele>337.07999999999998</ele>
        <time>2025-05-03T10:49:17Z</time>
      </trkpt>
      <trkpt lat="41.108612017706037" lon="-7.898223018273711">
        <ele>337.56</ele>
        <time>2025-05-03T10:49:18Z</time>
      </trkpt>
      <trkpt lat="41.108579998835921" lon="-7.898364001885057">
        <ele>338.04000000000002</ele>
        <time>2025-05-03T10:49:19Z</time>
      </trkpt>
      <trkpt lat="41.108549991622567" lon="-7.89849903434515">
        <ele>338.51999999999998</ele>
        <time>2025-05-03T10:49:20Z</time>
      </trkpt>
      <trkpt lat="41.108521996065974" lon="-7.898627026006579">
        <ele>338.51999999999998</ele>
        <time>2025-05-03T10:49:21Z</time>
      </trkpt>
      <trkpt lat="41.108487965539098" lon="-7.89873699657619">
        <ele>338.51999999999998</ele>
        <time>2025-05-03T10:49:22Z</time>
      </trkpt>
      <trkpt lat="41.108402973040938" lon="-7.89884596131742">
        <ele>338.51999999999998</ele>
        <time>2025-05-03T10:49:23Z</time>
      </trkpt>
      <trkpt lat="41.108325021341443" lon="-7.898977976292372">
        <ele>338.51999999999998</ele>
        <time>2025-05-03T10:49:24Z</time>
      </trkpt>
      <trkpt lat="41.108265006914735" lon="-7.899146033450961">
        <ele>338.51999999999998</ele>
        <time>2025-05-03T10:49:25Z</time>
      </trkpt>
      <trkpt lat="41.108265006914735" lon="-7.899315012618899">
        <ele>339</ele>
        <time>2025-05-03T10:49:26Z</time>
      </trkpt>
      <trkpt lat="41.108284033834934" lon="-7.899505030363798">
        <ele>339</ele>
        <time>2025-05-03T10:49:27Z</time>
      </trkpt>
      <trkpt lat="41.108356034383178" lon="-7.899638973176479">
        <ele>339.48000000000002</ele>
        <time>2025-05-03T10:49:28Z</time>
      </trkpt>
      <trkpt lat="41.10844798386097" lon="-7.899779034778476">
        <ele>339.48000000000002</ele>
        <time>2025-05-03T10:49:29Z</time>
      </trkpt>
      <trkpt lat="41.108570024371147" lon="-7.899889005348086">
        <ele>339.48000000000002</ele>
        <time>2025-05-03T10:49:30Z</time>
      </trkpt>
      <trkpt lat="41.109410980716348" lon="-7.900651004165411">
        <ele>340.92000000000002</ele>
        <time>2025-05-03T10:49:35Z</time>
      </trkpt>
      <trkpt lat="41.109766960144043" lon="-7.901015030220151">
        <ele>341.41000000000003</ele>
        <time>2025-05-03T10:49:38Z</time>
      </trkpt>
      <trkpt lat="41.109821023419499" lon="-7.901122989133">
        <ele>341.88999999999999</ele>
        <time>2025-05-03T10:49:39Z</time>
      </trkpt>
      <trkpt lat="41.109875002875924" lon="-7.901242012158036">
        <ele>342.37</ele>
        <time>2025-05-03T10:49:40Z</time>
      </trkpt>
      <trkpt lat="41.109881959855556" lon="-7.901365980505943">
        <ele>343.32999999999998</ele>
        <time>2025-05-03T10:49:41Z</time>
      </trkpt>
      <trkpt lat="41.10988799482584" lon="-7.901495983824134">
        <ele>343.81</ele>
        <time>2025-05-03T10:49:42Z</time>
      </trkpt>
      <trkpt lat="41.109939040616155" lon="-7.902672970667481">
        <ele>348.13</ele>
        <time>2025-05-03T10:49:50Z</time>
      </trkpt>
      <trkpt lat="41.109889000654221" lon="-7.904482958838344">
        <ele>349.10000000000002</ele>
        <time>2025-05-03T10:50:01Z</time>
      </trkpt>
      <trkpt lat="41.109838960692286" lon="-7.904592007398605">
        <ele>348.13</ele>
        <time>2025-05-03T10:50:02Z</time>
      </trkpt>
      <trkpt lat="41.109765032306314" lon="-7.904664007946849">
        <ele>347.64999999999998</ele>
        <time>2025-05-03T10:50:03Z</time>
      </trkpt>
      <trkpt lat="41.109638968482614" lon="-7.904706001281738">
        <ele>346.69</ele>
        <time>2025-05-03T10:50:04Z</time>
      </trkpt>
      <trkpt lat="41.109542995691299" lon="-7.904706001281738">
        <ele>346.20999999999998</ele>
        <time>2025-05-03T10:50:05Z</time>
      </trkpt>
      <trkpt lat="41.109420033171773" lon="-7.904699966311455">
        <ele>345.73000000000002</ele>
        <time>2025-05-03T10:50:06Z</time>
      </trkpt>
      <trkpt lat="41.109290029853582" lon="-7.904667025431991">
        <ele>345.25</ele>
        <time>2025-05-03T10:50:07Z</time>
      </trkpt>
      <trkpt lat="41.109160026535392" lon="-7.904635006561875">
        <ele>344.76999999999998</ele>
        <time>2025-05-03T10:50:08Z</time>
      </trkpt>
      <trkpt lat="41.109045026823878" lon="-7.904567029327154">
        <ele>344.29000000000002</ele>
        <time>2025-05-03T10:50:09Z</time>
      </trkpt>
      <trkpt lat="41.108930027112365" lon="-7.904458986595273">
        <ele>343.81</ele>
        <time>2025-05-03T10:50:10Z</time>
      </trkpt>
      <trkpt lat="41.10881301574409" lon="-7.904349016025662">
        <ele>343.32999999999998</ele>
        <time>2025-05-03T10:50:11Z</time>
      </trkpt>
      <trkpt lat="41.108699021860957" lon="-7.904225969687104">
        <ele>342.85000000000002</ele>
        <time>2025-05-03T10:50:12Z</time>
      </trkpt>
      <trkpt lat="41.108268024399877" lon="-7.903702016919851">
        <ele>340.92000000000002</ele>
        <time>2025-05-03T10:50:16Z</time>
      </trkpt>
      <trkpt lat="41.108155958354473" lon="-7.903567990288138">
        <ele>340.44</ele>
        <time>2025-05-03T10:50:17Z</time>
      </trkpt>
      <trkpt lat="41.10801899805665" lon="-7.903510993346572">
        <ele>339.95999999999998</ele>
        <time>2025-05-03T10:50:18Z</time>
      </trkpt>
      <trkpt lat="41.107900980859995" lon="-7.903461959213018">
        <ele>339.48000000000002</ele>
        <time>2025-05-03T10:50:19Z</time>
      </trkpt>
      <trkpt lat="41.107738958671689" lon="-7.903461959213018">
        <ele>339</ele>
        <time>2025-05-03T10:50:20Z</time>
      </trkpt>
      <trkpt lat="41.107590012252331" lon="-7.903472017496824">
        <ele>338.51999999999998</ele>
        <time>2025-05-03T10:50:21Z</time>
      </trkpt>
      <trkpt lat="41.10743997618556" lon="-7.903521973639727">
        <ele>338.04000000000002</ele>
        <time>2025-05-03T10:50:22Z</time>
      </trkpt>
      <trkpt lat="41.107290023937821" lon="-7.903572013601661">
        <ele>337.07999999999998</ele>
        <time>2025-05-03T10:50:23Z</time>
      </trkpt>
      <trkpt lat="41.107139987871051" lon="-7.90359397418797">
        <ele>336.12</ele>
        <time>2025-05-03T10:50:24Z</time>
      </trkpt>
      <trkpt lat="41.106713013723493" lon="-7.903603026643395">
        <ele>334.19999999999999</ele>
        <time>2025-05-03T10:50:27Z</time>
      </trkpt>
      <trkpt lat="41.106580998748541" lon="-7.903565978631377">
        <ele>333.70999999999998</ele>
        <time>2025-05-03T10:50:28Z</time>
      </trkpt>
      <trkpt lat="41.106338007375598" lon="-7.903469000011683">
        <ele>332.26999999999998</ele>
        <time>2025-05-03T10:50:30Z</time>
      </trkpt>
      <trkpt lat="41.106222001835704" lon="-7.903404962271452">
        <ele>331.31</ele>
        <time>2025-05-03T10:50:31Z</time>
      </trkpt>
      <trkpt lat="41.106108007952571" lon="-7.903343020007014">
        <ele>330.82999999999998</ele>
        <time>2025-05-03T10:50:32Z</time>
      </trkpt>
      <trkpt lat="41.105496967211366" lon="-7.902988968417049">
        <ele>328.43000000000001</ele>
        <time>2025-05-03T10:50:37Z</time>
      </trkpt>
      <trkpt lat="41.10539797693491" lon="-7.902901964262128">
        <ele>327.94999999999999</ele>
        <time>2025-05-03T10:50:38Z</time>
      </trkpt>
      <trkpt lat="41.105314996093512" lon="-7.902767015621066">
        <ele>327.47000000000003</ele>
        <time>2025-05-03T10:50:39Z</time>
      </trkpt>
      <trkpt lat="41.105138976126909" lon="-7.902521006762981">
        <ele>325.06</ele>
        <time>2025-05-03T10:50:41Z</time>
      </trkpt>
      <trkpt lat="41.105021964758635" lon="-7.902461998164654">
        <ele>324.10000000000002</ele>
        <time>2025-05-03T10:50:42Z</time>
      </trkpt>
      <trkpt lat="41.104891961440444" lon="-7.902426961809397">
        <ele>322.66000000000003</ele>
        <time>2025-05-03T10:50:43Z</time>
      </trkpt>
      <trkpt lat="41.104045975953341" lon="-7.90219796821475">
        <ele>316.88999999999999</ele>
        <time>2025-05-03T10:50:49Z</time>
      </trkpt>
      <trkpt lat="41.103917984291911" lon="-7.902124961838126">
        <ele>316.41000000000003</ele>
        <time>2025-05-03T10:50:50Z</time>
      </trkpt>
      <trkpt lat="41.103788986802101" lon="-7.902060002088547">
        <ele>315.44999999999999</ele>
        <time>2025-05-03T10:50:51Z</time>
      </trkpt>
      <trkpt lat="41.103664012625813" lon="-7.901997976005077">
        <ele>314.49000000000001</ele>
        <time>2025-05-03T10:50:52Z</time>
      </trkpt>
      <trkpt lat="41.103587988764048" lon="-7.90196000598371">
        <ele>313.52999999999997</ele>
        <time>2025-05-03T10:50:53Z</time>
      </trkpt>
      <trkpt lat="41.103475000709295" lon="-7.9018310084939">
        <ele>312.56999999999999</ele>
        <time>2025-05-03T10:50:54Z</time>
      </trkpt>
      <trkpt lat="41.103412974625826" lon="-7.901725983247161">
        <ele>311.60000000000002</ele>
        <time>2025-05-03T10:50:55Z</time>
      </trkpt>
      <trkpt lat="41.103365030139685" lon="-7.901606038212776">
        <ele>310.63999999999999</ele>
        <time>2025-05-03T10:50:56Z</time>
      </trkpt>
      <trkpt lat="41.103319013491273" lon="-7.901491038501263">
        <ele>310.16000000000003</ele>
        <time>2025-05-03T10:50:57Z</time>
      </trkpt>
      <trkpt lat="41.103246007114649" lon="-7.901416020467877">
        <ele>309.19999999999999</ele>
        <time>2025-05-03T10:50:58Z</time>
      </trkpt>
      <trkpt lat="41.103164032101631" lon="-7.901394981890917">
        <ele>308.72000000000003</ele>
        <time>2025-05-03T10:50:59Z</time>
      </trkpt>
      <trkpt lat="41.103082979097962" lon="-7.90144401602447">
        <ele>307.75999999999999</ele>
        <time>2025-05-03T10:51:00Z</time>
      </trkpt>
      <trkpt lat="41.103024976328015" lon="-7.90154904127121">
        <ele>307.27999999999997</ele>
        <time>2025-05-03T10:51:01Z</time>
      </trkpt>
      <trkpt lat="41.102959010750055" lon="-7.901674015447497">
        <ele>306.80000000000001</ele>
        <time>2025-05-03T10:51:02Z</time>
      </trkpt>
      <trkpt lat="41.102894973009825" lon="-7.901823967695236">
        <ele>305.83999999999997</ele>
        <time>2025-05-03T10:51:03Z</time>
      </trkpt>
      <trkpt lat="41.102578975260258" lon="-7.902569035068154">
        <ele>302.47000000000003</ele>
        <time>2025-05-03T10:51:08Z</time>
      </trkpt>
      <trkpt lat="41.102492976933718" lon="-7.902685962617397">
        <ele>301.50999999999999</ele>
        <time>2025-05-03T10:51:09Z</time>
      </trkpt>
      <trkpt lat="41.101897023618221" lon="-7.903529014438391">
        <ele>295.25999999999999</ele>
        <time>2025-05-03T10:51:16Z</time>
      </trkpt>
      <trkpt lat="41.101804990321398" lon="-7.90363403968513">
        <ele>294.77999999999997</ele>
        <time>2025-05-03T10:51:17Z</time>
      </trkpt>
      <trkpt lat="41.101635005325079" lon="-7.903825985267758">
        <ele>292.86000000000001</ele>
        <time>2025-05-03T10:51:19Z</time>
      </trkpt>
      <trkpt lat="41.101601980626583" lon="-7.903925981372595">
        <ele>292.38</ele>
        <time>2025-05-03T10:51:20Z</time>
      </trkpt>
      <trkpt lat="41.101569039747119" lon="-7.90402295999229">
        <ele>291.42000000000002</ele>
        <time>2025-05-03T10:51:21Z</time>
      </trkpt>
      <trkpt lat="41.101538026705384" lon="-7.904117004945874">
        <ele>290.45999999999998</ele>
        <time>2025-05-03T10:51:22Z</time>
      </trkpt>
      <trkpt lat="41.101527968421578" lon="-7.904148017987609">
        <ele>289.97000000000003</ele>
        <time>2025-05-03T10:51:23Z</time>
      </trkpt>
      <trkpt lat="41.101542972028255" lon="-7.90425798855722">
        <ele>289.00999999999999</ele>
        <time>2025-05-03T10:51:24Z</time>
      </trkpt>
      <trkpt lat="41.101549006998539" lon="-7.904297970235348">
        <ele>288.05000000000001</ele>
        <time>2025-05-03T10:51:25Z</time>
      </trkpt>
      <trkpt lat="41.101549006998539" lon="-7.904297970235348">
        <ele>287.08999999999997</ele>
        <time>2025-05-03T10:51:26Z</time>
      </trkpt>
      <trkpt lat="41.101549006998539" lon="-7.904297970235348">
        <ele>286.61000000000001</ele>
        <time>2025-05-03T10:51:27Z</time>
      </trkpt>
      <trkpt lat="41.101549006998539" lon="-7.904297970235348">
        <ele>285.64999999999998</ele>
        <time>2025-05-03T10:51:28Z</time>
      </trkpt>
      <trkpt lat="41.10163601115346" lon="-7.904330994933844">
        <ele>285.17000000000002</ele>
        <time>2025-05-03T10:51:29Z</time>
      </trkpt>
      <trkpt lat="41.101685967296362" lon="-7.904350021854043">
        <ele>284.20999999999998</ele>
        <time>2025-05-03T10:51:30Z</time>
      </trkpt>
      <trkpt lat="41.101721003651619" lon="-7.904363013803959">
        <ele>283.25</ele>
        <time>2025-05-03T10:51:31Z</time>
      </trkpt>
      <trkpt lat="41.101721003651619" lon="-7.904363013803959">
        <ele>282.76999999999998</ele>
        <time>2025-05-03T10:51:32Z</time>
      </trkpt>
      <trkpt lat="41.102578975260258" lon="-7.903959006071091">
        <ele>279.39999999999998</ele>
        <time>2025-05-03T10:51:39Z</time>
      </trkpt>
      <trkpt lat="41.102720964699984" lon="-7.903926987200975">
        <ele>278.92000000000002</ele>
        <time>2025-05-03T10:51:40Z</time>
      </trkpt>
      <trkpt lat="41.103007961064577" lon="-7.903868984431028">
        <ele>278.92000000000002</ele>
        <time>2025-05-03T10:51:41Z</time>
      </trkpt>
      <trkpt lat="41.103200996294618" lon="-7.90393402799964">
        <ele>278.92000000000002</ele>
        <time>2025-05-03T10:51:42Z</time>
      </trkpt>
      <trkpt lat="41.103304009884596" lon="-7.904026983305812">
        <ele>278.92000000000002</ele>
        <time>2025-05-03T10:51:43Z</time>
      </trkpt>
      <trkpt lat="41.103500984609127" lon="-7.904338035732508">
        <ele>279.39999999999998</ele>
        <time>2025-05-03T10:51:44Z</time>
      </trkpt>
      <trkpt lat="41.103543983772397" lon="-7.904467033222318">
        <ele>279.88</ele>
        <time>2025-05-03T10:51:45Z</time>
      </trkpt>
      <trkpt lat="41.103544989600778" lon="-7.904684962704778">
        <ele>280.36000000000001</ele>
        <time>2025-05-03T10:51:46Z</time>
      </trkpt>
      <trkpt lat="41.10350601375103" lon="-7.90490398183465">
        <ele>281.31999999999999</ele>
        <time>2025-05-03T10:51:47Z</time>
      </trkpt>
      <trkpt lat="41.103482041507959" lon="-7.905039014294744">
        <ele>282.27999999999997</ele>
        <time>2025-05-03T10:51:48Z</time>
      </trkpt>
      <trkpt lat="41.103459997102618" lon="-7.90516197681427">
        <ele>283.73000000000002</ele>
        <time>2025-05-03T10:51:49Z</time>
      </trkpt>
      <trkpt lat="41.103437030687928" lon="-7.905285023152828">
        <ele>284.20999999999998</ele>
        <time>2025-05-03T10:51:50Z</time>
      </trkpt>
      <trkpt lat="41.103437030687928" lon="-7.905285023152828">
        <ele>285.17000000000002</ele>
        <time>2025-05-03T10:51:51Z</time>
      </trkpt>
      <trkpt lat="41.103492015972733" lon="-7.90544000454247">
        <ele>285.64999999999998</ele>
        <time>2025-05-03T10:51:52Z</time>
      </trkpt>
      <trkpt lat="41.103539960458875" lon="-7.905576964840293">
        <ele>287.08999999999997</ele>
        <time>2025-05-03T10:51:53Z</time>
      </trkpt>
      <trkpt lat="41.103584971278906" lon="-7.905707973986864">
        <ele>288.52999999999997</ele>
        <time>2025-05-03T10:51:54Z</time>
      </trkpt>
      <trkpt lat="41.103674992918968" lon="-7.905964963138104">
        <ele>290.94</ele>
        <time>2025-05-03T10:51:56Z</time>
      </trkpt>
      <trkpt lat="41.103738024830818" lon="-7.906144000589848">
        <ele>291.89999999999998</ele>
        <time>2025-05-03T10:51:57Z</time>
      </trkpt>
      <trkpt lat="41.103752022609115" lon="-7.906240979209542">
        <ele>292.86000000000001</ele>
        <time>2025-05-03T10:51:58Z</time>
      </trkpt>
      <trkpt lat="41.103781023994088" lon="-7.906443988904357">
        <ele>294.77999999999997</ele>
        <time>2025-05-03T10:51:59Z</time>
      </trkpt>
      <trkpt lat="41.103755962103605" lon="-7.906509032472968">
        <ele>296.22000000000003</ele>
        <time>2025-05-03T10:52:00Z</time>
      </trkpt>
      <trkpt lat="41.103672981262207" lon="-7.906723022460938">
        <ele>298.14999999999998</ele>
        <time>2025-05-03T10:52:01Z</time>
      </trkpt>
      <trkpt lat="41.103636017069221" lon="-7.90677297860384">
        <ele>298.63</ele>
        <time>2025-05-03T10:52:02Z</time>
      </trkpt>
      <trkpt lat="41.103515988215804" lon="-7.906937012448907">
        <ele>301.99000000000001</ele>
        <time>2025-05-03T10:52:04Z</time>
      </trkpt>
      <trkpt lat="41.103372992947698" lon="-7.907130969688296">
        <ele>302.47000000000003</ele>
        <time>2025-05-03T10:52:05Z</time>
      </trkpt>
      <trkpt lat="41.103372992947698" lon="-7.907130969688296">
        <ele>303.43000000000001</ele>
        <time>2025-05-03T10:52:06Z</time>
      </trkpt>
      <trkpt lat="41.103352038189769" lon="-7.907301960512996">
        <ele>303.91000000000003</ele>
        <time>2025-05-03T10:52:07Z</time>
      </trkpt>
      <trkpt lat="41.103408029302955" lon="-7.907513016834855">
        <ele>304.38999999999999</ele>
        <time>2025-05-03T10:52:08Z</time>
      </trkpt>
      <trkpt lat="41.103501990437508" lon="-7.90763396769762">
        <ele>305.36000000000001</ele>
        <time>2025-05-03T10:52:09Z</time>
      </trkpt>
      <trkpt lat="41.103601986542344" lon="-7.907761037349701">
        <ele>305.83999999999997</ele>
        <time>2025-05-03T10:52:10Z</time>
      </trkpt>
      <trkpt lat="41.104014040902257" lon="-7.908327989280224">
        <ele>308.72000000000003</ele>
        <time>2025-05-03T10:52:15Z</time>
      </trkpt>
      <trkpt lat="41.104102972894907" lon="-7.908482970669866">
        <ele>309.19999999999999</ele>
        <time>2025-05-03T10:52:16Z</time>
      </trkpt>
      <trkpt lat="41.104113031178713" lon="-7.908551031723619">
        <ele>309.68000000000001</ele>
        <time>2025-05-03T10:52:17Z</time>
      </trkpt>
      <trkpt lat="41.104135997593403" lon="-7.908702995628119">
        <ele>310.63999999999999</ele>
        <time>2025-05-03T10:52:18Z</time>
      </trkpt>
      <trkpt lat="41.104167010635138" lon="-7.908912040293217">
        <ele>311.60000000000002</ele>
        <time>2025-05-03T10:52:19Z</time>
      </trkpt>
      <trkpt lat="41.104124011471868" lon="-7.909126030281186">
        <ele>312.56999999999999</ele>
        <time>2025-05-03T10:52:20Z</time>
      </trkpt>
      <trkpt lat="41.104068020358682" lon="-7.909233989194036">
        <ele>313.52999999999997</ele>
        <time>2025-05-03T10:52:21Z</time>
      </trkpt>
      <trkpt lat="41.103795021772385" lon="-7.909798007458448">
        <ele>317.85000000000002</ele>
        <time>2025-05-03T10:52:25Z</time>
      </trkpt>
      <trkpt lat="41.103746993467212" lon="-7.909947959706187">
        <ele>319.30000000000001</ele>
        <time>2025-05-03T10:52:26Z</time>
      </trkpt>
      <trkpt lat="41.103695025667548" lon="-7.910112999379635">
        <ele>320.25999999999999</ele>
        <time>2025-05-03T10:52:27Z</time>
      </trkpt>
      <trkpt lat="41.103654960170388" lon="-7.910420028492808">
        <ele>322.18000000000001</ele>
        <time>2025-05-03T10:52:29Z</time>
      </trkpt>
      <trkpt lat="41.103630987927318" lon="-7.910607028752565">
        <ele>322.66000000000003</ele>
        <time>2025-05-03T10:52:30Z</time>
      </trkpt>
      <trkpt lat="41.103648003190756" lon="-7.910738959908485">
        <ele>323.62</ele>
        <time>2025-05-03T10:52:31Z</time>
      </trkpt>
      <trkpt lat="41.103686979040504" lon="-7.910942975431681">
        <ele>324.10000000000002</ele>
        <time>2025-05-03T10:52:32Z</time>
      </trkpt>
      <trkpt lat="41.103751016780734" lon="-7.911006007343531">
        <ele>324.57999999999998</ele>
        <time>2025-05-03T10:52:33Z</time>
      </trkpt>
      <trkpt lat="41.103871967643499" lon="-7.911106003448367">
        <ele>325.06</ele>
        <time>2025-05-03T10:52:34Z</time>
      </trkpt>
      <trkpt lat="41.103971963748336" lon="-7.911126958206296">
        <ele>325.54000000000002</ele>
        <time>2025-05-03T10:52:35Z</time>
      </trkpt>
      <trkpt lat="41.104081012308598" lon="-7.911150008440018">
        <ele>325.54000000000002</ele>
        <time>2025-05-03T10:52:36Z</time>
      </trkpt>
      <trkpt lat="41.104192994534969" lon="-7.911173980683088">
        <ele>326.01999999999998</ele>
        <time>2025-05-03T10:52:37Z</time>
      </trkpt>
      <trkpt lat="41.104276981204748" lon="-7.91119996458292">
        <ele>326.5</ele>
        <time>2025-05-03T10:52:38Z</time>
      </trkpt>
      <trkpt lat="41.104384018108249" lon="-7.911258973181248">
        <ele>326.99000000000001</ele>
        <time>2025-05-03T10:52:39Z</time>
      </trkpt>
      <trkpt lat="41.104683000594378" lon="-7.911448990926147">
        <ele>327.47000000000003</ele>
        <time>2025-05-03T10:52:42Z</time>
      </trkpt>
      <trkpt lat="41.104775033891201" lon="-7.911548987030983">
        <ele>327.47000000000003</ele>
        <time>2025-05-03T10:52:43Z</time>
      </trkpt>
      <trkpt lat="41.104923980310559" lon="-7.911741016432643">
        <ele>326.5</ele>
        <time>2025-05-03T10:52:45Z</time>
      </trkpt>
      <trkpt lat="41.105004027485847" lon="-7.911873031407595">
        <ele>326.01999999999998</ele>
        <time>2025-05-03T10:52:46Z</time>
      </trkpt>
      <trkpt lat="41.105022970587015" lon="-7.911943020299077">
        <ele>325.54000000000002</ele>
        <time>2025-05-03T10:52:47Z</time>
      </trkpt>
      <trkpt lat="41.10505398362875" lon="-7.91205701418221">
        <ele>325.06</ele>
        <time>2025-05-03T10:52:48Z</time>
      </trkpt>
      <trkpt lat="41.105061024427414" lon="-7.912141000851989">
        <ele>324.57999999999998</ele>
        <time>2025-05-03T10:52:49Z</time>
      </trkpt>
      <trkpt lat="41.105034034699202" lon="-7.912262035533786">
        <ele>324.57999999999998</ele>
        <time>2025-05-03T10:52:50Z</time>
      </trkpt>
      <trkpt lat="41.104992963373661" lon="-7.912383992224932">
        <ele>324.10000000000002</ele>
        <time>2025-05-03T10:52:51Z</time>
      </trkpt>
      <trkpt lat="41.104938983917236" lon="-7.912523970007896">
        <ele>324.10000000000002</ele>
        <time>2025-05-03T10:52:52Z</time>
      </trkpt>
      <trkpt lat="41.10481602139771" lon="-7.912842985242605">
        <ele>323.13999999999999</ele>
        <time>2025-05-03T10:52:54Z</time>
      </trkpt>
      <trkpt lat="41.104771010577679" lon="-7.913037026301026">
        <ele>322.66000000000003</ele>
        <time>2025-05-03T10:52:55Z</time>
      </trkpt>
      <trkpt lat="41.104780985042453" lon="-7.9132179915905">
        <ele>322.18000000000001</ele>
        <time>2025-05-03T10:52:56Z</time>
      </trkpt>
      <trkpt lat="41.104800011962652" lon="-7.913405997678638">
        <ele>321.69999999999999</ele>
        <time>2025-05-03T10:52:57Z</time>
      </trkpt>
      <trkpt lat="41.104852985590696" lon="-7.913558967411518">
        <ele>321.69999999999999</ele>
        <time>2025-05-03T10:52:58Z</time>
      </trkpt>
      <trkpt lat="41.105409041047096" lon="-7.914765039458871">
        <ele>318.81</ele>
        <time>2025-05-03T10:53:07Z</time>
      </trkpt>
      <trkpt lat="41.10567701049149" lon="-7.915244987234473">
        <ele>317.37</ele>
        <time>2025-05-03T10:53:11Z</time>
      </trkpt>
      <trkpt lat="41.105754962190986" lon="-7.915412960574031">
        <ele>316.88999999999999</ele>
        <time>2025-05-03T10:53:12Z</time>
      </trkpt>
      <trkpt lat="41.105766026303172" lon="-7.915541036054492">
        <ele>315.93000000000001</ele>
        <time>2025-05-03T10:53:13Z</time>
      </trkpt>
      <trkpt lat="41.105765020474792" lon="-7.915723007172346">
        <ele>315.44999999999999</ele>
        <time>2025-05-03T10:53:14Z</time>
      </trkpt>
      <trkpt lat="41.105736019089818" lon="-7.915913024917245">
        <ele>314.97000000000003</ele>
        <time>2025-05-03T10:53:15Z</time>
      </trkpt>
      <trkpt lat="41.105707017704844" lon="-7.916099019348621">
        <ele>315.44999999999999</ele>
        <time>2025-05-03T10:53:16Z</time>
      </trkpt>
      <trkpt lat="41.1056989710778" lon="-7.916285013779998">
        <ele>315.44999999999999</ele>
        <time>2025-05-03T10:53:17Z</time>
      </trkpt>
      <trkpt lat="41.105729984119534" lon="-7.916447035968304">
        <ele>314.97000000000003</ele>
        <time>2025-05-03T10:53:18Z</time>
      </trkpt>
      <trkpt lat="41.105789998546243" lon="-7.916597994044423">
        <ele>314.97000000000003</ele>
        <time>2025-05-03T10:53:19Z</time>
      </trkpt>
      <trkpt lat="41.1059579718858" lon="-7.917024968191981">
        <ele>314.97000000000003</ele>
        <time>2025-05-03T10:53:22Z</time>
      </trkpt>
      <trkpt lat="41.106012035161257" lon="-7.917160000652075">
        <ele>314.97000000000003</ele>
        <time>2025-05-03T10:53:23Z</time>
      </trkpt>
      <trkpt lat="41.106037013232708" lon="-7.917307019233704">
        <ele>314.97000000000003</ele>
        <time>2025-05-03T10:53:24Z</time>
      </trkpt>
      <trkpt lat="41.10604397021234" lon="-7.917462000623345">
        <ele>314.97000000000003</ele>
        <time>2025-05-03T10:53:25Z</time>
      </trkpt>
      <trkpt lat="41.106050005182624" lon="-7.917615976184607">
        <ele>314.49000000000001</ele>
        <time>2025-05-03T10:53:26Z</time>
      </trkpt>
      <trkpt lat="41.106051011011004" lon="-7.91777296923101">
        <ele>314.49000000000001</ele>
        <time>2025-05-03T10:53:27Z</time>
      </trkpt>
      <trkpt lat="41.106013962998986" lon="-7.917930968105793">
        <ele>314.00999999999999</ele>
        <time>2025-05-03T10:53:28Z</time>
      </trkpt>
      <trkpt lat="41.105976998806" lon="-7.918089972808957">
        <ele>314.00999999999999</ele>
        <time>2025-05-03T10:53:29Z</time>
      </trkpt>
      <trkpt lat="41.105749011039734" lon="-7.919045006856322">
        <ele>312.56999999999999</ele>
        <time>2025-05-03T10:53:35Z</time>
      </trkpt>
      <trkpt lat="41.10567600466311" lon="-7.919168975204229">
        <ele>312.56999999999999</ele>
        <time>2025-05-03T10:53:36Z</time>
      </trkpt>
      <trkpt lat="41.105587994679809" lon="-7.919278023764491">
        <ele>312.56999999999999</ele>
        <time>2025-05-03T10:53:37Z</time>
      </trkpt>
      <trkpt lat="41.105480035766959" lon="-7.919343989342451">
        <ele>313.05000000000001</ele>
        <time>2025-05-03T10:53:38Z</time>
      </trkpt>
      <trkpt lat="41.105367969721556" lon="-7.919412972405553">
        <ele>313.52999999999997</ele>
        <time>2025-05-03T10:53:39Z</time>
      </trkpt>
      <trkpt lat="41.105256993323565" lon="-7.919480027630925">
        <ele>313.52999999999997</ele>
        <time>2025-05-03T10:53:40Z</time>
      </trkpt>
      <trkpt lat="41.104575041681528" lon="-7.91989803314209">
        <ele>314.49000000000001</ele>
        <time>2025-05-03T10:53:46Z</time>
      </trkpt>
      <trkpt lat="41.104450989514589" lon="-7.920035999268293">
        <ele>314.49000000000001</ele>
        <time>2025-05-03T10:53:47Z</time>
      </trkpt>
      <trkpt lat="41.104346970096231" lon="-7.920152004808188">
        <ele>314.49000000000001</ele>
        <time>2025-05-03T10:53:48Z</time>
      </trkpt>
      <trkpt lat="41.104248985648155" lon="-7.920259963721037">
        <ele>314.00999999999999</ele>
        <time>2025-05-03T10:53:49Z</time>
      </trkpt>
      <trkpt lat="41.104149995371699" lon="-7.920370018109679">
        <ele>314.00999999999999</ele>
        <time>2025-05-03T10:53:50Z</time>
      </trkpt>
      <trkpt lat="41.104054022580385" lon="-7.920475965365768">
        <ele>313.05000000000001</ele>
        <time>2025-05-03T10:53:51Z</time>
      </trkpt>
      <trkpt lat="41.103959977626801" lon="-7.920580990612507">
        <ele>312.56999999999999</ele>
        <time>2025-05-03T10:53:52Z</time>
      </trkpt>
      <trkpt lat="41.103865010663867" lon="-7.920686015859246">
        <ele>312.56999999999999</ele>
        <time>2025-05-03T10:53:53Z</time>
      </trkpt>
      <trkpt lat="41.103772977367043" lon="-7.920789029449225">
        <ele>312.08999999999997</ele>
        <time>2025-05-03T10:53:54Z</time>
      </trkpt>
      <trkpt lat="41.103609027341008" lon="-7.920971000567079">
        <ele>312.56999999999999</ele>
        <time>2025-05-03T10:53:56Z</time>
      </trkpt>
      <trkpt lat="41.10348598100245" lon="-7.921030009165406">
        <ele>312.56999999999999</ele>
        <time>2025-05-03T10:53:57Z</time>
      </trkpt>
      <trkpt lat="41.103372992947698" lon="-7.92108298279345">
        <ele>312.56999999999999</ele>
        <time>2025-05-03T10:53:58Z</time>
      </trkpt>
      <trkpt lat="41.103251036256552" lon="-7.921140985563397">
        <ele>313.05000000000001</ele>
        <time>2025-05-03T10:53:59Z</time>
      </trkpt>
      <trkpt lat="41.103099994361401" lon="-7.921198988333345">
        <ele>313.05000000000001</ele>
        <time>2025-05-03T10:54:00Z</time>
      </trkpt>
      <trkpt lat="41.102747032418847" lon="-7.921279035508633">
        <ele>314.00999999999999</ele>
        <time>2025-05-03T10:54:02Z</time>
      </trkpt>
      <trkpt lat="41.102591967210174" lon="-7.92133997194469">
        <ele>314.49000000000001</ele>
        <time>2025-05-03T10:54:03Z</time>
      </trkpt>
      <trkpt lat="41.102455006912351" lon="-7.921430999413133">
        <ele>314.97000000000003</ele>
        <time>2025-05-03T10:54:04Z</time>
      </trkpt>
      <trkpt lat="41.102155018597841" lon="-7.921696035191417">
        <ele>315.44999999999999</ele>
        <time>2025-05-03T10:54:07Z</time>
      </trkpt>
      <trkpt lat="41.102115958929062" lon="-7.921769041568041">
        <ele>315.93000000000001</ele>
        <time>2025-05-03T10:54:08Z</time>
      </trkpt>
      <trkpt lat="41.102078994736075" lon="-7.921842969954014">
        <ele>315.93000000000001</ele>
        <time>2025-05-03T10:54:09Z</time>
      </trkpt>
      <trkpt lat="41.102069020271301" lon="-7.921912036836147">
        <ele>316.41000000000003</ele>
        <time>2025-05-03T10:54:10Z</time>
      </trkpt>
      <trkpt lat="41.102081006392837" lon="-7.922008009627461">
        <ele>316.41000000000003</ele>
        <time>2025-05-03T10:54:11Z</time>
      </trkpt>
      <trkpt lat="41.102128028869629" lon="-7.922075986862183">
        <ele>316.88999999999999</ele>
        <time>2025-05-03T10:54:12Z</time>
      </trkpt>
      <trkpt lat="41.102200029417872" lon="-7.922128960490227">
        <ele>316.88999999999999</ele>
        <time>2025-05-03T10:54:13Z</time>
      </trkpt>
      <trkpt lat="41.102293990552425" lon="-7.922167014330626">
        <ele>317.37</ele>
        <time>2025-05-03T10:54:14Z</time>
      </trkpt>
      <trkpt lat="41.102400021627545" lon="-7.922151004895568">
        <ele>317.85000000000002</ele>
        <time>2025-05-03T10:54:15Z</time>
      </trkpt>
      <trkpt lat="41.102504963055253" lon="-7.92213499546051">
        <ele>317.85000000000002</ele>
        <time>2025-05-03T10:54:16Z</time>
      </trkpt>
      <trkpt lat="41.102607976645231" lon="-7.922142958268523">
        <ele>318.32999999999998</ele>
        <time>2025-05-03T10:54:17Z</time>
      </trkpt>
      <trkpt lat="41.103712962940335" lon="-7.922354014590383">
        <ele>321.22000000000003</ele>
        <time>2025-05-03T10:54:26Z</time>
      </trkpt>
      <trkpt lat="41.104071959853172" lon="-7.922473037615418">
        <ele>322.66000000000003</ele>
        <time>2025-05-03T10:54:29Z</time>
      </trkpt>
      <trkpt lat="41.104183020070195" lon="-7.922531962394714">
        <ele>323.13999999999999</ele>
        <time>2025-05-03T10:54:30Z</time>
      </trkpt>
      <trkpt lat="41.104273963719606" lon="-7.922579990699887">
        <ele>323.13999999999999</ele>
        <time>2025-05-03T10:54:31Z</time>
      </trkpt>
      <trkpt lat="41.104369014501572" lon="-7.922722985967994">
        <ele>323.62</ele>
        <time>2025-05-03T10:54:32Z</time>
      </trkpt>
      <trkpt lat="41.10445199534297" lon="-7.922847038134933">
        <ele>323.62</ele>
        <time>2025-05-03T10:54:33Z</time>
      </trkpt>
      <trkpt lat="41.1045160330832" lon="-7.92299103923142">
        <ele>323.13999999999999</ele>
        <time>2025-05-03T10:54:34Z</time>
      </trkpt>
      <trkpt lat="41.104569006711245" lon="-7.92316596955061">
        <ele>323.13999999999999</ele>
        <time>2025-05-03T10:54:35Z</time>
      </trkpt>
      <trkpt lat="41.104678977280855" lon="-7.923713978379965">
        <ele>322.66000000000003</ele>
        <time>2025-05-03T10:54:38Z</time>
      </trkpt>
      <trkpt lat="41.104700015857816" lon="-7.923883963376284">
        <ele>322.66000000000003</ele>
        <time>2025-05-03T10:54:39Z</time>
      </trkpt>
      <trkpt lat="41.104673026129603" lon="-7.924030981957912">
        <ele>322.66000000000003</ele>
        <time>2025-05-03T10:54:40Z</time>
      </trkpt>
      <trkpt lat="41.104633966460824" lon="-7.924186969175935">
        <ele>323.13999999999999</ele>
        <time>2025-05-03T10:54:41Z</time>
      </trkpt>
      <trkpt lat="41.10458099283278" lon="-7.924337005242705">
        <ele>323.62</ele>
        <time>2025-05-03T10:54:42Z</time>
      </trkpt>
      <trkpt lat="41.104207998141646" lon="-7.925158012658358">
        <ele>326.01999999999998</ele>
        <time>2025-05-03T10:54:48Z</time>
      </trkpt>
      <trkpt lat="41.10406500287354" lon="-7.925410978496075">
        <ele>326.99000000000001</ele>
        <time>2025-05-03T10:54:50Z</time>
      </trkpt>
      <trkpt lat="41.104014040902257" lon="-7.925538970157504">
        <ele>327.94999999999999</ele>
        <time>2025-05-03T10:54:51Z</time>
      </trkpt>
      <trkpt lat="41.103945979848504" lon="-7.925755977630615">
        <ele>328.91000000000003</ele>
        <time>2025-05-03T10:54:53Z</time>
      </trkpt>
      <trkpt lat="41.103937011212111" lon="-7.925865026190877">
        <ele>329.38999999999999</ele>
        <time>2025-05-03T10:54:54Z</time>
      </trkpt>
      <trkpt lat="41.103937011212111" lon="-7.925957981497049">
        <ele>329.38999999999999</ele>
        <time>2025-05-03T10:54:55Z</time>
      </trkpt>
      <trkpt lat="41.103993002325296" lon="-7.926041968166828">
        <ele>329.87</ele>
        <time>2025-05-03T10:54:56Z</time>
      </trkpt>
      <trkpt lat="41.104066008701921" lon="-7.926098965108395">
        <ele>330.35000000000002</ele>
        <time>2025-05-03T10:54:57Z</time>
      </trkpt>
      <trkpt lat="41.104161981493235" lon="-7.926140036433935">
        <ele>330.35000000000002</ele>
        <time>2025-05-03T10:54:58Z</time>
      </trkpt>
      <trkpt lat="41.104277987033129" lon="-7.926126960664988">
        <ele>330.82999999999998</ele>
        <time>2025-05-03T10:54:59Z</time>
      </trkpt>
      <trkpt lat="41.104396004229784" lon="-7.926110029220581">
        <ele>330.82999999999998</ele>
        <time>2025-05-03T10:55:00Z</time>
      </trkpt>
      <trkpt lat="41.104517038911581" lon="-7.926075998693705">
        <ele>331.31</ele>
        <time>2025-05-03T10:55:01Z</time>
      </trkpt>
      <trkpt lat="41.104636983945966" lon="-7.926020007580519">
        <ele>331.31</ele>
        <time>2025-05-03T10:55:02Z</time>
      </trkpt>
      <trkpt lat="41.104865977540612" lon="-7.925924034789205">
        <ele>332.26999999999998</ele>
        <time>2025-05-03T10:55:04Z</time>
      </trkpt>
      <trkpt lat="41.104979971423745" lon="-7.925910959020257">
        <ele>332.75</ele>
        <time>2025-05-03T10:55:05Z</time>
      </trkpt>
      <trkpt lat="41.105087008327246" lon="-7.925898972898722">
        <ele>333.23000000000002</ele>
        <time>2025-05-03T10:55:06Z</time>
      </trkpt>
      <trkpt lat="41.105218017473817" lon="-7.925884975120425">
        <ele>333.70999999999998</ele>
        <time>2025-05-03T10:55:07Z</time>
      </trkpt>
      <trkpt lat="41.105307033285499" lon="-7.925928980112076">
        <ele>334.68000000000001</ele>
        <time>2025-05-03T10:55:08Z</time>
      </trkpt>
      <trkpt lat="41.10541800968349" lon="-7.926006009802222">
        <ele>335.16000000000003</ele>
        <time>2025-05-03T10:55:09Z</time>
      </trkpt>
      <trkpt lat="41.105500990524888" lon="-7.926111035048962">
        <ele>336.12</ele>
        <time>2025-05-03T10:55:10Z</time>
      </trkpt>
      <trkpt lat="41.105587994679809" lon="-7.926223017275333">
        <ele>336.60000000000002</ele>
        <time>2025-05-03T10:55:11Z</time>
      </trkpt>
      <trkpt lat="41.105670975521207" lon="-7.926350003108382">
        <ele>337.56</ele>
        <time>2025-05-03T10:55:12Z</time>
      </trkpt>
      <trkpt lat="41.105850012972951" lon="-7.926544966176152">
        <ele>339</ele>
        <time>2025-05-03T10:55:14Z</time>
      </trkpt>
      <trkpt lat="41.105940034613013" lon="-7.926616966724396">
        <ele>339.95999999999998</ele>
        <time>2025-05-03T10:55:15Z</time>
      </trkpt>
      <trkpt lat="41.106056040152907" lon="-7.92662400752306">
        <ele>340.92000000000002</ele>
        <time>2025-05-03T10:55:16Z</time>
      </trkpt>
      <trkpt lat="41.106159975752234" lon="-7.926564998924732">
        <ele>341.88999999999999</ele>
        <time>2025-05-03T10:55:17Z</time>
      </trkpt>
      <trkpt lat="41.106263995170593" lon="-7.926505990326405">
        <ele>342.85000000000002</ele>
        <time>2025-05-03T10:55:18Z</time>
      </trkpt>
      <trkpt lat="41.106370026245713" lon="-7.926446981728077">
        <ele>343.81</ele>
        <time>2025-05-03T10:55:19Z</time>
      </trkpt>
      <trkpt lat="41.106477985158563" lon="-7.926385961472988">
        <ele>344.76999999999998</ele>
        <time>2025-05-03T10:55:20Z</time>
      </trkpt>
      <trkpt lat="41.106586027890444" lon="-7.926325025036931">
        <ele>345.73000000000002</ele>
        <time>2025-05-03T10:55:21Z</time>
      </trkpt>
      <trkpt lat="41.106719970703125" lon="-7.926250007003546">
        <ele>346.69</ele>
        <time>2025-05-03T10:55:22Z</time>
      </trkpt>
      <trkpt lat="41.106820972636342" lon="-7.926244977861643">
        <ele>347.64999999999998</ele>
        <time>2025-05-03T10:55:23Z</time>
      </trkpt>
      <trkpt lat="41.106942007318139" lon="-7.926240032538772">
        <ele>348.62</ele>
        <time>2025-05-03T10:55:24Z</time>
      </trkpt>
      <trkpt lat="41.107067987322807" lon="-7.926235003396869">
        <ele>349.57999999999998</ele>
        <time>2025-05-03T10:55:25Z</time>
      </trkpt>
      <trkpt lat="41.107196984812617" lon="-7.926228968426585">
        <ele>350.54000000000002</ele>
        <time>2025-05-03T10:55:26Z</time>
      </trkpt>
      <trkpt lat="41.107312990352511" lon="-7.926141964271665">
        <ele>351.01999999999998</ele>
        <time>2025-05-03T10:55:27Z</time>
      </trkpt>
      <trkpt lat="41.107425978407264" lon="-7.926043979823589">
        <ele>351.5</ele>
        <time>2025-05-03T10:55:28Z</time>
      </trkpt>
      <trkpt lat="41.107539972290397" lon="-7.925943983718753">
        <ele>351.98000000000002</ele>
        <time>2025-05-03T10:55:29Z</time>
      </trkpt>
      <trkpt lat="41.107636028900743" lon="-7.925818003714085">
        <ele>352.45999999999998</ele>
        <time>2025-05-03T10:55:30Z</time>
      </trkpt>
      <trkpt lat="41.107928976416588" lon="-7.925447020679712">
        <ele>353.89999999999998</ele>
        <time>2025-05-03T10:55:33Z</time>
      </trkpt>
      <trkpt lat="41.108325021341443" lon="-7.924887025728822">
        <ele>356.79000000000002</ele>
        <time>2025-05-03T10:55:38Z</time>
      </trkpt>
      <trkpt lat="41.108400961384177" lon="-7.924847966060042">
        <ele>356.79000000000002</ele>
        <time>2025-05-03T10:55:39Z</time>
      </trkpt>
      <trkpt lat="41.10849198885262" lon="-7.924834974110127">
        <ele>357.26999999999998</ele>
        <time>2025-05-03T10:55:40Z</time>
      </trkpt>
      <trkpt lat="41.108569018542767" lon="-7.924875961616635">
        <ele>357.26999999999998</ele>
        <time>2025-05-03T10:55:41Z</time>
      </trkpt>
      <trkpt lat="41.108651999384165" lon="-7.924928013235331">
        <ele>357.26999999999998</ele>
        <time>2025-05-03T10:55:42Z</time>
      </trkpt>
      <trkpt lat="41.108694998547435" lon="-7.925019040703774">
        <ele>357.26999999999998</ele>
        <time>2025-05-03T10:55:43Z</time>
      </trkpt>
      <trkpt lat="41.108731040731072" lon="-7.925148038193584">
        <ele>357.26999999999998</ele>
        <time>2025-05-03T10:55:44Z</time>
      </trkpt>
      <trkpt lat="41.108769010752439" lon="-7.925287010148168">
        <ele>357.26999999999998</ele>
        <time>2025-05-03T10:55:45Z</time>
      </trkpt>
      <trkpt lat="41.108765993267298" lon="-7.925426987931132">
        <ele>357.26999999999998</ele>
        <time>2025-05-03T10:55:46Z</time>
      </trkpt>
      <trkpt lat="41.108742021024227" lon="-7.925585992634296">
        <ele>357.26999999999998</ele>
        <time>2025-05-03T10:55:47Z</time>
      </trkpt>
      <trkpt lat="41.108714025467634" lon="-7.925776010379195">
        <ele>356.79000000000002</ele>
        <time>2025-05-03T10:55:48Z</time>
      </trkpt>
      <trkpt lat="41.108671026304364" lon="-7.926002992317081">
        <ele>356.79000000000002</ele>
        <time>2025-05-03T10:55:49Z</time>
      </trkpt>
      <trkpt lat="41.108437003567815" lon="-7.926978981122375">
        <ele>352.94</ele>
        <time>2025-05-03T10:55:53Z</time>
      </trkpt>
      <trkpt lat="41.108329966664314" lon="-7.927301013842225">
        <ele>351.01999999999998</ele>
        <time>2025-05-03T10:55:55Z</time>
      </trkpt>
      <trkpt lat="41.108344970270991" lon="-7.927479967474937">
        <ele>350.06</ele>
        <time>2025-05-03T10:55:56Z</time>
      </trkpt>
      <trkpt lat="41.108381012454629" lon="-7.927605025470257">
        <ele>349.10000000000002</ele>
        <time>2025-05-03T10:55:57Z</time>
      </trkpt>
      <trkpt lat="41.108457036316395" lon="-7.927724970504642">
        <ele>348.13</ele>
        <time>2025-05-03T10:55:58Z</time>
      </trkpt>
      <trkpt lat="41.108549991622567" lon="-7.927825972437859">
        <ele>347.64999999999998</ele>
        <time>2025-05-03T10:55:59Z</time>
      </trkpt>
      <trkpt lat="41.108668008819222" lon="-7.927899984642863">
        <ele>346.69</ele>
        <time>2025-05-03T10:56:00Z</time>
      </trkpt>
      <trkpt lat="41.108796000480652" lon="-7.927958993241191">
        <ele>345.73000000000002</ele>
        <time>2025-05-03T10:56:01Z</time>
      </trkpt>
      <trkpt lat="41.108935978263617" lon="-7.927992017939687">
        <ele>345.25</ele>
        <time>2025-05-03T10:56:02Z</time>
      </trkpt>
      <trkpt lat="41.109068999066949" lon="-7.928024036809802">
        <ele>344.29000000000002</ele>
        <time>2025-05-03T10:56:03Z</time>
      </trkpt>
      <trkpt lat="41.109195984899998" lon="-7.928054966032505">
        <ele>343.81</ele>
        <time>2025-05-03T10:56:04Z</time>
      </trkpt>
      <trkpt lat="41.109310984611511" lon="-7.928110035136342">
        <ele>342.85000000000002</ele>
        <time>2025-05-03T10:56:05Z</time>
      </trkpt>
      <trkpt lat="41.109393965452909" lon="-7.928213970735669">
        <ele>342.37</ele>
        <time>2025-05-03T10:56:06Z</time>
      </trkpt>
      <trkpt lat="41.109444005414844" lon="-7.92834497988224">
        <ele>341.41000000000003</ele>
        <time>2025-05-03T10:56:07Z</time>
      </trkpt>
      <trkpt lat="41.109488010406494" lon="-7.928483029827476">
        <ele>340.92000000000002</ele>
        <time>2025-05-03T10:56:08Z</time>
      </trkpt>
      <trkpt lat="41.109488010406494" lon="-7.92864496819675">
        <ele>339.95999999999998</ele>
        <time>2025-05-03T10:56:09Z</time>
      </trkpt>
      <trkpt lat="41.109488010406494" lon="-7.9288150370121">
        <ele>339</ele>
        <time>2025-05-03T10:56:10Z</time>
      </trkpt>
      <trkpt lat="41.109488010406494" lon="-7.928977981209755">
        <ele>338.51999999999998</ele>
        <time>2025-05-03T10:56:11Z</time>
      </trkpt>
      <trkpt lat="41.109552970156074" lon="-7.929109996184707">
        <ele>338.04000000000002</ele>
        <time>2025-05-03T10:56:12Z</time>
      </trkpt>
      <trkpt lat="41.109626982361078" lon="-7.929218038916588">
        <ele>337.56</ele>
        <time>2025-05-03T10:56:13Z</time>
      </trkpt>
      <trkpt lat="41.109711974859238" lon="-7.929313005879521">
        <ele>336.60000000000002</ele>
        <time>2025-05-03T10:56:14Z</time>
      </trkpt>
      <trkpt lat="41.109830997884274" lon="-7.92937695980072">
        <ele>336.12</ele>
        <time>2025-05-03T10:56:15Z</time>
      </trkpt>
      <trkpt lat="41.109950020909309" lon="-7.929440997540951">
        <ele>335.63999999999999</ele>
        <time>2025-05-03T10:56:16Z</time>
      </trkpt>
      <trkpt lat="41.110076000913978" lon="-7.929434962570667">
        <ele>335.16000000000003</ele>
        <time>2025-05-03T10:56:17Z</time>
      </trkpt>
      <trkpt lat="41.110199969261885" lon="-7.929421970620751">
        <ele>334.19999999999999</ele>
        <time>2025-05-03T10:56:18Z</time>
      </trkpt>
      <trkpt lat="41.110319998115301" lon="-7.929408978670836">
        <ele>333.70999999999998</ele>
        <time>2025-05-03T10:56:19Z</time>
      </trkpt>
      <trkpt lat="41.110436003655195" lon="-7.929411996155977">
        <ele>333.23000000000002</ele>
        <time>2025-05-03T10:56:20Z</time>
      </trkpt>
      <trkpt lat="41.110540023073554" lon="-7.929424988105893">
        <ele>332.26999999999998</ele>
        <time>2025-05-03T10:56:21Z</time>
      </trkpt>
      <trkpt lat="41.110641025006771" lon="-7.92948299087584">
        <ele>331.79000000000002</ele>
        <time>2025-05-03T10:56:22Z</time>
      </trkpt>
      <trkpt lat="41.11072601750493" lon="-7.929571000859141">
        <ele>331.31</ele>
        <time>2025-05-03T10:56:23Z</time>
      </trkpt>
      <trkpt lat="41.110800029709935" lon="-7.929693963378668">
        <ele>330.82999999999998</ele>
        <time>2025-05-03T10:56:24Z</time>
      </trkpt>
      <trkpt lat="41.110844034701586" lon="-7.929839976131916">
        <ele>330.35000000000002</ele>
        <time>2025-05-03T10:56:25Z</time>
      </trkpt>
      <trkpt lat="41.110882004722953" lon="-7.930008033290505">
        <ele>329.87</ele>
        <time>2025-05-03T10:56:26Z</time>
      </trkpt>
      <trkpt lat="41.110918968915939" lon="-7.930181035771966">
        <ele>329.38999999999999</ele>
        <time>2025-05-03T10:56:27Z</time>
      </trkpt>
      <trkpt lat="41.110955011099577" lon="-7.930349009111524">
        <ele>328.43000000000001</ele>
        <time>2025-05-03T10:56:28Z</time>
      </trkpt>
      <trkpt lat="41.110988035798073" lon="-7.930507007986307">
        <ele>327.94999999999999</ele>
        <time>2025-05-03T10:56:29Z</time>
      </trkpt>
      <trkpt lat="41.111074034124613" lon="-7.930627036839724">
        <ele>327.47000000000003</ele>
        <time>2025-05-03T10:56:30Z</time>
      </trkpt>
      <trkpt lat="41.11117604188621" lon="-7.930723009631038">
        <ele>326.5</ele>
        <time>2025-05-03T10:56:31Z</time>
      </trkpt>
      <trkpt lat="41.111296992748976" lon="-7.930756034329534">
        <ele>326.5</ele>
        <time>2025-05-03T10:56:32Z</time>
      </trkpt>
      <trkpt lat="41.111417021602392" lon="-7.930789981037378">
        <ele>326.01999999999998</ele>
        <time>2025-05-03T10:56:33Z</time>
      </trkpt>
      <trkpt lat="41.111526992172003" lon="-7.930819988250732">
        <ele>325.54000000000002</ele>
        <time>2025-05-03T10:56:34Z</time>
      </trkpt>
      <trkpt lat="41.111592035740614" lon="-7.930916966870427">
        <ele>325.06</ele>
        <time>2025-05-03T10:56:35Z</time>
      </trkpt>
      <trkpt lat="41.111639980226755" lon="-7.93103096075356">
        <ele>324.10000000000002</ele>
        <time>2025-05-03T10:56:36Z</time>
      </trkpt>
      <trkpt lat="41.111680967733264" lon="-7.931171022355557">
        <ele>323.13999999999999</ele>
        <time>2025-05-03T10:56:37Z</time>
      </trkpt>
      <trkpt lat="41.111705023795366" lon="-7.931350981816649">
        <ele>322.18000000000001</ele>
        <time>2025-05-03T10:56:38Z</time>
      </trkpt>
      <trkpt lat="41.111732013523579" lon="-7.931545022875071">
        <ele>321.69999999999999</ele>
        <time>2025-05-03T10:56:39Z</time>
      </trkpt>
      <trkpt lat="41.111759003251791" lon="-7.931746020913124">
        <ele>320.74000000000001</ele>
        <time>2025-05-03T10:56:40Z</time>
      </trkpt>
      <trkpt lat="41.111786998808384" lon="-7.931956993415952">
        <ele>319.77999999999997</ele>
        <time>2025-05-03T10:56:41Z</time>
      </trkpt>
      <trkpt lat="41.111880037933588" lon="-7.933031972497702">
        <ele>314.97000000000003</ele>
        <time>2025-05-03T10:56:47Z</time>
      </trkpt>
      <trkpt lat="41.111853970214725" lon="-7.933181002736092">
        <ele>314.49000000000001</ele>
        <time>2025-05-03T10:56:48Z</time>
      </trkpt>
      <trkpt lat="41.111826980486512" lon="-7.933331038802862">
        <ele>313.52999999999997</ele>
        <time>2025-05-03T10:56:49Z</time>
      </trkpt>
      <trkpt lat="41.11173503100872" lon="-7.933481996878982">
        <ele>313.05000000000001</ele>
        <time>2025-05-03T10:56:50Z</time>
      </trkpt>
      <trkpt lat="41.111646015197039" lon="-7.933620968833566">
        <ele>312.08999999999997</ele>
        <time>2025-05-03T10:56:51Z</time>
      </trkpt>
      <trkpt lat="41.111544007435441" lon="-7.933739991858602">
        <ele>311.12</ele>
        <time>2025-05-03T10:56:52Z</time>
      </trkpt>
      <trkpt lat="41.111452979966998" lon="-7.933846022933722">
        <ele>310.63999999999999</ele>
        <time>2025-05-03T10:56:53Z</time>
      </trkpt>
      <trkpt lat="41.111397994682193" lon="-7.93390997685492">
        <ele>309.68000000000001</ele>
        <time>2025-05-03T10:56:54Z</time>
      </trkpt>
      <trkpt lat="41.111364969983697" lon="-7.934060012921691">
        <ele>308.72000000000003</ele>
        <time>2025-05-03T10:56:55Z</time>
      </trkpt>
      <trkpt lat="41.111335968598723" lon="-7.934192027896643">
        <ele>307.75999999999999</ele>
        <time>2025-05-03T10:56:56Z</time>
      </trkpt>
      <trkpt lat="41.111309984698892" lon="-7.934330999851227">
        <ele>307.27999999999997</ele>
        <time>2025-05-03T10:56:57Z</time>
      </trkpt>
      <trkpt lat="41.111254999414086" lon="-7.935258038341999">
        <ele>302.47000000000003</ele>
        <time>2025-05-03T10:57:03Z</time>
      </trkpt>
      <trkpt lat="41.111230021342635" lon="-7.935446966439486">
        <ele>301.99000000000001</ele>
        <time>2025-05-03T10:57:04Z</time>
      </trkpt>
      <trkpt lat="41.11096397973597" lon="-7.936656977981329">
        <ele>296.69999999999999</ele>
        <time>2025-05-03T10:57:09Z</time>
      </trkpt>
      <trkpt lat="41.110840011388063" lon="-7.937308000400662">
        <ele>293.81999999999999</ele>
        <time>2025-05-03T10:57:12Z</time>
      </trkpt>
      <trkpt lat="41.110789971426129" lon="-7.93747304007411">
        <ele>292.86000000000001</ele>
        <time>2025-05-03T10:57:13Z</time>
      </trkpt>
      <trkpt lat="41.110745966434479" lon="-7.937617963179946">
        <ele>291.89999999999998</ele>
        <time>2025-05-03T10:57:14Z</time>
      </trkpt>
      <trkpt lat="41.110712019726634" lon="-7.937729023396969">
        <ele>290.94</ele>
        <time>2025-05-03T10:57:15Z</time>
      </trkpt>
      <trkpt lat="41.110712019726634" lon="-7.93786196038127">
        <ele>289.49000000000001</ele>
        <time>2025-05-03T10:57:16Z</time>
      </trkpt>
      <trkpt lat="41.110724005848169" lon="-7.937945025041699">
        <ele>289.00999999999999</ele>
        <time>2025-05-03T10:57:17Z</time>
      </trkpt>
      <trkpt lat="41.110783014446497" lon="-7.938051978126168">
        <ele>288.52999999999997</ele>
        <time>2025-05-03T10:57:18Z</time>
      </trkpt>
      <trkpt lat="41.11085501499474" lon="-7.938137976452708">
        <ele>288.05000000000001</ele>
        <time>2025-05-03T10:57:19Z</time>
      </trkpt>
      <trkpt lat="41.110957022756338" lon="-7.938200002536178">
        <ele>288.05000000000001</ele>
        <time>2025-05-03T10:57:20Z</time>
      </trkpt>
      <trkpt lat="41.111059030517936" lon="-7.938262028619647">
        <ele>288.05000000000001</ele>
        <time>2025-05-03T10:57:21Z</time>
      </trkpt>
      <trkpt lat="41.111159026622772" lon="-7.938322965055704">
        <ele>287.56999999999999</ele>
        <time>2025-05-03T10:57:22Z</time>
      </trkpt>
      <trkpt lat="41.111256005242467" lon="-7.938349032774568">
        <ele>287.56999999999999</ele>
        <time>2025-05-03T10:57:23Z</time>
      </trkpt>
      <trkpt lat="41.111372010782361" lon="-7.938341991975904">
        <ele>287.56999999999999</ele>
        <time>2025-05-03T10:57:24Z</time>
      </trkpt>
      <trkpt lat="41.111490027979016" lon="-7.938335034996271">
        <ele>287.08999999999997</ele>
        <time>2025-05-03T10:57:25Z</time>
      </trkpt>
      <trkpt lat="41.111602010205388" lon="-7.938316008076072">
        <ele>287.08999999999997</ele>
        <time>2025-05-03T10:57:26Z</time>
      </trkpt>
      <trkpt lat="41.111708963289857" lon="-7.938266973942518">
        <ele>287.08999999999997</ele>
        <time>2025-05-03T10:57:27Z</time>
      </trkpt>
      <trkpt lat="41.111811976879835" lon="-7.938219029456377">
        <ele>286.61000000000001</ele>
        <time>2025-05-03T10:57:28Z</time>
      </trkpt>
      <trkpt lat="41.112024039030075" lon="-7.938121967017651">
        <ele>286.61000000000001</ele>
        <time>2025-05-03T10:57:30Z</time>
      </trkpt>
      <trkpt lat="41.112151024863124" lon="-7.938093971461058">
        <ele>287.08999999999997</ele>
        <time>2025-05-03T10:57:31Z</time>
      </trkpt>
      <trkpt lat="41.112282034009695" lon="-7.938093971461058">
        <ele>287.08999999999997</ele>
        <time>2025-05-03T10:57:32Z</time>
      </trkpt>
      <trkpt lat="41.112407008185983" lon="-7.938093971461058">
        <ele>287.56999999999999</ele>
        <time>2025-05-03T10:57:33Z</time>
      </trkpt>
      <trkpt lat="41.112537011504173" lon="-7.938193967565894">
        <ele>287.56999999999999</ele>
        <time>2025-05-03T10:57:34Z</time>
      </trkpt>
      <trkpt lat="41.112658968195319" lon="-7.938287006691098">
        <ele>287.56999999999999</ele>
        <time>2025-05-03T10:57:35Z</time>
      </trkpt>
      <trkpt lat="41.112781008705497" lon="-7.938383985310793">
        <ele>288.05000000000001</ele>
        <time>2025-05-03T10:57:36Z</time>
      </trkpt>
      <trkpt lat="41.113251987844706" lon="-7.938781036064029">
        <ele>288.05000000000001</ele>
        <time>2025-05-03T10:57:40Z</time>
      </trkpt>
      <trkpt lat="41.113376040011644" lon="-7.938850019127131">
        <ele>288.05000000000001</ele>
        <time>2025-05-03T10:57:41Z</time>
      </trkpt>
      <trkpt lat="41.113514006137848" lon="-7.938877008855343">
        <ele>288.05000000000001</ele>
        <time>2025-05-03T10:57:42Z</time>
      </trkpt>
      <trkpt lat="41.113918013870716" lon="-7.938954960554838">
        <ele>289.00999999999999</ele>
        <time>2025-05-03T10:57:45Z</time>
      </trkpt>
      <trkpt lat="41.114043993875384" lon="-7.938992008566856">
        <ele>289.00999999999999</ele>
        <time>2025-05-03T10:57:46Z</time>
      </trkpt>
      <trkpt lat="41.114158993586898" lon="-7.939065014943481">
        <ele>289.49000000000001</ele>
        <time>2025-05-03T10:57:47Z</time>
      </trkpt>
      <trkpt lat="41.11427097581327" lon="-7.939145984128118">
        <ele>289.49000000000001</ele>
        <time>2025-05-03T10:57:48Z</time>
      </trkpt>
      <trkpt lat="41.114369966089725" lon="-7.939256960526109">
        <ele>289.97000000000003</ele>
        <time>2025-05-03T10:57:49Z</time>
      </trkpt>
      <trkpt lat="41.114467028528452" lon="-7.939368020743132">
        <ele>289.97000000000003</ele>
        <time>2025-05-03T10:57:50Z</time>
      </trkpt>
      <trkpt lat="41.11512903124094" lon="-7.940294975414872">
        <ele>288.05000000000001</ele>
        <time>2025-05-03T10:57:57Z</time>
      </trkpt>
      <trkpt lat="41.115197008475661" lon="-7.940458003431559">
        <ele>287.56999999999999</ele>
        <time>2025-05-03T10:57:58Z</time>
      </trkpt>
      <trkpt lat="41.115243025124073" lon="-7.940641986206174">
        <ele>287.08999999999997</ele>
        <time>2025-05-03T10:57:59Z</time>
      </trkpt>
      <trkpt lat="41.115288035944104" lon="-7.940832003951073">
        <ele>286.61000000000001</ele>
        <time>2025-05-03T10:58:00Z</time>
      </trkpt>
      <trkpt lat="41.115325000137091" lon="-7.941028978675604">
        <ele>286.13</ele>
        <time>2025-05-03T10:58:01Z</time>
      </trkpt>
      <trkpt lat="41.115399012342095" lon="-7.941419994458556">
        <ele>284.69</ele>
        <time>2025-05-03T10:58:03Z</time>
      </trkpt>
      <trkpt lat="41.115393983200192" lon="-7.941628033295274">
        <ele>284.20999999999998</ele>
        <time>2025-05-03T10:58:04Z</time>
      </trkpt>
      <trkpt lat="41.115370010957122" lon="-7.941840011626482">
        <ele>283.25</ele>
        <time>2025-05-03T10:58:05Z</time>
      </trkpt>
      <trkpt lat="41.115345032885671" lon="-7.942061964422464">
        <ele>282.76999999999998</ele>
        <time>2025-05-03T10:58:06Z</time>
      </trkpt>
      <trkpt lat="41.115317959338427" lon="-7.942290036007762">
        <ele>281.80000000000001</ele>
        <time>2025-05-03T10:58:07Z</time>
      </trkpt>
      <trkpt lat="41.115264985710382" lon="-7.942751962691546">
        <ele>280.36000000000001</ele>
        <time>2025-05-03T10:58:09Z</time>
      </trkpt>
      <trkpt lat="41.11526096239686" lon="-7.942966036498547">
        <ele>279.88</ele>
        <time>2025-05-03T10:58:10Z</time>
      </trkpt>
      <trkpt lat="41.115220980718732" lon="-7.943930961191654">
        <ele>278.44</ele>
        <time>2025-05-03T10:58:15Z</time>
      </trkpt>
      <trkpt lat="41.115200025960803" lon="-7.944108992815018">
        <ele>277.95999999999998</ele>
        <time>2025-05-03T10:58:16Z</time>
      </trkpt>
      <trkpt lat="41.115179993212223" lon="-7.944278977811337">
        <ele>277.95999999999998</ele>
        <time>2025-05-03T10:58:17Z</time>
      </trkpt>
      <trkpt lat="41.115161972120404" lon="-7.944435970857739">
        <ele>277.95999999999998</ele>
        <time>2025-05-03T10:58:18Z</time>
      </trkpt>
      <trkpt lat="41.11517496407032" lon="-7.944551976397634">
        <ele>277.95999999999998</ele>
        <time>2025-05-03T10:58:19Z</time>
      </trkpt>
      <trkpt lat="41.115239001810551" lon="-7.944681979715824">
        <ele>277.95999999999998</ele>
        <time>2025-05-03T10:58:20Z</time>
      </trkpt>
      <trkpt lat="41.115317959338427" lon="-7.944765966385603">
        <ele>278.44</ele>
        <time>2025-05-03T10:58:21Z</time>
      </trkpt>
      <trkpt lat="41.115418039262295" lon="-7.944873003289104">
        <ele>278.44</ele>
        <time>2025-05-03T10:58:22Z</time>
      </trkpt>
      <trkpt lat="41.115539995953441" lon="-7.945004012435675">
        <ele>278.92000000000002</ele>
        <time>2025-05-03T10:58:23Z</time>
      </trkpt>
      <trkpt lat="41.115613002330065" lon="-7.945132004097104">
        <ele>279.39999999999998</ele>
        <time>2025-05-03T10:58:24Z</time>
      </trkpt>
      <trkpt lat="41.115705035626888" lon="-7.945293020457029">
        <ele>279.88</ele>
        <time>2025-05-03T10:58:25Z</time>
      </trkpt>
      <trkpt lat="41.116132009774446" lon="-7.946300022304058">
        <ele>283.25</ele>
        <time>2025-05-03T10:58:31Z</time>
      </trkpt>
      <trkpt lat="41.116119017824531" lon="-7.946459027007222">
        <ele>283.73000000000002</ele>
        <time>2025-05-03T10:58:32Z</time>
      </trkpt>
      <trkpt lat="41.116082975640893" lon="-7.946621971204877">
        <ele>283.73000000000002</ele>
        <time>2025-05-03T10:58:33Z</time>
      </trkpt>
      <trkpt lat="41.115627000108361" lon="-7.947467034682632">
        <ele>285.17000000000002</ele>
        <time>2025-05-03T10:58:38Z</time>
      </trkpt>
      <trkpt lat="41.115513006225228" lon="-7.94761698693037">
        <ele>285.17000000000002</ele>
        <time>2025-05-03T10:58:39Z</time>
      </trkpt>
      <trkpt lat="41.115089971572161" lon="-7.948144041001797">
        <ele>285.64999999999998</ele>
        <time>2025-05-03T10:58:43Z</time>
      </trkpt>
      <trkpt lat="41.115015037357807" lon="-7.948272032663226">
        <ele>286.13</ele>
        <time>2025-05-03T10:58:44Z</time>
      </trkpt>
      <trkpt lat="41.114986035972834" lon="-7.948427014052868">
        <ele>286.13</ele>
        <time>2025-05-03T10:58:45Z</time>
      </trkpt>
      <trkpt lat="41.114955022931099" lon="-7.948586018756032">
        <ele>286.13</ele>
        <time>2025-05-03T10:58:46Z</time>
      </trkpt>
      <trkpt lat="41.114903977140784" lon="-7.948742005974054">
        <ele>286.61000000000001</ele>
        <time>2025-05-03T10:58:47Z</time>
      </trkpt>
      <trkpt lat="41.11482803709805" lon="-7.948893969878554">
        <ele>287.08999999999997</ele>
        <time>2025-05-03T10:58:48Z</time>
      </trkpt>
      <trkpt lat="41.114740027114749" lon="-7.949044005945325">
        <ele>287.56999999999999</ele>
        <time>2025-05-03T10:58:49Z</time>
      </trkpt>
      <trkpt lat="41.11422797665" lon="-7.949672983959317">
        <ele>290.94</ele>
        <time>2025-05-03T10:58:54Z</time>
      </trkpt>
      <trkpt lat="41.114080036059022" lon="-7.949788989499211">
        <ele>291.42000000000002</ele>
        <time>2025-05-03T10:58:55Z</time>
      </trkpt>
      <trkpt lat="41.113979034125805" lon="-7.949802987277508">
        <ele>291.89999999999998</ele>
        <time>2025-05-03T10:58:56Z</time>
      </trkpt>
      <trkpt lat="41.112697022035718" lon="-7.950148992240429">
        <ele>293.81999999999999</ele>
        <time>2025-05-03T10:59:05Z</time>
      </trkpt>
      <trkpt lat="41.111985985189676" lon="-7.950661964714527">
        <ele>295.25999999999999</ele>
        <time>2025-05-03T10:59:11Z</time>
      </trkpt>
      <trkpt lat="41.11186302267015" lon="-7.950702030211687">
        <ele>295.25999999999999</ele>
        <time>2025-05-03T10:59:12Z</time>
      </trkpt>
      <trkpt lat="41.11173695884645" lon="-7.950738994404674">
        <ele>295.25999999999999</ele>
        <time>2025-05-03T10:59:13Z</time>
      </trkpt>
      <trkpt lat="41.110893990844488" lon="-7.950833961367607">
        <ele>295.74000000000001</ele>
        <time>2025-05-03T10:59:20Z</time>
      </trkpt>
      <trkpt lat="41.110775973647833" lon="-7.950819041579962">
        <ele>295.25999999999999</ele>
        <time>2025-05-03T10:59:21Z</time>
      </trkpt>
      <trkpt lat="41.110660973936319" lon="-7.950747041031718">
        <ele>295.25999999999999</ele>
        <time>2025-05-03T10:59:22Z</time>
      </trkpt>
      <trkpt lat="41.110540023073554" lon="-7.950673028826714">
        <ele>295.25999999999999</ele>
        <time>2025-05-03T10:59:23Z</time>
      </trkpt>
      <trkpt lat="41.110411025583744" lon="-7.950592981651425">
        <ele>294.77999999999997</ele>
        <time>2025-05-03T10:59:24Z</time>
      </trkpt>
      <trkpt lat="41.110284039750695" lon="-7.950511006638408">
        <ele>294.30000000000001</ele>
        <time>2025-05-03T10:59:25Z</time>
      </trkpt>
      <trkpt lat="41.110160993412137" lon="-7.950425008311868">
        <ele>293.81999999999999</ele>
        <time>2025-05-03T10:59:26Z</time>
      </trkpt>
      <trkpt lat="41.10991096124053" lon="-7.950330041348934">
        <ele>292.86000000000001</ele>
        <time>2025-05-03T10:59:28Z</time>
      </trkpt>
      <trkpt lat="41.109792022034526" lon="-7.950359964743257">
        <ele>292.86000000000001</ele>
        <time>2025-05-03T10:59:29Z</time>
      </trkpt>
      <trkpt lat="41.109691020101309" lon="-7.950410004705191">
        <ele>292.38</ele>
        <time>2025-05-03T10:59:30Z</time>
      </trkpt>
      <trkpt lat="41.109634023159742" lon="-7.950511006638408">
        <ele>292.38</ele>
        <time>2025-05-03T10:59:31Z</time>
      </trkpt>
      <trkpt lat="41.109585994854569" lon="-7.950632963329554">
        <ele>291.89999999999998</ele>
        <time>2025-05-03T10:59:32Z</time>
      </trkpt>
      <trkpt lat="41.109545007348061" lon="-7.95077595859766">
        <ele>291.89999999999998</ele>
        <time>2025-05-03T10:59:33Z</time>
      </trkpt>
      <trkpt lat="41.109466971829534" lon="-7.951532006263733">
        <ele>294.77999999999997</ele>
        <time>2025-05-03T10:59:38Z</time>
      </trkpt>
      <trkpt lat="41.109488010406494" lon="-7.95167600736022">
        <ele>295.25999999999999</ele>
        <time>2025-05-03T10:59:39Z</time>
      </trkpt>
      <trkpt lat="41.109510976821184" lon="-7.951793018728495">
        <ele>295.25999999999999</ele>
        <time>2025-05-03T10:59:40Z</time>
      </trkpt>
      <trkpt lat="41.10954400151968" lon="-7.952022012323141">
        <ele>295.74000000000001</ele>
        <time>2025-05-03T10:59:42Z</time>
      </trkpt>
      <trkpt lat="41.109552970156074" lon="-7.952115973457694">
        <ele>295.74000000000001</ele>
        <time>2025-05-03T10:59:43Z</time>
      </trkpt>
      <trkpt lat="41.109552970156074" lon="-7.952225022017956">
        <ele>295.25999999999999</ele>
        <time>2025-05-03T10:59:44Z</time>
      </trkpt>
      <trkpt lat="41.109548024833202" lon="-7.95232099480927">
        <ele>295.25999999999999</ele>
        <time>2025-05-03T10:59:45Z</time>
      </trkpt>
      <trkpt lat="41.109522040933371" lon="-7.952434988692403">
        <ele>295.25999999999999</ele>
        <time>2025-05-03T10:59:46Z</time>
      </trkpt>
      <trkpt lat="41.109187016263604" lon="-7.953850021585822">
        <ele>293.33999999999997</ele>
        <time>2025-05-03T10:59:56Z</time>
      </trkpt>
      <trkpt lat="41.108904965221882" lon="-7.954890970140696">
        <ele>288.52999999999997</ele>
        <time>2025-05-03T11:00:03Z</time>
      </trkpt>
      <trkpt lat="41.108822990208864" lon="-7.954997001215816">
        <ele>287.56999999999999</ele>
        <time>2025-05-03T11:00:04Z</time>
      </trkpt>
      <trkpt lat="41.108720982447267" lon="-7.95507000759244">
        <ele>287.08999999999997</ele>
        <time>2025-05-03T11:00:05Z</time>
      </trkpt>
      <trkpt lat="41.108639007434249" lon="-7.955075958743691">
        <ele>286.13</ele>
        <time>2025-05-03T11:00:06Z</time>
      </trkpt>
      <trkpt lat="41.10853498801589" lon="-7.955051986500621">
        <ele>285.64999999999998</ele>
        <time>2025-05-03T11:00:07Z</time>
      </trkpt>
      <trkpt lat="41.108435997739434" lon="-7.955029020085931">
        <ele>285.17000000000002</ele>
        <time>2025-05-03T11:00:08Z</time>
      </trkpt>
      <trkpt lat="41.108384029939771" lon="-7.954981997609139">
        <ele>284.69</ele>
        <time>2025-05-03T11:00:09Z</time>
      </trkpt>
      <trkpt lat="41.108316974714398" lon="-7.954889964312315">
        <ele>284.20999999999998</ele>
        <time>2025-05-03T11:00:10Z</time>
      </trkpt>
      <trkpt lat="41.108251009136438" lon="-7.954800026491284">
        <ele>283.73000000000002</ele>
        <time>2025-05-03T11:00:11Z</time>
      </trkpt>
      <trkpt lat="41.107935011386871" lon="-7.954520992934704">
        <ele>281.31999999999999</ele>
        <time>2025-05-03T11:00:17Z</time>
      </trkpt>
      <trkpt lat="41.107886983081698" lon="-7.954502971842885">
        <ele>281.31999999999999</ele>
        <time>2025-05-03T11:00:18Z</time>
      </trkpt>
      <trkpt lat="41.107835015282035" lon="-7.954483022913337">
        <ele>280.83999999999997</ele>
        <time>2025-05-03T11:00:19Z</time>
      </trkpt>
      <trkpt lat="41.107791010290384" lon="-7.954467013478279">
        <ele>280.36000000000001</ele>
        <time>2025-05-03T11:00:20Z</time>
      </trkpt>
      <trkpt lat="41.10774097032845" lon="-7.954480005428195">
        <ele>279.88</ele>
        <time>2025-05-03T11:00:21Z</time>
      </trkpt>
      <trkpt lat="41.107710963115096" lon="-7.954578995704651">
        <ele>278.92000000000002</ele>
        <time>2025-05-03T11:00:22Z</time>
      </trkpt>
      <trkpt lat="41.107713980600238" lon="-7.954648984596133">
        <ele>278.44</ele>
        <time>2025-05-03T11:00:23Z</time>
      </trkpt>
      <trkpt lat="41.10771699808538" lon="-7.954707993194461">
        <ele>277.95999999999998</ele>
        <time>2025-05-03T11:00:24Z</time>
      </trkpt>
      <trkpt lat="41.107719009742141" lon="-7.954760966822505">
        <ele>277.48000000000002</ele>
        <time>2025-05-03T11:00:25Z</time>
      </trkpt>
      <trkpt lat="41.10773803666234" lon="-7.955205040052533">
        <ele>273.63</ele>
        <time>2025-05-03T11:00:32Z</time>
      </trkpt>
      <trkpt lat="41.10774097032845" lon="-7.955281985923648">
        <ele>273.14999999999998</ele>
        <time>2025-05-03T11:00:33Z</time>
      </trkpt>
      <trkpt lat="41.107744993641973" lon="-7.955363038927317">
        <ele>272.19</ele>
        <time>2025-05-03T11:00:34Z</time>
      </trkpt>
      <trkpt lat="41.107750022783875" lon="-7.955809962004423">
        <ele>268.35000000000002</ele>
        <time>2025-05-03T11:00:39Z</time>
      </trkpt>
      <trkpt lat="41.107750022783875" lon="-7.955900989472866">
        <ele>267.38</ele>
        <time>2025-05-03T11:00:40Z</time>
      </trkpt>
      <trkpt lat="41.107750022783875" lon="-7.955997968092561">
        <ele>265.94</ele>
        <time>2025-05-03T11:00:41Z</time>
      </trkpt>
      <trkpt lat="41.107771983370185" lon="-7.956890976056457">
        <ele>258.25</ele>
        <time>2025-05-03T11:00:50Z</time>
      </trkpt>
      <trkpt lat="41.107839960604906" lon="-7.957009999081492">
        <ele>257.29000000000002</ele>
        <time>2025-05-03T11:00:51Z</time>
      </trkpt>
      <trkpt lat="41.107893018051982" lon="-7.957103038206697">
        <ele>256.81</ele>
        <time>2025-05-03T11:00:52Z</time>
      </trkpt>
      <trkpt lat="41.107951020821929" lon="-7.957214014604688">
        <ele>256.32999999999998</ele>
        <time>2025-05-03T11:00:53Z</time>
      </trkpt>
      <trkpt lat="41.1079559661448" lon="-7.957367990165949">
        <ele>256.32999999999998</ele>
        <time>2025-05-03T11:00:54Z</time>
      </trkpt>
      <trkpt lat="41.108013968914747" lon="-7.957489024847746">
        <ele>255.84999999999999</ele>
        <time>2025-05-03T11:00:55Z</time>
      </trkpt>
      <trkpt lat="41.108074989169836" lon="-7.957616010680795">
        <ele>255.37</ele>
        <time>2025-05-03T11:00:56Z</time>
      </trkpt>
      <trkpt lat="41.108136009424925" lon="-7.957745008170605">
        <ele>255.37</ele>
        <time>2025-05-03T11:00:57Z</time>
      </trkpt>
      <trkpt lat="41.108443960547447" lon="-7.958483034744859">
        <ele>253.44</ele>
        <time>2025-05-03T11:01:03Z</time>
      </trkpt>
      <trkpt lat="41.10846801660955" lon="-7.958607003092766">
        <ele>253.44</ele>
        <time>2025-05-03T11:01:04Z</time>
      </trkpt>
      <trkpt lat="41.108457958325744" lon="-7.95872300863266">
        <ele>252.96000000000001</ele>
        <time>2025-05-03T11:01:05Z</time>
      </trkpt>
      <trkpt lat="41.108406996354461" lon="-7.958838008344173">
        <ele>252.47999999999999</ele>
        <time>2025-05-03T11:01:06Z</time>
      </trkpt>
      <trkpt lat="41.108354022726417" lon="-7.9589609708637">
        <ele>251.52000000000001</ele>
        <time>2025-05-03T11:01:07Z</time>
      </trkpt>
      <trkpt lat="41.10827699303627" lon="-7.959068007767201">
        <ele>250.56</ele>
        <time>2025-05-03T11:01:08Z</time>
      </trkpt>
      <trkpt lat="41.108185965567827" lon="-7.959159035235643">
        <ele>250.08000000000001</ele>
        <time>2025-05-03T11:01:09Z</time>
      </trkpt>
      <trkpt lat="41.107663018628955" lon="-7.959637977182865">
        <ele>246.22999999999999</ele>
        <time>2025-05-03T11:01:15Z</time>
      </trkpt>
      <trkpt lat="41.107571991160512" lon="-7.959691034629941">
        <ele>246.22999999999999</ele>
        <time>2025-05-03T11:01:16Z</time>
      </trkpt>
      <trkpt lat="41.107478030025959" lon="-7.959725987166166">
        <ele>246.22999999999999</ele>
        <time>2025-05-03T11:01:17Z</time>
      </trkpt>
      <trkpt lat="41.107093971222639" lon="-7.959868982434273">
        <ele>246.22999999999999</ele>
        <time>2025-05-03T11:01:21Z</time>
      </trkpt>
      <trkpt lat="41.106807980686426" lon="-7.959955986589193">
        <ele>246.72</ele>
        <time>2025-05-03T11:01:24Z</time>
      </trkpt>
      <trkpt lat="41.106716031208634" lon="-7.959949029609561">
        <ele>246.72</ele>
        <time>2025-05-03T11:01:25Z</time>
      </trkpt>
      <trkpt lat="41.106623997911811" lon="-7.959940982982516">
        <ele>246.72</ele>
        <time>2025-05-03T11:01:26Z</time>
      </trkpt>
      <trkpt lat="41.106456024572253" lon="-7.95992698520422">
        <ele>247.19999999999999</ele>
        <time>2025-05-03T11:01:28Z</time>
      </trkpt>
      <trkpt lat="41.106388969346881" lon="-7.959921034052968">
        <ele>247.19999999999999</ele>
        <time>2025-05-03T11:01:29Z</time>
      </trkpt>
      <trkpt lat="41.106333984062076" lon="-7.959917010739446">
        <ele>246.72</ele>
        <time>2025-05-03T11:01:30Z</time>
      </trkpt>
      <trkpt lat="41.106284027919173" lon="-7.959924973547459">
        <ele>246.72</ele>
        <time>2025-05-03T11:01:31Z</time>
      </trkpt>
      <trkpt lat="41.106227030977607" lon="-7.959934026002884">
        <ele>246.72</ele>
        <time>2025-05-03T11:01:32Z</time>
      </trkpt>
      <trkpt lat="41.106162993237376" lon="-7.959945006296039">
        <ele>246.22999999999999</ele>
        <time>2025-05-03T11:01:33Z</time>
      </trkpt>
      <trkpt lat="41.106096021831036" lon="-7.959955986589193">
        <ele>246.22999999999999</ele>
        <time>2025-05-03T11:01:34Z</time>
      </trkpt>
      <trkpt lat="41.106041958555579" lon="-7.959985993802548">
        <ele>246.22999999999999</ele>
        <time>2025-05-03T11:01:35Z</time>
      </trkpt>
      <trkpt lat="41.105987979099154" lon="-7.960025975480676">
        <ele>246.22999999999999</ele>
        <time>2025-05-03T11:01:36Z</time>
      </trkpt>
      <trkpt lat="41.105938022956252" lon="-7.960063023492694">
        <ele>246.22999999999999</ele>
        <time>2025-05-03T11:01:37Z</time>
      </trkpt>
      <trkpt lat="41.105866022408009" lon="-7.960173999890685">
        <ele>246.22999999999999</ele>
        <time>2025-05-03T11:01:39Z</time>
      </trkpt>
      <trkpt lat="41.105835009366274" lon="-7.960242982953787">
        <ele>245.75</ele>
        <time>2025-05-03T11:01:40Z</time>
      </trkpt>
      <trkpt lat="41.105797961354256" lon="-7.960324035957456">
        <ele>245.75</ele>
        <time>2025-05-03T11:01:41Z</time>
      </trkpt>
      <trkpt lat="41.105797961354256" lon="-7.960388995707035">
        <ele>245.75</ele>
        <time>2025-05-03T11:01:42Z</time>
      </trkpt>
      <trkpt lat="41.105811959132552" lon="-7.960454039275646">
        <ele>245.75</ele>
        <time>2025-05-03T11:01:43Z</time>
      </trkpt>
      <trkpt lat="41.1058250349015" lon="-7.960515981540084">
        <ele>245.75</ele>
        <time>2025-05-03T11:01:44Z</time>
      </trkpt>
      <trkpt lat="41.105839032679796" lon="-7.960582030937076">
        <ele>245.75</ele>
        <time>2025-05-03T11:01:45Z</time>
      </trkpt>
      <trkpt lat="41.105854958295822" lon="-7.9606550373137">
        <ele>245.75</ele>
        <time>2025-05-03T11:01:46Z</time>
      </trkpt>
      <trkpt lat="41.105887982994318" lon="-7.960713962092996">
        <ele>245.75</ele>
        <time>2025-05-03T11:01:47Z</time>
      </trkpt>
      <trkpt lat="41.105938022956252" lon="-7.960761990398169">
        <ele>245.27000000000001</ele>
        <time>2025-05-03T11:01:48Z</time>
      </trkpt>
      <trkpt lat="41.105995019897819" lon="-7.960816975682974">
        <ele>245.27000000000001</ele>
        <time>2025-05-03T11:01:49Z</time>
      </trkpt>
      <trkpt lat="41.106059979647398" lon="-7.960877995938063">
        <ele>245.27000000000001</ele>
        <time>2025-05-03T11:01:50Z</time>
      </trkpt>
      <trkpt lat="41.106401039287448" lon="-7.961246967315674">
        <ele>243.34999999999999</ele>
        <time>2025-05-03T11:01:55Z</time>
      </trkpt>
      <trkpt lat="41.106455018743873" lon="-7.961350986734033">
        <ele>242.87</ele>
        <time>2025-05-03T11:01:56Z</time>
      </trkpt>
      <trkpt lat="41.106508998200297" lon="-7.96145299449563">
        <ele>242.87</ele>
        <time>2025-05-03T11:01:57Z</time>
      </trkpt>
      <trkpt lat="41.106570018455386" lon="-7.961569000035524">
        <ele>242.38999999999999</ele>
        <time>2025-05-03T11:01:58Z</time>
      </trkpt>
      <trkpt lat="41.106588961556554" lon="-7.961678970605135">
        <ele>241.91</ele>
        <time>2025-05-03T11:01:59Z</time>
      </trkpt>
      <trkpt lat="41.106612011790276" lon="-7.961807968094945">
        <ele>241.91</ele>
        <time>2025-05-03T11:02:00Z</time>
      </trkpt>
      <trkpt lat="41.106656016781926" lon="-7.962215999141336">
        <ele>239.99000000000001</ele>
        <time>2025-05-03T11:02:03Z</time>
      </trkpt>
      <trkpt lat="41.106440015137196" lon="-7.963229035958648">
        <ele>236.62</ele>
        <time>2025-05-03T11:02:10Z</time>
      </trkpt>
      <trkpt lat="41.106267012655735" lon="-7.963817026466131">
        <ele>235.18000000000001</ele>
        <time>2025-05-03T11:02:14Z</time>
      </trkpt>
      <trkpt lat="41.106246979907155" lon="-7.963935965672135">
        <ele>234.69999999999999</ele>
        <time>2025-05-03T11:02:15Z</time>
      </trkpt>
      <trkpt lat="41.106229964643717" lon="-7.964038979262114">
        <ele>234.69999999999999</ele>
        <time>2025-05-03T11:02:16Z</time>
      </trkpt>
      <trkpt lat="41.106245974078774" lon="-7.964127995073795">
        <ele>233.74000000000001</ele>
        <time>2025-05-03T11:02:17Z</time>
      </trkpt>
      <trkpt lat="41.106270030140877" lon="-7.964216005057097">
        <ele>233.25999999999999</ele>
        <time>2025-05-03T11:02:18Z</time>
      </trkpt>
      <trkpt lat="41.106313029304147" lon="-7.964304015040398">
        <ele>233.25999999999999</ele>
        <time>2025-05-03T11:02:19Z</time>
      </trkpt>
      <trkpt lat="41.106386035680771" lon="-7.964337039738894">
        <ele>233.25999999999999</ele>
        <time>2025-05-03T11:02:20Z</time>
      </trkpt>
      <trkpt lat="41.10647396184504" lon="-7.964377021417022">
        <ele>233.25999999999999</ele>
        <time>2025-05-03T11:02:21Z</time>
      </trkpt>
      <trkpt lat="41.106560965999961" lon="-7.964407028630376">
        <ele>233.25999999999999</ele>
        <time>2025-05-03T11:02:22Z</time>
      </trkpt>
      <trkpt lat="41.106648975983262" lon="-7.964423038065434">
        <ele>232.78</ele>
        <time>2025-05-03T11:02:23Z</time>
      </trkpt>
      <trkpt lat="41.107059018686414" lon="-7.964495960623026">
        <ele>231.81</ele>
        <time>2025-05-03T11:02:27Z</time>
      </trkpt>
      <trkpt lat="41.107148034498096" lon="-7.96452596783638">
        <ele>230.84999999999999</ele>
        <time>2025-05-03T11:02:28Z</time>
      </trkpt>
      <trkpt lat="41.10722498036921" lon="-7.964595034718514">
        <ele>230.37</ele>
        <time>2025-05-03T11:02:29Z</time>
      </trkpt>
      <trkpt lat="41.107321036979556" lon="-7.964680027216673">
        <ele>229.88999999999999</ele>
        <time>2025-05-03T11:02:30Z</time>
      </trkpt>
      <trkpt lat="41.107361018657684" lon="-7.964773988351226">
        <ele>229.88999999999999</ele>
        <time>2025-05-03T11:02:31Z</time>
      </trkpt>
      <trkpt lat="41.107385996729136" lon="-7.964898040518165">
        <ele>229.41</ele>
        <time>2025-05-03T11:02:32Z</time>
      </trkpt>
      <trkpt lat="41.107385996729136" lon="-7.965014968067408">
        <ele>228.93000000000001</ele>
        <time>2025-05-03T11:02:33Z</time>
      </trkpt>
      <trkpt lat="41.107385996729136" lon="-7.965129967778921">
        <ele>228.44999999999999</ele>
        <time>2025-05-03T11:02:34Z</time>
      </trkpt>
      <trkpt lat="41.107385996729136" lon="-7.965239016339183">
        <ele>227.97</ele>
        <time>2025-05-03T11:02:35Z</time>
      </trkpt>
      <trkpt lat="41.107378033921123" lon="-7.965343035757542">
        <ele>227.00999999999999</ele>
        <time>2025-05-03T11:02:36Z</time>
      </trkpt>
      <trkpt lat="41.107339980080724" lon="-7.965434985235333">
        <ele>226.53</ele>
        <time>2025-05-03T11:02:37Z</time>
      </trkpt>
      <trkpt lat="41.107299998402596" lon="-7.965531041845679">
        <ele>225.56999999999999</ele>
        <time>2025-05-03T11:02:38Z</time>
      </trkpt>
      <trkpt lat="41.107250964269042" lon="-7.965617962181568">
        <ele>225.09</ele>
        <time>2025-05-03T11:02:39Z</time>
      </trkpt>
      <trkpt lat="41.107188016176224" lon="-7.965702032670379">
        <ele>224.61000000000001</ele>
        <time>2025-05-03T11:02:40Z</time>
      </trkpt>
      <trkpt lat="41.107114003971219" lon="-7.965776966884732">
        <ele>224.61000000000001</ele>
        <time>2025-05-03T11:02:41Z</time>
      </trkpt>
      <trkpt lat="41.106818038970232" lon="-7.966043008491397">
        <ele>225.09</ele>
        <time>2025-05-03T11:02:45Z</time>
      </trkpt>
      <trkpt lat="41.10675198957324" lon="-7.966116014868021">
        <ele>225.09</ele>
        <time>2025-05-03T11:02:46Z</time>
      </trkpt>
      <trkpt lat="41.106693986803293" lon="-7.9661809746176">
        <ele>225.09</ele>
        <time>2025-05-03T11:02:47Z</time>
      </trkpt>
      <trkpt lat="41.106634978204966" lon="-7.966247024014592">
        <ele>225.09</ele>
        <time>2025-05-03T11:02:48Z</time>
      </trkpt>
      <trkpt lat="41.10657999292016" lon="-7.966279964894056">
        <ele>225.56999999999999</ele>
        <time>2025-05-03T11:02:49Z</time>
      </trkpt>
      <trkpt lat="41.106516038998961" lon="-7.966317012906075">
        <ele>225.56999999999999</ele>
        <time>2025-05-03T11:02:50Z</time>
      </trkpt>
      <trkpt lat="41.106442026793957" lon="-7.966353977099061">
        <ele>225.56999999999999</ele>
        <time>2025-05-03T11:02:51Z</time>
      </trkpt>
      <trkpt lat="41.106395004317164" lon="-7.966422960162163">
        <ele>225.09</ele>
        <time>2025-05-03T11:02:52Z</time>
      </trkpt>
      <trkpt lat="41.106382012367249" lon="-7.96652396209538">
        <ele>224.61000000000001</ele>
        <time>2025-05-03T11:02:53Z</time>
      </trkpt>
      <trkpt lat="41.106367008760571" lon="-7.966637033969164">
        <ele>224.61000000000001</ele>
        <time>2025-05-03T11:02:54Z</time>
      </trkpt>
      <trkpt lat="41.106352005153894" lon="-7.966753961518407">
        <ele>224.61000000000001</ele>
        <time>2025-05-03T11:02:55Z</time>
      </trkpt>
      <trkpt lat="41.106335995718837" lon="-7.966873990371823">
        <ele>224.61000000000001</ele>
        <time>2025-05-03T11:02:56Z</time>
      </trkpt>
      <trkpt lat="41.10630196519196" lon="-7.967129973694682">
        <ele>224.12</ele>
        <time>2025-05-03T11:02:58Z</time>
      </trkpt>
      <trkpt lat="41.106280004605651" lon="-7.967246985062957">
        <ele>224.12</ele>
        <time>2025-05-03T11:02:59Z</time>
      </trkpt>
      <trkpt lat="41.106243040412664" lon="-7.967367013916373">
        <ele>224.12</ele>
        <time>2025-05-03T11:03:00Z</time>
      </trkpt>
      <trkpt lat="41.106168022379279" lon="-7.967605981975794">
        <ele>223.16</ele>
        <time>2025-05-03T11:03:02Z</time>
      </trkpt>
      <trkpt lat="41.10612996853888" lon="-7.96772500500083">
        <ele>222.68000000000001</ele>
        <time>2025-05-03T11:03:03Z</time>
      </trkpt>
      <trkpt lat="41.106055034324527" lon="-7.96796397306025">
        <ele>221.24000000000001</ele>
        <time>2025-05-03T11:03:05Z</time>
      </trkpt>
      <trkpt lat="41.105853030458093" lon="-7.968657994642854">
        <ele>219.80000000000001</ele>
        <time>2025-05-03T11:03:11Z</time>
      </trkpt>
      <trkpt lat="41.105866022408009" lon="-7.968782968819141">
        <ele>219.80000000000001</ele>
        <time>2025-05-03T11:03:12Z</time>
      </trkpt>
      <trkpt lat="41.105879014357924" lon="-7.968910038471222">
        <ele>219.80000000000001</ele>
        <time>2025-05-03T11:03:13Z</time>
      </trkpt>
      <trkpt lat="41.105926958844066" lon="-7.96901497989893">
        <ele>219.80000000000001</ele>
        <time>2025-05-03T11:03:14Z</time>
      </trkpt>
      <trkpt lat="41.105993008241057" lon="-7.969109024852514">
        <ele>219.80000000000001</ele>
        <time>2025-05-03T11:03:15Z</time>
      </trkpt>
      <trkpt lat="41.106069032102823" lon="-7.969199968501926">
        <ele>219.31999999999999</ele>
        <time>2025-05-03T11:03:16Z</time>
      </trkpt>
      <trkpt lat="41.106153018772602" lon="-7.969284038990736">
        <ele>218.36000000000001</ele>
        <time>2025-05-03T11:03:17Z</time>
      </trkpt>
      <trkpt lat="41.106237005442381" lon="-7.969368025660515">
        <ele>217.88</ele>
        <time>2025-05-03T11:03:18Z</time>
      </trkpt>
      <trkpt lat="41.106315040960908" lon="-7.969471961259842">
        <ele>216.91</ele>
        <time>2025-05-03T11:03:19Z</time>
      </trkpt>
      <trkpt lat="41.106388969346881" lon="-7.969575980678201">
        <ele>215.94999999999999</ele>
        <time>2025-05-03T11:03:20Z</time>
      </trkpt>
      <trkpt lat="41.106458036229014" lon="-7.969672959297895">
        <ele>214.99000000000001</ele>
        <time>2025-05-03T11:03:21Z</time>
      </trkpt>
      <trkpt lat="41.106472034007311" lon="-7.969804974272847">
        <ele>214.03</ele>
        <time>2025-05-03T11:03:22Z</time>
      </trkpt>
      <trkpt lat="41.106481002643704" lon="-7.96993900090456">
        <ele>212.59</ele>
        <time>2025-05-03T11:03:23Z</time>
      </trkpt>
      <trkpt lat="41.106461975723505" lon="-7.97006799839437">
        <ele>211.63</ele>
        <time>2025-05-03T11:03:24Z</time>
      </trkpt>
      <trkpt lat="41.10642702318728" lon="-7.970202025026083">
        <ele>210.66999999999999</ele>
        <time>2025-05-03T11:03:25Z</time>
      </trkpt>
      <trkpt lat="41.106389975175261" lon="-7.97034602612257">
        <ele>210.19</ele>
        <time>2025-05-03T11:03:26Z</time>
      </trkpt>
      <trkpt lat="41.106348987668753" lon="-7.970502013340592">
        <ele>209.69999999999999</ele>
        <time>2025-05-03T11:03:27Z</time>
      </trkpt>
      <trkpt lat="41.106187971308827" lon="-7.970977015793324">
        <ele>208.25999999999999</ele>
        <time>2025-05-03T11:03:30Z</time>
      </trkpt>
      <trkpt lat="41.106099039316177" lon="-7.971095032989979">
        <ele>207.30000000000001</ele>
        <time>2025-05-03T11:03:31Z</time>
      </trkpt>
      <trkpt lat="41.106012035161257" lon="-7.971202991902828">
        <ele>206.34</ele>
        <time>2025-05-03T11:03:32Z</time>
      </trkpt>
      <trkpt lat="41.105908015742898" lon="-7.971272980794311">
        <ele>205.38</ele>
        <time>2025-05-03T11:03:33Z</time>
      </trkpt>
      <trkpt lat="41.105802990496159" lon="-7.97133500687778">
        <ele>204.90000000000001</ele>
        <time>2025-05-03T11:03:34Z</time>
      </trkpt>
      <trkpt lat="41.105682039633393" lon="-7.971358979120851">
        <ele>203.94</ele>
        <time>2025-05-03T11:03:35Z</time>
      </trkpt>
      <trkpt lat="41.105552036315203" lon="-7.971385968849063">
        <ele>203.46000000000001</ele>
        <time>2025-05-03T11:03:36Z</time>
      </trkpt>
      <trkpt lat="41.10541800968349" lon="-7.971412036567926">
        <ele>202.49000000000001</ele>
        <time>2025-05-03T11:03:37Z</time>
      </trkpt>
      <trkpt lat="41.105307033285499" lon="-7.971386974677444">
        <ele>202.00999999999999</ele>
        <time>2025-05-03T11:03:38Z</time>
      </trkpt>
      <trkpt lat="41.105179963633418" lon="-7.971339030191302">
        <ele>201.53</ele>
        <time>2025-05-03T11:03:39Z</time>
      </trkpt>
      <trkpt lat="41.105049960315228" lon="-7.971291001886129">
        <ele>201.05000000000001</ele>
        <time>2025-05-03T11:03:40Z</time>
      </trkpt>
      <trkpt lat="41.104922974482179" lon="-7.971242973580957">
        <ele>200.56999999999999</ele>
        <time>2025-05-03T11:03:41Z</time>
      </trkpt>
      <trkpt lat="41.10479699447751" lon="-7.971202991902828">
        <ele>199.13</ele>
        <time>2025-05-03T11:03:42Z</time>
      </trkpt>
      <trkpt lat="41.104660034179688" lon="-7.971164016053081">
        <ele>198.16999999999999</ele>
        <time>2025-05-03T11:03:43Z</time>
      </trkpt>
      <trkpt lat="41.104521984234452" lon="-7.971133003011346">
        <ele>196.72999999999999</ele>
        <time>2025-05-03T11:03:44Z</time>
      </trkpt>
      <trkpt lat="41.104385023936629" lon="-7.971117999404669">
        <ele>195.77000000000001</ele>
        <time>2025-05-03T11:03:45Z</time>
      </trkpt>
      <trkpt lat="41.1042570322752" lon="-7.971153035759926">
        <ele>194.31999999999999</ele>
        <time>2025-05-03T11:03:46Z</time>
      </trkpt>
      <trkpt lat="41.10412803478539" lon="-7.971189999952912">
        <ele>192.88</ele>
        <time>2025-05-03T11:03:47Z</time>
      </trkpt>
      <trkpt lat="41.104017980396748" lon="-7.97124900855124">
        <ele>191.44</ele>
        <time>2025-05-03T11:03:48Z</time>
      </trkpt>
      <trkpt lat="41.103710029274225" lon="-7.971521001309156">
        <ele>188.56</ele>
        <time>2025-05-03T11:03:51Z</time>
      </trkpt>
      <trkpt lat="41.103626964613795" lon="-7.971611022949219">
        <ele>187.59</ele>
        <time>2025-05-03T11:03:52Z</time>
      </trkpt>
      <trkpt lat="41.103581031784415" lon="-7.971688974648714">
        <ele>187.11000000000001</ele>
        <time>2025-05-03T11:03:53Z</time>
      </trkpt>
      <trkpt lat="41.103562004864216" lon="-7.971797017380595">
        <ele>186.63</ele>
        <time>2025-05-03T11:03:54Z</time>
      </trkpt>
      <trkpt lat="41.103553036227822" lon="-7.971904976293445">
        <ele>186.15000000000001</ele>
        <time>2025-05-03T11:03:55Z</time>
      </trkpt>
      <trkpt lat="41.103606009855866" lon="-7.972001032903791">
        <ele>185.66999999999999</ele>
        <time>2025-05-03T11:03:56Z</time>
      </trkpt>
      <trkpt lat="41.103683961555362" lon="-7.972088037058711">
        <ele>185.19</ele>
        <time>2025-05-03T11:03:57Z</time>
      </trkpt>
      <trkpt lat="41.10378697514534" lon="-7.972105974331498">
        <ele>184.71000000000001</ele>
        <time>2025-05-03T11:03:58Z</time>
      </trkpt>
      <trkpt lat="41.103909015655518" lon="-7.972126007080078">
        <ele>184.71000000000001</ele>
        <time>2025-05-03T11:03:59Z</time>
      </trkpt>
      <trkpt lat="41.104029966518283" lon="-7.972078984603286">
        <ele>184.22999999999999</ele>
        <time>2025-05-03T11:04:00Z</time>
      </trkpt>
      <trkpt lat="41.10415100120008" lon="-7.972031962126494">
        <ele>183.75</ele>
        <time>2025-05-03T11:04:01Z</time>
      </trkpt>
      <trkpt lat="41.104296008124948" lon="-7.971975971013308">
        <ele>183.75</ele>
        <time>2025-05-03T11:04:02Z</time>
      </trkpt>
      <trkpt lat="41.104369014501572" lon="-7.97200002707541">
        <ele>184.22999999999999</ele>
        <time>2025-05-03T11:04:03Z</time>
      </trkpt>
      <trkpt lat="41.10447596758604" lon="-7.972063980996609">
        <ele>184.22999999999999</ele>
        <time>2025-05-03T11:04:04Z</time>
      </trkpt>
      <trkpt lat="41.104577975347638" lon="-7.972154002636671">
        <ele>185.19</ele>
        <time>2025-05-03T11:04:05Z</time>
      </trkpt>
      <trkpt lat="41.104679983109236" lon="-7.97225802205503">
        <ele>185.66999999999999</ele>
        <time>2025-05-03T11:04:06Z</time>
      </trkpt>
      <trkpt lat="41.105009978637099" lon="-7.972604027017951">
        <ele>188.08000000000001</ele>
        <time>2025-05-03T11:04:09Z</time>
      </trkpt>
      <trkpt lat="41.105694025754929" lon="-7.973107025027275">
        <ele>192.40000000000001</ele>
        <time>2025-05-03T11:04:14Z</time>
      </trkpt>
      <trkpt lat="41.106180008500814" lon="-7.973273992538452">
        <ele>194.80000000000001</ele>
        <time>2025-05-03T11:04:17Z</time>
      </trkpt>
      <trkpt lat="41.106331972405314" lon="-7.973296036943793">
        <ele>194.80000000000001</ele>
        <time>2025-05-03T11:04:18Z</time>
      </trkpt>
      <trkpt lat="41.106488965451717" lon="-7.973256977275014">
        <ele>195.28</ele>
        <time>2025-05-03T11:04:19Z</time>
      </trkpt>
      <trkpt lat="41.107056001201272" lon="-7.973143989220262">
        <ele>197.69</ele>
        <time>2025-05-03T11:04:23Z</time>
      </trkpt>
      <trkpt lat="41.107167983427644" lon="-7.973175002261996">
        <ele>198.65000000000001</ele>
        <time>2025-05-03T11:04:24Z</time>
      </trkpt>
      <trkpt lat="41.107279965654016" lon="-7.97322697006166">
        <ele>199.13</ele>
        <time>2025-05-03T11:04:25Z</time>
      </trkpt>
      <trkpt lat="41.107367975637317" lon="-7.973338030278683">
        <ele>200.09</ele>
        <time>2025-05-03T11:04:26Z</time>
      </trkpt>
      <trkpt lat="41.107463026419282" lon="-7.973456969484687">
        <ele>200.56999999999999</ele>
        <time>2025-05-03T11:04:27Z</time>
      </trkpt>
      <trkpt lat="41.107560005038977" lon="-7.973578004166484">
        <ele>201.05000000000001</ele>
        <time>2025-05-03T11:04:28Z</time>
      </trkpt>
      <trkpt lat="41.107879020273685" lon="-7.974141016602516">
        <ele>202.00999999999999</ele>
        <time>2025-05-03T11:04:32Z</time>
      </trkpt>
      <trkpt lat="41.107907015830278" lon="-7.974286023527384">
        <ele>201.53</ele>
        <time>2025-05-03T11:04:33Z</time>
      </trkpt>
      <trkpt lat="41.107915984466672" lon="-7.974438993260264">
        <ele>201.05000000000001</ele>
        <time>2025-05-03T11:04:34Z</time>
      </trkpt>
      <trkpt lat="41.107903998345137" lon="-7.97460000962019">
        <ele>200.56999999999999</ele>
        <time>2025-05-03T11:04:35Z</time>
      </trkpt>
      <trkpt lat="41.107858987525105" lon="-7.974774017930031">
        <ele>200.09</ele>
        <time>2025-05-03T11:04:36Z</time>
      </trkpt>
      <trkpt lat="41.107810959219933" lon="-7.974960012361407">
        <ele>199.61000000000001</ele>
        <time>2025-05-03T11:04:37Z</time>
      </trkpt>
      <trkpt lat="41.10720100812614" lon="-7.976719038560987">
        <ele>196.72999999999999</ele>
        <time>2025-05-03T11:04:46Z</time>
      </trkpt>
      <trkpt lat="41.107171000912786" lon="-7.976881982758641">
        <ele>196.25</ele>
        <time>2025-05-03T11:04:47Z</time>
      </trkpt>
      <trkpt lat="41.107171000912786" lon="-7.977035958319902">
        <ele>195.77000000000001</ele>
        <time>2025-05-03T11:04:48Z</time>
      </trkpt>
      <trkpt lat="41.10722397454083" lon="-7.977168979123235">
        <ele>195.77000000000001</ele>
        <time>2025-05-03T11:04:49Z</time>
      </trkpt>
      <trkpt lat="41.107301004230976" lon="-7.977294037118554">
        <ele>195.77000000000001</ele>
        <time>2025-05-03T11:04:50Z</time>
      </trkpt>
      <trkpt lat="41.107382979243994" lon="-7.977424962446094">
        <ele>195.28</ele>
        <time>2025-05-03T11:04:51Z</time>
      </trkpt>
      <trkpt lat="41.107467971742153" lon="-7.977563012391329">
        <ele>195.28</ele>
        <time>2025-05-03T11:04:52Z</time>
      </trkpt>
      <trkpt lat="41.107551958411932" lon="-7.977699972689152">
        <ele>194.80000000000001</ele>
        <time>2025-05-03T11:04:53Z</time>
      </trkpt>
      <trkpt lat="41.107625970616937" lon="-7.977831987664104">
        <ele>194.80000000000001</ele>
        <time>2025-05-03T11:04:54Z</time>
      </trkpt>
      <trkpt lat="41.107662012800574" lon="-7.97797498293221">
        <ele>194.31999999999999</ele>
        <time>2025-05-03T11:04:55Z</time>
      </trkpt>
      <trkpt lat="41.107679028064013" lon="-7.978129964321852">
        <ele>193.36000000000001</ele>
        <time>2025-05-03T11:04:56Z</time>
      </trkpt>
      <trkpt lat="41.107660001143813" lon="-7.978282012045384">
        <ele>193.36000000000001</ele>
        <time>2025-05-03T11:04:57Z</time>
      </trkpt>
      <trkpt lat="41.10760903917253" lon="-7.978422995656729">
        <ele>192.88</ele>
        <time>2025-05-03T11:04:58Z</time>
      </trkpt>
      <trkpt lat="41.107541983947158" lon="-7.978565990924835">
        <ele>192.40000000000001</ele>
        <time>2025-05-03T11:04:59Z</time>
      </trkpt>
      <trkpt lat="41.107471995055676" lon="-7.978717032819986">
        <ele>192.40000000000001</ele>
        <time>2025-05-03T11:05:00Z</time>
      </trkpt>
      <trkpt lat="41.107398988679051" lon="-7.978873020038009">
        <ele>191.91999999999999</ele>
        <time>2025-05-03T11:05:01Z</time>
      </trkpt>
      <trkpt lat="41.107252975925803" lon="-7.979188011959195">
        <ele>190.96000000000001</ele>
        <time>2025-05-03T11:05:03Z</time>
      </trkpt>
      <trkpt lat="41.107196984812617" lon="-7.979343999177218">
        <ele>190.47999999999999</ele>
        <time>2025-05-03T11:05:04Z</time>
      </trkpt>
      <trkpt lat="41.106971008703113" lon="-7.980156959965825">
        <ele>188.08000000000001</ele>
        <time>2025-05-03T11:05:09Z</time>
      </trkpt>
      <trkpt lat="41.10690101981163" lon="-7.980292998254299">
        <ele>187.59</ele>
        <time>2025-05-03T11:05:10Z</time>
      </trkpt>
      <trkpt lat="41.106804041191936" lon="-7.980389976873994">
        <ele>187.11000000000001</ele>
        <time>2025-05-03T11:05:11Z</time>
      </trkpt>
      <trkpt lat="41.10670798458159" lon="-7.980485027655959">
        <ele>187.11000000000001</ele>
        <time>2025-05-03T11:05:12Z</time>
      </trkpt>
      <trkpt lat="41.106614023447037" lon="-7.980579994618893">
        <ele>186.15000000000001</ele>
        <time>2025-05-03T11:05:13Z</time>
      </trkpt>
      <trkpt lat="41.106339013203979" lon="-7.98089599236846">
        <ele>184.71000000000001</ele>
        <time>2025-05-03T11:05:16Z</time>
      </trkpt>
      <trkpt lat="41.106282016262412" lon="-7.981020966544747">
        <ele>184.22999999999999</ele>
        <time>2025-05-03T11:05:17Z</time>
      </trkpt>
      <trkpt lat="41.105713974684477" lon="-7.982239024713635">
        <ele>181.83000000000001</ele>
        <time>2025-05-03T11:05:25Z</time>
      </trkpt>
      <trkpt lat="41.105658989399672" lon="-7.982402974739671">
        <ele>181.34999999999999</ele>
        <time>2025-05-03T11:05:26Z</time>
      </trkpt>
      <trkpt lat="41.105630993843079" lon="-7.98257002606988">
        <ele>180.87</ele>
        <time>2025-05-03T11:05:27Z</time>
      </trkpt>
      <trkpt lat="41.105604004114866" lon="-7.982732970267534">
        <ele>180.38</ele>
        <time>2025-05-03T11:05:28Z</time>
      </trkpt>
      <trkpt lat="41.105576008558273" lon="-7.98289499245584">
        <ele>179.41999999999999</ele>
        <time>2025-05-03T11:05:29Z</time>
      </trkpt>
      <trkpt lat="41.105551030486822" lon="-7.983047962188721">
        <ele>178.46000000000001</ele>
        <time>2025-05-03T11:05:30Z</time>
      </trkpt>
      <trkpt lat="41.105494033545256" lon="-7.983180982992053">
        <ele>177.97999999999999</ele>
        <time>2025-05-03T11:05:31Z</time>
      </trkpt>
      <trkpt lat="41.105411974713206" lon="-7.983305035158992">
        <ele>177.02000000000001</ele>
        <time>2025-05-03T11:05:32Z</time>
      </trkpt>
      <trkpt lat="41.105331005528569" lon="-7.983426991850138">
        <ele>176.53999999999999</ele>
        <time>2025-05-03T11:05:33Z</time>
      </trkpt>
      <trkpt lat="41.105239978060126" lon="-7.983563030138612">
        <ele>175.58000000000001</ele>
        <time>2025-05-03T11:05:34Z</time>
      </trkpt>
      <trkpt lat="41.1049460247159" lon="-7.983893025666475">
        <ele>174.62</ele>
        <time>2025-05-03T11:05:37Z</time>
      </trkpt>
      <trkpt lat="41.104873018339276" lon="-7.984039960429072">
        <ele>174.13999999999999</ele>
        <time>2025-05-03T11:05:38Z</time>
      </trkpt>
      <trkpt lat="41.104835970327258" lon="-7.984200976788998">
        <ele>173.66</ele>
        <time>2025-05-03T11:05:39Z</time>
      </trkpt>
      <trkpt lat="41.104811998084188" lon="-7.984369033947587">
        <ele>173.16999999999999</ele>
        <time>2025-05-03T11:05:40Z</time>
      </trkpt>
      <trkpt lat="41.104789031669497" lon="-7.984533989802003">
        <ele>172.69</ele>
        <time>2025-05-03T11:05:41Z</time>
      </trkpt>
      <trkpt lat="41.104767993092537" lon="-7.984678996726871">
        <ele>172.21000000000001</ele>
        <time>2025-05-03T11:05:42Z</time>
      </trkpt>
      <trkpt lat="41.104680988937616" lon="-7.984766000881791">
        <ele>171.72999999999999</ele>
        <time>2025-05-03T11:05:43Z</time>
      </trkpt>
      <trkpt lat="41.104599013924599" lon="-7.984846970066428">
        <ele>171.25</ele>
        <time>2025-05-03T11:05:44Z</time>
      </trkpt>
      <trkpt lat="41.10451502725482" lon="-7.984931962564588">
        <ele>170.77000000000001</ele>
        <time>2025-05-03T11:05:45Z</time>
      </trkpt>
      <trkpt lat="41.104426011443138" lon="-7.985020978376269">
        <ele>170.28999999999999</ele>
        <time>2025-05-03T11:05:46Z</time>
      </trkpt>
      <trkpt lat="41.104331966489553" lon="-7.985114017501473">
        <ele>169.81</ele>
        <time>2025-05-03T11:05:47Z</time>
      </trkpt>
      <trkpt lat="41.10423699952662" lon="-7.985209990292788">
        <ele>169.33000000000001</ele>
        <time>2025-05-03T11:05:48Z</time>
      </trkpt>
      <trkpt lat="41.10415100120008" lon="-7.985324990004301">
        <ele>168.84999999999999</ele>
        <time>2025-05-03T11:05:49Z</time>
      </trkpt>
      <trkpt lat="41.104070032015443" lon="-7.985447030514479">
        <ele>168.84999999999999</ele>
        <time>2025-05-03T11:05:50Z</time>
      </trkpt>
      <trkpt lat="41.104002976790071" lon="-7.985570998862386">
        <ele>168.37</ele>
        <time>2025-05-03T11:05:51Z</time>
      </trkpt>
      <trkpt lat="41.103948997333646" lon="-7.985690021887422">
        <ele>168.37</ele>
        <time>2025-05-03T11:05:52Z</time>
      </trkpt>
      <trkpt lat="41.103938017040491" lon="-7.985809966921806">
        <ele>167.88999999999999</ele>
        <time>2025-05-03T11:05:53Z</time>
      </trkpt>
      <trkpt lat="41.103950003162026" lon="-7.985937958583236">
        <ele>167.88999999999999</ele>
        <time>2025-05-03T11:05:54Z</time>
      </trkpt>
      <trkpt lat="41.104008005931973" lon="-7.986027980223298">
        <ele>167.41</ele>
        <time>2025-05-03T11:05:55Z</time>
      </trkpt>
      <trkpt lat="41.104086963459849" lon="-7.986115990206599">
        <ele>167.88999999999999</ele>
        <time>2025-05-03T11:05:56Z</time>
      </trkpt>
      <trkpt lat="41.104166004806757" lon="-7.9862040001899">
        <ele>167.88999999999999</ele>
        <time>2025-05-03T11:05:57Z</time>
      </trkpt>
      <trkpt lat="41.104245968163013" lon="-7.986293016001582">
        <ele>168.37</ele>
        <time>2025-05-03T11:05:58Z</time>
      </trkpt>
      <trkpt lat="41.104319980368018" lon="-7.986373985186219">
        <ele>167.88999999999999</ele>
        <time>2025-05-03T11:05:59Z</time>
      </trkpt>
      <trkpt lat="41.104361973702908" lon="-7.986458977684379">
        <ele>167.88999999999999</ele>
        <time>2025-05-03T11:06:00Z</time>
      </trkpt>
      <trkpt lat="41.104392986744642" lon="-7.986541036516428">
        <ele>167.88999999999999</ele>
        <time>2025-05-03T11:06:01Z</time>
      </trkpt>
      <trkpt lat="41.104414025321603" lon="-7.986641032621265">
        <ele>167.88999999999999</ele>
        <time>2025-05-03T11:06:02Z</time>
      </trkpt>
      <trkpt lat="41.104423999786377" lon="-7.986759971827269">
        <ele>167.88999999999999</ele>
        <time>2025-05-03T11:06:03Z</time>
      </trkpt>
      <trkpt lat="41.104423999786377" lon="-7.986893998458982">
        <ele>167.88999999999999</ele>
        <time>2025-05-03T11:06:04Z</time>
      </trkpt>
      <trkpt lat="41.104435985907912" lon="-7.987027019262314">
        <ele>167.41</ele>
        <time>2025-05-03T11:06:05Z</time>
      </trkpt>
      <trkpt lat="41.104480996727943" lon="-7.987456005066633">
        <ele>165.96000000000001</ele>
        <time>2025-05-03T11:06:08Z</time>
      </trkpt>
      <trkpt lat="41.10451796092093" lon="-7.98757603392005">
        <ele>165.47999999999999</ele>
        <time>2025-05-03T11:06:09Z</time>
      </trkpt>
      <trkpt lat="41.104593984782696" lon="-7.987690027803183">
        <ele>165.47999999999999</ele>
        <time>2025-05-03T11:06:10Z</time>
      </trkpt>
      <trkpt lat="41.104678977280855" lon="-7.987788012251258">
        <ele>165</ele>
        <time>2025-05-03T11:06:11Z</time>
      </trkpt>
      <trkpt lat="41.104772016406059" lon="-7.98788096755743">
        <ele>164.52000000000001</ele>
        <time>2025-05-03T11:06:12Z</time>
      </trkpt>
      <trkpt lat="41.10486002638936" lon="-7.987967971712351">
        <ele>164.52000000000001</ele>
        <time>2025-05-03T11:06:13Z</time>
      </trkpt>
      <trkpt lat="41.104930015280843" lon="-7.988066039979458">
        <ele>164.03999999999999</ele>
        <time>2025-05-03T11:06:14Z</time>
      </trkpt>
      <trkpt lat="41.104965973645449" lon="-7.988185985013843">
        <ele>163.56</ele>
        <time>2025-05-03T11:06:15Z</time>
      </trkpt>
      <trkpt lat="41.10496899113059" lon="-7.988299978896976">
        <ele>163.08000000000001</ele>
        <time>2025-05-03T11:06:16Z</time>
      </trkpt>
      <trkpt lat="41.104940995573997" lon="-7.988419001922011">
        <ele>162.59999999999999</ele>
        <time>2025-05-03T11:06:17Z</time>
      </trkpt>
      <trkpt lat="41.104906965047121" lon="-7.988536013290286">
        <ele>162.12</ele>
        <time>2025-05-03T11:06:18Z</time>
      </trkpt>
      <trkpt lat="41.104835970327258" lon="-7.988642966374755">
        <ele>161.63999999999999</ele>
        <time>2025-05-03T11:06:19Z</time>
      </trkpt>
      <trkpt lat="41.104758018627763" lon="-7.98875997774303">
        <ele>161.16</ele>
        <time>2025-05-03T11:06:20Z</time>
      </trkpt>
      <trkpt lat="41.104525001719594" lon="-7.989162979647517">
        <ele>159.72</ele>
        <time>2025-05-03T11:06:23Z</time>
      </trkpt>
      <trkpt lat="41.104465993121266" lon="-7.98931896686554">
        <ele>159.24000000000001</ele>
        <time>2025-05-03T11:06:24Z</time>
      </trkpt>
      <trkpt lat="41.104283016175032" lon="-7.98983596265316">
        <ele>158.27000000000001</ele>
        <time>2025-05-03T11:06:27Z</time>
      </trkpt>
      <trkpt lat="41.104031978175044" lon="-7.990351030603051">
        <ele>156.83000000000001</ele>
        <time>2025-05-03T11:06:30Z</time>
      </trkpt>
      <trkpt lat="41.103948997333646" lon="-7.990520009770989">
        <ele>156.34999999999999</ele>
        <time>2025-05-03T11:06:31Z</time>
      </trkpt>
      <trkpt lat="41.103900969028473" lon="-7.990701980888844">
        <ele>155.38999999999999</ele>
        <time>2025-05-03T11:06:32Z</time>
      </trkpt>
      <trkpt lat="41.103885965421796" lon="-7.990894010290504">
        <ele>154.91</ele>
        <time>2025-05-03T11:06:33Z</time>
      </trkpt>
      <trkpt lat="41.103869033977389" lon="-7.991096014156938">
        <ele>154.43000000000001</ele>
        <time>2025-05-03T11:06:34Z</time>
      </trkpt>
      <trkpt lat="41.103808013722301" lon="-7.991709988564253">
        <ele>152.99000000000001</ele>
        <time>2025-05-03T11:06:37Z</time>
      </trkpt>
      <trkpt lat="41.103753028437495" lon="-7.991907969117165">
        <ele>152.99000000000001</ele>
        <time>2025-05-03T11:06:38Z</time>
      </trkpt>
      <trkpt lat="41.103574996814132" lon="-7.99251900985837">
        <ele>151.53999999999999</ele>
        <time>2025-05-03T11:06:41Z</time>
      </trkpt>
      <trkpt lat="41.103544989600778" lon="-7.992723025381565">
        <ele>151.06</ele>
        <time>2025-05-03T11:06:42Z</time>
      </trkpt>
      <trkpt lat="41.103548007085919" lon="-7.992927962914109">
        <ele>150.58000000000001</ele>
        <time>2025-05-03T11:06:43Z</time>
      </trkpt>
      <trkpt lat="41.103566028177738" lon="-7.994163036346436">
        <ele>146.25999999999999</ele>
        <time>2025-05-03T11:06:50Z</time>
      </trkpt>
      <trkpt lat="41.103504002094269" lon="-7.99428298138082">
        <ele>145.78</ele>
        <time>2025-05-03T11:06:51Z</time>
      </trkpt>
      <trkpt lat="41.103440970182419" lon="-7.994407033547759">
        <ele>144.81999999999999</ele>
        <time>2025-05-03T11:06:52Z</time>
      </trkpt>
      <trkpt lat="41.103223040699959" lon="-7.994831996038556">
        <ele>142.88999999999999</ele>
        <time>2025-05-03T11:06:55Z</time>
      </trkpt>
      <trkpt lat="41.103150034323335" lon="-7.994994018226862">
        <ele>142.41</ele>
        <time>2025-05-03T11:06:56Z</time>
      </trkpt>
      <trkpt lat="41.103108040988445" lon="-7.995182024315">
        <ele>141.93000000000001</ele>
        <time>2025-05-03T11:06:57Z</time>
      </trkpt>
      <trkpt lat="41.102841999381781" lon="-7.996331015601754">
        <ele>138.09</ele>
        <time>2025-05-03T11:07:03Z</time>
      </trkpt>
      <trkpt lat="41.102767987176776" lon="-7.996460013091564">
        <ele>137.61000000000001</ele>
        <time>2025-05-03T11:07:04Z</time>
      </trkpt>
      <trkpt lat="41.102695986628532" lon="-7.996574006974697">
        <ele>137.61000000000001</ele>
        <time>2025-05-03T11:07:05Z</time>
      </trkpt>
      <trkpt lat="41.10262599773705" lon="-7.996685989201069">
        <ele>136.63999999999999</ele>
        <time>2025-05-03T11:07:06Z</time>
      </trkpt>
      <trkpt lat="41.102548968046904" lon="-7.996790008619428">
        <ele>136.16</ele>
        <time>2025-05-03T11:07:07Z</time>
      </trkpt>
      <trkpt lat="41.10245400108397" lon="-7.996883969753981">
        <ele>135.68000000000001</ele>
        <time>2025-05-03T11:07:08Z</time>
      </trkpt>
      <trkpt lat="41.102103972807527" lon="-7.997296024113894">
        <ele>133.28</ele>
        <time>2025-05-03T11:07:12Z</time>
      </trkpt>
      <trkpt lat="41.102058039978147" lon="-7.997391996905208">
        <ele>132.80000000000001</ele>
        <time>2025-05-03T11:07:13Z</time>
      </trkpt>
      <trkpt lat="41.10202300362289" lon="-7.997484030202031">
        <ele>131.84</ele>
        <time>2025-05-03T11:07:14Z</time>
      </trkpt>
      <trkpt lat="41.102056028321385" lon="-7.997572962194681">
        <ele>131.36000000000001</ele>
        <time>2025-05-03T11:07:15Z</time>
      </trkpt>
      <trkpt lat="41.102095004171133" lon="-7.997664995491505">
        <ele>130.88</ele>
        <time>2025-05-03T11:07:16Z</time>
      </trkpt>
      <trkpt lat="41.102144960314035" lon="-7.997755017131567">
        <ele>130.40000000000001</ele>
        <time>2025-05-03T11:07:17Z</time>
      </trkpt>
      <trkpt lat="41.102236993610859" lon="-7.997803967446089">
        <ele>129.43000000000001</ele>
        <time>2025-05-03T11:07:18Z</time>
      </trkpt>
      <trkpt lat="41.102332966402173" lon="-7.997856019064784">
        <ele>128.94999999999999</ele>
        <time>2025-05-03T11:07:19Z</time>
      </trkpt>
      <trkpt lat="41.102427011355758" lon="-7.997905975207686">
        <ele>127.98999999999999</ele>
        <time>2025-05-03T11:07:20Z</time>
      </trkpt>
      <trkpt lat="41.102508986368775" lon="-7.997976969927549">
        <ele>127.51000000000001</ele>
        <time>2025-05-03T11:07:21Z</time>
      </trkpt>
      <trkpt lat="41.102578975260258" lon="-7.998046958819032">
        <ele>127.03</ele>
        <time>2025-05-03T11:07:22Z</time>
      </trkpt>
      <trkpt lat="41.102621974423528" lon="-7.998201018199325">
        <ele>126.55</ele>
        <time>2025-05-03T11:07:23Z</time>
      </trkpt>
      <trkpt lat="41.102665979415178" lon="-7.998359017074108">
        <ele>125.59</ele>
        <time>2025-05-03T11:07:24Z</time>
      </trkpt>
      <trkpt lat="41.10271199606359" lon="-7.998521039262414">
        <ele>125.11</ele>
        <time>2025-05-03T11:07:25Z</time>
      </trkpt>
      <trkpt lat="41.102723982185125" lon="-7.998680965974927">
        <ele>124.15000000000001</ele>
        <time>2025-05-03T11:07:26Z</time>
      </trkpt>
      <trkpt lat="41.102716019377112" lon="-7.998854974284768">
        <ele>123.67</ele>
        <time>2025-05-03T11:07:27Z</time>
      </trkpt>
      <trkpt lat="41.102702021598816" lon="-7.999025965109468">
        <ele>122.70999999999999</ele>
        <time>2025-05-03T11:07:28Z</time>
      </trkpt>
      <trkpt lat="41.102635972201824" lon="-7.999184969812632">
        <ele>121.73999999999999</ele>
        <time>2025-05-03T11:07:29Z</time>
      </trkpt>
      <trkpt lat="41.102565983310342" lon="-7.999355038627982">
        <ele>120.78</ele>
        <time>2025-05-03T11:07:30Z</time>
      </trkpt>
      <trkpt lat="41.102492976933718" lon="-7.999532986432314">
        <ele>119.81999999999999</ele>
        <time>2025-05-03T11:07:31Z</time>
      </trkpt>
      <trkpt lat="41.10243103466928" lon="-7.99971898086369">
        <ele>118.86</ele>
        <time>2025-05-03T11:07:32Z</time>
      </trkpt>
      <trkpt lat="41.102386023849249" lon="-7.999914027750492">
        <ele>117.42</ele>
        <time>2025-05-03T11:07:33Z</time>
      </trkpt>
      <trkpt lat="41.102379988878965" lon="-8.000103961676359">
        <ele>116.94</ele>
        <time>2025-05-03T11:07:34Z</time>
      </trkpt>
      <trkpt lat="41.102373031899333" lon="-8.000304037705064">
        <ele>115.98</ele>
        <time>2025-05-03T11:07:35Z</time>
      </trkpt>
      <trkpt lat="41.102366996929049" lon="-8.000503024086356">
        <ele>114.53</ele>
        <time>2025-05-03T11:07:36Z</time>
      </trkpt>
      <trkpt lat="41.102384012192488" lon="-8.000690024346113">
        <ele>113.56999999999999</ele>
        <time>2025-05-03T11:07:37Z</time>
      </trkpt>
      <trkpt lat="41.102417958900332" lon="-8.000880964100361">
        <ele>112.61</ele>
        <time>2025-05-03T11:07:38Z</time>
      </trkpt>
      <trkpt lat="41.102466993033886" lon="-8.001068970188499">
        <ele>111.65000000000001</ele>
        <time>2025-05-03T11:07:39Z</time>
      </trkpt>
      <trkpt lat="41.102578975260258" lon="-8.001437019556761">
        <ele>109.73</ele>
        <time>2025-05-03T11:07:41Z</time>
      </trkpt>
      <trkpt lat="41.102610994130373" lon="-8.001639023423195">
        <ele>108.77</ele>
        <time>2025-05-03T11:07:42Z</time>
      </trkpt>
      <trkpt lat="41.102663967758417" lon="-8.002176973968744">
        <ele>105.88</ele>
        <time>2025-05-03T11:07:45Z</time>
      </trkpt>
      <trkpt lat="41.102647036314011" lon="-8.00233799032867">
        <ele>105.40000000000001</ele>
        <time>2025-05-03T11:07:46Z</time>
      </trkpt>
      <trkpt lat="41.102631026878953" lon="-8.002499006688595">
        <ele>104.44</ele>
        <time>2025-05-03T11:07:47Z</time>
      </trkpt>
      <trkpt lat="41.102614011615515" lon="-8.002658011391759">
        <ele>103.48</ele>
        <time>2025-05-03T11:07:48Z</time>
      </trkpt>
      <trkpt lat="41.10260303132236" lon="-8.002797989174724">
        <ele>102.52</ele>
        <time>2025-05-03T11:07:49Z</time>
      </trkpt>
      <trkpt lat="41.102644018828869" lon="-8.002936039119959">
        <ele>101.56</ele>
        <time>2025-05-03T11:07:50Z</time>
      </trkpt>
      <trkpt lat="41.102686012163758" lon="-8.003079034388065">
        <ele>101.08</ele>
        <time>2025-05-03T11:07:51Z</time>
      </trkpt>
      <trkpt lat="41.102733034640551" lon="-8.003238039091229">
        <ele>100.11</ele>
        <time>2025-05-03T11:07:52Z</time>
      </trkpt>
      <trkpt lat="41.102779973298311" lon="-8.003397965803742">
        <ele>99.629999999999995</ele>
        <time>2025-05-03T11:07:53Z</time>
      </trkpt>
      <trkpt lat="41.102817021310329" lon="-8.00356300547719">
        <ele>98.670000000000002</ele>
        <time>2025-05-03T11:07:54Z</time>
      </trkpt>
      <trkpt lat="41.102823978289962" lon="-8.003716981038451">
        <ele>98.189999999999998</ele>
        <time>2025-05-03T11:07:55Z</time>
      </trkpt>
      <trkpt lat="41.102831019088626" lon="-8.003870034590364">
        <ele>97.230000000000004</ele>
        <time>2025-05-03T11:07:56Z</time>
      </trkpt>
      <trkpt lat="41.102825989946723" lon="-8.004042031243444">
        <ele>96.269999999999996</ele>
        <time>2025-05-03T11:07:57Z</time>
      </trkpt>
      <trkpt lat="41.102791959419847" lon="-8.004213022068143">
        <ele>95.310000000000002</ele>
        <time>2025-05-03T11:07:58Z</time>
      </trkpt>
      <trkpt lat="41.102757006883621" lon="-8.004390969872475">
        <ele>94.349999999999994</ele>
        <time>2025-05-03T11:07:59Z</time>
      </trkpt>
      <trkpt lat="41.102744014933705" lon="-8.004580987617374">
        <ele>93.390000000000001</ele>
        <time>2025-05-03T11:08:00Z</time>
      </trkpt>
      <trkpt lat="41.102735968306661" lon="-8.004765976220369">
        <ele>91.939999999999998</ele>
        <time>2025-05-03T11:08:01Z</time>
      </trkpt>
      <trkpt lat="41.102690035477281" lon="-8.005442982539535">
        <ele>87.620000000000005</ele>
        <time>2025-05-03T11:08:05Z</time>
      </trkpt>
      <trkpt lat="41.102630021050572" lon="-8.005563011392951">
        <ele>86.659999999999997</ele>
        <time>2025-05-03T11:08:06Z</time>
      </trkpt>
      <trkpt lat="41.102558020502329" lon="-8.005707012489438">
        <ele>85.689999999999998</ele>
        <time>2025-05-03T11:08:07Z</time>
      </trkpt>
      <trkpt lat="41.10247696749866" lon="-8.00577700138092">
        <ele>84.25</ele>
        <time>2025-05-03T11:08:08Z</time>
      </trkpt>
      <trkpt lat="41.102370014414191" lon="-8.005869034677744">
        <ele>83.769999999999996</ele>
        <time>2025-05-03T11:08:09Z</time>
      </trkpt>
      <trkpt lat="41.102048987522721" lon="-8.00616399385035">
        <ele>80.890000000000001</ele>
        <time>2025-05-03T11:08:12Z</time>
      </trkpt>
      <trkpt lat="41.101968018338084" lon="-8.006271030753851">
        <ele>79.930000000000007</ele>
        <time>2025-05-03T11:08:13Z</time>
      </trkpt>
      <trkpt lat="41.10193700529635" lon="-8.006401034072042">
        <ele>78.969999999999999</ele>
        <time>2025-05-03T11:08:14Z</time>
      </trkpt>
      <trkpt lat="41.101912027224898" lon="-8.006547968834639">
        <ele>78</ele>
        <time>2025-05-03T11:08:15Z</time>
      </trkpt>
      <trkpt lat="41.101885037496686" lon="-8.006702028214932">
        <ele>77.040000000000006</ele>
        <time>2025-05-03T11:08:16Z</time>
      </trkpt>
      <trkpt lat="41.101859975606203" lon="-8.007005034014583">
        <ele>75.120000000000005</ele>
        <time>2025-05-03T11:08:18Z</time>
      </trkpt>
      <trkpt lat="41.1018739733845" lon="-8.007145011797547">
        <ele>74.159999999999997</ele>
        <time>2025-05-03T11:08:19Z</time>
      </trkpt>
      <trkpt lat="41.101891994476318" lon="-8.007317008450627">
        <ele>73.200000000000003</ele>
        <time>2025-05-03T11:08:20Z</time>
      </trkpt>
      <trkpt lat="41.101958965882659" lon="-8.007374005392194">
        <ele>72.239999999999995</ele>
        <time>2025-05-03T11:08:21Z</time>
      </trkpt>
      <trkpt lat="41.10204597003758" lon="-8.007446005940437">
        <ele>71.269999999999996</ele>
        <time>2025-05-03T11:08:22Z</time>
      </trkpt>
      <trkpt lat="41.102142026647925" lon="-8.007457992061973">
        <ele>69.829999999999998</ele>
        <time>2025-05-03T11:08:23Z</time>
      </trkpt>
      <trkpt lat="41.102235987782478" lon="-8.007469978183508">
        <ele>68.870000000000005</ele>
        <time>2025-05-03T11:08:24Z</time>
      </trkpt>
      <trkpt lat="41.102327015250921" lon="-8.007482970133424">
        <ele>67.909999999999997</ele>
        <time>2025-05-03T11:08:25Z</time>
      </trkpt>
      <trkpt lat="41.102417958900332" lon="-8.00749403424561">
        <ele>66.950000000000003</ele>
        <time>2025-05-03T11:08:26Z</time>
      </trkpt>
      <trkpt lat="41.102504041045904" lon="-8.007505014538765">
        <ele>65.989999999999995</ele>
        <time>2025-05-03T11:08:27Z</time>
      </trkpt>
      <trkpt lat="41.102563971653581" lon="-8.007571985945106">
        <ele>65.510000000000005</ele>
        <time>2025-05-03T11:08:28Z</time>
      </trkpt>
      <trkpt lat="41.10260596498847" lon="-8.007667036727071">
        <ele>65.510000000000005</ele>
        <time>2025-05-03T11:08:29Z</time>
      </trkpt>
      <trkpt lat="41.102609988301992" lon="-8.00777398981154">
        <ele>65.030000000000001</ele>
        <time>2025-05-03T11:08:30Z</time>
      </trkpt>
      <trkpt lat="41.102590961381793" lon="-8.007892007008195">
        <ele>64.549999999999997</ele>
        <time>2025-05-03T11:08:31Z</time>
      </trkpt>
      <trkpt lat="41.102561037987471" lon="-8.008008012548089">
        <ele>64.069999999999993</ele>
        <time>2025-05-03T11:08:32Z</time>
      </trkpt>
      <trkpt lat="41.102518960833549" lon="-8.008122006431222">
        <ele>63.579999999999998</ele>
        <time>2025-05-03T11:08:33Z</time>
      </trkpt>
      <trkpt lat="41.102445032447577" lon="-8.008360974490643">
        <ele>62.619999999999997</ele>
        <time>2025-05-03T11:08:35Z</time>
      </trkpt>
      <trkpt lat="41.10243296250701" lon="-8.008489971980453">
        <ele>62.140000000000001</ele>
        <time>2025-05-03T11:08:36Z</time>
      </trkpt>
      <trkpt lat="41.102450983598828" lon="-8.008602960035205">
        <ele>61.659999999999997</ele>
        <time>2025-05-03T11:08:37Z</time>
      </trkpt>
      <trkpt lat="41.102491971105337" lon="-8.008717959746718">
        <ele>61.18</ele>
        <time>2025-05-03T11:08:38Z</time>
      </trkpt>
      <trkpt lat="41.102535976096988" lon="-8.008840000256896">
        <ele>60.700000000000003</ele>
        <time>2025-05-03T11:08:39Z</time>
      </trkpt>
      <trkpt lat="41.102601019665599" lon="-8.00893203355372">
        <ele>60.219999999999999</ele>
        <time>2025-05-03T11:08:40Z</time>
      </trkpt>
      <trkpt lat="41.102906037122011" lon="-8.009432014077902">
        <ele>58.780000000000001</ele>
        <time>2025-05-03T11:08:45Z</time>
      </trkpt>
      <trkpt lat="41.102921962738037" lon="-8.009555982425809">
        <ele>58.299999999999997</ele>
        <time>2025-05-03T11:08:46Z</time>
      </trkpt>
      <trkpt lat="41.102892961353064" lon="-8.009820012375712">
        <ele>57.82</ele>
        <time>2025-05-03T11:08:48Z</time>
      </trkpt>
      <trkpt lat="41.102838981896639" lon="-8.010077001526952">
        <ele>57.340000000000003</ele>
        <time>2025-05-03T11:08:50Z</time>
      </trkpt>
      <trkpt lat="41.102815009653568" lon="-8.010192001238465">
        <ele>56.859999999999999</ele>
        <time>2025-05-03T11:08:51Z</time>
      </trkpt>
      <trkpt lat="41.102750971913338" lon="-8.010287974029779">
        <ele>56.369999999999997</ele>
        <time>2025-05-03T11:08:52Z</time>
      </trkpt>
      <trkpt lat="41.102692969143391" lon="-8.0103749781847">
        <ele>55.890000000000001</ele>
        <time>2025-05-03T11:08:53Z</time>
      </trkpt>
      <trkpt lat="41.102634966373444" lon="-8.010454019531608">
        <ele>55.409999999999997</ele>
        <time>2025-05-03T11:08:54Z</time>
      </trkpt>
      <trkpt lat="41.102558020502329" lon="-8.010500036180019">
        <ele>55.409999999999997</ele>
        <time>2025-05-03T11:08:55Z</time>
      </trkpt>
      <trkpt lat="41.102478979155421" lon="-8.010545969009399">
        <ele>54.93</ele>
        <time>2025-05-03T11:08:56Z</time>
      </trkpt>
      <trkpt lat="41.102386023849249" lon="-8.010600032284856">
        <ele>54.93</ele>
        <time>2025-05-03T11:08:57Z</time>
      </trkpt>
      <trkpt lat="41.102172033861279" lon="-8.010642025619745">
        <ele>53.969999999999999</ele>
        <time>2025-05-03T11:09:00Z</time>
      </trkpt>
      <trkpt lat="41.102102966979146" lon="-8.010652000084519">
        <ele>53.490000000000002</ele>
        <time>2025-05-03T11:09:01Z</time>
      </trkpt>
      <trkpt lat="41.102042030543089" lon="-8.010660968720913">
        <ele>53.009999999999998</ele>
        <time>2025-05-03T11:09:02Z</time>
      </trkpt>
      <trkpt lat="41.101989978924394" lon="-8.010628027841449">
        <ele>52.530000000000001</ele>
        <time>2025-05-03T11:09:03Z</time>
      </trkpt>
      <trkpt lat="41.10193801112473" lon="-8.01056700758636">
        <ele>52.049999999999997</ele>
        <time>2025-05-03T11:09:04Z</time>
      </trkpt>
      <trkpt lat="41.101882020011544" lon="-8.010501964017749">
        <ele>51.57</ele>
        <time>2025-05-03T11:09:05Z</time>
      </trkpt>
      <trkpt lat="41.101827034726739" lon="-8.010437004268169">
        <ele>51.090000000000003</ele>
        <time>2025-05-03T11:09:06Z</time>
      </trkpt>
      <trkpt lat="41.101770959794521" lon="-8.010371960699558">
        <ele>51.090000000000003</ele>
        <time>2025-05-03T11:09:07Z</time>
      </trkpt>
      <trkpt lat="41.101630982011557" lon="-8.010140033438802">
        <ele>50.609999999999999</ele>
        <time>2025-05-03T11:09:10Z</time>
      </trkpt>
      <trkpt lat="41.101587982848287" lon="-8.010050011798739">
        <ele>50.130000000000003</ele>
        <time>2025-05-03T11:09:11Z</time>
      </trkpt>
      <trkpt lat="41.101506007835269" lon="-8.009868040680885">
        <ele>49.159999999999997</ele>
        <time>2025-05-03T11:09:13Z</time>
      </trkpt>
      <trkpt lat="41.101463008671999" lon="-8.00977298989892">
        <ele>48.68</ele>
        <time>2025-05-03T11:09:14Z</time>
      </trkpt>
      <trkpt lat="41.101417997851968" lon="-8.009675005450845">
        <ele>48.200000000000003</ele>
        <time>2025-05-03T11:09:15Z</time>
      </trkpt>
      <trkpt lat="41.101354965940118" lon="-8.009611973538995">
        <ele>48.200000000000003</ele>
        <time>2025-05-03T11:09:16Z</time>
      </trkpt>
      <trkpt lat="41.10127198509872" lon="-8.009546007961035">
        <ele>47.719999999999999</ele>
        <time>2025-05-03T11:09:17Z</time>
      </trkpt>
      <trkpt lat="41.101192021742463" lon="-8.009536033496261">
        <ele>47.240000000000002</ele>
        <time>2025-05-03T11:09:18Z</time>
      </trkpt>
      <trkpt lat="41.101108035072684" lon="-8.009528992697597">
        <ele>46.759999999999998</ele>
        <time>2025-05-03T11:09:19Z</time>
      </trkpt>
      <trkpt lat="41.101027987897396" lon="-8.009545002132654">
        <ele>46.280000000000001</ele>
        <time>2025-05-03T11:09:20Z</time>
      </trkpt>
      <trkpt lat="41.10094802454114" lon="-8.009561011567712">
        <ele>45.799999999999997</ele>
        <time>2025-05-03T11:09:21Z</time>
      </trkpt>
      <trkpt lat="41.100864037871361" lon="-8.009604010730982">
        <ele>45.32</ele>
        <time>2025-05-03T11:09:22Z</time>
      </trkpt>
      <trkpt lat="41.10079899430275" lon="-8.009658996015787">
        <ele>44.840000000000003</ele>
        <time>2025-05-03T11:09:23Z</time>
      </trkpt>
      <trkpt lat="41.100739985704422" lon="-8.009736025705934">
        <ele>44.359999999999999</ele>
        <time>2025-05-03T11:09:24Z</time>
      </trkpt>
      <trkpt lat="41.100689023733139" lon="-8.009818000718951">
        <ele>43.880000000000003</ele>
        <time>2025-05-03T11:09:25Z</time>
      </trkpt>
      <trkpt lat="41.100643007084727" lon="-8.009920008480549">
        <ele>43.399999999999999</ele>
        <time>2025-05-03T11:09:26Z</time>
      </trkpt>
      <trkpt lat="41.10060503706336" lon="-8.010020004585385">
        <ele>42.920000000000002</ele>
        <time>2025-05-03T11:09:27Z</time>
      </trkpt>
      <trkpt lat="41.100599002093077" lon="-8.010145984590054">
        <ele>42.920000000000002</ele>
        <time>2025-05-03T11:09:28Z</time>
      </trkpt>
      <trkpt lat="41.100592967122793" lon="-8.010262995958328">
        <ele>42.920000000000002</ele>
        <time>2025-05-03T11:09:29Z</time>
      </trkpt>
      <trkpt lat="41.10056203790009" lon="-8.011515000835061">
        <ele>51.090000000000003</ele>
        <time>2025-05-03T11:09:40Z</time>
      </trkpt>
      <trkpt lat="41.10056203790009" lon="-8.011824963614345">
        <ele>53.009999999999998</ele>
        <time>2025-05-03T11:09:43Z</time>
      </trkpt>
      <trkpt lat="41.100576035678387" lon="-8.011914985254407">
        <ele>53.490000000000002</ele>
        <time>2025-05-03T11:09:44Z</time>
      </trkpt>
      <trkpt lat="41.100621968507767" lon="-8.01200701855123">
        <ele>53.969999999999999</ele>
        <time>2025-05-03T11:09:45Z</time>
      </trkpt>
      <trkpt lat="41.100666979327798" lon="-8.012097962200642">
        <ele>53.969999999999999</ele>
        <time>2025-05-03T11:09:46Z</time>
      </trkpt>
      <trkpt lat="41.100719030946493" lon="-8.012180021032691">
        <ele>54.450000000000003</ele>
        <time>2025-05-03T11:09:47Z</time>
      </trkpt>
      <trkpt lat="41.10077996738255" lon="-8.012255961075425">
        <ele>54.93</ele>
        <time>2025-05-03T11:09:48Z</time>
      </trkpt>
      <trkpt lat="41.101147010922432" lon="-8.012724006548524">
        <ele>58.299999999999997</ele>
        <time>2025-05-03T11:09:54Z</time>
      </trkpt>
      <trkpt lat="41.101170983165503" lon="-8.012828025966883">
        <ele>59.259999999999998</ele>
        <time>2025-05-03T11:09:55Z</time>
      </trkpt>
      <trkpt lat="41.101195961236954" lon="-8.012931039556861">
        <ele>60.219999999999999</ele>
        <time>2025-05-03T11:09:56Z</time>
      </trkpt>
      <trkpt lat="41.101222028955817" lon="-8.013041010126472">
        <ele>60.700000000000003</ele>
        <time>2025-05-03T11:09:57Z</time>
      </trkpt>
      <trkpt lat="41.10124901868403" lon="-8.013160033151507">
        <ele>61.659999999999997</ele>
        <time>2025-05-03T11:09:58Z</time>
      </trkpt>
      <trkpt lat="41.101254969835281" lon="-8.013288024812937">
        <ele>62.619999999999997</ele>
        <time>2025-05-03T11:09:59Z</time>
      </trkpt>
      <trkpt lat="41.101312972605228" lon="-8.015070017427206">
        <ele>74.159999999999997</ele>
        <time>2025-05-03T11:10:12Z</time>
      </trkpt>
      <trkpt lat="41.101312972605228" lon="-8.015192979946733">
        <ele>75.120000000000005</ele>
        <time>2025-05-03T11:10:13Z</time>
      </trkpt>
      <trkpt lat="41.101302998140454" lon="-8.015304962173104">
        <ele>76.079999999999998</ele>
        <time>2025-05-03T11:10:14Z</time>
      </trkpt>
      <trkpt lat="41.101264022290707" lon="-8.015408981591463">
        <ele>76.560000000000002</ele>
        <time>2025-05-03T11:10:15Z</time>
      </trkpt>
      <trkpt lat="41.10118598677218" lon="-8.015511995181441">
        <ele>78</ele>
        <time>2025-05-03T11:10:16Z</time>
      </trkpt>
      <trkpt lat="41.101089008152485" lon="-8.015608973801136">
        <ele>78.969999999999999</ele>
        <time>2025-05-03T11:10:17Z</time>
      </trkpt>
      <trkpt lat="41.100993035361171" lon="-8.015713999047875">
        <ele>79.930000000000007</ele>
        <time>2025-05-03T11:10:18Z</time>
      </trkpt>
      <trkpt lat="41.100899996235967" lon="-8.015818018466234">
        <ele>80.890000000000001</ele>
        <time>2025-05-03T11:10:19Z</time>
      </trkpt>
      <trkpt lat="41.100826989859343" lon="-8.015950033441186">
        <ele>81.849999999999994</ele>
        <time>2025-05-03T11:10:20Z</time>
      </trkpt>
      <trkpt lat="41.100760018453002" lon="-8.016081964597106">
        <ele>82.810000000000002</ele>
        <time>2025-05-03T11:10:21Z</time>
      </trkpt>
      <trkpt lat="41.100697992369533" lon="-8.016207022592425">
        <ele>83.769999999999996</ele>
        <time>2025-05-03T11:10:22Z</time>
      </trkpt>
      <trkpt lat="41.100623980164528" lon="-8.0163240339607">
        <ele>84.730000000000004</ele>
        <time>2025-05-03T11:10:23Z</time>
      </trkpt>
      <trkpt lat="41.100504035130143" lon="-8.016402991488576">
        <ele>85.689999999999998</ele>
        <time>2025-05-03T11:10:24Z</time>
      </trkpt>
      <trkpt lat="41.100373025983572" lon="-8.016491001471877">
        <ele>86.659999999999997</ele>
        <time>2025-05-03T11:10:25Z</time>
      </trkpt>
      <trkpt lat="41.100234976038337" lon="-8.016583034768701">
        <ele>87.620000000000005</ele>
        <time>2025-05-03T11:10:26Z</time>
      </trkpt>
      <trkpt lat="41.100115031003952" lon="-8.016712032258511">
        <ele>88.099999999999994</ele>
        <time>2025-05-03T11:10:27Z</time>
      </trkpt>
      <trkpt lat="41.100006988272071" lon="-8.016849998384714">
        <ele>89.060000000000002</ele>
        <time>2025-05-03T11:10:28Z</time>
      </trkpt>
      <trkpt lat="41.099891988560557" lon="-8.016996011137962">
        <ele>89.540000000000006</ele>
        <time>2025-05-03T11:10:29Z</time>
      </trkpt>
      <trkpt lat="41.099441964179277" lon="-8.017522981390357">
        <ele>90.5</ele>
        <time>2025-05-03T11:10:33Z</time>
      </trkpt>
      <trkpt lat="41.09935998916626" lon="-8.017594981938601">
        <ele>90.5</ele>
        <time>2025-05-03T11:10:34Z</time>
      </trkpt>
      <trkpt lat="41.099216993898153" lon="-8.017606968060136">
        <ele>90.980000000000004</ele>
        <time>2025-05-03T11:10:35Z</time>
      </trkpt>
      <trkpt lat="41.099097970873117" lon="-8.0176140088588">
        <ele>91.459999999999994</ele>
        <time>2025-05-03T11:10:36Z</time>
      </trkpt>
      <trkpt lat="41.098965033888817" lon="-8.017539996653795">
        <ele>91.459999999999994</ele>
        <time>2025-05-03T11:10:37Z</time>
      </trkpt>
      <trkpt lat="41.098831007257104" lon="-8.017466990277171">
        <ele>91.939999999999998</ele>
        <time>2025-05-03T11:10:38Z</time>
      </trkpt>
      <trkpt lat="41.098709972575307" lon="-8.017400018870831">
        <ele>91.939999999999998</ele>
        <time>2025-05-03T11:10:39Z</time>
      </trkpt>
      <trkpt lat="41.098582986742258" lon="-8.017379986122251">
        <ele>91.939999999999998</ele>
        <time>2025-05-03T11:10:40Z</time>
      </trkpt>
      <trkpt lat="41.098481984809041" lon="-8.017430026084185">
        <ele>92.420000000000002</ele>
        <time>2025-05-03T11:10:41Z</time>
      </trkpt>
      <trkpt lat="41.098416019231081" lon="-8.017508983612061">
        <ele>92.420000000000002</ele>
        <time>2025-05-03T11:10:42Z</time>
      </trkpt>
      <trkpt lat="41.098373020067811" lon="-8.017629012465477">
        <ele>92.420000000000002</ele>
        <time>2025-05-03T11:10:43Z</time>
      </trkpt>
      <trkpt lat="41.098331026732922" lon="-8.017757004126906">
        <ele>92.900000000000006</ele>
        <time>2025-05-03T11:10:44Z</time>
      </trkpt>
      <trkpt lat="41.098339995369315" lon="-8.017921959981322">
        <ele>92.420000000000002</ele>
        <time>2025-05-03T11:10:45Z</time>
      </trkpt>
      <trkpt lat="41.09835097566247" lon="-8.018103009089828">
        <ele>92.420000000000002</ele>
        <time>2025-05-03T11:10:46Z</time>
      </trkpt>
      <trkpt lat="41.098375031724572" lon="-8.018999034538865">
        <ele>92.900000000000006</ele>
        <time>2025-05-03T11:10:51Z</time>
      </trkpt>
      <trkpt lat="41.098347036167979" lon="-8.019160972908139">
        <ele>92.420000000000002</ele>
        <time>2025-05-03T11:10:52Z</time>
      </trkpt>
      <trkpt lat="41.098317028954625" lon="-8.019332969561219">
        <ele>92.420000000000002</ele>
        <time>2025-05-03T11:10:53Z</time>
      </trkpt>
      <trkpt lat="41.098255002871156" lon="-8.019493985921145">
        <ele>92.420000000000002</ele>
        <time>2025-05-03T11:10:54Z</time>
      </trkpt>
      <trkpt lat="41.098181996494532" lon="-8.019650978967547">
        <ele>92.420000000000002</ele>
        <time>2025-05-03T11:10:55Z</time>
      </trkpt>
      <trkpt lat="41.098051993176341" lon="-8.01993403583765">
        <ele>92.420000000000002</ele>
        <time>2025-05-03T11:10:57Z</time>
      </trkpt>
      <trkpt lat="41.097930036485195" lon="-8.020004024729133">
        <ele>92.420000000000002</ele>
        <time>2025-05-03T11:10:58Z</time>
      </trkpt>
      <trkpt lat="41.097807995975018" lon="-8.020076025277376">
        <ele>92.420000000000002</ele>
        <time>2025-05-03T11:10:59Z</time>
      </trkpt>
      <trkpt lat="41.097550000995398" lon="-8.020225977525115">
        <ele>92.900000000000006</ele>
        <time>2025-05-03T11:11:01Z</time>
      </trkpt>
      <trkpt lat="41.097311032935977" lon="-8.020337037742138">
        <ele>93.390000000000001</ele>
        <time>2025-05-03T11:11:03Z</time>
      </trkpt>
      <trkpt lat="41.097238026559353" lon="-8.020466035231948">
        <ele>93.390000000000001</ele>
        <time>2025-05-03T11:11:04Z</time>
      </trkpt>
      <trkpt lat="41.097200978547335" lon="-8.020586986094713">
        <ele>93.390000000000001</ele>
        <time>2025-05-03T11:11:05Z</time>
      </trkpt>
      <trkpt lat="41.097173988819122" lon="-8.020739033818245">
        <ele>92.900000000000006</ele>
        <time>2025-05-03T11:11:06Z</time>
      </trkpt>
      <trkpt lat="41.097142975777388" lon="-8.020910024642944">
        <ele>92.900000000000006</ele>
        <time>2025-05-03T11:11:07Z</time>
      </trkpt>
      <trkpt lat="41.096996963024139" lon="-8.021708987653256">
        <ele>92.900000000000006</ele>
        <time>2025-05-03T11:11:11Z</time>
      </trkpt>
      <trkpt lat="41.096956981346011" lon="-8.021929012611508">
        <ele>92.900000000000006</ele>
        <time>2025-05-03T11:11:12Z</time>
      </trkpt>
      <trkpt lat="41.096691023558378" lon="-8.022653963416815">
        <ele>91.459999999999994</ele>
        <time>2025-05-03T11:11:16Z</time>
      </trkpt>
      <trkpt lat="41.096616005524993" lon="-8.022805005311966">
        <ele>91.459999999999994</ele>
        <time>2025-05-03T11:11:17Z</time>
      </trkpt>
      <trkpt lat="41.096521038562059" lon="-8.022953029721975">
        <ele>90.980000000000004</ele>
        <time>2025-05-03T11:11:18Z</time>
      </trkpt>
      <trkpt lat="41.096407966688275" lon="-8.023084960877895">
        <ele>90.5</ele>
        <time>2025-05-03T11:11:19Z</time>
      </trkpt>
      <trkpt lat="41.096286009997129" lon="-8.023216975852847">
        <ele>90.5</ele>
        <time>2025-05-03T11:11:20Z</time>
      </trkpt>
      <trkpt lat="41.096148965880275" lon="-8.023329041898251">
        <ele>90.5</ele>
        <time>2025-05-03T11:11:21Z</time>
      </trkpt>
      <trkpt lat="41.096006976440549" lon="-8.023443035781384">
        <ele>90.5</ele>
        <time>2025-05-03T11:11:22Z</time>
      </trkpt>
      <trkpt lat="41.09540699981153" lon="-8.023916026577354">
        <ele>89.540000000000006</ele>
        <time>2025-05-03T11:11:26Z</time>
      </trkpt>
      <trkpt lat="41.09512796625495" lon="-8.024106966331601">
        <ele>89.060000000000002</ele>
        <time>2025-05-03T11:11:28Z</time>
      </trkpt>
      <trkpt lat="41.095054959878325" lon="-8.024232024326921">
        <ele>89.060000000000002</ele>
        <time>2025-05-03T11:11:29Z</time>
      </trkpt>
      <trkpt lat="41.094982959330082" lon="-8.024376025423408">
        <ele>88.579999999999998</ele>
        <time>2025-05-03T11:11:30Z</time>
      </trkpt>
      <trkpt lat="41.094958987087011" lon="-8.02453201264143">
        <ele>88.579999999999998</ele>
        <time>2025-05-03T11:11:31Z</time>
      </trkpt>
      <trkpt lat="41.094930991530418" lon="-8.024709960445762">
        <ele>88.579999999999998</ele>
        <time>2025-05-03T11:11:32Z</time>
      </trkpt>
      <trkpt lat="41.094902995973825" lon="-8.024885980412364">
        <ele>88.579999999999998</ele>
        <time>2025-05-03T11:11:33Z</time>
      </trkpt>
      <trkpt lat="41.094876006245613" lon="-8.025062000378966">
        <ele>88.579999999999998</ele>
        <time>2025-05-03T11:11:34Z</time>
      </trkpt>
      <trkpt lat="41.094794031232595" lon="-8.025160990655422">
        <ele>89.060000000000002</ele>
        <time>2025-05-03T11:11:35Z</time>
      </trkpt>
      <trkpt lat="41.09469797462225" lon="-8.025278002023697">
        <ele>89.060000000000002</ele>
        <time>2025-05-03T11:11:36Z</time>
      </trkpt>
      <trkpt lat="41.094597978517413" lon="-8.025399036705494">
        <ele>89.060000000000002</ele>
        <time>2025-05-03T11:11:37Z</time>
      </trkpt>
      <trkpt lat="41.094491025432944" lon="-8.025528034195304">
        <ele>89.060000000000002</ele>
        <time>2025-05-03T11:11:38Z</time>
      </trkpt>
      <trkpt lat="41.094428999349475" lon="-8.025704976171255">
        <ele>89.540000000000006</ele>
        <time>2025-05-03T11:11:39Z</time>
      </trkpt>
      <trkpt lat="41.094378037378192" lon="-8.025898011401296">
        <ele>89.540000000000006</ele>
        <time>2025-05-03T11:11:40Z</time>
      </trkpt>
      <trkpt lat="41.0943310149014" lon="-8.026073025539517">
        <ele>90.019999999999996</ele>
        <time>2025-05-03T11:11:41Z</time>
      </trkpt>
      <trkpt lat="41.094291033223271" lon="-8.026224989444017">
        <ele>90.5</ele>
        <time>2025-05-03T11:11:42Z</time>
      </trkpt>
      <trkpt lat="41.094217021018267" lon="-8.026336971670389">
        <ele>90.980000000000004</ele>
        <time>2025-05-03T11:11:43Z</time>
      </trkpt>
      <trkpt lat="41.094129011034966" lon="-8.026417018845677">
        <ele>91.459999999999994</ele>
        <time>2025-05-03T11:11:44Z</time>
      </trkpt>
      <trkpt lat="41.094027003273368" lon="-8.026476027444005">
        <ele>91.459999999999994</ele>
        <time>2025-05-03T11:11:45Z</time>
      </trkpt>
      <trkpt lat="41.093909991905093" lon="-8.026465969160199">
        <ele>91.939999999999998</ele>
        <time>2025-05-03T11:11:46Z</time>
      </trkpt>
      <trkpt lat="41.09377596527338" lon="-8.026451971381903">
        <ele>91.939999999999998</ele>
        <time>2025-05-03T11:11:47Z</time>
      </trkpt>
      <trkpt lat="41.092541981488466" lon="-8.026369996368885">
        <ele>92.420000000000002</ele>
        <time>2025-05-03T11:11:55Z</time>
      </trkpt>
      <trkpt lat="41.092403009533882" lon="-8.026390029117465">
        <ele>92.900000000000006</ele>
        <time>2025-05-03T11:11:56Z</time>
      </trkpt>
      <trkpt lat="41.09227099455893" lon="-8.026366978883743">
        <ele>92.900000000000006</ele>
        <time>2025-05-03T11:11:57Z</time>
      </trkpt>
      <trkpt lat="41.092150965705514" lon="-8.0262949783355">
        <ele>92.900000000000006</ele>
        <time>2025-05-03T11:11:58Z</time>
      </trkpt>
      <trkpt lat="41.092063039541245" lon="-8.026181990280747">
        <ele>92.900000000000006</ele>
        <time>2025-05-03T11:11:59Z</time>
      </trkpt>
      <trkpt lat="41.09196899458766" lon="-8.026062967255712">
        <ele>93.390000000000001</ele>
        <time>2025-05-03T11:12:00Z</time>
      </trkpt>
      <trkpt lat="41.091868998482823" lon="-8.025933969765902">
        <ele>93.390000000000001</ele>
        <time>2025-05-03T11:12:01Z</time>
      </trkpt>
      <trkpt lat="41.091765984892845" lon="-8.025802038609982">
        <ele>93.870000000000005</ele>
        <time>2025-05-03T11:12:02Z</time>
      </trkpt>
      <trkpt lat="41.091657020151615" lon="-8.025662982836366">
        <ele>94.349999999999994</ele>
        <time>2025-05-03T11:12:03Z</time>
      </trkpt>
      <trkpt lat="41.091530034318566" lon="-8.025575978681445">
        <ele>95.310000000000002</ele>
        <time>2025-05-03T11:12:04Z</time>
      </trkpt>
      <trkpt lat="41.09139097854495" lon="-8.025480005890131">
        <ele>95.790000000000006</ele>
        <time>2025-05-03T11:12:05Z</time>
      </trkpt>
      <trkpt lat="41.091247983276844" lon="-8.025383027270436">
        <ele>96.75</ele>
        <time>2025-05-03T11:12:06Z</time>
      </trkpt>
      <trkpt lat="41.091102976351976" lon="-8.02528403699398">
        <ele>97.709999999999994</ele>
        <time>2025-05-03T11:12:07Z</time>
      </trkpt>
      <trkpt lat="41.090965010225773" lon="-8.025173982605338">
        <ele>98.670000000000002</ele>
        <time>2025-05-03T11:12:08Z</time>
      </trkpt>
      <trkpt lat="41.090831989422441" lon="-8.025067029520869">
        <ele>99.629999999999995</ele>
        <time>2025-05-03T11:12:09Z</time>
      </trkpt>
      <trkpt lat="41.090710032731295" lon="-8.024968961253762">
        <ele>100.59999999999999</ele>
        <time>2025-05-03T11:12:10Z</time>
      </trkpt>
      <trkpt lat="41.090623028576374" lon="-8.024825965985656">
        <ele>101.08</ele>
        <time>2025-05-03T11:12:11Z</time>
      </trkpt>
      <trkpt lat="41.090551028028131" lon="-8.024692023172975">
        <ele>102.04000000000001</ele>
        <time>2025-05-03T11:12:12Z</time>
      </trkpt>
      <trkpt lat="41.09040099196136" lon="-8.024409972131252">
        <ele>104.92</ele>
        <time>2025-05-03T11:12:15Z</time>
      </trkpt>
      <trkpt lat="41.090190019458532" lon="-8.024121969938278">
        <ele>109.25</ele>
        <time>2025-05-03T11:12:21Z</time>
      </trkpt>
      <trkpt lat="41.090125981718302" lon="-8.024048963561654">
        <ele>109.73</ele>
        <time>2025-05-03T11:12:22Z</time>
      </trkpt>
      <trkpt lat="41.089717028662562" lon="-8.023775964975357">
        <ele>109.25</ele>
        <time>2025-05-03T11:12:26Z</time>
      </trkpt>
      <trkpt lat="41.089581996202469" lon="-8.023735983297229">
        <ele>108.77</ele>
        <time>2025-05-03T11:12:27Z</time>
      </trkpt>
      <trkpt lat="41.089435983449221" lon="-8.023711005225778">
        <ele>108.29000000000001</ele>
        <time>2025-05-03T11:12:28Z</time>
      </trkpt>
      <trkpt lat="41.088693011552095" lon="-8.023582007735968">
        <ele>107.31999999999999</ele>
        <time>2025-05-03T11:12:33Z</time>
      </trkpt>
      <trkpt lat="41.08855202794075" lon="-8.023550994694233">
        <ele>107.31999999999999</ele>
        <time>2025-05-03T11:12:34Z</time>
      </trkpt>
      <trkpt lat="41.088297972455621" lon="-8.023399030789733">
        <ele>107.31999999999999</ele>
        <time>2025-05-03T11:12:36Z</time>
      </trkpt>
      <trkpt lat="41.08816503547132" lon="-8.023357037454844">
        <ele>107.31999999999999</ele>
        <time>2025-05-03T11:12:37Z</time>
      </trkpt>
      <trkpt lat="41.087998989969492" lon="-8.023335998877883">
        <ele>107.81</ele>
        <time>2025-05-03T11:12:38Z</time>
      </trkpt>
      <trkpt lat="41.08700699172914" lon="-8.023212030529976">
        <ele>109.25</ele>
        <time>2025-05-03T11:12:43Z</time>
      </trkpt>
      <trkpt lat="41.086845975369215" lon="-8.023204989731312">
        <ele>109.25</ele>
        <time>2025-05-03T11:12:44Z</time>
      </trkpt>
      <trkpt lat="41.086712032556534" lon="-8.023255029693246">
        <ele>109.73</ele>
        <time>2025-05-03T11:12:45Z</time>
      </trkpt>
      <trkpt lat="41.086601978167892" lon="-8.023357959464192">
        <ele>110.20999999999999</ele>
        <time>2025-05-03T11:12:46Z</time>
      </trkpt>
      <trkpt lat="41.086524026468396" lon="-8.023496009409428">
        <ele>110.69</ele>
        <time>2025-05-03T11:12:47Z</time>
      </trkpt>
      <trkpt lat="41.086455965414643" lon="-8.023649984970689">
        <ele>111.17</ele>
        <time>2025-05-03T11:12:48Z</time>
      </trkpt>
      <trkpt lat="41.086385976523161" lon="-8.023809995502234">
        <ele>112.13</ele>
        <time>2025-05-03T11:12:49Z</time>
      </trkpt>
      <trkpt lat="41.086250022053719" lon="-8.024118030443788">
        <ele>113.09</ele>
        <time>2025-05-03T11:12:51Z</time>
      </trkpt>
      <trkpt lat="41.086170980706811" lon="-8.024223977699876">
        <ele>114.05</ele>
        <time>2025-05-03T11:12:52Z</time>
      </trkpt>
      <trkpt lat="41.086070984601974" lon="-8.024293966591358">
        <ele>114.05</ele>
        <time>2025-05-03T11:12:53Z</time>
      </trkpt>
      <trkpt lat="41.085948022082448" lon="-8.024305030703545">
        <ele>115.01000000000001</ele>
        <time>2025-05-03T11:12:54Z</time>
      </trkpt>
      <trkpt lat="41.085808966308832" lon="-8.024318022653461">
        <ele>115.98</ele>
        <time>2025-05-03T11:12:55Z</time>
      </trkpt>
      <trkpt lat="41.085390960797668" lon="-8.024344006553292">
        <ele>117.42</ele>
        <time>2025-05-03T11:12:58Z</time>
      </trkpt>
      <trkpt lat="41.085256012156606" lon="-8.024279968813062">
        <ele>117.90000000000001</ele>
        <time>2025-05-03T11:12:59Z</time>
      </trkpt>
      <trkpt lat="41.084802970290184" lon="-8.024125993251801">
        <ele>119.34</ele>
        <time>2025-05-03T11:13:02Z</time>
      </trkpt>
      <trkpt lat="41.084640026092529" lon="-8.024088023230434">
        <ele>119.34</ele>
        <time>2025-05-03T11:13:03Z</time>
      </trkpt>
      <trkpt lat="41.083377040922642" lon="-8.024138985201716">
        <ele>121.26000000000001</ele>
        <time>2025-05-03T11:13:11Z</time>
      </trkpt>
      <trkpt lat="41.08326799236238" lon="-8.024235041812062">
        <ele>121.26000000000001</ele>
        <time>2025-05-03T11:13:12Z</time>
      </trkpt>
      <trkpt lat="41.083184005692601" lon="-8.024310981854796">
        <ele>121.73999999999999</ele>
        <time>2025-05-03T11:13:13Z</time>
      </trkpt>
      <trkpt lat="41.083142012357712" lon="-8.024415001273155">
        <ele>121.73999999999999</ele>
        <time>2025-05-03T11:13:14Z</time>
      </trkpt>
      <trkpt lat="41.083121979609132" lon="-8.024551039561629">
        <ele>121.73999999999999</ele>
        <time>2025-05-03T11:13:15Z</time>
      </trkpt>
      <trkpt lat="41.083147963508964" lon="-8.024698980152607">
        <ele>121.73999999999999</ele>
        <time>2025-05-03T11:13:16Z</time>
      </trkpt>
      <trkpt lat="41.083184005692601" lon="-8.024824038147926">
        <ele>121.73999999999999</ele>
        <time>2025-05-03T11:13:17Z</time>
      </trkpt>
      <trkpt lat="41.083225999027491" lon="-8.024934008717537">
        <ele>121.73999999999999</ele>
        <time>2025-05-03T11:13:18Z</time>
      </trkpt>
      <trkpt lat="41.083264974877238" lon="-8.025034004822373">
        <ele>121.26000000000001</ele>
        <time>2025-05-03T11:13:19Z</time>
      </trkpt>
      <trkpt lat="41.083338987082243" lon="-8.025050014257431">
        <ele>121.26000000000001</ele>
        <time>2025-05-03T11:13:20Z</time>
      </trkpt>
      <trkpt lat="41.083449963480234" lon="-8.025065017864108">
        <ele>121.26000000000001</ele>
        <time>2025-05-03T11:13:21Z</time>
      </trkpt>
      <trkpt lat="41.083570998162031" lon="-8.025081027299166">
        <ele>121.26000000000001</ele>
        <time>2025-05-03T11:13:22Z</time>
      </trkpt>
      <trkpt lat="41.08369798399508" lon="-8.025097958743572">
        <ele>121.26000000000001</ele>
        <time>2025-05-03T11:13:23Z</time>
      </trkpt>
      <trkpt lat="41.083825975656509" lon="-8.025114974007011">
        <ele>121.26000000000001</ele>
        <time>2025-05-03T11:13:24Z</time>
      </trkpt>
      <trkpt lat="41.083954973146319" lon="-8.025131989270449">
        <ele>121.73999999999999</ele>
        <time>2025-05-03T11:13:25Z</time>
      </trkpt>
      <trkpt lat="41.084083970636129" lon="-8.025150010362268">
        <ele>122.22</ele>
        <time>2025-05-03T11:13:26Z</time>
      </trkpt>
      <trkpt lat="41.084209028631449" lon="-8.025166019797325">
        <ele>122.70999999999999</ele>
        <time>2025-05-03T11:13:27Z</time>
      </trkpt>
      <trkpt lat="41.084321010857821" lon="-8.025237014517188">
        <ele>123.19</ele>
        <time>2025-05-03T11:13:28Z</time>
      </trkpt>
      <trkpt lat="41.084426958113909" lon="-8.025318989530206">
        <ele>123.67</ele>
        <time>2025-05-03T11:13:29Z</time>
      </trkpt>
      <trkpt lat="41.084538018330932" lon="-8.0254159681499">
        <ele>124.15000000000001</ele>
        <time>2025-05-03T11:13:30Z</time>
      </trkpt>
      <trkpt lat="41.08464203774929" lon="-8.02554395981133">
        <ele>124.63</ele>
        <time>2025-05-03T11:13:31Z</time>
      </trkpt>
      <trkpt lat="41.084742033854127" lon="-8.025667006149888">
        <ele>125.11</ele>
        <time>2025-05-03T11:13:32Z</time>
      </trkpt>
      <trkpt lat="41.084861978888512" lon="-8.025762978941202">
        <ele>126.06999999999999</ele>
        <time>2025-05-03T11:13:33Z</time>
      </trkpt>
      <trkpt lat="41.085006985813379" lon="-8.025834979489446">
        <ele>126.55</ele>
        <time>2025-05-03T11:13:34Z</time>
      </trkpt>
      <trkpt lat="41.085165990516543" lon="-8.025858029723167">
        <ele>127.03</ele>
        <time>2025-05-03T11:13:35Z</time>
      </trkpt>
      <trkpt lat="41.085321977734566" lon="-8.025879990309477">
        <ele>127.51000000000001</ele>
        <time>2025-05-03T11:13:36Z</time>
      </trkpt>
      <trkpt lat="41.085478970780969" lon="-8.025899017229676">
        <ele>127.51000000000001</ele>
        <time>2025-05-03T11:13:37Z</time>
      </trkpt>
      <trkpt lat="41.085648033767939" lon="-8.025899017229676">
        <ele>127.98999999999999</ele>
        <time>2025-05-03T11:13:38Z</time>
      </trkpt>
      <trkpt lat="41.085821958258748" lon="-8.025899017229676">
        <ele>127.98999999999999</ele>
        <time>2025-05-03T11:13:39Z</time>
      </trkpt>
      <trkpt lat="41.086345994845033" lon="-8.025807989761233">
        <ele>128.94999999999999</ele>
        <time>2025-05-03T11:13:42Z</time>
      </trkpt>
      <trkpt lat="41.08651103451848" lon="-8.025733977556229">
        <ele>128.94999999999999</ele>
        <time>2025-05-03T11:13:43Z</time>
      </trkpt>
      <trkpt lat="41.086667021736503" lon="-8.025632975623012">
        <ele>129.43000000000001</ele>
        <time>2025-05-03T11:13:44Z</time>
      </trkpt>
      <trkpt lat="41.086969021707773" lon="-8.02543600089848">
        <ele>129.91999999999999</ele>
        <time>2025-05-03T11:13:46Z</time>
      </trkpt>
      <trkpt lat="41.08739297837019" lon="-8.025203989818692">
        <ele>130.88</ele>
        <time>2025-05-03T11:13:49Z</time>
      </trkpt>
      <trkpt lat="41.087520970031619" lon="-8.025151016190648">
        <ele>131.36000000000001</ele>
        <time>2025-05-03T11:13:50Z</time>
      </trkpt>
      <trkpt lat="41.087661031633615" lon="-8.025138024240732">
        <ele>131.84</ele>
        <time>2025-05-03T11:13:51Z</time>
      </trkpt>
      <trkpt lat="41.08780100941658" lon="-8.025157973170281">
        <ele>131.84</ele>
        <time>2025-05-03T11:13:52Z</time>
      </trkpt>
      <trkpt lat="41.087946016341448" lon="-8.025212958455086">
        <ele>132.31999999999999</ele>
        <time>2025-05-03T11:13:53Z</time>
      </trkpt>
      <trkpt lat="41.088073002174497" lon="-8.025297028943896">
        <ele>132.80000000000001</ele>
        <time>2025-05-03T11:13:54Z</time>
      </trkpt>
      <trkpt lat="41.088201999664307" lon="-8.025384033098817">
        <ele>133.28</ele>
        <time>2025-05-03T11:13:55Z</time>
      </trkpt>
      <trkpt lat="41.088330997154117" lon="-8.025470031425357">
        <ele>133.75999999999999</ele>
        <time>2025-05-03T11:13:56Z</time>
      </trkpt>
      <trkpt lat="41.088477009907365" lon="-8.025490986183286">
        <ele>134.24000000000001</ele>
        <time>2025-05-03T11:13:57Z</time>
      </trkpt>
      <trkpt lat="41.088623022660613" lon="-8.025511018931866">
        <ele>134.24000000000001</ele>
        <time>2025-05-03T11:13:58Z</time>
      </trkpt>
      <trkpt lat="41.088755959644914" lon="-8.025530967861414">
        <ele>134.72</ele>
        <time>2025-05-03T11:13:59Z</time>
      </trkpt>
      <trkpt lat="41.088867019861937" lon="-8.025590982288122">
        <ele>135.19999999999999</ele>
        <time>2025-05-03T11:14:00Z</time>
      </trkpt>
      <trkpt lat="41.088979002088308" lon="-8.025673041120172">
        <ele>135.68000000000001</ele>
        <time>2025-05-03T11:14:01Z</time>
      </trkpt>
      <trkpt lat="41.089031975716352" lon="-8.025815030559897">
        <ele>136.63999999999999</ele>
        <time>2025-05-03T11:14:02Z</time>
      </trkpt>
      <trkpt lat="41.0890899784863" lon="-8.025970011949539">
        <ele>137.13</ele>
        <time>2025-05-03T11:14:03Z</time>
      </trkpt>
      <trkpt lat="41.089125014841557" lon="-8.026149971410632">
        <ele>137.61000000000001</ele>
        <time>2025-05-03T11:14:04Z</time>
      </trkpt>
      <trkpt lat="41.089155022054911" lon="-8.026347029954195">
        <ele>138.09</ele>
        <time>2025-05-03T11:14:05Z</time>
      </trkpt>
      <trkpt lat="41.089185029268265" lon="-8.02655003964901">
        <ele>138.09</ele>
        <time>2025-05-03T11:14:06Z</time>
      </trkpt>
      <trkpt lat="41.089215036481619" lon="-8.026749026030302">
        <ele>138.09</ele>
        <time>2025-05-03T11:14:07Z</time>
      </trkpt>
      <trkpt lat="41.089260969310999" lon="-8.026921022683382">
        <ele>137.61000000000001</ele>
        <time>2025-05-03T11:14:08Z</time>
      </trkpt>
      <trkpt lat="41.089340010657907" lon="-8.027081033214927">
        <ele>137.61000000000001</ele>
        <time>2025-05-03T11:14:09Z</time>
      </trkpt>
      <trkpt lat="41.089437995105982" lon="-8.027221010997891">
        <ele>137.13</ele>
        <time>2025-05-03T11:14:10Z</time>
      </trkpt>
      <trkpt lat="41.089565986767411" lon="-8.027349002659321">
        <ele>137.13</ele>
        <time>2025-05-03T11:14:11Z</time>
      </trkpt>
      <trkpt lat="41.089701019227505" lon="-8.027484035119414">
        <ele>137.13</ele>
        <time>2025-05-03T11:14:12Z</time>
      </trkpt>
      <trkpt lat="41.090945983305573" lon="-8.028715001419187">
        <ele>138.56999999999999</ele>
        <time>2025-05-03T11:14:21Z</time>
      </trkpt>
      <trkpt lat="41.091108005493879" lon="-8.02876302972436">
        <ele>139.05000000000001</ele>
        <time>2025-05-03T11:14:22Z</time>
      </trkpt>
      <trkpt lat="41.091278996318579" lon="-8.028813991695643">
        <ele>139.53</ele>
        <time>2025-05-03T11:14:23Z</time>
      </trkpt>
      <trkpt lat="41.091640004888177" lon="-8.028920022770762">
        <ele>140.00999999999999</ele>
        <time>2025-05-03T11:14:25Z</time>
      </trkpt>
      <trkpt lat="41.093454016372561" lon="-8.029524022713304">
        <ele>150.09999999999999</ele>
        <time>2025-05-03T11:14:35Z</time>
      </trkpt>
      <trkpt lat="41.093760961666703" lon="-8.029625024646521">
        <ele>152.03</ele>
        <time>2025-05-03T11:14:37Z</time>
      </trkpt>
      <trkpt lat="41.093888031318784" lon="-8.029726026579738">
        <ele>152.99000000000001</ele>
        <time>2025-05-03T11:14:38Z</time>
      </trkpt>
      <trkpt lat="41.093986015766859" lon="-8.029852006584406">
        <ele>154.43000000000001</ele>
        <time>2025-05-03T11:14:39Z</time>
      </trkpt>
      <trkpt lat="41.094060027971864" lon="-8.029975974932313">
        <ele>155.87</ele>
        <time>2025-05-03T11:14:40Z</time>
      </trkpt>
      <trkpt lat="41.094072014093399" lon="-8.030163981020451">
        <ele>156.83000000000001</ele>
        <time>2025-05-03T11:14:41Z</time>
      </trkpt>
      <trkpt lat="41.094079976901412" lon="-8.030335977673531">
        <ele>157.78999999999999</ele>
        <time>2025-05-03T11:14:42Z</time>
      </trkpt>
      <trkpt lat="41.094065979123116" lon="-8.030514009296894">
        <ele>159.24000000000001</ele>
        <time>2025-05-03T11:14:43Z</time>
      </trkpt>
      <trkpt lat="41.094019040465355" lon="-8.030700003728271">
        <ele>160.68000000000001</ele>
        <time>2025-05-03T11:14:44Z</time>
      </trkpt>
      <trkpt lat="41.093808989971876" lon="-8.031248012557626">
        <ele>163.56</ele>
        <time>2025-05-03T11:14:47Z</time>
      </trkpt>
      <trkpt lat="41.093712011352181" lon="-8.031401988118887">
        <ele>165</ele>
        <time>2025-05-03T11:14:48Z</time>
      </trkpt>
      <trkpt lat="41.093607991933823" lon="-8.031565016135573">
        <ele>165.47999999999999</ele>
        <time>2025-05-03T11:14:49Z</time>
      </trkpt>
      <trkpt lat="41.093500033020973" lon="-8.031736006960273">
        <ele>166.44999999999999</ele>
        <time>2025-05-03T11:14:50Z</time>
      </trkpt>
      <trkpt lat="41.093427026644349" lon="-8.031941028311849">
        <ele>166.93000000000001</ele>
        <time>2025-05-03T11:14:51Z</time>
      </trkpt>
      <trkpt lat="41.093375980854034" lon="-8.032162981107831">
        <ele>167.88999999999999</ele>
        <time>2025-05-03T11:14:52Z</time>
      </trkpt>
      <trkpt lat="41.093327030539513" lon="-8.032392980530858">
        <ele>168.37</ele>
        <time>2025-05-03T11:14:53Z</time>
      </trkpt>
      <trkpt lat="41.093304986134171" lon="-8.032639995217323">
        <ele>168.84999999999999</ele>
        <time>2025-05-03T11:14:54Z</time>
      </trkpt>
      <trkpt lat="41.093214964494109" lon="-8.033830979838967">
        <ele>171.72999999999999</ele>
        <time>2025-05-03T11:14:59Z</time>
      </trkpt>
      <trkpt lat="41.093167020007968" lon="-8.034066008403897">
        <ele>172.69</ele>
        <time>2025-05-03T11:15:00Z</time>
      </trkpt>
      <trkpt lat="41.093118991702795" lon="-8.034295001998544">
        <ele>173.16999999999999</ele>
        <time>2025-05-03T11:15:01Z</time>
      </trkpt>
      <trkpt lat="41.093041962012649" lon="-8.034505974501371">
        <ele>173.66</ele>
        <time>2025-05-03T11:15:02Z</time>
      </trkpt>
      <trkpt lat="41.092963004484773" lon="-8.034713007509708">
        <ele>174.62</ele>
        <time>2025-05-03T11:15:03Z</time>
      </trkpt>
      <trkpt lat="41.092851022258401" lon="-8.034897996112704">
        <ele>175.58000000000001</ele>
        <time>2025-05-03T11:15:04Z</time>
      </trkpt>
      <trkpt lat="41.092728981748223" lon="-8.035077033564448">
        <ele>176.53999999999999</ele>
        <time>2025-05-03T11:15:05Z</time>
      </trkpt>
      <trkpt lat="41.092331008985639" lon="-8.035582965239883">
        <ele>179.41999999999999</ele>
        <time>2025-05-03T11:15:08Z</time>
      </trkpt>
      <trkpt lat="41.092192959040403" lon="-8.035714980214834">
        <ele>180.38</ele>
        <time>2025-05-03T11:15:09Z</time>
      </trkpt>
      <trkpt lat="41.092059016227722" lon="-8.035814976319671">
        <ele>180.87</ele>
        <time>2025-05-03T11:15:10Z</time>
      </trkpt>
      <trkpt lat="41.091923983767629" lon="-8.035883037373424">
        <ele>181.34999999999999</ele>
        <time>2025-05-03T11:15:11Z</time>
      </trkpt>
      <trkpt lat="41.091790040954947" lon="-8.035938022658229">
        <ele>181.83000000000001</ele>
        <time>2025-05-03T11:15:12Z</time>
      </trkpt>
      <trkpt lat="41.091657020151615" lon="-8.035988984629512">
        <ele>181.83000000000001</ele>
        <time>2025-05-03T11:15:13Z</time>
      </trkpt>
      <trkpt lat="41.09156004153192" lon="-8.036085041239858">
        <ele>182.31</ele>
        <time>2025-05-03T11:15:14Z</time>
      </trkpt>
      <trkpt lat="41.091474965214729" lon="-8.036206997931004">
        <ele>182.31</ele>
        <time>2025-05-03T11:15:15Z</time>
      </trkpt>
      <trkpt lat="41.091387961059809" lon="-8.036333983764052">
        <ele>182.31</ele>
        <time>2025-05-03T11:15:16Z</time>
      </trkpt>
      <trkpt lat="41.091297017410398" lon="-8.036464992910624">
        <ele>182.31</ele>
        <time>2025-05-03T11:15:17Z</time>
      </trkpt>
      <trkpt lat="41.091200960800052" lon="-8.036604970693588">
        <ele>182.31</ele>
        <time>2025-05-03T11:15:18Z</time>
      </trkpt>
      <trkpt lat="41.091071963310242" lon="-8.036704966798425">
        <ele>182.31</ele>
        <time>2025-05-03T11:15:19Z</time>
      </trkpt>
      <trkpt lat="41.090939026325941" lon="-8.036795994266868">
        <ele>182.31</ele>
        <time>2025-05-03T11:15:20Z</time>
      </trkpt>
      <trkpt lat="41.090807011350989" lon="-8.036887021735311">
        <ele>182.78999999999999</ele>
        <time>2025-05-03T11:15:21Z</time>
      </trkpt>
      <trkpt lat="41.090662004426122" lon="-8.036935972049832">
        <ele>182.31</ele>
        <time>2025-05-03T11:15:22Z</time>
      </trkpt>
      <trkpt lat="41.090505011379719" lon="-8.036975031718612">
        <ele>181.83000000000001</ele>
        <time>2025-05-03T11:15:23Z</time>
      </trkpt>
      <trkpt lat="41.090347012504935" lon="-8.037014007568359">
        <ele>181.34999999999999</ele>
        <time>2025-05-03T11:15:24Z</time>
      </trkpt>
      <trkpt lat="41.089889025315642" lon="-8.037129007279873">
        <ele>180.87</ele>
        <time>2025-05-03T11:15:27Z</time>
      </trkpt>
      <trkpt lat="41.089768996462226" lon="-8.037205031141639">
        <ele>180.87</ele>
        <time>2025-05-03T11:15:28Z</time>
      </trkpt>
      <trkpt lat="41.089651985093951" lon="-8.037317013368011">
        <ele>180.87</ele>
        <time>2025-05-03T11:15:29Z</time>
      </trkpt>
      <trkpt lat="41.088570971041918" lon="-8.038210021331906">
        <ele>183.75</ele>
        <time>2025-05-03T11:15:37Z</time>
      </trkpt>
      <trkpt lat="41.087902011349797" lon="-8.038621991872788">
        <ele>187.59</ele>
        <time>2025-05-03T11:15:42Z</time>
      </trkpt>
      <trkpt lat="41.087833028286695" lon="-8.038677982985973">
        <ele>188.56</ele>
        <time>2025-05-03T11:15:43Z</time>
      </trkpt>
      <trkpt lat="41.087783994153142" lon="-8.038788037374616">
        <ele>189.52000000000001</ele>
        <time>2025-05-03T11:15:44Z</time>
      </trkpt>
      <trkpt lat="41.087762033566833" lon="-8.038912005722523">
        <ele>190.47999999999999</ele>
        <time>2025-05-03T11:15:45Z</time>
      </trkpt>
      <trkpt lat="41.087791034951806" lon="-8.039058018475771">
        <ele>191.91999999999999</ele>
        <time>2025-05-03T11:15:46Z</time>
      </trkpt>
      <trkpt lat="41.087819030508399" lon="-8.039203025400639">
        <ele>192.88</ele>
        <time>2025-05-03T11:15:47Z</time>
      </trkpt>
      <trkpt lat="41.087849959731102" lon="-8.039364041760564">
        <ele>193.84</ele>
        <time>2025-05-03T11:15:48Z</time>
      </trkpt>
      <trkpt lat="41.087883990257978" lon="-8.039537966251373">
        <ele>195.28</ele>
        <time>2025-05-03T11:15:49Z</time>
      </trkpt>
      <trkpt lat="41.08790997415781" lon="-8.039712980389595">
        <ele>195.77000000000001</ele>
        <time>2025-05-03T11:15:50Z</time>
      </trkpt>
      <trkpt lat="41.087975017726421" lon="-8.041123989969492">
        <ele>200.09</ele>
        <time>2025-05-03T11:15:59Z</time>
      </trkpt>
      <trkpt lat="41.087953979149461" lon="-8.041253993287683">
        <ele>200.56999999999999</ele>
        <time>2025-05-03T11:16:00Z</time>
      </trkpt>
      <trkpt lat="41.087911985814571" lon="-8.041364969685674">
        <ele>200.56999999999999</ele>
        <time>2025-05-03T11:16:01Z</time>
      </trkpt>
      <trkpt lat="41.087852977216244" lon="-8.041472006589174">
        <ele>200.56999999999999</ele>
        <time>2025-05-03T11:16:02Z</time>
      </trkpt>
      <trkpt lat="41.087775025516748" lon="-8.041533026844263">
        <ele>201.05000000000001</ele>
        <time>2025-05-03T11:16:03Z</time>
      </trkpt>
      <trkpt lat="41.087677963078022" lon="-8.041584994643927">
        <ele>201.05000000000001</ele>
        <time>2025-05-03T11:16:04Z</time>
      </trkpt>
      <trkpt lat="41.087574027478695" lon="-8.041640985757113">
        <ele>200.56999999999999</ele>
        <time>2025-05-03T11:16:05Z</time>
      </trkpt>
      <trkpt lat="41.087470008060336" lon="-8.041697982698679">
        <ele>200.56999999999999</ele>
        <time>2025-05-03T11:16:06Z</time>
      </trkpt>
      <trkpt lat="41.086261002346873" lon="-8.042266024276614">
        <ele>200.09</ele>
        <time>2025-05-03T11:16:18Z</time>
      </trkpt>
      <trkpt lat="41.086114989593625" lon="-8.042384963482618">
        <ele>200.09</ele>
        <time>2025-05-03T11:16:20Z</time>
      </trkpt>
      <trkpt lat="41.086052963510156" lon="-8.04245101287961">
        <ele>200.09</ele>
        <time>2025-05-03T11:16:21Z</time>
      </trkpt>
      <trkpt lat="41.085995966568589" lon="-8.042512033134699">
        <ele>200.56999999999999</ele>
        <time>2025-05-03T11:16:22Z</time>
      </trkpt>
      <trkpt lat="41.085939975455403" lon="-8.042572969570756">
        <ele>200.56999999999999</ele>
        <time>2025-05-03T11:16:23Z</time>
      </trkpt>
      <trkpt lat="41.085879961028695" lon="-8.042638013139367">
        <ele>201.05000000000001</ele>
        <time>2025-05-03T11:16:24Z</time>
      </trkpt>
      <trkpt lat="41.085269004106522" lon="-8.043251987546682">
        <ele>201.05000000000001</ele>
        <time>2025-05-03T11:16:31Z</time>
      </trkpt>
      <trkpt lat="41.084999023005366" lon="-8.043576031923294">
        <ele>201.05000000000001</ele>
        <time>2025-05-03T11:16:34Z</time>
      </trkpt>
      <trkpt lat="41.08492199331522" lon="-8.043677033856511">
        <ele>201.05000000000001</ele>
        <time>2025-05-03T11:16:35Z</time>
      </trkpt>
      <trkpt lat="41.084870025515556" lon="-8.043803013861179">
        <ele>200.56999999999999</ele>
        <time>2025-05-03T11:16:36Z</time>
      </trkpt>
      <trkpt lat="41.084833983331919" lon="-8.043937962502241">
        <ele>200.56999999999999</ele>
        <time>2025-05-03T11:16:37Z</time>
      </trkpt>
      <trkpt lat="41.084833983331919" lon="-8.044083975255489">
        <ele>200.56999999999999</ele>
        <time>2025-05-03T11:16:38Z</time>
      </trkpt>
      <trkpt lat="41.084864996373653" lon="-8.044211966916919">
        <ele>200.56999999999999</ele>
        <time>2025-05-03T11:16:39Z</time>
      </trkpt>
      <trkpt lat="41.084915958344936" lon="-8.044339036568999">
        <ele>200.09</ele>
        <time>2025-05-03T11:16:40Z</time>
      </trkpt>
      <trkpt lat="41.084990976378322" lon="-8.044465016573668">
        <ele>199.61000000000001</ele>
        <time>2025-05-03T11:16:41Z</time>
      </trkpt>
      <trkpt lat="41.085079992190003" lon="-8.04457800462842">
        <ele>199.13</ele>
        <time>2025-05-03T11:16:42Z</time>
      </trkpt>
      <trkpt lat="41.085187029093504" lon="-8.04468504153192">
        <ele>198.65000000000001</ele>
        <time>2025-05-03T11:16:43Z</time>
      </trkpt>
      <trkpt lat="41.085292976349592" lon="-8.044783025979996">
        <ele>198.65000000000001</ele>
        <time>2025-05-03T11:16:44Z</time>
      </trkpt>
      <trkpt lat="41.085417028516531" lon="-8.044795012101531">
        <ele>198.16999999999999</ele>
        <time>2025-05-03T11:16:45Z</time>
      </trkpt>
      <trkpt lat="41.085548037663102" lon="-8.044788977131248">
        <ele>197.69</ele>
        <time>2025-05-03T11:16:46Z</time>
      </trkpt>
      <trkpt lat="41.085675023496151" lon="-8.044753018766642">
        <ele>196.72999999999999</ele>
        <time>2025-05-03T11:16:47Z</time>
      </trkpt>
      <trkpt lat="41.085798991844058" lon="-8.044716976583004">
        <ele>196.25</ele>
        <time>2025-05-03T11:16:48Z</time>
      </trkpt>
      <trkpt lat="41.085912985727191" lon="-8.044728962704539">
        <ele>195.77000000000001</ele>
        <time>2025-05-03T11:16:49Z</time>
      </trkpt>
      <trkpt lat="41.086031002923846" lon="-8.044754024595022">
        <ele>195.77000000000001</ele>
        <time>2025-05-03T11:16:50Z</time>
      </trkpt>
      <trkpt lat="41.086136028170586" lon="-8.044847985729575">
        <ele>195.77000000000001</ele>
        <time>2025-05-03T11:16:51Z</time>
      </trkpt>
      <trkpt lat="41.086251027882099" lon="-8.044949993491173">
        <ele>195.77000000000001</ele>
        <time>2025-05-03T11:16:52Z</time>
      </trkpt>
      <trkpt lat="41.086935997009277" lon="-8.045682990923524">
        <ele>193.84</ele>
        <time>2025-05-03T11:16:58Z</time>
      </trkpt>
      <trkpt lat="41.086969021707773" lon="-8.04586797952652">
        <ele>193.84</ele>
        <time>2025-05-03T11:16:59Z</time>
      </trkpt>
      <trkpt lat="41.087001040577888" lon="-8.046048022806644">
        <ele>193.84</ele>
        <time>2025-05-03T11:17:00Z</time>
      </trkpt>
      <trkpt lat="41.086980002000928" lon="-8.046195041388273">
        <ele>193.84</ele>
        <time>2025-05-03T11:17:01Z</time>
      </trkpt>
      <trkpt lat="41.086952006444335" lon="-8.046385981142521">
        <ele>193.36000000000001</ele>
        <time>2025-05-03T11:17:02Z</time>
      </trkpt>
      <trkpt lat="41.086690993979573" lon="-8.048265036195517">
        <ele>188.08000000000001</ele>
        <time>2025-05-03T11:17:11Z</time>
      </trkpt>
      <trkpt lat="41.086700968444347" lon="-8.048409959301353">
        <ele>187.59</ele>
        <time>2025-05-03T11:17:12Z</time>
      </trkpt>
      <trkpt lat="41.086756959557533" lon="-8.048522025346756">
        <ele>186.63</ele>
        <time>2025-05-03T11:17:13Z</time>
      </trkpt>
      <trkpt lat="41.086825020611286" lon="-8.048591008409858">
        <ele>186.15000000000001</ele>
        <time>2025-05-03T11:17:14Z</time>
      </trkpt>
      <trkpt lat="41.086935997009277" lon="-8.048623027279973">
        <ele>185.19</ele>
        <time>2025-05-03T11:17:15Z</time>
      </trkpt>
      <trkpt lat="41.087038004770875" lon="-8.048611041158438">
        <ele>184.71000000000001</ele>
        <time>2025-05-03T11:17:16Z</time>
      </trkpt>
      <trkpt lat="41.087150992825627" lon="-8.04859796538949">
        <ele>184.22999999999999</ele>
        <time>2025-05-03T11:17:17Z</time>
      </trkpt>
      <trkpt lat="41.087254006415606" lon="-8.048584973439574">
        <ele>183.27000000000001</ele>
        <time>2025-05-03T11:17:18Z</time>
      </trkpt>
      <trkpt lat="41.087346039712429" lon="-8.04861699230969">
        <ele>182.78999999999999</ele>
        <time>2025-05-03T11:17:19Z</time>
      </trkpt>
      <trkpt lat="41.087431032210588" lon="-8.048692010343075">
        <ele>182.31</ele>
        <time>2025-05-03T11:17:20Z</time>
      </trkpt>
      <trkpt lat="41.087463973090053" lon="-8.048823019489646">
        <ele>181.83000000000001</ele>
        <time>2025-05-03T11:17:21Z</time>
      </trkpt>
      <trkpt lat="41.087484005838633" lon="-8.048973977565765">
        <ele>181.34999999999999</ele>
        <time>2025-05-03T11:17:22Z</time>
      </trkpt>
      <trkpt lat="41.087434971705079" lon="-8.049113033339381">
        <ele>180.38</ele>
        <time>2025-05-03T11:17:23Z</time>
      </trkpt>
      <trkpt lat="41.087383003905416" lon="-8.049260973930359">
        <ele>179.90000000000001</ele>
        <time>2025-05-03T11:17:24Z</time>
      </trkpt>
      <trkpt lat="41.087295999750495" lon="-8.049381002783775">
        <ele>179.90000000000001</ele>
        <time>2025-05-03T11:17:25Z</time>
      </trkpt>
      <trkpt lat="41.087193991988897" lon="-8.049488039687276">
        <ele>179.41999999999999</ele>
        <time>2025-05-03T11:17:26Z</time>
      </trkpt>
      <trkpt lat="41.087089972570539" lon="-8.049594992771745">
        <ele>178.94</ele>
        <time>2025-05-03T11:17:27Z</time>
      </trkpt>
      <trkpt lat="41.08698695898056" lon="-8.049702029675245">
        <ele>178.94</ele>
        <time>2025-05-03T11:17:28Z</time>
      </trkpt>
      <trkpt lat="41.086785960942507" lon="-8.049909984692931">
        <ele>178.94</ele>
        <time>2025-05-03T11:17:30Z</time>
      </trkpt>
      <trkpt lat="41.086733993142843" lon="-8.050067983567715">
        <ele>178.94</ele>
        <time>2025-05-03T11:17:31Z</time>
      </trkpt>
      <trkpt lat="41.086699962615967" lon="-8.050218019634485">
        <ele>178.46000000000001</ele>
        <time>2025-05-03T11:17:32Z</time>
      </trkpt>
      <trkpt lat="41.086699962615967" lon="-8.050381969660521">
        <ele>178.46000000000001</ele>
        <time>2025-05-03T11:17:33Z</time>
      </trkpt>
      <trkpt lat="41.086752014234662" lon="-8.050533011555672">
        <ele>178.46000000000001</ele>
        <time>2025-05-03T11:17:34Z</time>
      </trkpt>
      <trkpt lat="41.086805993691087" lon="-8.050692016258836">
        <ele>178.46000000000001</ele>
        <time>2025-05-03T11:17:35Z</time>
      </trkpt>
      <trkpt lat="41.086860978975892" lon="-8.050850015133619">
        <ele>178.46000000000001</ele>
        <time>2025-05-03T11:17:36Z</time>
      </trkpt>
      <trkpt lat="41.086912024766207" lon="-8.051000973209739">
        <ele>178.46000000000001</ele>
        <time>2025-05-03T11:17:37Z</time>
      </trkpt>
      <trkpt lat="41.086958041414618" lon="-8.051137011498213">
        <ele>178.46000000000001</ele>
        <time>2025-05-03T11:17:38Z</time>
      </trkpt>
      <trkpt lat="41.086958963423967" lon="-8.051285035908222">
        <ele>178.46000000000001</ele>
        <time>2025-05-03T11:17:39Z</time>
      </trkpt>
      <trkpt lat="41.086924010887742" lon="-8.0514329764992">
        <ele>178.46000000000001</ele>
        <time>2025-05-03T11:17:40Z</time>
      </trkpt>
      <trkpt lat="41.086887968704104" lon="-8.051596004515886">
        <ele>177.97999999999999</ele>
        <time>2025-05-03T11:17:41Z</time>
      </trkpt>
      <trkpt lat="41.08685796149075" lon="-8.051770012825728">
        <ele>177.5</ele>
        <time>2025-05-03T11:17:42Z</time>
      </trkpt>
      <trkpt lat="41.086826026439667" lon="-8.05194997228682">
        <ele>176.53999999999999</ele>
        <time>2025-05-03T11:17:43Z</time>
      </trkpt>
      <trkpt lat="41.086828960105777" lon="-8.052125992253423">
        <ele>176.06</ele>
        <time>2025-05-03T11:17:44Z</time>
      </trkpt>
      <trkpt lat="41.08687698841095" lon="-8.052281979471445">
        <ele>175.58000000000001</ele>
        <time>2025-05-03T11:17:45Z</time>
      </trkpt>
      <trkpt lat="41.086926022544503" lon="-8.052440984174609">
        <ele>175.09999999999999</ele>
        <time>2025-05-03T11:17:46Z</time>
      </trkpt>
      <trkpt lat="41.086972961202264" lon="-8.05259495973587">
        <ele>174.62</ele>
        <time>2025-05-03T11:17:47Z</time>
      </trkpt>
      <trkpt lat="41.086978996172547" lon="-8.052746001631022">
        <ele>173.66</ele>
        <time>2025-05-03T11:17:48Z</time>
      </trkpt>
      <trkpt lat="41.086972961202264" lon="-8.052882039919496">
        <ele>173.16999999999999</ele>
        <time>2025-05-03T11:17:49Z</time>
      </trkpt>
      <trkpt lat="41.08689702115953" lon="-8.053008019924164">
        <ele>172.21000000000001</ele>
        <time>2025-05-03T11:17:50Z</time>
      </trkpt>
      <trkpt lat="41.08681202866137" lon="-8.053146991878748">
        <ele>171.25</ele>
        <time>2025-05-03T11:17:51Z</time>
      </trkpt>
      <trkpt lat="41.086723012849689" lon="-8.053294010460377">
        <ele>170.77000000000001</ele>
        <time>2025-05-03T11:17:52Z</time>
      </trkpt>
      <trkpt lat="41.086630979552865" lon="-8.053445974364877">
        <ele>170.28999999999999</ele>
        <time>2025-05-03T11:17:53Z</time>
      </trkpt>
      <trkpt lat="41.086287992075086" lon="-8.054035976529121">
        <ele>166.93000000000001</ele>
        <time>2025-05-03T11:17:57Z</time>
      </trkpt>
      <trkpt lat="41.086270976811647" lon="-8.054172014817596">
        <ele>165.96000000000001</ele>
        <time>2025-05-03T11:17:58Z</time>
      </trkpt>
      <trkpt lat="41.086270976811647" lon="-8.054308975115418">
        <ele>165.47999999999999</ele>
        <time>2025-05-03T11:17:59Z</time>
      </trkpt>
      <trkpt lat="41.086302995681763" lon="-8.054511984810233">
        <ele>164.52000000000001</ele>
        <time>2025-05-03T11:18:00Z</time>
      </trkpt>
      <trkpt lat="41.08634197153151" lon="-8.054706025868654">
        <ele>164.03999999999999</ele>
        <time>2025-05-03T11:18:01Z</time>
      </trkpt>
      <trkpt lat="41.086631985381246" lon="-8.056003041565418">
        <ele>157.78999999999999</ele>
        <time>2025-05-03T11:18:07Z</time>
      </trkpt>
      <trkpt lat="41.086722007021308" lon="-8.056164979934692">
        <ele>156.83000000000001</ele>
        <time>2025-05-03T11:18:08Z</time>
      </trkpt>
      <trkpt lat="41.086820997297764" lon="-8.056327002122998">
        <ele>155.87</ele>
        <time>2025-05-03T11:18:09Z</time>
      </trkpt>
      <trkpt lat="41.087015960365534" lon="-8.056645011529326">
        <ele>153.94999999999999</ele>
        <time>2025-05-03T11:18:11Z</time>
      </trkpt>
      <trkpt lat="41.087089972570539" lon="-8.056830000132322">
        <ele>152.99000000000001</ele>
        <time>2025-05-03T11:18:12Z</time>
      </trkpt>
      <trkpt lat="41.087158033624291" lon="-8.057034015655518">
        <ele>152.03</ele>
        <time>2025-05-03T11:18:13Z</time>
      </trkpt>
      <trkpt lat="41.087219975888729" lon="-8.057240964844823">
        <ele>151.06</ele>
        <time>2025-05-03T11:18:14Z</time>
      </trkpt>
      <trkpt lat="41.087276972830296" lon="-8.057454032823443">
        <ele>150.09999999999999</ele>
        <time>2025-05-03T11:18:15Z</time>
      </trkpt>
      <trkpt lat="41.08769397251308" lon="-8.05890703573823">
        <ele>145.30000000000001</ele>
        <time>2025-05-03T11:18:22Z</time>
      </trkpt>
      <trkpt lat="41.087884996086359" lon="-8.059729970991612">
        <ele>143.84999999999999</ele>
        <time>2025-05-03T11:18:26Z</time>
      </trkpt>
      <trkpt lat="41.087895976379514" lon="-8.059943038970232">
        <ele>143.84999999999999</ele>
        <time>2025-05-03T11:18:27Z</time>
      </trkpt>
      <trkpt lat="41.087884996086359" lon="-8.060149988159537">
        <ele>143.84999999999999</ele>
        <time>2025-05-03T11:18:28Z</time>
      </trkpt>
      <trkpt lat="41.087873009964824" lon="-8.060368001461029">
        <ele>143.84999999999999</ele>
        <time>2025-05-03T11:18:29Z</time>
      </trkpt>
      <trkpt lat="41.087862029671669" lon="-8.06058400310576">
        <ele>143.84999999999999</ele>
        <time>2025-05-03T11:18:30Z</time>
      </trkpt>
      <trkpt lat="41.087880972772837" lon="-8.060780977830291">
        <ele>143.84999999999999</ele>
        <time>2025-05-03T11:18:31Z</time>
      </trkpt>
      <trkpt lat="41.087910979986191" lon="-8.060980970039964">
        <ele>143.37</ele>
        <time>2025-05-03T11:18:32Z</time>
      </trkpt>
      <trkpt lat="41.087937969714403" lon="-8.061161013320088">
        <ele>142.88999999999999</ele>
        <time>2025-05-03T11:18:33Z</time>
      </trkpt>
      <trkpt lat="41.087964037433267" lon="-8.061329992488027">
        <ele>142.41</ele>
        <time>2025-05-03T11:18:34Z</time>
      </trkpt>
      <trkpt lat="41.087936963886023" lon="-8.061493020504713">
        <ele>141.93000000000001</ele>
        <time>2025-05-03T11:18:35Z</time>
      </trkpt>
      <trkpt lat="41.087889019399881" lon="-8.061638027429581">
        <ele>140.97</ele>
        <time>2025-05-03T11:18:36Z</time>
      </trkpt>
      <trkpt lat="41.087601017206907" lon="-8.062284020707011">
        <ele>138.09</ele>
        <time>2025-05-03T11:18:40Z</time>
      </trkpt>
      <trkpt lat="41.087549971416593" lon="-8.062446964904666">
        <ele>137.61000000000001</ele>
        <time>2025-05-03T11:18:41Z</time>
      </trkpt>
      <trkpt lat="41.087527005001903" lon="-8.062614016234875">
        <ele>136.63999999999999</ele>
        <time>2025-05-03T11:18:42Z</time>
      </trkpt>
      <trkpt lat="41.087533961981535" lon="-8.062757011502981">
        <ele>136.16</ele>
        <time>2025-05-03T11:18:43Z</time>
      </trkpt>
      <trkpt lat="41.087584001943469" lon="-8.062917022034526">
        <ele>135.68000000000001</ele>
        <time>2025-05-03T11:18:44Z</time>
      </trkpt>
      <trkpt lat="41.0876480396837" lon="-8.063081977888942">
        <ele>135.68000000000001</ele>
        <time>2025-05-03T11:18:45Z</time>
      </trkpt>
      <trkpt lat="41.087746024131775" lon="-8.063236037269235">
        <ele>135.19999999999999</ele>
        <time>2025-05-03T11:18:46Z</time>
      </trkpt>
      <trkpt lat="41.088031008839607" lon="-8.063685977831483">
        <ele>134.72</ele>
        <time>2025-05-03T11:18:49Z</time>
      </trkpt>
      <trkpt lat="41.088148020207882" lon="-8.063803995028138">
        <ele>134.72</ele>
        <time>2025-05-03T11:18:50Z</time>
      </trkpt>
      <trkpt lat="41.088265031576157" lon="-8.063848000019789">
        <ele>134.24000000000001</ele>
        <time>2025-05-03T11:18:51Z</time>
      </trkpt>
      <trkpt lat="41.088510034605861" lon="-8.063925029709935">
        <ele>133.75999999999999</ele>
        <time>2025-05-03T11:18:53Z</time>
      </trkpt>
      <trkpt lat="41.089532040059566" lon="-8.064648974686861">
        <ele>131.84</ele>
        <time>2025-05-03T11:19:01Z</time>
      </trkpt>
      <trkpt lat="41.089652990922332" lon="-8.064734973013401">
        <ele>130.88</ele>
        <time>2025-05-03T11:19:02Z</time>
      </trkpt>
      <trkpt lat="41.089758016169071" lon="-8.06481895968318">
        <ele>130.88</ele>
        <time>2025-05-03T11:19:03Z</time>
      </trkpt>
      <trkpt lat="41.089843008667231" lon="-8.064953992143273">
        <ele>130.40000000000001</ele>
        <time>2025-05-03T11:19:04Z</time>
      </trkpt>
      <trkpt lat="41.089887013658881" lon="-8.06511802598834">
        <ele>129.91999999999999</ele>
        <time>2025-05-03T11:19:05Z</time>
      </trkpt>
      <trkpt lat="41.08992800116539" lon="-8.065305026248097">
        <ele>129.43000000000001</ele>
        <time>2025-05-03T11:19:06Z</time>
      </trkpt>
      <trkpt lat="41.089952979236841" lon="-8.065499989315867">
        <ele>128.94999999999999</ele>
        <time>2025-05-03T11:19:07Z</time>
      </trkpt>
      <trkpt lat="41.08999103307724" lon="-8.065925035625696">
        <ele>127.03</ele>
        <time>2025-05-03T11:19:09Z</time>
      </trkpt>
      <trkpt lat="41.09009999781847" lon="-8.067134041339159">
        <ele>119.81999999999999</ele>
        <time>2025-05-03T11:19:15Z</time>
      </trkpt>
      <trkpt lat="41.090135034173727" lon="-8.067311989143491">
        <ele>118.86</ele>
        <time>2025-05-03T11:19:16Z</time>
      </trkpt>
      <trkpt lat="41.090217009186745" lon="-8.067467976361513">
        <ele>117.90000000000001</ele>
        <time>2025-05-03T11:19:17Z</time>
      </trkpt>
      <trkpt lat="41.090342989191413" lon="-8.06778003461659">
        <ele>115.98</ele>
        <time>2025-05-03T11:19:19Z</time>
      </trkpt>
      <trkpt lat="41.090366039425135" lon="-8.067930992692709">
        <ele>115.01000000000001</ele>
        <time>2025-05-03T11:19:20Z</time>
      </trkpt>
      <trkpt lat="41.090342989191413" lon="-8.068069964647293">
        <ele>114.05</ele>
        <time>2025-05-03T11:19:21Z</time>
      </trkpt>
      <trkpt lat="41.090305019170046" lon="-8.068235004320741">
        <ele>113.56999999999999</ele>
        <time>2025-05-03T11:19:22Z</time>
      </trkpt>
      <trkpt lat="41.090235030278563" lon="-8.068341035395861">
        <ele>113.09</ele>
        <time>2025-05-03T11:19:23Z</time>
      </trkpt>
      <trkpt lat="41.090149031952024" lon="-8.06846902705729">
        <ele>112.13</ele>
        <time>2025-05-03T11:19:24Z</time>
      </trkpt>
      <trkpt lat="41.090062027797103" lon="-8.068600036203861">
        <ele>111.65000000000001</ele>
        <time>2025-05-03T11:19:25Z</time>
      </trkpt>
      <trkpt lat="41.089977035298944" lon="-8.068728027865291">
        <ele>111.17</ele>
        <time>2025-05-03T11:19:26Z</time>
      </trkpt>
      <trkpt lat="41.089962031692266" lon="-8.068882003426552">
        <ele>110.69</ele>
        <time>2025-05-03T11:19:27Z</time>
      </trkpt>
      <trkpt lat="41.089962031692266" lon="-8.069052994251251">
        <ele>110.20999999999999</ele>
        <time>2025-05-03T11:19:28Z</time>
      </trkpt>
      <trkpt lat="41.089962031692266" lon="-8.06922197341919">
        <ele>109.25</ele>
        <time>2025-05-03T11:19:29Z</time>
      </trkpt>
      <trkpt lat="41.089992038905621" lon="-8.069393970072269">
        <ele>108.77</ele>
        <time>2025-05-03T11:19:30Z</time>
      </trkpt>
      <trkpt lat="41.090106032788754" lon="-8.070135014131665">
        <ele>105.88</ele>
        <time>2025-05-03T11:19:34Z</time>
      </trkpt>
      <trkpt lat="41.090134028345346" lon="-8.07046702131629">
        <ele>104.92</ele>
        <time>2025-05-03T11:19:36Z</time>
      </trkpt>
      <trkpt lat="41.090104021131992" lon="-8.07066198438406">
        <ele>103.95999999999999</ele>
        <time>2025-05-03T11:19:37Z</time>
      </trkpt>
      <trkpt lat="41.09007703140378" lon="-8.070835992693901">
        <ele>103</ele>
        <time>2025-05-03T11:19:38Z</time>
      </trkpt>
      <trkpt lat="41.090049035847187" lon="-8.071014024317265">
        <ele>102.52</ele>
        <time>2025-05-03T11:19:39Z</time>
      </trkpt>
      <trkpt lat="41.090021040290594" lon="-8.07119901292026">
        <ele>102.04000000000001</ele>
        <time>2025-05-03T11:19:40Z</time>
      </trkpt>
      <trkpt lat="41.090005030855536" lon="-8.071390958502889">
        <ele>101.08</ele>
        <time>2025-05-03T11:19:41Z</time>
      </trkpt>
      <trkpt lat="41.090005030855536" lon="-8.071595979854465">
        <ele>100.11</ele>
        <time>2025-05-03T11:19:42Z</time>
      </trkpt>
      <trkpt lat="41.090005030855536" lon="-8.071796977892518">
        <ele>99.150000000000006</ele>
        <time>2025-05-03T11:19:43Z</time>
      </trkpt>
      <trkpt lat="41.090005030855536" lon="-8.0719930306077">
        <ele>98.189999999999998</ele>
        <time>2025-05-03T11:19:44Z</time>
      </trkpt>
      <trkpt lat="41.090005030855536" lon="-8.072188999503851">
        <ele>96.75</ele>
        <time>2025-05-03T11:19:45Z</time>
      </trkpt>
      <trkpt lat="41.090005030855536" lon="-8.072386980056763">
        <ele>95.310000000000002</ele>
        <time>2025-05-03T11:19:46Z</time>
      </trkpt>
      <trkpt lat="41.090005030855536" lon="-8.072780007496476">
        <ele>92.900000000000006</ele>
        <time>2025-05-03T11:19:48Z</time>
      </trkpt>
      <trkpt lat="41.090021962299943" lon="-8.07298100553453">
        <ele>91.939999999999998</ele>
        <time>2025-05-03T11:19:49Z</time>
      </trkpt>
      <trkpt lat="41.09007996506989" lon="-8.073577964678407">
        <ele>88.099999999999994</ele>
        <time>2025-05-03T11:19:52Z</time>
      </trkpt>
      <trkpt lat="41.090087005868554" lon="-8.07377602905035">
        <ele>86.659999999999997</ele>
        <time>2025-05-03T11:19:53Z</time>
      </trkpt>
      <trkpt lat="41.090091029182076" lon="-8.073974009603262">
        <ele>85.209999999999994</ele>
        <time>2025-05-03T11:19:54Z</time>
      </trkpt>
      <trkpt lat="41.090091029182076" lon="-8.074169978499413">
        <ele>83.769999999999996</ele>
        <time>2025-05-03T11:19:55Z</time>
      </trkpt>
      <trkpt lat="41.090134028345346" lon="-8.074364019557834">
        <ele>82.329999999999998</ele>
        <time>2025-05-03T11:19:56Z</time>
      </trkpt>
      <trkpt lat="41.090184990316629" lon="-8.074558982625604">
        <ele>80.890000000000001</ele>
        <time>2025-05-03T11:19:57Z</time>
      </trkpt>
      <trkpt lat="41.090239975601435" lon="-8.074746988713741">
        <ele>79.930000000000007</ele>
        <time>2025-05-03T11:19:58Z</time>
      </trkpt>
      <trkpt lat="41.090567037463188" lon="-8.075825991109014">
        <ele>71.269999999999996</ele>
        <time>2025-05-03T11:20:05Z</time>
      </trkpt>
      <trkpt lat="41.090734004974365" lon="-8.076571980491281">
        <ele>66.950000000000003</ele>
        <time>2025-05-03T11:20:10Z</time>
      </trkpt>
      <trkpt lat="41.090734004974365" lon="-8.076722016558051">
        <ele>65.989999999999995</ele>
        <time>2025-05-03T11:20:11Z</time>
      </trkpt>
      <trkpt lat="41.090683965012431" lon="-8.076830981299281">
        <ele>65.989999999999995</ele>
        <time>2025-05-03T11:20:12Z</time>
      </trkpt>
      <trkpt lat="41.090623028576374" lon="-8.076948998495936">
        <ele>65.030000000000001</ele>
        <time>2025-05-03T11:20:13Z</time>
      </trkpt>
      <trkpt lat="41.090558990836143" lon="-8.077073972672224">
        <ele>64.069999999999993</ele>
        <time>2025-05-03T11:20:14Z</time>
      </trkpt>
      <trkpt lat="41.090494031086564" lon="-8.077200958505273">
        <ele>63.100000000000001</ele>
        <time>2025-05-03T11:20:15Z</time>
      </trkpt>
      <trkpt lat="41.090429993346334" lon="-8.077326016500592">
        <ele>62.140000000000001</ele>
        <time>2025-05-03T11:20:16Z</time>
      </trkpt>
      <trkpt lat="41.090364027768373" lon="-8.077454008162022">
        <ele>61.18</ele>
        <time>2025-05-03T11:20:17Z</time>
      </trkpt>
      <trkpt lat="41.090300995856524" lon="-8.077581999823451">
        <ele>60.700000000000003</ele>
        <time>2025-05-03T11:20:18Z</time>
      </trkpt>
      <trkpt lat="41.090134028345346" lon="-8.078040992841125">
        <ele>57.340000000000003</ele>
        <time>2025-05-03T11:20:22Z</time>
      </trkpt>
      <trkpt lat="41.090052975341678" lon="-8.078121040016413">
        <ele>56.859999999999999</ele>
        <time>2025-05-03T11:20:23Z</time>
      </trkpt>
      <trkpt lat="41.089976029470563" lon="-8.078198991715908">
        <ele>55.890000000000001</ele>
        <time>2025-05-03T11:20:24Z</time>
      </trkpt>
      <trkpt lat="41.089893970638514" lon="-8.078280966728926">
        <ele>54.93</ele>
        <time>2025-05-03T11:20:25Z</time>
      </trkpt>
      <trkpt lat="41.089807972311974" lon="-8.078365959227085">
        <ele>54.450000000000003</ele>
        <time>2025-05-03T11:20:26Z</time>
      </trkpt>
      <trkpt lat="41.089551988989115" lon="-8.078587995842099">
        <ele>52.530000000000001</ele>
        <time>2025-05-03T11:20:29Z</time>
      </trkpt>
      <trkpt lat="41.089476970955729" lon="-8.078621020540595">
        <ele>52.049999999999997</ele>
        <time>2025-05-03T11:20:30Z</time>
      </trkpt>
      <trkpt lat="41.089388038963079" lon="-8.078621020540595">
        <ele>52.049999999999997</ele>
        <time>2025-05-03T11:20:31Z</time>
      </trkpt>
      <trkpt lat="41.089304974302649" lon="-8.078585984185338">
        <ele>51.57</ele>
        <time>2025-05-03T11:20:32Z</time>
      </trkpt>
      <trkpt lat="41.089189974591136" lon="-8.078512977808714">
        <ele>51.57</ele>
        <time>2025-05-03T11:20:33Z</time>
      </trkpt>
      <trkpt lat="41.08911101706326" lon="-8.078435026109219">
        <ele>51.090000000000003</ele>
        <time>2025-05-03T11:20:34Z</time>
      </trkpt>
      <trkpt lat="41.088176015764475" lon="-8.077599015086889">
        <ele>51.090000000000003</ele>
        <time>2025-05-03T11:20:42Z</time>
      </trkpt>
      <trkpt lat="41.088065039366484" lon="-8.07751502841711">
        <ele>51.57</ele>
        <time>2025-05-03T11:20:43Z</time>
      </trkpt>
      <trkpt lat="41.087954984977841" lon="-8.077490972355008">
        <ele>51.57</ele>
        <time>2025-05-03T11:20:44Z</time>
      </trkpt>
      <trkpt lat="41.087552988901734" lon="-8.077433975413442">
        <ele>52.049999999999997</ele>
        <time>2025-05-03T11:20:47Z</time>
      </trkpt>
      <trkpt lat="41.087408987805247" lon="-8.077399022877216">
        <ele>52.049999999999997</ele>
        <time>2025-05-03T11:20:48Z</time>
      </trkpt>
      <trkpt lat="41.086248010396957" lon="-8.076680023223162">
        <ele>56.859999999999999</ele>
        <time>2025-05-03T11:20:57Z</time>
      </trkpt>
      <trkpt lat="41.086140973493457" lon="-8.076551025733352">
        <ele>56.859999999999999</ele>
        <time>2025-05-03T11:20:58Z</time>
      </trkpt>
      <trkpt lat="41.086053969338536" lon="-8.076404007151723">
        <ele>57.340000000000003</ele>
        <time>2025-05-03T11:20:59Z</time>
      </trkpt>
      <trkpt lat="41.085986997932196" lon="-8.076242990791798">
        <ele>58.299999999999997</ele>
        <time>2025-05-03T11:21:00Z</time>
      </trkpt>
      <trkpt lat="41.085921032354236" lon="-8.076083986088634">
        <ele>58.780000000000001</ele>
        <time>2025-05-03T11:21:01Z</time>
      </trkpt>
      <trkpt lat="41.085855988785625" lon="-8.075929004698992">
        <ele>59.259999999999998</ele>
        <time>2025-05-03T11:21:02Z</time>
      </trkpt>
      <trkpt lat="41.085774013772607" lon="-8.075807970017195">
        <ele>59.740000000000002</ele>
        <time>2025-05-03T11:21:03Z</time>
      </trkpt>
      <trkpt lat="41.085692038759589" lon="-8.075702022761107">
        <ele>60.219999999999999</ele>
        <time>2025-05-03T11:21:04Z</time>
      </trkpt>
      <trkpt lat="41.085578966885805" lon="-8.075674027204514">
        <ele>60.219999999999999</ele>
        <time>2025-05-03T11:21:05Z</time>
      </trkpt>
      <trkpt lat="41.085452986881137" lon="-8.075671009719372">
        <ele>60.219999999999999</ele>
        <time>2025-05-03T11:21:06Z</time>
      </trkpt>
      <trkpt lat="41.085323989391327" lon="-8.075692970305681">
        <ele>60.219999999999999</ele>
        <time>2025-05-03T11:21:07Z</time>
      </trkpt>
      <trkpt lat="41.084539024159312" lon="-8.075825991109014">
        <ele>61.659999999999997</ele>
        <time>2025-05-03T11:21:13Z</time>
      </trkpt>
      <trkpt lat="41.084410026669502" lon="-8.075808975845575">
        <ele>62.140000000000001</ele>
        <time>2025-05-03T11:21:14Z</time>
      </trkpt>
      <trkpt lat="41.084279017522931" lon="-8.075780980288982">
        <ele>62.619999999999997</ele>
        <time>2025-05-03T11:21:15Z</time>
      </trkpt>
      <trkpt lat="41.084034014493227" lon="-8.075727000832558">
        <ele>63.579999999999998</ele>
        <time>2025-05-03T11:21:17Z</time>
      </trkpt>
      <trkpt lat="41.0839559789747" lon="-8.075663968920708">
        <ele>64.069999999999993</ele>
        <time>2025-05-03T11:21:18Z</time>
      </trkpt>
      <trkpt lat="41.083901999518275" lon="-8.075613006949425">
        <ele>64.549999999999997</ele>
        <time>2025-05-03T11:21:19Z</time>
      </trkpt>
      <trkpt lat="41.083859000355005" lon="-8.075572019442916">
        <ele>65.030000000000001</ele>
        <time>2025-05-03T11:21:20Z</time>
      </trkpt>
      <trkpt lat="41.083814995363355" lon="-8.075530026108027">
        <ele>65.510000000000005</ele>
        <time>2025-05-03T11:21:21Z</time>
      </trkpt>
      <trkpt lat="41.083641992881894" lon="-8.075364986434579">
        <ele>66.950000000000003</ele>
        <time>2025-05-03T11:21:24Z</time>
      </trkpt>
      <trkpt lat="41.083573009818792" lon="-8.075299020856619">
        <ele>67.430000000000007</ele>
        <time>2025-05-03T11:21:25Z</time>
      </trkpt>
      <trkpt lat="41.08346002176404" lon="-8.075314024463296">
        <ele>67.909999999999997</ele>
        <time>2025-05-03T11:21:26Z</time>
      </trkpt>
      <trkpt lat="41.08335399068892" lon="-8.075364986434579">
        <ele>67.909999999999997</ele>
        <time>2025-05-03T11:21:27Z</time>
      </trkpt>
      <trkpt lat="41.083242008462548" lon="-8.075417960062623">
        <ele>67.909999999999997</ele>
        <time>2025-05-03T11:21:28Z</time>
      </trkpt>
      <trkpt lat="41.083118040114641" lon="-8.075477974489331">
        <ele>68.390000000000001</ele>
        <time>2025-05-03T11:21:29Z</time>
      </trkpt>
      <trkpt lat="41.082990970462561" lon="-8.075526002794504">
        <ele>68.390000000000001</ele>
        <time>2025-05-03T11:21:30Z</time>
      </trkpt>
      <trkpt lat="41.082555027678609" lon="-8.075594985857606">
        <ele>68.390000000000001</ele>
        <time>2025-05-03T11:21:33Z</time>
      </trkpt>
      <trkpt lat="41.082404991611838" lon="-8.075590040534735">
        <ele>68.870000000000005</ele>
        <time>2025-05-03T11:21:34Z</time>
      </trkpt>
      <trkpt lat="41.0822550393641" lon="-8.075560033321381">
        <ele>68.870000000000005</ele>
        <time>2025-05-03T11:21:35Z</time>
      </trkpt>
      <trkpt lat="41.082112966105342" lon="-8.075532037764788">
        <ele>68.870000000000005</ele>
        <time>2025-05-03T11:21:36Z</time>
      </trkpt>
      <trkpt lat="41.081987991929054" lon="-8.075457019731402">
        <ele>68.870000000000005</ele>
        <time>2025-05-03T11:21:37Z</time>
      </trkpt>
      <trkpt lat="41.081851031631231" lon="-8.075374960899353">
        <ele>69.349999999999994</ele>
        <time>2025-05-03T11:21:38Z</time>
      </trkpt>
      <trkpt lat="41.081710970029235" lon="-8.075288962572813">
        <ele>69.829999999999998</ele>
        <time>2025-05-03T11:21:39Z</time>
      </trkpt>
      <trkpt lat="41.081565041095018" lon="-8.075201036408544">
        <ele>69.829999999999998</ele>
        <time>2025-05-03T11:21:40Z</time>
      </trkpt>
      <trkpt lat="41.081404024735093" lon="-8.075139010325074">
        <ele>70.310000000000002</ele>
        <time>2025-05-03T11:21:41Z</time>
      </trkpt>
      <trkpt lat="41.079653967171907" lon="-8.07467901147902">
        <ele>71.269999999999996</ele>
        <time>2025-05-03T11:21:51Z</time>
      </trkpt>
      <trkpt lat="41.079382980242372" lon="-8.074608016759157">
        <ele>71.760000000000005</ele>
        <time>2025-05-03T11:21:53Z</time>
      </trkpt>
      <trkpt lat="41.079236967489123" lon="-8.074494022876024">
        <ele>72.239999999999995</ele>
        <time>2025-05-03T11:21:54Z</time>
      </trkpt>
      <trkpt lat="41.079126996919513" lon="-8.074373994022608">
        <ele>72.239999999999995</ele>
        <time>2025-05-03T11:21:55Z</time>
      </trkpt>
      <trkpt lat="41.079015014693141" lon="-8.074225969612598">
        <ele>72.719999999999999</ele>
        <time>2025-05-03T11:21:56Z</time>
      </trkpt>
      <trkpt lat="41.078902026638389" lon="-8.074078029021621">
        <ele>73.200000000000003</ele>
        <time>2025-05-03T11:21:57Z</time>
      </trkpt>
      <trkpt lat="41.078044977039099" lon="-8.072900958359242">
        <ele>76.560000000000002</ele>
        <time>2025-05-03T11:22:05Z</time>
      </trkpt>
      <trkpt lat="41.077954033389688" lon="-8.072773972526193">
        <ele>77.040000000000006</ele>
        <time>2025-05-03T11:22:06Z</time>
      </trkpt>
      <trkpt lat="41.077924026176333" lon="-8.072632988914847">
        <ele>77.519999999999996</ele>
        <time>2025-05-03T11:22:07Z</time>
      </trkpt>
      <trkpt lat="41.077902987599373" lon="-8.072503991425037">
        <ele>78</ele>
        <time>2025-05-03T11:22:08Z</time>
      </trkpt>
      <trkpt lat="41.077937018126249" lon="-8.072368036955595">
        <ele>78.480000000000004</ele>
        <time>2025-05-03T11:22:09Z</time>
      </trkpt>
      <trkpt lat="41.077974988147616" lon="-8.072218000888825">
        <ele>78.969999999999999</ele>
        <time>2025-05-03T11:22:10Z</time>
      </trkpt>
      <trkpt lat="41.078014969825745" lon="-8.072056984528899">
        <ele>79.450000000000003</ele>
        <time>2025-05-03T11:22:11Z</time>
      </trkpt>
      <trkpt lat="41.078044977039099" lon="-8.0717150028795">
        <ele>79.930000000000007</ele>
        <time>2025-05-03T11:22:13Z</time>
      </trkpt>
      <trkpt lat="41.078051012009382" lon="-8.071533031761646">
        <ele>80.409999999999997</ele>
        <time>2025-05-03T11:22:14Z</time>
      </trkpt>
      <trkpt lat="41.078001977875829" lon="-8.071353994309902">
        <ele>80.409999999999997</ele>
        <time>2025-05-03T11:22:15Z</time>
      </trkpt>
      <trkpt lat="41.07785303145647" lon="-8.070806991308928">
        <ele>80.409999999999997</ele>
        <time>2025-05-03T11:22:18Z</time>
      </trkpt>
      <trkpt lat="41.077799974009395" lon="-8.070613034069538">
        <ele>79.930000000000007</ele>
        <time>2025-05-03T11:22:19Z</time>
      </trkpt>
      <trkpt lat="41.077747000381351" lon="-8.070418993011117">
        <ele>79.930000000000007</ele>
        <time>2025-05-03T11:22:20Z</time>
      </trkpt>
      <trkpt lat="41.077639041468501" lon="-8.070239033550024">
        <ele>79.450000000000003</ele>
        <time>2025-05-03T11:22:21Z</time>
      </trkpt>
      <trkpt lat="41.077525969594717" lon="-8.070092014968395">
        <ele>78.969999999999999</ele>
        <time>2025-05-03T11:22:22Z</time>
      </trkpt>
      <trkpt lat="41.077412981539965" lon="-8.069954970851541">
        <ele>78.480000000000004</ele>
        <time>2025-05-03T11:22:23Z</time>
      </trkpt>
      <trkpt lat="41.077087009325624" lon="-8.06963000446558">
        <ele>78.969999999999999</ele>
        <time>2025-05-03T11:22:26Z</time>
      </trkpt>
      <trkpt lat="41.076954994350672" lon="-8.069665962830186">
        <ele>78.969999999999999</ele>
        <time>2025-05-03T11:22:27Z</time>
      </trkpt>
      <trkpt lat="41.076850974932313" lon="-8.069693958386779">
        <ele>78.969999999999999</ele>
        <time>2025-05-03T11:22:28Z</time>
      </trkpt>
      <trkpt lat="41.076729018241167" lon="-8.069764031097293">
        <ele>78.969999999999999</ele>
        <time>2025-05-03T11:22:29Z</time>
      </trkpt>
      <trkpt lat="41.076612006872892" lon="-8.069831002503634">
        <ele>78.969999999999999</ele>
        <time>2025-05-03T11:22:30Z</time>
      </trkpt>
      <trkpt lat="41.076515028253198" lon="-8.069929992780089">
        <ele>78.480000000000004</ele>
        <time>2025-05-03T11:22:31Z</time>
      </trkpt>
      <trkpt lat="41.076439004391432" lon="-8.070064019411802">
        <ele>78.480000000000004</ele>
        <time>2025-05-03T11:22:32Z</time>
      </trkpt>
      <trkpt lat="41.076361974701285" lon="-8.070200979709625">
        <ele>78.480000000000004</ele>
        <time>2025-05-03T11:22:33Z</time>
      </trkpt>
      <trkpt lat="41.076282011345029" lon="-8.070341041311622">
        <ele>78</ele>
        <time>2025-05-03T11:22:34Z</time>
      </trkpt>
      <trkpt lat="41.076168017461896" lon="-8.070429973304272">
        <ele>78</ele>
        <time>2025-05-03T11:22:35Z</time>
      </trkpt>
      <trkpt lat="41.076036002486944" lon="-8.070518989115953">
        <ele>78.480000000000004</ele>
        <time>2025-05-03T11:22:36Z</time>
      </trkpt>
      <trkpt lat="41.075895018875599" lon="-8.070614039897919">
        <ele>78</ele>
        <time>2025-05-03T11:22:37Z</time>
      </trkpt>
      <trkpt lat="41.075751017779112" lon="-8.070712024345994">
        <ele>78</ele>
        <time>2025-05-03T11:22:38Z</time>
      </trkpt>
      <trkpt lat="41.075228992849588" lon="-8.071078984066844">
        <ele>78</ele>
        <time>2025-05-03T11:22:42Z</time>
      </trkpt>
      <trkpt lat="41.075117010623217" lon="-8.071126006543636">
        <ele>77.519999999999996</ele>
        <time>2025-05-03T11:22:43Z</time>
      </trkpt>
      <trkpt lat="41.074990024790168" lon="-8.071105973795056">
        <ele>77.519999999999996</ele>
        <time>2025-05-03T11:22:44Z</time>
      </trkpt>
      <trkpt lat="41.074861027300358" lon="-8.071085019037128">
        <ele>77.519999999999996</ele>
        <time>2025-05-03T11:22:45Z</time>
      </trkpt>
      <trkpt lat="41.074748961254954" lon="-8.071066997945309">
        <ele>77.519999999999996</ele>
        <time>2025-05-03T11:22:46Z</time>
      </trkpt>
      <trkpt lat="41.074631027877331" lon="-8.071092981845141">
        <ele>77.519999999999996</ele>
        <time>2025-05-03T11:22:47Z</time>
      </trkpt>
      <trkpt lat="41.074555004015565" lon="-8.071109997108579">
        <ele>77.040000000000006</ele>
        <time>2025-05-03T11:22:48Z</time>
      </trkpt>
      <trkpt lat="41.074510999023914" lon="-8.071188032627106">
        <ele>77.040000000000006</ele>
        <time>2025-05-03T11:22:49Z</time>
      </trkpt>
      <trkpt lat="41.074470011517406" lon="-8.07126103900373">
        <ele>76.560000000000002</ele>
        <time>2025-05-03T11:22:50Z</time>
      </trkpt>
      <trkpt lat="41.074463976547122" lon="-8.071362962946296">
        <ele>76.560000000000002</ele>
        <time>2025-05-03T11:22:51Z</time>
      </trkpt>
      <trkpt lat="41.07445802539587" lon="-8.071480980142951">
        <ele>76.560000000000002</ele>
        <time>2025-05-03T11:22:52Z</time>
      </trkpt>
      <trkpt lat="41.074451990425587" lon="-8.071594974026084">
        <ele>77.040000000000006</ele>
        <time>2025-05-03T11:22:53Z</time>
      </trkpt>
      <trkpt lat="41.074432041496038" lon="-8.071706034243107">
        <ele>77.040000000000006</ele>
        <time>2025-05-03T11:22:54Z</time>
      </trkpt>
      <trkpt lat="41.074384013190866" lon="-8.071818016469479">
        <ele>77.519999999999996</ele>
        <time>2025-05-03T11:22:55Z</time>
      </trkpt>
      <trkpt lat="41.074302038177848" lon="-8.071859003975987">
        <ele>78</ele>
        <time>2025-05-03T11:22:56Z</time>
      </trkpt>
      <trkpt lat="41.074211010709405" lon="-8.071882976219058">
        <ele>78.480000000000004</ele>
        <time>2025-05-03T11:22:57Z</time>
      </trkpt>
      <trkpt lat="41.074110008776188" lon="-8.071882976219058">
        <ele>78.969999999999999</ele>
        <time>2025-05-03T11:22:58Z</time>
      </trkpt>
      <trkpt lat="41.074000038206577" lon="-8.071882976219058">
        <ele>78.969999999999999</ele>
        <time>2025-05-03T11:22:59Z</time>
      </trkpt>
      <trkpt lat="41.073883026838303" lon="-8.071882976219058">
        <ele>78.969999999999999</ele>
        <time>2025-05-03T11:23:00Z</time>
      </trkpt>
      <trkpt lat="41.073760986328125" lon="-8.071882976219058">
        <ele>78.969999999999999</ele>
        <time>2025-05-03T11:23:01Z</time>
      </trkpt>
      <trkpt lat="41.07364003546536" lon="-8.071890017017722">
        <ele>79.450000000000003</ele>
        <time>2025-05-03T11:23:02Z</time>
      </trkpt>
      <trkpt lat="41.073523024097085" lon="-8.071904014796019">
        <ele>79.450000000000003</ele>
        <time>2025-05-03T11:23:03Z</time>
      </trkpt>
      <trkpt lat="41.073421016335487" lon="-8.071916000917554">
        <ele>79.450000000000003</ele>
        <time>2025-05-03T11:23:04Z</time>
      </trkpt>
      <trkpt lat="41.073336023837328" lon="-8.071925975382328">
        <ele>79.930000000000007</ele>
        <time>2025-05-03T11:23:05Z</time>
      </trkpt>
      <trkpt lat="41.073262011632323" lon="-8.071935027837753">
        <ele>79.930000000000007</ele>
        <time>2025-05-03T11:23:06Z</time>
      </trkpt>
      <trkpt lat="41.073054978623986" lon="-8.071996970102191">
        <ele>80.409999999999997</ele>
        <time>2025-05-03T11:23:09Z</time>
      </trkpt>
      <trkpt lat="41.072989013046026" lon="-8.072028988972306">
        <ele>80.409999999999997</ele>
        <time>2025-05-03T11:23:10Z</time>
      </trkpt>
      <trkpt lat="41.072922963649035" lon="-8.072060002014041">
        <ele>80.409999999999997</ele>
        <time>2025-05-03T11:23:11Z</time>
      </trkpt>
      <trkpt lat="41.072854986414313" lon="-8.072092020884156">
        <ele>80.409999999999997</ele>
        <time>2025-05-03T11:23:12Z</time>
      </trkpt>
      <trkpt lat="41.07278399169445" lon="-8.07212496176362">
        <ele>80.890000000000001</ele>
        <time>2025-05-03T11:23:13Z</time>
      </trkpt>
      <trkpt lat="41.072709979489446" lon="-8.072147006168962">
        <ele>81.370000000000005</ele>
        <time>2025-05-03T11:23:14Z</time>
      </trkpt>
      <trkpt lat="41.072622975334525" lon="-8.072161003947258">
        <ele>82.329999999999998</ele>
        <time>2025-05-03T11:23:15Z</time>
      </trkpt>
      <trkpt lat="41.072537982836366" lon="-8.072135020047426">
        <ele>83.290000000000006</ele>
        <time>2025-05-03T11:23:16Z</time>
      </trkpt>
      <trkpt lat="41.072006989270449" lon="-8.071937961503863">
        <ele>88.579999999999998</ele>
        <time>2025-05-03T11:23:22Z</time>
      </trkpt>
      <trkpt lat="41.071866005659103" lon="-8.071812987327576">
        <ele>90.5</ele>
        <time>2025-05-03T11:23:24Z</time>
      </trkpt>
      <trkpt lat="41.071690991520882" lon="-8.071664040908217">
        <ele>93.390000000000001</ele>
        <time>2025-05-03T11:23:27Z</time>
      </trkpt>
      <trkpt lat="41.07162301428616" lon="-8.071635039523244">
        <ele>94.829999999999998</ele>
        <time>2025-05-03T11:23:28Z</time>
      </trkpt>
      <trkpt lat="41.071525029838085" lon="-8.071620035916567">
        <ele>95.310000000000002</ele>
        <time>2025-05-03T11:23:29Z</time>
      </trkpt>
      <trkpt lat="41.071440959349275" lon="-8.071673009544611">
        <ele>96.269999999999996</ele>
        <time>2025-05-03T11:23:30Z</time>
      </trkpt>
      <trkpt lat="41.071373987942934" lon="-8.071765964850783">
        <ele>96.75</ele>
        <time>2025-05-03T11:23:31Z</time>
      </trkpt>
      <trkpt lat="41.071362001821399" lon="-8.071869984269142">
        <ele>97.709999999999994</ele>
        <time>2025-05-03T11:23:32Z</time>
      </trkpt>
      <trkpt lat="41.071371976286173" lon="-8.071964029222727">
        <ele>98.189999999999998</ele>
        <time>2025-05-03T11:23:33Z</time>
      </trkpt>
      <trkpt lat="41.071392009034753" lon="-8.07205799035728">
        <ele>98.670000000000002</ele>
        <time>2025-05-03T11:23:34Z</time>
      </trkpt>
      <trkpt lat="41.0714500118047" lon="-8.07212202809751">
        <ele>99.629999999999995</ele>
        <time>2025-05-03T11:23:35Z</time>
      </trkpt>
      <trkpt lat="41.071532992646098" lon="-8.072163015604019">
        <ele>100.11</ele>
        <time>2025-05-03T11:23:36Z</time>
      </trkpt>
      <trkpt lat="41.071627037599683" lon="-8.072209032252431">
        <ele>100.59999999999999</ele>
        <time>2025-05-03T11:23:37Z</time>
      </trkpt>
      <trkpt lat="41.071915961802006" lon="-8.072311962023377">
        <ele>102.04000000000001</ele>
        <time>2025-05-03T11:23:40Z</time>
      </trkpt>
      <trkpt lat="41.072041019797325" lon="-8.072397960349917">
        <ele>102.52</ele>
        <time>2025-05-03T11:23:41Z</time>
      </trkpt>
      <trkpt lat="41.072155013680458" lon="-8.072478007525206">
        <ele>103</ele>
        <time>2025-05-03T11:23:42Z</time>
      </trkpt>
      <trkpt lat="41.07288901694119" lon="-8.073092987760902">
        <ele>106.36</ele>
        <time>2025-05-03T11:23:47Z</time>
      </trkpt>
      <trkpt lat="41.072995970025659" lon="-8.073135986924171">
        <ele>106.84</ele>
        <time>2025-05-03T11:23:48Z</time>
      </trkpt>
      <trkpt lat="41.073096971958876" lon="-8.073147973045707">
        <ele>107.31999999999999</ele>
        <time>2025-05-03T11:23:49Z</time>
      </trkpt>
      <trkpt lat="41.073198979720473" lon="-8.073098016902804">
        <ele>108.29000000000001</ele>
        <time>2025-05-03T11:23:50Z</time>
      </trkpt>
      <trkpt lat="41.07329998165369" lon="-8.07304697111249">
        <ele>108.77</ele>
        <time>2025-05-03T11:23:51Z</time>
      </trkpt>
      <trkpt lat="41.073407018557191" lon="-8.072999026626349">
        <ele>109.73</ele>
        <time>2025-05-03T11:23:52Z</time>
      </trkpt>
      <trkpt lat="41.073520006611943" lon="-8.072999026626349">
        <ele>110.69</ele>
        <time>2025-05-03T11:23:53Z</time>
      </trkpt>
      <trkpt lat="41.07362100854516" lon="-8.07306700386107">
        <ele>111.65000000000001</ele>
        <time>2025-05-03T11:23:54Z</time>
      </trkpt>
      <trkpt lat="41.073709018528461" lon="-8.073160964995623">
        <ele>112.61</ele>
        <time>2025-05-03T11:23:55Z</time>
      </trkpt>
      <trkpt lat="41.073790993541479" lon="-8.073299014940858">
        <ele>113.09</ele>
        <time>2025-05-03T11:23:56Z</time>
      </trkpt>
      <trkpt lat="41.073882021009922" lon="-8.073449973016977">
        <ele>114.05</ele>
        <time>2025-05-03T11:23:57Z</time>
      </trkpt>
      <trkpt lat="41.073996014893055" lon="-8.073595985770226">
        <ele>114.53</ele>
        <time>2025-05-03T11:23:58Z</time>
      </trkpt>
      <trkpt lat="41.074130041524768" lon="-8.073723977431655">
        <ele>115.01000000000001</ele>
        <time>2025-05-03T11:23:59Z</time>
      </trkpt>
      <trkpt lat="41.074259961023927" lon="-8.073850963264704">
        <ele>115.5</ele>
        <time>2025-05-03T11:24:00Z</time>
      </trkpt>
      <trkpt lat="41.074854992330074" lon="-8.074359996244311">
        <ele>119.34</ele>
        <time>2025-05-03T11:24:05Z</time>
      </trkpt>
      <trkpt lat="41.074954988434911" lon="-8.074393020942807">
        <ele>119.81999999999999</ele>
        <time>2025-05-03T11:24:06Z</time>
      </trkpt>
      <trkpt lat="41.075063031166792" lon="-8.074393020942807">
        <ele>120.3</ele>
        <time>2025-05-03T11:24:07Z</time>
      </trkpt>
      <trkpt lat="41.07516897842288" lon="-8.074393020942807">
        <ele>120.3</ele>
        <time>2025-05-03T11:24:08Z</time>
      </trkpt>
      <trkpt lat="41.075276015326381" lon="-8.074398972094059">
        <ele>120.78</ele>
        <time>2025-05-03T11:24:09Z</time>
      </trkpt>
      <trkpt lat="41.075354972854257" lon="-8.074501985684037">
        <ele>121.26000000000001</ele>
        <time>2025-05-03T11:24:10Z</time>
      </trkpt>
      <trkpt lat="41.07542403973639" lon="-8.074626959860325">
        <ele>122.70999999999999</ele>
        <time>2025-05-03T11:24:11Z</time>
      </trkpt>
      <trkpt lat="41.075521018356085" lon="-8.074800968170166">
        <ele>123.67</ele>
        <time>2025-05-03T11:24:12Z</time>
      </trkpt>
      <trkpt lat="41.075567035004497" lon="-8.07491697371006">
        <ele>124.63</ele>
        <time>2025-05-03T11:24:13Z</time>
      </trkpt>
      <trkpt lat="41.075633000582457" lon="-8.075080001726747">
        <ele>125.11</ele>
        <time>2025-05-03T11:24:14Z</time>
      </trkpt>
      <trkpt lat="41.075701983645558" lon="-8.075242023915052">
        <ele>126.06999999999999</ele>
        <time>2025-05-03T11:24:15Z</time>
      </trkpt>
      <trkpt lat="41.075815977528691" lon="-8.075375966727734">
        <ele>127.51000000000001</ele>
        <time>2025-05-03T11:24:16Z</time>
      </trkpt>
      <trkpt lat="41.075929971411824" lon="-8.075512005016208">
        <ele>128.47</ele>
        <time>2025-05-03T11:24:17Z</time>
      </trkpt>
      <trkpt lat="41.076037008315325" lon="-8.075638990849257">
        <ele>129.91999999999999</ele>
        <time>2025-05-03T11:24:18Z</time>
      </trkpt>
      <trkpt lat="41.076166005805135" lon="-8.075735969468951">
        <ele>130.88</ele>
        <time>2025-05-03T11:24:19Z</time>
      </trkpt>
      <trkpt lat="41.076291985809803" lon="-8.075832026079297">
        <ele>131.84</ele>
        <time>2025-05-03T11:24:20Z</time>
      </trkpt>
      <trkpt lat="41.076646959409118" lon="-8.076101001352072">
        <ele>134.72</ele>
        <time>2025-05-03T11:24:23Z</time>
      </trkpt>
      <trkpt lat="41.076752990484238" lon="-8.076195968315005">
        <ele>135.68000000000001</ele>
        <time>2025-05-03T11:24:24Z</time>
      </trkpt>
      <trkpt lat="41.076808981597424" lon="-8.076342986896634">
        <ele>137.13</ele>
        <time>2025-05-03T11:24:25Z</time>
      </trkpt>
      <trkpt lat="41.076997993513942" lon="-8.076830981299281">
        <ele>140.49000000000001</ele>
        <time>2025-05-03T11:24:28Z</time>
      </trkpt>
      <trkpt lat="41.077090026810765" lon="-8.076956961303949">
        <ele>141.44999999999999</ele>
        <time>2025-05-03T11:24:29Z</time>
      </trkpt>
      <trkpt lat="41.077193962410092" lon="-8.077028961852193">
        <ele>142.88999999999999</ele>
        <time>2025-05-03T11:24:30Z</time>
      </trkpt>
      <trkpt lat="41.07731600292027" lon="-8.077062992379069">
        <ele>143.84999999999999</ele>
        <time>2025-05-03T11:24:31Z</time>
      </trkpt>
      <trkpt lat="41.077453969046474" lon="-8.077101968228817">
        <ele>144.81999999999999</ele>
        <time>2025-05-03T11:24:32Z</time>
      </trkpt>
      <trkpt lat="41.077600987628102" lon="-8.077143039554358">
        <ele>145.78</ele>
        <time>2025-05-03T11:24:33Z</time>
      </trkpt>
      <trkpt lat="41.077744988724589" lon="-8.077205987647176">
        <ele>146.74000000000001</ele>
        <time>2025-05-03T11:24:34Z</time>
      </trkpt>
      <trkpt lat="41.077878009527922" lon="-8.077282011508942">
        <ele>147.69999999999999</ele>
        <time>2025-05-03T11:24:35Z</time>
      </trkpt>
      <trkpt lat="41.077980017289519" lon="-8.077359041199088">
        <ele>148.66</ele>
        <time>2025-05-03T11:24:36Z</time>
      </trkpt>
      <trkpt lat="41.078040031716228" lon="-8.077478986233473">
        <ele>149.62</ele>
        <time>2025-05-03T11:24:37Z</time>
      </trkpt>
      <trkpt lat="41.078086970373988" lon="-8.077629022300243">
        <ele>150.58000000000001</ele>
        <time>2025-05-03T11:24:38Z</time>
      </trkpt>
      <trkpt lat="41.07813399285078" lon="-8.077801018953323">
        <ele>152.03</ele>
        <time>2025-05-03T11:24:39Z</time>
      </trkpt>
      <trkpt lat="41.078183026984334" lon="-8.077977960929275">
        <ele>152.99000000000001</ele>
        <time>2025-05-03T11:24:40Z</time>
      </trkpt>
      <trkpt lat="41.078277993947268" lon="-8.078127996996045">
        <ele>153.47</ele>
        <time>2025-05-03T11:24:41Z</time>
      </trkpt>
      <trkpt lat="41.078372038900852" lon="-8.078276021406055">
        <ele>154.43000000000001</ele>
        <time>2025-05-03T11:24:42Z</time>
      </trkpt>
      <trkpt lat="41.078457031399012" lon="-8.078409964218736">
        <ele>155.87</ele>
        <time>2025-05-03T11:24:43Z</time>
      </trkpt>
      <trkpt lat="41.078573036938906" lon="-8.07848397642374">
        <ele>156.83000000000001</ele>
        <time>2025-05-03T11:24:44Z</time>
      </trkpt>
      <trkpt lat="41.07869298197329" lon="-8.078529993072152">
        <ele>157.31</ele>
        <time>2025-05-03T11:24:45Z</time>
      </trkpt>
      <trkpt lat="41.078833965584636" lon="-8.078530998900533">
        <ele>158.27000000000001</ele>
        <time>2025-05-03T11:24:46Z</time>
      </trkpt>
      <trkpt lat="41.078967992216349" lon="-8.07848397642374">
        <ele>159.24000000000001</ele>
        <time>2025-05-03T11:24:47Z</time>
      </trkpt>
      <trkpt lat="41.079092966392636" lon="-8.07843997143209">
        <ele>160.19999999999999</ele>
        <time>2025-05-03T11:24:48Z</time>
      </trkpt>
      <trkpt lat="41.079201009124517" lon="-8.078407030552626">
        <ele>160.68000000000001</ele>
        <time>2025-05-03T11:24:49Z</time>
      </trkpt>
      <trkpt lat="41.079329000785947" lon="-8.078423039987683">
        <ele>162.12</ele>
        <time>2025-05-03T11:24:50Z</time>
      </trkpt>
      <trkpt lat="41.079449029639363" lon="-8.078487999737263">
        <ele>163.08000000000001</ele>
        <time>2025-05-03T11:24:51Z</time>
      </trkpt>
      <trkpt lat="41.079580038785934" lon="-8.078578021377325">
        <ele>163.56</ele>
        <time>2025-05-03T11:24:52Z</time>
      </trkpt>
      <trkpt lat="41.079709958285093" lon="-8.078690003603697">
        <ele>164.52000000000001</ele>
        <time>2025-05-03T11:24:53Z</time>
      </trkpt>
      <trkpt lat="41.079843984916806" lon="-8.078823024407029">
        <ele>165</ele>
        <time>2025-05-03T11:24:54Z</time>
      </trkpt>
      <trkpt lat="41.0799790173769" lon="-8.078950010240078">
        <ele>165.47999999999999</ele>
        <time>2025-05-03T11:24:55Z</time>
      </trkpt>
      <trkpt lat="41.080252015963197" lon="-8.079181015491486">
        <ele>166.44999999999999</ele>
        <time>2025-05-03T11:24:57Z</time>
      </trkpt>
      <trkpt lat="41.080396017059684" lon="-8.079296015202999">
        <ele>166.93000000000001</ele>
        <time>2025-05-03T11:24:58Z</time>
      </trkpt>
      <trkpt lat="41.080531971529126" lon="-8.079402968287468">
        <ele>166.93000000000001</ele>
        <time>2025-05-03T11:24:59Z</time>
      </trkpt>
      <trkpt lat="41.080659963190556" lon="-8.079483015462756">
        <ele>167.41</ele>
        <time>2025-05-03T11:25:00Z</time>
      </trkpt>
      <trkpt lat="41.080805975943804" lon="-8.079501036554575">
        <ele>167.41</ele>
        <time>2025-05-03T11:25:01Z</time>
      </trkpt>
      <trkpt lat="41.080966992303729" lon="-8.079519979655743">
        <ele>167.88999999999999</ele>
        <time>2025-05-03T11:25:02Z</time>
      </trkpt>
      <trkpt lat="41.081780036911368" lon="-8.079670015722513">
        <ele>167.41</ele>
        <time>2025-05-03T11:25:07Z</time>
      </trkpt>
      <trkpt lat="41.081904005259275" lon="-8.079772023484111">
        <ele>167.88999999999999</ele>
        <time>2025-05-03T11:25:08Z</time>
      </trkpt>
      <trkpt lat="41.08215001411736" lon="-8.080035969614983">
        <ele>167.88999999999999</ele>
        <time>2025-05-03T11:25:10Z</time>
      </trkpt>
      <trkpt lat="41.082299966365099" lon="-8.080106964334846">
        <ele>168.37</ele>
        <time>2025-05-03T11:25:11Z</time>
      </trkpt>
      <trkpt lat="41.082461988553405" lon="-8.080182988196611">
        <ele>168.84999999999999</ele>
        <time>2025-05-03T11:25:12Z</time>
      </trkpt>
      <trkpt lat="41.082631973549724" lon="-8.080214001238346">
        <ele>168.84999999999999</ele>
        <time>2025-05-03T11:25:13Z</time>
      </trkpt>
      <trkpt lat="41.082803970202804" lon="-8.080220958217979">
        <ele>169.33000000000001</ele>
        <time>2025-05-03T11:25:14Z</time>
      </trkpt>
      <trkpt lat="41.083131032064557" lon="-8.080275021493435">
        <ele>170.28999999999999</ele>
        <time>2025-05-03T11:25:16Z</time>
      </trkpt>
      <trkpt lat="41.083282995969057" lon="-8.080321960151196">
        <ele>170.28999999999999</ele>
        <time>2025-05-03T11:25:17Z</time>
      </trkpt>
      <trkpt lat="41.083415010944009" lon="-8.080426985397935">
        <ele>170.77000000000001</ele>
        <time>2025-05-03T11:25:18Z</time>
      </trkpt>
      <trkpt lat="41.083525987342" lon="-8.080546008422971">
        <ele>171.25</ele>
        <time>2025-05-03T11:25:19Z</time>
      </trkpt>
      <trkpt lat="41.083636963739991" lon="-8.080684980377555">
        <ele>171.72999999999999</ele>
        <time>2025-05-03T11:25:20Z</time>
      </trkpt>
      <trkpt lat="41.083726985380054" lon="-8.080851025879383">
        <ele>172.21000000000001</ele>
        <time>2025-05-03T11:25:21Z</time>
      </trkpt>
      <trkpt lat="41.083874003961682" lon="-8.081156965345144">
        <ele>173.16999999999999</ele>
        <time>2025-05-03T11:25:23Z</time>
      </trkpt>
      <trkpt lat="41.083889007568359" lon="-8.081281017512083">
        <ele>174.13999999999999</ele>
        <time>2025-05-03T11:25:24Z</time>
      </trkpt>
      <trkpt lat="41.083853971213102" lon="-8.081441028043628">
        <ele>174.62</ele>
        <time>2025-05-03T11:25:25Z</time>
      </trkpt>
      <trkpt lat="41.08378398232162" lon="-8.081568013876677">
        <ele>175.09999999999999</ele>
        <time>2025-05-03T11:25:26Z</time>
      </trkpt>
      <trkpt lat="41.083694966509938" lon="-8.08170204050839">
        <ele>176.06</ele>
        <time>2025-05-03T11:25:27Z</time>
      </trkpt>
      <trkpt lat="41.083604022860527" lon="-8.081837994977832">
        <ele>176.53999999999999</ele>
        <time>2025-05-03T11:25:28Z</time>
      </trkpt>
      <trkpt lat="41.08354602009058" lon="-8.081975039094687">
        <ele>177.02000000000001</ele>
        <time>2025-05-03T11:25:29Z</time>
      </trkpt>
      <trkpt lat="41.083533028140664" lon="-8.082117028534412">
        <ele>177.5</ele>
        <time>2025-05-03T11:25:30Z</time>
      </trkpt>
      <trkpt lat="41.083549037575722" lon="-8.082279972732067">
        <ele>177.5</ele>
        <time>2025-05-03T11:25:31Z</time>
      </trkpt>
      <trkpt lat="41.083565969020128" lon="-8.082451969385147">
        <ele>177.5</ele>
        <time>2025-05-03T11:25:32Z</time>
      </trkpt>
      <trkpt lat="41.083583990111947" lon="-8.082636035978794">
        <ele>177.5</ele>
        <time>2025-05-03T11:25:33Z</time>
      </trkpt>
      <trkpt lat="41.083603017032146" lon="-8.082834016531706">
        <ele>177.97999999999999</ele>
        <time>2025-05-03T11:25:34Z</time>
      </trkpt>
      <trkpt lat="41.083625983446836" lon="-8.083191001787782">
        <ele>178.46000000000001</ele>
        <time>2025-05-03T11:25:36Z</time>
      </trkpt>
      <trkpt lat="41.083610979840159" lon="-8.083362998440862">
        <ele>178.94</ele>
        <time>2025-05-03T11:25:37Z</time>
      </trkpt>
      <trkpt lat="41.083541996777058" lon="-8.083430975675583">
        <ele>179.41999999999999</ele>
        <time>2025-05-03T11:25:38Z</time>
      </trkpt>
      <trkpt lat="41.083421967923641" lon="-8.083482021465898">
        <ele>179.90000000000001</ele>
        <time>2025-05-03T11:25:39Z</time>
      </trkpt>
      <trkpt lat="41.083330018445849" lon="-8.083414966240525">
        <ele>180.38</ele>
        <time>2025-05-03T11:25:40Z</time>
      </trkpt>
      <trkpt lat="41.08329095877707" lon="-8.083324022591114">
        <ele>180.87</ele>
        <time>2025-05-03T11:25:41Z</time>
      </trkpt>
      <trkpt lat="41.083275033161044" lon="-8.083184966817498">
        <ele>181.34999999999999</ele>
        <time>2025-05-03T11:25:42Z</time>
      </trkpt>
      <trkpt lat="41.083249971270561" lon="-8.083026967942715">
        <ele>181.83000000000001</ele>
        <time>2025-05-03T11:25:43Z</time>
      </trkpt>
      <trkpt lat="41.083209989592433" lon="-8.082848014310002">
        <ele>182.31</ele>
        <time>2025-05-03T11:25:44Z</time>
      </trkpt>
      <trkpt lat="41.083158021792769" lon="-8.082660008221865">
        <ele>182.78999999999999</ele>
        <time>2025-05-03T11:25:45Z</time>
      </trkpt>
      <trkpt lat="41.083085015416145" lon="-8.08247895911336">
        <ele>183.27000000000001</ele>
        <time>2025-05-03T11:25:46Z</time>
      </trkpt>
      <trkpt lat="41.083015026524663" lon="-8.082303022965789">
        <ele>183.75</ele>
        <time>2025-05-03T11:25:47Z</time>
      </trkpt>
      <trkpt lat="41.082961969077587" lon="-8.082137983292341">
        <ele>184.71000000000001</ele>
        <time>2025-05-03T11:25:48Z</time>
      </trkpt>
      <trkpt lat="41.082945959642529" lon="-8.081976966932416">
        <ele>185.66999999999999</ele>
        <time>2025-05-03T11:25:49Z</time>
      </trkpt>
      <trkpt lat="41.082990970462561" lon="-8.081817962229252">
        <ele>186.63</ele>
        <time>2025-05-03T11:25:50Z</time>
      </trkpt>
      <trkpt lat="41.083049979060888" lon="-8.081663986667991">
        <ele>187.59</ele>
        <time>2025-05-03T11:25:51Z</time>
      </trkpt>
      <trkpt lat="41.083145029842854" lon="-8.081538006663322">
        <ele>188.56</ele>
        <time>2025-05-03T11:25:52Z</time>
      </trkpt>
      <trkpt lat="41.083235973492265" lon="-8.081415966153145">
        <ele>189.03999999999999</ele>
        <time>2025-05-03T11:25:53Z</time>
      </trkpt>
      <trkpt lat="41.083289030939341" lon="-8.081345977261663">
        <ele>190</ele>
        <time>2025-05-03T11:25:54Z</time>
      </trkpt>
      <trkpt lat="41.083309985697269" lon="-8.081216979771853">
        <ele>190.47999999999999</ele>
        <time>2025-05-03T11:25:55Z</time>
      </trkpt>
      <trkpt lat="41.083276038989425" lon="-8.081130981445313">
        <ele>191.44</ele>
        <time>2025-05-03T11:25:56Z</time>
      </trkpt>
      <trkpt lat="41.083229016512632" lon="-8.08108102530241">
        <ele>191.91999999999999</ele>
        <time>2025-05-03T11:25:57Z</time>
      </trkpt>
      <trkpt lat="41.083132959902287" lon="-8.081051018089056">
        <ele>192.88</ele>
        <time>2025-05-03T11:25:58Z</time>
      </trkpt>
      <trkpt lat="41.083003962412477" lon="-8.081070967018604">
        <ele>194.31999999999999</ele>
        <time>2025-05-03T11:25:59Z</time>
      </trkpt>
      <trkpt lat="41.082902038469911" lon="-8.081150008365512">
        <ele>195.28</ele>
        <time>2025-05-03T11:26:00Z</time>
      </trkpt>
      <trkpt lat="41.082807993516326" lon="-8.08125201612711">
        <ele>196.25</ele>
        <time>2025-05-03T11:26:01Z</time>
      </trkpt>
      <trkpt lat="41.08277496881783" lon="-8.081384031102061">
        <ele>197.21000000000001</ele>
        <time>2025-05-03T11:26:02Z</time>
      </trkpt>
      <trkpt lat="41.082738004624844" lon="-8.08153297752142">
        <ele>198.16999999999999</ele>
        <time>2025-05-03T11:26:03Z</time>
      </trkpt>
      <trkpt lat="41.082696011289954" lon="-8.081700028851628">
        <ele>199.61000000000001</ele>
        <time>2025-05-03T11:26:04Z</time>
      </trkpt>
      <trkpt lat="41.08264597132802" lon="-8.081879988312721">
        <ele>201.05000000000001</ele>
        <time>2025-05-03T11:26:05Z</time>
      </trkpt>
      <trkpt lat="41.082585034891963" lon="-8.082062965258956">
        <ele>202.97999999999999</ele>
        <time>2025-05-03T11:26:06Z</time>
      </trkpt>
      <trkpt lat="41.082520997151732" lon="-8.082252983003855">
        <ele>204.41999999999999</ele>
        <time>2025-05-03T11:26:07Z</time>
      </trkpt>
      <trkpt lat="41.081739971414208" lon="-8.08391603641212">
        <ele>219.80000000000001</ele>
        <time>2025-05-03T11:26:16Z</time>
      </trkpt>
      <trkpt lat="41.081632012501359" lon="-8.084075963124633">
        <ele>221.24000000000001</ele>
        <time>2025-05-03T11:26:17Z</time>
      </trkpt>
      <trkpt lat="41.081515001133084" lon="-8.084191968664527">
        <ele>222.68000000000001</ele>
        <time>2025-05-03T11:26:18Z</time>
      </trkpt>
      <trkpt lat="41.081400001421571" lon="-8.084306968376041">
        <ele>224.12</ele>
        <time>2025-05-03T11:26:19Z</time>
      </trkpt>
      <trkpt lat="41.081291036680341" lon="-8.084349967539311">
        <ele>225.09</ele>
        <time>2025-05-03T11:26:20Z</time>
      </trkpt>
      <trkpt lat="41.081193974241614" lon="-8.08438902720809">
        <ele>226.53</ele>
        <time>2025-05-03T11:26:21Z</time>
      </trkpt>
      <trkpt lat="41.081104958429933" lon="-8.084424985572696">
        <ele>227.00999999999999</ele>
        <time>2025-05-03T11:26:22Z</time>
      </trkpt>
      <trkpt lat="41.081026000902057" lon="-8.08445599861443">
        <ele>228.44999999999999</ele>
        <time>2025-05-03T11:26:23Z</time>
      </trkpt>
      <trkpt lat="41.080971015617251" lon="-8.08447795920074">
        <ele>229.41</ele>
        <time>2025-05-03T11:26:24Z</time>
      </trkpt>
      <trkpt lat="41.080963974818587" lon="-8.084554988890886">
        <ele>230.37</ele>
        <time>2025-05-03T11:26:25Z</time>
      </trkpt>
      <trkpt lat="41.080949977040291" lon="-8.084693038836122">
        <ele>230.84999999999999</ele>
        <time>2025-05-03T11:26:26Z</time>
      </trkpt>
      <trkpt lat="41.0809909645468" lon="-8.084747018292546">
        <ele>231.81</ele>
        <time>2025-05-03T11:26:27Z</time>
      </trkpt>
      <trkpt lat="41.081058019772172" lon="-8.084837039932609">
        <ele>232.78</ele>
        <time>2025-05-03T11:26:28Z</time>
      </trkpt>
      <trkpt lat="41.081135971471667" lon="-8.084941981360316">
        <ele>233.74000000000001</ele>
        <time>2025-05-03T11:26:29Z</time>
      </trkpt>
      <trkpt lat="41.081214006990194" lon="-8.085061004385352">
        <ele>234.69999999999999</ele>
        <time>2025-05-03T11:26:30Z</time>
      </trkpt>
      <trkpt lat="41.08129296451807" lon="-8.085182961076498">
        <ele>236.13999999999999</ele>
        <time>2025-05-03T11:26:31Z</time>
      </trkpt>
      <trkpt lat="41.081350967288017" lon="-8.085313970223069">
        <ele>237.09999999999999</ele>
        <time>2025-05-03T11:26:32Z</time>
      </trkpt>
      <trkpt lat="41.081387009471655" lon="-8.085470963269472">
        <ele>238.06</ele>
        <time>2025-05-03T11:26:33Z</time>
      </trkpt>
      <trkpt lat="41.081395978108048" lon="-8.085629967972636">
        <ele>239.02000000000001</ele>
        <time>2025-05-03T11:26:34Z</time>
      </trkpt>
      <trkpt lat="41.081390026956797" lon="-8.085800958797336">
        <ele>239.99000000000001</ele>
        <time>2025-05-03T11:26:35Z</time>
      </trkpt>
      <trkpt lat="41.081381980329752" lon="-8.085987037047744">
        <ele>240.94999999999999</ele>
        <time>2025-05-03T11:26:36Z</time>
      </trkpt>
      <trkpt lat="41.081347027793527" lon="-8.086174037307501">
        <ele>241.43000000000001</ele>
        <time>2025-05-03T11:26:37Z</time>
      </trkpt>
      <trkpt lat="41.081293970346451" lon="-8.086349973455071">
        <ele>241.91</ele>
        <time>2025-05-03T11:26:38Z</time>
      </trkpt>
      <trkpt lat="41.081153992563486" lon="-8.086836962029338">
        <ele>244.31</ele>
        <time>2025-05-03T11:26:41Z</time>
      </trkpt>
      <trkpt lat="41.081121973693371" lon="-8.086966965347529">
        <ele>245.27000000000001</ele>
        <time>2025-05-03T11:26:42Z</time>
      </trkpt>
      <trkpt lat="41.081154998391867" lon="-8.087085988372564">
        <ele>246.22999999999999</ele>
        <time>2025-05-03T11:26:43Z</time>
      </trkpt>
      <trkpt lat="41.081222975626588" lon="-8.087176010012627">
        <ele>247.68000000000001</ele>
        <time>2025-05-03T11:26:44Z</time>
      </trkpt>
      <trkpt lat="41.081309979781508" lon="-8.087250022217631">
        <ele>248.63999999999999</ele>
        <time>2025-05-03T11:26:45Z</time>
      </trkpt>
      <trkpt lat="41.08141802251339" lon="-8.08727097697556">
        <ele>249.59999999999999</ele>
        <time>2025-05-03T11:26:46Z</time>
      </trkpt>
      <trkpt lat="41.081536961719394" lon="-8.087295033037663">
        <ele>250.08000000000001</ele>
        <time>2025-05-03T11:26:47Z</time>
      </trkpt>
      <trkpt lat="41.081894030794501" lon="-8.087417995557189">
        <ele>252.47999999999999</ele>
        <time>2025-05-03T11:26:50Z</time>
      </trkpt>
      <trkpt lat="41.081991009414196" lon="-8.087514974176884">
        <ele>253.93000000000001</ele>
        <time>2025-05-03T11:26:51Z</time>
      </trkpt>
      <trkpt lat="41.082076001912355" lon="-8.087660986930132">
        <ele>254.88999999999999</ele>
        <time>2025-05-03T11:26:52Z</time>
      </trkpt>
      <trkpt lat="41.082148002460599" lon="-8.087815968319774">
        <ele>255.37</ele>
        <time>2025-05-03T11:26:53Z</time>
      </trkpt>
      <trkpt lat="41.082222014665604" lon="-8.087975978851318">
        <ele>256.81</ele>
        <time>2025-05-03T11:26:54Z</time>
      </trkpt>
      <trkpt lat="41.082637002691627" lon="-8.089032014831901">
        <ele>264.5</ele>
        <time>2025-05-03T11:27:01Z</time>
      </trkpt>
      <trkpt lat="41.082637002691627" lon="-8.089166041463614">
        <ele>265.45999999999998</ele>
        <time>2025-05-03T11:27:02Z</time>
      </trkpt>
      <trkpt lat="41.082588974386454" lon="-8.089290009811521">
        <ele>266.89999999999998</ele>
        <time>2025-05-03T11:27:03Z</time>
      </trkpt>
      <trkpt lat="41.082526026293635" lon="-8.089401992037892">
        <ele>268.35000000000002</ele>
        <time>2025-05-03T11:27:04Z</time>
      </trkpt>
      <trkpt lat="41.08243097551167" lon="-8.089477010071278">
        <ele>269.79000000000002</ele>
        <time>2025-05-03T11:27:05Z</time>
      </trkpt>
      <trkpt lat="41.082323016598821" lon="-8.089478015899658">
        <ele>271.23000000000002</ele>
        <time>2025-05-03T11:27:06Z</time>
      </trkpt>
      <trkpt lat="41.08221597969532" lon="-8.089478015899658">
        <ele>272.67000000000002</ele>
        <time>2025-05-03T11:27:07Z</time>
      </trkpt>
      <trkpt lat="41.082123024389148" lon="-8.089450020343065">
        <ele>274.11000000000001</ele>
        <time>2025-05-03T11:27:08Z</time>
      </trkpt>
      <trkpt lat="41.082036020234227" lon="-8.089358992874622">
        <ele>275.56</ele>
        <time>2025-05-03T11:27:09Z</time>
      </trkpt>
      <trkpt lat="41.081944992765784" lon="-8.089254973456264">
        <ele>277</ele>
        <time>2025-05-03T11:27:10Z</time>
      </trkpt>
      <trkpt lat="41.08184801414609" lon="-8.089147014543414">
        <ele>278.44</ele>
        <time>2025-05-03T11:27:11Z</time>
      </trkpt>
      <trkpt lat="41.081748018041253" lon="-8.089036960154772">
        <ele>279.88</ele>
        <time>2025-05-03T11:27:12Z</time>
      </trkpt>
      <trkpt lat="41.081643998622894" lon="-8.088922966271639">
        <ele>281.80000000000001</ele>
        <time>2025-05-03T11:27:13Z</time>
      </trkpt>
      <trkpt lat="41.081535033881664" lon="-8.088804027065635">
        <ele>283.25</ele>
        <time>2025-05-03T11:27:14Z</time>
      </trkpt>
      <trkpt lat="41.08129003085196" lon="-8.088589031249285">
        <ele>286.13</ele>
        <time>2025-05-03T11:27:16Z</time>
      </trkpt>
      <trkpt lat="41.081159021705389" lon="-8.088484006002545">
        <ele>287.56999999999999</ele>
        <time>2025-05-03T11:27:17Z</time>
      </trkpt>
      <trkpt lat="41.08008898794651" lon="-8.087668027728796">
        <ele>296.22000000000003</ele>
        <time>2025-05-03T11:27:25Z</time>
      </trkpt>
      <trkpt lat="41.079955967143178" lon="-8.087585968896747">
        <ele>297.18000000000001</ele>
        <time>2025-05-03T11:27:26Z</time>
      </trkpt>
      <trkpt lat="41.079809032380581" lon="-8.087566019967198">
        <ele>298.63</ele>
        <time>2025-05-03T11:27:27Z</time>
      </trkpt>
      <trkpt lat="41.079368982464075" lon="-8.08750499971211">
        <ele>301.99000000000001</ele>
        <time>2025-05-03T11:27:30Z</time>
      </trkpt>
      <trkpt lat="41.079238979145885" lon="-8.087573982775211">
        <ele>302.94999999999999</ele>
        <time>2025-05-03T11:27:31Z</time>
      </trkpt>
      <trkpt lat="41.079124985262752" lon="-8.087639026343823">
        <ele>304.38999999999999</ele>
        <time>2025-05-03T11:27:32Z</time>
      </trkpt>
      <trkpt lat="41.079006968066096" lon="-8.087734999135137">
        <ele>305.83999999999997</ele>
        <time>2025-05-03T11:27:33Z</time>
      </trkpt>
      <trkpt lat="41.078891968354583" lon="-8.087858967483044">
        <ele>307.27999999999997</ele>
        <time>2025-05-03T11:27:34Z</time>
      </trkpt>
      <trkpt lat="41.078574964776635" lon="-8.088201032951474">
        <ele>311.12</ele>
        <time>2025-05-03T11:27:37Z</time>
      </trkpt>
      <trkpt lat="41.078515034168959" lon="-8.088307986035943">
        <ele>312.56999999999999</ele>
        <time>2025-05-03T11:27:38Z</time>
      </trkpt>
      <trkpt lat="41.078489972278476" lon="-8.088447041809559">
        <ele>313.52999999999997</ele>
        <time>2025-05-03T11:27:39Z</time>
      </trkpt>
      <trkpt lat="41.078312024474144" lon="-8.089435016736388">
        <ele>319.77999999999997</ele>
        <time>2025-05-03T11:27:45Z</time>
      </trkpt>
      <trkpt lat="41.078288974240422" lon="-8.089564014226198">
        <ele>321.22000000000003</ele>
        <time>2025-05-03T11:27:46Z</time>
      </trkpt>
      <trkpt lat="41.078200964257121" lon="-8.089669961482287">
        <ele>321.69999999999999</ele>
        <time>2025-05-03T11:27:47Z</time>
      </trkpt>
      <trkpt lat="41.078109014779329" lon="-8.089780015870929">
        <ele>322.66000000000003</ele>
        <time>2025-05-03T11:27:48Z</time>
      </trkpt>
      <trkpt lat="41.078011030331254" lon="-8.089898033067584">
        <ele>323.62</ele>
        <time>2025-05-03T11:27:49Z</time>
      </trkpt>
      <trkpt lat="41.077663013711572" lon="-8.090201038867235">
        <ele>325.54000000000002</ele>
        <time>2025-05-03T11:27:52Z</time>
      </trkpt>
      <trkpt lat="41.077542984858155" lon="-8.090301034972072">
        <ele>326.01999999999998</ele>
        <time>2025-05-03T11:27:53Z</time>
      </trkpt>
      <trkpt lat="41.077418010681868" lon="-8.090375969186425">
        <ele>326.5</ele>
        <time>2025-05-03T11:27:54Z</time>
      </trkpt>
      <trkpt lat="41.077282978221774" lon="-8.090420980006456">
        <ele>327.47000000000003</ele>
        <time>2025-05-03T11:27:55Z</time>
      </trkpt>
      <trkpt lat="41.077147023752332" lon="-8.090414023026824">
        <ele>328.43000000000001</ele>
        <time>2025-05-03T11:27:56Z</time>
      </trkpt>
      <trkpt lat="41.077006040140986" lon="-8.090403964743018">
        <ele>329.38999999999999</ele>
        <time>2025-05-03T11:27:57Z</time>
      </trkpt>
      <trkpt lat="41.076871007680893" lon="-8.090397007763386">
        <ele>330.82999999999998</ele>
        <time>2025-05-03T11:27:58Z</time>
      </trkpt>
      <trkpt lat="41.076520979404449" lon="-8.090383009985089">
        <ele>334.68000000000001</ele>
        <time>2025-05-03T11:28:01Z</time>
      </trkpt>
      <trkpt lat="41.0764130204916" lon="-8.090416034683585">
        <ele>335.16000000000003</ele>
        <time>2025-05-03T11:28:02Z</time>
      </trkpt>
      <trkpt lat="41.076324004679918" lon="-8.090518964454532">
        <ele>336.12</ele>
        <time>2025-05-03T11:28:03Z</time>
      </trkpt>
      <trkpt lat="41.076245969161391" lon="-8.090653996914625">
        <ele>337.56</ele>
        <time>2025-05-03T11:28:04Z</time>
      </trkpt>
      <trkpt lat="41.076161982491612" lon="-8.090806966647506">
        <ele>338.51999999999998</ele>
        <time>2025-05-03T11:28:05Z</time>
      </trkpt>
      <trkpt lat="41.075991997495294" lon="-8.09111500158906">
        <ele>340.92000000000002</ele>
        <time>2025-05-03T11:28:07Z</time>
      </trkpt>
      <trkpt lat="41.075892001390457" lon="-8.091222960501909">
        <ele>341.88999999999999</ele>
        <time>2025-05-03T11:28:08Z</time>
      </trkpt>
      <trkpt lat="41.075786976143718" lon="-8.091318011283875">
        <ele>342.37</ele>
        <time>2025-05-03T11:28:09Z</time>
      </trkpt>
      <trkpt lat="41.075135031715035" lon="-8.091731993481517">
        <ele>347.17000000000002</ele>
        <time>2025-05-03T11:28:14Z</time>
      </trkpt>
      <trkpt lat="41.074776034802198" lon="-8.091960987076163">
        <ele>351.01999999999998</ele>
        <time>2025-05-03T11:28:18Z</time>
      </trkpt>
      <trkpt lat="41.074731023982167" lon="-8.092005997896195">
        <ele>352.45999999999998</ele>
        <time>2025-05-03T11:28:19Z</time>
      </trkpt>
      <trkpt lat="41.074704034253955" lon="-8.092032987624407">
        <ele>353.42000000000002</ele>
        <time>2025-05-03T11:28:20Z</time>
      </trkpt>
      <trkpt lat="41.074699005112052" lon="-8.092212025076151">
        <ele>358.23000000000002</ele>
        <time>2025-05-03T11:28:28Z</time>
      </trkpt>
      <trkpt lat="41.074705962091684" lon="-8.092202972620726">
        <ele>358.70999999999998</ele>
        <time>2025-05-03T11:28:29Z</time>
      </trkpt>
      <trkpt lat="41.074706967920065" lon="-8.092387039214373">
        <ele>358.70999999999998</ele>
        <time>2025-05-03T11:28:30Z</time>
      </trkpt>
      <trkpt lat="41.07475901953876" lon="-8.092465996742249">
        <ele>358.70999999999998</ele>
        <time>2025-05-03T11:28:31Z</time>
      </trkpt>
      <trkpt lat="41.074797995388508" lon="-8.092572027817369">
        <ele>359.19</ele>
        <time>2025-05-03T11:28:32Z</time>
      </trkpt>
      <trkpt lat="41.074834037572145" lon="-8.092686021700501">
        <ele>359.19</ele>
        <time>2025-05-03T11:28:33Z</time>
      </trkpt>
      <trkpt lat="41.074877036735415" lon="-8.092825999483466">
        <ele>359.19</ele>
        <time>2025-05-03T11:28:34Z</time>
      </trkpt>
      <trkpt lat="41.074892962351441" lon="-8.092924989759922">
        <ele>359.67000000000002</ele>
        <time>2025-05-03T11:28:35Z</time>
      </trkpt>
      <trkpt lat="41.074914000928402" lon="-8.093054993078113">
        <ele>360.63</ele>
        <time>2025-05-03T11:28:36Z</time>
      </trkpt>
      <trkpt lat="41.074955994263291" lon="-8.093313993886113">
        <ele>362.55000000000001</ele>
        <time>2025-05-03T11:28:38Z</time>
      </trkpt>
      <trkpt lat="41.074977032840252" lon="-8.093446008861065">
        <ele>363.51999999999998</ele>
        <time>2025-05-03T11:28:39Z</time>
      </trkpt>
      <trkpt lat="41.075022965669632" lon="-8.093578023836017">
        <ele>364.48000000000002</ele>
        <time>2025-05-03T11:28:40Z</time>
      </trkpt>
      <trkpt lat="41.075088009238243" lon="-8.093704003840685">
        <ele>364.95999999999998</ele>
        <time>2025-05-03T11:28:41Z</time>
      </trkpt>
      <trkpt lat="41.075176019221544" lon="-8.093805005773902">
        <ele>365.44</ele>
        <time>2025-05-03T11:28:42Z</time>
      </trkpt>
      <trkpt lat="41.075277021154761" lon="-8.093878012150526">
        <ele>365.92000000000002</ele>
        <time>2025-05-03T11:28:43Z</time>
      </trkpt>
      <trkpt lat="41.075386991724372" lon="-8.093922017142177">
        <ele>366.39999999999998</ele>
        <time>2025-05-03T11:28:44Z</time>
      </trkpt>
      <trkpt lat="41.075495034456253" lon="-8.093965016305447">
        <ele>366.88</ele>
        <time>2025-05-03T11:28:45Z</time>
      </trkpt>
      <trkpt lat="41.075756968930364" lon="-8.094070041552186">
        <ele>367.83999999999997</ele>
        <time>2025-05-03T11:28:48Z</time>
      </trkpt>
      <trkpt lat="41.075822012498975" lon="-8.094162996858358">
        <ele>367.83999999999997</ele>
        <time>2025-05-03T11:28:49Z</time>
      </trkpt>
      <trkpt lat="41.0758759919554" lon="-8.094240026548505">
        <ele>368.31999999999999</ele>
        <time>2025-05-03T11:28:50Z</time>
      </trkpt>
      <trkpt lat="41.075907004997134" lon="-8.094332981854677">
        <ele>368.80000000000001</ele>
        <time>2025-05-03T11:28:51Z</time>
      </trkpt>
      <trkpt lat="41.075907004997134" lon="-8.094439012929797">
        <ele>368.80000000000001</ele>
        <time>2025-05-03T11:28:52Z</time>
      </trkpt>
      <trkpt lat="41.075885966420174" lon="-8.094543032348156">
        <ele>369.27999999999997</ele>
        <time>2025-05-03T11:28:53Z</time>
      </trkpt>
      <trkpt lat="41.075841961428523" lon="-8.094629030674696">
        <ele>369.75999999999999</ele>
        <time>2025-05-03T11:28:54Z</time>
      </trkpt>
      <trkpt lat="41.075821006670594" lon="-8.094671024009585">
        <ele>370.73000000000002</ele>
        <time>2025-05-03T11:28:55Z</time>
      </trkpt>
      <trkpt lat="41.075701983645558" lon="-8.094715029001236">
        <ele>372.17000000000002</ele>
        <time>2025-05-03T11:28:56Z</time>
      </trkpt>
      <trkpt lat="41.07561799697578" lon="-8.09474696405232">
        <ele>373.13</ele>
        <time>2025-05-03T11:28:57Z</time>
      </trkpt>
      <trkpt lat="41.075530992820859" lon="-8.094779988750815">
        <ele>374.08999999999997</ele>
        <time>2025-05-03T11:28:58Z</time>
      </trkpt>
      <trkpt lat="41.0754460003227" lon="-8.094812007620931">
        <ele>374.56999999999999</ele>
        <time>2025-05-03T11:28:59Z</time>
      </trkpt>
      <trkpt lat="41.075366958975792" lon="-8.094841009005904">
        <ele>375.52999999999997</ele>
        <time>2025-05-03T11:29:00Z</time>
      </trkpt>
      <trkpt lat="41.07523201033473" lon="-8.094891970977187">
        <ele>377.44999999999999</ele>
        <time>2025-05-03T11:29:02Z</time>
      </trkpt>
      <trkpt lat="41.075110975652933" lon="-8.094967994838953">
        <ele>378.89999999999998</ele>
        <time>2025-05-03T11:29:04Z</time>
      </trkpt>
      <trkpt lat="41.075077028945088" lon="-8.095023985952139">
        <ele>379.38</ele>
        <time>2025-05-03T11:29:05Z</time>
      </trkpt>
      <trkpt lat="41.075069988146424" lon="-8.095113001763821">
        <ele>379.86000000000001</ele>
        <time>2025-05-03T11:29:06Z</time>
      </trkpt>
      <trkpt lat="41.075069988146424" lon="-8.095195982605219">
        <ele>380.81999999999999</ele>
        <time>2025-05-03T11:29:07Z</time>
      </trkpt>
      <trkpt lat="41.075069988146424" lon="-8.095292961224914">
        <ele>381.77999999999997</ele>
        <time>2025-05-03T11:29:08Z</time>
      </trkpt>
      <trkpt lat="41.075096977874637" lon="-8.095366973429918">
        <ele>382.25999999999999</ele>
        <time>2025-05-03T11:29:09Z</time>
      </trkpt>
      <trkpt lat="41.075183982029557" lon="-8.095609964802861">
        <ele>382.74000000000001</ele>
        <time>2025-05-03T11:29:12Z</time>
      </trkpt>
      <trkpt lat="41.075239973142743" lon="-8.095764024183154">
        <ele>382.25999999999999</ele>
        <time>2025-05-03T11:29:14Z</time>
      </trkpt>
      <trkpt lat="41.075267968699336" lon="-8.095833007246256">
        <ele>381.77999999999997</ele>
        <time>2025-05-03T11:29:15Z</time>
      </trkpt>
      <trkpt lat="41.075321026146412" lon="-8.095879023894668">
        <ele>381.30000000000001</ele>
        <time>2025-05-03T11:29:16Z</time>
      </trkpt>
      <trkpt lat="41.075378023087978" lon="-8.095927974209189">
        <ele>380.81999999999999</ele>
        <time>2025-05-03T11:29:17Z</time>
      </trkpt>
      <trkpt lat="41.075439965352416" lon="-8.095968961715698">
        <ele>380.81999999999999</ele>
        <time>2025-05-03T11:29:18Z</time>
      </trkpt>
      <trkpt lat="41.075631994754076" lon="-8.096045991405845">
        <ele>379.86000000000001</ele>
        <time>2025-05-03T11:29:21Z</time>
      </trkpt>
      <trkpt lat="41.075698966160417" lon="-8.096069963648915">
        <ele>379.86000000000001</ele>
        <time>2025-05-03T11:29:22Z</time>
      </trkpt>
      <trkpt lat="41.075845984742045" lon="-8.096123021095991">
        <ele>378.89999999999998</ele>
        <time>2025-05-03T11:29:24Z</time>
      </trkpt>
      <trkpt lat="41.075913961976767" lon="-8.096156967803836">
        <ele>378.42000000000002</ele>
        <time>2025-05-03T11:29:25Z</time>
      </trkpt>
      <trkpt lat="41.076441016048193" lon="-8.096445975825191">
        <ele>374.56999999999999</ele>
        <time>2025-05-03T11:29:36Z</time>
      </trkpt>
      <trkpt lat="41.076727006584406" lon="-8.096683016046882">
        <ele>372.17000000000002</ele>
        <time>2025-05-03T11:29:47Z</time>
      </trkpt>
      <trkpt lat="41.076789032667875" lon="-8.096753004938364">
        <ele>371.20999999999998</ele>
        <time>2025-05-03T11:29:51Z</time>
      </trkpt>
      <trkpt lat="41.076823985204101" lon="-8.096792986616492">
        <ele>371.20999999999998</ele>
        <time>2025-05-03T11:29:55Z</time>
      </trkpt>
      <trkpt lat="41.076792972162366" lon="-8.096816958859563">
        <ele>369.27999999999997</ele>
        <time>2025-05-03T11:30:04Z</time>
      </trkpt>
      <trkpt lat="41.076781991869211" lon="-8.096817964687944">
        <ele>369.75999999999999</ele>
        <time>2025-05-03T11:30:21Z</time>
      </trkpt>
      <trkpt lat="41.07677998021245" lon="-8.096825005486608">
        <ele>369.27999999999997</ele>
        <time>2025-05-03T11:30:35Z</time>
      </trkpt>
      <trkpt lat="41.076784003525972" lon="-8.096721991896629">
        <ele>382.74000000000001</ele>
        <time>2025-05-03T11:36:58Z</time>
      </trkpt>
      <trkpt lat="41.076799007132649" lon="-8.096751999109983">
        <ele>379.86000000000001</ele>
        <time>2025-05-03T11:37:22Z</time>
      </trkpt>
      <trkpt lat="41.076799007132649" lon="-8.096747975796461">
        <ele>379.86000000000001</ele>
        <time>2025-05-03T11:37:23Z</time>
      </trkpt>
      <trkpt lat="41.076805964112282" lon="-8.096772031858563">
        <ele>377.94</ele>
        <time>2025-05-03T11:37:25Z</time>
      </trkpt>
      <trkpt lat="41.076839994639158" lon="-8.096811007708311">
        <ele>375.52999999999997</ele>
        <time>2025-05-03T11:37:26Z</time>
      </trkpt>
      <trkpt lat="41.076924987137318" lon="-8.096906980499625">
        <ele>370.73000000000002</ele>
        <time>2025-05-03T11:37:29Z</time>
      </trkpt>
      <trkpt lat="41.077290019020438" lon="-8.097340995445848">
        <ele>359.19</ele>
        <time>2025-05-03T11:37:42Z</time>
      </trkpt>
      <trkpt lat="41.077822018414736" lon="-8.09777501039207">
        <ele>353.42000000000002</ele>
        <time>2025-05-03T11:37:57Z</time>
      </trkpt>
      <trkpt lat="41.077886978164315" lon="-8.097831001505256">
        <ele>352.94</ele>
        <time>2025-05-03T11:37:58Z</time>
      </trkpt>
      <trkpt lat="41.077955039218068" lon="-8.097898978739977">
        <ele>352.94</ele>
        <time>2025-05-03T11:37:59Z</time>
      </trkpt>
      <trkpt lat="41.078027039766312" lon="-8.09796997345984">
        <ele>352.94</ele>
        <time>2025-05-03T11:38:00Z</time>
      </trkpt>
      <trkpt lat="41.078058974817395" lon="-8.098106011748314">
        <ele>352.94</ele>
        <time>2025-05-03T11:38:01Z</time>
      </trkpt>
      <trkpt lat="41.078085964545608" lon="-8.09822897426784">
        <ele>352.94</ele>
        <time>2025-05-03T11:38:02Z</time>
      </trkpt>
      <trkpt lat="41.078084036707878" lon="-8.098353026434779">
        <ele>352.45999999999998</ele>
        <time>2025-05-03T11:38:03Z</time>
      </trkpt>
      <trkpt lat="41.078064003959298" lon="-8.098487975075841">
        <ele>351.98000000000002</ele>
        <time>2025-05-03T11:38:04Z</time>
      </trkpt>
      <trkpt lat="41.078043971210718" lon="-8.098624013364315">
        <ele>351.98000000000002</ele>
        <time>2025-05-03T11:38:05Z</time>
      </trkpt>
      <trkpt lat="41.078023016452789" lon="-8.09876399114728">
        <ele>351.5</ele>
        <time>2025-05-03T11:38:06Z</time>
      </trkpt>
      <trkpt lat="41.077983034774661" lon="-8.099031960591674">
        <ele>351.5</ele>
        <time>2025-05-03T11:38:08Z</time>
      </trkpt>
      <trkpt lat="41.077972976490855" lon="-8.099155006930232">
        <ele>351.5</ele>
        <time>2025-05-03T11:38:09Z</time>
      </trkpt>
      <trkpt lat="41.078007007017732" lon="-8.099267994984984">
        <ele>351.5</ele>
        <time>2025-05-03T11:38:10Z</time>
      </trkpt>
      <trkpt lat="41.078052017837763" lon="-8.099385006353259">
        <ele>351.5</ele>
        <time>2025-05-03T11:38:11Z</time>
      </trkpt>
      <trkpt lat="41.078114965930581" lon="-8.099501011893153">
        <ele>351.98000000000002</ele>
        <time>2025-05-03T11:38:12Z</time>
      </trkpt>
      <trkpt lat="41.078410008922219" lon="-8.100084979087114">
        <ele>351.01999999999998</ele>
        <time>2025-05-03T11:38:17Z</time>
      </trkpt>
      <trkpt lat="41.07843498699367" lon="-8.100215988233686">
        <ele>350.06</ele>
        <time>2025-05-03T11:38:18Z</time>
      </trkpt>
      <trkpt lat="41.078490978106856" lon="-8.10050399042666">
        <ele>349.10000000000002</ele>
        <time>2025-05-03T11:38:20Z</time>
      </trkpt>
      <trkpt lat="41.07851997949183" lon="-8.100652014836669">
        <ele>348.62</ele>
        <time>2025-05-03T11:38:21Z</time>
      </trkpt>
      <trkpt lat="41.078599020838737" lon="-8.100765002891421">
        <ele>348.13</ele>
        <time>2025-05-03T11:38:22Z</time>
      </trkpt>
      <trkpt lat="41.078686024993658" lon="-8.100867010653019">
        <ele>347.64999999999998</ele>
        <time>2025-05-03T11:38:23Z</time>
      </trkpt>
      <trkpt lat="41.078783003613353" lon="-8.100978992879391">
        <ele>347.17000000000002</ele>
        <time>2025-05-03T11:38:24Z</time>
      </trkpt>
      <trkpt lat="41.078861961141229" lon="-8.101043030619621">
        <ele>346.20999999999998</ele>
        <time>2025-05-03T11:38:25Z</time>
      </trkpt>
      <trkpt lat="41.079052984714508" lon="-8.101215027272701">
        <ele>344.76999999999998</ele>
        <time>2025-05-03T11:38:27Z</time>
      </trkpt>
      <trkpt lat="41.079149041324854" lon="-8.101305970922113">
        <ele>344.29000000000002</ele>
        <time>2025-05-03T11:38:28Z</time>
      </trkpt>
      <trkpt lat="41.079192962497473" lon="-8.101438991725445">
        <ele>343.32999999999998</ele>
        <time>2025-05-03T11:38:29Z</time>
      </trkpt>
      <trkpt lat="41.079233027994633" lon="-8.101574024185538">
        <ele>342.37</ele>
        <time>2025-05-03T11:38:30Z</time>
      </trkpt>
      <trkpt lat="41.079233027994633" lon="-8.101714001968503">
        <ele>341.88999999999999</ele>
        <time>2025-05-03T11:38:31Z</time>
      </trkpt>
      <trkpt lat="41.079233027994633" lon="-8.101854985579848">
        <ele>340.44</ele>
        <time>2025-05-03T11:38:32Z</time>
      </trkpt>
      <trkpt lat="41.079233027994633" lon="-8.102945974096656">
        <ele>334.68000000000001</ele>
        <time>2025-05-03T11:38:41Z</time>
      </trkpt>
      <trkpt lat="41.079277032986283" lon="-8.1037069670856">
        <ele>333.23000000000002</ele>
        <time>2025-05-03T11:38:47Z</time>
      </trkpt>
      <trkpt lat="41.07929203659296" lon="-8.1038330309093">
        <ele>332.75</ele>
        <time>2025-05-03T11:38:48Z</time>
      </trkpt>
      <trkpt lat="41.07933696359396" lon="-8.103931015357375">
        <ele>332.75</ele>
        <time>2025-05-03T11:38:49Z</time>
      </trkpt>
      <trkpt lat="41.079407036304474" lon="-8.104026988148689">
        <ele>331.79000000000002</ele>
        <time>2025-05-03T11:38:50Z</time>
      </trkpt>
      <trkpt lat="41.079510971903801" lon="-8.10407199896872">
        <ele>330.35000000000002</ele>
        <time>2025-05-03T11:38:51Z</time>
      </trkpt>
      <trkpt lat="41.079625971615314" lon="-8.104083985090256">
        <ele>328.91000000000003</ele>
        <time>2025-05-03T11:38:52Z</time>
      </trkpt>
      <trkpt lat="41.079738959670067" lon="-8.104073004797101">
        <ele>327.47000000000003</ele>
        <time>2025-05-03T11:38:53Z</time>
      </trkpt>
      <trkpt lat="41.079848008230329" lon="-8.104063030332327">
        <ele>326.01999999999998</ele>
        <time>2025-05-03T11:38:54Z</time>
      </trkpt>
      <trkpt lat="41.080142967402935" lon="-8.104034028947353">
        <ele>323.62</ele>
        <time>2025-05-03T11:38:57Z</time>
      </trkpt>
      <trkpt lat="41.080227037891746" lon="-8.104032017290592">
        <ele>323.62</ele>
        <time>2025-05-03T11:38:58Z</time>
      </trkpt>
      <trkpt lat="41.080307001248002" lon="-8.104089014232159">
        <ele>323.13999999999999</ele>
        <time>2025-05-03T11:38:59Z</time>
      </trkpt>
      <trkpt lat="41.080380007624626" lon="-8.10415799729526">
        <ele>322.66000000000003</ele>
        <time>2025-05-03T11:39:00Z</time>
      </trkpt>
      <trkpt lat="41.080425018444657" lon="-8.104272997006774">
        <ele>322.66000000000003</ele>
        <time>2025-05-03T11:39:01Z</time>
      </trkpt>
      <trkpt lat="41.08047204092145" lon="-8.104394031688571">
        <ele>322.18000000000001</ele>
        <time>2025-05-03T11:39:02Z</time>
      </trkpt>
      <trkpt lat="41.080986019223928" lon="-8.105766987428069">
        <ele>319.30000000000001</ele>
        <time>2025-05-03T11:39:13Z</time>
      </trkpt>
      <trkpt lat="41.081323977559805" lon="-8.10660501010716">
        <ele>317.37</ele>
        <time>2025-05-03T11:39:19Z</time>
      </trkpt>
      <trkpt lat="41.081405030563474" lon="-8.106702994555235">
        <ele>316.88999999999999</ele>
        <time>2025-05-03T11:39:20Z</time>
      </trkpt>
      <trkpt lat="41.081513995304704" lon="-8.106786981225014">
        <ele>316.41000000000003</ele>
        <time>2025-05-03T11:39:21Z</time>
      </trkpt>
      <trkpt lat="41.081626983359456" lon="-8.106874991208315">
        <ele>315.93000000000001</ele>
        <time>2025-05-03T11:39:22Z</time>
      </trkpt>
      <trkpt lat="41.081743994727731" lon="-8.106966018676758">
        <ele>314.97000000000003</ele>
        <time>2025-05-03T11:39:23Z</time>
      </trkpt>
      <trkpt lat="41.082151019945741" lon="-8.107138015329838">
        <ele>313.05000000000001</ele>
        <time>2025-05-03T11:39:26Z</time>
      </trkpt>
      <trkpt lat="41.082255961373448" lon="-8.107148995622993">
        <ele>312.08999999999997</ele>
        <time>2025-05-03T11:39:27Z</time>
      </trkpt>
      <trkpt lat="41.0823879763484" lon="-8.10716399922967">
        <ele>311.60000000000002</ele>
        <time>2025-05-03T11:39:28Z</time>
      </trkpt>
      <trkpt lat="41.082517979666591" lon="-8.107177997007966">
        <ele>310.63999999999999</ele>
        <time>2025-05-03T11:39:29Z</time>
      </trkpt>
      <trkpt lat="41.082633985206485" lon="-8.107241028919816">
        <ele>309.68000000000001</ele>
        <time>2025-05-03T11:39:30Z</time>
      </trkpt>
      <trkpt lat="41.082724006846547" lon="-8.107324009761214">
        <ele>309.19999999999999</ele>
        <time>2025-05-03T11:39:31Z</time>
      </trkpt>
      <trkpt lat="41.082777986302972" lon="-8.107459964230657">
        <ele>309.19999999999999</ele>
        <time>2025-05-03T11:39:32Z</time>
      </trkpt>
      <trkpt lat="41.082787038758397" lon="-8.107578987255693">
        <ele>309.19999999999999</ele>
        <time>2025-05-03T11:39:33Z</time>
      </trkpt>
      <trkpt lat="41.08277203515172" lon="-8.107718965038657">
        <ele>308.72000000000003</ele>
        <time>2025-05-03T11:39:34Z</time>
      </trkpt>
      <trkpt lat="41.082758037373424" lon="-8.107857014983892">
        <ele>308.24000000000001</ele>
        <time>2025-05-03T11:39:35Z</time>
      </trkpt>
      <trkpt lat="41.082715960219502" lon="-8.107956005260348">
        <ele>307.27999999999997</ele>
        <time>2025-05-03T11:39:36Z</time>
      </trkpt>
      <trkpt lat="41.082633985206485" lon="-8.108058013021946">
        <ele>306.80000000000001</ele>
        <time>2025-05-03T11:39:37Z</time>
      </trkpt>
      <trkpt lat="41.082548992708325" lon="-8.108163960278034">
        <ele>306.31999999999999</ele>
        <time>2025-05-03T11:39:38Z</time>
      </trkpt>
      <trkpt lat="41.082462994381785" lon="-8.108272003009915">
        <ele>305.83999999999997</ele>
        <time>2025-05-03T11:39:39Z</time>
      </trkpt>
      <trkpt lat="41.082393005490303" lon="-8.10838800854981">
        <ele>304.88</ele>
        <time>2025-05-03T11:39:40Z</time>
      </trkpt>
      <trkpt lat="41.082350006327033" lon="-8.108516000211239">
        <ele>303.91000000000003</ele>
        <time>2025-05-03T11:39:41Z</time>
      </trkpt>
      <trkpt lat="41.08230197802186" lon="-8.108661007136107">
        <ele>303.43000000000001</ele>
        <time>2025-05-03T11:39:42Z</time>
      </trkpt>
      <trkpt lat="41.082298960536718" lon="-8.108823029324412">
        <ele>302.47000000000003</ele>
        <time>2025-05-03T11:39:43Z</time>
      </trkpt>
      <trkpt lat="41.082292003557086" lon="-8.108999971300364">
        <ele>301.99000000000001</ele>
        <time>2025-05-03T11:39:44Z</time>
      </trkpt>
      <trkpt lat="41.082284962758422" lon="-8.109184959903359">
        <ele>301.50999999999999</ele>
        <time>2025-05-03T11:39:45Z</time>
      </trkpt>
      <trkpt lat="41.082265013828874" lon="-8.109349999576807">
        <ele>301.02999999999997</ele>
        <time>2025-05-03T11:39:46Z</time>
      </trkpt>
      <trkpt lat="41.08221597969532" lon="-8.109498023986816">
        <ele>300.55000000000001</ele>
        <time>2025-05-03T11:39:47Z</time>
      </trkpt>
      <trkpt lat="41.082121012732387" lon="-8.10959299094975">
        <ele>300.55000000000001</ele>
        <time>2025-05-03T11:39:48Z</time>
      </trkpt>
      <trkpt lat="41.082023028284311" lon="-8.109612017869949">
        <ele>300.06999999999999</ele>
        <time>2025-05-03T11:39:49Z</time>
      </trkpt>
      <trkpt lat="41.081916997209191" lon="-8.109619980677962">
        <ele>299.58999999999997</ele>
        <time>2025-05-03T11:39:50Z</time>
      </trkpt>
      <trkpt lat="41.081829993054271" lon="-8.109627021476626">
        <ele>298.63</ele>
        <time>2025-05-03T11:39:51Z</time>
      </trkpt>
      <trkpt lat="41.081749023869634" lon="-8.109541023150086">
        <ele>298.14999999999998</ele>
        <time>2025-05-03T11:39:52Z</time>
      </trkpt>
      <trkpt lat="41.081653973087668" lon="-8.109438009560108">
        <ele>297.67000000000002</ele>
        <time>2025-05-03T11:39:53Z</time>
      </trkpt>
      <trkpt lat="41.081556994467974" lon="-8.109333990141749">
        <ele>297.18000000000001</ele>
        <time>2025-05-03T11:39:54Z</time>
      </trkpt>
      <trkpt lat="41.081455992534757" lon="-8.109242962673307">
        <ele>296.22000000000003</ele>
        <time>2025-05-03T11:39:55Z</time>
      </trkpt>
      <trkpt lat="41.081349961459637" lon="-8.109172973781824">
        <ele>295.74000000000001</ele>
        <time>2025-05-03T11:39:56Z</time>
      </trkpt>
      <trkpt lat="41.081239990890026" lon="-8.109158976003528">
        <ele>295.25999999999999</ele>
        <time>2025-05-03T11:39:57Z</time>
      </trkpt>
      <trkpt lat="41.081129014492035" lon="-8.109204992651939">
        <ele>294.77999999999997</ele>
        <time>2025-05-03T11:39:58Z</time>
      </trkpt>
      <trkpt lat="41.081015020608902" lon="-8.109277999028564">
        <ele>294.30000000000001</ele>
        <time>2025-05-03T11:39:59Z</time>
      </trkpt>
      <trkpt lat="41.080891974270344" lon="-8.109357040375471">
        <ele>293.81999999999999</ele>
        <time>2025-05-03T11:40:00Z</time>
      </trkpt>
      <trkpt lat="41.079897964373231" lon="-8.110059024766088">
        <ele>289.97000000000003</ele>
        <time>2025-05-03T11:40:07Z</time>
      </trkpt>
      <trkpt lat="41.079796962440014" lon="-8.110225992277265">
        <ele>289.49000000000001</ele>
        <time>2025-05-03T11:40:08Z</time>
      </trkpt>
      <trkpt lat="41.079712975770235" lon="-8.110410980880261">
        <ele>289.00999999999999</ele>
        <time>2025-05-03T11:40:09Z</time>
      </trkpt>
      <trkpt lat="41.078900014981627" lon="-8.112297998741269">
        <ele>282.76999999999998</ele>
        <time>2025-05-03T11:40:19Z</time>
      </trkpt>
      <trkpt lat="41.078781997784972" lon="-8.112406963482499">
        <ele>281.80000000000001</ele>
        <time>2025-05-03T11:40:20Z</time>
      </trkpt>
      <trkpt lat="41.078661968931556" lon="-8.112519029527903">
        <ele>280.83999999999997</ele>
        <time>2025-05-03T11:40:21Z</time>
      </trkpt>
      <trkpt lat="41.078267013654113" lon="-8.112802002578974">
        <ele>279.39999999999998</ele>
        <time>2025-05-03T11:40:24Z</time>
      </trkpt>
      <trkpt lat="41.078138016164303" lon="-8.112856987863779">
        <ele>278.92000000000002</ele>
        <time>2025-05-03T11:40:25Z</time>
      </trkpt>
      <trkpt lat="41.077999966219068" lon="-8.11288196593523">
        <ele>278.44</ele>
        <time>2025-05-03T11:40:26Z</time>
      </trkpt>
      <trkpt lat="41.077865017578006" lon="-8.112907027825713">
        <ele>277.95999999999998</ele>
        <time>2025-05-03T11:40:27Z</time>
      </trkpt>
      <trkpt lat="41.07772403396666" lon="-8.112936029210687">
        <ele>277</ele>
        <time>2025-05-03T11:40:28Z</time>
      </trkpt>
      <trkpt lat="41.077608028426766" lon="-8.113020015880466">
        <ele>276.51999999999998</ele>
        <time>2025-05-03T11:40:29Z</time>
      </trkpt>
      <trkpt lat="41.077524041756988" lon="-8.113160999491811">
        <ele>275.56</ele>
        <time>2025-05-03T11:40:30Z</time>
      </trkpt>
      <trkpt lat="41.077455980703235" lon="-8.113305000588298">
        <ele>275.06999999999999</ele>
        <time>2025-05-03T11:40:31Z</time>
      </trkpt>
      <trkpt lat="41.077390015125275" lon="-8.113456964492798">
        <ele>274.58999999999997</ele>
        <time>2025-05-03T11:40:32Z</time>
      </trkpt>
      <trkpt lat="41.077236039564013" lon="-8.113720994442701">
        <ele>273.63</ele>
        <time>2025-05-03T11:40:34Z</time>
      </trkpt>
      <trkpt lat="41.077146017923951" lon="-8.113827025517821">
        <ele>273.14999999999998</ele>
        <time>2025-05-03T11:40:35Z</time>
      </trkpt>
      <trkpt lat="41.077059013769031" lon="-8.113909000530839">
        <ele>273.14999999999998</ele>
        <time>2025-05-03T11:40:36Z</time>
      </trkpt>
      <trkpt lat="41.076938984915614" lon="-8.113962979987264">
        <ele>272.67000000000002</ele>
        <time>2025-05-03T11:40:37Z</time>
      </trkpt>
      <trkpt lat="41.076810993254185" lon="-8.11401897110045">
        <ele>272.19</ele>
        <time>2025-05-03T11:40:38Z</time>
      </trkpt>
      <trkpt lat="41.076201964169741" lon="-8.114288030192256">
        <ele>269.31</ele>
        <time>2025-05-03T11:40:43Z</time>
      </trkpt>
      <trkpt lat="41.076120994985104" lon="-8.114293981343508">
        <ele>268.35000000000002</ele>
        <time>2025-05-03T11:40:44Z</time>
      </trkpt>
      <trkpt lat="41.07602896168828" lon="-8.114271014928818">
        <ele>267.86000000000001</ele>
        <time>2025-05-03T11:40:45Z</time>
      </trkpt>
      <trkpt lat="41.075958972796798" lon="-8.114220974966884">
        <ele>267.86000000000001</ele>
        <time>2025-05-03T11:40:46Z</time>
      </trkpt>
      <trkpt lat="41.075884038582444" lon="-8.114130031317473">
        <ele>266.89999999999998</ele>
        <time>2025-05-03T11:40:47Z</time>
      </trkpt>
      <trkpt lat="41.075803991407156" lon="-8.114032968878746">
        <ele>266.42000000000002</ele>
        <time>2025-05-03T11:40:48Z</time>
      </trkpt>
      <trkpt lat="41.075721010565758" lon="-8.11393297277391">
        <ele>265.45999999999998</ele>
        <time>2025-05-03T11:40:49Z</time>
      </trkpt>
      <trkpt lat="41.075637023895979" lon="-8.113829959183931">
        <ele>264.5</ele>
        <time>2025-05-03T11:40:50Z</time>
      </trkpt>
      <trkpt lat="41.075458992272615" lon="-8.113648993894458">
        <ele>262.57999999999998</ele>
        <time>2025-05-03T11:40:52Z</time>
      </trkpt>
      <trkpt lat="41.075369976460934" lon="-8.11356601305306">
        <ele>261.62</ele>
        <time>2025-05-03T11:40:53Z</time>
      </trkpt>
      <trkpt lat="41.075283978134394" lon="-8.113484038040042">
        <ele>261.13999999999999</ele>
        <time>2025-05-03T11:40:54Z</time>
      </trkpt>
      <trkpt lat="41.075205020606518" lon="-8.113401979207993">
        <ele>260.17000000000002</ele>
        <time>2025-05-03T11:40:55Z</time>
      </trkpt>
      <trkpt lat="41.075127990916371" lon="-8.113291002810001">
        <ele>259.69</ele>
        <time>2025-05-03T11:40:56Z</time>
      </trkpt>
      <trkpt lat="41.074735969305038" lon="-8.112779036164284">
        <ele>256.32999999999998</ele>
        <time>2025-05-03T11:41:01Z</time>
      </trkpt>
      <trkpt lat="41.074641002342105" lon="-8.112737964838743">
        <ele>255.37</ele>
        <time>2025-05-03T11:41:02Z</time>
      </trkpt>
      <trkpt lat="41.07454402372241" lon="-8.112737964838743">
        <ele>254.88999999999999</ele>
        <time>2025-05-03T11:41:03Z</time>
      </trkpt>
      <trkpt lat="41.074446039274335" lon="-8.112737964838743">
        <ele>254.41</ele>
        <time>2025-05-03T11:41:04Z</time>
      </trkpt>
      <trkpt lat="41.074341014027596" lon="-8.112737964838743">
        <ele>253.93000000000001</ele>
        <time>2025-05-03T11:41:05Z</time>
      </trkpt>
      <trkpt lat="41.074240012094378" lon="-8.112745005637407">
        <ele>252.96000000000001</ele>
        <time>2025-05-03T11:41:06Z</time>
      </trkpt>
      <trkpt lat="41.074147978797555" lon="-8.112786998972297">
        <ele>252.47999999999999</ele>
        <time>2025-05-03T11:41:07Z</time>
      </trkpt>
      <trkpt lat="41.07407002709806" lon="-8.112822035327554">
        <ele>251.52000000000001</ele>
        <time>2025-05-03T11:41:08Z</time>
      </trkpt>
      <trkpt lat="41.074018981307745" lon="-8.112846007570624">
        <ele>251.03999999999999</ele>
        <time>2025-05-03T11:41:09Z</time>
      </trkpt>
      <trkpt lat="41.073980005457997" lon="-8.112915996462107">
        <ele>250.08000000000001</ele>
        <time>2025-05-03T11:41:10Z</time>
      </trkpt>
      <trkpt lat="41.073947986587882" lon="-8.112975005060434">
        <ele>249.12</ele>
        <time>2025-05-03T11:41:11Z</time>
      </trkpt>
      <trkpt lat="41.073923008516431" lon="-8.113021021708846">
        <ele>248.63999999999999</ele>
        <time>2025-05-03T11:41:12Z</time>
      </trkpt>
      <trkpt lat="41.073902975767851" lon="-8.113057985901833">
        <ele>248.16</ele>
        <time>2025-05-03T11:41:13Z</time>
      </trkpt>
      <trkpt lat="41.073890989646316" lon="-8.113080030307174">
        <ele>247.19999999999999</ele>
        <time>2025-05-03T11:41:14Z</time>
      </trkpt>
      <trkpt lat="41.073890989646316" lon="-8.113080030307174">
        <ele>245.27000000000001</ele>
        <time>2025-05-03T11:41:24Z</time>
      </trkpt>
      <trkpt lat="41.073889983817935" lon="-8.113081958144903">
        <ele>243.83000000000001</ele>
        <time>2025-05-03T11:41:33Z</time>
      </trkpt>
      <trkpt lat="41.073889983817935" lon="-8.113081958144903">
        <ele>242.87</ele>
        <time>2025-05-03T11:41:35Z</time>
      </trkpt>
      <trkpt lat="41.073770960792899" lon="-8.113126968964934">
        <ele>264.01999999999998</ele>
        <time>2025-05-03T11:48:04Z</time>
      </trkpt>
      <trkpt lat="41.073839021846652" lon="-8.113236017525196">
        <ele>270.26999999999998</ele>
        <time>2025-05-03T11:48:50Z</time>
      </trkpt>
      <trkpt lat="41.073780013248324" lon="-8.113217996433377">
        <ele>263.54000000000002</ele>
        <time>2025-05-03T11:49:46Z</time>
      </trkpt>
      <trkpt lat="41.073784036561847" lon="-8.1132220197469">
        <ele>263.06</ele>
        <time>2025-05-03T11:50:18Z</time>
      </trkpt>
      <trkpt lat="41.073902975767851" lon="-8.113195030018687">
        <ele>262.57999999999998</ele>
        <time>2025-05-03T11:51:09Z</time>
      </trkpt>
      <trkpt lat="41.074031973257661" lon="-8.113581016659737">
        <ele>259.69</ele>
        <time>2025-05-03T11:51:14Z</time>
      </trkpt>
      <trkpt lat="41.074192989617586" lon="-8.114007990807295">
        <ele>259.20999999999998</ele>
        <time>2025-05-03T11:51:17Z</time>
      </trkpt>
      <trkpt lat="41.074207993224263" lon="-8.114174036309123">
        <ele>258.73000000000002</ele>
        <time>2025-05-03T11:51:18Z</time>
      </trkpt>
      <trkpt lat="41.07422299683094" lon="-8.114338992163539">
        <ele>258.73000000000002</ele>
        <time>2025-05-03T11:51:19Z</time>
      </trkpt>
      <trkpt lat="41.074241017922759" lon="-8.114476958289743">
        <ele>258.25</ele>
        <time>2025-05-03T11:51:20Z</time>
      </trkpt>
      <trkpt lat="41.07428502291441" lon="-8.114608973264694">
        <ele>257.76999999999998</ele>
        <time>2025-05-03T11:51:21Z</time>
      </trkpt>
      <trkpt lat="41.074332967400551" lon="-8.114752974361181">
        <ele>257.29000000000002</ele>
        <time>2025-05-03T11:51:22Z</time>
      </trkpt>
      <trkpt lat="41.074378984048963" lon="-8.114892030134797">
        <ele>256.81</ele>
        <time>2025-05-03T11:51:23Z</time>
      </trkpt>
      <trkpt lat="41.07437202706933" lon="-8.115051034837961">
        <ele>256.32999999999998</ele>
        <time>2025-05-03T11:51:24Z</time>
      </trkpt>
      <trkpt lat="41.074357023462653" lon="-8.115230994299054">
        <ele>255.84999999999999</ele>
        <time>2025-05-03T11:51:25Z</time>
      </trkpt>
      <trkpt lat="41.074342019855976" lon="-8.115419000387192">
        <ele>255.37</ele>
        <time>2025-05-03T11:51:26Z</time>
      </trkpt>
      <trkpt lat="41.074327016249299" lon="-8.115603988990188">
        <ele>254.88999999999999</ele>
        <time>2025-05-03T11:51:27Z</time>
      </trkpt>
      <trkpt lat="41.074331039562821" lon="-8.115777997300029">
        <ele>254.88999999999999</ele>
        <time>2025-05-03T11:51:28Z</time>
      </trkpt>
      <trkpt lat="41.074354005977511" lon="-8.115928033366799">
        <ele>254.88999999999999</ele>
        <time>2025-05-03T11:51:29Z</time>
      </trkpt>
      <trkpt lat="41.074384013190866" lon="-8.116129031404853">
        <ele>255.37</ele>
        <time>2025-05-03T11:51:30Z</time>
      </trkpt>
      <trkpt lat="41.074432041496038" lon="-8.116237996146083">
        <ele>255.84999999999999</ele>
        <time>2025-05-03T11:51:31Z</time>
      </trkpt>
      <trkpt lat="41.074499012902379" lon="-8.116391971707344">
        <ele>256.81</ele>
        <time>2025-05-03T11:51:32Z</time>
      </trkpt>
      <trkpt lat="41.074582999572158" lon="-8.116548964753747">
        <ele>257.29000000000002</ele>
        <time>2025-05-03T11:51:33Z</time>
      </trkpt>
      <trkpt lat="41.074680984020233" lon="-8.11670302413404">
        <ele>258.25</ele>
        <time>2025-05-03T11:51:34Z</time>
      </trkpt>
      <trkpt lat="41.074814004823565" lon="-8.116820035502315">
        <ele>258.73000000000002</ele>
        <time>2025-05-03T11:51:35Z</time>
      </trkpt>
      <trkpt lat="41.074944008141756" lon="-8.116932017728686">
        <ele>259.69</ele>
        <time>2025-05-03T11:51:36Z</time>
      </trkpt>
      <trkpt lat="41.075063031166792" lon="-8.117035031318665">
        <ele>260.64999999999998</ele>
        <time>2025-05-03T11:51:37Z</time>
      </trkpt>
      <trkpt lat="41.075166966766119" lon="-8.11713402159512">
        <ele>261.62</ele>
        <time>2025-05-03T11:51:38Z</time>
      </trkpt>
      <trkpt lat="41.075245002284646" lon="-8.117264024913311">
        <ele>262.57999999999998</ele>
        <time>2025-05-03T11:51:39Z</time>
      </trkpt>
      <trkpt lat="41.075293030589819" lon="-8.117410037666559">
        <ele>263.06</ele>
        <time>2025-05-03T11:51:40Z</time>
      </trkpt>
      <trkpt lat="41.075303005054593" lon="-8.11758597381413">
        <ele>264.01999999999998</ele>
        <time>2025-05-03T11:51:41Z</time>
      </trkpt>
      <trkpt lat="41.075288001447916" lon="-8.117783032357693">
        <ele>264.98000000000002</ele>
        <time>2025-05-03T11:51:42Z</time>
      </trkpt>
      <trkpt lat="41.075270986184478" lon="-8.117996016517282">
        <ele>265.45999999999998</ele>
        <time>2025-05-03T11:51:43Z</time>
      </trkpt>
      <trkpt lat="41.075252965092659" lon="-8.118216963484883">
        <ele>266.42000000000002</ele>
        <time>2025-05-03T11:51:44Z</time>
      </trkpt>
      <trkpt lat="41.075249025598168" lon="-8.118441011756659">
        <ele>267.38</ele>
        <time>2025-05-03T11:51:45Z</time>
      </trkpt>
      <trkpt lat="41.075280038639903" lon="-8.118664976209402">
        <ele>267.86000000000001</ele>
        <time>2025-05-03T11:51:46Z</time>
      </trkpt>
      <trkpt lat="41.075351033359766" lon="-8.118872009217739">
        <ele>267.86000000000001</ele>
        <time>2025-05-03T11:51:47Z</time>
      </trkpt>
      <trkpt lat="41.075421022251248" lon="-8.119075018912554">
        <ele>268.35000000000002</ele>
        <time>2025-05-03T11:51:48Z</time>
      </trkpt>
      <trkpt lat="41.075478019192815" lon="-8.11923997476697">
        <ele>268.82999999999998</ele>
        <time>2025-05-03T11:51:49Z</time>
      </trkpt>
      <trkpt lat="41.075459998100996" lon="-8.119450025260449">
        <ele>269.31</ele>
        <time>2025-05-03T11:51:50Z</time>
      </trkpt>
      <trkpt lat="41.075442982837558" lon="-8.11964800581336">
        <ele>269.31</ele>
        <time>2025-05-03T11:51:51Z</time>
      </trkpt>
      <trkpt lat="41.075435020029545" lon="-8.120080009102821">
        <ele>270.26999999999998</ele>
        <time>2025-05-03T11:51:53Z</time>
      </trkpt>
      <trkpt lat="41.075435020029545" lon="-8.120285030454397">
        <ele>270.26999999999998</ele>
        <time>2025-05-03T11:51:54Z</time>
      </trkpt>
      <trkpt lat="41.075497968122363" lon="-8.120455015450716">
        <ele>270.75</ele>
        <time>2025-05-03T11:51:55Z</time>
      </trkpt>
      <trkpt lat="41.075568962842226" lon="-8.120637992396951">
        <ele>271.23000000000002</ele>
        <time>2025-05-03T11:51:56Z</time>
      </trkpt>
      <trkpt lat="41.075640041381121" lon="-8.120822980999947">
        <ele>271.70999999999998</ele>
        <time>2025-05-03T11:51:57Z</time>
      </trkpt>
      <trkpt lat="41.075691003352404" lon="-8.121016016229987">
        <ele>272.19</ele>
        <time>2025-05-03T11:51:58Z</time>
      </trkpt>
      <trkpt lat="41.075736014172435" lon="-8.121211985126138">
        <ele>272.67000000000002</ele>
        <time>2025-05-03T11:51:59Z</time>
      </trkpt>
      <trkpt lat="41.075743976980448" lon="-8.121418012306094">
        <ele>273.14999999999998</ele>
        <time>2025-05-03T11:52:00Z</time>
      </trkpt>
      <trkpt lat="41.075752023607492" lon="-8.121621022000909">
        <ele>273.63</ele>
        <time>2025-05-03T11:52:01Z</time>
      </trkpt>
      <trkpt lat="41.075777001678944" lon="-8.121801987290382">
        <ele>274.11000000000001</ele>
        <time>2025-05-03T11:52:02Z</time>
      </trkpt>
      <trkpt lat="41.07583299279213" lon="-8.121949005872011">
        <ele>274.58999999999997</ele>
        <time>2025-05-03T11:52:03Z</time>
      </trkpt>
      <trkpt lat="41.075895018875599" lon="-8.122054031118751">
        <ele>275.06999999999999</ele>
        <time>2025-05-03T11:52:04Z</time>
      </trkpt>
      <trkpt lat="41.075987974181771" lon="-8.122127959504724">
        <ele>275.56</ele>
        <time>2025-05-03T11:52:05Z</time>
      </trkpt>
      <trkpt lat="41.076085036620498" lon="-8.122201971709728">
        <ele>276.04000000000002</ele>
        <time>2025-05-03T11:52:06Z</time>
      </trkpt>
      <trkpt lat="41.076221996918321" lon="-8.122223010286689">
        <ele>276.51999999999998</ele>
        <time>2025-05-03T11:52:07Z</time>
      </trkpt>
      <trkpt lat="41.076374966651201" lon="-8.122246982529759">
        <ele>276.51999999999998</ele>
        <time>2025-05-03T11:52:08Z</time>
      </trkpt>
      <trkpt lat="41.076540006324649" lon="-8.122272966429591">
        <ele>277</ele>
        <time>2025-05-03T11:52:09Z</time>
      </trkpt>
      <trkpt lat="41.076710997149348" lon="-8.122300039976835">
        <ele>277</ele>
        <time>2025-05-03T11:52:10Z</time>
      </trkpt>
      <trkpt lat="41.076878970488906" lon="-8.122349996119738">
        <ele>277</ele>
        <time>2025-05-03T11:52:11Z</time>
      </trkpt>
      <trkpt lat="41.077046021819115" lon="-8.122428031638265">
        <ele>276.51999999999998</ele>
        <time>2025-05-03T11:52:12Z</time>
      </trkpt>
      <trkpt lat="41.077511971816421" lon="-8.122785016894341">
        <ele>276.51999999999998</ele>
        <time>2025-05-03T11:52:15Z</time>
      </trkpt>
      <trkpt lat="41.077656978741288" lon="-8.122904039919376">
        <ele>276.51999999999998</ele>
        <time>2025-05-03T11:52:16Z</time>
      </trkpt>
      <trkpt lat="41.077783964574337" lon="-8.123080981895328">
        <ele>276.04000000000002</ele>
        <time>2025-05-03T11:52:17Z</time>
      </trkpt>
      <trkpt lat="41.078029973432422" lon="-8.123422963544726">
        <ele>276.04000000000002</ele>
        <time>2025-05-03T11:52:19Z</time>
      </trkpt>
      <trkpt lat="41.078142039477825" lon="-8.123584985733032">
        <ele>275.56</ele>
        <time>2025-05-03T11:52:20Z</time>
      </trkpt>
      <trkpt lat="41.078208005055785" lon="-8.123787995427847">
        <ele>275.56</ele>
        <time>2025-05-03T11:52:21Z</time>
      </trkpt>
      <trkpt lat="41.078274976462126" lon="-8.123991005122662">
        <ele>275.56</ele>
        <time>2025-05-03T11:52:22Z</time>
      </trkpt>
      <trkpt lat="41.078340020030737" lon="-8.124190997332335">
        <ele>275.06999999999999</ele>
        <time>2025-05-03T11:52:23Z</time>
      </trkpt>
      <trkpt lat="41.078554010018706" lon="-8.124944027513266">
        <ele>273.14999999999998</ele>
        <time>2025-05-03T11:52:27Z</time>
      </trkpt>
      <trkpt lat="41.078588040545583" lon="-8.125092973932624">
        <ele>273.14999999999998</ele>
        <time>2025-05-03T11:52:28Z</time>
      </trkpt>
      <trkpt lat="41.078547975048423" lon="-8.125215014442802">
        <ele>273.14999999999998</ele>
        <time>2025-05-03T11:52:29Z</time>
      </trkpt>
      <trkpt lat="41.078500030562282" lon="-8.125351974740624">
        <ele>272.67000000000002</ele>
        <time>2025-05-03T11:52:30Z</time>
      </trkpt>
      <trkpt lat="41.078441021963954" lon="-8.125503016635776">
        <ele>272.67000000000002</ele>
        <time>2025-05-03T11:52:31Z</time>
      </trkpt>
      <trkpt lat="41.078124018386006" lon="-8.12613501213491">
        <ele>271.23000000000002</ele>
        <time>2025-05-03T11:52:35Z</time>
      </trkpt>
      <trkpt lat="41.078036008402705" lon="-8.1262650154531">
        <ele>271.23000000000002</ele>
        <time>2025-05-03T11:52:36Z</time>
      </trkpt>
      <trkpt lat="41.077908016741276" lon="-8.126365011557937">
        <ele>270.75</ele>
        <time>2025-05-03T11:52:37Z</time>
      </trkpt>
      <trkpt lat="41.077776001766324" lon="-8.126468025147915">
        <ele>270.75</ele>
        <time>2025-05-03T11:52:38Z</time>
      </trkpt>
      <trkpt lat="41.07763702981174" lon="-8.126576989889145">
        <ele>271.23000000000002</ele>
        <time>2025-05-03T11:52:39Z</time>
      </trkpt>
      <trkpt lat="41.077489005401731" lon="-8.126691989600658">
        <ele>271.70999999999998</ele>
        <time>2025-05-03T11:52:40Z</time>
      </trkpt>
      <trkpt lat="41.077346010133624" lon="-8.12680103816092">
        <ele>271.70999999999998</ele>
        <time>2025-05-03T11:52:41Z</time>
      </trkpt>
      <trkpt lat="41.077084997668862" lon="-8.126985020935535">
        <ele>272.19</ele>
        <time>2025-05-03T11:52:43Z</time>
      </trkpt>
      <trkpt lat="41.076954994350672" lon="-8.127036988735199">
        <ele>272.19</ele>
        <time>2025-05-03T11:52:44Z</time>
      </trkpt>
      <trkpt lat="41.07680001296103" lon="-8.127057021483779">
        <ele>272.19</ele>
        <time>2025-05-03T11:52:45Z</time>
      </trkpt>
      <trkpt lat="41.076335990801454" lon="-8.127115024253726">
        <ele>272.67000000000002</ele>
        <time>2025-05-03T11:52:48Z</time>
      </trkpt>
      <trkpt lat="41.076189978048205" lon="-8.12718803063035">
        <ele>272.19</ele>
        <time>2025-05-03T11:52:49Z</time>
      </trkpt>
      <trkpt lat="41.076061986386776" lon="-8.127264976501465">
        <ele>270.75</ele>
        <time>2025-05-03T11:52:50Z</time>
      </trkpt>
      <trkpt lat="41.075964001938701" lon="-8.127383999526501">
        <ele>269.79000000000002</ele>
        <time>2025-05-03T11:52:51Z</time>
      </trkpt>
      <trkpt lat="41.075860988348722" lon="-8.127508973702788">
        <ele>268.82999999999998</ele>
        <time>2025-05-03T11:52:52Z</time>
      </trkpt>
      <trkpt lat="41.075753029435873" lon="-8.127649035304785">
        <ele>268.35000000000002</ele>
        <time>2025-05-03T11:52:53Z</time>
      </trkpt>
      <trkpt lat="41.075652027502656" lon="-8.127816002815962">
        <ele>267.38</ele>
        <time>2025-05-03T11:52:54Z</time>
      </trkpt>
      <trkpt lat="41.075545996427536" lon="-8.127989005297422">
        <ele>266.89999999999998</ele>
        <time>2025-05-03T11:52:55Z</time>
      </trkpt>
      <trkpt lat="41.074972003698349" lon="-8.128810012713075">
        <ele>265.94</ele>
        <time>2025-05-03T11:53:00Z</time>
      </trkpt>
      <trkpt lat="41.074863038957119" lon="-8.128939010202885">
        <ele>266.42000000000002</ele>
        <time>2025-05-03T11:53:01Z</time>
      </trkpt>
      <trkpt lat="41.07450102455914" lon="-8.129184013232589">
        <ele>268.82999999999998</ele>
        <time>2025-05-03T11:53:04Z</time>
      </trkpt>
      <trkpt lat="41.074361968785524" lon="-8.129260959103704">
        <ele>270.26999999999998</ele>
        <time>2025-05-03T11:53:05Z</time>
      </trkpt>
      <trkpt lat="41.074130963534117" lon="-8.129386017099023">
        <ele>271.70999999999998</ele>
        <time>2025-05-03T11:53:07Z</time>
      </trkpt>
      <trkpt lat="41.07402702793479" lon="-8.129473021253943">
        <ele>272.19</ele>
        <time>2025-05-03T11:53:08Z</time>
      </trkpt>
      <trkpt lat="41.073938012123108" lon="-8.129577040672302">
        <ele>272.67000000000002</ele>
        <time>2025-05-03T11:53:09Z</time>
      </trkpt>
      <trkpt lat="41.073651015758514" lon="-8.129868982359767">
        <ele>272.67000000000002</ele>
        <time>2025-05-03T11:53:12Z</time>
      </trkpt>
      <trkpt lat="41.073548002168536" lon="-8.12996000982821">
        <ele>272.67000000000002</ele>
        <time>2025-05-03T11:53:13Z</time>
      </trkpt>
      <trkpt lat="41.073016002774239" lon="-8.130343984812498">
        <ele>272.67000000000002</ele>
        <time>2025-05-03T11:53:18Z</time>
      </trkpt>
      <trkpt lat="41.072935033589602" lon="-8.130415985360742">
        <ele>273.14999999999998</ele>
        <time>2025-05-03T11:53:19Z</time>
      </trkpt>
      <trkpt lat="41.072856998071074" lon="-8.130511958152056">
        <ele>273.14999999999998</ele>
        <time>2025-05-03T11:53:20Z</time>
      </trkpt>
      <trkpt lat="41.072775023058057" lon="-8.130613965913653">
        <ele>273.63</ele>
        <time>2025-05-03T11:53:21Z</time>
      </trkpt>
      <trkpt lat="41.072688018903136" lon="-8.130722008645535">
        <ele>273.63</ele>
        <time>2025-05-03T11:53:22Z</time>
      </trkpt>
      <trkpt lat="41.072601014748216" lon="-8.130828039720655">
        <ele>273.63</ele>
        <time>2025-05-03T11:53:23Z</time>
      </trkpt>
      <trkpt lat="41.072493977844715" lon="-8.130889981985092">
        <ele>273.63</ele>
        <time>2025-05-03T11:53:24Z</time>
      </trkpt>
      <trkpt lat="41.072381995618343" lon="-8.130956031382084">
        <ele>273.63</ele>
        <time>2025-05-03T11:53:25Z</time>
      </trkpt>
      <trkpt lat="41.071739019826055" lon="-8.131432961672545">
        <ele>274.58999999999997</ele>
        <time>2025-05-03T11:53:32Z</time>
      </trkpt>
      <trkpt lat="41.071529975160956" lon="-8.13168098218739">
        <ele>275.06999999999999</ele>
        <time>2025-05-03T11:53:34Z</time>
      </trkpt>
      <trkpt lat="41.071417992934585" lon="-8.131803022697568">
        <ele>275.56</ele>
        <time>2025-05-03T11:53:35Z</time>
      </trkpt>
      <trkpt lat="41.071307016536593" lon="-8.131921039894223">
        <ele>276.04000000000002</ele>
        <time>2025-05-03T11:53:36Z</time>
      </trkpt>
      <trkpt lat="41.071186987683177" lon="-8.132050037384033">
        <ele>276.51999999999998</ele>
        <time>2025-05-03T11:53:37Z</time>
      </trkpt>
      <trkpt lat="41.071093026548624" lon="-8.132135029882193">
        <ele>277</ele>
        <time>2025-05-03T11:53:38Z</time>
      </trkpt>
      <trkpt lat="41.070912983268499" lon="-8.132330998778343">
        <ele>277.48000000000002</ele>
        <time>2025-05-03T11:53:40Z</time>
      </trkpt>
      <trkpt lat="41.070860009640455" lon="-8.13245203346014">
        <ele>277.95999999999998</ele>
        <time>2025-05-03T11:53:41Z</time>
      </trkpt>
      <trkpt lat="41.070837965235114" lon="-8.132606009021401">
        <ele>278.44</ele>
        <time>2025-05-03T11:53:42Z</time>
      </trkpt>
      <trkpt lat="41.070609977468848" lon="-8.133965972810984">
        <ele>279.88</ele>
        <time>2025-05-03T11:53:49Z</time>
      </trkpt>
      <trkpt lat="41.070518027991056" lon="-8.13432002440095">
        <ele>279.39999999999998</ele>
        <time>2025-05-03T11:53:51Z</time>
      </trkpt>
      <trkpt lat="41.070448961108923" lon="-8.134452039375901">
        <ele>279.39999999999998</ele>
        <time>2025-05-03T11:53:52Z</time>
      </trkpt>
      <trkpt lat="41.070363968610764" lon="-8.13455899246037">
        <ele>278.92000000000002</ele>
        <time>2025-05-03T11:53:53Z</time>
      </trkpt>
      <trkpt lat="41.070266989991069" lon="-8.134613977745175">
        <ele>279.39999999999998</ele>
        <time>2025-05-03T11:53:54Z</time>
      </trkpt>
      <trkpt lat="41.070143021643162" lon="-8.134636022150517">
        <ele>279.39999999999998</ele>
        <time>2025-05-03T11:53:55Z</time>
      </trkpt>
      <trkpt lat="41.07001100666821" lon="-8.134658988565207">
        <ele>279.39999999999998</ele>
        <time>2025-05-03T11:53:56Z</time>
      </trkpt>
      <trkpt lat="41.069875974208117" lon="-8.134682038798928">
        <ele>279.39999999999998</ele>
        <time>2025-05-03T11:53:57Z</time>
      </trkpt>
      <trkpt lat="41.069743959233165" lon="-8.134681032970548">
        <ele>279.39999999999998</ele>
        <time>2025-05-03T11:53:58Z</time>
      </trkpt>
      <trkpt lat="41.069614039734006" lon="-8.134668963029981">
        <ele>278.92000000000002</ele>
        <time>2025-05-03T11:53:59Z</time>
      </trkpt>
      <trkpt lat="41.069491999223828" lon="-8.134657982736826">
        <ele>278.92000000000002</ele>
        <time>2025-05-03T11:54:00Z</time>
      </trkpt>
      <trkpt lat="41.069375993683934" lon="-8.134648008272052">
        <ele>278.44</ele>
        <time>2025-05-03T11:54:01Z</time>
      </trkpt>
      <trkpt lat="41.069264011457562" lon="-8.134723026305437">
        <ele>278.44</ele>
        <time>2025-05-03T11:54:02Z</time>
      </trkpt>
      <trkpt lat="41.069160997867584" lon="-8.134807012975216">
        <ele>277.95999999999998</ele>
        <time>2025-05-03T11:54:03Z</time>
      </trkpt>
      <trkpt lat="41.06906502507627" lon="-8.13492301851511">
        <ele>277.95999999999998</ele>
        <time>2025-05-03T11:54:04Z</time>
      </trkpt>
      <trkpt lat="41.068954970687628" lon="-8.135054027661681">
        <ele>277.95999999999998</ele>
        <time>2025-05-03T11:54:05Z</time>
      </trkpt>
      <trkpt lat="41.068646013736725" lon="-8.135457029566169">
        <ele>276.51999999999998</ele>
        <time>2025-05-03T11:54:08Z</time>
      </trkpt>
      <trkpt lat="41.068566972389817" lon="-8.135625002905726">
        <ele>276.51999999999998</ele>
        <time>2025-05-03T11:54:09Z</time>
      </trkpt>
      <trkpt lat="41.068500000983477" lon="-8.135802028700709">
        <ele>276.51999999999998</ele>
        <time>2025-05-03T11:54:10Z</time>
      </trkpt>
      <trkpt lat="41.068435041233897" lon="-8.13597503118217">
        <ele>276.04000000000002</ele>
        <time>2025-05-03T11:54:11Z</time>
      </trkpt>
      <trkpt lat="41.068393969908357" lon="-8.136152978986502">
        <ele>276.04000000000002</ele>
        <time>2025-05-03T11:54:12Z</time>
      </trkpt>
      <trkpt lat="41.068360023200512" lon="-8.136334028095007">
        <ele>275.56</ele>
        <time>2025-05-03T11:54:13Z</time>
      </trkpt>
      <trkpt lat="41.068372009322047" lon="-8.136523962020874">
        <ele>275.56</ele>
        <time>2025-05-03T11:54:14Z</time>
      </trkpt>
      <trkpt lat="41.068392964079976" lon="-8.136712973937392">
        <ele>275.06999999999999</ele>
        <time>2025-05-03T11:54:15Z</time>
      </trkpt>
      <trkpt lat="41.068414002656937" lon="-8.136905003339052">
        <ele>275.06999999999999</ele>
        <time>2025-05-03T11:54:16Z</time>
      </trkpt>
      <trkpt lat="41.068435963243246" lon="-8.137099966406822">
        <ele>274.58999999999997</ele>
        <time>2025-05-03T11:54:17Z</time>
      </trkpt>
      <trkpt lat="41.068458007648587" lon="-8.137294007465243">
        <ele>275.06999999999999</ele>
        <time>2025-05-03T11:54:18Z</time>
      </trkpt>
      <trkpt lat="41.068454990163445" lon="-8.137493999674916">
        <ele>275.06999999999999</ele>
        <time>2025-05-03T11:54:19Z</time>
      </trkpt>
      <trkpt lat="41.06844199821353" lon="-8.137843022122979">
        <ele>275.06999999999999</ele>
        <time>2025-05-03T11:54:21Z</time>
      </trkpt>
      <trkpt lat="41.068415008485317" lon="-8.137999009341002">
        <ele>275.06999999999999</ele>
        <time>2025-05-03T11:54:22Z</time>
      </trkpt>
      <trkpt lat="41.06837603263557" lon="-8.138144016265869">
        <ele>274.58999999999997</ele>
        <time>2025-05-03T11:54:23Z</time>
      </trkpt>
      <trkpt lat="41.068305037915707" lon="-8.138257004320622">
        <ele>274.11000000000001</ele>
        <time>2025-05-03T11:54:24Z</time>
      </trkpt>
      <trkpt lat="41.068232031539083" lon="-8.138374015688896">
        <ele>274.11000000000001</ele>
        <time>2025-05-03T11:54:25Z</time>
      </trkpt>
      <trkpt lat="41.068156007677317" lon="-8.138495972380042">
        <ele>273.63</ele>
        <time>2025-05-03T11:54:26Z</time>
      </trkpt>
      <trkpt lat="41.068075960502028" lon="-8.138622958213091">
        <ele>273.63</ele>
        <time>2025-05-03T11:54:27Z</time>
      </trkpt>
      <trkpt lat="41.067596012726426" lon="-8.139376994222403">
        <ele>271.23000000000002</ele>
        <time>2025-05-03T11:54:33Z</time>
      </trkpt>
      <trkpt lat="41.067500961944461" lon="-8.139479001984">
        <ele>270.26999999999998</ele>
        <time>2025-05-03T11:54:34Z</time>
      </trkpt>
      <trkpt lat="41.067409012466669" lon="-8.139577992260456">
        <ele>269.31</ele>
        <time>2025-05-03T11:54:35Z</time>
      </trkpt>
      <trkpt lat="41.066526984795928" lon="-8.140112003311515">
        <ele>263.54000000000002</ele>
        <time>2025-05-03T11:54:43Z</time>
      </trkpt>
      <trkpt lat="41.066404022276402" lon="-8.140133963897824">
        <ele>263.06</ele>
        <time>2025-05-03T11:54:44Z</time>
      </trkpt>
      <trkpt lat="41.066162036731839" lon="-8.140196995809674">
        <ele>261.62</ele>
        <time>2025-05-03T11:54:46Z</time>
      </trkpt>
      <trkpt lat="41.066039996221662" lon="-8.140245024114847">
        <ele>261.13999999999999</ele>
        <time>2025-05-03T11:54:47Z</time>
      </trkpt>
      <trkpt lat="41.065917033702135" lon="-8.140304032713175">
        <ele>260.64999999999998</ele>
        <time>2025-05-03T11:54:48Z</time>
      </trkpt>
      <trkpt lat="41.065817037597299" lon="-8.140412997454405">
        <ele>260.17000000000002</ele>
        <time>2025-05-03T11:54:49Z</time>
      </trkpt>
      <trkpt lat="41.065715029835701" lon="-8.140525985509157">
        <ele>259.20999999999998</ele>
        <time>2025-05-03T11:54:50Z</time>
      </trkpt>
      <trkpt lat="41.0656079929322" lon="-8.140676021575928">
        <ele>258.73000000000002</ele>
        <time>2025-05-03T11:54:51Z</time>
      </trkpt>
      <trkpt lat="41.065063001587987" lon="-8.141457969322801">
        <ele>256.32999999999998</ele>
        <time>2025-05-03T11:54:57Z</time>
      </trkpt>
      <trkpt lat="41.064968034625053" lon="-8.141572969034314">
        <ele>255.84999999999999</ele>
        <time>2025-05-03T11:54:58Z</time>
      </trkpt>
      <trkpt lat="41.064844988286495" lon="-8.141643041744828">
        <ele>255.84999999999999</ele>
        <time>2025-05-03T11:54:59Z</time>
      </trkpt>
      <trkpt lat="41.06416798196733" lon="-8.142068004235625">
        <ele>255.37</ele>
        <time>2025-05-03T11:55:04Z</time>
      </trkpt>
      <trkpt lat="41.064039990305901" lon="-8.142190966755152">
        <ele>254.88999999999999</ele>
        <time>2025-05-03T11:55:05Z</time>
      </trkpt>
      <trkpt lat="41.063910992816091" lon="-8.14231401309371">
        <ele>254.88999999999999</ele>
        <time>2025-05-03T11:55:06Z</time>
      </trkpt>
      <trkpt lat="41.063574962317944" lon="-8.142783986404538">
        <ele>254.88999999999999</ele>
        <time>2025-05-03T11:55:09Z</time>
      </trkpt>
      <trkpt lat="41.063475972041488" lon="-8.14295900054276">
        <ele>254.88999999999999</ele>
        <time>2025-05-03T11:55:10Z</time>
      </trkpt>
      <trkpt lat="41.063387040048838" lon="-8.143147006630898">
        <ele>254.88999999999999</ele>
        <time>2025-05-03T11:55:11Z</time>
      </trkpt>
      <trkpt lat="41.063315961509943" lon="-8.143349010497332">
        <ele>254.88999999999999</ele>
        <time>2025-05-03T11:55:12Z</time>
      </trkpt>
      <trkpt lat="41.06324496679008" lon="-8.143550008535385">
        <ele>254.41</ele>
        <time>2025-05-03T11:55:13Z</time>
      </trkpt>
      <trkpt lat="41.062946990132332" lon="-8.144495990127325">
        <ele>253.44</ele>
        <time>2025-05-03T11:55:18Z</time>
      </trkpt>
      <trkpt lat="41.062927963212132" lon="-8.144681984558702">
        <ele>252.96000000000001</ele>
        <time>2025-05-03T11:55:19Z</time>
      </trkpt>
      <trkpt lat="41.062955958768725" lon="-8.144847024232149">
        <ele>252.47999999999999</ele>
        <time>2025-05-03T11:55:20Z</time>
      </trkpt>
      <trkpt lat="41.062993006780744" lon="-8.145016003400087">
        <ele>252.47999999999999</ele>
        <time>2025-05-03T11:55:21Z</time>
      </trkpt>
      <trkpt lat="41.063044974580407" lon="-8.145179031416774">
        <ele>252</ele>
        <time>2025-05-03T11:55:22Z</time>
      </trkpt>
      <trkpt lat="41.063108006492257" lon="-8.145330995321274">
        <ele>251.52000000000001</ele>
        <time>2025-05-03T11:55:23Z</time>
      </trkpt>
      <trkpt lat="41.063168020918965" lon="-8.145468039438129">
        <ele>251.52000000000001</ele>
        <time>2025-05-03T11:55:24Z</time>
      </trkpt>
      <trkpt lat="41.063258964568377" lon="-8.145557977259159">
        <ele>251.52000000000001</ele>
        <time>2025-05-03T11:55:25Z</time>
      </trkpt>
      <trkpt lat="41.063339011743665" lon="-8.145632995292544">
        <ele>252</ele>
        <time>2025-05-03T11:55:26Z</time>
      </trkpt>
      <trkpt lat="41.06343699619174" lon="-8.145632995292544">
        <ele>251.52000000000001</ele>
        <time>2025-05-03T11:55:27Z</time>
      </trkpt>
      <trkpt lat="41.06354596093297" lon="-8.14562201499939">
        <ele>251.52000000000001</ele>
        <time>2025-05-03T11:55:28Z</time>
      </trkpt>
      <trkpt lat="41.063665989786386" lon="-8.145554959774017">
        <ele>251.52000000000001</ele>
        <time>2025-05-03T11:55:29Z</time>
      </trkpt>
      <trkpt lat="41.063787024468184" lon="-8.14545102417469">
        <ele>251.52000000000001</ele>
        <time>2025-05-03T11:55:30Z</time>
      </trkpt>
      <trkpt lat="41.063899006694555" lon="-8.145325966179371">
        <ele>252</ele>
        <time>2025-05-03T11:55:31Z</time>
      </trkpt>
      <trkpt lat="41.063987016677856" lon="-8.145161010324955">
        <ele>252.47999999999999</ele>
        <time>2025-05-03T11:55:32Z</time>
      </trkpt>
      <trkpt lat="41.064071003347635" lon="-8.144993958994746">
        <ele>253.44</ele>
        <time>2025-05-03T11:55:33Z</time>
      </trkpt>
      <trkpt lat="41.064151972532272" lon="-8.144832020625472">
        <ele>254.41</ele>
        <time>2025-05-03T11:55:34Z</time>
      </trkpt>
      <trkpt lat="41.064226990565658" lon="-8.144682990387082">
        <ele>254.88999999999999</ele>
        <time>2025-05-03T11:55:35Z</time>
      </trkpt>
      <trkpt lat="41.064298991113901" lon="-8.144537983462215">
        <ele>255.84999999999999</ele>
        <time>2025-05-03T11:55:36Z</time>
      </trkpt>
      <trkpt lat="41.064392030239105" lon="-8.144443016499281">
        <ele>256.32999999999998</ele>
        <time>2025-05-03T11:55:37Z</time>
      </trkpt>
      <trkpt lat="41.064510969445109" lon="-8.14435601234436">
        <ele>256.81</ele>
        <time>2025-05-03T11:55:38Z</time>
      </trkpt>
      <trkpt lat="41.064628986641765" lon="-8.14426900818944">
        <ele>257.29000000000002</ele>
        <time>2025-05-03T11:55:39Z</time>
      </trkpt>
      <trkpt lat="41.064749015495181" lon="-8.144217962399125">
        <ele>258.25</ele>
        <time>2025-05-03T11:55:40Z</time>
      </trkpt>
      <trkpt lat="41.064872983843088" lon="-8.144171023741365">
        <ele>259.20999999999998</ele>
        <time>2025-05-03T11:55:41Z</time>
      </trkpt>
      <trkpt lat="41.064988989382982" lon="-8.14414101652801">
        <ele>260.17000000000002</ele>
        <time>2025-05-03T11:55:42Z</time>
      </trkpt>
      <trkpt lat="41.065337006002665" lon="-8.144093994051218">
        <ele>262.57999999999998</ele>
        <time>2025-05-03T11:55:45Z</time>
      </trkpt>
      <trkpt lat="41.065447982400656" lon="-8.144118972122669">
        <ele>264.01999999999998</ele>
        <time>2025-05-03T11:55:46Z</time>
      </trkpt>
      <trkpt lat="41.065557030960917" lon="-8.144179992377758">
        <ele>265.45999999999998</ele>
        <time>2025-05-03T11:55:47Z</time>
      </trkpt>
      <trkpt lat="41.065672030672431" lon="-8.144280994310975">
        <ele>266.42000000000002</ele>
        <time>2025-05-03T11:55:48Z</time>
      </trkpt>
      <trkpt lat="41.065739002078772" lon="-8.144415020942688">
        <ele>267.86000000000001</ele>
        <time>2025-05-03T11:55:49Z</time>
      </trkpt>
      <trkpt lat="41.065801028162241" lon="-8.144537983462215">
        <ele>268.82999999999998</ele>
        <time>2025-05-03T11:55:50Z</time>
      </trkpt>
      <trkpt lat="41.065894989296794" lon="-8.14467603340745">
        <ele>269.79000000000002</ele>
        <time>2025-05-03T11:55:51Z</time>
      </trkpt>
      <trkpt lat="41.065976964309812" lon="-8.144795978441834">
        <ele>270.75</ele>
        <time>2025-05-03T11:55:52Z</time>
      </trkpt>
      <trkpt lat="41.0660570114851" lon="-8.144893040880561">
        <ele>271.23000000000002</ele>
        <time>2025-05-03T11:55:53Z</time>
      </trkpt>
      <trkpt lat="41.06616698205471" lon="-8.144954983144999">
        <ele>272.19</ele>
        <time>2025-05-03T11:55:54Z</time>
      </trkpt>
      <trkpt lat="41.066277958452702" lon="-8.145017009228468">
        <ele>272.67000000000002</ele>
        <time>2025-05-03T11:55:55Z</time>
      </trkpt>
      <trkpt lat="41.066387007012963" lon="-8.145079035311937">
        <ele>273.14999999999998</ele>
        <time>2025-05-03T11:55:56Z</time>
      </trkpt>
      <trkpt lat="41.067290995270014" lon="-8.145593013614416">
        <ele>278.92000000000002</ele>
        <time>2025-05-03T11:56:04Z</time>
      </trkpt>
      <trkpt lat="41.067756023257971" lon="-8.145779008045793">
        <ele>281.31999999999999</ele>
        <time>2025-05-03T11:56:08Z</time>
      </trkpt>
      <trkpt lat="41.067872028797865" lon="-8.145828964188695">
        <ele>282.27999999999997</ele>
        <time>2025-05-03T11:56:09Z</time>
      </trkpt>
      <trkpt lat="41.068220967426896" lon="-8.145980006083846">
        <ele>283.73000000000002</ele>
        <time>2025-05-03T11:56:12Z</time>
      </trkpt>
      <trkpt lat="41.068332027643919" lon="-8.146014958620071">
        <ele>284.69</ele>
        <time>2025-05-03T11:56:13Z</time>
      </trkpt>
      <trkpt lat="41.068449961021543" lon="-8.145992998033762">
        <ele>285.17000000000002</ele>
        <time>2025-05-03T11:56:14Z</time>
      </trkpt>
      <trkpt lat="41.06857200153172" lon="-8.145970031619072">
        <ele>285.64999999999998</ele>
        <time>2025-05-03T11:56:15Z</time>
      </trkpt>
      <trkpt lat="41.068693036213517" lon="-8.145934995263815">
        <ele>286.13</ele>
        <time>2025-05-03T11:56:16Z</time>
      </trkpt>
      <trkpt lat="41.068811975419521" lon="-8.145875986665487">
        <ele>286.61000000000001</ele>
        <time>2025-05-03T11:56:17Z</time>
      </trkpt>
      <trkpt lat="41.069627031683922" lon="-8.145468039438129">
        <ele>290.94</ele>
        <time>2025-05-03T11:56:24Z</time>
      </trkpt>
      <trkpt lat="41.069731973111629" lon="-8.145454041659832">
        <ele>291.89999999999998</ele>
        <time>2025-05-03T11:56:25Z</time>
      </trkpt>
      <trkpt lat="41.06983901001513" lon="-8.145485976710916">
        <ele>292.38</ele>
        <time>2025-05-03T11:56:26Z</time>
      </trkpt>
      <trkpt lat="41.069949986413121" lon="-8.145535010844469">
        <ele>293.33999999999997</ele>
        <time>2025-05-03T11:56:27Z</time>
      </trkpt>
      <trkpt lat="41.070068003609776" lon="-8.145608017221093">
        <ele>293.33999999999997</ele>
        <time>2025-05-03T11:56:28Z</time>
      </trkpt>
      <trkpt lat="41.070189038291574" lon="-8.145684041082859">
        <ele>293.81999999999999</ele>
        <time>2025-05-03T11:56:29Z</time>
      </trkpt>
      <trkpt lat="41.07042096555233" lon="-8.145808009430766">
        <ele>293.81999999999999</ele>
        <time>2025-05-03T11:56:31Z</time>
      </trkpt>
      <trkpt lat="41.070539988577366" lon="-8.145851008594036">
        <ele>294.30000000000001</ele>
        <time>2025-05-03T11:56:32Z</time>
      </trkpt>
      <trkpt lat="41.070661023259163" lon="-8.145894007757306">
        <ele>294.77999999999997</ele>
        <time>2025-05-03T11:56:33Z</time>
      </trkpt>
      <trkpt lat="41.071038963273168" lon="-8.146019987761974">
        <ele>295.25999999999999</ele>
        <time>2025-05-03T11:56:36Z</time>
      </trkpt>
      <trkpt lat="41.07233002781868" lon="-8.146915007382631">
        <ele>298.63</ele>
        <time>2025-05-03T11:56:47Z</time>
      </trkpt>
      <trkpt lat="41.072592968121171" lon="-8.147181970998645">
        <ele>300.06999999999999</ele>
        <time>2025-05-03T11:56:50Z</time>
      </trkpt>
      <trkpt lat="41.072673015296459" lon="-8.147266963496804">
        <ele>300.55000000000001</ele>
        <time>2025-05-03T11:56:51Z</time>
      </trkpt>
      <trkpt lat="41.072732023894787" lon="-8.147391015663743">
        <ele>300.55000000000001</ele>
        <time>2025-05-03T11:56:52Z</time>
      </trkpt>
      <trkpt lat="41.072769993916154" lon="-8.147538034245372">
        <ele>301.02999999999997</ele>
        <time>2025-05-03T11:56:53Z</time>
      </trkpt>
      <trkpt lat="41.072809975594282" lon="-8.147687986493111">
        <ele>301.99000000000001</ele>
        <time>2025-05-03T11:56:54Z</time>
      </trkpt>
      <trkpt lat="41.072830008342862" lon="-8.147846991196275">
        <ele>302.47000000000003</ele>
        <time>2025-05-03T11:56:55Z</time>
      </trkpt>
      <trkpt lat="41.072802012786269" lon="-8.148000966757536">
        <ele>302.47000000000003</ele>
        <time>2025-05-03T11:56:56Z</time>
      </trkpt>
      <trkpt lat="41.072773011401296" lon="-8.148165000602603">
        <ele>302.94999999999999</ele>
        <time>2025-05-03T11:56:57Z</time>
      </trkpt>
      <trkpt lat="41.0727399867028" lon="-8.14833196811378">
        <ele>303.43000000000001</ele>
        <time>2025-05-03T11:56:58Z</time>
      </trkpt>
      <trkpt lat="41.072646025568247" lon="-8.148977961391211">
        <ele>305.83999999999997</ele>
        <time>2025-05-03T11:57:02Z</time>
      </trkpt>
      <trkpt lat="41.072649965062737" lon="-8.149120034649968">
        <ele>305.83999999999997</ele>
        <time>2025-05-03T11:57:03Z</time>
      </trkpt>
      <trkpt lat="41.072695981711149" lon="-8.149247020483017">
        <ele>305.83999999999997</ele>
        <time>2025-05-03T11:57:04Z</time>
      </trkpt>
      <trkpt lat="41.072752978652716" lon="-8.149380963295698">
        <ele>305.36000000000001</ele>
        <time>2025-05-03T11:57:05Z</time>
      </trkpt>
      <trkpt lat="41.072831014171243" lon="-8.149509960785508">
        <ele>305.36000000000001</ele>
        <time>2025-05-03T11:57:06Z</time>
      </trkpt>
      <trkpt lat="41.073419004678726" lon="-8.150358041748405">
        <ele>303.43000000000001</ele>
        <time>2025-05-03T11:57:13Z</time>
      </trkpt>
      <trkpt lat="41.073515983298421" lon="-8.150429036468267">
        <ele>302.94999999999999</ele>
        <time>2025-05-03T11:57:14Z</time>
      </trkpt>
      <trkpt lat="41.073610028252006" lon="-8.150492990389466">
        <ele>302.47000000000003</ele>
        <time>2025-05-03T11:57:15Z</time>
      </trkpt>
      <trkpt lat="41.073709018528461" lon="-8.150547975674272">
        <ele>301.99000000000001</ele>
        <time>2025-05-03T11:57:16Z</time>
      </trkpt>
      <trkpt lat="41.073807002976537" lon="-8.150621987879276">
        <ele>301.50999999999999</ele>
        <time>2025-05-03T11:57:17Z</time>
      </trkpt>
      <trkpt lat="41.073886966332793" lon="-8.150732964277268">
        <ele>301.02999999999997</ele>
        <time>2025-05-03T11:57:18Z</time>
      </trkpt>
      <trkpt lat="41.073966007679701" lon="-8.150855004787445">
        <ele>301.02999999999997</ele>
        <time>2025-05-03T11:57:19Z</time>
      </trkpt>
      <trkpt lat="41.074023004621267" lon="-8.15099598839879">
        <ele>300.55000000000001</ele>
        <time>2025-05-03T11:57:20Z</time>
      </trkpt>
      <trkpt lat="41.07405100017786" lon="-8.151152981445193">
        <ele>300.55000000000001</ele>
        <time>2025-05-03T11:57:21Z</time>
      </trkpt>
      <trkpt lat="41.074066003784537" lon="-8.151312991976738">
        <ele>300.06999999999999</ele>
        <time>2025-05-03T11:57:22Z</time>
      </trkpt>
      <trkpt lat="41.074082013219595" lon="-8.151474008336663">
        <ele>299.58999999999997</ele>
        <time>2025-05-03T11:57:23Z</time>
      </trkpt>
      <trkpt lat="41.074130041524768" lon="-8.151614991948009">
        <ele>299.11000000000001</ele>
        <time>2025-05-03T11:57:24Z</time>
      </trkpt>
      <trkpt lat="41.074191983789206" lon="-8.151740971952677">
        <ele>298.63</ele>
        <time>2025-05-03T11:57:25Z</time>
      </trkpt>
      <trkpt lat="41.07426599599421" lon="-8.151872986927629">
        <ele>298.63</ele>
        <time>2025-05-03T11:57:26Z</time>
      </trkpt>
      <trkpt lat="41.074341014027596" lon="-8.152006007730961">
        <ele>298.14999999999998</ele>
        <time>2025-05-03T11:57:27Z</time>
      </trkpt>
      <trkpt lat="41.074397005140781" lon="-8.152141962200403">
        <ele>297.67000000000002</ele>
        <time>2025-05-03T11:57:28Z</time>
      </trkpt>
      <trkpt lat="41.074451990425587" lon="-8.152275988832116">
        <ele>296.69999999999999</ele>
        <time>2025-05-03T11:57:29Z</time>
      </trkpt>
      <trkpt lat="41.074488032609224" lon="-8.152427030727267">
        <ele>296.22000000000003</ele>
        <time>2025-05-03T11:57:30Z</time>
      </trkpt>
      <trkpt lat="41.074476968497038" lon="-8.152597015723586">
        <ele>296.22000000000003</ele>
        <time>2025-05-03T11:57:31Z</time>
      </trkpt>
      <trkpt lat="41.07445802539587" lon="-8.152779992669821">
        <ele>295.25999999999999</ele>
        <time>2025-05-03T11:57:32Z</time>
      </trkpt>
      <trkpt lat="41.074425000697374" lon="-8.152975039556623">
        <ele>294.77999999999997</ele>
        <time>2025-05-03T11:57:33Z</time>
      </trkpt>
      <trkpt lat="41.074235988780856" lon="-8.153749024495482">
        <ele>290.94</ele>
        <time>2025-05-03T11:57:37Z</time>
      </trkpt>
      <trkpt lat="41.074183015152812" lon="-8.153880033642054">
        <ele>289.97000000000003</ele>
        <time>2025-05-03T11:57:38Z</time>
      </trkpt>
      <trkpt lat="41.074089976027608" lon="-8.153982963413">
        <ele>289.49000000000001</ele>
        <time>2025-05-03T11:57:39Z</time>
      </trkpt>
      <trkpt lat="41.07398696243763" lon="-8.154095029458404">
        <ele>288.05000000000001</ele>
        <time>2025-05-03T11:57:40Z</time>
      </trkpt>
      <trkpt lat="41.07385603711009" lon="-8.154182033613324">
        <ele>287.56999999999999</ele>
        <time>2025-05-03T11:57:41Z</time>
      </trkpt>
      <trkpt lat="41.073711030185223" lon="-8.154257973656058">
        <ele>287.08999999999997</ele>
        <time>2025-05-03T11:57:42Z</time>
      </trkpt>
      <trkpt lat="41.073546996340156" lon="-8.154344977810979">
        <ele>286.61000000000001</ele>
        <time>2025-05-03T11:57:43Z</time>
      </trkpt>
      <trkpt lat="41.072666980326176" lon="-8.154730964452028">
        <ele>283.25</ele>
        <time>2025-05-03T11:57:49Z</time>
      </trkpt>
      <trkpt lat="41.072552986443043" lon="-8.154855016618967">
        <ele>282.27999999999997</ele>
        <time>2025-05-03T11:57:50Z</time>
      </trkpt>
      <trkpt lat="41.07246003113687" lon="-8.154957024380565">
        <ele>281.80000000000001</ele>
        <time>2025-05-03T11:57:51Z</time>
      </trkpt>
      <trkpt lat="41.072402028366923" lon="-8.155076969414949">
        <ele>280.83999999999997</ele>
        <time>2025-05-03T11:57:52Z</time>
      </trkpt>
      <trkpt lat="41.072345031425357" lon="-8.155246032401919">
        <ele>280.36000000000001</ele>
        <time>2025-05-03T11:57:53Z</time>
      </trkpt>
      <trkpt lat="41.072328016161919" lon="-8.155405959114432">
        <ele>279.88</ele>
        <time>2025-05-03T11:57:54Z</time>
      </trkpt>
      <trkpt lat="41.072307983413339" lon="-8.155583990737796">
        <ele>279.39999999999998</ele>
        <time>2025-05-03T11:57:55Z</time>
      </trkpt>
      <trkpt lat="41.072324998676777" lon="-8.155745007097721">
        <ele>278.92000000000002</ele>
        <time>2025-05-03T11:57:56Z</time>
      </trkpt>
      <trkpt lat="41.072363974526525" lon="-8.155882973223925">
        <ele>278.44</ele>
        <time>2025-05-03T11:57:57Z</time>
      </trkpt>
      <trkpt lat="41.072423988953233" lon="-8.156004007905722">
        <ele>278.44</ele>
        <time>2025-05-03T11:57:58Z</time>
      </trkpt>
      <trkpt lat="41.072523985058069" lon="-8.156070979312062">
        <ele>277.95999999999998</ele>
        <time>2025-05-03T11:57:59Z</time>
      </trkpt>
      <trkpt lat="41.072624986991286" lon="-8.156099980697036">
        <ele>277.95999999999998</ele>
        <time>2025-05-03T11:58:00Z</time>
      </trkpt>
      <trkpt lat="41.072736969217658" lon="-8.156090006232262">
        <ele>277.48000000000002</ele>
        <time>2025-05-03T11:58:01Z</time>
      </trkpt>
      <trkpt lat="41.072853980585933" lon="-8.156071985140443">
        <ele>277</ele>
        <time>2025-05-03T11:58:02Z</time>
      </trkpt>
      <trkpt lat="41.072993036359549" lon="-8.156029991805553">
        <ele>277</ele>
        <time>2025-05-03T11:58:03Z</time>
      </trkpt>
      <trkpt lat="41.07351103797555" lon="-8.155893031507731">
        <ele>276.51999999999998</ele>
        <time>2025-05-03T11:58:06Z</time>
      </trkpt>
      <trkpt lat="41.073697032406926" lon="-8.155906023457646">
        <ele>277</ele>
        <time>2025-05-03T11:58:07Z</time>
      </trkpt>
      <trkpt lat="41.073885960504413" lon="-8.155920021235943">
        <ele>277</ele>
        <time>2025-05-03T11:58:08Z</time>
      </trkpt>
      <trkpt lat="41.074087964370847" lon="-8.155941981822252">
        <ele>277.48000000000002</ele>
        <time>2025-05-03T11:58:09Z</time>
      </trkpt>
      <trkpt lat="41.074267001822591" lon="-8.156009037047625">
        <ele>277.95999999999998</ele>
        <time>2025-05-03T11:58:10Z</time>
      </trkpt>
      <trkpt lat="41.074432963505387" lon="-8.156071985140443">
        <ele>278.44</ele>
        <time>2025-05-03T11:58:11Z</time>
      </trkpt>
      <trkpt lat="41.074733035638928" lon="-8.156234007328749">
        <ele>279.39999999999998</ele>
        <time>2025-05-03T11:58:13Z</time>
      </trkpt>
      <trkpt lat="41.074880976229906" lon="-8.156356969848275">
        <ele>280.36000000000001</ele>
        <time>2025-05-03T11:58:14Z</time>
      </trkpt>
      <trkpt lat="41.074983989819884" lon="-8.156511029228568">
        <ele>280.83999999999997</ele>
        <time>2025-05-03T11:58:15Z</time>
      </trkpt>
      <trkpt lat="41.075063031166792" lon="-8.156708003953099">
        <ele>281.80000000000001</ele>
        <time>2025-05-03T11:58:16Z</time>
      </trkpt>
      <trkpt lat="41.075112987309694" lon="-8.156915036961436">
        <ele>282.27999999999997</ele>
        <time>2025-05-03T11:58:17Z</time>
      </trkpt>
      <trkpt lat="41.075112987309694" lon="-8.157111005857587">
        <ele>283.25</ele>
        <time>2025-05-03T11:58:18Z</time>
      </trkpt>
      <trkpt lat="41.075083985924721" lon="-8.157309992238879">
        <ele>284.20999999999998</ele>
        <time>2025-05-03T11:58:19Z</time>
      </trkpt>
      <trkpt lat="41.07503998093307" lon="-8.157505039125681">
        <ele>285.17000000000002</ele>
        <time>2025-05-03T11:58:20Z</time>
      </trkpt>
      <trkpt lat="41.074981978163123" lon="-8.15769899636507">
        <ele>285.64999999999998</ele>
        <time>2025-05-03T11:58:21Z</time>
      </trkpt>
      <trkpt lat="41.074861027300358" lon="-8.15806201659143">
        <ele>287.56999999999999</ele>
        <time>2025-05-03T11:58:23Z</time>
      </trkpt>
      <trkpt lat="41.074830014258623" lon="-8.15823401324451">
        <ele>288.05000000000001</ele>
        <time>2025-05-03T11:58:24Z</time>
      </trkpt>
      <trkpt lat="41.074822973459959" lon="-8.158411039039493">
        <ele>288.52999999999997</ele>
        <time>2025-05-03T11:58:25Z</time>
      </trkpt>
      <trkpt lat="41.074815010651946" lon="-8.15857901237905">
        <ele>289.49000000000001</ele>
        <time>2025-05-03T11:58:26Z</time>
      </trkpt>
      <trkpt lat="41.074860021471977" lon="-8.15872997045517">
        <ele>290.45999999999998</ele>
        <time>2025-05-03T11:58:27Z</time>
      </trkpt>
      <trkpt lat="41.074935039505363" lon="-8.158881012350321">
        <ele>291.42000000000002</ele>
        <time>2025-05-03T11:58:28Z</time>
      </trkpt>
      <trkpt lat="41.075011985376477" lon="-8.159034987911582">
        <ele>292.38</ele>
        <time>2025-05-03T11:58:29Z</time>
      </trkpt>
      <trkpt lat="41.075084991753101" lon="-8.15918100066483">
        <ele>293.33999999999997</ele>
        <time>2025-05-03T11:58:30Z</time>
      </trkpt>
      <trkpt lat="41.075177025049925" lon="-8.159270016476512">
        <ele>294.30000000000001</ele>
        <time>2025-05-03T11:58:31Z</time>
      </trkpt>
      <trkpt lat="41.075284983962774" lon="-8.159365989267826">
        <ele>294.77999999999997</ele>
        <time>2025-05-03T11:58:32Z</time>
      </trkpt>
      <trkpt lat="41.075422028079629" lon="-8.159419968724251">
        <ele>295.74000000000001</ele>
        <time>2025-05-03T11:58:33Z</time>
      </trkpt>
      <trkpt lat="41.075569968670607" lon="-8.15946196205914">
        <ele>296.22000000000003</ele>
        <time>2025-05-03T11:58:34Z</time>
      </trkpt>
      <trkpt lat="41.075736014172435" lon="-8.159486018121243">
        <ele>296.69999999999999</ele>
        <time>2025-05-03T11:58:35Z</time>
      </trkpt>
      <trkpt lat="41.077265962958336" lon="-8.159705959260464">
        <ele>301.02999999999997</ele>
        <time>2025-05-03T11:58:43Z</time>
      </trkpt>
      <trkpt lat="41.078319987282157" lon="-8.159854989498854">
        <ele>306.31999999999999</ele>
        <time>2025-05-03T11:58:48Z</time>
      </trkpt>
      <trkpt lat="41.079451963305473" lon="-8.160008965060115">
        <ele>312.56999999999999</ele>
        <time>2025-05-03T11:58:54Z</time>
      </trkpt>
      <trkpt lat="41.079608034342527" lon="-8.160008965060115">
        <ele>313.52999999999997</ele>
        <time>2025-05-03T11:58:55Z</time>
      </trkpt>
      <trkpt lat="41.079752035439014" lon="-8.160008965060115">
        <ele>314.49000000000001</ele>
        <time>2025-05-03T11:58:56Z</time>
      </trkpt>
      <trkpt lat="41.079903999343514" lon="-8.160048024728894">
        <ele>315.44999999999999</ele>
        <time>2025-05-03T11:58:57Z</time>
      </trkpt>
      <trkpt lat="41.079972982406616" lon="-8.160142991691828">
        <ele>316.88999999999999</ele>
        <time>2025-05-03T11:58:58Z</time>
      </trkpt>
      <trkpt lat="41.080090999603271" lon="-8.160309959203005">
        <ele>318.32999999999998</ele>
        <time>2025-05-03T11:58:59Z</time>
      </trkpt>
      <trkpt lat="41.080140033736825" lon="-8.160433005541563">
        <ele>319.30000000000001</ele>
        <time>2025-05-03T11:59:00Z</time>
      </trkpt>
      <trkpt lat="41.080329967662692" lon="-8.160977996885777">
        <ele>322.66000000000003</ele>
        <time>2025-05-03T11:59:03Z</time>
      </trkpt>
      <trkpt lat="41.080338014289737" lon="-8.161162985488772">
        <ele>323.13999999999999</ele>
        <time>2025-05-03T11:59:04Z</time>
      </trkpt>
      <trkpt lat="41.080344971269369" lon="-8.161354009062052">
        <ele>323.62</ele>
        <time>2025-05-03T11:59:05Z</time>
      </trkpt>
      <trkpt lat="41.080258972942829" lon="-8.162217009812594">
        <ele>326.01999999999998</ele>
        <time>2025-05-03T11:59:09Z</time>
      </trkpt>
      <trkpt lat="41.080222008749843" lon="-8.162448015064001">
        <ele>326.5</ele>
        <time>2025-05-03T11:59:10Z</time>
      </trkpt>
      <trkpt lat="41.07991598546505" lon="-8.163652997463942">
        <ele>329.38999999999999</ele>
        <time>2025-05-03T11:59:16Z</time>
      </trkpt>
      <trkpt lat="41.079897964373231" lon="-8.163839997723699">
        <ele>330.35000000000002</ele>
        <time>2025-05-03T11:59:17Z</time>
      </trkpt>
      <trkpt lat="41.079897964373231" lon="-8.164043007418513">
        <ele>330.35000000000002</ele>
        <time>2025-05-03T11:59:18Z</time>
      </trkpt>
      <trkpt lat="41.079907016828656" lon="-8.164264960214496">
        <ele>331.31</ele>
        <time>2025-05-03T11:59:19Z</time>
      </trkpt>
      <trkpt lat="41.079967031255364" lon="-8.164468975737691">
        <ele>332.26999999999998</ele>
        <time>2025-05-03T11:59:20Z</time>
      </trkpt>
      <trkpt lat="41.080046994611621" lon="-8.164673997089267">
        <ele>333.23000000000002</ele>
        <time>2025-05-03T11:59:21Z</time>
      </trkpt>
      <trkpt lat="41.080170040950179" lon="-8.164839036762714">
        <ele>334.19999999999999</ele>
        <time>2025-05-03T11:59:22Z</time>
      </trkpt>
      <trkpt lat="41.080297026783228" lon="-8.164979014545679">
        <ele>335.16000000000003</ele>
        <time>2025-05-03T11:59:23Z</time>
      </trkpt>
      <trkpt lat="41.080422000959516" lon="-8.165118992328644">
        <ele>336.12</ele>
        <time>2025-05-03T11:59:24Z</time>
      </trkpt>
      <trkpt lat="41.080550998449326" lon="-8.16526198759675">
        <ele>336.60000000000002</ele>
        <time>2025-05-03T11:59:25Z</time>
      </trkpt>
      <trkpt lat="41.081157010048628" lon="-8.166187014430761">
        <ele>340.92000000000002</ele>
        <time>2025-05-03T11:59:30Z</time>
      </trkpt>
      <trkpt lat="41.081273015588522" lon="-8.166372003033757">
        <ele>341.41000000000003</ele>
        <time>2025-05-03T11:59:31Z</time>
      </trkpt>
      <trkpt lat="41.081478036940098" lon="-8.166672997176647">
        <ele>342.85000000000002</ele>
        <time>2025-05-03T11:59:33Z</time>
      </trkpt>
      <trkpt lat="41.081545008346438" lon="-8.166809035465121">
        <ele>343.32999999999998</ele>
        <time>2025-05-03T11:59:34Z</time>
      </trkpt>
      <trkpt lat="41.081566968932748" lon="-8.166963011026382">
        <ele>343.81</ele>
        <time>2025-05-03T11:59:35Z</time>
      </trkpt>
      <trkpt lat="41.081546014174819" lon="-8.167125033214688">
        <ele>344.29000000000002</ele>
        <time>2025-05-03T11:59:36Z</time>
      </trkpt>
      <trkpt lat="41.08148499391973" lon="-8.167292000725865">
        <ele>345.25</ele>
        <time>2025-05-03T11:59:37Z</time>
      </trkpt>
      <trkpt lat="41.08141902834177" lon="-8.16747397184372">
        <ele>345.73000000000002</ele>
        <time>2025-05-03T11:59:38Z</time>
      </trkpt>
      <trkpt lat="41.081328000873327" lon="-8.167669018730521">
        <ele>345.73000000000002</ele>
        <time>2025-05-03T11:59:39Z</time>
      </trkpt>
      <trkpt lat="41.080510010942817" lon="-8.16906301304698">
        <ele>348.62</ele>
        <time>2025-05-03T11:59:46Z</time>
      </trkpt>
      <trkpt lat="41.079748012125492" lon="-8.17015903070569">
        <ele>352.94</ele>
        <time>2025-05-03T11:59:53Z</time>
      </trkpt>
      <trkpt lat="41.079683974385262" lon="-8.170357011258602">
        <ele>353.42000000000002</ele>
        <time>2025-05-03T11:59:54Z</time>
      </trkpt>
      <trkpt lat="41.079625971615314" lon="-8.170535964891315">
        <ele>353.89999999999998</ele>
        <time>2025-05-03T11:59:55Z</time>
      </trkpt>
      <trkpt lat="41.079273009672761" lon="-8.171581020578742">
        <ele>355.82999999999998</ele>
        <time>2025-05-03T12:00:01Z</time>
      </trkpt>
      <trkpt lat="41.078945025801659" lon="-8.172169011086226">
        <ele>358.70999999999998</ele>
        <time>2025-05-03T12:00:05Z</time>
      </trkpt>
      <trkpt lat="41.078346977010369" lon="-8.17301600240171">
        <ele>362.06999999999999</ele>
        <time>2025-05-03T12:00:11Z</time>
      </trkpt>
      <trkpt lat="41.077325977385044" lon="-8.174984995275736">
        <ele>370.24000000000001</ele>
        <time>2025-05-03T12:00:24Z</time>
      </trkpt>
      <trkpt lat="41.077259005978703" lon="-8.17512396723032">
        <ele>370.73000000000002</ele>
        <time>2025-05-03T12:00:25Z</time>
      </trkpt>
      <trkpt lat="41.077259005978703" lon="-8.175269979983568">
        <ele>371.20999999999998</ele>
        <time>2025-05-03T12:00:26Z</time>
      </trkpt>
      <trkpt lat="41.077279038727283" lon="-8.175429990515113">
        <ele>371.69</ele>
        <time>2025-05-03T12:00:27Z</time>
      </trkpt>
      <trkpt lat="41.077319020405412" lon="-8.175590001046658">
        <ele>371.69</ele>
        <time>2025-05-03T12:00:28Z</time>
      </trkpt>
      <trkpt lat="41.077363025397062" lon="-8.175767026841641">
        <ele>372.17000000000002</ele>
        <time>2025-05-03T12:00:29Z</time>
      </trkpt>
      <trkpt lat="41.077408036217093" lon="-8.175950003787875">
        <ele>372.17000000000002</ele>
        <time>2025-05-03T12:00:30Z</time>
      </trkpt>
      <trkpt lat="41.077489005401731" lon="-8.176292991265655">
        <ele>371.69</ele>
        <time>2025-05-03T12:00:32Z</time>
      </trkpt>
      <trkpt lat="41.077576009556651" lon="-8.176421988755465">
        <ele>371.69</ele>
        <time>2025-05-03T12:00:33Z</time>
      </trkpt>
      <trkpt lat="41.077657984569669" lon="-8.176529025658965">
        <ele>371.69</ele>
        <time>2025-05-03T12:00:34Z</time>
      </trkpt>
      <trkpt lat="41.077817995101213" lon="-8.17673597484827">
        <ele>371.69</ele>
        <time>2025-05-03T12:00:36Z</time>
      </trkpt>
      <trkpt lat="41.077883960679173" lon="-8.176851980388165">
        <ele>371.69</ele>
        <time>2025-05-03T12:00:37Z</time>
      </trkpt>
      <trkpt lat="41.077940035611391" lon="-8.177001010626555">
        <ele>371.69</ele>
        <time>2025-05-03T12:00:38Z</time>
      </trkpt>
      <trkpt lat="41.078168023377657" lon="-8.17759302444756">
        <ele>371.69</ele>
        <time>2025-05-03T12:00:42Z</time>
      </trkpt>
      <trkpt lat="41.078257961198688" lon="-8.177712969481945">
        <ele>371.69</ele>
        <time>2025-05-03T12:00:43Z</time>
      </trkpt>
      <trkpt lat="41.078375978395343" lon="-8.177813971415162">
        <ele>372.17000000000002</ele>
        <time>2025-05-03T12:00:44Z</time>
      </trkpt>
      <trkpt lat="41.07862701639533" lon="-8.177985968068242">
        <ele>371.69</ele>
        <time>2025-05-03T12:00:46Z</time>
      </trkpt>
      <trkpt lat="41.078760959208012" lon="-8.178076995536685">
        <ele>371.69</ele>
        <time>2025-05-03T12:00:47Z</time>
      </trkpt>
      <trkpt lat="41.078956006094813" lon="-8.178337002173066">
        <ele>371.20999999999998</ele>
        <time>2025-05-03T12:00:49Z</time>
      </trkpt>
      <trkpt lat="41.079082991927862" lon="-8.178505981341004">
        <ele>371.20999999999998</ele>
        <time>2025-05-03T12:00:50Z</time>
      </trkpt>
      <trkpt lat="41.079106964170933" lon="-8.178610000759363">
        <ele>371.69</ele>
        <time>2025-05-03T12:00:51Z</time>
      </trkpt>
      <trkpt lat="41.079149041324854" lon="-8.178790966048837">
        <ele>371.69</ele>
        <time>2025-05-03T12:00:52Z</time>
      </trkpt>
      <trkpt lat="41.079193968325853" lon="-8.178980983793736">
        <ele>371.69</ele>
        <time>2025-05-03T12:00:53Z</time>
      </trkpt>
      <trkpt lat="41.079220036044717" lon="-8.17935599014163">
        <ele>372.64999999999998</ele>
        <time>2025-05-03T12:00:55Z</time>
      </trkpt>
      <trkpt lat="41.079193968325853" lon="-8.179518012329936">
        <ele>373.13</ele>
        <time>2025-05-03T12:00:56Z</time>
      </trkpt>
      <trkpt lat="41.079115010797977" lon="-8.179626977071166">
        <ele>373.13</ele>
        <time>2025-05-03T12:00:57Z</time>
      </trkpt>
      <trkpt lat="41.079018032178283" lon="-8.179752035066485">
        <ele>373.13</ele>
        <time>2025-05-03T12:00:58Z</time>
      </trkpt>
      <trkpt lat="41.07890403829515" lon="-8.179872985929251">
        <ele>373.13</ele>
        <time>2025-05-03T12:00:59Z</time>
      </trkpt>
      <trkpt lat="41.078781997784972" lon="-8.180002989247441">
        <ele>373.61000000000001</ele>
        <time>2025-05-03T12:01:00Z</time>
      </trkpt>
      <trkpt lat="41.078660963103175" lon="-8.180153025314212">
        <ele>374.08999999999997</ele>
        <time>2025-05-03T12:01:01Z</time>
      </trkpt>
      <trkpt lat="41.077800979837775" lon="-8.181523969396949">
        <ele>374.56999999999999</ele>
        <time>2025-05-03T12:01:09Z</time>
      </trkpt>
      <trkpt lat="41.077360007911921" lon="-8.182370960712433">
        <ele>374.56999999999999</ele>
        <time>2025-05-03T12:01:16Z</time>
      </trkpt>
      <trkpt lat="41.076870001852512" lon="-8.183482987806201">
        <ele>374.56999999999999</ele>
        <time>2025-05-03T12:01:24Z</time>
      </trkpt>
      <trkpt lat="41.076487032696605" lon="-8.18438496440649">
        <ele>371.69</ele>
        <time>2025-05-03T12:01:30Z</time>
      </trkpt>
      <trkpt lat="41.076382007449865" lon="-8.184471968561411">
        <ele>371.20999999999998</ele>
        <time>2025-05-03T12:01:31Z</time>
      </trkpt>
      <trkpt lat="41.07628402300179" lon="-8.18455402739346">
        <ele>370.73000000000002</ele>
        <time>2025-05-03T12:01:32Z</time>
      </trkpt>
      <trkpt lat="41.075321026146412" lon="-8.185271015390754">
        <ele>368.80000000000001</ele>
        <time>2025-05-03T12:01:41Z</time>
      </trkpt>
      <trkpt lat="41.075233016163111" lon="-8.185385009273887">
        <ele>368.31999999999999</ele>
        <time>2025-05-03T12:01:42Z</time>
      </trkpt>
      <trkpt lat="41.0744150262326" lon="-8.186393016949296">
        <ele>368.31999999999999</ele>
        <time>2025-05-03T12:01:51Z</time>
      </trkpt>
      <trkpt lat="41.073776995763183" lon="-8.18736900575459">
        <ele>366.39999999999998</ele>
        <time>2025-05-03T12:01:59Z</time>
      </trkpt>
      <trkpt lat="41.073392014950514" lon="-8.188005024567246">
        <ele>368.31999999999999</ele>
        <time>2025-05-03T12:02:04Z</time>
      </trkpt>
      <trkpt lat="41.073293024674058" lon="-8.188085993751884">
        <ele>368.80000000000001</ele>
        <time>2025-05-03T12:02:05Z</time>
      </trkpt>
      <trkpt lat="41.073182970285416" lon="-8.188155982643366">
        <ele>368.80000000000001</ele>
        <time>2025-05-03T12:02:06Z</time>
      </trkpt>
      <trkpt lat="41.073069982230663" lon="-8.188226977363229">
        <ele>369.27999999999997</ele>
        <time>2025-05-03T12:02:07Z</time>
      </trkpt>
      <trkpt lat="41.072959005832672" lon="-8.188297972083092">
        <ele>369.27999999999997</ele>
        <time>2025-05-03T12:02:08Z</time>
      </trkpt>
      <trkpt lat="41.072518033906817" lon="-8.188583962619305">
        <ele>369.75999999999999</ele>
        <time>2025-05-03T12:02:12Z</time>
      </trkpt>
      <trkpt lat="41.07241895981133" lon="-8.188682030886412">
        <ele>369.75999999999999</ele>
        <time>2025-05-03T12:02:13Z</time>
      </trkpt>
      <trkpt lat="41.072332039475441" lon="-8.188792001456022">
        <ele>369.75999999999999</ele>
        <time>2025-05-03T12:02:14Z</time>
      </trkpt>
      <trkpt lat="41.072246041148901" lon="-8.188900966197252">
        <ele>369.75999999999999</ele>
        <time>2025-05-03T12:02:15Z</time>
      </trkpt>
      <trkpt lat="41.0721580311656" lon="-8.189013032242656">
        <ele>370.24000000000001</ele>
        <time>2025-05-03T12:02:16Z</time>
      </trkpt>
      <trkpt lat="41.071973964571953" lon="-8.189220987260342">
        <ele>371.20999999999998</ele>
        <time>2025-05-03T12:02:18Z</time>
      </trkpt>
      <trkpt lat="41.0718800034374" lon="-8.189327018335462">
        <ele>372.17000000000002</ele>
        <time>2025-05-03T12:02:19Z</time>
      </trkpt>
      <trkpt lat="41.071595018729568" lon="-8.189637986943126">
        <ele>374.08999999999997</ele>
        <time>2025-05-03T12:02:22Z</time>
      </trkpt>
      <trkpt lat="41.071526035666466" lon="-8.189760027453303">
        <ele>374.56999999999999</ele>
        <time>2025-05-03T12:02:23Z</time>
      </trkpt>
      <trkpt lat="41.071479013189673" lon="-8.18990302272141">
        <ele>375.05000000000001</ele>
        <time>2025-05-03T12:02:24Z</time>
      </trkpt>
      <trkpt lat="41.07142997905612" lon="-8.190048029646277">
        <ele>375.52999999999997</ele>
        <time>2025-05-03T12:02:25Z</time>
      </trkpt>
      <trkpt lat="41.071400977671146" lon="-8.190194964408875">
        <ele>376.49000000000001</ele>
        <time>2025-05-03T12:02:26Z</time>
      </trkpt>
      <trkpt lat="41.071400977671146" lon="-8.190371990203857">
        <ele>376.97000000000003</ele>
        <time>2025-05-03T12:02:27Z</time>
      </trkpt>
      <trkpt lat="41.071440037339926" lon="-8.190508028492332">
        <ele>377.94</ele>
        <time>2025-05-03T12:02:28Z</time>
      </trkpt>
      <trkpt lat="41.071483036503196" lon="-8.190659992396832">
        <ele>378.42000000000002</ele>
        <time>2025-05-03T12:02:29Z</time>
      </trkpt>
      <trkpt lat="41.071527041494846" lon="-8.190812962129712">
        <ele>379.38</ele>
        <time>2025-05-03T12:02:30Z</time>
      </trkpt>
      <trkpt lat="41.071570040658116" lon="-8.190965009853244">
        <ele>379.86000000000001</ele>
        <time>2025-05-03T12:02:31Z</time>
      </trkpt>
      <trkpt lat="41.071656960994005" lon="-8.19108797237277">
        <ele>380.33999999999997</ele>
        <time>2025-05-03T12:02:32Z</time>
      </trkpt>
      <trkpt lat="41.071743965148926" lon="-8.191209007054567">
        <ele>381.30000000000001</ele>
        <time>2025-05-03T12:02:33Z</time>
      </trkpt>
      <trkpt lat="41.071829963475466" lon="-8.191285030916333">
        <ele>381.77999999999997</ele>
        <time>2025-05-03T12:02:34Z</time>
      </trkpt>
      <trkpt lat="41.072306977584958" lon="-8.191741006448865">
        <ele>385.14999999999998</ele>
        <time>2025-05-03T12:02:39Z</time>
      </trkpt>
      <trkpt lat="41.072401022538543" lon="-8.191842008382082">
        <ele>385.63</ele>
        <time>2025-05-03T12:02:40Z</time>
      </trkpt>
      <trkpt lat="41.072463970631361" lon="-8.191968994215131">
        <ele>386.11000000000001</ele>
        <time>2025-05-03T12:02:41Z</time>
      </trkpt>
      <trkpt lat="41.072518033906817" lon="-8.192124981433153">
        <ele>386.58999999999997</ele>
        <time>2025-05-03T12:02:42Z</time>
      </trkpt>
      <trkpt lat="41.072572013363242" lon="-8.192279962822795">
        <ele>387.06999999999999</ele>
        <time>2025-05-03T12:02:43Z</time>
      </trkpt>
      <trkpt lat="41.073146006092429" lon="-8.193659037351608">
        <ele>385.63</ele>
        <time>2025-05-03T12:02:53Z</time>
      </trkpt>
      <trkpt lat="41.073230998590589" lon="-8.193747969344258">
        <ele>385.14999999999998</ele>
        <time>2025-05-03T12:02:54Z</time>
      </trkpt>
      <trkpt lat="41.073340969160199" lon="-8.193776970729232">
        <ele>384.18000000000001</ele>
        <time>2025-05-03T12:02:55Z</time>
      </trkpt>
      <trkpt lat="41.073454963043332" lon="-8.193806977942586">
        <ele>383.69999999999999</ele>
        <time>2025-05-03T12:02:56Z</time>
      </trkpt>
      <trkpt lat="41.073571974411607" lon="-8.193837990984321">
        <ele>382.74000000000001</ele>
        <time>2025-05-03T12:02:57Z</time>
      </trkpt>
      <trkpt lat="41.075004022568464" lon="-8.194154994562268">
        <ele>376.00999999999999</ele>
        <time>2025-05-03T12:03:09Z</time>
      </trkpt>
      <trkpt lat="41.075246008113027" lon="-8.194233030080795">
        <ele>375.52999999999997</ele>
        <time>2025-05-03T12:03:11Z</time>
      </trkpt>
      <trkpt lat="41.075358996167779" lon="-8.194300001487136">
        <ele>375.52999999999997</ele>
        <time>2025-05-03T12:03:12Z</time>
      </trkpt>
      <trkpt lat="41.075499979779124" lon="-8.194384993985295">
        <ele>375.52999999999997</ele>
        <time>2025-05-03T12:03:13Z</time>
      </trkpt>
      <trkpt lat="41.07557499781251" lon="-8.194460012018681">
        <ele>375.52999999999997</ele>
        <time>2025-05-03T12:03:14Z</time>
      </trkpt>
      <trkpt lat="41.075673988088965" lon="-8.194559002295137">
        <ele>375.52999999999997</ele>
        <time>2025-05-03T12:03:15Z</time>
      </trkpt>
      <trkpt lat="41.075772978365421" lon="-8.194647012278438">
        <ele>375.05000000000001</ele>
        <time>2025-05-03T12:03:16Z</time>
      </trkpt>
      <trkpt lat="41.075882026925683" lon="-8.194721024483442">
        <ele>375.05000000000001</ele>
        <time>2025-05-03T12:03:17Z</time>
      </trkpt>
      <trkpt lat="41.075993003323674" lon="-8.194796964526177">
        <ele>375.05000000000001</ele>
        <time>2025-05-03T12:03:18Z</time>
      </trkpt>
      <trkpt lat="41.076987013220787" lon="-8.195449998602271">
        <ele>373.13</ele>
        <time>2025-05-03T12:03:27Z</time>
      </trkpt>
      <trkpt lat="41.07707804068923" lon="-8.195552006363869">
        <ele>373.13</ele>
        <time>2025-05-03T12:03:28Z</time>
      </trkpt>
      <trkpt lat="41.077125985175371" lon="-8.195692989975214">
        <ele>372.64999999999998</ele>
        <time>2025-05-03T12:03:29Z</time>
      </trkpt>
      <trkpt lat="41.077147023752332" lon="-8.195828022435308">
        <ele>372.17000000000002</ele>
        <time>2025-05-03T12:03:30Z</time>
      </trkpt>
      <trkpt lat="41.077173007652164" lon="-8.195993984118104">
        <ele>371.69</ele>
        <time>2025-05-03T12:03:31Z</time>
      </trkpt>
      <trkpt lat="41.077173007652164" lon="-8.196098003536463">
        <ele>371.20999999999998</ele>
        <time>2025-05-03T12:03:32Z</time>
      </trkpt>
      <trkpt lat="41.077199997380376" lon="-8.196215014904738">
        <ele>370.24000000000001</ele>
        <time>2025-05-03T12:03:33Z</time>
      </trkpt>
      <trkpt lat="41.077248025685549" lon="-8.196344012394548">
        <ele>369.75999999999999</ele>
        <time>2025-05-03T12:03:34Z</time>
      </trkpt>
      <trkpt lat="41.077297981828451" lon="-8.196476027369499">
        <ele>368.80000000000001</ele>
        <time>2025-05-03T12:03:35Z</time>
      </trkpt>
      <trkpt lat="41.077378029003739" lon="-8.196554984897375">
        <ele>368.31999999999999</ele>
        <time>2025-05-03T12:03:36Z</time>
      </trkpt>
      <trkpt lat="41.077474001795053" lon="-8.196639977395535">
        <ele>368.31999999999999</ele>
        <time>2025-05-03T12:03:37Z</time>
      </trkpt>
      <trkpt lat="41.077572992071509" lon="-8.196728993207216">
        <ele>367.36000000000001</ele>
        <time>2025-05-03T12:03:38Z</time>
      </trkpt>
      <trkpt lat="41.07869298197329" lon="-8.197396025061607">
        <ele>359.67000000000002</ele>
        <time>2025-05-03T12:03:48Z</time>
      </trkpt>
      <trkpt lat="41.078891968354583" lon="-8.197499038651586">
        <ele>358.23000000000002</ele>
        <time>2025-05-03T12:03:50Z</time>
      </trkpt>
      <trkpt lat="41.078991964459419" lon="-8.197568021714687">
        <ele>357.26999999999998</ele>
        <time>2025-05-03T12:03:51Z</time>
      </trkpt>
      <trkpt lat="41.079104030504823" lon="-8.197645973414183">
        <ele>356.79000000000002</ele>
        <time>2025-05-03T12:03:52Z</time>
      </trkpt>
      <trkpt lat="41.079190028831363" lon="-8.197748987004161">
        <ele>356.31</ele>
        <time>2025-05-03T12:03:53Z</time>
      </trkpt>
      <trkpt lat="41.079281978309155" lon="-8.197858035564423">
        <ele>355.82999999999998</ele>
        <time>2025-05-03T12:03:54Z</time>
      </trkpt>
      <trkpt lat="41.080006007105112" lon="-8.198689017444849">
        <ele>350.06</ele>
        <time>2025-05-03T12:04:02Z</time>
      </trkpt>
      <trkpt lat="41.080120000988245" lon="-8.198724975809455">
        <ele>349.10000000000002</ele>
        <time>2025-05-03T12:04:03Z</time>
      </trkpt>
      <trkpt lat="41.080242041498423" lon="-8.198762023821473">
        <ele>347.64999999999998</ele>
        <time>2025-05-03T12:04:04Z</time>
      </trkpt>
      <trkpt lat="41.080336002632976" lon="-8.198711983859539">
        <ele>346.20999999999998</ele>
        <time>2025-05-03T12:04:05Z</time>
      </trkpt>
      <trkpt lat="41.080435998737812" lon="-8.198659010231495">
        <ele>345.25</ele>
        <time>2025-05-03T12:04:06Z</time>
      </trkpt>
      <trkpt lat="41.080542029812932" lon="-8.198603019118309">
        <ele>344.29000000000002</ele>
        <time>2025-05-03T12:04:07Z</time>
      </trkpt>
      <trkpt lat="41.080645965412259" lon="-8.198582986369729">
        <ele>343.81</ele>
        <time>2025-05-03T12:04:08Z</time>
      </trkpt>
      <trkpt lat="41.080744033679366" lon="-8.198619028553367">
        <ele>343.32999999999998</ele>
        <time>2025-05-03T12:04:09Z</time>
      </trkpt>
      <trkpt lat="41.080846963450313" lon="-8.198665967211127">
        <ele>343.32999999999998</ele>
        <time>2025-05-03T12:04:10Z</time>
      </trkpt>
      <trkpt lat="41.080894991755486" lon="-8.198778033256531">
        <ele>342.85000000000002</ele>
        <time>2025-05-03T12:04:11Z</time>
      </trkpt>
      <trkpt lat="41.080918963998556" lon="-8.19890501908958">
        <ele>342.85000000000002</ele>
        <time>2025-05-03T12:04:12Z</time>
      </trkpt>
      <trkpt lat="41.080903960391879" lon="-8.199025969952345">
        <ele>342.37</ele>
        <time>2025-05-03T12:04:13Z</time>
      </trkpt>
      <trkpt lat="41.080852998420596" lon="-8.199127977713943">
        <ele>342.37</ele>
        <time>2025-05-03T12:04:14Z</time>
      </trkpt>
      <trkpt lat="41.080777980387211" lon="-8.199277007952333">
        <ele>341.88999999999999</ele>
        <time>2025-05-03T12:04:15Z</time>
      </trkpt>
      <trkpt lat="41.080718971788883" lon="-8.199340039864183">
        <ele>341.41000000000003</ele>
        <time>2025-05-03T12:04:16Z</time>
      </trkpt>
      <trkpt lat="41.080477992072701" lon="-8.199599040672183">
        <ele>340.44</ele>
        <time>2025-05-03T12:04:19Z</time>
      </trkpt>
      <trkpt lat="41.080361986532807" lon="-8.199650002643466">
        <ele>339.95999999999998</ele>
        <time>2025-05-03T12:04:20Z</time>
      </trkpt>
      <trkpt lat="41.080264002084732" lon="-8.199694007635117">
        <ele>339.48000000000002</ele>
        <time>2025-05-03T12:04:21Z</time>
      </trkpt>
      <trkpt lat="41.079364959150553" lon="-8.200133973732591">
        <ele>335.63999999999999</ele>
        <time>2025-05-03T12:04:29Z</time>
      </trkpt>
      <trkpt lat="41.079046027734876" lon="-8.200294990092516">
        <ele>333.70999999999998</ele>
        <time>2025-05-03T12:04:32Z</time>
      </trkpt>
      <trkpt lat="41.078953994438052" lon="-8.200370008125901">
        <ele>332.75</ele>
        <time>2025-05-03T12:04:33Z</time>
      </trkpt>
      <trkpt lat="41.07886397279799" lon="-8.200443014502525">
        <ele>331.79000000000002</ele>
        <time>2025-05-03T12:04:34Z</time>
      </trkpt>
      <trkpt lat="41.078794989734888" lon="-8.200561031699181">
        <ele>330.82999999999998</ele>
        <time>2025-05-03T12:04:35Z</time>
      </trkpt>
      <trkpt lat="41.078748973086476" lon="-8.200691035017371">
        <ele>329.87</ele>
        <time>2025-05-03T12:04:36Z</time>
      </trkpt>
      <trkpt lat="41.078721983358264" lon="-8.200824977830052">
        <ele>328.91000000000003</ele>
        <time>2025-05-03T12:04:37Z</time>
      </trkpt>
      <trkpt lat="41.078727012500167" lon="-8.200955986976624">
        <ele>327.94999999999999</ele>
        <time>2025-05-03T12:04:38Z</time>
      </trkpt>
      <trkpt lat="41.078740004450083" lon="-8.201122032478452">
        <ele>327.47000000000003</ele>
        <time>2025-05-03T12:04:39Z</time>
      </trkpt>
      <trkpt lat="41.078761965036392" lon="-8.201237032189965">
        <ele>326.99000000000001</ele>
        <time>2025-05-03T12:04:40Z</time>
      </trkpt>
      <trkpt lat="41.078789960592985" lon="-8.201382961124182">
        <ele>326.5</ele>
        <time>2025-05-03T12:04:41Z</time>
      </trkpt>
      <trkpt lat="41.078818961977959" lon="-8.201531991362572">
        <ele>326.01999999999998</ele>
        <time>2025-05-03T12:04:42Z</time>
      </trkpt>
      <trkpt lat="41.078847963362932" lon="-8.201683033257723">
        <ele>325.54000000000002</ele>
        <time>2025-05-03T12:04:43Z</time>
      </trkpt>
      <trkpt lat="41.078996993601322" lon="-8.202299019321799">
        <ele>323.62</ele>
        <time>2025-05-03T12:04:47Z</time>
      </trkpt>
      <trkpt lat="41.079038986936212" lon="-8.202448971569538">
        <ele>323.13999999999999</ele>
        <time>2025-05-03T12:04:48Z</time>
      </trkpt>
      <trkpt lat="41.079005962237716" lon="-8.20262499153614">
        <ele>322.66000000000003</ele>
        <time>2025-05-03T12:04:49Z</time>
      </trkpt>
      <trkpt lat="41.078973021358252" lon="-8.202786007896066">
        <ele>322.66000000000003</ele>
        <time>2025-05-03T12:04:50Z</time>
      </trkpt>
      <trkpt lat="41.078942008316517" lon="-8.20294501259923">
        <ele>322.18000000000001</ele>
        <time>2025-05-03T12:04:51Z</time>
      </trkpt>
      <trkpt lat="41.078615030273795" lon="-8.204325009137392">
        <ele>319.77999999999997</ele>
        <time>2025-05-03T12:05:00Z</time>
      </trkpt>
      <trkpt lat="41.078547975048423" lon="-8.204635977745056">
        <ele>318.32999999999998</ele>
        <time>2025-05-03T12:05:02Z</time>
      </trkpt>
      <trkpt lat="41.078358963131905" lon="-8.205219022929668">
        <ele>317.37</ele>
        <time>2025-05-03T12:05:06Z</time>
      </trkpt>
      <trkpt lat="41.078271036967635" lon="-8.205333016812801">
        <ele>316.88999999999999</ele>
        <time>2025-05-03T12:05:07Z</time>
      </trkpt>
      <trkpt lat="41.078180009499192" lon="-8.205427983775735">
        <ele>316.88999999999999</ele>
        <time>2025-05-03T12:05:08Z</time>
      </trkpt>
      <trkpt lat="41.077747000381351" lon="-8.205752028152347">
        <ele>315.93000000000001</ele>
        <time>2025-05-03T12:05:12Z</time>
      </trkpt>
      <trkpt lat="41.077636023983359" lon="-8.205807013437152">
        <ele>315.44999999999999</ele>
        <time>2025-05-03T12:05:13Z</time>
      </trkpt>
      <trkpt lat="41.077517000958323" lon="-8.205834003165364">
        <ele>315.44999999999999</ele>
        <time>2025-05-03T12:05:14Z</time>
      </trkpt>
      <trkpt lat="41.077151969075203" lon="-8.205920001491904">
        <ele>314.49000000000001</ele>
        <time>2025-05-03T12:05:17Z</time>
      </trkpt>
      <trkpt lat="41.077044010162354" lon="-8.205950008705258">
        <ele>314.00999999999999</ele>
        <time>2025-05-03T12:05:18Z</time>
      </trkpt>
      <trkpt lat="41.076944014057517" lon="-8.206079006195068">
        <ele>313.52999999999997</ele>
        <time>2025-05-03T12:05:19Z</time>
      </trkpt>
      <trkpt lat="41.076893974095583" lon="-8.206142960116267">
        <ele>312.56999999999999</ele>
        <time>2025-05-03T12:05:20Z</time>
      </trkpt>
      <trkpt lat="41.076845023781061" lon="-8.206315040588379">
        <ele>311.60000000000002</ele>
        <time>2025-05-03T12:05:21Z</time>
      </trkpt>
      <trkpt lat="41.076801018789411" lon="-8.20646901614964">
        <ele>310.63999999999999</ele>
        <time>2025-05-03T12:05:22Z</time>
      </trkpt>
      <trkpt lat="41.076621981337667" lon="-8.207255993038416">
        <ele>307.75999999999999</ele>
        <time>2025-05-03T12:05:27Z</time>
      </trkpt>
      <trkpt lat="41.076593985781074" lon="-8.207431007176638">
        <ele>307.75999999999999</ele>
        <time>2025-05-03T12:05:28Z</time>
      </trkpt>
      <trkpt lat="41.076619969680905" lon="-8.207547012716532">
        <ele>307.75999999999999</ele>
        <time>2025-05-03T12:05:29Z</time>
      </trkpt>
      <trkpt lat="41.076679984107614" lon="-8.207661006599665">
        <ele>306.80000000000001</ele>
        <time>2025-05-03T12:05:30Z</time>
      </trkpt>
      <trkpt lat="41.076746033504605" lon="-8.207771982997656">
        <ele>305.83999999999997</ele>
        <time>2025-05-03T12:05:31Z</time>
      </trkpt>
      <trkpt lat="41.076811999082565" lon="-8.207883965224028">
        <ele>304.88</ele>
        <time>2025-05-03T12:05:32Z</time>
      </trkpt>
      <trkpt lat="41.076878970488906" lon="-8.207997037097812">
        <ele>304.88</ele>
        <time>2025-05-03T12:05:33Z</time>
      </trkpt>
      <trkpt lat="41.076940996572375" lon="-8.208125028759241">
        <ele>303.91000000000003</ele>
        <time>2025-05-03T12:05:34Z</time>
      </trkpt>
      <trkpt lat="41.076957006007433" lon="-8.208253020420671">
        <ele>303.43000000000001</ele>
        <time>2025-05-03T12:05:35Z</time>
      </trkpt>
      <trkpt lat="41.076924987137318" lon="-8.208392998203635">
        <ele>302.47000000000003</ele>
        <time>2025-05-03T12:05:36Z</time>
      </trkpt>
      <trkpt lat="41.076894979923964" lon="-8.208507997915149">
        <ele>301.99000000000001</ele>
        <time>2025-05-03T12:05:37Z</time>
      </trkpt>
      <trkpt lat="41.076862961053848" lon="-8.20861897431314">
        <ele>301.50999999999999</ele>
        <time>2025-05-03T12:05:38Z</time>
      </trkpt>
      <trkpt lat="41.076753996312618" lon="-8.208946036174893">
        <ele>299.11000000000001</ele>
        <time>2025-05-03T12:05:41Z</time>
      </trkpt>
      <trkpt lat="41.076696999371052" lon="-8.209053995087743">
        <ele>298.63</ele>
        <time>2025-05-03T12:05:42Z</time>
      </trkpt>
      <trkpt lat="41.076632961630821" lon="-8.209161031991243">
        <ele>297.67000000000002</ele>
        <time>2025-05-03T12:05:43Z</time>
      </trkpt>
      <trkpt lat="41.076571019366384" lon="-8.20926396176219">
        <ele>296.69999999999999</ele>
        <time>2025-05-03T12:05:44Z</time>
      </trkpt>
      <trkpt lat="41.076506981626153" lon="-8.209372004494071">
        <ele>296.22000000000003</ele>
        <time>2025-05-03T12:05:45Z</time>
      </trkpt>
      <trkpt lat="41.076226020231843" lon="-8.209705017507076">
        <ele>294.30000000000001</ele>
        <time>2025-05-03T12:05:48Z</time>
      </trkpt>
      <trkpt lat="41.075722016394138" lon="-8.210270963609219">
        <ele>290.45999999999998</ele>
        <time>2025-05-03T12:05:53Z</time>
      </trkpt>
      <trkpt lat="41.075657978653908" lon="-8.210425022989512">
        <ele>289.49000000000001</ele>
        <time>2025-05-03T12:05:54Z</time>
      </trkpt>
      <trkpt lat="41.075637023895979" lon="-8.210584027692676">
        <ele>289.00999999999999</ele>
        <time>2025-05-03T12:05:55Z</time>
      </trkpt>
      <trkpt lat="41.075663007795811" lon="-8.210750995203853">
        <ele>288.52999999999997</ele>
        <time>2025-05-03T12:05:56Z</time>
      </trkpt>
      <trkpt lat="41.075714975595474" lon="-8.210901031270623">
        <ele>288.05000000000001</ele>
        <time>2025-05-03T12:05:57Z</time>
      </trkpt>
      <trkpt lat="41.075764009729028" lon="-8.211046038195491">
        <ele>287.56999999999999</ele>
        <time>2025-05-03T12:05:58Z</time>
      </trkpt>
      <trkpt lat="41.07581396587193" lon="-8.211190039291978">
        <ele>287.08999999999997</ele>
        <time>2025-05-03T12:05:59Z</time>
      </trkpt>
      <trkpt lat="41.075863000005484" lon="-8.211334040388465">
        <ele>286.13</ele>
        <time>2025-05-03T12:06:00Z</time>
      </trkpt>
      <trkpt lat="41.075872974470258" lon="-8.211438981816173">
        <ele>285.17000000000002</ele>
        <time>2025-05-03T12:06:01Z</time>
      </trkpt>
      <trkpt lat="41.075830981135368" lon="-8.211573008447886">
        <ele>284.20999999999998</ele>
        <time>2025-05-03T12:06:02Z</time>
      </trkpt>
      <trkpt lat="41.075786976143718" lon="-8.21171198040247">
        <ele>283.25</ele>
        <time>2025-05-03T12:06:03Z</time>
      </trkpt>
      <trkpt lat="41.075740959495306" lon="-8.211856987327337">
        <ele>282.27999999999997</ele>
        <time>2025-05-03T12:06:04Z</time>
      </trkpt>
      <trkpt lat="41.075736014172435" lon="-8.212024960666895">
        <ele>281.31999999999999</ele>
        <time>2025-05-03T12:06:05Z</time>
      </trkpt>
      <trkpt lat="41.075736014172435" lon="-8.212215984240174">
        <ele>280.36000000000001</ele>
        <time>2025-05-03T12:06:06Z</time>
      </trkpt>
      <trkpt lat="41.075781024992466" lon="-8.212339030578733">
        <ele>279.88</ele>
        <time>2025-05-03T12:06:07Z</time>
      </trkpt>
      <trkpt lat="41.07583299279213" lon="-8.21248303167522">
        <ele>279.39999999999998</ele>
        <time>2025-05-03T12:06:08Z</time>
      </trkpt>
      <trkpt lat="41.075886972248554" lon="-8.212628038600087">
        <ele>279.39999999999998</ele>
        <time>2025-05-03T12:06:09Z</time>
      </trkpt>
      <trkpt lat="41.07594002969563" lon="-8.212772961705923">
        <ele>278.92000000000002</ele>
        <time>2025-05-03T12:06:10Z</time>
      </trkpt>
      <trkpt lat="41.075964001938701" lon="-8.212918974459171">
        <ele>278.44</ele>
        <time>2025-05-03T12:06:11Z</time>
      </trkpt>
      <trkpt lat="41.075942041352391" lon="-8.213079990819097">
        <ele>277.95999999999998</ele>
        <time>2025-05-03T12:06:12Z</time>
      </trkpt>
      <trkpt lat="41.075904993340373" lon="-8.213241007179022">
        <ele>277</ele>
        <time>2025-05-03T12:06:13Z</time>
      </trkpt>
      <trkpt lat="41.075841961428523" lon="-8.213400011882186">
        <ele>276.04000000000002</ele>
        <time>2025-05-03T12:06:14Z</time>
      </trkpt>
      <trkpt lat="41.075701983645558" lon="-8.213706035166979">
        <ele>275.06999999999999</ele>
        <time>2025-05-03T12:06:16Z</time>
      </trkpt>
      <trkpt lat="41.075624031946063" lon="-8.213838972151279">
        <ele>275.06999999999999</ele>
        <time>2025-05-03T12:06:17Z</time>
      </trkpt>
      <trkpt lat="41.075521018356085" lon="-8.213916001841426">
        <ele>274.58999999999997</ele>
        <time>2025-05-03T12:06:18Z</time>
      </trkpt>
      <trkpt lat="41.07540400698781" lon="-8.213980961591005">
        <ele>274.11000000000001</ele>
        <time>2025-05-03T12:06:19Z</time>
      </trkpt>
      <trkpt lat="41.075278026983142" lon="-8.214051034301519">
        <ele>273.14999999999998</ele>
        <time>2025-05-03T12:06:20Z</time>
      </trkpt>
      <trkpt lat="41.07516503892839" lon="-8.214152958244085">
        <ele>272.67000000000002</ele>
        <time>2025-05-03T12:06:21Z</time>
      </trkpt>
      <trkpt lat="41.075064036995173" lon="-8.214282039552927">
        <ele>271.70999999999998</ele>
        <time>2025-05-03T12:06:22Z</time>
      </trkpt>
      <trkpt lat="41.074965968728065" lon="-8.214423023164272">
        <ele>271.23000000000002</ele>
        <time>2025-05-03T12:06:23Z</time>
      </trkpt>
      <trkpt lat="41.074893968179822" lon="-8.214579010382295">
        <ele>270.75</ele>
        <time>2025-05-03T12:06:24Z</time>
      </trkpt>
      <trkpt lat="41.074799001216888" lon="-8.214889978989959">
        <ele>268.82999999999998</ele>
        <time>2025-05-03T12:06:26Z</time>
      </trkpt>
      <trkpt lat="41.074775028973818" lon="-8.215029034763575">
        <ele>268.35000000000002</ele>
        <time>2025-05-03T12:06:27Z</time>
      </trkpt>
      <trkpt lat="41.074805958196521" lon="-8.215174963697791">
        <ele>267.86000000000001</ele>
        <time>2025-05-03T12:06:28Z</time>
      </trkpt>
      <trkpt lat="41.074837977066636" lon="-8.215320976451039">
        <ele>267.38</ele>
        <time>2025-05-03T12:06:29Z</time>
      </trkpt>
      <trkpt lat="41.074869995936751" lon="-8.215473024174571">
        <ele>266.89999999999998</ele>
        <time>2025-05-03T12:06:30Z</time>
      </trkpt>
      <trkpt lat="41.074889022856951" lon="-8.215637980028987">
        <ele>265.94</ele>
        <time>2025-05-03T12:06:31Z</time>
      </trkpt>
      <trkpt lat="41.074843006208539" lon="-8.215784998610616">
        <ele>265.45999999999998</ele>
        <time>2025-05-03T12:06:32Z</time>
      </trkpt>
      <trkpt lat="41.074791038408875" lon="-8.215950038284063">
        <ele>264.5</ele>
        <time>2025-05-03T12:06:33Z</time>
      </trkpt>
      <trkpt lat="41.074725994840264" lon="-8.216086998581886">
        <ele>263.54000000000002</ele>
        <time>2025-05-03T12:06:34Z</time>
      </trkpt>
      <trkpt lat="41.074649970978498" lon="-8.216249020770192">
        <ele>262.57999999999998</ele>
        <time>2025-05-03T12:06:35Z</time>
      </trkpt>
      <trkpt lat="41.074238000437617" lon="-8.217182010412216">
        <ele>258.25</ele>
        <time>2025-05-03T12:06:41Z</time>
      </trkpt>
      <trkpt lat="41.074208999052644" lon="-8.217345960438252">
        <ele>257.29000000000002</ele>
        <time>2025-05-03T12:06:42Z</time>
      </trkpt>
      <trkpt lat="41.074207993224263" lon="-8.217515023425221">
        <ele>256.81</ele>
        <time>2025-05-03T12:06:43Z</time>
      </trkpt>
      <trkpt lat="41.074249986559153" lon="-8.217671010643244">
        <ele>256.32999999999998</ele>
        <time>2025-05-03T12:06:44Z</time>
      </trkpt>
      <trkpt lat="41.074289968237281" lon="-8.217820040881634">
        <ele>256.32999999999998</ele>
        <time>2025-05-03T12:06:45Z</time>
      </trkpt>
      <trkpt lat="41.07432802207768" lon="-8.21796303614974">
        <ele>255.84999999999999</ele>
        <time>2025-05-03T12:06:46Z</time>
      </trkpt>
      <trkpt lat="41.074320981279016" lon="-8.218107037246227">
        <ele>255.37</ele>
        <time>2025-05-03T12:06:47Z</time>
      </trkpt>
      <trkpt lat="41.074290974065661" lon="-8.218261012807488">
        <ele>254.41</ele>
        <time>2025-05-03T12:06:48Z</time>
      </trkpt>
      <trkpt lat="41.074232971295714" lon="-8.218389004468918">
        <ele>253.93000000000001</ele>
        <time>2025-05-03T12:06:49Z</time>
      </trkpt>
      <trkpt lat="41.074144961312413" lon="-8.218507021665573">
        <ele>252.96000000000001</ele>
        <time>2025-05-03T12:06:50Z</time>
      </trkpt>
      <trkpt lat="41.07405100017786" lon="-8.21860802359879">
        <ele>252</ele>
        <time>2025-05-03T12:06:51Z</time>
      </trkpt>
      <trkpt lat="41.073932982981205" lon="-8.218681029975414">
        <ele>251.52000000000001</ele>
        <time>2025-05-03T12:06:52Z</time>
      </trkpt>
      <trkpt lat="41.073809014633298" lon="-8.218756970018148">
        <ele>251.03999999999999</ele>
        <time>2025-05-03T12:06:53Z</time>
      </trkpt>
      <trkpt lat="41.073684962466359" lon="-8.218836011365056">
        <ele>250.08000000000001</ele>
        <time>2025-05-03T12:06:54Z</time>
      </trkpt>
      <trkpt lat="41.073571974411607" lon="-8.21893198415637">
        <ele>249.59999999999999</ele>
        <time>2025-05-03T12:06:55Z</time>
      </trkpt>
      <trkpt lat="41.073489999398589" lon="-8.219068022444844">
        <ele>249.12</ele>
        <time>2025-05-03T12:06:56Z</time>
      </trkpt>
      <trkpt lat="41.07342797331512" lon="-8.219215963035822">
        <ele>248.63999999999999</ele>
        <time>2025-05-03T12:06:57Z</time>
      </trkpt>
      <trkpt lat="41.073388997465372" lon="-8.219386031851172">
        <ele>248.63999999999999</ele>
        <time>2025-05-03T12:06:58Z</time>
      </trkpt>
      <trkpt lat="41.073347004130483" lon="-8.219566997140646">
        <ele>248.16</ele>
        <time>2025-05-03T12:06:59Z</time>
      </trkpt>
      <trkpt lat="41.073302999138832" lon="-8.219755003228784">
        <ele>247.68000000000001</ele>
        <time>2025-05-03T12:07:00Z</time>
      </trkpt>
      <trkpt lat="41.07325698249042" lon="-8.219952983781695">
        <ele>247.68000000000001</ele>
        <time>2025-05-03T12:07:01Z</time>
      </trkpt>
      <trkpt lat="41.073209960013628" lon="-8.22015599347651">
        <ele>247.19999999999999</ele>
        <time>2025-05-03T12:07:02Z</time>
      </trkpt>
      <trkpt lat="41.073163021355867" lon="-8.220355985686183">
        <ele>246.72</ele>
        <time>2025-05-03T12:07:03Z</time>
      </trkpt>
      <trkpt lat="41.073075011372566" lon="-8.2207350153476">
        <ele>245.75</ele>
        <time>2025-05-03T12:07:05Z</time>
      </trkpt>
      <trkpt lat="41.073098983615637" lon="-8.220940036699176">
        <ele>245.27000000000001</ele>
        <time>2025-05-03T12:07:06Z</time>
      </trkpt>
      <trkpt lat="41.073123961687088" lon="-8.221141034737229">
        <ele>245.27000000000001</ele>
        <time>2025-05-03T12:07:07Z</time>
      </trkpt>
      <trkpt lat="41.073254970833659" lon="-8.221717961132526">
        <ele>244.78999999999999</ele>
        <time>2025-05-03T12:07:10Z</time>
      </trkpt>
      <trkpt lat="41.073352033272386" lon="-8.22208902798593">
        <ele>244.78999999999999</ele>
        <time>2025-05-03T12:07:12Z</time>
      </trkpt>
      <trkpt lat="41.073396960273385" lon="-8.22226102463901">
        <ele>244.78999999999999</ele>
        <time>2025-05-03T12:07:13Z</time>
      </trkpt>
      <trkpt lat="41.073402995243669" lon="-8.222436038777232">
        <ele>244.31</ele>
        <time>2025-05-03T12:07:14Z</time>
      </trkpt>
      <trkpt lat="41.073374999687076" lon="-8.222610969096422">
        <ele>243.83000000000001</ele>
        <time>2025-05-03T12:07:15Z</time>
      </trkpt>
      <trkpt lat="41.073345998302102" lon="-8.222792018204927">
        <ele>243.34999999999999</ele>
        <time>2025-05-03T12:07:16Z</time>
      </trkpt>
      <trkpt lat="41.073314985260367" lon="-8.222977006807923">
        <ele>242.38999999999999</ele>
        <time>2025-05-03T12:07:17Z</time>
      </trkpt>
      <trkpt lat="41.073289001360536" lon="-8.223138023167849">
        <ele>241.43000000000001</ele>
        <time>2025-05-03T12:07:18Z</time>
      </trkpt>
      <trkpt lat="41.073289001360536" lon="-8.223351007327437">
        <ele>240.47</ele>
        <time>2025-05-03T12:07:19Z</time>
      </trkpt>
      <trkpt lat="41.073322026059031" lon="-8.22352803312242">
        <ele>239.02000000000001</ele>
        <time>2025-05-03T12:07:20Z</time>
      </trkpt>
      <trkpt lat="41.073373993858695" lon="-8.223706986755133">
        <ele>238.06</ele>
        <time>2025-05-03T12:07:21Z</time>
      </trkpt>
      <trkpt lat="41.073426967486739" lon="-8.223891975358129">
        <ele>236.62</ele>
        <time>2025-05-03T12:07:22Z</time>
      </trkpt>
      <trkpt lat="41.073774984106421" lon="-8.225244982168078">
        <ele>228.44999999999999</ele>
        <time>2025-05-03T12:07:29Z</time>
      </trkpt>
      <trkpt lat="41.073761992156506" lon="-8.225441034883261">
        <ele>227.97</ele>
        <time>2025-05-03T12:07:30Z</time>
      </trkpt>
      <trkpt lat="41.073741037398577" lon="-8.225599033758044">
        <ele>227.00999999999999</ele>
        <time>2025-05-03T12:07:31Z</time>
      </trkpt>
      <trkpt lat="41.073655039072037" lon="-8.225721996277571">
        <ele>226.05000000000001</ele>
        <time>2025-05-03T12:07:32Z</time>
      </trkpt>
      <trkpt lat="41.073567029088736" lon="-8.225844036787748">
        <ele>225.56999999999999</ele>
        <time>2025-05-03T12:07:33Z</time>
      </trkpt>
      <trkpt lat="41.073464015498757" lon="-8.225959036499262">
        <ele>224.61000000000001</ele>
        <time>2025-05-03T12:07:34Z</time>
      </trkpt>
      <trkpt lat="41.073253965005279" lon="-8.226221976801753">
        <ele>223.16</ele>
        <time>2025-05-03T12:07:36Z</time>
      </trkpt>
      <trkpt lat="41.073149023577571" lon="-8.226360026746988">
        <ele>222.68000000000001</ele>
        <time>2025-05-03T12:07:37Z</time>
      </trkpt>
      <trkpt lat="41.073052966967225" lon="-8.226485000923276">
        <ele>221.72</ele>
        <time>2025-05-03T12:07:38Z</time>
      </trkpt>
      <trkpt lat="41.072951965034008" lon="-8.226569993421435">
        <ele>220.75999999999999</ele>
        <time>2025-05-03T12:07:39Z</time>
      </trkpt>
      <trkpt lat="41.072859009727836" lon="-8.226592959836125">
        <ele>220.28</ele>
        <time>2025-05-03T12:07:40Z</time>
      </trkpt>
      <trkpt lat="41.072751972824335" lon="-8.226592959836125">
        <ele>219.31999999999999</ele>
        <time>2025-05-03T12:07:41Z</time>
      </trkpt>
      <trkpt lat="41.072640996426344" lon="-8.226583991199732">
        <ele>218.84</ele>
        <time>2025-05-03T12:07:42Z</time>
      </trkpt>
      <trkpt lat="41.072519039735198" lon="-8.226539986208081">
        <ele>217.88</ele>
        <time>2025-05-03T12:07:43Z</time>
      </trkpt>
      <trkpt lat="41.072390964254737" lon="-8.22649497538805">
        <ele>217.40000000000001</ele>
        <time>2025-05-03T12:07:44Z</time>
      </trkpt>
      <trkpt lat="41.072252998128533" lon="-8.226452982053161">
        <ele>216.91</ele>
        <time>2025-05-03T12:07:45Z</time>
      </trkpt>
      <trkpt lat="41.072112014517188" lon="-8.226421969011426">
        <ele>216.43000000000001</ele>
        <time>2025-05-03T12:07:46Z</time>
      </trkpt>
      <trkpt lat="41.071963990107179" lon="-8.226430015638471">
        <ele>215.47</ele>
        <time>2025-05-03T12:07:47Z</time>
      </trkpt>
      <trkpt lat="41.071819989010692" lon="-8.226437978446484">
        <ele>214.99000000000001</ele>
        <time>2025-05-03T12:07:48Z</time>
      </trkpt>
      <trkpt lat="41.071144994348288" lon="-8.226519031450152">
        <ele>209.22</ele>
        <time>2025-05-03T12:07:54Z</time>
      </trkpt>
      <trkpt lat="41.071068970486522" lon="-8.226578962057829">
        <ele>208.25999999999999</ele>
        <time>2025-05-03T12:07:55Z</time>
      </trkpt>
      <trkpt lat="41.070990012958646" lon="-8.226641993969679">
        <ele>207.78</ele>
        <time>2025-05-03T12:07:56Z</time>
      </trkpt>
      <trkpt lat="41.070923963561654" lon="-8.226740984246135">
        <ele>207.30000000000001</ele>
        <time>2025-05-03T12:07:57Z</time>
      </trkpt>
      <trkpt lat="41.070873001590371" lon="-8.226860007271171">
        <ele>206.34</ele>
        <time>2025-05-03T12:07:58Z</time>
      </trkpt>
      <trkpt lat="41.070844000205398" lon="-8.226984981447458">
        <ele>205.86000000000001</ele>
        <time>2025-05-03T12:07:59Z</time>
      </trkpt>
      <trkpt lat="41.070861015468836" lon="-8.227113978937268">
        <ele>204.90000000000001</ele>
        <time>2025-05-03T12:08:00Z</time>
      </trkpt>
      <trkpt lat="41.070879036560655" lon="-8.227250017225742">
        <ele>204.90000000000001</ele>
        <time>2025-05-03T12:08:01Z</time>
      </trkpt>
      <trkpt lat="41.070896973833442" lon="-8.227391000837088">
        <ele>204.41999999999999</ele>
        <time>2025-05-03T12:08:02Z</time>
      </trkpt>
      <trkpt lat="41.071036029607058" lon="-8.228288032114506">
        <ele>202.49000000000001</ele>
        <time>2025-05-03T12:08:08Z</time>
      </trkpt>
      <trkpt lat="41.070997975766659" lon="-8.228438990190625">
        <ele>202.00999999999999</ele>
        <time>2025-05-03T12:08:09Z</time>
      </trkpt>
      <trkpt lat="41.070942990481853" lon="-8.228552984073758">
        <ele>201.53</ele>
        <time>2025-05-03T12:08:10Z</time>
      </trkpt>
      <trkpt lat="41.070877024903893" lon="-8.228677958250046">
        <ele>201.05000000000001</ele>
        <time>2025-05-03T12:08:11Z</time>
      </trkpt>
      <trkpt lat="41.070822039619088" lon="-8.228780971840024">
        <ele>200.56999999999999</ele>
        <time>2025-05-03T12:08:12Z</time>
      </trkpt>
      <trkpt lat="41.070699999108911" lon="-8.228853978216648">
        <ele>199.61000000000001</ele>
        <time>2025-05-03T12:08:13Z</time>
      </trkpt>
      <trkpt lat="41.070600003004074" lon="-8.228910975158215">
        <ele>199.13</ele>
        <time>2025-05-03T12:08:14Z</time>
      </trkpt>
      <trkpt lat="41.070480979979038" lon="-8.228928996250033">
        <ele>198.65000000000001</ele>
        <time>2025-05-03T12:08:15Z</time>
      </trkpt>
      <trkpt lat="41.070361034944654" lon="-8.228947017341852">
        <ele>197.69</ele>
        <time>2025-05-03T12:08:16Z</time>
      </trkpt>
      <trkpt lat="41.070247963070869" lon="-8.22896403260529">
        <ele>197.21000000000001</ele>
        <time>2025-05-03T12:08:17Z</time>
      </trkpt>
      <trkpt lat="41.070132963359356" lon="-8.229000996798277">
        <ele>196.72999999999999</ele>
        <time>2025-05-03T12:08:18Z</time>
      </trkpt>
      <trkpt lat="41.070042019709945" lon="-8.229107027873397">
        <ele>196.25</ele>
        <time>2025-05-03T12:08:19Z</time>
      </trkpt>
      <trkpt lat="41.070005977526307" lon="-8.229189002886415">
        <ele>195.77000000000001</ele>
        <time>2025-05-03T12:08:20Z</time>
      </trkpt>
      <trkpt lat="41.070005977526307" lon="-8.229371979832649">
        <ele>195.28</ele>
        <time>2025-05-03T12:08:21Z</time>
      </trkpt>
      <trkpt lat="41.070005977526307" lon="-8.229525033384562">
        <ele>194.80000000000001</ele>
        <time>2025-05-03T12:08:22Z</time>
      </trkpt>
      <trkpt lat="41.069983011111617" lon="-8.22969501838088">
        <ele>194.31999999999999</ele>
        <time>2025-05-03T12:08:23Z</time>
      </trkpt>
      <trkpt lat="41.069958033040166" lon="-8.22986600920558">
        <ele>193.84</ele>
        <time>2025-05-03T12:08:24Z</time>
      </trkpt>
      <trkpt lat="41.069887038320303" lon="-8.230350986123085">
        <ele>191.91999999999999</ele>
        <time>2025-05-03T12:08:27Z</time>
      </trkpt>
      <trkpt lat="41.069890977814794" lon="-8.230504961684346">
        <ele>191.44</ele>
        <time>2025-05-03T12:08:28Z</time>
      </trkpt>
      <trkpt lat="41.069913022220135" lon="-8.2306610327214">
        <ele>190.96000000000001</ele>
        <time>2025-05-03T12:08:29Z</time>
      </trkpt>
      <trkpt lat="41.070078983902931" lon="-8.231759984046221">
        <ele>187.11000000000001</ele>
        <time>2025-05-03T12:08:36Z</time>
      </trkpt>
      <trkpt lat="41.070091975852847" lon="-8.231870960444212">
        <ele>186.15000000000001</ele>
        <time>2025-05-03T12:08:37Z</time>
      </trkpt>
      <trkpt lat="41.070034978911281" lon="-8.231999035924673">
        <ele>185.66999999999999</ele>
        <time>2025-05-03T12:08:38Z</time>
      </trkpt>
      <trkpt lat="41.069986028596759" lon="-8.232076987624168">
        <ele>185.19</ele>
        <time>2025-05-03T12:08:39Z</time>
      </trkpt>
      <trkpt lat="41.069908998906612" lon="-8.232126021757722">
        <ele>184.71000000000001</ele>
        <time>2025-05-03T12:08:40Z</time>
      </trkpt>
      <trkpt lat="41.069823000580072" lon="-8.232180001214147">
        <ele>184.22999999999999</ele>
        <time>2025-05-03T12:08:41Z</time>
      </trkpt>
      <trkpt lat="41.06887198984623" lon="-8.23270202614367">
        <ele>177.5</ele>
        <time>2025-05-03T12:08:51Z</time>
      </trkpt>
      <trkpt lat="41.06876696459949" lon="-8.232762040570378">
        <ele>177.5</ele>
        <time>2025-05-03T12:08:52Z</time>
      </trkpt>
      <trkpt lat="41.068668980151415" lon="-8.232846027240157">
        <ele>177.02000000000001</ele>
        <time>2025-05-03T12:08:53Z</time>
      </trkpt>
      <trkpt lat="41.0684659704566" lon="-8.233020035549998">
        <ele>176.06</ele>
        <time>2025-05-03T12:08:55Z</time>
      </trkpt>
      <trkpt lat="41.068364968523383" lon="-8.233106033876538">
        <ele>176.06</ele>
        <time>2025-05-03T12:08:56Z</time>
      </trkpt>
      <trkpt lat="41.06824804097414" lon="-8.233130006119609">
        <ele>175.58000000000001</ele>
        <time>2025-05-03T12:08:57Z</time>
      </trkpt>
      <trkpt lat="41.068133041262627" lon="-8.233145009726286">
        <ele>175.09999999999999</ele>
        <time>2025-05-03T12:08:58Z</time>
      </trkpt>
      <trkpt lat="41.068019969388843" lon="-8.233159007504582">
        <ele>174.62</ele>
        <time>2025-05-03T12:08:59Z</time>
      </trkpt>
      <trkpt lat="41.067913016304374" lon="-8.233173005282879">
        <ele>174.13999999999999</ele>
        <time>2025-05-03T12:09:00Z</time>
      </trkpt>
      <trkpt lat="41.06782098300755" lon="-8.233214998617768">
        <ele>173.16999999999999</ele>
        <time>2025-05-03T12:09:01Z</time>
      </trkpt>
      <trkpt lat="41.067741019651294" lon="-8.23328398168087">
        <ele>172.21000000000001</ele>
        <time>2025-05-03T12:09:02Z</time>
      </trkpt>
      <trkpt lat="41.067672958597541" lon="-8.233377020806074">
        <ele>171.72999999999999</ele>
        <time>2025-05-03T12:09:03Z</time>
      </trkpt>
      <trkpt lat="41.067630965262651" lon="-8.233504006639123">
        <ele>170.77000000000001</ele>
        <time>2025-05-03T12:09:04Z</time>
      </trkpt>
      <trkpt lat="41.067591989412904" lon="-8.233652031049132">
        <ele>170.28999999999999</ele>
        <time>2025-05-03T12:09:05Z</time>
      </trkpt>
      <trkpt lat="41.067564999684691" lon="-8.233813969418407">
        <ele>169.81</ele>
        <time>2025-05-03T12:09:06Z</time>
      </trkpt>
      <trkpt lat="41.067491993308067" lon="-8.234315039590001">
        <ele>167.41</ele>
        <time>2025-05-03T12:09:09Z</time>
      </trkpt>
      <trkpt lat="41.067469026893377" lon="-8.234470020979643">
        <ele>166.44999999999999</ele>
        <time>2025-05-03T12:09:10Z</time>
      </trkpt>
      <trkpt lat="41.067283032462001" lon="-8.235739963129163">
        <ele>160.68000000000001</ele>
        <time>2025-05-03T12:09:20Z</time>
      </trkpt>
      <trkpt lat="41.06723802164197" lon="-8.23596996255219">
        <ele>159.24000000000001</ele>
        <time>2025-05-03T12:09:22Z</time>
      </trkpt>
      <trkpt lat="41.066883970052004" lon="-8.236789964139462">
        <ele>155.87</ele>
        <time>2025-05-03T12:09:30Z</time>
      </trkpt>
      <trkpt lat="41.066775005310774" lon="-8.237025998532772">
        <ele>154.91</ele>
        <time>2025-05-03T12:09:32Z</time>
      </trkpt>
      <trkpt lat="41.06672303751111" lon="-8.237157007679343">
        <ele>154.43000000000001</ele>
        <time>2025-05-03T12:09:33Z</time>
      </trkpt>
      <trkpt lat="41.066710967570543" lon="-8.237308971583843">
        <ele>153.94999999999999</ele>
        <time>2025-05-03T12:09:34Z</time>
      </trkpt>
      <trkpt lat="41.066700993105769" lon="-8.237462025135756">
        <ele>152.99000000000001</ele>
        <time>2025-05-03T12:09:35Z</time>
      </trkpt>
      <trkpt lat="41.066694036126137" lon="-8.237613989040256">
        <ele>152.03</ele>
        <time>2025-05-03T12:09:36Z</time>
      </trkpt>
      <trkpt lat="41.06668196618557" lon="-8.237899979576469">
        <ele>150.58000000000001</ele>
        <time>2025-05-03T12:09:38Z</time>
      </trkpt>
      <trkpt lat="41.066649025306106" lon="-8.238023025915027">
        <ele>149.62</ele>
        <time>2025-05-03T12:09:39Z</time>
      </trkpt>
      <trkpt lat="41.066599991172552" lon="-8.238143976777792">
        <ele>149.13999999999999</ele>
        <time>2025-05-03T12:09:40Z</time>
      </trkpt>
      <trkpt lat="41.066544000059366" lon="-8.238274985924363">
        <ele>148.66</ele>
        <time>2025-05-03T12:09:41Z</time>
      </trkpt>
      <trkpt lat="41.066460013389587" lon="-8.23837598785758">
        <ele>147.69999999999999</ele>
        <time>2025-05-03T12:09:42Z</time>
      </trkpt>
      <trkpt lat="41.065481007099152" lon="-8.23975196108222">
        <ele>140.49000000000001</ele>
        <time>2025-05-03T12:09:54Z</time>
      </trkpt>
      <trkpt lat="41.065429961308837" lon="-8.239868972450495">
        <ele>140.00999999999999</ele>
        <time>2025-05-03T12:09:55Z</time>
      </trkpt>
      <trkpt lat="41.06537195853889" lon="-8.240004004910588">
        <ele>140.00999999999999</ele>
        <time>2025-05-03T12:09:56Z</time>
      </trkpt>
      <trkpt lat="41.065385034307837" lon="-8.240121016278863">
        <ele>139.53</ele>
        <time>2025-05-03T12:09:57Z</time>
      </trkpt>
      <trkpt lat="41.065400959923863" lon="-8.240255964919925">
        <ele>139.53</ele>
        <time>2025-05-03T12:09:58Z</time>
      </trkpt>
      <trkpt lat="41.065429961308837" lon="-8.240399966016412">
        <ele>139.05000000000001</ele>
        <time>2025-05-03T12:09:59Z</time>
      </trkpt>
      <trkpt lat="41.065488969907165" lon="-8.24052301235497">
        <ele>139.05000000000001</ele>
        <time>2025-05-03T12:10:00Z</time>
      </trkpt>
      <trkpt lat="41.065539009869099" lon="-8.240647986531258">
        <ele>139.05000000000001</ele>
        <time>2025-05-03T12:10:01Z</time>
      </trkpt>
      <trkpt lat="41.065659038722515" lon="-8.240874968469143">
        <ele>138.56999999999999</ele>
        <time>2025-05-03T12:10:03Z</time>
      </trkpt>
      <trkpt lat="41.065729027613997" lon="-8.24099600315094">
        <ele>138.56999999999999</ele>
        <time>2025-05-03T12:10:04Z</time>
      </trkpt>
      <trkpt lat="41.065801028162241" lon="-8.241118965670466">
        <ele>138.56999999999999</ele>
        <time>2025-05-03T12:10:05Z</time>
      </trkpt>
      <trkpt lat="41.065961960703135" lon="-8.241347037255764">
        <ele>138.09</ele>
        <time>2025-05-03T12:10:07Z</time>
      </trkpt>
      <trkpt lat="41.066019041463733" lon="-8.241483997553587">
        <ele>138.09</ele>
        <time>2025-05-03T12:10:08Z</time>
      </trkpt>
      <trkpt lat="41.066049970686436" lon="-8.241630010306835">
        <ele>138.09</ele>
        <time>2025-05-03T12:10:09Z</time>
      </trkpt>
      <trkpt lat="41.066050976514816" lon="-8.241777028888464">
        <ele>137.61000000000001</ele>
        <time>2025-05-03T12:10:10Z</time>
      </trkpt>
      <trkpt lat="41.0660379845649" lon="-8.241921029984951">
        <ele>137.13</ele>
        <time>2025-05-03T12:10:11Z</time>
      </trkpt>
      <trkpt lat="41.065980987623334" lon="-8.242019014433026">
        <ele>136.63999999999999</ele>
        <time>2025-05-03T12:10:12Z</time>
      </trkpt>
      <trkpt lat="41.065909992903471" lon="-8.242124961689115">
        <ele>136.16</ele>
        <time>2025-05-03T12:10:13Z</time>
      </trkpt>
      <trkpt lat="41.065838998183608" lon="-8.242230992764235">
        <ele>135.19999999999999</ele>
        <time>2025-05-03T12:10:14Z</time>
      </trkpt>
      <trkpt lat="41.065787030383945" lon="-8.242364013567567">
        <ele>134.72</ele>
        <time>2025-05-03T12:10:15Z</time>
      </trkpt>
      <trkpt lat="41.0657789837569" lon="-8.242493011057377">
        <ele>133.75999999999999</ele>
        <time>2025-05-03T12:10:16Z</time>
      </trkpt>
      <trkpt lat="41.0657789837569" lon="-8.242617985233665">
        <ele>132.80000000000001</ele>
        <time>2025-05-03T12:10:17Z</time>
      </trkpt>
      <trkpt lat="41.065811002627015" lon="-8.242723010480404">
        <ele>132.31999999999999</ele>
        <time>2025-05-03T12:10:18Z</time>
      </trkpt>
      <trkpt lat="41.065869005396962" lon="-8.242830969393253">
        <ele>131.36000000000001</ele>
        <time>2025-05-03T12:10:19Z</time>
      </trkpt>
      <trkpt lat="41.065930025652051" lon="-8.242944041267037">
        <ele>130.88</ele>
        <time>2025-05-03T12:10:20Z</time>
      </trkpt>
      <trkpt lat="41.066105039790273" lon="-8.243306977674365">
        <ele>129.43000000000001</ele>
        <time>2025-05-03T12:10:23Z</time>
      </trkpt>
      <trkpt lat="41.06614401564002" lon="-8.243415020406246">
        <ele>128.47</ele>
        <time>2025-05-03T12:10:24Z</time>
      </trkpt>
      <trkpt lat="41.066127000376582" lon="-8.243564972653985">
        <ele>127.98999999999999</ele>
        <time>2025-05-03T12:10:25Z</time>
      </trkpt>
      <trkpt lat="41.06603697873652" lon="-8.244011979550123">
        <ele>125.11</ele>
        <time>2025-05-03T12:10:28Z</time>
      </trkpt>
      <trkpt lat="41.06603697873652" lon="-8.244172995910049">
        <ele>124.15000000000001</ele>
        <time>2025-05-03T12:10:29Z</time>
      </trkpt>
      <trkpt lat="41.06605801731348" lon="-8.244338035583496">
        <ele>123.67</ele>
        <time>2025-05-03T12:10:30Z</time>
      </trkpt>
      <trkpt lat="41.066094981506467" lon="-8.244485976174474">
        <ele>122.70999999999999</ele>
        <time>2025-05-03T12:10:31Z</time>
      </trkpt>
      <trkpt lat="41.06614401564002" lon="-8.244620002806187">
        <ele>121.73999999999999</ele>
        <time>2025-05-03T12:10:32Z</time>
      </trkpt>
      <trkpt lat="41.06622900813818" lon="-8.244712958112359">
        <ele>121.26000000000001</ele>
        <time>2025-05-03T12:10:33Z</time>
      </trkpt>
      <trkpt lat="41.066317018121481" lon="-8.244809014722705">
        <ele>120.78</ele>
        <time>2025-05-03T12:10:34Z</time>
      </trkpt>
      <trkpt lat="41.066407961770892" lon="-8.244902975857258">
        <ele>120.3</ele>
        <time>2025-05-03T12:10:35Z</time>
      </trkpt>
      <trkpt lat="41.066666040569544" lon="-8.245189972221851">
        <ele>119.34</ele>
        <time>2025-05-03T12:10:38Z</time>
      </trkpt>
      <trkpt lat="41.066751033067703" lon="-8.245287034660578">
        <ele>118.86</ele>
        <time>2025-05-03T12:10:39Z</time>
      </trkpt>
      <trkpt lat="41.066795960068703" lon="-8.24542298913002">
        <ele>118.38</ele>
        <time>2025-05-03T12:10:40Z</time>
      </trkpt>
      <trkpt lat="41.066834013909101" lon="-8.245575036853552">
        <ele>117.42</ele>
        <time>2025-05-03T12:10:41Z</time>
      </trkpt>
      <trkpt lat="41.066865026950836" lon="-8.245734041556716">
        <ele>116.45999999999999</ele>
        <time>2025-05-03T12:10:42Z</time>
      </trkpt>
      <trkpt lat="41.066891010850668" lon="-8.245904026553035">
        <ele>115.5</ele>
        <time>2025-05-03T12:10:43Z</time>
      </trkpt>
      <trkpt lat="41.06691800057888" lon="-8.246083986014128">
        <ele>114.53</ele>
        <time>2025-05-03T12:10:44Z</time>
      </trkpt>
      <trkpt lat="41.066943984478712" lon="-8.246270986273885">
        <ele>113.56999999999999</ele>
        <time>2025-05-03T12:10:45Z</time>
      </trkpt>
      <trkpt lat="41.066998969763517" lon="-8.246654961258173">
        <ele>112.13</ele>
        <time>2025-05-03T12:10:47Z</time>
      </trkpt>
      <trkpt lat="41.067011039704084" lon="-8.246849002316594">
        <ele>111.17</ele>
        <time>2025-05-03T12:10:48Z</time>
      </trkpt>
      <trkpt lat="41.066967034712434" lon="-8.247598009184003">
        <ele>107.81</ele>
        <time>2025-05-03T12:10:52Z</time>
      </trkpt>
      <trkpt lat="41.06693702749908" lon="-8.247781991958618">
        <ele>106.84</ele>
        <time>2025-05-03T12:10:53Z</time>
      </trkpt>
      <trkpt lat="41.066790008917451" lon="-8.248501997441053">
        <ele>103.48</ele>
        <time>2025-05-03T12:10:57Z</time>
      </trkpt>
      <trkpt lat="41.066590016707778" lon="-8.249125024303794">
        <ele>100.59999999999999</ele>
        <time>2025-05-03T12:11:01Z</time>
      </trkpt>
      <trkpt lat="41.066527990624309" lon="-8.2492680195719">
        <ele>100.11</ele>
        <time>2025-05-03T12:11:02Z</time>
      </trkpt>
      <trkpt lat="41.066468982025981" lon="-8.249404979869723">
        <ele>99.150000000000006</ele>
        <time>2025-05-03T12:11:03Z</time>
      </trkpt>
      <trkpt lat="41.066407961770892" lon="-8.24954504147172">
        <ele>98.189999999999998</ele>
        <time>2025-05-03T12:11:04Z</time>
      </trkpt>
      <trkpt lat="41.066356999799609" lon="-8.249703962355852">
        <ele>97.230000000000004</ele>
        <time>2025-05-03T12:11:05Z</time>
      </trkpt>
      <trkpt lat="41.066349959000945" lon="-8.249880988150835">
        <ele>96.269999999999996</ele>
        <time>2025-05-03T12:11:06Z</time>
      </trkpt>
      <trkpt lat="41.066343002021313" lon="-8.250059019774199">
        <ele>95.310000000000002</ele>
        <time>2025-05-03T12:11:07Z</time>
      </trkpt>
      <trkpt lat="41.066336967051029" lon="-8.250195980072022">
        <ele>94.349999999999994</ele>
        <time>2025-05-03T12:11:08Z</time>
      </trkpt>
      <trkpt lat="41.066387007012963" lon="-8.250359008088708">
        <ele>93.870000000000005</ele>
        <time>2025-05-03T12:11:09Z</time>
      </trkpt>
      <trkpt lat="41.066427994519472" lon="-8.250495968386531">
        <ele>92.900000000000006</ele>
        <time>2025-05-03T12:11:10Z</time>
      </trkpt>
      <trkpt lat="41.066469987854362" lon="-8.250632006675005">
        <ele>92.420000000000002</ele>
        <time>2025-05-03T12:11:11Z</time>
      </trkpt>
      <trkpt lat="41.06653000228107" lon="-8.250736026093364">
        <ele>91.459999999999994</ele>
        <time>2025-05-03T12:11:12Z</time>
      </trkpt>
      <trkpt lat="41.06661700643599" lon="-8.250831998884678">
        <ele>90.5</ele>
        <time>2025-05-03T12:11:13Z</time>
      </trkpt>
      <trkpt lat="41.066705016419291" lon="-8.250927971675992">
        <ele>90.019999999999996</ele>
        <time>2025-05-03T12:11:14Z</time>
      </trkpt>
      <trkpt lat="41.066798977553844" lon="-8.251012964174151">
        <ele>89.060000000000002</ele>
        <time>2025-05-03T12:11:15Z</time>
      </trkpt>
      <trkpt lat="41.066891010850668" lon="-8.251096028834581">
        <ele>88.099999999999994</ele>
        <time>2025-05-03T12:11:16Z</time>
      </trkpt>
      <trkpt lat="41.066955970600247" lon="-8.251204993575811">
        <ele>87.140000000000001</ele>
        <time>2025-05-03T12:11:17Z</time>
      </trkpt>
      <trkpt lat="41.067012967541814" lon="-8.25132803991437">
        <ele>86.180000000000007</ele>
        <time>2025-05-03T12:11:18Z</time>
      </trkpt>
      <trkpt lat="41.067050015553832" lon="-8.251451002433896">
        <ele>85.689999999999998</ele>
        <time>2025-05-03T12:11:19Z</time>
      </trkpt>
      <trkpt lat="41.06706703081727" lon="-8.251612018793821">
        <ele>84.730000000000004</ele>
        <time>2025-05-03T12:11:20Z</time>
      </trkpt>
      <trkpt lat="41.06704699806869" lon="-8.25171796604991">
        <ele>84.25</ele>
        <time>2025-05-03T12:11:21Z</time>
      </trkpt>
      <trkpt lat="41.067022019997239" lon="-8.2518479693681">
        <ele>83.769999999999996</ele>
        <time>2025-05-03T12:11:22Z</time>
      </trkpt>
      <trkpt lat="41.067000981420279" lon="-8.251964980736375">
        <ele>83.290000000000006</ele>
        <time>2025-05-03T12:11:23Z</time>
      </trkpt>
      <trkpt lat="41.06698103249073" lon="-8.252070005983114">
        <ele>83.290000000000006</ele>
        <time>2025-05-03T12:11:24Z</time>
      </trkpt>
      <trkpt lat="41.06695999391377" lon="-8.252183999866247">
        <ele>82.810000000000002</ele>
        <time>2025-05-03T12:11:25Z</time>
      </trkpt>
      <trkpt lat="41.066945996135473" lon="-8.252324983477593">
        <ele>82.329999999999998</ele>
        <time>2025-05-03T12:11:26Z</time>
      </trkpt>
      <trkpt lat="41.06698103249073" lon="-8.252444006502628">
        <ele>82.329999999999998</ele>
        <time>2025-05-03T12:11:27Z</time>
      </trkpt>
      <trkpt lat="41.067027971148491" lon="-8.252561017870903">
        <ele>81.849999999999994</ele>
        <time>2025-05-03T12:11:28Z</time>
      </trkpt>
      <trkpt lat="41.067085973918438" lon="-8.252667970955372">
        <ele>81.370000000000005</ele>
        <time>2025-05-03T12:11:29Z</time>
      </trkpt>
      <trkpt lat="41.067140959203243" lon="-8.252768972888589">
        <ele>80.890000000000001</ele>
        <time>2025-05-03T12:11:30Z</time>
      </trkpt>
      <trkpt lat="41.067244978621602" lon="-8.252961002290249">
        <ele>79.930000000000007</ele>
        <time>2025-05-03T12:11:32Z</time>
      </trkpt>
      <trkpt lat="41.067287977784872" lon="-8.253067033365369">
        <ele>79.450000000000003</ele>
        <time>2025-05-03T12:11:33Z</time>
      </trkpt>
      <trkpt lat="41.067311028018594" lon="-8.253198964521289">
        <ele>78.969999999999999</ele>
        <time>2025-05-03T12:11:34Z</time>
      </trkpt>
      <trkpt lat="41.067335000261664" lon="-8.253333996981382">
        <ele>78.480000000000004</ele>
        <time>2025-05-03T12:11:35Z</time>
      </trkpt>
      <trkpt lat="41.067339023575187" lon="-8.253465006127954">
        <ele>78</ele>
        <time>2025-05-03T12:11:36Z</time>
      </trkpt>
      <trkpt lat="41.067327959463" lon="-8.253597021102905">
        <ele>77.519999999999996</ele>
        <time>2025-05-03T12:11:37Z</time>
      </trkpt>
      <trkpt lat="41.067315973341465" lon="-8.253730963915587">
        <ele>77.040000000000006</ele>
        <time>2025-05-03T12:11:38Z</time>
      </trkpt>
      <trkpt lat="41.067305998876691" lon="-8.253853004425764">
        <ele>76.079999999999998</ele>
        <time>2025-05-03T12:11:39Z</time>
      </trkpt>
      <trkpt lat="41.067253025248647" lon="-8.253941014409065">
        <ele>75.599999999999994</ele>
        <time>2025-05-03T12:11:40Z</time>
      </trkpt>
      <trkpt lat="41.067180018872023" lon="-8.254019971936941">
        <ele>74.640000000000001</ele>
        <time>2025-05-03T12:11:41Z</time>
      </trkpt>
      <trkpt lat="41.067099971696734" lon="-8.254106976091862">
        <ele>74.159999999999997</ele>
        <time>2025-05-03T12:11:42Z</time>
      </trkpt>
      <trkpt lat="41.067014979198575" lon="-8.254181994125247">
        <ele>73.680000000000007</ele>
        <time>2025-05-03T12:11:43Z</time>
      </trkpt>
      <trkpt lat="41.066911965608597" lon="-8.254235973581672">
        <ele>72.719999999999999</ele>
        <time>2025-05-03T12:11:44Z</time>
      </trkpt>
      <trkpt lat="41.066719014197588" lon="-8.25433898717165">
        <ele>71.269999999999996</ele>
        <time>2025-05-03T12:11:46Z</time>
      </trkpt>
      <trkpt lat="41.066624969244003" lon="-8.254391960799694">
        <ele>70.790000000000006</ele>
        <time>2025-05-03T12:11:47Z</time>
      </trkpt>
      <trkpt lat="41.066538970917463" lon="-8.254444012418389">
        <ele>70.310000000000002</ele>
        <time>2025-05-03T12:11:48Z</time>
      </trkpt>
      <trkpt lat="41.066463030874729" lon="-8.254492962732911">
        <ele>69.829999999999998</ele>
        <time>2025-05-03T12:11:49Z</time>
      </trkpt>
      <trkpt lat="41.066407961770892" lon="-8.254581978544593">
        <ele>69.829999999999998</ele>
        <time>2025-05-03T12:11:50Z</time>
      </trkpt>
      <trkpt lat="41.066351970657706" lon="-8.254674011841416">
        <ele>69.349999999999994</ele>
        <time>2025-05-03T12:11:51Z</time>
      </trkpt>
      <trkpt lat="41.066293967887759" lon="-8.254767972975969">
        <ele>68.390000000000001</ele>
        <time>2025-05-03T12:11:52Z</time>
      </trkpt>
      <trkpt lat="41.066233031451702" lon="-8.254868974909186">
        <ele>67.909999999999997</ele>
        <time>2025-05-03T12:11:53Z</time>
      </trkpt>
      <trkpt lat="41.066151978448033" lon="-8.254937035962939">
        <ele>67.909999999999997</ele>
        <time>2025-05-03T12:11:54Z</time>
      </trkpt>
      <trkpt lat="41.066071009263396" lon="-8.25500400736928">
        <ele>66.950000000000003</ele>
        <time>2025-05-03T12:11:55Z</time>
      </trkpt>
      <trkpt lat="41.065988028421998" lon="-8.255070978775621">
        <ele>66.469999999999999</ele>
        <time>2025-05-03T12:11:56Z</time>
      </trkpt>
      <trkpt lat="41.06590798124671" lon="-8.255137028172612">
        <ele>65.989999999999995</ele>
        <time>2025-05-03T12:11:57Z</time>
      </trkpt>
      <trkpt lat="41.065752999857068" lon="-8.255264014005661">
        <ele>65.030000000000001</ele>
        <time>2025-05-03T12:11:59Z</time>
      </trkpt>
      <trkpt lat="41.065682005137205" lon="-8.255322016775608">
        <ele>64.549999999999997</ele>
        <time>2025-05-03T12:12:00Z</time>
      </trkpt>
      <trkpt lat="41.065615033730865" lon="-8.255377002060413">
        <ele>63.579999999999998</ele>
        <time>2025-05-03T12:12:01Z</time>
      </trkpt>
      <trkpt lat="41.065127039328218" lon="-8.25582199729979">
        <ele>62.140000000000001</ele>
        <time>2025-05-03T12:12:08Z</time>
      </trkpt>
      <trkpt lat="41.065044980496168" lon="-8.255858039483428">
        <ele>62.140000000000001</ele>
        <time>2025-05-03T12:12:09Z</time>
      </trkpt>
      <trkpt lat="41.064220033586025" lon="-8.256286019459367">
        <ele>57.82</ele>
        <time>2025-05-03T12:12:17Z</time>
      </trkpt>
      <trkpt lat="41.063986010849476" lon="-8.256419962272048">
        <ele>57.340000000000003</ele>
        <time>2025-05-03T12:12:19Z</time>
      </trkpt>
      <trkpt lat="41.063646040856838" lon="-8.256614003330469">
        <ele>56.859999999999999</ele>
        <time>2025-05-03T12:12:22Z</time>
      </trkpt>
      <trkpt lat="41.063519977033138" lon="-8.256620038300753">
        <ele>56.859999999999999</ele>
        <time>2025-05-03T12:12:23Z</time>
      </trkpt>
      <trkpt lat="41.063387962058187" lon="-8.256626995280385">
        <ele>56.369999999999997</ele>
        <time>2025-05-03T12:12:24Z</time>
      </trkpt>
      <trkpt lat="41.063004992902279" lon="-8.256588019430637">
        <ele>55.890000000000001</ele>
        <time>2025-05-03T12:12:27Z</time>
      </trkpt>
      <trkpt lat="41.062903990969062" lon="-8.256568992510438">
        <ele>55.409999999999997</ele>
        <time>2025-05-03T12:12:28Z</time>
      </trkpt>
      <trkpt lat="41.062825033441186" lon="-8.256504032760859">
        <ele>54.93</ele>
        <time>2025-05-03T12:12:29Z</time>
      </trkpt>
      <trkpt lat="41.061938982456923" lon="-8.255901960656047">
        <ele>53.009999999999998</ele>
        <time>2025-05-03T12:12:39Z</time>
      </trkpt>
      <trkpt lat="41.061856001615524" lon="-8.255887040868402">
        <ele>52.530000000000001</ele>
        <time>2025-05-03T12:12:40Z</time>
      </trkpt>
      <trkpt lat="41.061776960268617" lon="-8.255930040031672">
        <ele>52.530000000000001</ele>
        <time>2025-05-03T12:12:41Z</time>
      </trkpt>
      <trkpt lat="41.061701020225883" lon="-8.255996005609632">
        <ele>52.049999999999997</ele>
        <time>2025-05-03T12:12:42Z</time>
      </trkpt>
      <trkpt lat="41.0616310313344" lon="-8.256080998107791">
        <ele>51.57</ele>
        <time>2025-05-03T12:12:43Z</time>
      </trkpt>
      <trkpt lat="41.061571016907692" lon="-8.25618501752615">
        <ele>51.57</ele>
        <time>2025-05-03T12:12:44Z</time>
      </trkpt>
      <trkpt lat="41.061511002480984" lon="-8.256289036944509">
        <ele>50.609999999999999</ele>
        <time>2025-05-03T12:12:45Z</time>
      </trkpt>
      <trkpt lat="41.061168015003204" lon="-8.25704500079155">
        <ele>47.240000000000002</ele>
        <time>2025-05-03T12:12:52Z</time>
      </trkpt>
      <trkpt lat="41.061148988083005" lon="-8.257143991068006">
        <ele>47.240000000000002</ele>
        <time>2025-05-03T12:12:53Z</time>
      </trkpt>
      <trkpt lat="41.061172960326076" lon="-8.25723703019321">
        <ele>47.240000000000002</ele>
        <time>2025-05-03T12:12:54Z</time>
      </trkpt>
      <trkpt lat="41.0612010397017" lon="-8.257344989106059">
        <ele>46.759999999999998</ele>
        <time>2025-05-03T12:12:55Z</time>
      </trkpt>
      <trkpt lat="41.061231968924403" lon="-8.257462000474334">
        <ele>46.759999999999998</ele>
        <time>2025-05-03T12:12:56Z</time>
      </trkpt>
      <trkpt lat="41.061400026082993" lon="-8.258155016228557">
        <ele>46.280000000000001</ele>
        <time>2025-05-03T12:13:02Z</time>
      </trkpt>
      <trkpt lat="41.06137496419251" lon="-8.258253000676632">
        <ele>45.799999999999997</ele>
        <time>2025-05-03T12:13:03Z</time>
      </trkpt>
      <trkpt lat="41.06133297085762" lon="-8.258368000388145">
        <ele>45.799999999999997</ele>
        <time>2025-05-03T12:13:04Z</time>
      </trkpt>
      <trkpt lat="41.061263987794518" lon="-8.258459027856588">
        <ele>45.799999999999997</ele>
        <time>2025-05-03T12:13:05Z</time>
      </trkpt>
      <trkpt lat="41.061166003346443" lon="-8.258543014526367">
        <ele>46.280000000000001</ele>
        <time>2025-05-03T12:13:06Z</time>
      </trkpt>
      <trkpt lat="41.061083022505045" lon="-8.258585007861257">
        <ele>46.280000000000001</ele>
        <time>2025-05-03T12:13:07Z</time>
      </trkpt>
      <trkpt lat="41.060984032228589" lon="-8.258633958175778">
        <ele>46.759999999999998</ele>
        <time>2025-05-03T12:13:08Z</time>
      </trkpt>
      <trkpt lat="41.060882024466991" lon="-8.258685003966093">
        <ele>46.759999999999998</ele>
        <time>2025-05-03T12:13:09Z</time>
      </trkpt>
      <trkpt lat="41.060779010877013" lon="-8.258736971765757">
        <ele>47.240000000000002</ele>
        <time>2025-05-03T12:13:10Z</time>
      </trkpt>
      <trkpt lat="41.060678008943796" lon="-8.258795980364084">
        <ele>47.719999999999999</ele>
        <time>2025-05-03T12:13:11Z</time>
      </trkpt>
      <trkpt lat="41.060595028102398" lon="-8.25889103114605">
        <ele>48.68</ele>
        <time>2025-05-03T12:13:12Z</time>
      </trkpt>
      <trkpt lat="41.060520010069013" lon="-8.25897702947259">
        <ele>48.68</ele>
        <time>2025-05-03T12:13:13Z</time>
      </trkpt>
      <trkpt lat="41.060473993420601" lon="-8.259082976728678">
        <ele>48.68</ele>
        <time>2025-05-03T12:13:14Z</time>
      </trkpt>
      <trkpt lat="41.060457983985543" lon="-8.259197976440191">
        <ele>48.200000000000003</ele>
        <time>2025-05-03T12:13:15Z</time>
      </trkpt>
      <trkpt lat="41.060457983985543" lon="-8.259309958666563">
        <ele>48.200000000000003</ele>
        <time>2025-05-03T12:13:16Z</time>
      </trkpt>
      <trkpt lat="41.060505006462336" lon="-8.259394029155374">
        <ele>48.200000000000003</ele>
        <time>2025-05-03T12:13:17Z</time>
      </trkpt>
      <trkpt lat="41.060562003403902" lon="-8.259490001946688">
        <ele>47.719999999999999</ele>
        <time>2025-05-03T12:13:18Z</time>
      </trkpt>
      <trkpt lat="41.060627968981862" lon="-8.259582035243511">
        <ele>47.719999999999999</ele>
        <time>2025-05-03T12:13:19Z</time>
      </trkpt>
      <trkpt lat="41.060700975358486" lon="-8.259673984721303">
        <ele>47.719999999999999</ele>
        <time>2025-05-03T12:13:20Z</time>
      </trkpt>
      <trkpt lat="41.06100800447166" lon="-8.260116968303919">
        <ele>49.159999999999997</ele>
        <time>2025-05-03T12:13:24Z</time>
      </trkpt>
      <trkpt lat="41.061088973656297" lon="-8.2602250110358">
        <ele>49.159999999999997</ele>
        <time>2025-05-03T12:13:25Z</time>
      </trkpt>
      <trkpt lat="41.06137597002089" lon="-8.260458027943969">
        <ele>49.159999999999997</ele>
        <time>2025-05-03T12:13:28Z</time>
      </trkpt>
      <trkpt lat="41.061485018581152" lon="-8.260490968823433">
        <ele>49.159999999999997</ele>
        <time>2025-05-03T12:13:29Z</time>
      </trkpt>
      <trkpt lat="41.061580991372466" lon="-8.260450987145305">
        <ele>49.649999999999999</ele>
        <time>2025-05-03T12:13:30Z</time>
      </trkpt>
      <trkpt lat="41.0616759583354" lon="-8.260390972718597">
        <ele>50.130000000000003</ele>
        <time>2025-05-03T12:13:31Z</time>
      </trkpt>
      <trkpt lat="41.061771009117365" lon="-8.260331964120269">
        <ele>50.609999999999999</ele>
        <time>2025-05-03T12:13:32Z</time>
      </trkpt>
      <trkpt lat="41.061866981908679" lon="-8.260278990492225">
        <ele>51.090000000000003</ele>
        <time>2025-05-03T12:13:33Z</time>
      </trkpt>
      <trkpt lat="41.061966978013515" lon="-8.260261975228787">
        <ele>51.57</ele>
        <time>2025-05-03T12:13:34Z</time>
      </trkpt>
      <trkpt lat="41.062070997431874" lon="-8.260313021019101">
        <ele>52.049999999999997</ele>
        <time>2025-05-03T12:13:35Z</time>
      </trkpt>
      <trkpt lat="41.062171999365091" lon="-8.260372029617429">
        <ele>52.530000000000001</ele>
        <time>2025-05-03T12:13:36Z</time>
      </trkpt>
      <trkpt lat="41.062278030440211" lon="-8.260433971881867">
        <ele>53.009999999999998</ele>
        <time>2025-05-03T12:13:37Z</time>
      </trkpt>
      <trkpt lat="41.063274974003434" lon="-8.260946022346616">
        <ele>57.340000000000003</ele>
        <time>2025-05-03T12:13:46Z</time>
      </trkpt>
      <trkpt lat="41.063344962894917" lon="-8.261023974046111">
        <ele>57.82</ele>
        <time>2025-05-03T12:13:47Z</time>
      </trkpt>
      <trkpt lat="41.063402965664864" lon="-8.261123970150948">
        <ele>58.780000000000001</ele>
        <time>2025-05-03T12:13:48Z</time>
      </trkpt>
      <trkpt lat="41.063460968434811" lon="-8.261238969862461">
        <ele>59.740000000000002</ele>
        <time>2025-05-03T12:13:49Z</time>
      </trkpt>
      <trkpt lat="41.063453005626798" lon="-8.261372996494174">
        <ele>60.219999999999999</ele>
        <time>2025-05-03T12:13:50Z</time>
      </trkpt>
      <trkpt lat="41.063444958999753" lon="-8.261511968448758">
        <ele>61.18</ele>
        <time>2025-05-03T12:13:51Z</time>
      </trkpt>
      <trkpt lat="41.063420986756682" lon="-8.261941960081458">
        <ele>63.579999999999998</ele>
        <time>2025-05-03T12:13:54Z</time>
      </trkpt>
      <trkpt lat="41.063364995643497" lon="-8.262070035561919">
        <ele>64.069999999999993</ele>
        <time>2025-05-03T12:13:55Z</time>
      </trkpt>
      <trkpt lat="41.063299030065536" lon="-8.262186963111162">
        <ele>64.549999999999997</ele>
        <time>2025-05-03T12:13:56Z</time>
      </trkpt>
      <trkpt lat="41.063227029517293" lon="-8.262294000014663">
        <ele>65.989999999999995</ele>
        <time>2025-05-03T12:13:57Z</time>
      </trkpt>
      <trkpt lat="41.063132984563708" lon="-8.26237304136157">
        <ele>66.469999999999999</ele>
        <time>2025-05-03T12:13:58Z</time>
      </trkpt>
      <trkpt lat="41.062535019591451" lon="-8.262814013287425">
        <ele>71.269999999999996</ele>
        <time>2025-05-03T12:14:04Z</time>
      </trkpt>
      <trkpt lat="41.062433011829853" lon="-8.262878973037005">
        <ele>71.760000000000005</ele>
        <time>2025-05-03T12:14:05Z</time>
      </trkpt>
      <trkpt lat="41.06214601546526" lon="-8.262992966920137">
        <ele>74.159999999999997</ele>
        <time>2025-05-03T12:14:08Z</time>
      </trkpt>
      <trkpt lat="41.062059011310339" lon="-8.263011993840337">
        <ele>75.120000000000005</ele>
        <time>2025-05-03T12:14:09Z</time>
      </trkpt>
      <trkpt lat="41.061675036326051" lon="-8.263062033802271">
        <ele>78.969999999999999</ele>
        <time>2025-05-03T12:14:14Z</time>
      </trkpt>
      <trkpt lat="41.061595994979143" lon="-8.263051975518465">
        <ele>79.450000000000003</ele>
        <time>2025-05-03T12:14:15Z</time>
      </trkpt>
      <trkpt lat="41.06154796667397" lon="-8.262948961928487">
        <ele>80.409999999999997</ele>
        <time>2025-05-03T12:14:16Z</time>
      </trkpt>
      <trkpt lat="41.061531035229564" lon="-8.262877967208624">
        <ele>80.890000000000001</ele>
        <time>2025-05-03T12:14:17Z</time>
      </trkpt>
      <trkpt lat="41.06156699359417" lon="-8.262749975547195">
        <ele>80.890000000000001</ele>
        <time>2025-05-03T12:14:18Z</time>
      </trkpt>
      <trkpt lat="41.061512008309364" lon="-8.262603962793946">
        <ele>81.370000000000005</ele>
        <time>2025-05-03T12:14:19Z</time>
      </trkpt>
      <trkpt lat="41.061488036066294" lon="-8.262556018307805">
        <ele>81.370000000000005</ele>
        <time>2025-05-03T12:14:20Z</time>
      </trkpt>
      <trkpt lat="41.061403965577483" lon="-8.262472031638026">
        <ele>81.849999999999994</ele>
        <time>2025-05-03T12:14:21Z</time>
      </trkpt>
      <trkpt lat="41.06133297085762" lon="-8.262401036918163">
        <ele>82.329999999999998</ele>
        <time>2025-05-03T12:14:22Z</time>
      </trkpt>
      <trkpt lat="41.060712039470673" lon="-8.261812040582299">
        <ele>84.730000000000004</ele>
        <time>2025-05-03T12:14:30Z</time>
      </trkpt>
      <trkpt lat="41.060606008395553" lon="-8.261789996176958">
        <ele>84.730000000000004</ele>
        <time>2025-05-03T12:14:31Z</time>
      </trkpt>
      <trkpt lat="41.060505006462336" lon="-8.261769041419029">
        <ele>85.209999999999994</ele>
        <time>2025-05-03T12:14:32Z</time>
      </trkpt>
      <trkpt lat="41.060376008972526" lon="-8.261741967871785">
        <ele>85.689999999999998</ele>
        <time>2025-05-03T12:14:34Z</time>
      </trkpt>
      <trkpt lat="41.060339966788888" lon="-8.261735010892153">
        <ele>86.180000000000007</ele>
        <time>2025-05-03T12:14:35Z</time>
      </trkpt>
      <trkpt lat="41.060318006202579" lon="-8.26172998175025">
        <ele>86.180000000000007</ele>
        <time>2025-05-03T12:14:36Z</time>
      </trkpt>
      <trkpt lat="41.060318006202579" lon="-8.26172998175025">
        <ele>86.659999999999997</ele>
        <time>2025-05-03T12:14:48Z</time>
      </trkpt>
      <trkpt lat="41.060318006202579" lon="-8.26172998175025">
        <ele>88.099999999999994</ele>
        <time>2025-05-03T12:15:22Z</time>
      </trkpt>
      <trkpt lat="41.060318006202579" lon="-8.26172998175025">
        <ele>88.579999999999998</ele>
        <time>2025-05-03T12:16:08Z</time>
      </trkpt>
      <trkpt lat="41.060265032574534" lon="-8.261719001457095">
        <ele>89.540000000000006</ele>
        <time>2025-05-03T12:16:41Z</time>
      </trkpt>
      <trkpt lat="41.060254974290729" lon="-8.261711038649082">
        <ele>89.540000000000006</ele>
        <time>2025-05-03T12:16:42Z</time>
      </trkpt>
      <trkpt lat="41.059715012088418" lon="-8.261267971247435">
        <ele>91.939999999999998</ele>
        <time>2025-05-03T12:16:49Z</time>
      </trkpt>
      <trkpt lat="41.059617027640343" lon="-8.261205023154616">
        <ele>91.939999999999998</ele>
        <time>2025-05-03T12:16:50Z</time>
      </trkpt>
      <trkpt lat="41.059512002393603" lon="-8.261161018162966">
        <ele>92.420000000000002</ele>
        <time>2025-05-03T12:16:51Z</time>
      </trkpt>
      <trkpt lat="41.059399014338851" lon="-8.261112989857793">
        <ele>92.420000000000002</ele>
        <time>2025-05-03T12:16:52Z</time>
      </trkpt>
      <trkpt lat="41.059121992439032" lon="-8.260995978489518">
        <ele>92.900000000000006</ele>
        <time>2025-05-03T12:16:54Z</time>
      </trkpt>
      <trkpt lat="41.058992994949222" lon="-8.260919032618403">
        <ele>93.390000000000001</ele>
        <time>2025-05-03T12:16:55Z</time>
      </trkpt>
      <trkpt lat="41.058863997459412" lon="-8.260837979614735">
        <ele>93.870000000000005</ele>
        <time>2025-05-03T12:16:56Z</time>
      </trkpt>
      <trkpt lat="41.058741034939885" lon="-8.260762039572001">
        <ele>94.349999999999994</ele>
        <time>2025-05-03T12:16:57Z</time>
      </trkpt>
      <trkpt lat="41.058631986379623" lon="-8.260692972689867">
        <ele>95.310000000000002</ele>
        <time>2025-05-03T12:16:58Z</time>
      </trkpt>
      <trkpt lat="41.05851799249649" lon="-8.260686015710235">
        <ele>95.790000000000006</ele>
        <time>2025-05-03T12:16:59Z</time>
      </trkpt>
      <trkpt lat="41.05840802192688" lon="-8.260719962418079">
        <ele>96.269999999999996</ele>
        <time>2025-05-03T12:17:00Z</time>
      </trkpt>
      <trkpt lat="41.058308025822043" lon="-8.260805960744619">
        <ele>96.269999999999996</ele>
        <time>2025-05-03T12:17:01Z</time>
      </trkpt>
      <trkpt lat="41.05819595977664" lon="-8.260902017354965">
        <ele>96.75</ele>
        <time>2025-05-03T12:17:02Z</time>
      </trkpt>
      <trkpt lat="41.058077020570636" lon="-8.261012993752956">
        <ele>97.230000000000004</ele>
        <time>2025-05-03T12:17:03Z</time>
      </trkpt>
      <trkpt lat="41.057961015030742" lon="-8.261137967929244">
        <ele>97.709999999999994</ele>
        <time>2025-05-03T12:17:04Z</time>
      </trkpt>
      <trkpt lat="41.057267999276519" lon="-8.261907007545233">
        <ele>99.629999999999995</ele>
        <time>2025-05-03T12:17:11Z</time>
      </trkpt>
      <trkpt lat="41.057165991514921" lon="-8.261954030022025">
        <ele>100.11</ele>
        <time>2025-05-03T12:17:12Z</time>
      </trkpt>
      <trkpt lat="41.057061972096562" lon="-8.262002980336547">
        <ele>100.59999999999999</ele>
        <time>2025-05-03T12:17:13Z</time>
      </trkpt>
      <trkpt lat="41.056947978213429" lon="-8.26203198172152">
        <ele>101.08</ele>
        <time>2025-05-03T12:17:14Z</time>
      </trkpt>
      <trkpt lat="41.056828033179045" lon="-8.262001974508166">
        <ele>101.56</ele>
        <time>2025-05-03T12:17:15Z</time>
      </trkpt>
      <trkpt lat="41.056705992668867" lon="-8.261971967294812">
        <ele>102.52</ele>
        <time>2025-05-03T12:17:16Z</time>
      </trkpt>
      <trkpt lat="41.056585963815451" lon="-8.261941960081458">
        <ele>103</ele>
        <time>2025-05-03T12:17:17Z</time>
      </trkpt>
      <trkpt lat="41.056345989927649" lon="-8.26185998506844">
        <ele>104.44</ele>
        <time>2025-05-03T12:17:19Z</time>
      </trkpt>
      <trkpt lat="41.056228978559375" lon="-8.261824026703835">
        <ele>104.92</ele>
        <time>2025-05-03T12:17:20Z</time>
      </trkpt>
      <trkpt lat="41.05611096136272" lon="-8.261813968420029">
        <ele>105.40000000000001</ele>
        <time>2025-05-03T12:17:21Z</time>
      </trkpt>
      <trkpt lat="41.055990010499954" lon="-8.261807011440396">
        <ele>106.36</ele>
        <time>2025-05-03T12:17:22Z</time>
      </trkpt>
      <trkpt lat="41.055878028273582" lon="-8.261855961754918">
        <ele>106.84</ele>
        <time>2025-05-03T12:17:23Z</time>
      </trkpt>
      <trkpt lat="41.055773003026843" lon="-8.261932991445065">
        <ele>107.31999999999999</ele>
        <time>2025-05-03T12:17:24Z</time>
      </trkpt>
      <trkpt lat="41.055696979165077" lon="-8.262047991156578">
        <ele>107.81</ele>
        <time>2025-05-03T12:17:25Z</time>
      </trkpt>
      <trkpt lat="41.055620033293962" lon="-8.262162990868092">
        <ele>108.29000000000001</ele>
        <time>2025-05-03T12:17:26Z</time>
      </trkpt>
      <trkpt lat="41.055483995005488" lon="-8.262424003332853">
        <ele>108.77</ele>
        <time>2025-05-03T12:17:28Z</time>
      </trkpt>
      <trkpt lat="41.055309986695647" lon="-8.262849971652031">
        <ele>110.20999999999999</ele>
        <time>2025-05-03T12:17:31Z</time>
      </trkpt>
      <trkpt lat="41.055223988369107" lon="-8.262957008555532">
        <ele>110.20999999999999</ele>
        <time>2025-05-03T12:17:32Z</time>
      </trkpt>
      <trkpt lat="41.055137990042567" lon="-8.263059016317129">
        <ele>110.69</ele>
        <time>2025-05-03T12:17:33Z</time>
      </trkpt>
      <trkpt lat="41.055050985887647" lon="-8.263164041563869">
        <ele>111.17</ele>
        <time>2025-05-03T12:17:34Z</time>
      </trkpt>
      <trkpt lat="41.054963981732726" lon="-8.263268982991576">
        <ele>111.17</ele>
        <time>2025-05-03T12:17:35Z</time>
      </trkpt>
      <trkpt lat="41.054876977577806" lon="-8.263374008238316">
        <ele>111.65000000000001</ele>
        <time>2025-05-03T12:17:36Z</time>
      </trkpt>
      <trkpt lat="41.054512029513717" lon="-8.264014972373843">
        <ele>114.05</ele>
        <time>2025-05-03T12:17:41Z</time>
      </trkpt>
      <trkpt lat="41.054456038400531" lon="-8.26415897347033">
        <ele>114.53</ele>
        <time>2025-05-03T12:17:42Z</time>
      </trkpt>
      <trkpt lat="41.054145991802216" lon="-8.265025997534394">
        <ele>117.90000000000001</ele>
        <time>2025-05-03T12:17:48Z</time>
      </trkpt>
      <trkpt lat="41.054094024002552" lon="-8.26516798697412">
        <ele>118.38</ele>
        <time>2025-05-03T12:17:49Z</time>
      </trkpt>
      <trkpt lat="41.05400400236249" lon="-8.265246022492647">
        <ele>118.86</ele>
        <time>2025-05-03T12:17:50Z</time>
      </trkpt>
      <trkpt lat="41.053912974894047" lon="-8.265302013605833">
        <ele>119.34</ele>
        <time>2025-05-03T12:17:51Z</time>
      </trkpt>
      <trkpt lat="41.053798981010914" lon="-8.265276029706001">
        <ele>120.3</ele>
        <time>2025-05-03T12:17:52Z</time>
      </trkpt>
      <trkpt lat="41.0536839812994" lon="-8.265249039977789">
        <ele>120.78</ele>
        <time>2025-05-03T12:17:53Z</time>
      </trkpt>
      <trkpt lat="41.053566969931126" lon="-8.265234958380461">
        <ele>121.26000000000001</ele>
        <time>2025-05-03T12:17:54Z</time>
      </trkpt>
      <trkpt lat="41.053449036553502" lon="-8.26523101888597">
        <ele>122.22</ele>
        <time>2025-05-03T12:17:55Z</time>
      </trkpt>
      <trkpt lat="41.053326996043324" lon="-8.265225989744067">
        <ele>122.70999999999999</ele>
        <time>2025-05-03T12:17:56Z</time>
      </trkpt>
      <trkpt lat="41.053205961361527" lon="-8.265220960602164">
        <ele>123.67</ele>
        <time>2025-05-03T12:17:57Z</time>
      </trkpt>
      <trkpt lat="41.053082998842001" lon="-8.265206962823868">
        <ele>125.11</ele>
        <time>2025-05-03T12:17:58Z</time>
      </trkpt>
      <trkpt lat="41.052976967766881" lon="-8.265140997245908">
        <ele>126.55</ele>
        <time>2025-05-03T12:17:59Z</time>
      </trkpt>
      <trkpt lat="41.05288602411747" lon="-8.265041001141071">
        <ele>127.98999999999999</ele>
        <time>2025-05-03T12:18:00Z</time>
      </trkpt>
      <trkpt lat="41.052815029397607" lon="-8.264918960630894">
        <ele>129.43000000000001</ele>
        <time>2025-05-03T12:18:01Z</time>
      </trkpt>
      <trkpt lat="41.052741017192602" lon="-8.264799015596509">
        <ele>130.40000000000001</ele>
        <time>2025-05-03T12:18:02Z</time>
      </trkpt>
      <trkpt lat="41.052662981674075" lon="-8.264683010056615">
        <ele>131.84</ele>
        <time>2025-05-03T12:18:03Z</time>
      </trkpt>
      <trkpt lat="41.052603973075747" lon="-8.264593994244933">
        <ele>133.28</ele>
        <time>2025-05-03T12:18:04Z</time>
      </trkpt>
      <trkpt lat="41.052492996677756" lon="-8.264539008960128">
        <ele>134.24000000000001</ele>
        <time>2025-05-03T12:18:05Z</time>
      </trkpt>
      <trkpt lat="41.052385037764907" lon="-8.264485029503703">
        <ele>135.68000000000001</ele>
        <time>2025-05-03T12:18:06Z</time>
      </trkpt>
      <trkpt lat="41.052271965891123" lon="-8.264428032562137">
        <ele>137.13</ele>
        <time>2025-05-03T12:18:07Z</time>
      </trkpt>
      <trkpt lat="41.05215797200799" lon="-8.264403976500034">
        <ele>138.09</ele>
        <time>2025-05-03T12:18:08Z</time>
      </trkpt>
      <trkpt lat="41.051909029483795" lon="-8.264361983165145">
        <ele>140.00999999999999</ele>
        <time>2025-05-03T12:18:10Z</time>
      </trkpt>
      <trkpt lat="41.051786988973618" lon="-8.264343962073326">
        <ele>140.97</ele>
        <time>2025-05-03T12:18:11Z</time>
      </trkpt>
      <trkpt lat="41.051667965948582" lon="-8.264326024800539">
        <ele>142.41</ele>
        <time>2025-05-03T12:18:12Z</time>
      </trkpt>
      <trkpt lat="41.051543997600675" lon="-8.264325018972158">
        <ele>143.37</ele>
        <time>2025-05-03T12:18:13Z</time>
      </trkpt>
      <trkpt lat="41.051421035081148" lon="-8.264346979558468">
        <ele>144.34</ele>
        <time>2025-05-03T12:18:14Z</time>
      </trkpt>
      <trkpt lat="41.051310980692506" lon="-8.264395007863641">
        <ele>144.81999999999999</ele>
        <time>2025-05-03T12:18:15Z</time>
      </trkpt>
      <trkpt lat="41.051206961274147" lon="-8.264474971219897">
        <ele>145.78</ele>
        <time>2025-05-03T12:18:16Z</time>
      </trkpt>
      <trkpt lat="41.051102019846439" lon="-8.264556024223566">
        <ele>146.74000000000001</ele>
        <time>2025-05-03T12:18:17Z</time>
      </trkpt>
      <trkpt lat="41.051020966842771" lon="-8.26467496342957">
        <ele>147.22</ele>
        <time>2025-05-03T12:18:18Z</time>
      </trkpt>
      <trkpt lat="41.05093102902174" lon="-8.264830028638244">
        <ele>148.18000000000001</ele>
        <time>2025-05-03T12:18:19Z</time>
      </trkpt>
      <trkpt lat="41.050924994051456" lon="-8.264975035563111">
        <ele>149.13999999999999</ele>
        <time>2025-05-03T12:18:20Z</time>
      </trkpt>
      <trkpt lat="41.050918037071824" lon="-8.265138985589147">
        <ele>149.62</ele>
        <time>2025-05-03T12:18:21Z</time>
      </trkpt>
      <trkpt lat="41.050912002101541" lon="-8.265298996120691">
        <ele>150.58000000000001</ele>
        <time>2025-05-03T12:18:22Z</time>
      </trkpt>
      <trkpt lat="41.050950977951288" lon="-8.265442997217178">
        <ele>151.53999999999999</ele>
        <time>2025-05-03T12:18:23Z</time>
      </trkpt>
      <trkpt lat="41.051018033176661" lon="-8.265566965565085">
        <ele>152.03</ele>
        <time>2025-05-03T12:18:24Z</time>
      </trkpt>
      <trkpt lat="41.051083998754621" lon="-8.265691017732024">
        <ele>153.47</ele>
        <time>2025-05-03T12:18:25Z</time>
      </trkpt>
      <trkpt lat="41.051152981817722" lon="-8.265815991908312">
        <ele>154.43000000000001</ele>
        <time>2025-05-03T12:18:26Z</time>
      </trkpt>
      <trkpt lat="41.051188018172979" lon="-8.265959993004799">
        <ele>155.38999999999999</ele>
        <time>2025-05-03T12:18:27Z</time>
      </trkpt>
      <trkpt lat="41.051167985424399" lon="-8.266101982444525">
        <ele>156.83000000000001</ele>
        <time>2025-05-03T12:18:28Z</time>
      </trkpt>
      <trkpt lat="41.051115011796355" lon="-8.266202984377742">
        <ele>158.27000000000001</ele>
        <time>2025-05-03T12:18:29Z</time>
      </trkpt>
      <trkpt lat="41.051016021519899" lon="-8.266271967440844">
        <ele>159.24000000000001</ele>
        <time>2025-05-03T12:18:30Z</time>
      </trkpt>
      <trkpt lat="41.050928011536598" lon="-8.266330976039171">
        <ele>160.19999999999999</ele>
        <time>2025-05-03T12:18:31Z</time>
      </trkpt>
      <trkpt lat="41.050815023481846" lon="-8.266292000189424">
        <ele>161.16</ele>
        <time>2025-05-03T12:18:32Z</time>
      </trkpt>
      <trkpt lat="41.050697006285191" lon="-8.266251012682915">
        <ele>162.12</ele>
        <time>2025-05-03T12:18:33Z</time>
      </trkpt>
      <trkpt lat="41.050578989088535" lon="-8.266209019348025">
        <ele>163.08000000000001</ele>
        <time>2025-05-03T12:18:34Z</time>
      </trkpt>
      <trkpt lat="41.050446974113584" lon="-8.266202984377742">
        <ele>164.03999999999999</ele>
        <time>2025-05-03T12:18:35Z</time>
      </trkpt>
      <trkpt lat="41.050328034907579" lon="-8.266249001026154">
        <ele>165</ele>
        <time>2025-05-03T12:18:36Z</time>
      </trkpt>
      <trkpt lat="41.050198031589389" lon="-8.266304992139339">
        <ele>165.96000000000001</ele>
        <time>2025-05-03T12:18:37Z</time>
      </trkpt>
      <trkpt lat="41.050072973594069" lon="-8.266383027657867">
        <ele>166.44999999999999</ele>
        <time>2025-05-03T12:18:38Z</time>
      </trkpt>
      <trkpt lat="41.049966020509601" lon="-8.266482017934322">
        <ele>167.41</ele>
        <time>2025-05-03T12:18:39Z</time>
      </trkpt>
      <trkpt lat="41.049870969727635" lon="-8.266576984897256">
        <ele>167.88999999999999</ele>
        <time>2025-05-03T12:18:40Z</time>
      </trkpt>
      <trkpt lat="41.049810033291578" lon="-8.266684021800757">
        <ele>168.37</ele>
        <time>2025-05-03T12:18:41Z</time>
      </trkpt>
      <trkpt lat="41.049796035513282" lon="-8.266832968220115">
        <ele>169.33000000000001</ele>
        <time>2025-05-03T12:18:42Z</time>
      </trkpt>
      <trkpt lat="41.049779020249844" lon="-8.267003959044814">
        <ele>170.28999999999999</ele>
        <time>2025-05-03T12:18:43Z</time>
      </trkpt>
      <trkpt lat="41.049754964187741" lon="-8.267187019810081">
        <ele>171.25</ele>
        <time>2025-05-03T12:18:44Z</time>
      </trkpt>
      <trkpt lat="41.049724034965038" lon="-8.267373014241457">
        <ele>172.69</ele>
        <time>2025-05-03T12:18:45Z</time>
      </trkpt>
      <trkpt lat="41.049692016094923" lon="-8.267563031986356">
        <ele>173.66</ele>
        <time>2025-05-03T12:18:46Z</time>
      </trkpt>
      <trkpt lat="41.04968598112464" lon="-8.267754977568984">
        <ele>174.62</ele>
        <time>2025-05-03T12:18:47Z</time>
      </trkpt>
      <trkpt lat="41.04968598112464" lon="-8.267935020849109">
        <ele>175.09999999999999</ele>
        <time>2025-05-03T12:18:48Z</time>
      </trkpt>
      <trkpt lat="41.049722023308277" lon="-8.268074998632073">
        <ele>176.06</ele>
        <time>2025-05-03T12:18:49Z</time>
      </trkpt>
      <trkpt lat="41.04977197945118" lon="-8.268199972808361">
        <ele>177.02000000000001</ele>
        <time>2025-05-03T12:18:50Z</time>
      </trkpt>
      <trkpt lat="41.049867030233145" lon="-8.268310027197003">
        <ele>177.97999999999999</ele>
        <time>2025-05-03T12:18:51Z</time>
      </trkpt>
      <trkpt lat="41.049969960004091" lon="-8.268429972231388">
        <ele>178.94</ele>
        <time>2025-05-03T12:18:52Z</time>
      </trkpt>
      <trkpt lat="41.050064004957676" lon="-8.2685830257833">
        <ele>180.38</ele>
        <time>2025-05-03T12:18:53Z</time>
      </trkpt>
      <trkpt lat="41.050130976364017" lon="-8.268743958324194">
        <ele>181.34999999999999</ele>
        <time>2025-05-03T12:18:54Z</time>
      </trkpt>
      <trkpt lat="41.050162995234132" lon="-8.268916960805655">
        <ele>182.78999999999999</ele>
        <time>2025-05-03T12:18:55Z</time>
      </trkpt>
      <trkpt lat="41.050158971920609" lon="-8.269064985215664">
        <ele>183.75</ele>
        <time>2025-05-03T12:18:56Z</time>
      </trkpt>
      <trkpt lat="41.050108009949327" lon="-8.269193982705474">
        <ele>184.71000000000001</ele>
        <time>2025-05-03T12:18:57Z</time>
      </trkpt>
      <trkpt lat="41.050042966380715" lon="-8.269273024052382">
        <ele>185.19</ele>
        <time>2025-05-03T12:18:58Z</time>
      </trkpt>
      <trkpt lat="41.049950011074543" lon="-8.269351981580257">
        <ele>186.15000000000001</ele>
        <time>2025-05-03T12:18:59Z</time>
      </trkpt>
      <trkpt lat="41.049859989434481" lon="-8.269341001287103">
        <ele>186.63</ele>
        <time>2025-05-03T12:19:00Z</time>
      </trkpt>
      <trkpt lat="41.049737026914954" lon="-8.269317029044032">
        <ele>187.59</ele>
        <time>2025-05-03T12:19:01Z</time>
      </trkpt>
      <trkpt lat="41.049645999446511" lon="-8.269235976040363">
        <ele>188.56</ele>
        <time>2025-05-03T12:19:02Z</time>
      </trkpt>
      <trkpt lat="41.049536028876901" lon="-8.269132040441036">
        <ele>189.03999999999999</ele>
        <time>2025-05-03T12:19:03Z</time>
      </trkpt>
      <trkpt lat="41.04942798614502" lon="-8.269030032679439">
        <ele>189.52000000000001</ele>
        <time>2025-05-03T12:19:04Z</time>
      </trkpt>
      <trkpt lat="41.049328995868564" lon="-8.268935987725854">
        <ele>190.47999999999999</ele>
        <time>2025-05-03T12:19:05Z</time>
      </trkpt>
      <trkpt lat="41.049206033349037" lon="-8.268896006047726">
        <ele>190.47999999999999</ele>
        <time>2025-05-03T12:19:06Z</time>
      </trkpt>
      <trkpt lat="41.049082987010479" lon="-8.268860969692469">
        <ele>190.96000000000001</ele>
        <time>2025-05-03T12:19:07Z</time>
      </trkpt>
      <trkpt lat="41.048948038369417" lon="-8.268839009106159">
        <ele>190.96000000000001</ele>
        <time>2025-05-03T12:19:08Z</time>
      </trkpt>
      <trkpt lat="41.048552999272943" lon="-8.268854012712836">
        <ele>192.40000000000001</ele>
        <time>2025-05-03T12:19:11Z</time>
      </trkpt>
      <trkpt lat="41.048436993733048" lon="-8.268900029361248">
        <ele>192.40000000000001</ele>
        <time>2025-05-03T12:19:12Z</time>
      </trkpt>
      <trkpt lat="41.048340015113354" lon="-8.26901201158762">
        <ele>192.88</ele>
        <time>2025-05-03T12:19:13Z</time>
      </trkpt>
      <trkpt lat="41.048241024836898" lon="-8.269143020734191">
        <ele>193.36000000000001</ele>
        <time>2025-05-03T12:19:14Z</time>
      </trkpt>
      <trkpt lat="41.048137005418539" lon="-8.269279981032014">
        <ele>194.31999999999999</ele>
        <time>2025-05-03T12:19:15Z</time>
      </trkpt>
      <trkpt lat="41.048040026798844" lon="-8.269406966865063">
        <ele>194.80000000000001</ele>
        <time>2025-05-03T12:19:16Z</time>
      </trkpt>
      <trkpt lat="41.04794598184526" lon="-8.269496988505125">
        <ele>194.80000000000001</ele>
        <time>2025-05-03T12:19:17Z</time>
      </trkpt>
      <trkpt lat="41.047832993790507" lon="-8.26952900737524">
        <ele>195.28</ele>
        <time>2025-05-03T12:19:18Z</time>
      </trkpt>
      <trkpt lat="41.047702990472317" lon="-8.269509980455041">
        <ele>195.77000000000001</ele>
        <time>2025-05-03T12:19:19Z</time>
      </trkpt>
      <trkpt lat="41.047567036002874" lon="-8.269459018483758">
        <ele>196.25</ele>
        <time>2025-05-03T12:19:20Z</time>
      </trkpt>
      <trkpt lat="41.047436026856303" lon="-8.269409984350205">
        <ele>196.72999999999999</ele>
        <time>2025-05-03T12:19:21Z</time>
      </trkpt>
      <trkpt lat="41.047309041023254" lon="-8.269420964643359">
        <ele>196.72999999999999</ele>
        <time>2025-05-03T12:19:22Z</time>
      </trkpt>
      <trkpt lat="41.047196974977851" lon="-8.269444014877081">
        <ele>196.72999999999999</ele>
        <time>2025-05-03T12:19:23Z</time>
      </trkpt>
      <trkpt lat="41.047077029943466" lon="-8.269552979618311">
        <ele>196.72999999999999</ele>
        <time>2025-05-03T12:19:24Z</time>
      </trkpt>
      <trkpt lat="41.046938979998231" lon="-8.26967996545136">
        <ele>197.21000000000001</ele>
        <time>2025-05-03T12:19:25Z</time>
      </trkpt>
      <trkpt lat="41.046847030520439" lon="-8.269794965162873">
        <ele>197.21000000000001</ele>
        <time>2025-05-03T12:19:26Z</time>
      </trkpt>
      <trkpt lat="41.046102968975902" lon="-8.27075301669538">
        <ele>192.40000000000001</ele>
        <time>2025-05-03T12:19:33Z</time>
      </trkpt>
      <trkpt lat="41.046068016439676" lon="-8.270919984206557">
        <ele>191.91999999999999</ele>
        <time>2025-05-03T12:19:34Z</time>
      </trkpt>
      <trkpt lat="41.046028034761548" lon="-8.271116958931088">
        <ele>192.40000000000001</ele>
        <time>2025-05-03T12:19:35Z</time>
      </trkpt>
      <trkpt lat="41.045868024230003" lon="-8.271921034902334">
        <ele>194.80000000000001</ele>
        <time>2025-05-03T12:19:39Z</time>
      </trkpt>
      <trkpt lat="41.045826030895114" lon="-8.272078027948737">
        <ele>195.28</ele>
        <time>2025-05-03T12:19:40Z</time>
      </trkpt>
      <trkpt lat="41.045761993154883" lon="-8.272206019610167">
        <ele>195.77000000000001</ele>
        <time>2025-05-03T12:19:41Z</time>
      </trkpt>
      <trkpt lat="41.045695021748543" lon="-8.272339962422848">
        <ele>196.25</ele>
        <time>2025-05-03T12:19:42Z</time>
      </trkpt>
      <trkpt lat="41.045631989836693" lon="-8.272435013204813">
        <ele>196.72999999999999</ele>
        <time>2025-05-03T12:19:43Z</time>
      </trkpt>
      <trkpt lat="41.045569963753223" lon="-8.272524029016495">
        <ele>197.69</ele>
        <time>2025-05-03T12:19:44Z</time>
      </trkpt>
      <trkpt lat="41.045501986518502" lon="-8.272618995979428">
        <ele>198.16999999999999</ele>
        <time>2025-05-03T12:19:45Z</time>
      </trkpt>
      <trkpt lat="41.045479020103812" lon="-8.272680016234517">
        <ele>198.65000000000001</ele>
        <time>2025-05-03T12:19:46Z</time>
      </trkpt>
      <trkpt lat="41.045523025095463" lon="-8.272898029536009">
        <ele>199.13</ele>
        <time>2025-05-03T12:19:47Z</time>
      </trkpt>
      <trkpt lat="41.045523025095463" lon="-8.272916972637177">
        <ele>199.61000000000001</ele>
        <time>2025-05-03T12:19:48Z</time>
      </trkpt>
      <trkpt lat="41.045515984296799" lon="-8.273033984005451">
        <ele>199.61000000000001</ele>
        <time>2025-05-03T12:19:49Z</time>
      </trkpt>
      <trkpt lat="41.045445995405316" lon="-8.273128028959036">
        <ele>200.09</ele>
        <time>2025-05-03T12:19:50Z</time>
      </trkpt>
      <trkpt lat="41.045371983200312" lon="-8.273176979273558">
        <ele>200.09</ele>
        <time>2025-05-03T12:19:51Z</time>
      </trkpt>
      <trkpt lat="41.045293025672436" lon="-8.273176979273558">
        <ele>200.56999999999999</ele>
        <time>2025-05-03T12:19:52Z</time>
      </trkpt>
      <trkpt lat="41.045243991538882" lon="-8.273176979273558">
        <ele>200.56999999999999</ele>
        <time>2025-05-03T12:19:53Z</time>
      </trkpt>
      <trkpt lat="41.045096972957253" lon="-8.273067008703947">
        <ele>200.56999999999999</ele>
        <time>2025-05-03T12:19:54Z</time>
      </trkpt>
      <trkpt lat="41.044841995462775" lon="-8.273056028410792">
        <ele>201.05000000000001</ele>
        <time>2025-05-03T12:19:57Z</time>
      </trkpt>
      <trkpt lat="41.044750967994332" lon="-8.273005988448858">
        <ele>201.53</ele>
        <time>2025-05-03T12:19:58Z</time>
      </trkpt>
      <trkpt lat="41.044677039608359" lon="-8.272910015657544">
        <ele>201.53</ele>
        <time>2025-05-03T12:19:59Z</time>
      </trkpt>
      <trkpt lat="41.044049989432096" lon="-8.272008961066604">
        <ele>204.41999999999999</ele>
        <time>2025-05-03T12:20:07Z</time>
      </trkpt>
      <trkpt lat="41.043990980833769" lon="-8.271876024082303">
        <ele>204.90000000000001</ele>
        <time>2025-05-03T12:20:08Z</time>
      </trkpt>
      <trkpt lat="41.043441966176033" lon="-8.270644973963499">
        <ele>211.15000000000001</ele>
        <time>2025-05-03T12:20:18Z</time>
      </trkpt>
      <trkpt lat="41.043380023911595" lon="-8.270592000335455">
        <ele>211.15000000000001</ele>
        <time>2025-05-03T12:20:19Z</time>
      </trkpt>
      <trkpt lat="41.043313974514604" lon="-8.270536009222269">
        <ele>211.63</ele>
        <time>2025-05-03T12:20:20Z</time>
      </trkpt>
      <trkpt lat="41.043224036693573" lon="-8.270510025322437">
        <ele>212.11000000000001</ele>
        <time>2025-05-03T12:20:21Z</time>
      </trkpt>
      <trkpt lat="41.043138960376382" lon="-8.270502984523773">
        <ele>213.06999999999999</ele>
        <time>2025-05-03T12:20:22Z</time>
      </trkpt>
      <trkpt lat="41.043012980371714" lon="-8.2705810200423">
        <ele>214.03</ele>
        <time>2025-05-03T12:20:23Z</time>
      </trkpt>
      <trkpt lat="41.042981967329979" lon="-8.27060298062861">
        <ele>214.99000000000001</ele>
        <time>2025-05-03T12:20:24Z</time>
      </trkpt>
      <trkpt lat="41.042926982045174" lon="-8.270644973963499">
        <ele>215.47</ele>
        <time>2025-05-03T12:20:25Z</time>
      </trkpt>
      <trkpt lat="41.042926982045174" lon="-8.270644973963499">
        <ele>215.94999999999999</ele>
        <time>2025-05-03T12:20:26Z</time>
      </trkpt>
      <trkpt lat="41.042730007320642" lon="-8.270742958411574">
        <ele>216.43000000000001</ele>
        <time>2025-05-03T12:20:27Z</time>
      </trkpt>
      <trkpt lat="41.042691031470895" lon="-8.27083800919354">
        <ele>216.43000000000001</ele>
        <time>2025-05-03T12:20:28Z</time>
      </trkpt>
      <trkpt lat="41.042651971802115" lon="-8.270929958671331">
        <ele>216.43000000000001</ele>
        <time>2025-05-03T12:20:29Z</time>
      </trkpt>
      <trkpt lat="41.042615007609129" lon="-8.271017968654633">
        <ele>216.43000000000001</ele>
        <time>2025-05-03T12:20:30Z</time>
      </trkpt>
      <trkpt lat="41.042576031759381" lon="-8.271111007779837">
        <ele>216.43000000000001</ele>
        <time>2025-05-03T12:20:31Z</time>
      </trkpt>
      <trkpt lat="41.042407974600792" lon="-8.271575029939413">
        <ele>216.43000000000001</ele>
        <time>2025-05-03T12:20:35Z</time>
      </trkpt>
      <trkpt lat="41.04240101762116" lon="-8.271707966923714">
        <ele>215.94999999999999</ele>
        <time>2025-05-03T12:20:36Z</time>
      </trkpt>
      <trkpt lat="41.042393976822495" lon="-8.271841993555427">
        <ele>215.94999999999999</ele>
        <time>2025-05-03T12:20:37Z</time>
      </trkpt>
      <trkpt lat="41.042407974600792" lon="-8.271980965510011">
        <ele>215.47</ele>
        <time>2025-05-03T12:20:38Z</time>
      </trkpt>
      <trkpt lat="41.042440999299288" lon="-8.272112980484963">
        <ele>215.47</ele>
        <time>2025-05-03T12:20:39Z</time>
      </trkpt>
      <trkpt lat="41.042476035654545" lon="-8.272254969924688">
        <ele>215.47</ele>
        <time>2025-05-03T12:20:40Z</time>
      </trkpt>
      <trkpt lat="41.042899992316961" lon="-8.273791037499905">
        <ele>211.63</ele>
        <time>2025-05-03T12:20:50Z</time>
      </trkpt>
      <trkpt lat="41.042993031442165" lon="-8.274241983890533">
        <ele>210.19</ele>
        <time>2025-05-03T12:20:53Z</time>
      </trkpt>
      <trkpt lat="41.043009040877223" lon="-8.27438497915864">
        <ele>209.69999999999999</ele>
        <time>2025-05-03T12:20:54Z</time>
      </trkpt>
      <trkpt lat="41.042989008128643" lon="-8.274493021890521">
        <ele>209.69999999999999</ele>
        <time>2025-05-03T12:20:55Z</time>
      </trkpt>
      <trkpt lat="41.042943997308612" lon="-8.274625958874822">
        <ele>209.22</ele>
        <time>2025-05-03T12:20:56Z</time>
      </trkpt>
      <trkpt lat="41.042894963175058" lon="-8.274754034355283">
        <ele>209.22</ele>
        <time>2025-05-03T12:20:57Z</time>
      </trkpt>
      <trkpt lat="41.042791027575731" lon="-8.274849001318216">
        <ele>208.74000000000001</ele>
        <time>2025-05-03T12:20:58Z</time>
      </trkpt>
      <trkpt lat="41.042683990672231" lon="-8.274946985766292">
        <ele>208.74000000000001</ele>
        <time>2025-05-03T12:20:59Z</time>
      </trkpt>
      <trkpt lat="41.041590990498662" lon="-8.275964967906475">
        <ele>207.30000000000001</ele>
        <time>2025-05-03T12:21:10Z</time>
      </trkpt>
      <trkpt lat="41.04119997471571" lon="-8.276341985911131">
        <ele>206.81999999999999</ele>
        <time>2025-05-03T12:21:14Z</time>
      </trkpt>
      <trkpt lat="41.041083969175816" lon="-8.27638297341764">
        <ele>206.34</ele>
        <time>2025-05-03T12:21:15Z</time>
      </trkpt>
      <trkpt lat="41.040969975292683" lon="-8.276393031701446">
        <ele>206.34</ele>
        <time>2025-05-03T12:21:16Z</time>
      </trkpt>
      <trkpt lat="41.040851036086679" lon="-8.276388002559543">
        <ele>206.34</ele>
        <time>2025-05-03T12:21:17Z</time>
      </trkpt>
      <trkpt lat="41.040728995576501" lon="-8.276381967589259">
        <ele>205.86000000000001</ele>
        <time>2025-05-03T12:21:18Z</time>
      </trkpt>
      <trkpt lat="41.040607038885355" lon="-8.276377022266388">
        <ele>205.86000000000001</ele>
        <time>2025-05-03T12:21:19Z</time>
      </trkpt>
      <trkpt lat="41.04049002751708" lon="-8.276389008387923">
        <ele>205.38</ele>
        <time>2025-05-03T12:21:20Z</time>
      </trkpt>
      <trkpt lat="41.040147040039301" lon="-8.276474000886083">
        <ele>203.46000000000001</ele>
        <time>2025-05-03T12:21:23Z</time>
      </trkpt>
      <trkpt lat="41.040036985650659" lon="-8.276494033634663">
        <ele>202.97999999999999</ele>
        <time>2025-05-03T12:21:24Z</time>
      </trkpt>
      <trkpt lat="41.039951993152499" lon="-8.27653300948441">
        <ele>202.97999999999999</ele>
        <time>2025-05-03T12:21:25Z</time>
      </trkpt>
      <trkpt lat="41.039879992604256" lon="-8.276594029739499">
        <ele>202.97999999999999</ele>
        <time>2025-05-03T12:21:26Z</time>
      </trkpt>
      <trkpt lat="41.039826013147831" lon="-8.27666100114584">
        <ele>202.49000000000001</ele>
        <time>2025-05-03T12:21:27Z</time>
      </trkpt>
      <trkpt lat="41.039787959307432" lon="-8.276764014735818">
        <ele>202.49000000000001</ele>
        <time>2025-05-03T12:21:28Z</time>
      </trkpt>
      <trkpt lat="41.039745965972543" lon="-8.276872979477048">
        <ele>202.00999999999999</ele>
        <time>2025-05-03T12:21:29Z</time>
      </trkpt>
      <trkpt lat="41.039707995951176" lon="-8.276981022208929">
        <ele>202.00999999999999</ele>
        <time>2025-05-03T12:21:30Z</time>
      </trkpt>
      <trkpt lat="41.039707995951176" lon="-8.277109013870359">
        <ele>202.00999999999999</ele>
        <time>2025-05-03T12:21:31Z</time>
      </trkpt>
      <trkpt lat="41.03971897624433" lon="-8.27724002301693">
        <ele>201.53</ele>
        <time>2025-05-03T12:21:32Z</time>
      </trkpt>
      <trkpt lat="41.039764992892742" lon="-8.277361979708076">
        <ele>202.00999999999999</ele>
        <time>2025-05-03T12:21:33Z</time>
      </trkpt>
      <trkpt lat="41.039811009541154" lon="-8.277486031875014">
        <ele>202.00999999999999</ele>
        <time>2025-05-03T12:21:34Z</time>
      </trkpt>
      <trkpt lat="41.039832970127463" lon="-8.27760698273778">
        <ele>201.53</ele>
        <time>2025-05-03T12:21:35Z</time>
      </trkpt>
      <trkpt lat="41.03982400149107" lon="-8.277737991884351">
        <ele>201.05000000000001</ele>
        <time>2025-05-03T12:21:36Z</time>
      </trkpt>
      <trkpt lat="41.039808997884393" lon="-8.277866989374161">
        <ele>200.09</ele>
        <time>2025-05-03T12:21:37Z</time>
      </trkpt>
      <trkpt lat="41.03973900899291" lon="-8.277987018227577">
        <ele>199.61000000000001</ele>
        <time>2025-05-03T12:21:38Z</time>
      </trkpt>
      <trkpt lat="41.039664996787906" lon="-8.278115009889007">
        <ele>199.13</ele>
        <time>2025-05-03T12:21:39Z</time>
      </trkpt>
      <trkpt lat="41.03958897292614" lon="-8.278247024863958">
        <ele>198.65000000000001</ele>
        <time>2025-05-03T12:21:40Z</time>
      </trkpt>
      <trkpt lat="41.039495011791587" lon="-8.278362024575472">
        <ele>198.16999999999999</ele>
        <time>2025-05-03T12:21:41Z</time>
      </trkpt>
      <trkpt lat="41.039400966838002" lon="-8.278473000973463">
        <ele>197.69</ele>
        <time>2025-05-03T12:21:42Z</time>
      </trkpt>
      <trkpt lat="41.039059991016984" lon="-8.278849013149738">
        <ele>196.25</ele>
        <time>2025-05-03T12:21:46Z</time>
      </trkpt>
      <trkpt lat="41.038970975205302" lon="-8.278901986777782">
        <ele>196.25</ele>
        <time>2025-05-03T12:21:47Z</time>
      </trkpt>
      <trkpt lat="41.03888195939362" lon="-8.278955966234207">
        <ele>195.77000000000001</ele>
        <time>2025-05-03T12:21:48Z</time>
      </trkpt>
      <trkpt lat="41.038784980773926" lon="-8.279013969004154">
        <ele>195.77000000000001</ele>
        <time>2025-05-03T12:21:49Z</time>
      </trkpt>
      <trkpt lat="41.038683978840709" lon="-8.279020003974438">
        <ele>195.28</ele>
        <time>2025-05-03T12:21:50Z</time>
      </trkpt>
      <trkpt lat="41.038477029651403" lon="-8.279031990095973">
        <ele>195.28</ele>
        <time>2025-05-03T12:21:52Z</time>
      </trkpt>
      <trkpt lat="41.038377033546567" lon="-8.279022015631199">
        <ele>195.28</ele>
        <time>2025-05-03T12:21:53Z</time>
      </trkpt>
      <trkpt lat="41.037985011935234" lon="-8.278836021199822">
        <ele>193.84</ele>
        <time>2025-05-03T12:21:57Z</time>
      </trkpt>
      <trkpt lat="41.037905970588326" lon="-8.278756979852915">
        <ele>193.84</ele>
        <time>2025-05-03T12:21:58Z</time>
      </trkpt>
      <trkpt lat="41.037753000855446" lon="-8.278604010120034">
        <ele>193.36000000000001</ele>
        <time>2025-05-03T12:22:00Z</time>
      </trkpt>
      <trkpt lat="41.037670020014048" lon="-8.278549024835229">
        <ele>193.36000000000001</ele>
        <time>2025-05-03T12:22:01Z</time>
      </trkpt>
      <trkpt lat="41.037573041394353" lon="-8.278517005965114">
        <ele>192.88</ele>
        <time>2025-05-03T12:22:02Z</time>
      </trkpt>
      <trkpt lat="41.037476984784007" lon="-8.278484987094998">
        <ele>192.88</ele>
        <time>2025-05-03T12:22:03Z</time>
      </trkpt>
      <trkpt lat="41.037383023649454" lon="-8.278454979881644">
        <ele>192.40000000000001</ele>
        <time>2025-05-03T12:22:04Z</time>
      </trkpt>
      <trkpt lat="41.03728998452425" lon="-8.278438970446587">
        <ele>192.40000000000001</ele>
        <time>2025-05-03T12:22:05Z</time>
      </trkpt>
      <trkpt lat="41.037125028669834" lon="-8.278411980718374">
        <ele>192.40000000000001</ele>
        <time>2025-05-03T12:22:07Z</time>
      </trkpt>
      <trkpt lat="41.037064008414745" lon="-8.27840100042522">
        <ele>191.91999999999999</ele>
        <time>2025-05-03T12:22:08Z</time>
      </trkpt>
      <trkpt lat="41.036972980946302" lon="-8.278567967936397">
        <ele>191.91999999999999</ele>
        <time>2025-05-03T12:22:09Z</time>
      </trkpt>
      <trkpt lat="41.036957977339625" lon="-8.278653966262937">
        <ele>191.91999999999999</ele>
        <time>2025-05-03T12:22:10Z</time>
      </trkpt>
      <trkpt lat="41.036940962076187" lon="-8.278750022873282">
        <ele>191.44</ele>
        <time>2025-05-03T12:22:11Z</time>
      </trkpt>
      <trkpt lat="41.036922018975019" lon="-8.27885203063488">
        <ele>191.44</ele>
        <time>2025-05-03T12:22:12Z</time>
      </trkpt>
      <trkpt lat="41.036897040903568" lon="-8.278992008417845">
        <ele>191.44</ele>
        <time>2025-05-03T12:22:13Z</time>
      </trkpt>
      <trkpt lat="41.036897040903568" lon="-8.279084041714668">
        <ele>191.44</ele>
        <time>2025-05-03T12:22:14Z</time>
      </trkpt>
      <trkpt lat="41.036900980398059" lon="-8.280324982479215">
        <ele>190</ele>
        <time>2025-05-03T12:22:22Z</time>
      </trkpt>
      <trkpt lat="41.036957977339625" lon="-8.28104498796165">
        <ele>187.11000000000001</ele>
        <time>2025-05-03T12:22:26Z</time>
      </trkpt>
      <trkpt lat="41.036943979561329" lon="-8.281189994886518">
        <ele>186.63</ele>
        <time>2025-05-03T12:22:27Z</time>
      </trkpt>
      <trkpt lat="41.036891005933285" lon="-8.281284961849451">
        <ele>185.66999999999999</ele>
        <time>2025-05-03T12:22:28Z</time>
      </trkpt>
      <trkpt lat="41.036810036748648" lon="-8.281386969611049">
        <ele>184.71000000000001</ele>
        <time>2025-05-03T12:22:29Z</time>
      </trkpt>
      <trkpt lat="41.036712974309921" lon="-8.28145301900804">
        <ele>184.22999999999999</ele>
        <time>2025-05-03T12:22:30Z</time>
      </trkpt>
      <trkpt lat="41.036591017618775" lon="-8.281486965715885">
        <ele>183.27000000000001</ele>
        <time>2025-05-03T12:22:31Z</time>
      </trkpt>
      <trkpt lat="41.036462020128965" lon="-8.281522002071142">
        <ele>182.78999999999999</ele>
        <time>2025-05-03T12:22:32Z</time>
      </trkpt>
      <trkpt lat="41.036324976012111" lon="-8.281558966264129">
        <ele>181.83000000000001</ele>
        <time>2025-05-03T12:22:33Z</time>
      </trkpt>
      <trkpt lat="41.036044014617801" lon="-8.281514039263129">
        <ele>179.90000000000001</ele>
        <time>2025-05-03T12:22:35Z</time>
      </trkpt>
      <trkpt lat="41.035903031006455" lon="-8.281484032049775">
        <ele>178.94</ele>
        <time>2025-05-03T12:22:36Z</time>
      </trkpt>
      <trkpt lat="41.03563497774303" lon="-8.281427035108209">
        <ele>177.02000000000001</ele>
        <time>2025-05-03T12:22:38Z</time>
      </trkpt>
      <trkpt lat="41.03552701883018" lon="-8.281458970159292">
        <ele>176.53999999999999</ele>
        <time>2025-05-03T12:22:39Z</time>
      </trkpt>
      <trkpt lat="41.03542098775506" lon="-8.281529964879155">
        <ele>176.06</ele>
        <time>2025-05-03T12:22:40Z</time>
      </trkpt>
      <trkpt lat="41.034922013059258" lon="-8.281854009255767">
        <ele>173.66</ele>
        <time>2025-05-03T12:22:44Z</time>
      </trkpt>
      <trkpt lat="41.034797038882971" lon="-8.281888961791992">
        <ele>172.69</ele>
        <time>2025-05-03T12:22:45Z</time>
      </trkpt>
      <trkpt lat="41.03470902889967" lon="-8.281888961791992">
        <ele>171.72999999999999</ele>
        <time>2025-05-03T12:22:46Z</time>
      </trkpt>
      <trkpt lat="41.034569973126054" lon="-8.281805980950594">
        <ele>170.77000000000001</ele>
        <time>2025-05-03T12:22:47Z</time>
      </trkpt>
      <trkpt lat="41.034468971192837" lon="-8.281726017594338">
        <ele>169.81</ele>
        <time>2025-05-03T12:22:48Z</time>
      </trkpt>
      <trkpt lat="41.034375010058284" lon="-8.281594002619386">
        <ele>168.84999999999999</ele>
        <time>2025-05-03T12:22:49Z</time>
      </trkpt>
      <trkpt lat="41.034276019781828" lon="-8.281455030664802">
        <ele>167.88999999999999</ele>
        <time>2025-05-03T12:22:50Z</time>
      </trkpt>
      <trkpt lat="41.033966979011893" lon="-8.28102202154696">
        <ele>165.47999999999999</ele>
        <time>2025-05-03T12:22:53Z</time>
      </trkpt>
      <trkpt lat="41.033844016492367" lon="-8.280957983806729">
        <ele>165</ele>
        <time>2025-05-03T12:22:54Z</time>
      </trkpt>
      <trkpt lat="41.033720970153809" lon="-8.280901992693543">
        <ele>164.52000000000001</ele>
        <time>2025-05-03T12:22:55Z</time>
      </trkpt>
      <trkpt lat="41.033451994881034" lon="-8.280827980488539">
        <ele>164.03999999999999</ele>
        <time>2025-05-03T12:22:57Z</time>
      </trkpt>
      <trkpt lat="41.033308999612927" lon="-8.280789004638791">
        <ele>163.56</ele>
        <time>2025-05-03T12:22:58Z</time>
      </trkpt>
      <trkpt lat="41.033167010173202" lon="-8.280749022960663">
        <ele>163.08000000000001</ele>
        <time>2025-05-03T12:22:59Z</time>
      </trkpt>
      <trkpt lat="41.033038012683392" lon="-8.280739970505238">
        <ele>162.59999999999999</ele>
        <time>2025-05-03T12:23:00Z</time>
      </trkpt>
      <trkpt lat="41.032931981608272" lon="-8.280776012688875">
        <ele>162.12</ele>
        <time>2025-05-03T12:23:01Z</time>
      </trkpt>
      <trkpt lat="41.032835002988577" lon="-8.280836027115583">
        <ele>161.63999999999999</ele>
        <time>2025-05-03T12:23:02Z</time>
      </trkpt>
      <trkpt lat="41.032731989398599" lon="-8.280877014622092">
        <ele>160.68000000000001</ele>
        <time>2025-05-03T12:23:03Z</time>
      </trkpt>
      <trkpt lat="41.032619001343846" lon="-8.280908027663827">
        <ele>159.72</ele>
        <time>2025-05-03T12:23:04Z</time>
      </trkpt>
      <trkpt lat="41.032504001632333" lon="-8.280910961329937">
        <ele>159.24000000000001</ele>
        <time>2025-05-03T12:23:05Z</time>
      </trkpt>
      <trkpt lat="41.0323900077492" lon="-8.280884977430105">
        <ele>159.24000000000001</ele>
        <time>2025-05-03T12:23:06Z</time>
      </trkpt>
      <trkpt lat="41.032078033313155" lon="-8.280754974111915">
        <ele>157.78999999999999</ele>
        <time>2025-05-03T12:23:09Z</time>
      </trkpt>
      <trkpt lat="41.031978037208319" lon="-8.280671993270516">
        <ele>157.31</ele>
        <time>2025-05-03T12:23:10Z</time>
      </trkpt>
      <trkpt lat="41.031790031120181" lon="-8.280516006052494">
        <ele>156.34999999999999</ele>
        <time>2025-05-03T12:23:12Z</time>
      </trkpt>
      <trkpt lat="41.031662961468101" lon="-8.280490022152662">
        <ele>155.38999999999999</ele>
        <time>2025-05-03T12:23:13Z</time>
      </trkpt>
      <trkpt lat="41.03155299089849" lon="-8.280478036031127">
        <ele>154.91</ele>
        <time>2025-05-03T12:23:14Z</time>
      </trkpt>
      <trkpt lat="41.031435979530215" lon="-8.28050603158772">
        <ele>154.43000000000001</ele>
        <time>2025-05-03T12:23:15Z</time>
      </trkpt>
      <trkpt lat="41.03131502866745" lon="-8.280535032972693">
        <ele>153.94999999999999</ele>
        <time>2025-05-03T12:23:16Z</time>
      </trkpt>
      <trkpt lat="41.031052004545927" lon="-8.280574008822441">
        <ele>152.50999999999999</ele>
        <time>2025-05-03T12:23:18Z</time>
      </trkpt>
      <trkpt lat="41.030914960429072" lon="-8.280562022700906">
        <ele>152.03</ele>
        <time>2025-05-03T12:23:19Z</time>
      </trkpt>
      <trkpt lat="41.030651014298201" lon="-8.280538972467184">
        <ele>151.06</ele>
        <time>2025-05-03T12:23:21Z</time>
      </trkpt>
      <trkpt lat="41.030534002929926" lon="-8.280565040186048">
        <ele>150.58000000000001</ele>
        <time>2025-05-03T12:23:22Z</time>
      </trkpt>
      <trkpt lat="41.030434006825089" lon="-8.280637040734291">
        <ele>150.09999999999999</ele>
        <time>2025-05-03T12:23:23Z</time>
      </trkpt>
      <trkpt lat="41.030364017933607" lon="-8.280744999647141">
        <ele>149.62</ele>
        <time>2025-05-03T12:23:24Z</time>
      </trkpt>
      <trkpt lat="41.030327975749969" lon="-8.280880032107234">
        <ele>149.13999999999999</ele>
        <time>2025-05-03T12:23:25Z</time>
      </trkpt>
      <trkpt lat="41.030290005728602" lon="-8.281021015718579">
        <ele>148.66</ele>
        <time>2025-05-03T12:23:26Z</time>
      </trkpt>
      <trkpt lat="41.030224040150642" lon="-8.281335001811385">
        <ele>146.74000000000001</ele>
        <time>2025-05-03T12:23:28Z</time>
      </trkpt>
      <trkpt lat="41.030224040150642" lon="-8.281500041484833">
        <ele>145.78</ele>
        <time>2025-05-03T12:23:29Z</time>
      </trkpt>
      <trkpt lat="41.030247006565332" lon="-8.281654017046094">
        <ele>144.81999999999999</ele>
        <time>2025-05-03T12:23:30Z</time>
      </trkpt>
      <trkpt lat="41.030299980193377" lon="-8.281798018142581">
        <ele>144.34</ele>
        <time>2025-05-03T12:23:31Z</time>
      </trkpt>
      <trkpt lat="41.030366029590368" lon="-8.281931960955262">
        <ele>143.84999999999999</ele>
        <time>2025-05-03T12:23:32Z</time>
      </trkpt>
      <trkpt lat="41.030439035966992" lon="-8.282071016728878">
        <ele>143.37</ele>
        <time>2025-05-03T12:23:33Z</time>
      </trkpt>
      <trkpt lat="41.03084203787148" lon="-8.282760009169579">
        <ele>140.97</ele>
        <time>2025-05-03T12:23:38Z</time>
      </trkpt>
      <trkpt lat="41.03088797070086" lon="-8.282909961417317">
        <ele>140.49000000000001</ele>
        <time>2025-05-03T12:23:39Z</time>
      </trkpt>
      <trkpt lat="41.030906997621059" lon="-8.28306301496923">
        <ele>140.00999999999999</ele>
        <time>2025-05-03T12:23:40Z</time>
      </trkpt>
      <trkpt lat="41.030899034813046" lon="-8.283223025500774">
        <ele>139.05000000000001</ele>
        <time>2025-05-03T12:23:41Z</time>
      </trkpt>
      <trkpt lat="41.030891994014382" lon="-8.283390998840332">
        <ele>138.09</ele>
        <time>2025-05-03T12:23:42Z</time>
      </trkpt>
      <trkpt lat="41.030884031206369" lon="-8.283553021028638">
        <ele>137.61000000000001</ele>
        <time>2025-05-03T12:23:43Z</time>
      </trkpt>
      <trkpt lat="41.030876990407705" lon="-8.283712025731802">
        <ele>137.13</ele>
        <time>2025-05-03T12:23:44Z</time>
      </trkpt>
      <trkpt lat="41.030869027599692" lon="-8.283872958272696">
        <ele>136.16</ele>
        <time>2025-05-03T12:23:45Z</time>
      </trkpt>
      <trkpt lat="41.030897023156285" lon="-8.284039003774524">
        <ele>135.19999999999999</ele>
        <time>2025-05-03T12:23:46Z</time>
      </trkpt>
      <trkpt lat="41.03118896484375" lon="-8.285151030868292">
        <ele>134.24000000000001</ele>
        <time>2025-05-03T12:23:53Z</time>
      </trkpt>
      <trkpt lat="41.03118896484375" lon="-8.285280028358102">
        <ele>134.24000000000001</ele>
        <time>2025-05-03T12:23:54Z</time>
      </trkpt>
      <trkpt lat="41.03118896484375" lon="-8.285400979220867">
        <ele>134.24000000000001</ele>
        <time>2025-05-03T12:23:55Z</time>
      </trkpt>
      <trkpt lat="41.031155018135905" lon="-8.285506004467607">
        <ele>134.24000000000001</ele>
        <time>2025-05-03T12:23:56Z</time>
      </trkpt>
      <trkpt lat="41.03110296651721" lon="-8.28561999835074">
        <ele>133.75999999999999</ele>
        <time>2025-05-03T12:23:57Z</time>
      </trkpt>
      <trkpt lat="41.031050998717546" lon="-8.285734998062253">
        <ele>133.75999999999999</ele>
        <time>2025-05-03T12:23:58Z</time>
      </trkpt>
      <trkpt lat="41.031000958755612" lon="-8.285844968631864">
        <ele>133.75999999999999</ele>
        <time>2025-05-03T12:23:59Z</time>
      </trkpt>
      <trkpt lat="41.030953014269471" lon="-8.285948988050222">
        <ele>134.24000000000001</ele>
        <time>2025-05-03T12:24:00Z</time>
      </trkpt>
      <trkpt lat="41.030904985964298" lon="-8.286055019125342">
        <ele>134.72</ele>
        <time>2025-05-03T12:24:01Z</time>
      </trkpt>
      <trkpt lat="41.030859975144267" lon="-8.28617999330163">
        <ele>135.19999999999999</ele>
        <time>2025-05-03T12:24:02Z</time>
      </trkpt>
      <trkpt lat="41.030836002901196" lon="-8.286311002448201">
        <ele>135.68000000000001</ele>
        <time>2025-05-03T12:24:03Z</time>
      </trkpt>
      <trkpt lat="41.030631987378001" lon="-8.287338959053159">
        <ele>140.97</ele>
        <time>2025-05-03T12:24:10Z</time>
      </trkpt>
      <trkpt lat="41.030554035678506" lon="-8.287422023713589">
        <ele>140.97</ele>
        <time>2025-05-03T12:24:11Z</time>
      </trkpt>
      <trkpt lat="41.030466025695205" lon="-8.287514979019761">
        <ele>141.93000000000001</ele>
        <time>2025-05-03T12:24:12Z</time>
      </trkpt>
      <trkpt lat="41.030304003506899" lon="-8.287686975672841">
        <ele>143.37</ele>
        <time>2025-05-03T12:24:14Z</time>
      </trkpt>
      <trkpt lat="41.030265027657151" lon="-8.287798035889864">
        <ele>144.34</ele>
        <time>2025-05-03T12:24:15Z</time>
      </trkpt>
      <trkpt lat="41.030237032100558" lon="-8.287908006459475">
        <ele>145.30000000000001</ele>
        <time>2025-05-03T12:24:16Z</time>
      </trkpt>
      <trkpt lat="41.030256981030107" lon="-8.288035998120904">
        <ele>145.78</ele>
        <time>2025-05-03T12:24:17Z</time>
      </trkpt>
      <trkpt lat="41.030307020992041" lon="-8.288144040852785">
        <ele>146.74000000000001</ele>
        <time>2025-05-03T12:24:18Z</time>
      </trkpt>
      <trkpt lat="41.030388996005058" lon="-8.288226015865803">
        <ele>147.22</ele>
        <time>2025-05-03T12:24:19Z</time>
      </trkpt>
      <trkpt lat="41.030459990724921" lon="-8.288261974230409">
        <ele>148.18000000000001</ele>
        <time>2025-05-03T12:24:20Z</time>
      </trkpt>
      <trkpt lat="41.030588988214731" lon="-8.288261974230409">
        <ele>148.66</ele>
        <time>2025-05-03T12:24:21Z</time>
      </trkpt>
      <trkpt lat="41.03067297488451" lon="-8.288224004209042">
        <ele>149.13999999999999</ele>
        <time>2025-05-03T12:24:22Z</time>
      </trkpt>
      <trkpt lat="41.030773976817727" lon="-8.288179999217391">
        <ele>149.62</ele>
        <time>2025-05-03T12:24:23Z</time>
      </trkpt>
      <trkpt lat="41.030846983194351" lon="-8.288077991455793">
        <ele>150.58000000000001</ele>
        <time>2025-05-03T12:24:24Z</time>
      </trkpt>
      <trkpt lat="41.030917977914214" lon="-8.287971960380673">
        <ele>151.06</ele>
        <time>2025-05-03T12:24:25Z</time>
      </trkpt>
      <trkpt lat="41.030992995947599" lon="-8.287858972325921">
        <ele>152.03</ele>
        <time>2025-05-03T12:24:26Z</time>
      </trkpt>
      <trkpt lat="41.031072037294507" lon="-8.287741038948298">
        <ele>152.99000000000001</ele>
        <time>2025-05-03T12:24:27Z</time>
      </trkpt>
      <trkpt lat="41.031153006479144" lon="-8.28761899843812">
        <ele>153.47</ele>
        <time>2025-05-03T12:24:28Z</time>
      </trkpt>
      <trkpt lat="41.031619040295482" lon="-8.2870829757303">
        <ele>155.38999999999999</ele>
        <time>2025-05-03T12:24:33Z</time>
      </trkpt>
      <trkpt lat="41.031711995601654" lon="-8.287034025415778">
        <ele>155.38999999999999</ele>
        <time>2025-05-03T12:24:34Z</time>
      </trkpt>
      <trkpt lat="41.031811991706491" lon="-8.286995971575379">
        <ele>155.87</ele>
        <time>2025-05-03T12:24:35Z</time>
      </trkpt>
      <trkpt lat="41.031906958669424" lon="-8.287037964910269">
        <ele>155.87</ele>
        <time>2025-05-03T12:24:36Z</time>
      </trkpt>
      <trkpt lat="41.032008966431022" lon="-8.287086999043822">
        <ele>155.87</ele>
        <time>2025-05-03T12:24:37Z</time>
      </trkpt>
      <trkpt lat="41.032082978636026" lon="-8.287198981270194">
        <ele>156.34999999999999</ele>
        <time>2025-05-03T12:24:38Z</time>
      </trkpt>
      <trkpt lat="41.032156990841031" lon="-8.287310963496566">
        <ele>156.83000000000001</ele>
        <time>2025-05-03T12:24:39Z</time>
      </trkpt>
      <trkpt lat="41.0322190169245" lon="-8.287419006228447">
        <ele>157.31</ele>
        <time>2025-05-03T12:24:40Z</time>
      </trkpt>
      <trkpt lat="41.0322190169245" lon="-8.287546997889876">
        <ele>157.78999999999999</ele>
        <time>2025-05-03T12:24:41Z</time>
      </trkpt>
      <trkpt lat="41.032206024974585" lon="-8.287667026743293">
        <ele>158.27000000000001</ele>
        <time>2025-05-03T12:24:42Z</time>
      </trkpt>
      <trkpt lat="41.032148022204638" lon="-8.287782026454806">
        <ele>158.75</ele>
        <time>2025-05-03T12:24:43Z</time>
      </trkpt>
      <trkpt lat="41.03208901360631" lon="-8.287900965660811">
        <ele>159.24000000000001</ele>
        <time>2025-05-03T12:24:44Z</time>
      </trkpt>
      <trkpt lat="41.032030005007982" lon="-8.288017977029085">
        <ele>159.72</ele>
        <time>2025-05-03T12:24:45Z</time>
      </trkpt>
      <trkpt lat="41.032015001401305" lon="-8.288137000054121">
        <ele>160.19999999999999</ele>
        <time>2025-05-03T12:24:46Z</time>
      </trkpt>
      <trkpt lat="41.032035034149885" lon="-8.288268009200692">
        <ele>161.16</ele>
        <time>2025-05-03T12:24:47Z</time>
      </trkpt>
      <trkpt lat="41.032083984464407" lon="-8.288384014740586">
        <ele>161.63999999999999</ele>
        <time>2025-05-03T12:24:48Z</time>
      </trkpt>
      <trkpt lat="41.032178029417992" lon="-8.288477975875139">
        <ele>162.12</ele>
        <time>2025-05-03T12:24:49Z</time>
      </trkpt>
      <trkpt lat="41.032293029129505" lon="-8.288547964766622">
        <ele>162.59999999999999</ele>
        <time>2025-05-03T12:24:50Z</time>
      </trkpt>
      <trkpt lat="41.032416997477412" lon="-8.288612002506852">
        <ele>163.08000000000001</ele>
        <time>2025-05-03T12:24:51Z</time>
      </trkpt>
      <trkpt lat="41.032656971365213" lon="-8.28873798251152">
        <ele>163.56</ele>
        <time>2025-05-03T12:24:53Z</time>
      </trkpt>
      <trkpt lat="41.03275503963232" lon="-8.288831021636725">
        <ele>164.03999999999999</ele>
        <time>2025-05-03T12:24:54Z</time>
      </trkpt>
      <trkpt lat="41.032844977453351" lon="-8.288939986377955">
        <ele>164.52000000000001</ele>
        <time>2025-05-03T12:24:55Z</time>
      </trkpt>
      <trkpt lat="41.032918989658356" lon="-8.289066972211003">
        <ele>165.47999999999999</ele>
        <time>2025-05-03T12:24:56Z</time>
      </trkpt>
      <trkpt lat="41.032954026013613" lon="-8.289219019934535">
        <ele>165.47999999999999</ele>
        <time>2025-05-03T12:24:57Z</time>
      </trkpt>
      <trkpt lat="41.03299199603498" lon="-8.28937903046608">
        <ele>165.47999999999999</ele>
        <time>2025-05-03T12:24:58Z</time>
      </trkpt>
      <trkpt lat="41.033197017386556" lon="-8.290172964334488">
        <ele>167.88999999999999</ele>
        <time>2025-05-03T12:25:03Z</time>
      </trkpt>
      <trkpt lat="41.033248985186219" lon="-8.290314031764865">
        <ele>168.37</ele>
        <time>2025-05-03T12:25:04Z</time>
      </trkpt>
      <trkpt lat="41.033296007663012" lon="-8.290445040911436">
        <ele>168.84999999999999</ele>
        <time>2025-05-03T12:25:05Z</time>
      </trkpt>
      <trkpt lat="41.033304976299405" lon="-8.290571020916104">
        <ele>169.33000000000001</ele>
        <time>2025-05-03T12:25:06Z</time>
      </trkpt>
      <trkpt lat="41.033289972692728" lon="-8.290704963728786">
        <ele>169.81</ele>
        <time>2025-05-03T12:25:07Z</time>
      </trkpt>
      <trkpt lat="41.03327002376318" lon="-8.290847958996892">
        <ele>170.28999999999999</ele>
        <time>2025-05-03T12:25:08Z</time>
      </trkpt>
      <trkpt lat="41.03316399268806" lon="-8.291932996362448">
        <ele>174.13999999999999</ele>
        <time>2025-05-03T12:25:15Z</time>
      </trkpt>
      <trkpt lat="41.033182013779879" lon="-8.292060988023877">
        <ele>174.62</ele>
        <time>2025-05-03T12:25:16Z</time>
      </trkpt>
      <trkpt lat="41.033235993236303" lon="-8.292166013270617">
        <ele>174.62</ele>
        <time>2025-05-03T12:25:17Z</time>
      </trkpt>
      <trkpt lat="41.033324003219604" lon="-8.292220998555422">
        <ele>175.09999999999999</ele>
        <time>2025-05-03T12:25:18Z</time>
      </trkpt>
      <trkpt lat="41.033428022637963" lon="-8.292266009375453">
        <ele>175.09999999999999</ele>
        <time>2025-05-03T12:25:19Z</time>
      </trkpt>
      <trkpt lat="41.033531036227942" lon="-8.292311020195484">
        <ele>175.09999999999999</ele>
        <time>2025-05-03T12:25:20Z</time>
      </trkpt>
      <trkpt lat="41.033633965998888" lon="-8.292356031015515">
        <ele>175.58000000000001</ele>
        <time>2025-05-03T12:25:21Z</time>
      </trkpt>
      <trkpt lat="41.034184992313385" lon="-8.292497014626861">
        <ele>177.97999999999999</ele>
        <time>2025-05-03T12:25:26Z</time>
      </trkpt>
      <trkpt lat="41.034295968711376" lon="-8.292507994920015">
        <ele>177.97999999999999</ele>
        <time>2025-05-03T12:25:27Z</time>
      </trkpt>
      <trkpt lat="41.034394036978483" lon="-8.292462984099984">
        <ele>178.46000000000001</ele>
        <time>2025-05-03T12:25:28Z</time>
      </trkpt>
      <trkpt lat="41.034489003941417" lon="-8.292400036007166">
        <ele>178.94</ele>
        <time>2025-05-03T12:25:29Z</time>
      </trkpt>
      <trkpt lat="41.034543989226222" lon="-8.292312026023865">
        <ele>178.94</ele>
        <time>2025-05-03T12:25:30Z</time>
      </trkpt>
      <trkpt lat="41.034585982561111" lon="-8.292209012433887">
        <ele>179.41999999999999</ele>
        <time>2025-05-03T12:25:31Z</time>
      </trkpt>
      <trkpt lat="41.03462403640151" lon="-8.292115973308682">
        <ele>179.41999999999999</ele>
        <time>2025-05-03T12:25:32Z</time>
      </trkpt>
      <trkpt lat="41.034661000594497" lon="-8.292025029659271">
        <ele>179.90000000000001</ele>
        <time>2025-05-03T12:25:33Z</time>
      </trkpt>
      <trkpt lat="41.034700982272625" lon="-8.291926961392164">
        <ele>179.90000000000001</ele>
        <time>2025-05-03T12:25:34Z</time>
      </trkpt>
      <trkpt lat="41.034785974770784" lon="-8.291877005249262">
        <ele>179.90000000000001</ele>
        <time>2025-05-03T12:25:35Z</time>
      </trkpt>
      <trkpt lat="41.034874990582466" lon="-8.291853033006191">
        <ele>179.90000000000001</ele>
        <time>2025-05-03T12:25:36Z</time>
      </trkpt>
      <trkpt lat="41.034972975030541" lon="-8.291896032169461">
        <ele>180.38</ele>
        <time>2025-05-03T12:25:37Z</time>
      </trkpt>
      <trkpt lat="41.035070959478617" lon="-8.291956968605518">
        <ele>180.38</ele>
        <time>2025-05-03T12:25:38Z</time>
      </trkpt>
      <trkpt lat="41.035154024139047" lon="-8.292068028822541">
        <ele>181.34999999999999</ele>
        <time>2025-05-03T12:25:39Z</time>
      </trkpt>
      <trkpt lat="41.035203980281949" lon="-8.292208006605506">
        <ele>181.83000000000001</ele>
        <time>2025-05-03T12:25:40Z</time>
      </trkpt>
      <trkpt lat="41.035241028293967" lon="-8.292372962459922">
        <ele>182.78999999999999</ele>
        <time>2025-05-03T12:25:41Z</time>
      </trkpt>
      <trkpt lat="41.035266006365418" lon="-8.292544959113002">
        <ele>183.27000000000001</ele>
        <time>2025-05-03T12:25:42Z</time>
      </trkpt>
      <trkpt lat="41.035266006365418" lon="-8.292718967422843">
        <ele>184.22999999999999</ele>
        <time>2025-05-03T12:25:43Z</time>
      </trkpt>
      <trkpt lat="41.03524899110198" lon="-8.292861962690949">
        <ele>185.19</ele>
        <time>2025-05-03T12:25:44Z</time>
      </trkpt>
      <trkpt lat="41.035208003595471" lon="-8.292987020686269">
        <ele>186.15000000000001</ele>
        <time>2025-05-03T12:25:45Z</time>
      </trkpt>
      <trkpt lat="41.035137008875608" lon="-8.293061032891274">
        <ele>187.11000000000001</ele>
        <time>2025-05-03T12:25:46Z</time>
      </trkpt>
      <trkpt lat="41.035055033862591" lon="-8.293132027611136">
        <ele>187.59</ele>
        <time>2025-05-03T12:25:47Z</time>
      </trkpt>
      <trkpt lat="41.034972975030541" lon="-8.293153988197446">
        <ele>188.56</ele>
        <time>2025-05-03T12:25:48Z</time>
      </trkpt>
      <trkpt lat="41.034864010289311" lon="-8.293153988197446">
        <ele>189.52000000000001</ele>
        <time>2025-05-03T12:25:49Z</time>
      </trkpt>
      <trkpt lat="41.034750016406178" lon="-8.293136972934008">
        <ele>190.47999999999999</ele>
        <time>2025-05-03T12:25:50Z</time>
      </trkpt>
      <trkpt lat="41.034628981724381" lon="-8.293104032054544">
        <ele>190.47999999999999</ele>
        <time>2025-05-03T12:25:51Z</time>
      </trkpt>
      <trkpt lat="41.034244000911713" lon="-8.293076958507299">
        <ele>190.96000000000001</ele>
        <time>2025-05-03T12:25:54Z</time>
      </trkpt>
      <trkpt lat="41.034134030342102" lon="-8.293109983205795">
        <ele>190.96000000000001</ele>
        <time>2025-05-03T12:25:55Z</time>
      </trkpt>
      <trkpt lat="41.034063035622239" lon="-8.293210985139012">
        <ele>190.96000000000001</ele>
        <time>2025-05-03T12:25:56Z</time>
      </trkpt>
      <trkpt lat="41.034006038680673" lon="-8.293295977637172">
        <ele>190.96000000000001</ele>
        <time>2025-05-03T12:25:57Z</time>
      </trkpt>
      <trkpt lat="41.033951975405216" lon="-8.293382981792092">
        <ele>191.44</ele>
        <time>2025-05-03T12:25:58Z</time>
      </trkpt>
      <trkpt lat="41.033910987898707" lon="-8.293491024523974">
        <ele>191.91999999999999</ele>
        <time>2025-05-03T12:25:59Z</time>
      </trkpt>
      <trkpt lat="41.033864971250296" lon="-8.293608035892248">
        <ele>192.40000000000001</ele>
        <time>2025-05-03T12:26:00Z</time>
      </trkpt>
      <trkpt lat="41.033803028985858" lon="-8.293685987591744">
        <ele>192.88</ele>
        <time>2025-05-03T12:26:01Z</time>
      </trkpt>
      <trkpt lat="41.033714013174176" lon="-8.293737033382058">
        <ele>193.36000000000001</ele>
        <time>2025-05-03T12:26:02Z</time>
      </trkpt>
      <trkpt lat="41.03357101790607" lon="-8.293754970654845">
        <ele>194.31999999999999</ele>
        <time>2025-05-03T12:26:03Z</time>
      </trkpt>
      <trkpt lat="41.033462975174189" lon="-8.293740972876549">
        <ele>194.80000000000001</ele>
        <time>2025-05-03T12:26:04Z</time>
      </trkpt>
      <trkpt lat="41.033330038189888" lon="-8.293723035603762">
        <ele>194.80000000000001</ele>
        <time>2025-05-03T12:26:05Z</time>
      </trkpt>
      <trkpt lat="41.033198023214936" lon="-8.293734015896916">
        <ele>194.80000000000001</ele>
        <time>2025-05-03T12:26:06Z</time>
      </trkpt>
      <trkpt lat="41.033083023503423" lon="-8.293781960383058">
        <ele>194.80000000000001</ele>
        <time>2025-05-03T12:26:07Z</time>
      </trkpt>
      <trkpt lat="41.03297003544867" lon="-8.29382898285985">
        <ele>195.28</ele>
        <time>2025-05-03T12:26:08Z</time>
      </trkpt>
      <trkpt lat="41.032856041565537" lon="-8.293876005336642">
        <ele>195.77000000000001</ele>
        <time>2025-05-03T12:26:09Z</time>
      </trkpt>
      <trkpt lat="41.032743975520134" lon="-8.293923027813435">
        <ele>195.77000000000001</ele>
        <time>2025-05-03T12:26:10Z</time>
      </trkpt>
      <trkpt lat="41.032637022435665" lon="-8.293912969529629">
        <ele>196.25</ele>
        <time>2025-05-03T12:26:11Z</time>
      </trkpt>
      <trkpt lat="41.032525040209293" lon="-8.293896960094571">
        <ele>196.25</ele>
        <time>2025-05-03T12:26:12Z</time>
      </trkpt>
      <trkpt lat="41.032420014962554" lon="-8.293883968144655">
        <ele>196.72999999999999</ele>
        <time>2025-05-03T12:26:13Z</time>
      </trkpt>
      <trkpt lat="41.032317001372576" lon="-8.293883968144655">
        <ele>196.72999999999999</ele>
        <time>2025-05-03T12:26:14Z</time>
      </trkpt>
      <trkpt lat="41.032210970297456" lon="-8.293883968144655">
        <ele>197.21000000000001</ele>
        <time>2025-05-03T12:26:15Z</time>
      </trkpt>
      <trkpt lat="41.032100999727845" lon="-8.293916992843151">
        <ele>197.21000000000001</ele>
        <time>2025-05-03T12:26:16Z</time>
      </trkpt>
      <trkpt lat="41.032010978087783" lon="-8.294006008654833">
        <ele>197.69</ele>
        <time>2025-05-03T12:26:17Z</time>
      </trkpt>
      <trkpt lat="41.031920034438372" lon="-8.294097036123276">
        <ele>198.16999999999999</ele>
        <time>2025-05-03T12:26:18Z</time>
      </trkpt>
      <trkpt lat="41.031859014183283" lon="-8.294227961450815">
        <ele>198.65000000000001</ele>
        <time>2025-05-03T12:26:19Z</time>
      </trkpt>
      <trkpt lat="41.031797993928194" lon="-8.294361988082528">
        <ele>199.61000000000001</ele>
        <time>2025-05-03T12:26:20Z</time>
      </trkpt>
      <trkpt lat="41.031643012538552" lon="-8.294749986380339">
        <ele>201.53</ele>
        <time>2025-05-03T12:26:23Z</time>
      </trkpt>
      <trkpt lat="41.031605964526534" lon="-8.294857023283839">
        <ele>202.49000000000001</ele>
        <time>2025-05-03T12:26:24Z</time>
      </trkpt>
      <trkpt lat="41.031574029475451" lon="-8.294948972761631">
        <ele>203.46000000000001</ele>
        <time>2025-05-03T12:26:25Z</time>
      </trkpt>
      <trkpt lat="41.031547961756587" lon="-8.295026002451778">
        <ele>204.41999999999999</ele>
        <time>2025-05-03T12:26:26Z</time>
      </trkpt>
      <trkpt lat="41.031576963141561" lon="-8.29524896107614">
        <ele>205.38</ele>
        <time>2025-05-03T12:26:27Z</time>
      </trkpt>
      <trkpt lat="41.031634965911508" lon="-8.295286009088159">
        <ele>205.86000000000001</ele>
        <time>2025-05-03T12:26:28Z</time>
      </trkpt>
      <trkpt lat="41.031700009480119" lon="-8.295328002423048">
        <ele>206.81999999999999</ele>
        <time>2025-05-03T12:26:29Z</time>
      </trkpt>
      <trkpt lat="41.031775027513504" lon="-8.295376030728221">
        <ele>207.78</ele>
        <time>2025-05-03T12:26:30Z</time>
      </trkpt>
      <trkpt lat="41.031855996698141" lon="-8.295427998527885">
        <ele>208.74000000000001</ele>
        <time>2025-05-03T12:26:31Z</time>
      </trkpt>
      <trkpt lat="41.031935960054398" lon="-8.295479966327548">
        <ele>209.22</ele>
        <time>2025-05-03T12:26:32Z</time>
      </trkpt>
      <trkpt lat="41.032137963920832" lon="-8.295617010444403">
        <ele>209.69999999999999</ele>
        <time>2025-05-03T12:26:38Z</time>
      </trkpt>
      <trkpt lat="41.032285988330841" lon="-8.295646011829376">
        <ele>209.69999999999999</ele>
        <time>2025-05-03T12:26:42Z</time>
      </trkpt>
      <trkpt lat="41.032323036342859" lon="-8.295694962143898">
        <ele>210.19</ele>
        <time>2025-05-03T12:26:43Z</time>
      </trkpt>
      <trkpt lat="41.032330999150872" lon="-8.295780960470438">
        <ele>210.66999999999999</ele>
        <time>2025-05-03T12:26:44Z</time>
      </trkpt>
      <trkpt lat="41.032310966402292" lon="-8.295839969068766">
        <ele>210.66999999999999</ele>
        <time>2025-05-03T12:26:45Z</time>
      </trkpt>
      <trkpt lat="41.03230501525104" lon="-8.295857990160584">
        <ele>210.19</ele>
        <time>2025-05-03T12:26:46Z</time>
      </trkpt>
      <trkpt lat="41.032054983079433" lon="-8.29629804007709">
        <ele>207.78</ele>
        <time>2025-05-03T12:26:51Z</time>
      </trkpt>
      <trkpt lat="41.031996980309486" lon="-8.296384960412979">
        <ele>206.81999999999999</ele>
        <time>2025-05-03T12:26:52Z</time>
      </trkpt>
      <trkpt lat="41.031929003074765" lon="-8.296456038951874">
        <ele>205.86000000000001</ele>
        <time>2025-05-03T12:26:53Z</time>
      </trkpt>
      <trkpt lat="41.031759018078446" lon="-8.29655603505671">
        <ele>204.90000000000001</ele>
        <time>2025-05-03T12:26:55Z</time>
      </trkpt>
      <trkpt lat="41.031667990610003" lon="-8.296595010906458">
        <ele>204.41999999999999</ele>
        <time>2025-05-03T12:26:56Z</time>
      </trkpt>
      <trkpt lat="41.031560031697154" lon="-8.296617977321148">
        <ele>203.94</ele>
        <time>2025-05-03T12:26:57Z</time>
      </trkpt>
      <trkpt lat="41.031373031437397" lon="-8.296683020889759">
        <ele>202.97999999999999</ele>
        <time>2025-05-03T12:26:59Z</time>
      </trkpt>
      <trkpt lat="41.031306982040405" lon="-8.296748986467719">
        <ele>202.49000000000001</ele>
        <time>2025-05-03T12:27:00Z</time>
      </trkpt>
      <trkpt lat="41.031259037554264" lon="-8.296833978965879">
        <ele>202.00999999999999</ele>
        <time>2025-05-03T12:27:01Z</time>
      </trkpt>
      <trkpt lat="41.031211009249091" lon="-8.296934980899096">
        <ele>201.53</ele>
        <time>2025-05-03T12:27:02Z</time>
      </trkpt>
      <trkpt lat="41.031211009249091" lon="-8.297060038894415">
        <ele>200.56999999999999</ele>
        <time>2025-05-03T12:27:03Z</time>
      </trkpt>
      <trkpt lat="41.031228024512529" lon="-8.297220971435309">
        <ele>200.09</ele>
        <time>2025-05-03T12:27:04Z</time>
      </trkpt>
      <trkpt lat="41.031245961785316" lon="-8.297388022765517">
        <ele>199.13</ele>
        <time>2025-05-03T12:27:05Z</time>
      </trkpt>
      <trkpt lat="41.031263982877135" lon="-8.297557001933456">
        <ele>198.65000000000001</ele>
        <time>2025-05-03T12:27:06Z</time>
      </trkpt>
      <trkpt lat="41.031283009797335" lon="-8.297730004414916">
        <ele>198.16999999999999</ele>
        <time>2025-05-03T12:27:07Z</time>
      </trkpt>
      <trkpt lat="41.031320979818702" lon="-8.298084978014231">
        <ele>197.21000000000001</ele>
        <time>2025-05-03T12:27:09Z</time>
      </trkpt>
      <trkpt lat="41.031340006738901" lon="-8.298260997980833">
        <ele>196.25</ele>
        <time>2025-05-03T12:27:10Z</time>
      </trkpt>
      <trkpt lat="41.031297007575631" lon="-8.298926018178463">
        <ele>193.84</ele>
        <time>2025-05-03T12:27:14Z</time>
      </trkpt>
      <trkpt lat="41.031334977596998" lon="-8.29909298568964">
        <ele>193.36000000000001</ele>
        <time>2025-05-03T12:27:15Z</time>
      </trkpt>
      <trkpt lat="41.031368002295494" lon="-8.299238998442888">
        <ele>193.36000000000001</ele>
        <time>2025-05-03T12:27:16Z</time>
      </trkpt>
      <trkpt lat="41.031576041132212" lon="-8.299913993105292">
        <ele>191.91999999999999</ele>
        <time>2025-05-03T12:27:21Z</time>
      </trkpt>
      <trkpt lat="41.031653992831707" lon="-8.300024969503284">
        <ele>191.91999999999999</ele>
        <time>2025-05-03T12:27:22Z</time>
      </trkpt>
      <trkpt lat="41.031728005036712" lon="-8.300131000578404">
        <ele>191.44</ele>
        <time>2025-05-03T12:27:23Z</time>
      </trkpt>
      <trkpt lat="41.031806962564588" lon="-8.300243988633156">
        <ele>190.96000000000001</ele>
        <time>2025-05-03T12:27:24Z</time>
      </trkpt>
      <trkpt lat="41.031876029446721" lon="-8.300342978909612">
        <ele>190.96000000000001</ele>
        <time>2025-05-03T12:27:25Z</time>
      </trkpt>
      <trkpt lat="41.031921962276101" lon="-8.300525033846498">
        <ele>190</ele>
        <time>2025-05-03T12:27:26Z</time>
      </trkpt>
      <trkpt lat="41.03196102194488" lon="-8.300684038549662">
        <ele>189.52000000000001</ele>
        <time>2025-05-03T12:27:27Z</time>
      </trkpt>
      <trkpt lat="41.031984994187951" lon="-8.300834996625781">
        <ele>188.56</ele>
        <time>2025-05-03T12:27:28Z</time>
      </trkpt>
      <trkpt lat="41.031991029158235" lon="-8.300988972187042">
        <ele>187.59</ele>
        <time>2025-05-03T12:27:29Z</time>
      </trkpt>
      <trkpt lat="41.031995974481106" lon="-8.301141019910574">
        <ele>187.11000000000001</ele>
        <time>2025-05-03T12:27:30Z</time>
      </trkpt>
      <trkpt lat="41.032001003623009" lon="-8.301287032663822">
        <ele>186.15000000000001</ele>
        <time>2025-05-03T12:27:31Z</time>
      </trkpt>
      <trkpt lat="41.032010978087783" lon="-8.301436984911561">
        <ele>185.19</ele>
        <time>2025-05-03T12:27:32Z</time>
      </trkpt>
      <trkpt lat="41.032051965594292" lon="-8.301580986008048">
        <ele>184.71000000000001</ele>
        <time>2025-05-03T12:27:33Z</time>
      </trkpt>
      <trkpt lat="41.032095970585942" lon="-8.30173403955996">
        <ele>184.22999999999999</ele>
        <time>2025-05-03T12:27:34Z</time>
      </trkpt>
      <trkpt lat="41.032134024426341" lon="-8.30186597071588">
        <ele>183.27000000000001</ele>
        <time>2025-05-03T12:27:35Z</time>
      </trkpt>
      <trkpt lat="41.032111980021" lon="-8.302020030096173">
        <ele>182.78999999999999</ele>
        <time>2025-05-03T12:27:36Z</time>
      </trkpt>
      <trkpt lat="41.032093036919832" lon="-8.302152967080474">
        <ele>181.83000000000001</ele>
        <time>2025-05-03T12:27:37Z</time>
      </trkpt>
      <trkpt lat="41.032036961987615" lon="-8.302247012034059">
        <ele>181.34999999999999</ele>
        <time>2025-05-03T12:27:38Z</time>
      </trkpt>
      <trkpt lat="41.031964961439371" lon="-8.30233502201736">
        <ele>180.38</ele>
        <time>2025-05-03T12:27:39Z</time>
      </trkpt>
      <trkpt lat="41.03187401778996" lon="-8.302409034222364">
        <ele>179.90000000000001</ele>
        <time>2025-05-03T12:27:40Z</time>
      </trkpt>
      <trkpt lat="41.031715013086796" lon="-8.302582958713174">
        <ele>178.94</ele>
        <time>2025-05-03T12:27:42Z</time>
      </trkpt>
      <trkpt lat="41.031676959246397" lon="-8.30270298756659">
        <ele>178.46000000000001</ele>
        <time>2025-05-03T12:27:43Z</time>
      </trkpt>
      <trkpt lat="41.031663967296481" lon="-8.302843971177936">
        <ele>177.97999999999999</ele>
        <time>2025-05-03T12:27:44Z</time>
      </trkpt>
      <trkpt lat="41.031670002266765" lon="-8.302985038608313">
        <ele>177.97999999999999</ele>
        <time>2025-05-03T12:27:45Z</time>
      </trkpt>
      <trkpt lat="41.031678970903158" lon="-8.30310900695622">
        <ele>177.5</ele>
        <time>2025-05-03T12:27:46Z</time>
      </trkpt>
      <trkpt lat="41.031687017530203" lon="-8.303214032202959">
        <ele>177.02000000000001</ele>
        <time>2025-05-03T12:27:47Z</time>
      </trkpt>
      <trkpt lat="41.031692968681455" lon="-8.303298018872738">
        <ele>176.53999999999999</ele>
        <time>2025-05-03T12:27:48Z</time>
      </trkpt>
      <trkpt lat="41.031697997823358" lon="-8.303371025249362">
        <ele>176.53999999999999</ele>
        <time>2025-05-03T12:27:49Z</time>
      </trkpt>
      <trkpt lat="41.031734040006995" lon="-8.303535981103778">
        <ele>175.58000000000001</ele>
        <time>2025-05-03T12:27:53Z</time>
      </trkpt>
      <trkpt lat="41.031734040006995" lon="-8.303535981103778">
        <ele>175.09999999999999</ele>
        <time>2025-05-03T12:28:05Z</time>
      </trkpt>
      <trkpt lat="41.031898995861411" lon="-8.303749971091747">
        <ele>166.44999999999999</ele>
        <time>2025-05-03T12:33:42Z</time>
      </trkpt>
      <trkpt lat="41.031743008643389" lon="-8.303530029952526">
        <ele>182.31</ele>
        <time>2025-05-03T12:34:15Z</time>
      </trkpt>
      <trkpt lat="41.031778967007995" lon="-8.30353899858892">
        <ele>178.46000000000001</ele>
        <time>2025-05-03T12:34:56Z</time>
      </trkpt>
      <trkpt lat="41.031778967007995" lon="-8.303558025509119">
        <ele>177.5</ele>
        <time>2025-05-03T12:35:40Z</time>
      </trkpt>
      <trkpt lat="41.031777961179614" lon="-8.303555008023977">
        <ele>177.5</ele>
        <time>2025-05-03T12:36:13Z</time>
      </trkpt>
      <trkpt lat="41.031775027513504" lon="-8.303647041320801">
        <ele>177.5</ele>
        <time>2025-05-03T12:36:17Z</time>
      </trkpt>
      <trkpt lat="41.031790031120181" lon="-8.303690040484071">
        <ele>177.02000000000001</ele>
        <time>2025-05-03T12:36:18Z</time>
      </trkpt>
      <trkpt lat="41.031846022233367" lon="-8.30375500023365">
        <ele>177.02000000000001</ele>
        <time>2025-05-03T12:36:19Z</time>
      </trkpt>
      <trkpt lat="41.031897990033031" lon="-8.303815014660358">
        <ele>177.02000000000001</ele>
        <time>2025-05-03T12:36:20Z</time>
      </trkpt>
      <trkpt lat="41.031947024166584" lon="-8.303849967196584">
        <ele>176.53999999999999</ele>
        <time>2025-05-03T12:36:21Z</time>
      </trkpt>
      <trkpt lat="41.03202598169446" lon="-8.303877962753177">
        <ele>176.06</ele>
        <time>2025-05-03T12:36:22Z</time>
      </trkpt>
      <trkpt lat="41.032111980021" lon="-8.303908975794911">
        <ele>175.09999999999999</ele>
        <time>2025-05-03T12:36:23Z</time>
      </trkpt>
      <trkpt lat="41.03219797834754" lon="-8.303939988836646">
        <ele>174.62</ele>
        <time>2025-05-03T12:36:24Z</time>
      </trkpt>
      <trkpt lat="41.032383972778916" lon="-8.303921967744827">
        <ele>174.13999999999999</ele>
        <time>2025-05-03T12:36:26Z</time>
      </trkpt>
      <trkpt lat="41.033178996294737" lon="-8.30384099856019">
        <ele>171.72999999999999</ele>
        <time>2025-05-03T12:36:34Z</time>
      </trkpt>
      <trkpt lat="41.03327002376318" lon="-8.303875029087067">
        <ele>171.72999999999999</ele>
        <time>2025-05-03T12:36:35Z</time>
      </trkpt>
      <trkpt lat="41.0333570279181" lon="-8.303933031857014">
        <ele>171.72999999999999</ele>
        <time>2025-05-03T12:36:36Z</time>
      </trkpt>
      <trkpt lat="41.034342991188169" lon="-8.304784968495369">
        <ele>172.21000000000001</ele>
        <time>2025-05-03T12:36:46Z</time>
      </trkpt>
      <trkpt lat="41.035494999960065" lon="-8.305901018902659">
        <ele>174.62</ele>
        <time>2025-05-03T12:36:57Z</time>
      </trkpt>
      <trkpt lat="41.036623036488891" lon="-8.307065013796091">
        <ele>177.97999999999999</ele>
        <time>2025-05-03T12:37:08Z</time>
      </trkpt>
      <trkpt lat="41.036691013723612" lon="-8.307188982143998">
        <ele>177.97999999999999</ele>
        <time>2025-05-03T12:37:09Z</time>
      </trkpt>
      <trkpt lat="41.036741975694895" lon="-8.307313034310937">
        <ele>178.46000000000001</ele>
        <time>2025-05-03T12:37:10Z</time>
      </trkpt>
      <trkpt lat="41.036810958757997" lon="-8.307573962956667">
        <ele>178.94</ele>
        <time>2025-05-03T12:37:12Z</time>
      </trkpt>
      <trkpt lat="41.03690299205482" lon="-8.307700026780367">
        <ele>179.41999999999999</ele>
        <time>2025-05-03T12:37:13Z</time>
      </trkpt>
      <trkpt lat="41.037003993988037" lon="-8.30777202732861">
        <ele>179.41999999999999</ele>
        <time>2025-05-03T12:37:14Z</time>
      </trkpt>
      <trkpt lat="41.037107007578015" lon="-8.307845033705235">
        <ele>179.41999999999999</ele>
        <time>2025-05-03T12:37:15Z</time>
      </trkpt>
      <trkpt lat="41.037213038653135" lon="-8.307919967919588">
        <ele>179.41999999999999</ele>
        <time>2025-05-03T12:37:16Z</time>
      </trkpt>
      <trkpt lat="41.037502968683839" lon="-8.308209981769323">
        <ele>181.34999999999999</ele>
        <time>2025-05-03T12:37:19Z</time>
      </trkpt>
      <trkpt lat="41.037548985332251" lon="-8.308348031714559">
        <ele>181.34999999999999</ele>
        <time>2025-05-03T12:37:20Z</time>
      </trkpt>
      <trkpt lat="41.037563988938928" lon="-8.30848197452724">
        <ele>181.34999999999999</ele>
        <time>2025-05-03T12:37:21Z</time>
      </trkpt>
      <trkpt lat="41.037647975608706" lon="-8.309741020202637">
        <ele>180.38</ele>
        <time>2025-05-03T12:37:29Z</time>
      </trkpt>
      <trkpt lat="41.037725005298853" lon="-8.309851996600628">
        <ele>180.87</ele>
        <time>2025-05-03T12:37:30Z</time>
      </trkpt>
      <trkpt lat="41.037804968655109" lon="-8.309966996312141">
        <ele>181.34999999999999</ele>
        <time>2025-05-03T12:37:31Z</time>
      </trkpt>
      <trkpt lat="41.038095988333225" lon="-8.310245024040341">
        <ele>183.27000000000001</ele>
        <time>2025-05-03T12:37:34Z</time>
      </trkpt>
      <trkpt lat="41.038199001923203" lon="-8.310334961861372">
        <ele>183.75</ele>
        <time>2025-05-03T12:37:35Z</time>
      </trkpt>
      <trkpt lat="41.038310984149575" lon="-8.310342002660036">
        <ele>183.75</ele>
        <time>2025-05-03T12:37:36Z</time>
      </trkpt>
      <trkpt lat="41.038421038538218" lon="-8.310342002660036">
        <ele>184.22999999999999</ele>
        <time>2025-05-03T12:37:37Z</time>
      </trkpt>
      <trkpt lat="41.038526985794306" lon="-8.310289029031992">
        <ele>184.22999999999999</ele>
        <time>2025-05-03T12:37:38Z</time>
      </trkpt>
      <trkpt lat="41.038639973849058" lon="-8.310232032090426">
        <ele>184.71000000000001</ele>
        <time>2025-05-03T12:37:39Z</time>
      </trkpt>
      <trkpt lat="41.038875002413988" lon="-8.310115020722151">
        <ele>184.71000000000001</ele>
        <time>2025-05-03T12:37:41Z</time>
      </trkpt>
      <trkpt lat="41.038996959105134" lon="-8.310105968266726">
        <ele>185.19</ele>
        <time>2025-05-03T12:37:42Z</time>
      </trkpt>
      <trkpt lat="41.039107013493776" lon="-8.310105968266726">
        <ele>185.19</ele>
        <time>2025-05-03T12:37:43Z</time>
      </trkpt>
      <trkpt lat="41.039198040962219" lon="-8.310196995735169">
        <ele>185.66999999999999</ele>
        <time>2025-05-03T12:37:44Z</time>
      </trkpt>
      <trkpt lat="41.039299964904785" lon="-8.310299003496766">
        <ele>186.15000000000001</ele>
        <time>2025-05-03T12:37:45Z</time>
      </trkpt>
      <trkpt lat="41.039368025958538" lon="-8.310402017086744">
        <ele>186.63</ele>
        <time>2025-05-03T12:37:46Z</time>
      </trkpt>
      <trkpt lat="41.039528036490083" lon="-8.310644002631307">
        <ele>187.59</ele>
        <time>2025-05-03T12:37:48Z</time>
      </trkpt>
      <trkpt lat="41.039944030344486" lon="-8.3113800175488">
        <ele>190.96000000000001</ele>
        <time>2025-05-03T12:37:54Z</time>
      </trkpt>
      <trkpt lat="41.039962973445654" lon="-8.311502980068326">
        <ele>190.96000000000001</ele>
        <time>2025-05-03T12:37:55Z</time>
      </trkpt>
      <trkpt lat="41.039946964010596" lon="-8.311615968123078">
        <ele>191.44</ele>
        <time>2025-05-03T12:37:56Z</time>
      </trkpt>
      <trkpt lat="41.039918968454003" lon="-8.311755023896694">
        <ele>191.44</ele>
        <time>2025-05-03T12:37:57Z</time>
      </trkpt>
      <trkpt lat="41.039888961240649" lon="-8.311913022771478">
        <ele>191.91999999999999</ele>
        <time>2025-05-03T12:37:58Z</time>
      </trkpt>
      <trkpt lat="41.039857026189566" lon="-8.312089964747429">
        <ele>191.91999999999999</ele>
        <time>2025-05-03T12:37:59Z</time>
      </trkpt>
      <trkpt lat="41.039830958470702" lon="-8.312276965007186">
        <ele>191.91999999999999</ele>
        <time>2025-05-03T12:38:00Z</time>
      </trkpt>
      <trkpt lat="41.039814027026296" lon="-8.312471006065607">
        <ele>191.91999999999999</ele>
        <time>2025-05-03T12:38:01Z</time>
      </trkpt>
      <trkpt lat="41.039812015369534" lon="-8.312836037948728">
        <ele>192.40000000000001</ele>
        <time>2025-05-03T12:38:03Z</time>
      </trkpt>
      <trkpt lat="41.039854008704424" lon="-8.312990013509989">
        <ele>192.88</ele>
        <time>2025-05-03T12:38:04Z</time>
      </trkpt>
      <trkpt lat="41.039922991767526" lon="-8.313109958544374">
        <ele>192.88</ele>
        <time>2025-05-03T12:38:05Z</time>
      </trkpt>
      <trkpt lat="41.040020976215601" lon="-8.313192017376423">
        <ele>193.36000000000001</ele>
        <time>2025-05-03T12:38:06Z</time>
      </trkpt>
      <trkpt lat="41.040131030604243" lon="-8.313227975741029">
        <ele>193.36000000000001</ele>
        <time>2025-05-03T12:38:07Z</time>
      </trkpt>
      <trkpt lat="41.040251981467009" lon="-8.313243985176086">
        <ele>193.36000000000001</ele>
        <time>2025-05-03T12:38:08Z</time>
      </trkpt>
      <trkpt lat="41.040373016148806" lon="-8.313259994611144">
        <ele>193.36000000000001</ele>
        <time>2025-05-03T12:38:09Z</time>
      </trkpt>
      <trkpt lat="41.040475023910403" lon="-8.313216995447874">
        <ele>193.36000000000001</ele>
        <time>2025-05-03T12:38:10Z</time>
      </trkpt>
      <trkpt lat="41.040559010580182" lon="-8.313150024041534">
        <ele>193.36000000000001</ele>
        <time>2025-05-03T12:38:11Z</time>
      </trkpt>
      <trkpt lat="41.0406409855932" lon="-8.313042987138033">
        <ele>193.36000000000001</ele>
        <time>2025-05-03T12:38:12Z</time>
      </trkpt>
      <trkpt lat="41.04072798974812" lon="-8.312927987426519">
        <ele>193.84</ele>
        <time>2025-05-03T12:38:13Z</time>
      </trkpt>
      <trkpt lat="41.040802001953125" lon="-8.312831008806825">
        <ele>194.31999999999999</ele>
        <time>2025-05-03T12:38:14Z</time>
      </trkpt>
      <trkpt lat="41.040921024978161" lon="-8.31275699660182">
        <ele>194.31999999999999</ele>
        <time>2025-05-03T12:38:15Z</time>
      </trkpt>
      <trkpt lat="41.041021021082997" lon="-8.312738975510001">
        <ele>194.31999999999999</ele>
        <time>2025-05-03T12:38:16Z</time>
      </trkpt>
      <trkpt lat="41.041129985824227" lon="-8.312776023522019">
        <ele>194.80000000000001</ele>
        <time>2025-05-03T12:38:17Z</time>
      </trkpt>
      <trkpt lat="41.041236016899347" lon="-8.312813993543387">
        <ele>194.80000000000001</ele>
        <time>2025-05-03T12:38:18Z</time>
      </trkpt>
      <trkpt lat="41.041336013004184" lon="-8.312913989648223">
        <ele>195.28</ele>
        <time>2025-05-03T12:38:19Z</time>
      </trkpt>
      <trkpt lat="41.041421005502343" lon="-8.313038041815162">
        <ele>195.28</ele>
        <time>2025-05-03T12:38:20Z</time>
      </trkpt>
      <trkpt lat="41.04149904102087" lon="-8.313193023204804">
        <ele>195.28</ele>
        <time>2025-05-03T12:38:21Z</time>
      </trkpt>
      <trkpt lat="41.041731974110007" lon="-8.313696021214128">
        <ele>195.77000000000001</ele>
        <time>2025-05-03T12:38:24Z</time>
      </trkpt>
      <trkpt lat="41.041788971051574" lon="-8.313885033130646">
        <ele>195.77000000000001</ele>
        <time>2025-05-03T12:38:25Z</time>
      </trkpt>
      <trkpt lat="41.04184303432703" lon="-8.314082007855177">
        <ele>195.77000000000001</ele>
        <time>2025-05-03T12:38:26Z</time>
      </trkpt>
      <trkpt lat="41.042098011821508" lon="-8.314853981137276">
        <ele>197.21000000000001</ele>
        <time>2025-05-03T12:38:30Z</time>
      </trkpt>
      <trkpt lat="41.042192978784442" lon="-8.31501298584044">
        <ele>198.16999999999999</ele>
        <time>2025-05-03T12:38:31Z</time>
      </trkpt>
      <trkpt lat="41.042495984584093" lon="-8.315472984686494">
        <ele>201.05000000000001</ele>
        <time>2025-05-03T12:38:34Z</time>
      </trkpt>
      <trkpt lat="41.042563961818814" lon="-8.315627966076136">
        <ele>201.53</ele>
        <time>2025-05-03T12:38:35Z</time>
      </trkpt>
      <trkpt lat="41.042624982073903" lon="-8.315770961344242">
        <ele>202.00999999999999</ele>
        <time>2025-05-03T12:38:36Z</time>
      </trkpt>
      <trkpt lat="41.042680973187089" lon="-8.315899958834052">
        <ele>202.49000000000001</ele>
        <time>2025-05-03T12:38:37Z</time>
      </trkpt>
      <trkpt lat="41.042756997048855" lon="-8.315971037372947">
        <ele>202.97999999999999</ele>
        <time>2025-05-03T12:38:38Z</time>
      </trkpt>
      <trkpt lat="41.042862022295594" lon="-8.316049994900823">
        <ele>202.97999999999999</ele>
        <time>2025-05-03T12:38:39Z</time>
      </trkpt>
      <trkpt lat="41.042967969551682" lon="-8.31608897075057">
        <ele>203.46000000000001</ele>
        <time>2025-05-03T12:38:40Z</time>
      </trkpt>
      <trkpt lat="41.043660985305905" lon="-8.316436987370253">
        <ele>207.78</ele>
        <time>2025-05-03T12:38:46Z</time>
      </trkpt>
      <trkpt lat="41.043761987239122" lon="-8.316524997353554">
        <ele>208.25999999999999</ele>
        <time>2025-05-03T12:38:47Z</time>
      </trkpt>
      <trkpt lat="41.044462965801358" lon="-8.317396966740489">
        <ele>214.99000000000001</ele>
        <time>2025-05-03T12:38:55Z</time>
      </trkpt>
      <trkpt lat="41.044821962714195" lon="-8.317816983908415">
        <ele>216.91</ele>
        <time>2025-05-03T12:38:59Z</time>
      </trkpt>
      <trkpt lat="41.045031007379293" lon="-8.317927960306406">
        <ele>217.40000000000001</ele>
        <time>2025-05-03T12:39:01Z</time>
      </trkpt>
      <trkpt lat="41.045136032626033" lon="-8.317968025803566">
        <ele>217.88</ele>
        <time>2025-05-03T12:39:02Z</time>
      </trkpt>
      <trkpt lat="41.045729974284768" lon="-8.318133987486363">
        <ele>220.75999999999999</ele>
        <time>2025-05-03T12:39:07Z</time>
      </trkpt>
      <trkpt lat="41.045827958732843" lon="-8.318207999691367">
        <ele>221.72</ele>
        <time>2025-05-03T12:39:08Z</time>
      </trkpt>
      <trkpt lat="41.045911023393273" lon="-8.318318976089358">
        <ele>222.19999999999999</ele>
        <time>2025-05-03T12:39:09Z</time>
      </trkpt>
      <trkpt lat="41.045995010063052" lon="-8.31843095831573">
        <ele>222.68000000000001</ele>
        <time>2025-05-03T12:39:10Z</time>
      </trkpt>
      <trkpt lat="41.046039015054703" lon="-8.318576971068978">
        <ele>223.16</ele>
        <time>2025-05-03T12:39:11Z</time>
      </trkpt>
      <trkpt lat="41.046083020046353" lon="-8.318722983822227">
        <ele>223.63999999999999</ele>
        <time>2025-05-03T12:39:12Z</time>
      </trkpt>
      <trkpt lat="41.046127025038004" lon="-8.318871008232236">
        <ele>224.12</ele>
        <time>2025-05-03T12:39:13Z</time>
      </trkpt>
      <trkpt lat="41.046579983085394" lon="-8.320349995046854">
        <ele>224.12</ele>
        <time>2025-05-03T12:39:23Z</time>
      </trkpt>
      <trkpt lat="41.046631028875709" lon="-8.320643026381731">
        <ele>223.16</ele>
        <time>2025-05-03T12:39:25Z</time>
      </trkpt>
      <trkpt lat="41.046644020825624" lon="-8.320800019428134">
        <ele>222.68000000000001</ele>
        <time>2025-05-03T12:39:26Z</time>
      </trkpt>
      <trkpt lat="41.046622982248664" lon="-8.321294970810413">
        <ele>220.75999999999999</ele>
        <time>2025-05-03T12:39:29Z</time>
      </trkpt>
      <trkpt lat="41.046602027490735" lon="-8.321453975513578">
        <ele>220.28</ele>
        <time>2025-05-03T12:39:30Z</time>
      </trkpt>
      <trkpt lat="41.046546958386898" lon="-8.321568975225091">
        <ele>219.31999999999999</ele>
        <time>2025-05-03T12:39:31Z</time>
      </trkpt>
      <trkpt lat="41.046461965888739" lon="-8.321656985208392">
        <ele>218.36000000000001</ele>
        <time>2025-05-03T12:39:32Z</time>
      </trkpt>
      <trkpt lat="41.046340009197593" lon="-8.321686992421746">
        <ele>217.40000000000001</ele>
        <time>2025-05-03T12:39:33Z</time>
      </trkpt>
      <trkpt lat="41.046213023364544" lon="-8.321713982149959">
        <ele>216.43000000000001</ele>
        <time>2025-05-03T12:39:34Z</time>
      </trkpt>
      <trkpt lat="41.046072961762547" lon="-8.321706019341946">
        <ele>215.47</ele>
        <time>2025-05-03T12:39:35Z</time>
      </trkpt>
      <trkpt lat="41.045630984008312" lon="-8.321708030998707">
        <ele>213.06999999999999</ele>
        <time>2025-05-03T12:39:38Z</time>
      </trkpt>
      <trkpt lat="41.045544985681772" lon="-8.321713982149959">
        <ele>212.59</ele>
        <time>2025-05-03T12:39:39Z</time>
      </trkpt>
      <trkpt lat="41.045436020940542" lon="-8.321837028488517">
        <ele>211.63</ele>
        <time>2025-05-03T12:39:40Z</time>
      </trkpt>
      <trkpt lat="41.045372989028692" lon="-8.32190802320838">
        <ele>210.66999999999999</ele>
        <time>2025-05-03T12:39:41Z</time>
      </trkpt>
      <trkpt lat="41.045382041484118" lon="-8.322041966021061">
        <ele>209.69999999999999</ele>
        <time>2025-05-03T12:39:42Z</time>
      </trkpt>
      <trkpt lat="41.045391010120511" lon="-8.322184961289167">
        <ele>208.74000000000001</ele>
        <time>2025-05-03T12:39:43Z</time>
      </trkpt>
      <trkpt lat="41.045437026768923" lon="-8.32231898792088">
        <ele>208.25999999999999</ele>
        <time>2025-05-03T12:39:44Z</time>
      </trkpt>
      <trkpt lat="41.045514978468418" lon="-8.322481010109186">
        <ele>207.78</ele>
        <time>2025-05-03T12:39:45Z</time>
      </trkpt>
      <trkpt lat="41.045765010640025" lon="-8.323041005060077">
        <ele>205.86000000000001</ele>
        <time>2025-05-03T12:39:48Z</time>
      </trkpt>
      <trkpt lat="41.046193996444345" lon="-8.3247459679842">
        <ele>202.49000000000001</ele>
        <time>2025-05-03T12:39:56Z</time>
      </trkpt>
      <trkpt lat="41.046265996992588" lon="-8.325241003185511">
        <ele>202.49000000000001</ele>
        <time>2025-05-03T12:39:59Z</time>
      </trkpt>
      <trkpt lat="41.046245964244008" lon="-8.325374023988843">
        <ele>202.49000000000001</ele>
        <time>2025-05-03T12:40:00Z</time>
      </trkpt>
      <trkpt lat="41.046214029192924" lon="-8.325498998165131">
        <ele>202.49000000000001</ele>
        <time>2025-05-03T12:40:01Z</time>
      </trkpt>
      <trkpt lat="41.046158960089087" lon="-8.325596982613206">
        <ele>202.49000000000001</ele>
        <time>2025-05-03T12:40:02Z</time>
      </trkpt>
      <trkpt lat="41.046082014217973" lon="-8.325664959847927">
        <ele>202.49000000000001</ele>
        <time>2025-05-03T12:40:03Z</time>
      </trkpt>
      <trkpt lat="41.045997021719813" lon="-8.325725980103016">
        <ele>202.97999999999999</ele>
        <time>2025-05-03T12:40:04Z</time>
      </trkpt>
      <trkpt lat="41.045899959281087" lon="-8.325731009244919">
        <ele>202.97999999999999</ele>
        <time>2025-05-03T12:40:05Z</time>
      </trkpt>
      <trkpt lat="41.045793006196618" lon="-8.325736038386822">
        <ele>203.46000000000001</ele>
        <time>2025-05-03T12:40:06Z</time>
      </trkpt>
      <trkpt lat="41.045683035627007" lon="-8.325740983709693">
        <ele>203.46000000000001</ele>
        <time>2025-05-03T12:40:07Z</time>
      </trkpt>
      <trkpt lat="41.045577004551888" lon="-8.325745007023215">
        <ele>203.94</ele>
        <time>2025-05-03T12:40:08Z</time>
      </trkpt>
      <trkpt lat="41.045485977083445" lon="-8.325736038386822">
        <ele>203.94</ele>
        <time>2025-05-03T12:40:09Z</time>
      </trkpt>
      <trkpt lat="41.045392015948892" lon="-8.325661020353437">
        <ele>203.94</ele>
        <time>2025-05-03T12:40:10Z</time>
      </trkpt>
      <trkpt lat="41.04528296738863" lon="-8.325566975399852">
        <ele>203.94</ele>
        <time>2025-05-03T12:40:11Z</time>
      </trkpt>
      <trkpt lat="41.04521700181067" lon="-8.325404031202197">
        <ele>203.46000000000001</ele>
        <time>2025-05-03T12:40:12Z</time>
      </trkpt>
      <trkpt lat="41.045148018747568" lon="-8.325234968215227">
        <ele>202.97999999999999</ele>
        <time>2025-05-03T12:40:13Z</time>
      </trkpt>
      <trkpt lat="41.045082975178957" lon="-8.325075041502714">
        <ele>202.49000000000001</ele>
        <time>2025-05-03T12:40:14Z</time>
      </trkpt>
      <trkpt lat="41.045007035136223" lon="-8.324974961578846">
        <ele>202.00999999999999</ele>
        <time>2025-05-03T12:40:15Z</time>
      </trkpt>
      <trkpt lat="41.0448959749192" lon="-8.324919976294041">
        <ele>201.53</ele>
        <time>2025-05-03T12:40:16Z</time>
      </trkpt>
      <trkpt lat="41.044790027663112" lon="-8.324870020151138">
        <ele>201.53</ele>
        <time>2025-05-03T12:40:17Z</time>
      </trkpt>
      <trkpt lat="41.044653989374638" lon="-8.32491796463728">
        <ele>201.05000000000001</ele>
        <time>2025-05-03T12:40:18Z</time>
      </trkpt>
      <trkpt lat="41.044502025470138" lon="-8.324971022084355">
        <ele>200.56999999999999</ele>
        <time>2025-05-03T12:40:19Z</time>
      </trkpt>
      <trkpt lat="41.044345032423735" lon="-8.325026007369161">
        <ele>200.09</ele>
        <time>2025-05-03T12:40:20Z</time>
      </trkpt>
      <trkpt lat="41.04405602440238" lon="-8.325128015130758">
        <ele>198.65000000000001</ele>
        <time>2025-05-03T12:40:22Z</time>
      </trkpt>
      <trkpt lat="41.043924009427428" lon="-8.325147964060307">
        <ele>198.16999999999999</ele>
        <time>2025-05-03T12:40:23Z</time>
      </trkpt>
      <trkpt lat="41.043789982795715" lon="-8.325122985988855">
        <ele>197.21000000000001</ele>
        <time>2025-05-03T12:40:24Z</time>
      </trkpt>
      <trkpt lat="41.043668026104569" lon="-8.325046040117741">
        <ele>196.72999999999999</ele>
        <time>2025-05-03T12:40:25Z</time>
      </trkpt>
      <trkpt lat="41.043543973937631" lon="-8.324946966022253">
        <ele>195.77000000000001</ele>
        <time>2025-05-03T12:40:26Z</time>
      </trkpt>
      <trkpt lat="41.043430985882878" lon="-8.324825009331107">
        <ele>194.80000000000001</ele>
        <time>2025-05-03T12:40:27Z</time>
      </trkpt>
      <trkpt lat="41.04332503862679" lon="-8.324711015447974">
        <ele>194.31999999999999</ele>
        <time>2025-05-03T12:40:28Z</time>
      </trkpt>
      <trkpt lat="41.043221019208431" lon="-8.324646977707744">
        <ele>193.36000000000001</ele>
        <time>2025-05-03T12:40:29Z</time>
      </trkpt>
      <trkpt lat="41.043077018111944" lon="-8.324589980766177">
        <ele>192.88</ele>
        <time>2025-05-03T12:40:30Z</time>
      </trkpt>
      <trkpt lat="41.04300300590694" lon="-8.324633985757828">
        <ele>191.91999999999999</ele>
        <time>2025-05-03T12:40:31Z</time>
      </trkpt>
      <trkpt lat="41.042908960953355" lon="-8.32472300156951">
        <ele>191.44</ele>
        <time>2025-05-03T12:40:32Z</time>
      </trkpt>
      <trkpt lat="41.042819023132324" lon="-8.324825009331107">
        <ele>191.44</ele>
        <time>2025-05-03T12:40:33Z</time>
      </trkpt>
      <trkpt lat="41.042727995663881" lon="-8.324928022921085">
        <ele>190.96000000000001</ele>
        <time>2025-05-03T12:40:34Z</time>
      </trkpt>
      <trkpt lat="41.042641997337341" lon="-8.325019972398877">
        <ele>190.96000000000001</ele>
        <time>2025-05-03T12:40:35Z</time>
      </trkpt>
      <trkpt lat="41.042520962655544" lon="-8.325054002925754">
        <ele>190.96000000000001</ele>
        <time>2025-05-03T12:40:36Z</time>
      </trkpt>
      <trkpt lat="41.042399005964398" lon="-8.32508803345263">
        <ele>190.96000000000001</ele>
        <time>2025-05-03T12:40:37Z</time>
      </trkpt>
      <trkpt lat="41.042289035394788" lon="-8.325118962675333">
        <ele>190.96000000000001</ele>
        <time>2025-05-03T12:40:38Z</time>
      </trkpt>
      <trkpt lat="41.042221980169415" lon="-8.325235974043608">
        <ele>191.44</ele>
        <time>2025-05-03T12:40:39Z</time>
      </trkpt>
      <trkpt lat="41.042175963521004" lon="-8.325373018160462">
        <ele>191.44</ele>
        <time>2025-05-03T12:40:40Z</time>
      </trkpt>
      <trkpt lat="41.04218602180481" lon="-8.325531017035246">
        <ele>191.91999999999999</ele>
        <time>2025-05-03T12:40:41Z</time>
      </trkpt>
      <trkpt lat="41.042197002097964" lon="-8.325707959011197">
        <ele>192.40000000000001</ele>
        <time>2025-05-03T12:40:42Z</time>
      </trkpt>
      <trkpt lat="41.0422089882195" lon="-8.325899988412857">
        <ele>193.36000000000001</ele>
        <time>2025-05-03T12:40:43Z</time>
      </trkpt>
      <trkpt lat="41.042233966290951" lon="-8.326318999752402">
        <ele>194.31999999999999</ele>
        <time>2025-05-03T12:40:45Z</time>
      </trkpt>
      <trkpt lat="41.042206976562738" lon="-8.32697999663651">
        <ele>195.28</ele>
        <time>2025-05-03T12:40:48Z</time>
      </trkpt>
      <trkpt lat="41.042076973244548" lon="-8.328674985095859">
        <ele>193.36000000000001</ele>
        <time>2025-05-03T12:40:57Z</time>
      </trkpt>
      <trkpt lat="41.042026011273265" lon="-8.328813035041094">
        <ele>192.88</ele>
        <time>2025-05-03T12:40:58Z</time>
      </trkpt>
      <trkpt lat="41.041975971311331" lon="-8.328947983682156">
        <ele>192.88</ele>
        <time>2025-05-03T12:40:59Z</time>
      </trkpt>
      <trkpt lat="41.041898019611835" lon="-8.329027025029063">
        <ele>192.88</ele>
        <time>2025-05-03T12:41:00Z</time>
      </trkpt>
      <trkpt lat="41.04180003516376" lon="-8.32908796146512">
        <ele>192.40000000000001</ele>
        <time>2025-05-03T12:41:01Z</time>
      </trkpt>
      <trkpt lat="41.041682017967105" lon="-8.329159962013364">
        <ele>191.91999999999999</ele>
        <time>2025-05-03T12:41:02Z</time>
      </trkpt>
      <trkpt lat="41.04158403351903" lon="-8.329178988933563">
        <ele>190.96000000000001</ele>
        <time>2025-05-03T12:41:03Z</time>
      </trkpt>
      <trkpt lat="41.04145897552371" lon="-8.329202961176634">
        <ele>190.47999999999999</ele>
        <time>2025-05-03T12:41:04Z</time>
      </trkpt>
      <trkpt lat="41.0413299780339" lon="-8.329227017238736">
        <ele>190</ele>
        <time>2025-05-03T12:41:05Z</time>
      </trkpt>
      <trkpt lat="41.041206009685993" lon="-8.3292599581182">
        <ele>189.52000000000001</ele>
        <time>2025-05-03T12:41:06Z</time>
      </trkpt>
      <trkpt lat="41.041101990267634" lon="-8.329317960888147">
        <ele>189.52000000000001</ele>
        <time>2025-05-03T12:41:07Z</time>
      </trkpt>
      <trkpt lat="41.041008029133081" lon="-8.329358026385307">
        <ele>189.52000000000001</ele>
        <time>2025-05-03T12:41:08Z</time>
      </trkpt>
      <trkpt lat="41.040914990007877" lon="-8.329374035820365">
        <ele>189.52000000000001</ele>
        <time>2025-05-03T12:41:09Z</time>
      </trkpt>
      <trkpt lat="41.040836032480001" lon="-8.329326007515192">
        <ele>189.52000000000001</ele>
        <time>2025-05-03T12:41:10Z</time>
      </trkpt>
      <trkpt lat="41.040755985304713" lon="-8.329248977825046">
        <ele>189.03999999999999</ele>
        <time>2025-05-03T12:41:11Z</time>
      </trkpt>
      <trkpt lat="41.040681973099709" lon="-8.32913096062839">
        <ele>189.03999999999999</ele>
        <time>2025-05-03T12:41:12Z</time>
      </trkpt>
      <trkpt lat="41.040601003915071" lon="-8.32900196313858">
        <ele>188.56</ele>
        <time>2025-05-03T12:41:13Z</time>
      </trkpt>
      <trkpt lat="41.040502013638616" lon="-8.328906996175647">
        <ele>187.59</ele>
        <time>2025-05-03T12:41:14Z</time>
      </trkpt>
      <trkpt lat="41.04040302336216" lon="-8.328881012275815">
        <ele>187.11000000000001</ele>
        <time>2025-05-03T12:41:15Z</time>
      </trkpt>
      <trkpt lat="41.040309984236956" lon="-8.328901967033744">
        <ele>186.63</ele>
        <time>2025-05-03T12:41:16Z</time>
      </trkpt>
      <trkpt lat="41.040236977860332" lon="-8.328987965360284">
        <ele>186.15000000000001</ele>
        <time>2025-05-03T12:41:17Z</time>
      </trkpt>
      <trkpt lat="41.040193978697062" lon="-8.329104976728559">
        <ele>185.66999999999999</ele>
        <time>2025-05-03T12:41:18Z</time>
      </trkpt>
      <trkpt lat="41.04014896787703" lon="-8.329226011410356">
        <ele>185.66999999999999</ele>
        <time>2025-05-03T12:41:19Z</time>
      </trkpt>
      <trkpt lat="41.040093982592225" lon="-8.329375041648746">
        <ele>185.19</ele>
        <time>2025-05-03T12:41:20Z</time>
      </trkpt>
      <trkpt lat="41.04001896455884" lon="-8.329436983913183">
        <ele>184.71000000000001</ele>
        <time>2025-05-03T12:41:21Z</time>
      </trkpt>
      <trkpt lat="41.039914023131132" lon="-8.329521976411343">
        <ele>184.22999999999999</ele>
        <time>2025-05-03T12:41:22Z</time>
      </trkpt>
      <trkpt lat="41.039799023419619" lon="-8.329617027193308">
        <ele>183.27000000000001</ele>
        <time>2025-05-03T12:41:23Z</time>
      </trkpt>
      <trkpt lat="41.039673965424299" lon="-8.329719034954906">
        <ele>182.78999999999999</ele>
        <time>2025-05-03T12:41:24Z</time>
      </trkpt>
      <trkpt lat="41.039573969319463" lon="-8.329869993031025">
        <ele>181.83000000000001</ele>
        <time>2025-05-03T12:41:25Z</time>
      </trkpt>
      <trkpt lat="41.039495011791587" lon="-8.330045007169247">
        <ele>181.34999999999999</ele>
        <time>2025-05-03T12:41:26Z</time>
      </trkpt>
      <trkpt lat="41.039419993758202" lon="-8.330213986337185">
        <ele>180.87</ele>
        <time>2025-05-03T12:41:27Z</time>
      </trkpt>
      <trkpt lat="41.039274986833334" lon="-8.330537024885416">
        <ele>180.38</ele>
        <time>2025-05-03T12:41:29Z</time>
      </trkpt>
      <trkpt lat="41.039193011820316" lon="-8.330654036253691">
        <ele>179.90000000000001</ele>
        <time>2025-05-03T12:41:30Z</time>
      </trkpt>
      <trkpt lat="41.039101984351873" lon="-8.330712961032987">
        <ele>179.41999999999999</ele>
        <time>2025-05-03T12:41:31Z</time>
      </trkpt>
      <trkpt lat="41.038992013782263" lon="-8.330709021538496">
        <ele>178.46000000000001</ele>
        <time>2025-05-03T12:41:32Z</time>
      </trkpt>
      <trkpt lat="41.038884976878762" lon="-8.330641966313124">
        <ele>177.5</ele>
        <time>2025-05-03T12:41:33Z</time>
      </trkpt>
      <trkpt lat="41.038770982995629" lon="-8.330514980480075">
        <ele>176.53999999999999</ele>
        <time>2025-05-03T12:41:34Z</time>
      </trkpt>
      <trkpt lat="41.03866302408278" lon="-8.330369973555207">
        <ele>175.58000000000001</ele>
        <time>2025-05-03T12:41:35Z</time>
      </trkpt>
      <trkpt lat="41.038549030199647" lon="-8.330218009650707">
        <ele>175.09999999999999</ele>
        <time>2025-05-03T12:41:36Z</time>
      </trkpt>
      <trkpt lat="41.038434030488133" lon="-8.330077026039362">
        <ele>174.13999999999999</ele>
        <time>2025-05-03T12:41:37Z</time>
      </trkpt>
      <trkpt lat="41.038302015513182" lon="-8.329953979700804">
        <ele>173.16999999999999</ele>
        <time>2025-05-03T12:41:38Z</time>
      </trkpt>
      <trkpt lat="41.038160026073456" lon="-8.329819031059742">
        <ele>172.21000000000001</ele>
        <time>2025-05-03T12:41:39Z</time>
      </trkpt>
      <trkpt lat="41.038068998605013" lon="-8.32964401692152">
        <ele>171.25</ele>
        <time>2025-05-03T12:41:40Z</time>
      </trkpt>
      <trkpt lat="41.037887027487159" lon="-8.329291976988316">
        <ele>169.33000000000001</ele>
        <time>2025-05-03T12:41:42Z</time>
      </trkpt>
      <trkpt lat="41.0377830080688" lon="-8.32915099337697">
        <ele>168.37</ele>
        <time>2025-05-03T12:41:43Z</time>
      </trkpt>
      <trkpt lat="41.037672031670809" lon="-8.329016966745257">
        <ele>167.41</ele>
        <time>2025-05-03T12:41:44Z</time>
      </trkpt>
      <trkpt lat="41.037569018080831" lon="-8.328894004225731">
        <ele>166.44999999999999</ele>
        <time>2025-05-03T12:41:45Z</time>
      </trkpt>
      <trkpt lat="41.037492994219065" lon="-8.328728964552283">
        <ele>165.47999999999999</ele>
        <time>2025-05-03T12:41:46Z</time>
      </trkpt>
      <trkpt lat="41.037435997277498" lon="-8.328574988991022">
        <ele>164.52000000000001</ele>
        <time>2025-05-03T12:41:47Z</time>
      </trkpt>
      <trkpt lat="41.037380006164312" lon="-8.328421013429761">
        <ele>163.08000000000001</ele>
        <time>2025-05-03T12:41:48Z</time>
      </trkpt>
      <trkpt lat="41.037329966202378" lon="-8.328283969312906">
        <ele>162.12</ele>
        <time>2025-05-03T12:41:49Z</time>
      </trkpt>
      <trkpt lat="41.037291996181011" lon="-8.328212974593043">
        <ele>161.16</ele>
        <time>2025-05-03T12:41:50Z</time>
      </trkpt>
      <trkpt lat="41.037193005904555" lon="-8.328191014006734">
        <ele>160.68000000000001</ele>
        <time>2025-05-03T12:41:51Z</time>
      </trkpt>
      <trkpt lat="41.037077000364661" lon="-8.328166035935283">
        <ele>160.19999999999999</ele>
        <time>2025-05-03T12:41:52Z</time>
      </trkpt>
      <trkpt lat="41.03694599121809" lon="-8.328136028721929">
        <ele>159.72</ele>
        <time>2025-05-03T12:41:53Z</time>
      </trkpt>
      <trkpt lat="41.036809030920267" lon="-8.328106021508575">
        <ele>158.75</ele>
        <time>2025-05-03T12:41:54Z</time>
      </trkpt>
      <trkpt lat="41.03666796348989" lon="-8.328041983768344">
        <ele>158.27000000000001</ele>
        <time>2025-05-03T12:41:55Z</time>
      </trkpt>
      <trkpt lat="41.036563022062182" lon="-8.327960008755326">
        <ele>157.31</ele>
        <time>2025-05-03T12:41:56Z</time>
      </trkpt>
      <trkpt lat="41.036456990987062" lon="-8.327878033742309">
        <ele>155.87</ele>
        <time>2025-05-03T12:41:57Z</time>
      </trkpt>
      <trkpt lat="41.036351965740323" lon="-8.327794969081879">
        <ele>154.91</ele>
        <time>2025-05-03T12:41:58Z</time>
      </trkpt>
      <trkpt lat="41.036232020705938" lon="-8.327701007947326">
        <ele>153.94999999999999</ele>
        <time>2025-05-03T12:41:59Z</time>
      </trkpt>
      <trkpt lat="41.036218022927642" lon="-8.327707964926958">
        <ele>152.99000000000001</ele>
        <time>2025-05-03T12:42:00Z</time>
      </trkpt>
      <trkpt lat="41.036103023216128" lon="-8.327765967696905">
        <ele>152.50999999999999</ele>
        <time>2025-05-03T12:42:01Z</time>
      </trkpt>
      <trkpt lat="41.036075027659535" lon="-8.327867975458503">
        <ele>152.03</ele>
        <time>2025-05-03T12:42:02Z</time>
      </trkpt>
      <trkpt lat="41.03606597520411" lon="-8.328072996810079">
        <ele>152.50999999999999</ele>
        <time>2025-05-03T12:42:03Z</time>
      </trkpt>
      <trkpt lat="41.036120038479567" lon="-8.328211968764663">
        <ele>152.50999999999999</ele>
        <time>2025-05-03T12:42:04Z</time>
      </trkpt>
      <trkpt lat="41.036181980744004" lon="-8.328373990952969">
        <ele>153.47</ele>
        <time>2025-05-03T12:42:05Z</time>
      </trkpt>
      <trkpt lat="41.036508958786726" lon="-8.329241015017033">
        <ele>157.78999999999999</ele>
        <time>2025-05-03T12:42:10Z</time>
      </trkpt>
      <trkpt lat="41.03649596683681" lon="-8.32940798252821">
        <ele>158.75</ele>
        <time>2025-05-03T12:42:11Z</time>
      </trkpt>
      <trkpt lat="41.036447016522288" lon="-8.329518036916852">
        <ele>158.75</ele>
        <time>2025-05-03T12:42:12Z</time>
      </trkpt>
      <trkpt lat="41.036365041509271" lon="-8.329586014151573">
        <ele>158.75</ele>
        <time>2025-05-03T12:42:13Z</time>
      </trkpt>
      <trkpt lat="41.036272002384067" lon="-8.329605041071773">
        <ele>158.75</ele>
        <time>2025-05-03T12:42:14Z</time>
      </trkpt>
      <trkpt lat="41.036160020157695" lon="-8.329624990001321">
        <ele>159.24000000000001</ele>
        <time>2025-05-03T12:42:15Z</time>
      </trkpt>
      <trkpt lat="41.036037979647517" lon="-8.329647034406662">
        <ele>159.24000000000001</ele>
        <time>2025-05-03T12:42:16Z</time>
      </trkpt>
      <trkpt lat="41.035903031006455" lon="-8.329671006649733">
        <ele>159.24000000000001</ele>
        <time>2025-05-03T12:42:17Z</time>
      </trkpt>
      <trkpt lat="41.035631038248539" lon="-8.329696990549564">
        <ele>159.24000000000001</ele>
        <time>2025-05-03T12:42:19Z</time>
      </trkpt>
      <trkpt lat="41.035359967499971" lon="-8.329728003591299">
        <ele>159.72</ele>
        <time>2025-05-03T12:42:21Z</time>
      </trkpt>
      <trkpt lat="41.035330966114998" lon="-8.329739989712834">
        <ele>159.72</ele>
        <time>2025-05-03T12:42:22Z</time>
      </trkpt>
      <trkpt lat="41.035223007202148" lon="-8.329890025779605">
        <ele>159.72</ele>
        <time>2025-05-03T12:42:23Z</time>
      </trkpt>
      <trkpt lat="41.035223007202148" lon="-8.329890025779605">
        <ele>159.72</ele>
        <time>2025-05-03T12:42:24Z</time>
      </trkpt>
      <trkpt lat="41.035223007202148" lon="-8.329890025779605">
        <ele>159.72</ele>
        <time>2025-05-03T12:42:25Z</time>
      </trkpt>
      <trkpt lat="41.035241028293967" lon="-8.330079037696123">
        <ele>159.72</ele>
        <time>2025-05-03T12:42:26Z</time>
      </trkpt>
      <trkpt lat="41.035244967788458" lon="-8.330125976353884">
        <ele>159.24000000000001</ele>
        <time>2025-05-03T12:42:27Z</time>
      </trkpt>
      <trkpt lat="41.035244967788458" lon="-8.330125976353884">
        <ele>158.75</ele>
        <time>2025-05-03T12:42:28Z</time>
      </trkpt>
      <trkpt lat="41.035353010520339" lon="-8.330264026299119">
        <ele>156.83000000000001</ele>
        <time>2025-05-03T12:42:29Z</time>
      </trkpt>
      <trkpt lat="41.035481002181768" lon="-8.330427976325154">
        <ele>155.87</ele>
        <time>2025-05-03T12:42:30Z</time>
      </trkpt>
      <trkpt lat="41.03561201132834" lon="-8.330594021826983">
        <ele>154.91</ele>
        <time>2025-05-03T12:42:31Z</time>
      </trkpt>
      <trkpt lat="41.036449028179049" lon="-8.33155601285398">
        <ele>148.66</ele>
        <time>2025-05-03T12:42:37Z</time>
      </trkpt>
      <trkpt lat="41.036551035940647" lon="-8.331704959273338">
        <ele>148.18000000000001</ele>
        <time>2025-05-03T12:42:38Z</time>
      </trkpt>
      <trkpt lat="41.03670802898705" lon="-8.33194300532341">
        <ele>148.18000000000001</ele>
        <time>2025-05-03T12:42:39Z</time>
      </trkpt>
      <trkpt lat="41.03675102815032" lon="-8.332116007804871">
        <ele>148.18000000000001</ele>
        <time>2025-05-03T12:42:40Z</time>
      </trkpt>
      <trkpt lat="41.036770977079868" lon="-8.332426976412535">
        <ele>148.18000000000001</ele>
        <time>2025-05-03T12:42:41Z</time>
      </trkpt>
      <trkpt lat="41.036745999008417" lon="-8.332620011642575">
        <ele>148.18000000000001</ele>
        <time>2025-05-03T12:42:42Z</time>
      </trkpt>
      <trkpt lat="41.036721020936966" lon="-8.332826038822532">
        <ele>147.69999999999999</ele>
        <time>2025-05-03T12:42:43Z</time>
      </trkpt>
      <trkpt lat="41.036694031208754" lon="-8.333037011325359">
        <ele>147.69999999999999</ele>
        <time>2025-05-03T12:42:44Z</time>
      </trkpt>
      <trkpt lat="41.03668799623847" lon="-8.333206996321678">
        <ele>146.74000000000001</ele>
        <time>2025-05-03T12:42:45Z</time>
      </trkpt>
      <trkpt lat="41.036704005673528" lon="-8.333409000188112">
        <ele>145.78</ele>
        <time>2025-05-03T12:42:46Z</time>
      </trkpt>
      <trkpt lat="41.036753039807081" lon="-8.333608992397785">
        <ele>144.81999999999999</ele>
        <time>2025-05-03T12:42:47Z</time>
      </trkpt>
      <trkpt lat="41.036807019263506" lon="-8.33383304066956">
        <ele>143.37</ele>
        <time>2025-05-03T12:42:48Z</time>
      </trkpt>
      <trkpt lat="41.036863010376692" lon="-8.334061028435826">
        <ele>142.41</ele>
        <time>2025-05-03T12:42:49Z</time>
      </trkpt>
      <trkpt lat="41.036970969289541" lon="-8.334507029503584">
        <ele>140.00999999999999</ele>
        <time>2025-05-03T12:42:51Z</time>
      </trkpt>
      <trkpt lat="41.037023020908237" lon="-8.334721019491553">
        <ele>139.05000000000001</ele>
        <time>2025-05-03T12:42:52Z</time>
      </trkpt>
      <trkpt lat="41.037089992314577" lon="-8.334997035562992">
        <ele>138.56999999999999</ele>
        <time>2025-05-03T12:42:53Z</time>
      </trkpt>
      <trkpt lat="41.037063002586365" lon="-8.335168026387692">
        <ele>137.61000000000001</ele>
        <time>2025-05-03T12:42:54Z</time>
      </trkpt>
      <trkpt lat="41.037028972059488" lon="-8.3353800047189">
        <ele>136.63999999999999</ele>
        <time>2025-05-03T12:42:55Z</time>
      </trkpt>
      <trkpt lat="41.036962000653148" lon="-8.335797004401684">
        <ele>135.19999999999999</ele>
        <time>2025-05-03T12:42:57Z</time>
      </trkpt>
      <trkpt lat="41.036932999268174" lon="-8.33598199300468">
        <ele>134.24000000000001</ele>
        <time>2025-05-03T12:42:58Z</time>
      </trkpt>
      <trkpt lat="41.036919001489878" lon="-8.336070002987981">
        <ele>132.80000000000001</ele>
        <time>2025-05-03T12:42:59Z</time>
      </trkpt>
      <trkpt lat="41.036962000653148" lon="-8.336220039054751">
        <ele>131.84</ele>
        <time>2025-05-03T12:43:00Z</time>
      </trkpt>
      <trkpt lat="41.037041964009404" lon="-8.336380971595645">
        <ele>129.91999999999999</ele>
        <time>2025-05-03T12:43:01Z</time>
      </trkpt>
      <trkpt lat="41.037155035883188" lon="-8.336606025695801">
        <ele>128.94999999999999</ele>
        <time>2025-05-03T12:43:02Z</time>
      </trkpt>
      <trkpt lat="41.037218989804387" lon="-8.33679897710681">
        <ele>127.51000000000001</ele>
        <time>2025-05-03T12:43:03Z</time>
      </trkpt>
      <trkpt lat="41.037195017561316" lon="-8.336941972374916">
        <ele>126.55</ele>
        <time>2025-05-03T12:43:04Z</time>
      </trkpt>
      <trkpt lat="41.037131985649467" lon="-8.337307004258037">
        <ele>125.11</ele>
        <time>2025-05-03T12:43:06Z</time>
      </trkpt>
      <trkpt lat="41.037089992314577" lon="-8.33754999563098">
        <ele>123.19</ele>
        <time>2025-05-03T12:43:07Z</time>
      </trkpt>
      <trkpt lat="41.037026038393378" lon="-8.33770003169775">
        <ele>122.22</ele>
        <time>2025-05-03T12:43:08Z</time>
      </trkpt>
      <trkpt lat="41.036977004259825" lon="-8.33776499144733">
        <ele>123.19</ele>
        <time>2025-05-03T12:43:09Z</time>
      </trkpt>
      <trkpt lat="41.036897040903568" lon="-8.33787202835083">
        <ele>124.15000000000001</ele>
        <time>2025-05-03T12:43:10Z</time>
      </trkpt>
      <trkpt lat="41.036840965971351" lon="-8.337903963401914">
        <ele>125.11</ele>
        <time>2025-05-03T12:43:11Z</time>
      </trkpt>
      <trkpt lat="41.036771982908249" lon="-8.337942017242312">
        <ele>125.59</ele>
        <time>2025-05-03T12:43:12Z</time>
      </trkpt>
      <trkpt lat="41.036704005673528" lon="-8.337978981435299">
        <ele>125.59</ele>
        <time>2025-05-03T12:43:13Z</time>
      </trkpt>
      <trkpt lat="41.036553969606757" lon="-8.338107978925109">
        <ele>126.06999999999999</ele>
        <time>2025-05-03T12:43:14Z</time>
      </trkpt>
      <trkpt lat="41.036553969606757" lon="-8.338107978925109">
        <ele>126.06999999999999</ele>
        <time>2025-05-03T12:43:15Z</time>
      </trkpt>
      <trkpt lat="41.036510970443487" lon="-8.338262960314751">
        <ele>126.06999999999999</ele>
        <time>2025-05-03T12:43:16Z</time>
      </trkpt>
      <trkpt lat="41.036510970443487" lon="-8.338391035795212">
        <ele>126.06999999999999</ele>
        <time>2025-05-03T12:43:17Z</time>
      </trkpt>
      <trkpt lat="41.036510970443487" lon="-8.338708961382508">
        <ele>126.06999999999999</ele>
        <time>2025-05-03T12:43:19Z</time>
      </trkpt>
      <trkpt lat="41.036505019292235" lon="-8.338728994131088">
        <ele>126.06999999999999</ele>
        <time>2025-05-03T12:43:20Z</time>
      </trkpt>
      <trkpt lat="41.036447016522288" lon="-8.33892404101789">
        <ele>126.55</ele>
        <time>2025-05-03T12:43:21Z</time>
      </trkpt>
      <trkpt lat="41.036426983773708" lon="-8.338948013260961">
        <ele>126.55</ele>
        <time>2025-05-03T12:43:22Z</time>
      </trkpt>
      <trkpt lat="41.036275019869208" lon="-8.339138031005859">
        <ele>127.03</ele>
        <time>2025-05-03T12:43:23Z</time>
      </trkpt>
      <trkpt lat="41.036273008212447" lon="-8.33913903683424">
        <ele>127.03</ele>
        <time>2025-05-03T12:43:24Z</time>
      </trkpt>
      <trkpt lat="41.036180974915624" lon="-8.339168960228562">
        <ele>127.03</ele>
        <time>2025-05-03T12:43:25Z</time>
      </trkpt>
      <trkpt lat="41.036081984639168" lon="-8.339202990755439">
        <ele>127.03</ele>
        <time>2025-05-03T12:43:26Z</time>
      </trkpt>
      <trkpt lat="41.035952987149358" lon="-8.339267028495669">
        <ele>126.55</ele>
        <time>2025-05-03T12:43:27Z</time>
      </trkpt>
      <trkpt lat="41.03591401129961" lon="-8.339300975203514">
        <ele>126.55</ele>
        <time>2025-05-03T12:43:28Z</time>
      </trkpt>
      <trkpt lat="41.035829018801451" lon="-8.339374987408519">
        <ele>126.06999999999999</ele>
        <time>2025-05-03T12:43:29Z</time>
      </trkpt>
      <trkpt lat="41.035745032131672" lon="-8.339459979906678">
        <ele>126.55</ele>
        <time>2025-05-03T12:43:30Z</time>
      </trkpt>
      <trkpt lat="41.035666996613145" lon="-8.339550001546741">
        <ele>126.55</ele>
        <time>2025-05-03T12:43:31Z</time>
      </trkpt>
      <trkpt lat="41.035562977194786" lon="-8.339614039286971">
        <ele>126.06999999999999</ele>
        <time>2025-05-03T12:43:32Z</time>
      </trkpt>
      <trkpt lat="41.035510003566742" lon="-8.339771032333374">
        <ele>126.55</ele>
        <time>2025-05-03T12:43:33Z</time>
      </trkpt>
      <trkpt lat="41.03546298108995" lon="-8.339903969317675">
        <ele>126.55</ele>
        <time>2025-05-03T12:43:34Z</time>
      </trkpt>
      <trkpt lat="41.035479996353388" lon="-8.340075965970755">
        <ele>127.03</ele>
        <time>2025-05-03T12:43:35Z</time>
      </trkpt>
      <trkpt lat="41.035533975809813" lon="-8.340204963460565">
        <ele>127.03</ele>
        <time>2025-05-03T12:43:36Z</time>
      </trkpt>
      <trkpt lat="41.035598013550043" lon="-8.340321974828839">
        <ele>127.03</ele>
        <time>2025-05-03T12:43:37Z</time>
      </trkpt>
      <trkpt lat="41.03593303821981" lon="-8.341996008530259">
        <ele>129.43000000000001</ele>
        <time>2025-05-03T12:43:48Z</time>
      </trkpt>
      <trkpt lat="41.036533014848828" lon="-8.343376005068421">
        <ele>129.91999999999999</ele>
        <time>2025-05-03T12:43:58Z</time>
      </trkpt>
      <trkpt lat="41.036576014012098" lon="-8.34352201782167">
        <ele>129.43000000000001</ele>
        <time>2025-05-03T12:43:59Z</time>
      </trkpt>
      <trkpt lat="41.036618007346988" lon="-8.343666018918157">
        <ele>128.94999999999999</ele>
        <time>2025-05-03T12:44:00Z</time>
      </trkpt>
      <trkpt lat="41.036874996498227" lon="-8.345368970185518">
        <ele>122.70999999999999</ele>
        <time>2025-05-03T12:44:11Z</time>
      </trkpt>
      <trkpt lat="41.036797966808081" lon="-8.346934961155057">
        <ele>120.78</ele>
        <time>2025-05-03T12:44:21Z</time>
      </trkpt>
      <trkpt lat="41.036763014271855" lon="-8.347030011937022">
        <ele>120.78</ele>
        <time>2025-05-03T12:44:22Z</time>
      </trkpt>
      <trkpt lat="41.036697970703244" lon="-8.347122967243195">
        <ele>120.78</ele>
        <time>2025-05-03T12:44:23Z</time>
      </trkpt>
      <trkpt lat="41.036639967933297" lon="-8.347206031903625">
        <ele>120.78</ele>
        <time>2025-05-03T12:44:24Z</time>
      </trkpt>
      <trkpt lat="41.03655899874866" lon="-8.347206031903625">
        <ele>121.26000000000001</ele>
        <time>2025-05-03T12:44:25Z</time>
      </trkpt>
      <trkpt lat="41.036424972116947" lon="-8.347206031903625">
        <ele>120.78</ele>
        <time>2025-05-03T12:44:26Z</time>
      </trkpt>
      <trkpt lat="41.036350959911942" lon="-8.347153980284929">
        <ele>120.78</ele>
        <time>2025-05-03T12:44:27Z</time>
      </trkpt>
      <trkpt lat="41.03623797185719" lon="-8.347076028585434">
        <ele>120.3</ele>
        <time>2025-05-03T12:44:28Z</time>
      </trkpt>
      <trkpt lat="41.036138981580734" lon="-8.346966980025172">
        <ele>120.3</ele>
        <time>2025-05-03T12:44:29Z</time>
      </trkpt>
      <trkpt lat="41.036047032102942" lon="-8.346851980313659">
        <ele>119.34</ele>
        <time>2025-05-03T12:44:30Z</time>
      </trkpt>
      <trkpt lat="41.035994980484247" lon="-8.346726000308991">
        <ele>118.86</ele>
        <time>2025-05-03T12:44:31Z</time>
      </trkpt>
      <trkpt lat="41.035939995199442" lon="-8.346579987555742">
        <ele>118.38</ele>
        <time>2025-05-03T12:44:32Z</time>
      </trkpt>
      <trkpt lat="41.035879980772734" lon="-8.346422994509339">
        <ele>117.90000000000001</ele>
        <time>2025-05-03T12:44:33Z</time>
      </trkpt>
      <trkpt lat="41.035818960517645" lon="-8.346261978149414">
        <ele>117.90000000000001</ele>
        <time>2025-05-03T12:44:34Z</time>
      </trkpt>
      <trkpt lat="41.035630032420158" lon="-8.345755962654948">
        <ele>116.45999999999999</ele>
        <time>2025-05-03T12:44:37Z</time>
      </trkpt>
      <trkpt lat="41.035530958324671" lon="-8.34560701623559">
        <ele>115.98</ele>
        <time>2025-05-03T12:44:38Z</time>
      </trkpt>
      <trkpt lat="41.035416964441538" lon="-8.345473995432258">
        <ele>115.01000000000001</ele>
        <time>2025-05-03T12:44:39Z</time>
      </trkpt>
      <trkpt lat="41.034535020589828" lon="-8.344671009108424">
        <ele>111.65000000000001</ele>
        <time>2025-05-03T12:44:46Z</time>
      </trkpt>
      <trkpt lat="41.034421026706696" lon="-8.34457503631711">
        <ele>111.17</ele>
        <time>2025-05-03T12:44:47Z</time>
      </trkpt>
      <trkpt lat="41.034296974539757" lon="-8.344514016062021">
        <ele>110.69</ele>
        <time>2025-05-03T12:44:48Z</time>
      </trkpt>
      <trkpt lat="41.034164037555456" lon="-8.344466993585229">
        <ele>110.20999999999999</ele>
        <time>2025-05-03T12:44:49Z</time>
      </trkpt>
      <trkpt lat="41.034021964296699" lon="-8.344417037442327">
        <ele>109.73</ele>
        <time>2025-05-03T12:44:50Z</time>
      </trkpt>
      <trkpt lat="41.033892966806889" lon="-8.344325004145503">
        <ele>108.77</ele>
        <time>2025-05-03T12:44:51Z</time>
      </trkpt>
      <trkpt lat="41.033761035650969" lon="-8.344230959191918">
        <ele>108.29000000000001</ele>
        <time>2025-05-03T12:44:52Z</time>
      </trkpt>
      <trkpt lat="41.033517038449645" lon="-8.34403800778091">
        <ele>106.36</ele>
        <time>2025-05-03T12:44:54Z</time>
      </trkpt>
      <trkpt lat="41.033416036516428" lon="-8.343929965049028">
        <ele>105.40000000000001</ele>
        <time>2025-05-03T12:44:55Z</time>
      </trkpt>
      <trkpt lat="41.03322803042829" lon="-8.343729972839356">
        <ele>103.95999999999999</ele>
        <time>2025-05-03T12:44:57Z</time>
      </trkpt>
      <trkpt lat="41.033140020444989" lon="-8.343685967847705">
        <ele>103.48</ele>
        <time>2025-05-03T12:44:58Z</time>
      </trkpt>
      <trkpt lat="41.033041030168533" lon="-8.343686973676086">
        <ele>103</ele>
        <time>2025-05-03T12:44:59Z</time>
      </trkpt>
      <trkpt lat="41.032921001315117" lon="-8.343743970617652">
        <ele>103</ele>
        <time>2025-05-03T12:45:00Z</time>
      </trkpt>
      <trkpt lat="41.032860986888409" lon="-8.343862993642688">
        <ele>103</ele>
        <time>2025-05-03T12:45:01Z</time>
      </trkpt>
      <trkpt lat="41.032841959968209" lon="-8.344028033316135">
        <ele>103</ele>
        <time>2025-05-03T12:45:02Z</time>
      </trkpt>
      <trkpt lat="41.032860986888409" lon="-8.344202963635325">
        <ele>103</ele>
        <time>2025-05-03T12:45:03Z</time>
      </trkpt>
      <trkpt lat="41.032912032678723" lon="-8.344371020793915">
        <ele>103</ele>
        <time>2025-05-03T12:45:04Z</time>
      </trkpt>
      <trkpt lat="41.03301596827805" lon="-8.344719037413597">
        <ele>103.95999999999999</ele>
        <time>2025-05-03T12:45:06Z</time>
      </trkpt>
      <trkpt lat="41.03320699185133" lon="-8.344975020736456">
        <ele>104.44</ele>
        <time>2025-05-03T12:45:08Z</time>
      </trkpt>
      <trkpt lat="41.033433973789215" lon="-8.34524299018085">
        <ele>104.92</ele>
        <time>2025-05-03T12:45:10Z</time>
      </trkpt>
      <trkpt lat="41.033541010692716" lon="-8.345384979620576">
        <ele>105.40000000000001</ele>
        <time>2025-05-03T12:45:11Z</time>
      </trkpt>
      <trkpt lat="41.033635977655649" lon="-8.345510959625244">
        <ele>105.40000000000001</ele>
        <time>2025-05-03T12:45:12Z</time>
      </trkpt>
      <trkpt lat="41.033755000680685" lon="-8.345579020678997">
        <ele>105.40000000000001</ele>
        <time>2025-05-03T12:45:13Z</time>
      </trkpt>
      <trkpt lat="41.033879974856973" lon="-8.34565001539886">
        <ele>105.40000000000001</ele>
        <time>2025-05-03T12:45:14Z</time>
      </trkpt>
      <trkpt lat="41.034007966518402" lon="-8.345724027603865">
        <ele>105.88</ele>
        <time>2025-05-03T12:45:15Z</time>
      </trkpt>
      <trkpt lat="41.034132018685341" lon="-8.345814971253276">
        <ele>105.88</ele>
        <time>2025-05-03T12:45:16Z</time>
      </trkpt>
      <trkpt lat="41.034248024225235" lon="-8.345942040905356">
        <ele>106.84</ele>
        <time>2025-05-03T12:45:17Z</time>
      </trkpt>
      <trkpt lat="41.034323964267969" lon="-8.346092998981476">
        <ele>106.84</ele>
        <time>2025-05-03T12:45:18Z</time>
      </trkpt>
      <trkpt lat="41.034377021715045" lon="-8.346244040876627">
        <ele>107.31999999999999</ele>
        <time>2025-05-03T12:45:19Z</time>
      </trkpt>
      <trkpt lat="41.034403005614877" lon="-8.346384018659592">
        <ele>107.31999999999999</ele>
        <time>2025-05-03T12:45:20Z</time>
      </trkpt>
      <trkpt lat="41.034378027543426" lon="-8.346520978957415">
        <ele>107.81</ele>
        <time>2025-05-03T12:45:21Z</time>
      </trkpt>
      <trkpt lat="41.034343997016549" lon="-8.346647964790463">
        <ele>107.81</ele>
        <time>2025-05-03T12:45:22Z</time>
      </trkpt>
      <trkpt lat="41.034265039488673" lon="-8.346805963665247">
        <ele>107.81</ele>
        <time>2025-05-03T12:45:23Z</time>
      </trkpt>
      <trkpt lat="41.034176023676991" lon="-8.346935966983438">
        <ele>108.29000000000001</ele>
        <time>2025-05-03T12:45:24Z</time>
      </trkpt>
      <trkpt lat="41.03406697511673" lon="-8.347067981958389">
        <ele>108.29000000000001</ele>
        <time>2025-05-03T12:45:25Z</time>
      </trkpt>
      <trkpt lat="41.033470015972853" lon="-8.347805002704263">
        <ele>110.20999999999999</ele>
        <time>2025-05-03T12:45:31Z</time>
      </trkpt>
      <trkpt lat="41.033377982676029" lon="-8.347936011850834">
        <ele>110.69</ele>
        <time>2025-05-03T12:45:32Z</time>
      </trkpt>
      <trkpt lat="41.033345963805914" lon="-8.348048999905586">
        <ele>110.69</ele>
        <time>2025-05-03T12:45:33Z</time>
      </trkpt>
      <trkpt lat="41.033346969634295" lon="-8.348199035972357">
        <ele>111.17</ele>
        <time>2025-05-03T12:45:34Z</time>
      </trkpt>
      <trkpt lat="41.033390974625945" lon="-8.348340019583702">
        <ele>111.65000000000001</ele>
        <time>2025-05-03T12:45:35Z</time>
      </trkpt>
      <trkpt lat="41.033463981002569" lon="-8.3484230004251">
        <ele>111.65000000000001</ele>
        <time>2025-05-03T12:45:36Z</time>
      </trkpt>
      <trkpt lat="41.033563977107406" lon="-8.34848502650857">
        <ele>112.13</ele>
        <time>2025-05-03T12:45:37Z</time>
      </trkpt>
      <trkpt lat="41.033667996525764" lon="-8.34850899875164">
        <ele>112.13</ele>
        <time>2025-05-03T12:45:38Z</time>
      </trkpt>
      <trkpt lat="41.033759023994207" lon="-8.348530037328601">
        <ele>112.61</ele>
        <time>2025-05-03T12:45:39Z</time>
      </trkpt>
      <trkpt lat="41.033813003450632" lon="-8.348559038713574">
        <ele>112.61</ele>
        <time>2025-05-03T12:45:40Z</time>
      </trkpt>
      <trkpt lat="41.033846028149128" lon="-8.348587034270167">
        <ele>113.09</ele>
        <time>2025-05-03T12:45:41Z</time>
      </trkpt>
      <trkpt lat="41.033868994563818" lon="-8.348605977371335">
        <ele>113.09</ele>
        <time>2025-05-03T12:45:42Z</time>
      </trkpt>
      <trkpt lat="41.03391501121223" lon="-8.348644031211734">
        <ele>113.56999999999999</ele>
        <time>2025-05-03T12:45:43Z</time>
      </trkpt>
      <trkpt lat="41.033924985677004" lon="-8.348677977919579">
        <ele>113.56999999999999</ele>
        <time>2025-05-03T12:45:44Z</time>
      </trkpt>
      <trkpt lat="41.03402498178184" lon="-8.349019037559629">
        <ele>115.98</ele>
        <time>2025-05-03T12:45:48Z</time>
      </trkpt>
      <trkpt lat="41.034076027572155" lon="-8.349192962050438">
        <ele>116.94</ele>
        <time>2025-05-03T12:45:50Z</time>
      </trkpt>
      <trkpt lat="41.034102011471987" lon="-8.34928197786212">
        <ele>117.42</ele>
        <time>2025-05-03T12:45:51Z</time>
      </trkpt>
      <trkpt lat="41.034129001200199" lon="-8.349373005330563">
        <ele>118.38</ele>
        <time>2025-05-03T12:45:52Z</time>
      </trkpt>
      <trkpt lat="41.034091031178832" lon="-8.349408963695169">
        <ele>118.86</ele>
        <time>2025-05-03T12:45:53Z</time>
      </trkpt>
      <trkpt lat="41.034047026187181" lon="-8.349449029192329">
        <ele>119.81999999999999</ele>
        <time>2025-05-03T12:45:54Z</time>
      </trkpt>
      <trkpt lat="41.034006960690022" lon="-8.349485993385315">
        <ele>120.3</ele>
        <time>2025-05-03T12:45:55Z</time>
      </trkpt>
      <trkpt lat="41.033973013982177" lon="-8.34951700642705">
        <ele>121.26000000000001</ele>
        <time>2025-05-03T12:45:56Z</time>
      </trkpt>
      <trkpt lat="41.033943006768823" lon="-8.349543996155262">
        <ele>121.73999999999999</ele>
        <time>2025-05-03T12:45:57Z</time>
      </trkpt>
      <trkpt lat="41.033949963748455" lon="-8.349722027778626">
        <ele>121.73999999999999</ele>
        <time>2025-05-03T12:45:58Z</time>
      </trkpt>
      <trkpt lat="41.033987011760473" lon="-8.349788999184966">
        <ele>122.22</ele>
        <time>2025-05-03T12:45:59Z</time>
      </trkpt>
      <trkpt lat="41.034032022580504" lon="-8.349871980026364">
        <ele>123.19</ele>
        <time>2025-05-03T12:46:00Z</time>
      </trkpt>
      <trkpt lat="41.034133024513721" lon="-8.35009602829814">
        <ele>123.19</ele>
        <time>2025-05-03T12:46:02Z</time>
      </trkpt>
      <trkpt lat="41.034184992313385" lon="-8.350229971110821">
        <ele>123.67</ele>
        <time>2025-05-03T12:46:03Z</time>
      </trkpt>
      <trkpt lat="41.034232014790177" lon="-8.350384030491114">
        <ele>123.67</ele>
        <time>2025-05-03T12:46:04Z</time>
      </trkpt>
      <trkpt lat="41.034257998690009" lon="-8.350468017160893">
        <ele>123.67</ele>
        <time>2025-05-03T12:46:05Z</time>
      </trkpt>
      <trkpt lat="41.034361012279987" lon="-8.350693993270397">
        <ele>123.67</ele>
        <time>2025-05-03T12:46:06Z</time>
      </trkpt>
      <trkpt lat="41.034437958151102" lon="-8.350860960781574">
        <ele>123.19</ele>
        <time>2025-05-03T12:46:07Z</time>
      </trkpt>
      <trkpt lat="41.03451800532639" lon="-8.351036980748177">
        <ele>123.19</ele>
        <time>2025-05-03T12:46:08Z</time>
      </trkpt>
      <trkpt lat="41.034600986167789" lon="-8.351219035685062">
        <ele>123.19</ele>
        <time>2025-05-03T12:46:09Z</time>
      </trkpt>
      <trkpt lat="41.034702993929386" lon="-8.351349039003253">
        <ele>122.70999999999999</ele>
        <time>2025-05-03T12:46:10Z</time>
      </trkpt>
      <trkpt lat="41.034815981984138" lon="-8.351492034271359">
        <ele>122.22</ele>
        <time>2025-05-03T12:46:11Z</time>
      </trkpt>
      <trkpt lat="41.03494799695909" lon="-8.351608039811254">
        <ele>121.26000000000001</ele>
        <time>2025-05-03T12:46:12Z</time>
      </trkpt>
      <trkpt lat="41.035625003278255" lon="-8.352221008390188">
        <ele>118.38</ele>
        <time>2025-05-03T12:46:17Z</time>
      </trkpt>
      <trkpt lat="41.035730028524995" lon="-8.352393005043268">
        <ele>117.90000000000001</ele>
        <time>2025-05-03T12:46:18Z</time>
      </trkpt>
      <trkpt lat="41.035836981609464" lon="-8.352571036666632">
        <ele>117.42</ele>
        <time>2025-05-03T12:46:19Z</time>
      </trkpt>
      <trkpt lat="41.036780029535294" lon="-8.354168962687254">
        <ele>108.77</ele>
        <time>2025-05-03T12:46:28Z</time>
      </trkpt>
      <trkpt lat="41.037871018052101" lon="-8.356239041313529">
        <ele>97.230000000000004</ele>
        <time>2025-05-03T12:46:41Z</time>
      </trkpt>
      <trkpt lat="41.03877299465239" lon="-8.358346000313759">
        <ele>90.980000000000004</ele>
        <time>2025-05-03T12:46:54Z</time>
      </trkpt>
      <trkpt lat="41.03900802321732" lon="-8.358826031908393">
        <ele>89.540000000000006</ele>
        <time>2025-05-03T12:46:57Z</time>
      </trkpt>
      <trkpt lat="41.039322009310126" lon="-8.359226016327739">
        <ele>88.099999999999994</ele>
        <time>2025-05-03T12:47:00Z</time>
      </trkpt>
      <trkpt lat="41.039446983486414" lon="-8.359330035746098">
        <ele>87.620000000000005</ele>
        <time>2025-05-03T12:47:01Z</time>
      </trkpt>
      <trkpt lat="41.040373016148806" lon="-8.360222037881613">
        <ele>82.329999999999998</ele>
        <time>2025-05-03T12:47:10Z</time>
      </trkpt>
      <trkpt lat="41.041024038568139" lon="-8.361116973683238">
        <ele>78</ele>
        <time>2025-05-03T12:47:18Z</time>
      </trkpt>
      <trkpt lat="41.041682017967105" lon="-8.361839996650815">
        <ele>75.599999999999994</ele>
        <time>2025-05-03T12:47:25Z</time>
      </trkpt>
      <trkpt lat="41.041776984930038" lon="-8.361913003027439">
        <ele>75.120000000000005</ele>
        <time>2025-05-03T12:47:26Z</time>
      </trkpt>
      <trkpt lat="41.041960967704654" lon="-8.362054992467165">
        <ele>74.640000000000001</ele>
        <time>2025-05-03T12:47:28Z</time>
      </trkpt>
      <trkpt lat="41.042039003223181" lon="-8.362098997458816">
        <ele>74.159999999999997</ele>
        <time>2025-05-03T12:47:29Z</time>
      </trkpt>
      <trkpt lat="41.042267996817827" lon="-8.362082988023758">
        <ele>73.680000000000007</ele>
        <time>2025-05-03T12:47:31Z</time>
      </trkpt>
      <trkpt lat="41.042310995981097" lon="-8.362247021868825">
        <ele>73.200000000000003</ele>
        <time>2025-05-03T12:47:32Z</time>
      </trkpt>
      <trkpt lat="41.043125968426466" lon="-8.362926039844751">
        <ele>70.790000000000006</ele>
        <time>2025-05-03T12:47:39Z</time>
      </trkpt>
      <trkpt lat="41.043394021689892" lon="-8.363210018724203">
        <ele>69.829999999999998</ele>
        <time>2025-05-03T12:47:41Z</time>
      </trkpt>
      <trkpt lat="41.043511033058167" lon="-8.363375980407">
        <ele>68.870000000000005</ele>
        <time>2025-05-03T12:47:42Z</time>
      </trkpt>
      <trkpt lat="41.043621003627777" lon="-8.363553006201983">
        <ele>67.909999999999997</ele>
        <time>2025-05-03T12:47:43Z</time>
      </trkpt>
      <trkpt lat="41.043955022469163" lon="-8.364087017253041">
        <ele>65.030000000000001</ele>
        <time>2025-05-03T12:47:46Z</time>
      </trkpt>
      <trkpt lat="41.044068010523915" lon="-8.364266976714134">
        <ele>64.069999999999993</ele>
        <time>2025-05-03T12:47:47Z</time>
      </trkpt>
      <trkpt lat="41.044470006600022" lon="-8.364708032459021">
        <ele>60.700000000000003</ele>
        <time>2025-05-03T12:47:50Z</time>
      </trkpt>
      <trkpt lat="41.045825025066733" lon="-8.366043018177152">
        <ele>52.049999999999997</ele>
        <time>2025-05-03T12:48:00Z</time>
      </trkpt>
      <trkpt lat="41.046241018921137" lon="-8.366450965404511">
        <ele>50.130000000000003</ele>
        <time>2025-05-03T12:48:03Z</time>
      </trkpt>
      <trkpt lat="41.047305017709732" lon="-8.3674790058285">
        <ele>43.399999999999999</ele>
        <time>2025-05-03T12:48:10Z</time>
      </trkpt>
      <trkpt lat="41.047467961907387" lon="-8.367635998874903">
        <ele>42.439999999999998</ele>
        <time>2025-05-03T12:48:11Z</time>
      </trkpt>
      <trkpt lat="41.047631995752454" lon="-8.367793997749686">
        <ele>41.469999999999999</ele>
        <time>2025-05-03T12:48:12Z</time>
      </trkpt>
      <trkpt lat="41.04878400452435" lon="-8.36926301009953">
        <ele>35.710000000000001</ele>
        <time>2025-05-03T12:48:20Z</time>
      </trkpt>
      <trkpt lat="41.049220031127334" lon="-8.370563965290785">
        <ele>31.379999999999999</ele>
        <time>2025-05-03T12:48:26Z</time>
      </trkpt>
      <trkpt lat="41.049266969785094" lon="-8.37115396745503">
        <ele>30.420000000000002</ele>
        <time>2025-05-03T12:48:29Z</time>
      </trkpt>
      <trkpt lat="41.049274010583758" lon="-8.371333004906774">
        <ele>30.420000000000002</ele>
        <time>2025-05-03T12:48:30Z</time>
      </trkpt>
      <trkpt lat="41.049210978671908" lon="-8.371949996799231">
        <ele>30.420000000000002</ele>
        <time>2025-05-03T12:48:35Z</time>
      </trkpt>
      <trkpt lat="41.049204021692276" lon="-8.372006993740797">
        <ele>30.899999999999999</ele>
        <time>2025-05-03T12:48:36Z</time>
      </trkpt>
      <trkpt lat="41.049197986721992" lon="-8.372056027874351">
        <ele>30.899999999999999</ele>
        <time>2025-05-03T12:48:37Z</time>
      </trkpt>
      <trkpt lat="41.049193041399121" lon="-8.372089974582195">
        <ele>30.899999999999999</ele>
        <time>2025-05-03T12:48:38Z</time>
      </trkpt>
      <trkpt lat="41.049189018085599" lon="-8.372119981795549">
        <ele>31.379999999999999</ele>
        <time>2025-05-03T12:48:39Z</time>
      </trkpt>
      <trkpt lat="41.049184994772077" lon="-8.372143032029271">
        <ele>31.379999999999999</ele>
        <time>2025-05-03T12:48:40Z</time>
      </trkpt>
      <trkpt lat="41.049181977286935" lon="-8.372159041464329">
        <ele>31.379999999999999</ele>
        <time>2025-05-03T12:48:41Z</time>
      </trkpt>
      <trkpt lat="41.049173008650541" lon="-8.372214026749134">
        <ele>30.899999999999999</ele>
        <time>2025-05-03T12:48:43Z</time>
      </trkpt>
      <trkpt lat="41.049163034185767" lon="-8.372274041175842">
        <ele>30.899999999999999</ele>
        <time>2025-05-03T12:48:44Z</time>
      </trkpt>
      <trkpt lat="41.04910503141582" lon="-8.372557014226914">
        <ele>31.379999999999999</ele>
        <time>2025-05-03T12:48:47Z</time>
      </trkpt>
      <trkpt lat="41.049071000888944" lon="-8.372668996453285">
        <ele>31.379999999999999</ele>
        <time>2025-05-03T12:48:48Z</time>
      </trkpt>
      <trkpt lat="41.049035964533687" lon="-8.372780978679657">
        <ele>30.899999999999999</ele>
        <time>2025-05-03T12:48:49Z</time>
      </trkpt>
      <trkpt lat="41.048702029511333" lon="-8.373823016881943">
        <ele>31.379999999999999</ele>
        <time>2025-05-03T12:48:57Z</time>
      </trkpt>
      <trkpt lat="41.048250999301672" lon="-8.375322036445141">
        <ele>29.460000000000001</ele>
        <time>2025-05-03T12:49:07Z</time>
      </trkpt>
      <trkpt lat="41.048213029280305" lon="-8.375466959550977">
        <ele>28.98</ele>
        <time>2025-05-03T12:49:08Z</time>
      </trkpt>
      <trkpt lat="41.048174975439906" lon="-8.375613978132606">
        <ele>28.5</ele>
        <time>2025-05-03T12:49:09Z</time>
      </trkpt>
      <trkpt lat="41.047866018489003" lon="-8.377158008515835">
        <ele>27.050000000000001</ele>
        <time>2025-05-03T12:49:19Z</time>
      </trkpt>
      <trkpt lat="41.047553960233927" lon="-8.378708995878696">
        <ele>28.02</ele>
        <time>2025-05-03T12:49:29Z</time>
      </trkpt>
      <trkpt lat="41.04728196747601" lon="-8.380596013739705">
        <ele>30.899999999999999</ele>
        <time>2025-05-03T12:49:41Z</time>
      </trkpt>
      <trkpt lat="41.047269981354475" lon="-8.381066992878914">
        <ele>29.940000000000001</ele>
        <time>2025-05-03T12:49:44Z</time>
      </trkpt>
      <trkpt lat="41.047374000772834" lon="-8.382020015269518">
        <ele>31.379999999999999</ele>
        <time>2025-05-03T12:49:50Z</time>
      </trkpt>
      <trkpt lat="41.047640964388847" lon="-8.383747022598982">
        <ele>37.630000000000003</ele>
        <time>2025-05-03T12:50:01Z</time>
      </trkpt>
      <trkpt lat="41.047441978007555" lon="-8.385142022743821">
        <ele>46.759999999999998</ele>
        <time>2025-05-03T12:50:10Z</time>
      </trkpt>
      <trkpt lat="41.047368971630931" lon="-8.385616019368172">
        <ele>49.159999999999997</ele>
        <time>2025-05-03T12:50:13Z</time>
      </trkpt>
      <trkpt lat="41.047381041571498" lon="-8.385782986879349">
        <ele>50.130000000000003</ele>
        <time>2025-05-03T12:50:14Z</time>
      </trkpt>
      <trkpt lat="41.047406019642949" lon="-8.385938974097371">
        <ele>51.090000000000003</ele>
        <time>2025-05-03T12:50:15Z</time>
      </trkpt>
      <trkpt lat="41.047433009371161" lon="-8.38610895909369">
        <ele>51.57</ele>
        <time>2025-05-03T12:50:16Z</time>
      </trkpt>
      <trkpt lat="41.047479026019573" lon="-8.386273998767138">
        <ele>52.530000000000001</ele>
        <time>2025-05-03T12:50:17Z</time>
      </trkpt>
      <trkpt lat="41.047925027087331" lon="-8.388036964461207">
        <ele>63.100000000000001</ele>
        <time>2025-05-03T12:50:26Z</time>
      </trkpt>
      <trkpt lat="41.047976994886994" lon="-8.389297015964985">
        <ele>71.760000000000005</ele>
        <time>2025-05-03T12:50:31Z</time>
      </trkpt>
      <trkpt lat="41.047930978238583" lon="-8.389556016772986">
        <ele>73.680000000000007</ele>
        <time>2025-05-03T12:50:32Z</time>
      </trkpt>
      <trkpt lat="41.047884039580822" lon="-8.389820968732238">
        <ele>75.599999999999994</ele>
        <time>2025-05-03T12:50:33Z</time>
      </trkpt>
      <trkpt lat="41.047714976593852" lon="-8.390277028083801">
        <ele>78.969999999999999</ele>
        <time>2025-05-03T12:50:35Z</time>
      </trkpt>
      <trkpt lat="41.047626966610551" lon="-8.390484983101487">
        <ele>80.409999999999997</ele>
        <time>2025-05-03T12:50:36Z</time>
      </trkpt>
      <trkpt lat="41.046386025846004" lon="-8.392708031460643">
        <ele>101.08</ele>
        <time>2025-05-03T12:50:48Z</time>
      </trkpt>
      <trkpt lat="41.046302039176226" lon="-8.392915986478329">
        <ele>102.52</ele>
        <time>2025-05-03T12:50:49Z</time>
      </trkpt>
      <trkpt lat="41.046218974515796" lon="-8.393125031143427">
        <ele>103.95999999999999</ele>
        <time>2025-05-03T12:50:50Z</time>
      </trkpt>
      <trkpt lat="41.046149991452694" lon="-8.393342960625887">
        <ele>105.40000000000001</ele>
        <time>2025-05-03T12:50:51Z</time>
      </trkpt>
      <trkpt lat="41.046105986461043" lon="-8.393581006675959">
        <ele>107.31999999999999</ele>
        <time>2025-05-03T12:50:52Z</time>
      </trkpt>
      <trkpt lat="41.046060975641012" lon="-8.393818968906999">
        <ele>108.77</ele>
        <time>2025-05-03T12:50:53Z</time>
      </trkpt>
      <trkpt lat="41.045858971774578" lon="-8.394712982699275">
        <ele>115.01000000000001</ele>
        <time>2025-05-03T12:50:57Z</time>
      </trkpt>
      <trkpt lat="41.045795017853379" lon="-8.394924961030483">
        <ele>116.45999999999999</ele>
        <time>2025-05-03T12:50:58Z</time>
      </trkpt>
      <trkpt lat="41.045683035627007" lon="-8.395093018189073">
        <ele>117.90000000000001</ele>
        <time>2025-05-03T12:50:59Z</time>
      </trkpt>
      <trkpt lat="41.045554038137197" lon="-8.395254034548998">
        <ele>118.86</ele>
        <time>2025-05-03T12:51:00Z</time>
      </trkpt>
      <trkpt lat="41.045425962656736" lon="-8.395407004281879">
        <ele>120.3</ele>
        <time>2025-05-03T12:51:01Z</time>
      </trkpt>
      <trkpt lat="41.045263018459082" lon="-8.395501971244812">
        <ele>121.73999999999999</ele>
        <time>2025-05-03T12:51:02Z</time>
      </trkpt>
      <trkpt lat="41.045095967128873" lon="-8.395589981228113">
        <ele>122.70999999999999</ele>
        <time>2025-05-03T12:51:03Z</time>
      </trkpt>
      <trkpt lat="41.044921036809683" lon="-8.395672040060163">
        <ele>123.19</ele>
        <time>2025-05-03T12:51:04Z</time>
      </trkpt>
      <trkpt lat="41.044749962165952" lon="-8.395750997588038">
        <ele>123.67</ele>
        <time>2025-05-03T12:51:05Z</time>
      </trkpt>
      <trkpt lat="41.042215023189783" lon="-8.396739978343248">
        <ele>130.88</ele>
        <time>2025-05-03T12:51:19Z</time>
      </trkpt>
      <trkpt lat="41.041834987699986" lon="-8.396787000820041">
        <ele>131.84</ele>
        <time>2025-05-03T12:51:21Z</time>
      </trkpt>
      <trkpt lat="41.041641030460596" lon="-8.396777026355267">
        <ele>132.31999999999999</ele>
        <time>2025-05-03T12:51:22Z</time>
      </trkpt>
      <trkpt lat="41.04145796969533" lon="-8.396736960858107">
        <ele>132.31999999999999</ele>
        <time>2025-05-03T12:51:23Z</time>
      </trkpt>
      <trkpt lat="41.041275998577476" lon="-8.396675018593669">
        <ele>132.80000000000001</ele>
        <time>2025-05-03T12:51:24Z</time>
      </trkpt>
      <trkpt lat="41.041100984439254" lon="-8.396563958376646">
        <ele>133.28</ele>
        <time>2025-05-03T12:51:25Z</time>
      </trkpt>
      <trkpt lat="41.040923036634922" lon="-8.396451976150274">
        <ele>133.75999999999999</ele>
        <time>2025-05-03T12:51:26Z</time>
      </trkpt>
      <trkpt lat="41.040766965597868" lon="-8.396308980882168">
        <ele>133.75999999999999</ele>
        <time>2025-05-03T12:51:27Z</time>
      </trkpt>
      <trkpt lat="41.040608966723084" lon="-8.396150982007384">
        <ele>134.24000000000001</ele>
        <time>2025-05-03T12:51:28Z</time>
      </trkpt>
      <trkpt lat="41.040476029738784" lon="-8.395972028374672">
        <ele>134.24000000000001</ele>
        <time>2025-05-03T12:51:29Z</time>
      </trkpt>
      <trkpt lat="41.04033999145031" lon="-8.395779998973012">
        <ele>134.72</ele>
        <time>2025-05-03T12:51:30Z</time>
      </trkpt>
      <trkpt lat="41.040204036980867" lon="-8.395588975399733">
        <ele>135.19999999999999</ele>
        <time>2025-05-03T12:51:31Z</time>
      </trkpt>
      <trkpt lat="41.03948000818491" lon="-8.394710971042514">
        <ele>138.09</ele>
        <time>2025-05-03T12:51:36Z</time>
      </trkpt>
      <trkpt lat="41.039312034845352" lon="-8.394588008522987">
        <ele>138.56999999999999</ele>
        <time>2025-05-03T12:51:37Z</time>
      </trkpt>
      <trkpt lat="41.039130985736847" lon="-8.394539980217814">
        <ele>139.53</ele>
        <time>2025-05-03T12:51:38Z</time>
      </trkpt>
      <trkpt lat="41.038948008790612" lon="-8.394510978832841">
        <ele>140.49000000000001</ele>
        <time>2025-05-03T12:51:39Z</time>
      </trkpt>
      <trkpt lat="41.03877299465239" lon="-8.394524976611137">
        <ele>141.44999999999999</ele>
        <time>2025-05-03T12:51:40Z</time>
      </trkpt>
      <trkpt lat="41.038594963029027" lon="-8.39457300491631">
        <ele>142.41</ele>
        <time>2025-05-03T12:51:41Z</time>
      </trkpt>
      <trkpt lat="41.038438975811005" lon="-8.394676018506289">
        <ele>143.37</ele>
        <time>2025-05-03T12:51:42Z</time>
      </trkpt>
      <trkpt lat="41.038281982764602" lon="-8.394805015996099">
        <ele>144.34</ele>
        <time>2025-05-03T12:51:43Z</time>
      </trkpt>
      <trkpt lat="41.038138987496495" lon="-8.394953040406108">
        <ele>145.78</ele>
        <time>2025-05-03T12:51:44Z</time>
      </trkpt>
      <trkpt lat="41.038009990006685" lon="-8.395141968503594">
        <ele>147.69999999999999</ele>
        <time>2025-05-03T12:51:45Z</time>
      </trkpt>
      <trkpt lat="41.037878980860114" lon="-8.395336009562016">
        <ele>149.13999999999999</ele>
        <time>2025-05-03T12:51:46Z</time>
      </trkpt>
      <trkpt lat="41.037101978436112" lon="-8.39641802944243">
        <ele>157.78999999999999</ele>
        <time>2025-05-03T12:51:52Z</time>
      </trkpt>
      <trkpt lat="41.036954959854484" lon="-8.396553983911872">
        <ele>158.75</ele>
        <time>2025-05-03T12:51:53Z</time>
      </trkpt>
      <trkpt lat="41.036798972636461" lon="-8.396648028865457">
        <ele>159.72</ele>
        <time>2025-05-03T12:51:54Z</time>
      </trkpt>
      <trkpt lat="41.036639967933297" lon="-8.396740984171629">
        <ele>160.68000000000001</ele>
        <time>2025-05-03T12:51:55Z</time>
      </trkpt>
      <trkpt lat="41.03647199459374" lon="-8.396822037175298">
        <ele>161.63999999999999</ele>
        <time>2025-05-03T12:51:56Z</time>
      </trkpt>
      <trkpt lat="41.035244967788458" lon="-8.397138034924865">
        <ele>166.44999999999999</ele>
        <time>2025-05-03T12:52:04Z</time>
      </trkpt>
      <trkpt lat="41.035084035247564" lon="-8.397030998021364">
        <ele>166.44999999999999</ele>
        <time>2025-05-03T12:52:06Z</time>
      </trkpt>
      <trkpt lat="41.035052016377449" lon="-8.397009037435055">
        <ele>166.44999999999999</ele>
        <time>2025-05-03T12:52:07Z</time>
      </trkpt>
      <trkpt lat="41.035024020820856" lon="-8.396949023008347">
        <ele>166.93000000000001</ele>
        <time>2025-05-03T12:52:08Z</time>
      </trkpt>
      <trkpt lat="41.034944979473948" lon="-8.396773003041744">
        <ele>166.93000000000001</ele>
        <time>2025-05-03T12:52:09Z</time>
      </trkpt>
      <trkpt lat="41.034942967817187" lon="-8.39676202274859">
        <ele>166.93000000000001</ele>
        <time>2025-05-03T12:52:10Z</time>
      </trkpt>
      <trkpt lat="41.034922013059258" lon="-8.396616009995341">
        <ele>166.93000000000001</ele>
        <time>2025-05-03T12:52:11Z</time>
      </trkpt>
      <trkpt lat="41.03481899946928" lon="-8.395881000906229">
        <ele>168.37</ele>
        <time>2025-05-03T12:52:16Z</time>
      </trkpt>
      <trkpt lat="41.034803995862603" lon="-8.395772958174348">
        <ele>168.84999999999999</ele>
        <time>2025-05-03T12:52:17Z</time>
      </trkpt>
      <trkpt lat="41.034791003912687" lon="-8.395675979554653">
        <ele>169.33000000000001</ele>
        <time>2025-05-03T12:52:18Z</time>
      </trkpt>
      <trkpt lat="41.034779017791152" lon="-8.395592998713255">
        <ele>169.81</ele>
        <time>2025-05-03T12:52:19Z</time>
      </trkpt>
      <trkpt lat="41.034592017531395" lon="-8.395600039511919">
        <ele>170.28999999999999</ele>
        <time>2025-05-03T12:52:20Z</time>
      </trkpt>
      <trkpt lat="41.03453703224659" lon="-8.395614959299564">
        <ele>170.28999999999999</ele>
        <time>2025-05-03T12:52:21Z</time>
      </trkpt>
      <trkpt lat="41.034469977021217" lon="-8.395652007311583">
        <ele>170.28999999999999</ele>
        <time>2025-05-03T12:52:22Z</time>
      </trkpt>
      <trkpt lat="41.0343880020082" lon="-8.395697018131614">
        <ele>170.28999999999999</ele>
        <time>2025-05-03T12:52:23Z</time>
      </trkpt>
      <trkpt lat="41.034311978146434" lon="-8.395768012851477">
        <ele>170.28999999999999</ele>
        <time>2025-05-03T12:52:24Z</time>
      </trkpt>
      <trkpt lat="41.034234026446939" lon="-8.39588200673461">
        <ele>170.77000000000001</ele>
        <time>2025-05-03T12:52:25Z</time>
      </trkpt>
      <trkpt lat="41.03415003977716" lon="-8.396005975082517">
        <ele>171.25</ele>
        <time>2025-05-03T12:52:26Z</time>
      </trkpt>
      <trkpt lat="41.034061023965478" lon="-8.396135978400707">
        <ele>171.25</ele>
        <time>2025-05-03T12:52:27Z</time>
      </trkpt>
      <trkpt lat="41.033973013982177" lon="-8.396285008639097">
        <ele>172.21000000000001</ele>
        <time>2025-05-03T12:52:28Z</time>
      </trkpt>
      <trkpt lat="41.033879974856973" lon="-8.396444013342261">
        <ele>172.21000000000001</ele>
        <time>2025-05-03T12:52:29Z</time>
      </trkpt>
      <trkpt lat="41.033788025379181" lon="-8.396601006388664">
        <ele>172.69</ele>
        <time>2025-05-03T12:52:30Z</time>
      </trkpt>
      <trkpt lat="41.033609993755817" lon="-8.396907029673457">
        <ele>172.69</ele>
        <time>2025-05-03T12:52:32Z</time>
      </trkpt>
      <trkpt lat="41.033504968509078" lon="-8.397037032991648">
        <ele>172.69</ele>
        <time>2025-05-03T12:52:33Z</time>
      </trkpt>
      <trkpt lat="41.033382005989552" lon="-8.397112973034382">
        <ele>172.69</ele>
        <time>2025-05-03T12:52:34Z</time>
      </trkpt>
      <trkpt lat="41.033258959650993" lon="-8.397184973582625">
        <ele>172.69</ele>
        <time>2025-05-03T12:52:35Z</time>
      </trkpt>
      <trkpt lat="41.03312099352479" lon="-8.39721498079598">
        <ele>172.69</ele>
        <time>2025-05-03T12:52:36Z</time>
      </trkpt>
      <trkpt lat="41.032980009913445" lon="-8.39723501354456">
        <ele>172.69</ele>
        <time>2025-05-03T12:52:37Z</time>
      </trkpt>
      <trkpt lat="41.031923973932862" lon="-8.397233001887798">
        <ele>171.25</ele>
        <time>2025-05-03T12:52:44Z</time>
      </trkpt>
      <trkpt lat="41.031792964786291" lon="-8.397183967754245">
        <ele>170.28999999999999</ele>
        <time>2025-05-03T12:52:45Z</time>
      </trkpt>
      <trkpt lat="41.0316819883883" lon="-8.397072991356254">
        <ele>169.33000000000001</ele>
        <time>2025-05-03T12:52:46Z</time>
      </trkpt>
      <trkpt lat="41.031443020328879" lon="-8.396886996924877">
        <ele>167.41</ele>
        <time>2025-05-03T12:52:48Z</time>
      </trkpt>
      <trkpt lat="41.031325003132224" lon="-8.396843997761607">
        <ele>166.44999999999999</ele>
        <time>2025-05-03T12:52:49Z</time>
      </trkpt>
      <trkpt lat="41.031190976500511" lon="-8.396868975833058">
        <ele>165.47999999999999</ele>
        <time>2025-05-03T12:52:50Z</time>
      </trkpt>
      <trkpt lat="41.031066002324224" lon="-8.396923961117864">
        <ele>165</ele>
        <time>2025-05-03T12:52:51Z</time>
      </trkpt>
      <trkpt lat="41.03093096986413" lon="-8.397023035213351">
        <ele>164.03999999999999</ele>
        <time>2025-05-03T12:52:52Z</time>
      </trkpt>
      <trkpt lat="41.030785962939262" lon="-8.397126970812678">
        <ele>163.08000000000001</ele>
        <time>2025-05-03T12:52:53Z</time>
      </trkpt>
      <trkpt lat="41.030640034005046" lon="-8.39721498079598">
        <ele>162.59999999999999</ele>
        <time>2025-05-03T12:52:54Z</time>
      </trkpt>
      <trkpt lat="41.030489997938275" lon="-8.397303996607661">
        <ele>161.63999999999999</ele>
        <time>2025-05-03T12:52:55Z</time>
      </trkpt>
      <trkpt lat="41.030318001285195" lon="-8.39734498411417">
        <ele>160.19999999999999</ele>
        <time>2025-05-03T12:52:56Z</time>
      </trkpt>
      <trkpt lat="41.030148016288877" lon="-8.397381026297808">
        <ele>159.24000000000001</ele>
        <time>2025-05-03T12:52:57Z</time>
      </trkpt>
      <trkpt lat="41.02946899831295" lon="-8.397523015737534">
        <ele>153.47</ele>
        <time>2025-05-03T12:53:01Z</time>
      </trkpt>
      <trkpt lat="41.029320973902941" lon="-8.39747398160398">
        <ele>152.50999999999999</ele>
        <time>2025-05-03T12:53:02Z</time>
      </trkpt>
      <trkpt lat="41.029177978634834" lon="-8.397399969398975">
        <ele>151.06</ele>
        <time>2025-05-03T12:53:03Z</time>
      </trkpt>
      <trkpt lat="41.028420003131032" lon="-8.396952040493488">
        <ele>145.30000000000001</ele>
        <time>2025-05-03T12:53:08Z</time>
      </trkpt>
      <trkpt lat="41.028271978721023" lon="-8.396902000531554">
        <ele>144.81999999999999</ele>
        <time>2025-05-03T12:53:09Z</time>
      </trkpt>
      <trkpt lat="41.028111968189478" lon="-8.396902000531554">
        <ele>143.84999999999999</ele>
        <time>2025-05-03T12:53:10Z</time>
      </trkpt>
      <trkpt lat="41.027960004284978" lon="-8.396967966109514">
        <ele>142.88999999999999</ele>
        <time>2025-05-03T12:53:11Z</time>
      </trkpt>
      <trkpt lat="41.027833018451929" lon="-8.397082965821028">
        <ele>141.93000000000001</ele>
        <time>2025-05-03T12:53:12Z</time>
      </trkpt>
      <trkpt lat="41.027731010690331" lon="-8.397233001887798">
        <ele>141.44999999999999</ele>
        <time>2025-05-03T12:53:13Z</time>
      </trkpt>
      <trkpt lat="41.02766303345561" lon="-8.39740801602602">
        <ele>140.97</ele>
        <time>2025-05-03T12:53:14Z</time>
      </trkpt>
      <trkpt lat="41.027595978230238" lon="-8.397581018507481">
        <ele>140.97</ele>
        <time>2025-05-03T12:53:15Z</time>
      </trkpt>
      <trkpt lat="41.027594972401857" lon="-8.397804982960224">
        <ele>140.97</ele>
        <time>2025-05-03T12:53:16Z</time>
      </trkpt>
      <trkpt lat="41.027617016807199" lon="-8.398020984604955">
        <ele>140.97</ele>
        <time>2025-05-03T12:53:17Z</time>
      </trkpt>
      <trkpt lat="41.027693040668964" lon="-8.398194992914796">
        <ele>140.97</ele>
        <time>2025-05-03T12:53:18Z</time>
      </trkpt>
      <trkpt lat="41.027797982096672" lon="-8.398373024538159">
        <ele>141.44999999999999</ele>
        <time>2025-05-03T12:53:19Z</time>
      </trkpt>
      <trkpt lat="41.027927985414863" lon="-8.398476960137487">
        <ele>142.41</ele>
        <time>2025-05-03T12:53:20Z</time>
      </trkpt>
      <trkpt lat="41.028078021481633" lon="-8.398596988990903">
        <ele>142.88999999999999</ele>
        <time>2025-05-03T12:53:21Z</time>
      </trkpt>
      <trkpt lat="41.028225040063262" lon="-8.39863495901227">
        <ele>143.37</ele>
        <time>2025-05-03T12:53:22Z</time>
      </trkpt>
      <trkpt lat="41.028379015624523" lon="-8.398676030337811">
        <ele>143.84999999999999</ele>
        <time>2025-05-03T12:53:23Z</time>
      </trkpt>
      <trkpt lat="41.028535002842546" lon="-8.398717017844319">
        <ele>144.81999999999999</ele>
        <time>2025-05-03T12:53:24Z</time>
      </trkpt>
      <trkpt lat="41.028677998110652" lon="-8.398817013949156">
        <ele>145.30000000000001</ele>
        <time>2025-05-03T12:53:25Z</time>
      </trkpt>
      <trkpt lat="41.02910497225821" lon="-8.399181040003896">
        <ele>147.22</ele>
        <time>2025-05-03T12:53:28Z</time>
      </trkpt>
      <trkpt lat="41.02923296391964" lon="-8.399347001686692">
        <ele>147.69999999999999</ele>
        <time>2025-05-03T12:53:29Z</time>
      </trkpt>
      <trkpt lat="41.029335977509618" lon="-8.399509023874998">
        <ele>147.69999999999999</ele>
        <time>2025-05-03T12:53:30Z</time>
      </trkpt>
      <trkpt lat="41.029433961957693" lon="-8.399661993607879">
        <ele>148.66</ele>
        <time>2025-05-03T12:53:31Z</time>
      </trkpt>
      <trkpt lat="41.029525995254517" lon="-8.39977003633976">
        <ele>149.13999999999999</ele>
        <time>2025-05-03T12:53:32Z</time>
      </trkpt>
      <trkpt lat="41.029652981087565" lon="-8.399822004139423">
        <ele>149.62</ele>
        <time>2025-05-03T12:53:33Z</time>
      </trkpt>
      <trkpt lat="41.029793964698911" lon="-8.399849999696016">
        <ele>150.09999999999999</ele>
        <time>2025-05-03T12:53:34Z</time>
      </trkpt>
      <trkpt lat="41.029936959967017" lon="-8.39987900108099">
        <ele>150.58000000000001</ele>
        <time>2025-05-03T12:53:35Z</time>
      </trkpt>
      <trkpt lat="41.030080961063504" lon="-8.399913031607866">
        <ele>151.06</ele>
        <time>2025-05-03T12:53:36Z</time>
      </trkpt>
      <trkpt lat="41.030186992138624" lon="-8.400018978863955">
        <ele>151.53999999999999</ele>
        <time>2025-05-03T12:53:37Z</time>
      </trkpt>
      <trkpt lat="41.030310038477182" lon="-8.400144036859274">
        <ele>152.03</ele>
        <time>2025-05-03T12:53:38Z</time>
      </trkpt>
      <trkpt lat="41.030376004055142" lon="-8.400320978835225">
        <ele>152.50999999999999</ele>
        <time>2025-05-03T12:53:39Z</time>
      </trkpt>
      <trkpt lat="41.030449010431767" lon="-8.400515019893646">
        <ele>153.47</ele>
        <time>2025-05-03T12:53:40Z</time>
      </trkpt>
      <trkpt lat="41.030785962939262" lon="-8.401428982615471">
        <ele>158.75</ele>
        <time>2025-05-03T12:53:45Z</time>
      </trkpt>
      <trkpt lat="41.030818987637758" lon="-8.401582036167383">
        <ele>160.19999999999999</ele>
        <time>2025-05-03T12:53:46Z</time>
      </trkpt>
      <trkpt lat="41.030845977365971" lon="-8.401737017557025">
        <ele>161.63999999999999</ele>
        <time>2025-05-03T12:53:47Z</time>
      </trkpt>
      <trkpt lat="41.030903980135918" lon="-8.402345962822437">
        <ele>164.52000000000001</ele>
        <time>2025-05-03T12:53:51Z</time>
      </trkpt>
      <trkpt lat="41.030967012047768" lon="-8.402450988069177">
        <ele>165.47999999999999</ele>
        <time>2025-05-03T12:53:52Z</time>
      </trkpt>
      <trkpt lat="41.031045969575644" lon="-8.402560958638787">
        <ele>165.96000000000001</ele>
        <time>2025-05-03T12:53:53Z</time>
      </trkpt>
      <trkpt lat="41.031140014529228" lon="-8.402652991935611">
        <ele>166.44999999999999</ele>
        <time>2025-05-03T12:53:54Z</time>
      </trkpt>
      <trkpt lat="41.031245039775968" lon="-8.402732033282518">
        <ele>167.41</ele>
        <time>2025-05-03T12:53:55Z</time>
      </trkpt>
      <trkpt lat="41.031355010345578" lon="-8.402833035215735">
        <ele>167.88999999999999</ele>
        <time>2025-05-03T12:53:56Z</time>
      </trkpt>
      <trkpt lat="41.031420975923538" lon="-8.402955997735262">
        <ele>168.37</ele>
        <time>2025-05-03T12:53:57Z</time>
      </trkpt>
      <trkpt lat="41.031485013663769" lon="-8.403076026588678">
        <ele>168.84999999999999</ele>
        <time>2025-05-03T12:53:58Z</time>
      </trkpt>
      <trkpt lat="41.031510997563601" lon="-8.403239976614714">
        <ele>169.33000000000001</ele>
        <time>2025-05-03T12:53:59Z</time>
      </trkpt>
      <trkpt lat="41.031510997563601" lon="-8.403385989367962">
        <ele>169.81</ele>
        <time>2025-05-03T12:54:00Z</time>
      </trkpt>
      <trkpt lat="41.031490964815021" lon="-8.403539964929223">
        <ele>170.77000000000001</ele>
        <time>2025-05-03T12:54:01Z</time>
      </trkpt>
      <trkpt lat="41.031436985358596" lon="-8.403674997389317">
        <ele>172.21000000000001</ele>
        <time>2025-05-03T12:54:02Z</time>
      </trkpt>
      <trkpt lat="41.031383005902171" lon="-8.40380902402103">
        <ele>173.66</ele>
        <time>2025-05-03T12:54:03Z</time>
      </trkpt>
      <trkpt lat="41.031335983425379" lon="-8.403956964612007">
        <ele>174.62</ele>
        <time>2025-05-03T12:54:04Z</time>
      </trkpt>
      <trkpt lat="41.031323997303843" lon="-8.404112029820681">
        <ele>176.06</ele>
        <time>2025-05-03T12:54:05Z</time>
      </trkpt>
      <trkpt lat="41.031342018395662" lon="-8.404275979846716">
        <ele>177.02000000000001</ele>
        <time>2025-05-03T12:54:06Z</time>
      </trkpt>
      <trkpt lat="41.031379988417029" lon="-8.404435990378261">
        <ele>178.46000000000001</ele>
        <time>2025-05-03T12:54:07Z</time>
      </trkpt>
      <trkpt lat="41.031417958438396" lon="-8.404597006738186">
        <ele>179.41999999999999</ele>
        <time>2025-05-03T12:54:08Z</time>
      </trkpt>
      <trkpt lat="41.031456012278795" lon="-8.404753999784589">
        <ele>180.87</ele>
        <time>2025-05-03T12:54:09Z</time>
      </trkpt>
      <trkpt lat="41.031491970643401" lon="-8.404906969517469">
        <ele>181.83000000000001</ele>
        <time>2025-05-03T12:54:10Z</time>
      </trkpt>
      <trkpt lat="41.031528012827039" lon="-8.40505700558424">
        <ele>182.78999999999999</ele>
        <time>2025-05-03T12:54:11Z</time>
      </trkpt>
      <trkpt lat="41.031558020040393" lon="-8.405204024165869">
        <ele>183.75</ele>
        <time>2025-05-03T12:54:12Z</time>
      </trkpt>
      <trkpt lat="41.031608982011676" lon="-8.405350036919117">
        <ele>184.71000000000001</ele>
        <time>2025-05-03T12:54:13Z</time>
      </trkpt>
      <trkpt lat="41.0316819883883" lon="-8.405475011095405">
        <ele>186.15000000000001</ele>
        <time>2025-05-03T12:54:14Z</time>
      </trkpt>
      <trkpt lat="41.031782990321517" lon="-8.405587999150157">
        <ele>186.63</ele>
        <time>2025-05-03T12:54:15Z</time>
      </trkpt>
      <trkpt lat="41.031895978376269" lon="-8.405663017183542">
        <ele>188.08000000000001</ele>
        <time>2025-05-03T12:54:16Z</time>
      </trkpt>
      <trkpt lat="41.032007038593292" lon="-8.405737029388547">
        <ele>189.03999999999999</ele>
        <time>2025-05-03T12:54:17Z</time>
      </trkpt>
      <trkpt lat="41.03211298584938" lon="-8.40580802410841">
        <ele>190</ele>
        <time>2025-05-03T12:54:18Z</time>
      </trkpt>
      <trkpt lat="41.032220022752881" lon="-8.405879018828273">
        <ele>190.96000000000001</ele>
        <time>2025-05-03T12:54:19Z</time>
      </trkpt>
      <trkpt lat="41.03230501525104" lon="-8.405981026589871">
        <ele>191.91999999999999</ele>
        <time>2025-05-03T12:54:20Z</time>
      </trkpt>
      <trkpt lat="41.0323900077492" lon="-8.406097032129765">
        <ele>192.88</ele>
        <time>2025-05-03T12:54:21Z</time>
      </trkpt>
      <trkpt lat="41.032448010519147" lon="-8.406227035447955">
        <ele>193.84</ele>
        <time>2025-05-03T12:54:22Z</time>
      </trkpt>
      <trkpt lat="41.03249997831881" lon="-8.406372964382172">
        <ele>194.80000000000001</ele>
        <time>2025-05-03T12:54:23Z</time>
      </trkpt>
      <trkpt lat="41.032524034380913" lon="-8.406516965478659">
        <ele>195.28</ele>
        <time>2025-05-03T12:54:24Z</time>
      </trkpt>
      <trkpt lat="41.032530991360545" lon="-8.406676976010203">
        <ele>196.25</ele>
        <time>2025-05-03T12:54:25Z</time>
      </trkpt>
      <trkpt lat="41.032538032159209" lon="-8.40684000402689">
        <ele>196.72999999999999</ele>
        <time>2025-05-03T12:54:26Z</time>
      </trkpt>
      <trkpt lat="41.032432001084089" lon="-8.408523006364703">
        <ele>194.31999999999999</ele>
        <time>2025-05-03T12:54:35Z</time>
      </trkpt>
      <trkpt lat="41.032182974740863" lon="-8.410125961527228">
        <ele>187.11000000000001</ele>
        <time>2025-05-03T12:54:45Z</time>
      </trkpt>
      <trkpt lat="41.03198298253119" lon="-8.411853974685073">
        <ele>176.53999999999999</ele>
        <time>2025-05-03T12:54:56Z</time>
      </trkpt>
      <trkpt lat="41.031991029158235" lon="-8.412013985216618">
        <ele>175.58000000000001</ele>
        <time>2025-05-03T12:54:57Z</time>
      </trkpt>
      <trkpt lat="41.032235026359558" lon="-8.413568995893002">
        <ele>165.47999999999999</ele>
        <time>2025-05-03T12:55:07Z</time>
      </trkpt>
      <trkpt lat="41.032352959737182" lon="-8.414985034614801">
        <ele>159.24000000000001</ele>
        <time>2025-05-03T12:55:16Z</time>
      </trkpt>
      <trkpt lat="41.032339967787266" lon="-8.415142027661204">
        <ele>158.27000000000001</ele>
        <time>2025-05-03T12:55:17Z</time>
      </trkpt>
      <trkpt lat="41.032237960025668" lon="-8.415426006540656">
        <ele>157.31</ele>
        <time>2025-05-03T12:55:19Z</time>
      </trkpt>
      <trkpt lat="41.032108962535858" lon="-8.415690958499908">
        <ele>155.87</ele>
        <time>2025-05-03T12:55:21Z</time>
      </trkpt>
      <trkpt lat="41.032044002786279" lon="-8.415823979303241">
        <ele>154.91</ele>
        <time>2025-05-03T12:55:22Z</time>
      </trkpt>
      <trkpt lat="41.031845016404986" lon="-8.416232010349631">
        <ele>152.99000000000001</ele>
        <time>2025-05-03T12:55:25Z</time>
      </trkpt>
      <trkpt lat="41.031762035563588" lon="-8.416350027546287">
        <ele>152.50999999999999</ele>
        <time>2025-05-03T12:55:26Z</time>
      </trkpt>
      <trkpt lat="41.031665978953242" lon="-8.416446000337601">
        <ele>151.53999999999999</ele>
        <time>2025-05-03T12:55:27Z</time>
      </trkpt>
      <trkpt lat="41.031570006161928" lon="-8.416541973128915">
        <ele>151.06</ele>
        <time>2025-05-03T12:55:28Z</time>
      </trkpt>
      <trkpt lat="41.031475039198995" lon="-8.4166360180825">
        <ele>150.58000000000001</ele>
        <time>2025-05-03T12:55:29Z</time>
      </trkpt>
      <trkpt lat="41.030279025435448" lon="-8.417704962193966">
        <ele>141.93000000000001</ele>
        <time>2025-05-03T12:55:41Z</time>
      </trkpt>
      <trkpt lat="41.030209036543965" lon="-8.417833037674427">
        <ele>141.93000000000001</ele>
        <time>2025-05-03T12:55:42Z</time>
      </trkpt>
      <trkpt lat="41.030141981318593" lon="-8.417965974658728">
        <ele>141.44999999999999</ele>
        <time>2025-05-03T12:55:43Z</time>
      </trkpt>
      <trkpt lat="41.030099987983704" lon="-8.418115004897118">
        <ele>140.97</ele>
        <time>2025-05-03T12:55:44Z</time>
      </trkpt>
      <trkpt lat="41.030074004083872" lon="-8.418261017650366">
        <ele>140.49000000000001</ele>
        <time>2025-05-03T12:55:45Z</time>
      </trkpt>
      <trkpt lat="41.030074004083872" lon="-8.418418010696769">
        <ele>140.00999999999999</ele>
        <time>2025-05-03T12:55:46Z</time>
      </trkpt>
      <trkpt lat="41.030074004083872" lon="-8.418595958501101">
        <ele>139.53</ele>
        <time>2025-05-03T12:55:47Z</time>
      </trkpt>
      <trkpt lat="41.030113985762" lon="-8.418726967647672">
        <ele>139.05000000000001</ele>
        <time>2025-05-03T12:55:48Z</time>
      </trkpt>
      <trkpt lat="41.030158996582031" lon="-8.418873986229301">
        <ele>138.56999999999999</ele>
        <time>2025-05-03T12:55:49Z</time>
      </trkpt>
      <trkpt lat="41.030240971595049" lon="-8.418989991769195">
        <ele>138.56999999999999</ele>
        <time>2025-05-03T12:55:50Z</time>
      </trkpt>
      <trkpt lat="41.030323030427098" lon="-8.419105997309089">
        <ele>138.09</ele>
        <time>2025-05-03T12:55:51Z</time>
      </trkpt>
      <trkpt lat="41.030416991561651" lon="-8.419240023940802">
        <ele>137.61000000000001</ele>
        <time>2025-05-03T12:55:52Z</time>
      </trkpt>
      <trkpt lat="41.030510030686855" lon="-8.419289980083704">
        <ele>137.13</ele>
        <time>2025-05-03T12:55:53Z</time>
      </trkpt>
      <trkpt lat="41.030621007084846" lon="-8.419349994510412">
        <ele>136.63999999999999</ele>
        <time>2025-05-03T12:55:54Z</time>
      </trkpt>
      <trkpt lat="41.031257025897503" lon="-8.419790966436267">
        <ele>136.16</ele>
        <time>2025-05-03T12:56:00Z</time>
      </trkpt>
      <trkpt lat="41.031336989253759" lon="-8.419910995289683">
        <ele>136.16</ele>
        <time>2025-05-03T12:56:01Z</time>
      </trkpt>
      <trkpt lat="41.031397003680468" lon="-8.420045021921396">
        <ele>136.16</ele>
        <time>2025-05-03T12:56:02Z</time>
      </trkpt>
      <trkpt lat="41.031450983136892" lon="-8.420188017189503">
        <ele>135.68000000000001</ele>
        <time>2025-05-03T12:56:03Z</time>
      </trkpt>
      <trkpt lat="41.031504962593317" lon="-8.42033302411437">
        <ele>135.68000000000001</ele>
        <time>2025-05-03T12:56:04Z</time>
      </trkpt>
      <trkpt lat="41.032107034698129" lon="-8.422109987586737">
        <ele>129.91999999999999</ele>
        <time>2025-05-03T12:56:16Z</time>
      </trkpt>
      <trkpt lat="41.032722014933825" lon="-8.423657035455108">
        <ele>122.70999999999999</ele>
        <time>2025-05-03T12:56:27Z</time>
      </trkpt>
      <trkpt lat="41.033566994592547" lon="-8.424817007035017">
        <ele>119.34</ele>
        <time>2025-05-03T12:56:37Z</time>
      </trkpt>
      <trkpt lat="41.03372298181057" lon="-8.425047006458044">
        <ele>118.86</ele>
        <time>2025-05-03T12:56:39Z</time>
      </trkpt>
      <trkpt lat="41.033758018165827" lon="-8.425180027261376">
        <ele>118.38</ele>
        <time>2025-05-03T12:56:40Z</time>
      </trkpt>
      <trkpt lat="41.033778972923756" lon="-8.425329979509115">
        <ele>117.42</ele>
        <time>2025-05-03T12:56:41Z</time>
      </trkpt>
      <trkpt lat="41.033801017329097" lon="-8.425482027232647">
        <ele>116.94</ele>
        <time>2025-05-03T12:56:42Z</time>
      </trkpt>
      <trkpt lat="41.033792970702052" lon="-8.425622005015612">
        <ele>116.45999999999999</ele>
        <time>2025-05-03T12:56:43Z</time>
      </trkpt>
      <trkpt lat="41.033767992630601" lon="-8.425780003890395">
        <ele>115.98</ele>
        <time>2025-05-03T12:56:44Z</time>
      </trkpt>
      <trkpt lat="41.033729016780853" lon="-8.425924004986882">
        <ele>115.5</ele>
        <time>2025-05-03T12:56:45Z</time>
      </trkpt>
      <trkpt lat="41.033675959333777" lon="-8.426050990819931">
        <ele>115.01000000000001</ele>
        <time>2025-05-03T12:56:46Z</time>
      </trkpt>
      <trkpt lat="41.033591972663999" lon="-8.426159033551812">
        <ele>114.53</ele>
        <time>2025-05-03T12:56:47Z</time>
      </trkpt>
      <trkpt lat="41.033503962680697" lon="-8.426244026049972">
        <ele>114.05</ele>
        <time>2025-05-03T12:56:48Z</time>
      </trkpt>
      <trkpt lat="41.033394997939467" lon="-8.426317032426596">
        <ele>113.09</ele>
        <time>2025-05-03T12:56:49Z</time>
      </trkpt>
      <trkpt lat="41.033284021541476" lon="-8.426361037418246">
        <ele>112.61</ele>
        <time>2025-05-03T12:56:50Z</time>
      </trkpt>
      <trkpt lat="41.033159969374537" lon="-8.42639397829771">
        <ele>112.13</ele>
        <time>2025-05-03T12:56:51Z</time>
      </trkpt>
      <trkpt lat="41.033040024340153" lon="-8.426427002996206">
        <ele>111.17</ele>
        <time>2025-05-03T12:56:52Z</time>
      </trkpt>
      <trkpt lat="41.031876029446721" lon="-8.426643004640937">
        <ele>104.92</ele>
        <time>2025-05-03T12:57:02Z</time>
      </trkpt>
      <trkpt lat="41.031716018915176" lon="-8.426583996042609">
        <ele>103.95999999999999</ele>
        <time>2025-05-03T12:57:03Z</time>
      </trkpt>
      <trkpt lat="41.031599007546902" lon="-8.42654200270772">
        <ele>103</ele>
        <time>2025-05-03T12:57:04Z</time>
      </trkpt>
      <trkpt lat="41.031237998977304" lon="-8.426459021866322">
        <ele>101.08</ele>
        <time>2025-05-03T12:57:07Z</time>
      </trkpt>
      <trkpt lat="41.031120987609029" lon="-8.426450975239277">
        <ele>100.11</ele>
        <time>2025-05-03T12:57:08Z</time>
      </trkpt>
      <trkpt lat="41.031025014817715" lon="-8.426519958302379">
        <ele>99.150000000000006</ele>
        <time>2025-05-03T12:57:09Z</time>
      </trkpt>
      <trkpt lat="41.030927030369639" lon="-8.42660897411406">
        <ele>98.189999999999998</ele>
        <time>2025-05-03T12:57:10Z</time>
      </trkpt>
      <trkpt lat="41.030853018164635" lon="-8.42671500518918">
        <ele>96.75</ele>
        <time>2025-05-03T12:57:11Z</time>
      </trkpt>
      <trkpt lat="41.030795015394688" lon="-8.426840985193849">
        <ele>95.790000000000006</ele>
        <time>2025-05-03T12:57:12Z</time>
      </trkpt>
      <trkpt lat="41.030751010403037" lon="-8.426988003775477">
        <ele>94.829999999999998</ele>
        <time>2025-05-03T12:57:13Z</time>
      </trkpt>
      <trkpt lat="41.030704993754625" lon="-8.427138039842248">
        <ele>93.390000000000001</ele>
        <time>2025-05-03T12:57:14Z</time>
      </trkpt>
      <trkpt lat="41.030329987406731" lon="-8.428308991715312">
        <ele>85.209999999999994</ele>
        <time>2025-05-03T12:57:22Z</time>
      </trkpt>
      <trkpt lat="41.030267039313912" lon="-8.428445030003786">
        <ele>84.25</ele>
        <time>2025-05-03T12:57:23Z</time>
      </trkpt>
      <trkpt lat="41.030165031552315" lon="-8.428565980866551">
        <ele>83.290000000000006</ele>
        <time>2025-05-03T12:57:24Z</time>
      </trkpt>
      <trkpt lat="41.030068974941969" lon="-8.428678968921304">
        <ele>82.329999999999998</ele>
        <time>2025-05-03T12:57:25Z</time>
      </trkpt>
      <trkpt lat="41.029951041564345" lon="-8.42877603136003">
        <ele>81.370000000000005</ele>
        <time>2025-05-03T12:57:26Z</time>
      </trkpt>
      <trkpt lat="41.029824977740645" lon="-8.428858006373048">
        <ele>79.930000000000007</ele>
        <time>2025-05-03T12:57:27Z</time>
      </trkpt>
      <trkpt lat="41.029436979442835" lon="-8.429136034101248">
        <ele>76.079999999999998</ele>
        <time>2025-05-03T12:57:30Z</time>
      </trkpt>
      <trkpt lat="41.029328014701605" lon="-8.429277017712593">
        <ele>75.120000000000005</ele>
        <time>2025-05-03T12:57:31Z</time>
      </trkpt>
      <trkpt lat="41.029225001111627" lon="-8.429434010758996">
        <ele>73.680000000000007</ele>
        <time>2025-05-03T12:57:32Z</time>
      </trkpt>
      <trkpt lat="41.029142020270228" lon="-8.429599972441793">
        <ele>72.719999999999999</ele>
        <time>2025-05-03T12:57:33Z</time>
      </trkpt>
      <trkpt lat="41.029090974479914" lon="-8.429779009893537">
        <ele>71.760000000000005</ele>
        <time>2025-05-03T12:57:34Z</time>
      </trkpt>
      <trkpt lat="41.029075970873237" lon="-8.429962992668152">
        <ele>70.790000000000006</ele>
        <time>2025-05-03T12:57:35Z</time>
      </trkpt>
      <trkpt lat="41.02910103276372" lon="-8.43015099875629">
        <ele>70.310000000000002</ele>
        <time>2025-05-03T12:57:36Z</time>
      </trkpt>
      <trkpt lat="41.029148977249861" lon="-8.43034696765244">
        <ele>69.829999999999998</ele>
        <time>2025-05-03T12:57:37Z</time>
      </trkpt>
      <trkpt lat="41.029203040525317" lon="-8.430542014539242">
        <ele>69.349999999999994</ele>
        <time>2025-05-03T12:57:38Z</time>
      </trkpt>
      <trkpt lat="41.029305970296264" lon="-8.431102009490132">
        <ele>66.950000000000003</ele>
        <time>2025-05-03T12:57:41Z</time>
      </trkpt>
      <trkpt lat="41.029275041073561" lon="-8.431261014193296">
        <ele>66.469999999999999</ele>
        <time>2025-05-03T12:57:42Z</time>
      </trkpt>
      <trkpt lat="41.029227012768388" lon="-8.431372996419668">
        <ele>65.510000000000005</ele>
        <time>2025-05-03T12:57:43Z</time>
      </trkpt>
      <trkpt lat="41.029131961986423" lon="-8.431455977261066">
        <ele>64.549999999999997</ele>
        <time>2025-05-03T12:57:44Z</time>
      </trkpt>
      <trkpt lat="41.029006987810135" lon="-8.431502999737859">
        <ele>64.069999999999993</ele>
        <time>2025-05-03T12:57:45Z</time>
      </trkpt>
      <trkpt lat="41.02888897061348" lon="-8.431475004181266">
        <ele>62.619999999999997</ele>
        <time>2025-05-03T12:57:46Z</time>
      </trkpt>
      <trkpt lat="41.028757961466908" lon="-8.43141901306808">
        <ele>61.18</ele>
        <time>2025-05-03T12:57:47Z</time>
      </trkpt>
      <trkpt lat="41.028633993119001" lon="-8.431339971721172">
        <ele>60.219999999999999</ele>
        <time>2025-05-03T12:57:48Z</time>
      </trkpt>
      <trkpt lat="41.02850197814405" lon="-8.431233018636704">
        <ele>59.259999999999998</ele>
        <time>2025-05-03T12:57:49Z</time>
      </trkpt>
      <trkpt lat="41.028238032013178" lon="-8.431025985628367">
        <ele>57.82</ele>
        <time>2025-05-03T12:57:51Z</time>
      </trkpt>
      <trkpt lat="41.027957992628217" lon="-8.430806966498494">
        <ele>55.890000000000001</ele>
        <time>2025-05-03T12:57:53Z</time>
      </trkpt>
      <trkpt lat="41.027793036773801" lon="-8.430756004527211">
        <ele>54.450000000000003</ele>
        <time>2025-05-03T12:57:54Z</time>
      </trkpt>
      <trkpt lat="41.02658998221159" lon="-8.430497003719211">
        <ele>46.759999999999998</ele>
        <time>2025-05-03T12:58:02Z</time>
      </trkpt>
      <trkpt lat="41.026468025520444" lon="-8.43043296597898">
        <ele>45.799999999999997</ele>
        <time>2025-05-03T12:58:03Z</time>
      </trkpt>
      <trkpt lat="41.026346990838647" lon="-8.430340010672808">
        <ele>44.840000000000003</ele>
        <time>2025-05-03T12:58:04Z</time>
      </trkpt>
      <trkpt lat="41.026232996955514" lon="-8.430244959890842">
        <ele>43.880000000000003</ele>
        <time>2025-05-03T12:58:05Z</time>
      </trkpt>
      <trkpt lat="41.026123026385903" lon="-8.430125014856458">
        <ele>42.920000000000002</ele>
        <time>2025-05-03T12:58:06Z</time>
      </trkpt>
      <trkpt lat="41.025639977306128" lon="-8.429672978818417">
        <ele>39.07</ele>
        <time>2025-05-03T12:58:10Z</time>
      </trkpt>
      <trkpt lat="41.025503017008305" lon="-8.429668033495545">
        <ele>38.109999999999999</ele>
        <time>2025-05-03T12:58:11Z</time>
      </trkpt>
      <trkpt lat="41.025363961234689" lon="-8.429730981588364">
        <ele>37.630000000000003</ele>
        <time>2025-05-03T12:58:12Z</time>
      </trkpt>
      <trkpt lat="41.025232030078769" lon="-8.429790996015072">
        <ele>36.670000000000002</ele>
        <time>2025-05-03T12:58:13Z</time>
      </trkpt>
      <trkpt lat="41.025099009275436" lon="-8.429852016270161">
        <ele>36.189999999999998</ele>
        <time>2025-05-03T12:58:14Z</time>
      </trkpt>
      <trkpt lat="41.024547982960939" lon="-8.430091990157962">
        <ele>35.710000000000001</ele>
        <time>2025-05-03T12:58:18Z</time>
      </trkpt>
      <trkpt lat="41.024409011006355" lon="-8.430115040391684">
        <ele>35.710000000000001</ele>
        <time>2025-05-03T12:58:19Z</time>
      </trkpt>
      <trkpt lat="41.023487001657486" lon="-8.430201038718224">
        <ele>35.710000000000001</ele>
        <time>2025-05-03T12:58:26Z</time>
      </trkpt>
      <trkpt lat="41.023119036108255" lon="-8.430294999852777">
        <ele>36.670000000000002</ele>
        <time>2025-05-03T12:58:29Z</time>
      </trkpt>
      <trkpt lat="41.023010993376374" lon="-8.430359037593007">
        <ele>37.149999999999999</ele>
        <time>2025-05-03T12:58:30Z</time>
      </trkpt>
      <trkpt lat="41.022933963686228" lon="-8.430455010384321">
        <ele>37.630000000000003</ele>
        <time>2025-05-03T12:58:31Z</time>
      </trkpt>
      <trkpt lat="41.022854000329971" lon="-8.430555006489158">
        <ele>37.630000000000003</ele>
        <time>2025-05-03T12:58:32Z</time>
      </trkpt>
      <trkpt lat="41.022773031145334" lon="-8.430655002593994">
        <ele>38.109999999999999</ele>
        <time>2025-05-03T12:58:33Z</time>
      </trkpt>
      <trkpt lat="41.022687032818794" lon="-8.430760027840734">
        <ele>38.590000000000003</ele>
        <time>2025-05-03T12:58:34Z</time>
      </trkpt>
      <trkpt lat="41.022596005350351" lon="-8.430843008682132">
        <ele>39.07</ele>
        <time>2025-05-03T12:58:35Z</time>
      </trkpt>
      <trkpt lat="41.02248502895236" lon="-8.430920960381627">
        <ele>39.549999999999997</ele>
        <time>2025-05-03T12:58:36Z</time>
      </trkpt>
      <trkpt lat="41.022237008437514" lon="-8.431064039468765">
        <ele>40.990000000000002</ele>
        <time>2025-05-03T12:58:38Z</time>
      </trkpt>
      <trkpt lat="41.022098958492279" lon="-8.431113995611668">
        <ele>41.469999999999999</ele>
        <time>2025-05-03T12:58:39Z</time>
      </trkpt>
      <trkpt lat="41.021975995972753" lon="-8.431158000603318">
        <ele>42.439999999999998</ele>
        <time>2025-05-03T12:58:40Z</time>
      </trkpt>
      <trkpt lat="41.021845992654562" lon="-8.431151965633035">
        <ele>43.399999999999999</ele>
        <time>2025-05-03T12:58:41Z</time>
      </trkpt>
      <trkpt lat="41.021721018478274" lon="-8.431128999218345">
        <ele>43.880000000000003</ele>
        <time>2025-05-03T12:58:42Z</time>
      </trkpt>
      <trkpt lat="41.021594032645226" lon="-8.431105026975274">
        <ele>44.840000000000003</ele>
        <time>2025-05-03T12:58:43Z</time>
      </trkpt>
      <trkpt lat="41.021468974649906" lon="-8.431081976741552">
        <ele>45.32</ele>
        <time>2025-05-03T12:58:44Z</time>
      </trkpt>
      <trkpt lat="41.021353974938393" lon="-8.431060016155243">
        <ele>45.799999999999997</ele>
        <time>2025-05-03T12:58:45Z</time>
      </trkpt>
      <trkpt lat="41.021248027682304" lon="-8.431045012548566">
        <ele>46.280000000000001</ele>
        <time>2025-05-03T12:58:46Z</time>
      </trkpt>
      <trkpt lat="41.021144008263946" lon="-8.431104021146894">
        <ele>46.759999999999998</ele>
        <time>2025-05-03T12:58:47Z</time>
      </trkpt>
      <trkpt lat="41.021035965532064" lon="-8.431165041401982">
        <ele>47.240000000000002</ele>
        <time>2025-05-03T12:58:48Z</time>
      </trkpt>
      <trkpt lat="41.020925994962454" lon="-8.43122698366642">
        <ele>47.719999999999999</ele>
        <time>2025-05-03T12:58:49Z</time>
      </trkpt>
      <trkpt lat="41.020815018564463" lon="-8.43129001557827">
        <ele>48.68</ele>
        <time>2025-05-03T12:58:50Z</time>
      </trkpt>
      <trkpt lat="41.020706975832582" lon="-8.431315999478102">
        <ele>49.649999999999999</ele>
        <time>2025-05-03T12:58:51Z</time>
      </trkpt>
      <trkpt lat="41.020593987777829" lon="-8.431306025013328">
        <ele>50.609999999999999</ele>
        <time>2025-05-03T12:58:52Z</time>
      </trkpt>
      <trkpt lat="41.020478988066316" lon="-8.431276017799974">
        <ele>51.57</ele>
        <time>2025-05-03T12:58:53Z</time>
      </trkpt>
      <trkpt lat="41.020383015275002" lon="-8.431189013645053">
        <ele>52.530000000000001</ele>
        <time>2025-05-03T12:58:54Z</time>
      </trkpt>
      <trkpt lat="41.020284024998546" lon="-8.43109798617661">
        <ele>53.490000000000002</ele>
        <time>2025-05-03T12:58:55Z</time>
      </trkpt>
      <trkpt lat="41.020182017236948" lon="-8.431015005335212">
        <ele>54.93</ele>
        <time>2025-05-03T12:58:56Z</time>
      </trkpt>
      <trkpt lat="41.020070035010576" lon="-8.430987009778619">
        <ele>55.890000000000001</ele>
        <time>2025-05-03T12:58:57Z</time>
      </trkpt>
      <trkpt lat="41.01995101198554" lon="-8.430972006171942">
        <ele>56.369999999999997</ele>
        <time>2025-05-03T12:58:58Z</time>
      </trkpt>
      <trkpt lat="41.019816985353827" lon="-8.430955996736884">
        <ele>57.340000000000003</ele>
        <time>2025-05-03T12:58:59Z</time>
      </trkpt>
      <trkpt lat="41.019716989248991" lon="-8.431008970364928">
        <ele>57.82</ele>
        <time>2025-05-03T12:59:00Z</time>
      </trkpt>
      <trkpt lat="41.019601989537477" lon="-8.431070996448398">
        <ele>58.780000000000001</ele>
        <time>2025-05-03T12:59:01Z</time>
      </trkpt>
      <trkpt lat="41.019491013139486" lon="-8.431146014481783">
        <ele>59.259999999999998</ele>
        <time>2025-05-03T12:59:02Z</time>
      </trkpt>
      <trkpt lat="41.019381964579225" lon="-8.431243998929858">
        <ele>60.219999999999999</ele>
        <time>2025-05-03T12:59:03Z</time>
      </trkpt>
      <trkpt lat="41.019308036193252" lon="-8.431366961449385">
        <ele>61.18</ele>
        <time>2025-05-03T12:59:04Z</time>
      </trkpt>
      <trkpt lat="41.019233018159866" lon="-8.431492019444704">
        <ele>61.659999999999997</ele>
        <time>2025-05-03T12:59:05Z</time>
      </trkpt>
      <trkpt lat="41.019162023440003" lon="-8.431647000834346">
        <ele>62.140000000000001</ele>
        <time>2025-05-03T12:59:06Z</time>
      </trkpt>
      <trkpt lat="41.018613008782268" lon="-8.433143002912402">
        <ele>66.950000000000003</ele>
        <time>2025-05-03T12:59:14Z</time>
      </trkpt>
      <trkpt lat="41.018374962732196" lon="-8.433710038661957">
        <ele>69.829999999999998</ele>
        <time>2025-05-03T12:59:17Z</time>
      </trkpt>
      <trkpt lat="41.018274966627359" lon="-8.433851022273302">
        <ele>70.790000000000006</ele>
        <time>2025-05-03T12:59:18Z</time>
      </trkpt>
      <trkpt lat="41.018148986622691" lon="-8.433980019763112">
        <ele>72.239999999999995</ele>
        <time>2025-05-03T12:59:19Z</time>
      </trkpt>
      <trkpt lat="41.017410960048437" lon="-8.434783006086946">
        <ele>78.480000000000004</ele>
        <time>2025-05-03T12:59:25Z</time>
      </trkpt>
      <trkpt lat="41.017318004742265" lon="-8.434924995526671">
        <ele>79.450000000000003</ele>
        <time>2025-05-03T12:59:26Z</time>
      </trkpt>
      <trkpt lat="41.017220020294189" lon="-8.435075031593442">
        <ele>80.409999999999997</ele>
        <time>2025-05-03T12:59:27Z</time>
      </trkpt>
      <trkpt lat="41.017129998654127" lon="-8.435364039614797">
        <ele>82.329999999999998</ele>
        <time>2025-05-03T12:59:29Z</time>
      </trkpt>
      <trkpt lat="41.017095968127251" lon="-8.435527989640832">
        <ele>82.810000000000002</ele>
        <time>2025-05-03T12:59:30Z</time>
      </trkpt>
      <trkpt lat="41.016990020871162" lon="-8.436198038980365">
        <ele>86.659999999999997</ele>
        <time>2025-05-03T12:59:34Z</time>
      </trkpt>
      <trkpt lat="41.016944004222751" lon="-8.436344973742962">
        <ele>88.099999999999994</ele>
        <time>2025-05-03T12:59:35Z</time>
      </trkpt>
      <trkpt lat="41.016881978139281" lon="-8.43648998066783">
        <ele>89.060000000000002</ele>
        <time>2025-05-03T12:59:36Z</time>
      </trkpt>
      <trkpt lat="41.016787011176348" lon="-8.436600035056472">
        <ele>90.5</ele>
        <time>2025-05-03T12:59:37Z</time>
      </trkpt>
      <trkpt lat="41.016671005636454" lon="-8.436691984534264">
        <ele>91.459999999999994</ele>
        <time>2025-05-03T12:59:38Z</time>
      </trkpt>
      <trkpt lat="41.016550976783037" lon="-8.436777982860804">
        <ele>92.420000000000002</ele>
        <time>2025-05-03T12:59:39Z</time>
      </trkpt>
      <trkpt lat="41.016328018158674" lon="-8.436972023919225">
        <ele>93.870000000000005</ele>
        <time>2025-05-03T12:59:41Z</time>
      </trkpt>
      <trkpt lat="41.01623397320509" lon="-8.437093980610371">
        <ele>94.829999999999998</ele>
        <time>2025-05-03T12:59:42Z</time>
      </trkpt>
      <trkpt lat="41.016149986535311" lon="-8.43721903860569">
        <ele>95.790000000000006</ele>
        <time>2025-05-03T12:59:43Z</time>
      </trkpt>
      <trkpt lat="41.01608301512897" lon="-8.437363961711526">
        <ele>96.75</ele>
        <time>2025-05-03T12:59:44Z</time>
      </trkpt>
      <trkpt lat="41.016026018187404" lon="-8.437507040798664">
        <ele>97.709999999999994</ele>
        <time>2025-05-03T12:59:45Z</time>
      </trkpt>
      <trkpt lat="41.015982013195753" lon="-8.437662022188306">
        <ele>99.150000000000006</ele>
        <time>2025-05-03T12:59:46Z</time>
      </trkpt>
      <trkpt lat="41.015956029295921" lon="-8.437823038548231">
        <ele>100.11</ele>
        <time>2025-05-03T12:59:47Z</time>
      </trkpt>
      <trkpt lat="41.015959968790412" lon="-8.437992017716169">
        <ele>101.08</ele>
        <time>2025-05-03T12:59:48Z</time>
      </trkpt>
      <trkpt lat="41.015963992103934" lon="-8.43816502019763">
        <ele>102.04000000000001</ele>
        <time>2025-05-03T12:59:49Z</time>
      </trkpt>
      <trkpt lat="41.016034986823797" lon="-8.439903007820249">
        <ele>109.73</ele>
        <time>2025-05-03T12:59:58Z</time>
      </trkpt>
      <trkpt lat="41.016092989593744" lon="-8.441179990768433">
        <ele>115.01000000000001</ele>
        <time>2025-05-03T13:00:06Z</time>
      </trkpt>
      <trkpt lat="41.016208995133638" lon="-8.442622013390064">
        <ele>122.22</ele>
        <time>2025-05-03T13:00:15Z</time>
      </trkpt>
      <trkpt lat="41.016610991209745" lon="-8.444142993539572">
        <ele>131.84</ele>
        <time>2025-05-03T13:00:25Z</time>
      </trkpt>
      <trkpt lat="41.017205016687512" lon="-8.44607200473547">
        <ele>139.05000000000001</ele>
        <time>2025-05-03T13:00:38Z</time>
      </trkpt>
      <trkpt lat="41.017928039655089" lon="-8.448459003120661">
        <ele>149.13999999999999</ele>
        <time>2025-05-03T13:00:54Z</time>
      </trkpt>
      <trkpt lat="41.01799501106143" lon="-8.448764020577073">
        <ele>150.58000000000001</ele>
        <time>2025-05-03T13:00:56Z</time>
      </trkpt>
      <trkpt lat="41.018024012446404" lon="-8.448916990309954">
        <ele>151.53999999999999</ele>
        <time>2025-05-03T13:00:57Z</time>
      </trkpt>
      <trkpt lat="41.018028035759926" lon="-8.449078006669879">
        <ele>152.50999999999999</ele>
        <time>2025-05-03T13:00:58Z</time>
      </trkpt>
      <trkpt lat="41.018015965819359" lon="-8.449237011373043">
        <ele>153.47</ele>
        <time>2025-05-03T13:00:59Z</time>
      </trkpt>
      <trkpt lat="41.017985958606005" lon="-8.449388975277543">
        <ele>154.43000000000001</ele>
        <time>2025-05-03T13:01:00Z</time>
      </trkpt>
      <trkpt lat="41.01795201189816" lon="-8.449542028829455">
        <ele>155.38999999999999</ele>
        <time>2025-05-03T13:01:01Z</time>
      </trkpt>
      <trkpt lat="41.01790901273489" lon="-8.449687035754323">
        <ele>156.34999999999999</ele>
        <time>2025-05-03T13:01:02Z</time>
      </trkpt>
      <trkpt lat="41.017847992479801" lon="-8.449819972738624">
        <ele>156.83000000000001</ele>
        <time>2025-05-03T13:01:03Z</time>
      </trkpt>
      <trkpt lat="41.017779009416699" lon="-8.449946036562324">
        <ele>157.78999999999999</ele>
        <time>2025-05-03T13:01:04Z</time>
      </trkpt>
      <trkpt lat="41.017686976119876" lon="-8.450045026838779">
        <ele>158.27000000000001</ele>
        <time>2025-05-03T13:01:05Z</time>
      </trkpt>
      <trkpt lat="41.017595026642084" lon="-8.450145022943616">
        <ele>159.72</ele>
        <time>2025-05-03T13:01:06Z</time>
      </trkpt>
      <trkpt lat="41.017521014437079" lon="-8.450223980471492">
        <ele>160.68000000000001</ele>
        <time>2025-05-03T13:01:07Z</time>
      </trkpt>
      <trkpt lat="41.017399979755282" lon="-8.450274020433426">
        <ele>161.63999999999999</ele>
        <time>2025-05-03T13:01:08Z</time>
      </trkpt>
      <trkpt lat="41.017282968387008" lon="-8.450320959091187">
        <ele>162.12</ele>
        <time>2025-05-03T13:01:09Z</time>
      </trkpt>
      <trkpt lat="41.017163023352623" lon="-8.45036999322474">
        <ele>163.08000000000001</ele>
        <time>2025-05-03T13:01:10Z</time>
      </trkpt>
      <trkpt lat="41.01704902946949" lon="-8.450417015701532">
        <ele>163.56</ele>
        <time>2025-05-03T13:01:11Z</time>
      </trkpt>
      <trkpt lat="41.016222992911935" lon="-8.450635029003024">
        <ele>169.33000000000001</ele>
        <time>2025-05-03T13:01:18Z</time>
      </trkpt>
      <trkpt lat="41.014890018850565" lon="-8.450653972104192">
        <ele>177.02000000000001</ele>
        <time>2025-05-03T13:01:29Z</time>
      </trkpt>
      <trkpt lat="41.013446990400553" lon="-8.450708035379648">
        <ele>185.19</ele>
        <time>2025-05-03T13:01:41Z</time>
      </trkpt>
      <trkpt lat="41.013340037316084" lon="-8.450748017057777">
        <ele>185.66999999999999</ele>
        <time>2025-05-03T13:01:42Z</time>
      </trkpt>
      <trkpt lat="41.013236017897725" lon="-8.450827980414033">
        <ele>186.63</ele>
        <time>2025-05-03T13:01:43Z</time>
      </trkpt>
      <trkpt lat="41.012812983244658" lon="-8.451163005083799">
        <ele>189.03999999999999</ele>
        <time>2025-05-03T13:01:47Z</time>
      </trkpt>
      <trkpt lat="41.012744000181556" lon="-8.451289990916848">
        <ele>189.52000000000001</ele>
        <time>2025-05-03T13:01:48Z</time>
      </trkpt>
      <trkpt lat="41.012681974098086" lon="-8.451425023376942">
        <ele>189.52000000000001</ele>
        <time>2025-05-03T13:01:49Z</time>
      </trkpt>
      <trkpt lat="41.012642998248339" lon="-8.4515739697963">
        <ele>190</ele>
        <time>2025-05-03T13:01:50Z</time>
      </trkpt>
      <trkpt lat="41.012604022398591" lon="-8.45172300003469">
        <ele>190</ele>
        <time>2025-05-03T13:01:51Z</time>
      </trkpt>
      <trkpt lat="41.01240998134017" lon="-8.452289029955864">
        <ele>191.44</ele>
        <time>2025-05-03T13:01:55Z</time>
      </trkpt>
      <trkpt lat="41.012325994670391" lon="-8.452397994697094">
        <ele>191.91999999999999</ele>
        <time>2025-05-03T13:01:56Z</time>
      </trkpt>
      <trkpt lat="41.012241002172232" lon="-8.452508971095085">
        <ele>192.40000000000001</ele>
        <time>2025-05-03T13:01:57Z</time>
      </trkpt>
      <trkpt lat="41.012143017724156" lon="-8.45260301604867">
        <ele>192.88</ele>
        <time>2025-05-03T13:01:58Z</time>
      </trkpt>
      <trkpt lat="41.012034974992275" lon="-8.452677028253675">
        <ele>193.36000000000001</ele>
        <time>2025-05-03T13:01:59Z</time>
      </trkpt>
      <trkpt lat="41.011926010251045" lon="-8.452752968296409">
        <ele>193.84</ele>
        <time>2025-05-03T13:02:00Z</time>
      </trkpt>
      <trkpt lat="41.011816961690784" lon="-8.452829997986555">
        <ele>194.31999999999999</ele>
        <time>2025-05-03T13:02:01Z</time>
      </trkpt>
      <trkpt lat="41.011710008606315" lon="-8.45290401019156">
        <ele>194.80000000000001</ele>
        <time>2025-05-03T13:02:02Z</time>
      </trkpt>
      <trkpt lat="41.011640019714832" lon="-8.453024961054325">
        <ele>195.28</ele>
        <time>2025-05-03T13:02:03Z</time>
      </trkpt>
      <trkpt lat="41.011581011116505" lon="-8.453153036534786">
        <ele>195.77000000000001</ele>
        <time>2025-05-03T13:02:04Z</time>
      </trkpt>
      <trkpt lat="41.011531976982951" lon="-8.453298965469003">
        <ele>196.25</ele>
        <time>2025-05-03T13:02:05Z</time>
      </trkpt>
      <trkpt lat="41.011490989476442" lon="-8.45344296656549">
        <ele>196.72999999999999</ele>
        <time>2025-05-03T13:02:06Z</time>
      </trkpt>
      <trkpt lat="41.011490989476442" lon="-8.45361496321857">
        <ele>196.72999999999999</ele>
        <time>2025-05-03T13:02:07Z</time>
      </trkpt>
      <trkpt lat="41.011510016396642" lon="-8.453757036477327">
        <ele>197.21000000000001</ele>
        <time>2025-05-03T13:02:08Z</time>
      </trkpt>
      <trkpt lat="41.01152996532619" lon="-8.453917969018221">
        <ele>197.69</ele>
        <time>2025-05-03T13:02:09Z</time>
      </trkpt>
      <trkpt lat="41.011715037748218" lon="-8.455003006383777">
        <ele>201.05000000000001</ele>
        <time>2025-05-03T13:02:16Z</time>
      </trkpt>
      <trkpt lat="41.011770023033023" lon="-8.455144995823503">
        <ele>201.53</ele>
        <time>2025-05-03T13:02:17Z</time>
      </trkpt>
      <trkpt lat="41.011839006096125" lon="-8.455281034111977">
        <ele>202.00999999999999</ele>
        <time>2025-05-03T13:02:18Z</time>
      </trkpt>
      <trkpt lat="41.011985018849373" lon="-8.4555250313133">
        <ele>202.49000000000001</ele>
        <time>2025-05-03T13:02:20Z</time>
      </trkpt>
      <trkpt lat="41.012026006355882" lon="-8.455687975510955">
        <ele>202.49000000000001</ele>
        <time>2025-05-03T13:02:21Z</time>
      </trkpt>
      <trkpt lat="41.012062970548868" lon="-8.455835999920964">
        <ele>202.97999999999999</ele>
        <time>2025-05-03T13:02:22Z</time>
      </trkpt>
      <trkpt lat="41.012071017175913" lon="-8.455981006845832">
        <ele>203.46000000000001</ele>
        <time>2025-05-03T13:02:23Z</time>
      </trkpt>
      <trkpt lat="41.012071017175913" lon="-8.456137999892235">
        <ele>203.94</ele>
        <time>2025-05-03T13:02:24Z</time>
      </trkpt>
      <trkpt lat="41.01204302161932" lon="-8.456285018473864">
        <ele>204.41999999999999</ele>
        <time>2025-05-03T13:02:25Z</time>
      </trkpt>
      <trkpt lat="41.012011002749205" lon="-8.456443017348647">
        <ele>204.90000000000001</ele>
        <time>2025-05-03T13:02:26Z</time>
      </trkpt>
      <trkpt lat="41.011977978050709" lon="-8.456601016223431">
        <ele>205.38</ele>
        <time>2025-05-03T13:02:27Z</time>
      </trkpt>
      <trkpt lat="41.011731969192624" lon="-8.457507016137242">
        <ele>206.34</ele>
        <time>2025-05-03T13:02:33Z</time>
      </trkpt>
      <trkpt lat="41.011690981686115" lon="-8.457657974213362">
        <ele>206.34</ele>
        <time>2025-05-03T13:02:34Z</time>
      </trkpt>
      <trkpt lat="41.011286973953247" lon="-8.459150036796928">
        <ele>207.78</ele>
        <time>2025-05-03T13:02:44Z</time>
      </trkpt>
      <trkpt lat="41.010702000930905" lon="-8.461072007194161">
        <ele>216.43000000000001</ele>
        <time>2025-05-03T13:02:57Z</time>
      </trkpt>
      <trkpt lat="41.010631006211042" lon="-8.461195975542069">
        <ele>217.40000000000001</ele>
        <time>2025-05-03T13:02:58Z</time>
      </trkpt>
      <trkpt lat="41.010503014549613" lon="-8.461420023813844">
        <ele>219.80000000000001</ele>
        <time>2025-05-03T13:03:00Z</time>
      </trkpt>
      <trkpt lat="41.010504020377994" lon="-8.461619010195136">
        <ele>220.75999999999999</ele>
        <time>2025-05-03T13:03:01Z</time>
      </trkpt>
      <trkpt lat="41.010504020377994" lon="-8.461684975773096">
        <ele>222.19999999999999</ele>
        <time>2025-05-03T13:03:03Z</time>
      </trkpt>
      <trkpt lat="41.010418022051454" lon="-8.46184004098177">
        <ele>223.16</ele>
        <time>2025-05-03T13:03:04Z</time>
      </trkpt>
      <trkpt lat="41.010353984311223" lon="-8.461891002953053">
        <ele>223.63999999999999</ele>
        <time>2025-05-03T13:03:05Z</time>
      </trkpt>
      <trkpt lat="41.010291958227754" lon="-8.461938025429845">
        <ele>224.61000000000001</ele>
        <time>2025-05-03T13:03:06Z</time>
      </trkpt>
      <trkpt lat="41.010230015963316" lon="-8.461940037086606">
        <ele>225.09</ele>
        <time>2025-05-03T13:03:07Z</time>
      </trkpt>
      <trkpt lat="41.010181987658143" lon="-8.461940037086606">
        <ele>225.09</ele>
        <time>2025-05-03T13:03:08Z</time>
      </trkpt>
      <trkpt lat="41.010137982666492" lon="-8.461896032094955">
        <ele>225.56999999999999</ele>
        <time>2025-05-03T13:03:09Z</time>
      </trkpt>
      <trkpt lat="41.010096995159984" lon="-8.461854960769415">
        <ele>225.56999999999999</ele>
        <time>2025-05-03T13:03:10Z</time>
      </trkpt>
      <trkpt lat="41.010096995159984" lon="-8.461854960769415">
        <ele>226.05000000000001</ele>
        <time>2025-05-03T13:03:11Z</time>
      </trkpt>
      <trkpt lat="41.009946037083864" lon="-8.461682964116335">
        <ele>226.53</ele>
        <time>2025-05-03T13:03:12Z</time>
      </trkpt>
      <trkpt lat="41.009856015443802" lon="-8.461681036278606">
        <ele>227.00999999999999</ele>
        <time>2025-05-03T13:03:13Z</time>
      </trkpt>
      <trkpt lat="41.009416971355677" lon="-8.461652034893632">
        <ele>227.49000000000001</ele>
        <time>2025-05-03T13:03:17Z</time>
      </trkpt>
      <trkpt lat="41.009303983300924" lon="-8.461640970781446">
        <ele>227.00999999999999</ele>
        <time>2025-05-03T13:03:18Z</time>
      </trkpt>
      <trkpt lat="41.008987985551357" lon="-8.461661003530026">
        <ele>226.05000000000001</ele>
        <time>2025-05-03T13:03:21Z</time>
      </trkpt>
      <trkpt lat="41.008899975568056" lon="-8.461716994643211">
        <ele>226.05000000000001</ele>
        <time>2025-05-03T13:03:22Z</time>
      </trkpt>
      <trkpt lat="41.008809031918645" lon="-8.461780026555061">
        <ele>226.53</ele>
        <time>2025-05-03T13:03:23Z</time>
      </trkpt>
      <trkpt lat="41.008701995015144" lon="-8.461854960769415">
        <ele>227.00999999999999</ele>
        <time>2025-05-03T13:03:24Z</time>
      </trkpt>
      <trkpt lat="41.008637035265565" lon="-8.461942970752716">
        <ele>227.49000000000001</ele>
        <time>2025-05-03T13:03:25Z</time>
      </trkpt>
      <trkpt lat="41.008566040545702" lon="-8.462041961029172">
        <ele>227.97</ele>
        <time>2025-05-03T13:03:26Z</time>
      </trkpt>
      <trkpt lat="41.008507031947374" lon="-8.462153021246195">
        <ele>228.44999999999999</ele>
        <time>2025-05-03T13:03:27Z</time>
      </trkpt>
      <trkpt lat="41.008419021964073" lon="-8.462384026497603">
        <ele>229.41</ele>
        <time>2025-05-03T13:03:29Z</time>
      </trkpt>
      <trkpt lat="41.008145017549396" lon="-8.463126998394728">
        <ele>230.37</ele>
        <time>2025-05-03T13:03:36Z</time>
      </trkpt>
      <trkpt lat="41.008114004507661" lon="-8.463211990892887">
        <ele>230.37</ele>
        <time>2025-05-03T13:03:37Z</time>
      </trkpt>
      <trkpt lat="41.008081985637546" lon="-8.463274016976357">
        <ele>229.88999999999999</ele>
        <time>2025-05-03T13:03:38Z</time>
      </trkpt>
      <trkpt lat="41.008031023666263" lon="-8.463338976725936">
        <ele>229.88999999999999</ele>
        <time>2025-05-03T13:03:39Z</time>
      </trkpt>
      <trkpt lat="41.007950976490974" lon="-8.463441990315914">
        <ele>229.41</ele>
        <time>2025-05-03T13:03:40Z</time>
      </trkpt>
      <trkpt lat="41.007921975106001" lon="-8.463459005579352">
        <ele>229.41</ele>
        <time>2025-05-03T13:03:41Z</time>
      </trkpt>
      <trkpt lat="41.007837988436222" lon="-8.463507033884525">
        <ele>229.88999999999999</ele>
        <time>2025-05-03T13:03:42Z</time>
      </trkpt>
      <trkpt lat="41.007047994062304" lon="-8.463791012763977">
        <ele>230.37</ele>
        <time>2025-05-03T13:03:50Z</time>
      </trkpt>
      <trkpt lat="41.006955038756132" lon="-8.463850021362305">
        <ele>230.37</ele>
        <time>2025-05-03T13:03:51Z</time>
      </trkpt>
      <trkpt lat="41.006870968267322" lon="-8.463946999981999">
        <ele>230.37</ele>
        <time>2025-05-03T13:03:52Z</time>
      </trkpt>
      <trkpt lat="41.0068029910326" lon="-8.464048001915216">
        <ele>230.37</ele>
        <time>2025-05-03T13:03:53Z</time>
      </trkpt>
      <trkpt lat="41.006754962727427" lon="-8.464169958606362">
        <ele>230.37</ele>
        <time>2025-05-03T13:03:54Z</time>
      </trkpt>
      <trkpt lat="41.006713975220919" lon="-8.464288981631398">
        <ele>229.88999999999999</ele>
        <time>2025-05-03T13:03:55Z</time>
      </trkpt>
      <trkpt lat="41.006671981886029" lon="-8.464405992999673">
        <ele>229.41</ele>
        <time>2025-05-03T13:03:56Z</time>
      </trkpt>
      <trkpt lat="41.006636023521423" lon="-8.46452702768147">
        <ele>229.41</ele>
        <time>2025-05-03T13:03:57Z</time>
      </trkpt>
      <trkpt lat="41.006323965266347" lon="-8.465910041704774">
        <ele>228.44999999999999</ele>
        <time>2025-05-03T13:04:10Z</time>
      </trkpt>
      <trkpt lat="41.006270991638303" lon="-8.466099975630641">
        <ele>228.93000000000001</ele>
        <time>2025-05-03T13:04:12Z</time>
      </trkpt>
      <trkpt lat="41.006240984424949" lon="-8.466191003099084">
        <ele>228.93000000000001</ele>
        <time>2025-05-03T13:04:13Z</time>
      </trkpt>
      <trkpt lat="41.006217012181878" lon="-8.46628999337554">
        <ele>228.93000000000001</ele>
        <time>2025-05-03T13:04:15Z</time>
      </trkpt>
      <trkpt lat="41.006119027733803" lon="-8.466651001945138">
        <ele>229.88999999999999</ele>
        <time>2025-05-03T13:04:20Z</time>
      </trkpt>
      <trkpt lat="41.006083991378546" lon="-8.466639015823603">
        <ele>229.88999999999999</ele>
        <time>2025-05-03T13:04:21Z</time>
      </trkpt>
      <trkpt lat="41.006040992215276" lon="-8.466625018045306">
        <ele>229.88999999999999</ele>
        <time>2025-05-03T13:04:22Z</time>
      </trkpt>
      <trkpt lat="41.005784003064036" lon="-8.466537008062005">
        <ele>229.88999999999999</ele>
        <time>2025-05-03T13:04:27Z</time>
      </trkpt>
      <trkpt lat="41.005735974758863" lon="-8.466520998626947">
        <ele>229.88999999999999</ele>
        <time>2025-05-03T13:04:28Z</time>
      </trkpt>
      <trkpt lat="41.005687024444342" lon="-8.466503983363509">
        <ele>229.41</ele>
        <time>2025-05-03T13:04:29Z</time>
      </trkpt>
      <trkpt lat="41.005638996139169" lon="-8.466487973928452">
        <ele>229.41</ele>
        <time>2025-05-03T13:04:30Z</time>
      </trkpt>
      <trkpt lat="41.005595996975899" lon="-8.466472970321775">
        <ele>228.93000000000001</ele>
        <time>2025-05-03T13:04:31Z</time>
      </trkpt>
      <trkpt lat="41.005552997812629" lon="-8.466457966715097">
        <ele>228.93000000000001</ele>
        <time>2025-05-03T13:04:32Z</time>
      </trkpt>
      <trkpt lat="41.005511004477739" lon="-8.466443968936801">
        <ele>228.44999999999999</ele>
        <time>2025-05-03T13:04:33Z</time>
      </trkpt>
      <trkpt lat="41.005476973950863" lon="-8.466432988643646">
        <ele>228.44999999999999</ele>
        <time>2025-05-03T13:04:34Z</time>
      </trkpt>
      <trkpt lat="41.005453001707792" lon="-8.466425025835633">
        <ele>227.97</ele>
        <time>2025-05-03T13:04:35Z</time>
      </trkpt>
      <trkpt lat="41.005433974787593" lon="-8.466417985036969">
        <ele>227.97</ele>
        <time>2025-05-03T13:04:36Z</time>
      </trkpt>
      <trkpt lat="41.005415031686425" lon="-8.466412033885717">
        <ele>227.97</ele>
        <time>2025-05-03T13:04:37Z</time>
      </trkpt>
      <trkpt lat="41.005396004766226" lon="-8.466404993087053">
        <ele>227.49000000000001</ele>
        <time>2025-05-03T13:04:38Z</time>
      </trkpt>
      <trkpt lat="41.005376977846026" lon="-8.46639895811677">
        <ele>227.49000000000001</ele>
        <time>2025-05-03T13:04:39Z</time>
      </trkpt>
      <trkpt lat="41.005360968410969" lon="-8.466393006965518">
        <ele>227.00999999999999</ele>
        <time>2025-05-03T13:04:40Z</time>
      </trkpt>
      <trkpt lat="41.005360968410969" lon="-8.466393006965518">
        <ele>226.53</ele>
        <time>2025-05-03T13:04:56Z</time>
      </trkpt>
      <trkpt lat="41.005360968410969" lon="-8.466393006965518">
        <ele>226.53</ele>
        <time>2025-05-03T13:05:41Z</time>
      </trkpt>
      <trkpt lat="41.005344958975911" lon="-8.46644002944231">
        <ele>229.88999999999999</ele>
        <time>2025-05-03T13:08:50Z</time>
      </trkpt>
      <trkpt lat="41.005110014230013" lon="-8.46650599502027">
        <ele>236.13999999999999</ele>
        <time>2025-05-03T13:09:11Z</time>
      </trkpt>
      <trkpt lat="41.005072966217995" lon="-8.466496020555496">
        <ele>251.52000000000001</ele>
        <time>2025-05-03T13:09:49Z</time>
      </trkpt>
      <trkpt lat="41.005098028108478" lon="-8.466500965878367">
        <ele>252.47999999999999</ele>
        <time>2025-05-03T13:10:24Z</time>
      </trkpt>
      <trkpt lat="41.005105990916491" lon="-8.466494008898735">
        <ele>252.47999999999999</ele>
        <time>2025-05-03T13:10:57Z</time>
      </trkpt>
      <trkpt lat="41.005105990916491" lon="-8.466494008898735">
        <ele>252.47999999999999</ele>
        <time>2025-05-03T13:11:00Z</time>
      </trkpt>
      <trkpt lat="41.005140021443367" lon="-8.466317988932133">
        <ele>250.56</ele>
        <time>2025-05-03T13:11:04Z</time>
      </trkpt>
      <trkpt lat="41.005140021443367" lon="-8.466317988932133">
        <ele>246.72</ele>
        <time>2025-05-03T13:11:10Z</time>
      </trkpt>
      <trkpt lat="41.005140021443367" lon="-8.466317988932133">
        <ele>245.27000000000001</ele>
        <time>2025-05-03T13:11:11Z</time>
      </trkpt>
      <trkpt lat="41.005140021443367" lon="-8.466317988932133">
        <ele>244.78999999999999</ele>
        <time>2025-05-03T13:11:12Z</time>
      </trkpt>
      <trkpt lat="41.005140021443367" lon="-8.466317988932133">
        <ele>243.83000000000001</ele>
        <time>2025-05-03T13:11:13Z</time>
      </trkpt>
      <trkpt lat="41.005143960937858" lon="-8.466318994760513">
        <ele>243.34999999999999</ele>
        <time>2025-05-03T13:11:14Z</time>
      </trkpt>
      <trkpt lat="41.005143960937858" lon="-8.466318994760513">
        <ele>241.91</ele>
        <time>2025-05-03T13:11:30Z</time>
      </trkpt>
      <trkpt lat="41.005212021991611" lon="-8.466341961175203">
        <ele>239.50999999999999</ele>
        <time>2025-05-03T13:12:13Z</time>
      </trkpt>
      <trkpt lat="41.005258038640022" lon="-8.466357970610261">
        <ele>238.53999999999999</ele>
        <time>2025-05-03T13:12:14Z</time>
      </trkpt>
      <trkpt lat="41.005674032494426" lon="-8.466499038040638">
        <ele>234.22</ele>
        <time>2025-05-03T13:12:23Z</time>
      </trkpt>
      <trkpt lat="41.005687024444342" lon="-8.466503983363509">
        <ele>234.22</ele>
        <time>2025-05-03T13:12:24Z</time>
      </trkpt>
      <trkpt lat="41.005700016394258" lon="-8.466509012505412">
        <ele>233.74000000000001</ele>
        <time>2025-05-03T13:12:25Z</time>
      </trkpt>
      <trkpt lat="41.005763970315456" lon="-8.466114979237318">
        <ele>229.88999999999999</ele>
        <time>2025-05-03T13:12:33Z</time>
      </trkpt>
      <trkpt lat="41.005782997235656" lon="-8.466034010052681">
        <ele>227.97</ele>
        <time>2025-05-03T13:12:42Z</time>
      </trkpt>
      <trkpt lat="41.00585600361228" lon="-8.465889003127813">
        <ele>227.00999999999999</ele>
        <time>2025-05-03T13:12:46Z</time>
      </trkpt>
      <trkpt lat="41.005902020260692" lon="-8.465910041704774">
        <ele>226.53</ele>
        <time>2025-05-03T13:12:47Z</time>
      </trkpt>
      <trkpt lat="41.005966980010271" lon="-8.465939965099096">
        <ele>226.53</ele>
        <time>2025-05-03T13:12:48Z</time>
      </trkpt>
      <trkpt lat="41.006250036880374" lon="-8.466068962588906">
        <ele>227.00999999999999</ele>
        <time>2025-05-03T13:12:55Z</time>
      </trkpt>
      <trkpt lat="41.006296975538135" lon="-8.466010959818959">
        <ele>227.00999999999999</ele>
        <time>2025-05-03T13:12:56Z</time>
      </trkpt>
      <trkpt lat="41.006311979144812" lon="-8.465961003676057">
        <ele>227.00999999999999</ele>
        <time>2025-05-03T13:12:57Z</time>
      </trkpt>
      <trkpt lat="41.006327988579869" lon="-8.465889003127813">
        <ele>226.53</ele>
        <time>2025-05-03T13:12:58Z</time>
      </trkpt>
      <trkpt lat="41.006342992186546" lon="-8.465804010629654">
        <ele>226.05000000000001</ele>
        <time>2025-05-03T13:12:59Z</time>
      </trkpt>
      <trkpt lat="41.006359001621604" lon="-8.465714994817972">
        <ele>226.05000000000001</ele>
        <time>2025-05-03T13:13:00Z</time>
      </trkpt>
      <trkpt lat="41.006381968036294" lon="-8.465623967349529">
        <ele>225.56999999999999</ele>
        <time>2025-05-03T13:13:01Z</time>
      </trkpt>
      <trkpt lat="41.006623031571507" lon="-8.464604979380965">
        <ele>224.12</ele>
        <time>2025-05-03T13:13:10Z</time>
      </trkpt>
      <trkpt lat="41.00673702545464" lon="-8.464222010225058">
        <ele>223.63999999999999</ele>
        <time>2025-05-03T13:13:14Z</time>
      </trkpt>
      <trkpt lat="41.006827969104052" lon="-8.46401103772223">
        <ele>224.12</ele>
        <time>2025-05-03T13:13:16Z</time>
      </trkpt>
      <trkpt lat="41.006898041814566" lon="-8.46390500664711">
        <ele>224.61000000000001</ele>
        <time>2025-05-03T13:13:17Z</time>
      </trkpt>
      <trkpt lat="41.006986973807216" lon="-8.463829988613725">
        <ele>224.61000000000001</ele>
        <time>2025-05-03T13:13:18Z</time>
      </trkpt>
      <trkpt lat="41.007086969912052" lon="-8.463766034692526">
        <ele>225.09</ele>
        <time>2025-05-03T13:13:19Z</time>
      </trkpt>
      <trkpt lat="41.00718998350203" lon="-8.463711971417069">
        <ele>225.09</ele>
        <time>2025-05-03T13:13:20Z</time>
      </trkpt>
      <trkpt lat="41.007299032062292" lon="-8.463679030537605">
        <ele>225.09</ele>
        <time>2025-05-03T13:13:21Z</time>
      </trkpt>
      <trkpt lat="41.007401961833239" lon="-8.463648017495871">
        <ele>225.56999999999999</ele>
        <time>2025-05-03T13:13:22Z</time>
      </trkpt>
      <trkpt lat="41.007493995130062" lon="-8.463620021939278">
        <ele>225.56999999999999</ele>
        <time>2025-05-03T13:13:23Z</time>
      </trkpt>
      <trkpt lat="41.007836982607841" lon="-8.463508039712906">
        <ele>226.05000000000001</ele>
        <time>2025-05-03T13:13:27Z</time>
      </trkpt>
      <trkpt lat="41.00791803561151" lon="-8.463461017236114">
        <ele>226.05000000000001</ele>
        <time>2025-05-03T13:13:28Z</time>
      </trkpt>
      <trkpt lat="41.007990958169103" lon="-8.463390022516251">
        <ele>225.56999999999999</ele>
        <time>2025-05-03T13:13:29Z</time>
      </trkpt>
      <trkpt lat="41.008058013394475" lon="-8.463304024189711">
        <ele>226.05000000000001</ele>
        <time>2025-05-03T13:13:30Z</time>
      </trkpt>
      <trkpt lat="41.00811299867928" lon="-8.46321702003479">
        <ele>226.53</ele>
        <time>2025-05-03T13:13:31Z</time>
      </trkpt>
      <trkpt lat="41.008150968700647" lon="-8.463107971474528">
        <ele>227.00999999999999</ele>
        <time>2025-05-03T13:13:32Z</time>
      </trkpt>
      <trkpt lat="41.008189022541046" lon="-8.46300202421844">
        <ele>227.49000000000001</ele>
        <time>2025-05-03T13:13:33Z</time>
      </trkpt>
      <trkpt lat="41.008229004219174" lon="-8.462890964001417">
        <ele>227.49000000000001</ele>
        <time>2025-05-03T13:13:34Z</time>
      </trkpt>
      <trkpt lat="41.008591018617153" lon="-8.462007008492947">
        <ele>227.00999999999999</ele>
        <time>2025-05-03T13:13:42Z</time>
      </trkpt>
      <trkpt lat="41.008657990023494" lon="-8.461914975196123">
        <ele>227.00999999999999</ele>
        <time>2025-05-03T13:13:43Z</time>
      </trkpt>
      <trkpt lat="41.008724039420485" lon="-8.461839035153389">
        <ele>226.53</ele>
        <time>2025-05-03T13:13:44Z</time>
      </trkpt>
      <trkpt lat="41.008806014433503" lon="-8.461782960221171">
        <ele>226.53</ele>
        <time>2025-05-03T13:13:45Z</time>
      </trkpt>
      <trkpt lat="41.008887989446521" lon="-8.461725041270256">
        <ele>226.05000000000001</ele>
        <time>2025-05-03T13:13:46Z</time>
      </trkpt>
      <trkpt lat="41.0089719761163" lon="-8.461667960509658">
        <ele>226.05000000000001</ele>
        <time>2025-05-03T13:13:47Z</time>
      </trkpt>
      <trkpt lat="41.009059986099601" lon="-8.461656980216503">
        <ele>226.05000000000001</ele>
        <time>2025-05-03T13:13:48Z</time>
      </trkpt>
      <trkpt lat="41.009158976376057" lon="-8.461650023236871">
        <ele>226.05000000000001</ele>
        <time>2025-05-03T13:13:49Z</time>
      </trkpt>
      <trkpt lat="41.009257966652513" lon="-8.461643988266587">
        <ele>226.05000000000001</ele>
        <time>2025-05-03T13:13:50Z</time>
      </trkpt>
      <trkpt lat="41.009353017434478" lon="-8.461643988266587">
        <ele>225.56999999999999</ele>
        <time>2025-05-03T13:13:51Z</time>
      </trkpt>
      <trkpt lat="41.009881999343634" lon="-8.461682964116335">
        <ele>223.63999999999999</ele>
        <time>2025-05-03T13:13:57Z</time>
      </trkpt>
      <trkpt lat="41.009953999891877" lon="-8.461682964116335">
        <ele>223.63999999999999</ele>
        <time>2025-05-03T13:13:58Z</time>
      </trkpt>
      <trkpt lat="41.010397989302874" lon="-8.461538041010499">
        <ele>222.19999999999999</ele>
        <time>2025-05-03T13:14:03Z</time>
      </trkpt>
      <trkpt lat="41.010473007336259" lon="-8.461576011031866">
        <ele>221.72</ele>
        <time>2025-05-03T13:14:04Z</time>
      </trkpt>
      <trkpt lat="41.010504020377994" lon="-8.461651029065251">
        <ele>221.72</ele>
        <time>2025-05-03T13:14:05Z</time>
      </trkpt>
      <trkpt lat="41.010504020377994" lon="-8.461736021563411">
        <ele>221.24000000000001</ele>
        <time>2025-05-03T13:14:06Z</time>
      </trkpt>
      <trkpt lat="41.010482981801033" lon="-8.461790001019836">
        <ele>221.24000000000001</ele>
        <time>2025-05-03T13:14:07Z</time>
      </trkpt>
      <trkpt lat="41.01041198708117" lon="-8.461845992133021">
        <ele>221.72</ele>
        <time>2025-05-03T13:14:08Z</time>
      </trkpt>
      <trkpt lat="41.010340992361307" lon="-8.461899971589446">
        <ele>221.72</ele>
        <time>2025-05-03T13:14:09Z</time>
      </trkpt>
      <trkpt lat="41.010290030390024" lon="-8.461940037086606">
        <ele>221.72</ele>
        <time>2025-05-03T13:14:10Z</time>
      </trkpt>
      <trkpt lat="41.010150974616408" lon="-8.462113039568067">
        <ele>221.72</ele>
        <time>2025-05-03T13:14:11Z</time>
      </trkpt>
      <trkpt lat="41.010125996544957" lon="-8.462242037057877">
        <ele>221.72</ele>
        <time>2025-05-03T13:14:12Z</time>
      </trkpt>
      <trkpt lat="41.010098000988364" lon="-8.46238000318408">
        <ele>221.72</ele>
        <time>2025-05-03T13:14:13Z</time>
      </trkpt>
      <trkpt lat="41.010070005431771" lon="-8.462516963481903">
        <ele>221.24000000000001</ele>
        <time>2025-05-03T13:14:14Z</time>
      </trkpt>
      <trkpt lat="41.010043015703559" lon="-8.462651995941997">
        <ele>220.75999999999999</ele>
        <time>2025-05-03T13:14:15Z</time>
      </trkpt>
      <trkpt lat="41.009865989908576" lon="-8.463602000847459">
        <ele>216.43000000000001</ele>
        <time>2025-05-03T13:14:23Z</time>
      </trkpt>
      <trkpt lat="41.00998199544847" lon="-8.463902994990349">
        <ele>215.47</ele>
        <time>2025-05-03T13:14:25Z</time>
      </trkpt>
      <trkpt lat="41.009967997670174" lon="-8.463999973610044">
        <ele>215.47</ele>
        <time>2025-05-03T13:14:26Z</time>
      </trkpt>
      <trkpt lat="41.009897002950311" lon="-8.464375985786319">
        <ele>214.03</ele>
        <time>2025-05-03T13:14:28Z</time>
      </trkpt>
      <trkpt lat="41.009921981021762" lon="-8.464557034894824">
        <ele>213.55000000000001</ele>
        <time>2025-05-03T13:14:29Z</time>
      </trkpt>
      <trkpt lat="41.009974032640457" lon="-8.464732971042395">
        <ele>212.59</ele>
        <time>2025-05-03T13:14:30Z</time>
      </trkpt>
      <trkpt lat="41.010033963248134" lon="-8.464920977130532">
        <ele>211.63</ele>
        <time>2025-05-03T13:14:31Z</time>
      </trkpt>
      <trkpt lat="41.010096995159984" lon="-8.465116024017334">
        <ele>210.66999999999999</ele>
        <time>2025-05-03T13:14:32Z</time>
      </trkpt>
      <trkpt lat="41.01017402485013" lon="-8.465295983478427">
        <ele>209.22</ele>
        <time>2025-05-03T13:14:33Z</time>
      </trkpt>
      <trkpt lat="41.010263962671161" lon="-8.465478038415313">
        <ele>208.25999999999999</ele>
        <time>2025-05-03T13:14:34Z</time>
      </trkpt>
      <trkpt lat="41.010370999574661" lon="-8.465647017583251">
        <ele>207.30000000000001</ele>
        <time>2025-05-03T13:14:35Z</time>
      </trkpt>
      <trkpt lat="41.010482981801033" lon="-8.465823959559202">
        <ele>206.34</ele>
        <time>2025-05-03T13:14:36Z</time>
      </trkpt>
      <trkpt lat="41.010609967634082" lon="-8.465972989797592">
        <ele>204.90000000000001</ele>
        <time>2025-05-03T13:14:37Z</time>
      </trkpt>
      <trkpt lat="41.012062970548868" lon="-8.467649035155773">
        <ele>192.88</ele>
        <time>2025-05-03T13:14:47Z</time>
      </trkpt>
      <trkpt lat="41.013609012588859" lon="-8.469803016632795">
        <ele>182.78999999999999</ele>
        <time>2025-05-03T13:14:58Z</time>
      </trkpt>
      <trkpt lat="41.014113016426563" lon="-8.471590038388968">
        <ele>186.15000000000001</ele>
        <time>2025-05-03T13:15:06Z</time>
      </trkpt>
      <trkpt lat="41.014164984226227" lon="-8.471756000071764">
        <ele>187.11000000000001</ele>
        <time>2025-05-03T13:15:07Z</time>
      </trkpt>
      <trkpt lat="41.014215024188161" lon="-8.471892960369587">
        <ele>188.08000000000001</ele>
        <time>2025-05-03T13:15:08Z</time>
      </trkpt>
      <trkpt lat="41.014416022226214" lon="-8.472017012536526">
        <ele>189.52000000000001</ele>
        <time>2025-05-03T13:15:10Z</time>
      </trkpt>
      <trkpt lat="41.014441000297666" lon="-8.472180040553212">
        <ele>190</ele>
        <time>2025-05-03T13:15:11Z</time>
      </trkpt>
      <trkpt lat="41.014431025832891" lon="-8.472280958667398">
        <ele>190.47999999999999</ele>
        <time>2025-05-03T13:15:12Z</time>
      </trkpt>
      <trkpt lat="41.014350978657603" lon="-8.472536019980907">
        <ele>190.96000000000001</ele>
        <time>2025-05-03T13:15:14Z</time>
      </trkpt>
      <trkpt lat="41.014382997527719" lon="-8.472654037177563">
        <ele>191.44</ele>
        <time>2025-05-03T13:15:15Z</time>
      </trkpt>
      <trkpt lat="41.014415016397834" lon="-8.472770964726806">
        <ele>191.91999999999999</ele>
        <time>2025-05-03T13:15:16Z</time>
      </trkpt>
      <trkpt lat="41.014441000297666" lon="-8.472868027165532">
        <ele>192.40000000000001</ele>
        <time>2025-05-03T13:15:17Z</time>
      </trkpt>
      <trkpt lat="41.014462960883975" lon="-8.47295000217855">
        <ele>192.40000000000001</ele>
        <time>2025-05-03T13:15:18Z</time>
      </trkpt>
      <trkpt lat="41.014482993632555" lon="-8.473028037697077">
        <ele>192.88</ele>
        <time>2025-05-03T13:15:19Z</time>
      </trkpt>
      <trkpt lat="41.014524986967444" lon="-8.473193999379873">
        <ele>193.36000000000001</ele>
        <time>2025-05-03T13:15:21Z</time>
      </trkpt>
      <trkpt lat="41.014563962817192" lon="-8.473353004083037">
        <ele>193.36000000000001</ele>
        <time>2025-05-03T13:15:23Z</time>
      </trkpt>
      <trkpt lat="41.014705030247569" lon="-8.473903024569154">
        <ele>194.80000000000001</ele>
        <time>2025-05-03T13:15:32Z</time>
      </trkpt>
      <trkpt lat="41.014711987227201" lon="-8.473929008468986">
        <ele>194.80000000000001</ele>
        <time>2025-05-03T13:15:34Z</time>
      </trkpt>
      <trkpt lat="41.014711987227201" lon="-8.473929008468986">
        <ele>195.28</ele>
        <time>2025-05-03T13:15:50Z</time>
      </trkpt>
      <trkpt lat="41.014722967520356" lon="-8.473972007632256">
        <ele>195.28</ele>
        <time>2025-05-03T13:16:18Z</time>
      </trkpt>
      <trkpt lat="41.01479597389698" lon="-8.474241988733411">
        <ele>196.72999999999999</ele>
        <time>2025-05-03T13:16:21Z</time>
      </trkpt>
      <trkpt lat="41.015057992190123" lon="-8.475258965045214">
        <ele>197.21000000000001</ele>
        <time>2025-05-03T13:16:30Z</time>
      </trkpt>
      <trkpt lat="41.015095040202141" lon="-8.475370025262237">
        <ele>197.21000000000001</ele>
        <time>2025-05-03T13:16:31Z</time>
      </trkpt>
      <trkpt lat="41.015446996316314" lon="-8.476481968536973">
        <ele>196.72999999999999</ele>
        <time>2025-05-03T13:16:38Z</time>
      </trkpt>
      <trkpt lat="41.015859972685575" lon="-8.477279003709555">
        <ele>193.36000000000001</ele>
        <time>2025-05-03T13:16:42Z</time>
      </trkpt>
      <trkpt lat="41.015991987660527" lon="-8.477458963170648">
        <ele>191.91999999999999</ele>
        <time>2025-05-03T13:16:43Z</time>
      </trkpt>
      <trkpt lat="41.016122996807098" lon="-8.477622997015715">
        <ele>190.96000000000001</ele>
        <time>2025-05-03T13:16:44Z</time>
      </trkpt>
      <trkpt lat="41.016413010656834" lon="-8.477874035015702">
        <ele>188.56</ele>
        <time>2025-05-03T13:16:46Z</time>
      </trkpt>
      <trkpt lat="41.016880972310901" lon="-8.47814803943038">
        <ele>185.19</ele>
        <time>2025-05-03T13:16:49Z</time>
      </trkpt>
      <trkpt lat="41.018325006589293" lon="-8.478659000247717">
        <ele>180.38</ele>
        <time>2025-05-03T13:16:57Z</time>
      </trkpt>
      <trkpt lat="41.019825031980872" lon="-8.478779029101133">
        <ele>175.09999999999999</ele>
        <time>2025-05-03T13:17:04Z</time>
      </trkpt>
      <trkpt lat="41.02108902297914" lon="-8.478585993871093">
        <ele>171.25</ele>
        <time>2025-05-03T13:17:10Z</time>
      </trkpt>
      <trkpt lat="41.023099003359675" lon="-8.478263961151242">
        <ele>165.47999999999999</ele>
        <time>2025-05-03T13:17:19Z</time>
      </trkpt>
      <trkpt lat="41.024733977392316" lon="-8.47847199998796">
        <ele>161.63999999999999</ele>
        <time>2025-05-03T13:17:26Z</time>
      </trkpt>
      <trkpt lat="41.026369035243988" lon="-8.479300970211625">
        <ele>157.31</ele>
        <time>2025-05-03T13:17:33Z</time>
      </trkpt>
      <trkpt lat="41.027733022347093" lon="-8.480624975636601">
        <ele>152.03</ele>
        <time>2025-05-03T13:17:40Z</time>
      </trkpt>
      <trkpt lat="41.02895300835371" lon="-8.482836959883571">
        <ele>144.34</ele>
        <time>2025-05-03T13:17:48Z</time>
      </trkpt>
      <trkpt lat="41.02966102771461" lon="-8.485378017649055">
        <ele>133.75999999999999</ele>
        <time>2025-05-03T13:17:56Z</time>
      </trkpt>
      <trkpt lat="41.030610026791692" lon="-8.488327022641897">
        <ele>118.86</ele>
        <time>2025-05-03T13:18:05Z</time>
      </trkpt>
      <trkpt lat="41.031824983656406" lon="-8.490111026912928">
        <ele>112.13</ele>
        <time>2025-05-03T13:18:12Z</time>
      </trkpt>
      <trkpt lat="41.033302964642644" lon="-8.491316009312868">
        <ele>111.17</ele>
        <time>2025-05-03T13:18:19Z</time>
      </trkpt>
      <trkpt lat="41.035585021600127" lon="-8.492430970072746">
        <ele>119.81999999999999</ele>
        <time>2025-05-03T13:18:29Z</time>
      </trkpt>
      <trkpt lat="41.038637040182948" lon="-8.49383301101625">
        <ele>137.13</ele>
        <time>2025-05-03T13:18:43Z</time>
      </trkpt>
      <trkpt lat="41.039645969867706" lon="-8.494272977113724">
        <ele>144.81999999999999</ele>
        <time>2025-05-03T13:18:49Z</time>
      </trkpt>
      <trkpt lat="41.039902037009597" lon="-8.49428697489202">
        <ele>146.74000000000001</ele>
        <time>2025-05-03T13:18:51Z</time>
      </trkpt>
      <trkpt lat="41.040011001750827" lon="-8.494296027347446">
        <ele>147.22</ele>
        <time>2025-05-03T13:18:52Z</time>
      </trkpt>
      <trkpt lat="41.040112003684044" lon="-8.494277000427246">
        <ele>147.69999999999999</ele>
        <time>2025-05-03T13:18:53Z</time>
      </trkpt>
      <trkpt lat="41.040219962596893" lon="-8.494237018749118">
        <ele>148.18000000000001</ele>
        <time>2025-05-03T13:18:54Z</time>
      </trkpt>
      <trkpt lat="41.04031995870173" lon="-8.494174992665649">
        <ele>148.18000000000001</ele>
        <time>2025-05-03T13:18:55Z</time>
      </trkpt>
      <trkpt lat="41.040412997826934" lon="-8.494068961590529">
        <ele>148.18000000000001</ele>
        <time>2025-05-03T13:18:56Z</time>
      </trkpt>
      <trkpt lat="41.040484998375177" lon="-8.493934012949467">
        <ele>148.18000000000001</ele>
        <time>2025-05-03T13:18:57Z</time>
      </trkpt>
      <trkpt lat="41.040527997538447" lon="-8.493777019903064">
        <ele>148.18000000000001</ele>
        <time>2025-05-03T13:18:58Z</time>
      </trkpt>
      <trkpt lat="41.040539983659983" lon="-8.493606029078364">
        <ele>147.69999999999999</ele>
        <time>2025-05-03T13:18:59Z</time>
      </trkpt>
      <trkpt lat="41.040531015023589" lon="-8.493436966091394">
        <ele>147.22</ele>
        <time>2025-05-03T13:19:00Z</time>
      </trkpt>
      <trkpt lat="41.040502013638616" lon="-8.493247032165527">
        <ele>146.74000000000001</ele>
        <time>2025-05-03T13:19:01Z</time>
      </trkpt>
      <trkpt lat="41.040424983948469" lon="-8.493115017190576">
        <ele>146.25999999999999</ele>
        <time>2025-05-03T13:19:02Z</time>
      </trkpt>
      <trkpt lat="41.040328005328774" lon="-8.49297403357923">
        <ele>145.30000000000001</ele>
        <time>2025-05-03T13:19:03Z</time>
      </trkpt>
      <trkpt lat="41.040207976475358" lon="-8.492893986403942">
        <ele>144.34</ele>
        <time>2025-05-03T13:19:04Z</time>
      </trkpt>
      <trkpt lat="41.040080990642309" lon="-8.492850987240672">
        <ele>142.88999999999999</ele>
        <time>2025-05-03T13:19:05Z</time>
      </trkpt>
      <trkpt lat="41.039949981495738" lon="-8.492851993069053">
        <ele>141.93000000000001</ele>
        <time>2025-05-03T13:19:06Z</time>
      </trkpt>
      <trkpt lat="41.039817966520786" lon="-8.492895998060703">
        <ele>140.49000000000001</ele>
        <time>2025-05-03T13:19:07Z</time>
      </trkpt>
      <trkpt lat="41.03969500400126" lon="-8.492989959195256">
        <ele>139.53</ele>
        <time>2025-05-03T13:19:08Z</time>
      </trkpt>
      <trkpt lat="41.039570029824972" lon="-8.493100013583899">
        <ele>138.56999999999999</ele>
        <time>2025-05-03T13:19:09Z</time>
      </trkpt>
      <trkpt lat="41.039441032335162" lon="-8.493213001638651">
        <ele>137.61000000000001</ele>
        <time>2025-05-03T13:19:10Z</time>
      </trkpt>
      <trkpt lat="41.039307005703449" lon="-8.493330013006926">
        <ele>137.13</ele>
        <time>2025-05-03T13:19:11Z</time>
      </trkpt>
      <trkpt lat="41.038775006309152" lon="-8.493861006572843">
        <ele>134.72</ele>
        <time>2025-05-03T13:19:15Z</time>
      </trkpt>
      <trkpt lat="41.038637040182948" lon="-8.494013976305723">
        <ele>134.24000000000001</ele>
        <time>2025-05-03T13:19:16Z</time>
      </trkpt>
      <trkpt lat="41.038151979446411" lon="-8.494423013180494">
        <ele>132.31999999999999</ele>
        <time>2025-05-03T13:19:19Z</time>
      </trkpt>
      <trkpt lat="41.037978976964951" lon="-8.494545975700021">
        <ele>131.36000000000001</ele>
        <time>2025-05-03T13:19:20Z</time>
      </trkpt>
      <trkpt lat="41.037802034988999" lon="-8.49465100094676">
        <ele>130.40000000000001</ele>
        <time>2025-05-03T13:19:21Z</time>
      </trkpt>
      <trkpt lat="41.035995986312628" lon="-8.495324989780784">
        <ele>123.19</ele>
        <time>2025-05-03T13:19:30Z</time>
      </trkpt>
      <trkpt lat="41.034293035045266" lon="-8.495223987847567">
        <ele>118.86</ele>
        <time>2025-05-03T13:19:38Z</time>
      </trkpt>
      <trkpt lat="41.031751977279782" lon="-8.494882006198168">
        <ele>110.20999999999999</ele>
        <time>2025-05-03T13:19:50Z</time>
      </trkpt>
      <trkpt lat="41.030225967988372" lon="-8.495242008939385">
        <ele>104.44</ele>
        <time>2025-05-03T13:19:58Z</time>
      </trkpt>
      <trkpt lat="41.029743002727628" lon="-8.495494974777103">
        <ele>103.48</ele>
        <time>2025-05-03T13:20:01Z</time>
      </trkpt>
      <trkpt lat="41.029579974710941" lon="-8.495586002245545">
        <ele>103</ele>
        <time>2025-05-03T13:20:02Z</time>
      </trkpt>
      <trkpt lat="41.029501017183065" lon="-8.495834022760391">
        <ele>103</ele>
        <time>2025-05-03T13:20:03Z</time>
      </trkpt>
      <trkpt lat="41.029395991936326" lon="-8.496019011363387">
        <ele>103.48</ele>
        <time>2025-05-03T13:20:04Z</time>
      </trkpt>
      <trkpt lat="41.029293984174728" lon="-8.496222021058202">
        <ele>103.95999999999999</ele>
        <time>2025-05-03T13:20:05Z</time>
      </trkpt>
      <trkpt lat="41.02882300503552" lon="-8.497201027348638">
        <ele>110.20999999999999</ele>
        <time>2025-05-03T13:20:10Z</time>
      </trkpt>
      <trkpt lat="41.028771037235856" lon="-8.497370006516576">
        <ele>111.65000000000001</ele>
        <time>2025-05-03T13:20:11Z</time>
      </trkpt>
      <trkpt lat="41.028742035850883" lon="-8.497544014826417">
        <ele>112.61</ele>
        <time>2025-05-03T13:20:12Z</time>
      </trkpt>
      <trkpt lat="41.028728960081935" lon="-8.497724980115891">
        <ele>113.56999999999999</ele>
        <time>2025-05-03T13:20:13Z</time>
      </trkpt>
      <trkpt lat="41.028752010315657" lon="-8.497897982597351">
        <ele>114.05</ele>
        <time>2025-05-03T13:20:14Z</time>
      </trkpt>
      <trkpt lat="41.028773970901966" lon="-8.49806503392756">
        <ele>115.01000000000001</ele>
        <time>2025-05-03T13:20:15Z</time>
      </trkpt>
      <trkpt lat="41.028814958408475" lon="-8.498230995610356">
        <ele>115.98</ele>
        <time>2025-05-03T13:20:16Z</time>
      </trkpt>
      <trkpt lat="41.028873967006803" lon="-8.498377008363605">
        <ele>116.94</ele>
        <time>2025-05-03T13:20:17Z</time>
      </trkpt>
      <trkpt lat="41.02893297560513" lon="-8.49851899780333">
        <ele>117.90000000000001</ele>
        <time>2025-05-03T13:20:18Z</time>
      </trkpt>
      <trkpt lat="41.02901604026556" lon="-8.498672973364592">
        <ele>118.38</ele>
        <time>2025-05-03T13:20:19Z</time>
      </trkpt>
      <trkpt lat="41.029105978086591" lon="-8.498771041631699">
        <ele>119.34</ele>
        <time>2025-05-03T13:20:20Z</time>
      </trkpt>
      <trkpt lat="41.02918703109026" lon="-8.498858967795968">
        <ele>119.81999999999999</ele>
        <time>2025-05-03T13:20:21Z</time>
      </trkpt>
      <trkpt lat="41.029744008556008" lon="-8.499422986060381">
        <ele>124.15000000000001</ele>
        <time>2025-05-03T13:20:30Z</time>
      </trkpt>
      <trkpt lat="41.029875017702579" lon="-8.49954997189343">
        <ele>125.59</ele>
        <time>2025-05-03T13:20:38Z</time>
      </trkpt>
      <trkpt lat="41.029875017702579" lon="-8.49954997189343">
        <ele>125.59</ele>
        <time>2025-05-03T13:21:15Z</time>
      </trkpt>
      <trkpt lat="41.029875017702579" lon="-8.49954997189343">
        <ele>125.11</ele>
        <time>2025-05-03T13:22:03Z</time>
      </trkpt>
      <trkpt lat="41.030006026849151" lon="-8.499680981040001">
        <ele>126.06999999999999</ele>
        <time>2025-05-03T13:22:42Z</time>
      </trkpt>
      <trkpt lat="41.030309032648802" lon="-8.499983986839652">
        <ele>128.47</ele>
        <time>2025-05-03T13:22:48Z</time>
      </trkpt>
      <trkpt lat="41.030421014875174" lon="-8.500090017914772">
        <ele>129.43000000000001</ele>
        <time>2025-05-03T13:22:56Z</time>
      </trkpt>
      <trkpt lat="41.030468037351966" lon="-8.500133017078042">
        <ele>129.91999999999999</ele>
        <time>2025-05-03T13:23:25Z</time>
      </trkpt>
      <trkpt lat="41.030524028465152" lon="-8.500184984877706">
        <ele>129.43000000000001</ele>
        <time>2025-05-03T13:23:26Z</time>
      </trkpt>
      <trkpt lat="41.030631987378001" lon="-8.500284980982542">
        <ele>128.94999999999999</ele>
        <time>2025-05-03T13:23:28Z</time>
      </trkpt>
      <trkpt lat="41.030702982097864" lon="-8.500341977924109">
        <ele>128.94999999999999</ele>
        <time>2025-05-03T13:23:29Z</time>
      </trkpt>
      <trkpt lat="41.030774982646108" lon="-8.500399980694056">
        <ele>128.47</ele>
        <time>2025-05-03T13:23:30Z</time>
      </trkpt>
      <trkpt lat="41.030845977365971" lon="-8.500456977635622">
        <ele>128.47</ele>
        <time>2025-05-03T13:23:31Z</time>
      </trkpt>
      <trkpt lat="41.030937004834414" lon="-8.500480027869344">
        <ele>128.47</ele>
        <time>2025-05-03T13:23:32Z</time>
      </trkpt>
      <trkpt lat="41.03103700093925" lon="-8.500505005940795">
        <ele>128.47</ele>
        <time>2025-05-03T13:23:33Z</time>
      </trkpt>
      <trkpt lat="41.031138002872467" lon="-8.500521015375853">
        <ele>128.47</ele>
        <time>2025-05-03T13:23:34Z</time>
      </trkpt>
      <trkpt lat="41.031255014240742" lon="-8.500521015375853">
        <ele>128.47</ele>
        <time>2025-05-03T13:23:35Z</time>
      </trkpt>
      <trkpt lat="41.031383005902171" lon="-8.500521015375853">
        <ele>128.47</ele>
        <time>2025-05-03T13:23:36Z</time>
      </trkpt>
      <trkpt lat="41.031488031148911" lon="-8.500479022040963">
        <ele>128.47</ele>
        <time>2025-05-03T13:23:37Z</time>
      </trkpt>
      <trkpt lat="41.031602025032043" lon="-8.50043099373579">
        <ele>128.47</ele>
        <time>2025-05-03T13:23:38Z</time>
      </trkpt>
      <trkpt lat="41.031697997823358" lon="-8.500355975702405">
        <ele>127.98999999999999</ele>
        <time>2025-05-03T13:23:39Z</time>
      </trkpt>
      <trkpt lat="41.031785001978278" lon="-8.500287998467684">
        <ele>127.98999999999999</ele>
        <time>2025-05-03T13:23:40Z</time>
      </trkpt>
      <trkpt lat="41.031897990033031" lon="-8.500198982656002">
        <ele>128.47</ele>
        <time>2025-05-03T13:23:41Z</time>
      </trkpt>
      <trkpt lat="41.031947024166584" lon="-8.500142991542816">
        <ele>128.94999999999999</ele>
        <time>2025-05-03T13:23:42Z</time>
      </trkpt>
      <trkpt lat="41.032008966431022" lon="-8.500071996822953">
        <ele>128.94999999999999</ele>
        <time>2025-05-03T13:23:43Z</time>
      </trkpt>
      <trkpt lat="41.032066969200969" lon="-8.500005025416613">
        <ele>129.43000000000001</ele>
        <time>2025-05-03T13:23:44Z</time>
      </trkpt>
      <trkpt lat="41.032122960314155" lon="-8.499941993504763">
        <ele>129.43000000000001</ele>
        <time>2025-05-03T13:23:45Z</time>
      </trkpt>
      <trkpt lat="41.032134024426341" lon="-8.499619960784912">
        <ele>129.43000000000001</ele>
        <time>2025-05-03T13:23:46Z</time>
      </trkpt>
      <trkpt lat="41.032134024426341" lon="-8.499619960784912">
        <ele>128.94999999999999</ele>
        <time>2025-05-03T13:23:47Z</time>
      </trkpt>
      <trkpt lat="41.03217601776123" lon="-8.499447964131832">
        <ele>128.94999999999999</ele>
        <time>2025-05-03T13:23:48Z</time>
      </trkpt>
      <trkpt lat="41.032223962247372" lon="-8.499417034909129">
        <ele>128.94999999999999</ele>
        <time>2025-05-03T13:23:49Z</time>
      </trkpt>
      <trkpt lat="41.032299986109138" lon="-8.499365989118815">
        <ele>128.94999999999999</ele>
        <time>2025-05-03T13:23:50Z</time>
      </trkpt>
      <trkpt lat="41.032444993034005" lon="-8.499362971633673">
        <ele>128.94999999999999</ele>
        <time>2025-05-03T13:23:51Z</time>
      </trkpt>
      <trkpt lat="41.032550018280745" lon="-8.499481994658709">
        <ele>128.94999999999999</ele>
        <time>2025-05-03T13:23:52Z</time>
      </trkpt>
      <trkpt lat="41.032592011615634" lon="-8.499587019905448">
        <ele>128.94999999999999</ele>
        <time>2025-05-03T13:23:53Z</time>
      </trkpt>
      <trkpt lat="41.032567033544183" lon="-8.499773014336824">
        <ele>128.94999999999999</ele>
        <time>2025-05-03T13:23:54Z</time>
      </trkpt>
      <trkpt lat="41.032497966662049" lon="-8.499898994341493">
        <ele>128.94999999999999</ele>
        <time>2025-05-03T13:23:55Z</time>
      </trkpt>
      <trkpt lat="41.03252001106739" lon="-8.500070990994573">
        <ele>129.43000000000001</ele>
        <time>2025-05-03T13:23:56Z</time>
      </trkpt>
      <trkpt lat="41.032510958611965" lon="-8.50019202567637">
        <ele>129.43000000000001</ele>
        <time>2025-05-03T13:23:57Z</time>
      </trkpt>
      <trkpt lat="41.03249997831881" lon="-8.500348012894392">
        <ele>129.43000000000001</ele>
        <time>2025-05-03T13:23:58Z</time>
      </trkpt>
      <trkpt lat="41.032441975548863" lon="-8.500484973192215">
        <ele>129.91999999999999</ele>
        <time>2025-05-03T13:23:59Z</time>
      </trkpt>
      <trkpt lat="41.032372992485762" lon="-8.500570971518755">
        <ele>129.91999999999999</ele>
        <time>2025-05-03T13:24:00Z</time>
      </trkpt>
      <trkpt lat="41.032272996380925" lon="-8.500641966238618">
        <ele>129.91999999999999</ele>
        <time>2025-05-03T13:24:01Z</time>
      </trkpt>
      <trkpt lat="41.032163025811315" lon="-8.500721007585526">
        <ele>130.40000000000001</ele>
        <time>2025-05-03T13:24:02Z</time>
      </trkpt>
      <trkpt lat="41.031627003103495" lon="-8.501114035025239">
        <ele>131.84</ele>
        <time>2025-05-03T13:24:07Z</time>
      </trkpt>
      <trkpt lat="41.031576963141561" lon="-8.501162985339761">
        <ele>132.31999999999999</ele>
        <time>2025-05-03T13:24:08Z</time>
      </trkpt>
      <trkpt lat="41.031543016433716" lon="-8.501198021695018">
        <ele>132.80000000000001</ele>
        <time>2025-05-03T13:24:09Z</time>
      </trkpt>
      <trkpt lat="41.031523989513516" lon="-8.501327019184828">
        <ele>132.80000000000001</ele>
        <time>2025-05-03T13:24:10Z</time>
      </trkpt>
      <trkpt lat="41.031561037525535" lon="-8.501364989206195">
        <ele>133.28</ele>
        <time>2025-05-03T13:24:11Z</time>
      </trkpt>
      <trkpt lat="41.031614011153579" lon="-8.501417962834239">
        <ele>133.75999999999999</ele>
        <time>2025-05-03T13:24:12Z</time>
      </trkpt>
      <trkpt lat="41.031684000045061" lon="-8.501488035544753">
        <ele>134.24000000000001</ele>
        <time>2025-05-03T13:24:13Z</time>
      </trkpt>
      <trkpt lat="41.031759018078446" lon="-8.501562969759107">
        <ele>135.19999999999999</ele>
        <time>2025-05-03T13:24:14Z</time>
      </trkpt>
      <trkpt lat="41.032246006652713" lon="-8.502116007730365">
        <ele>142.41</ele>
        <time>2025-05-03T13:24:22Z</time>
      </trkpt>
      <trkpt lat="41.032276013866067" lon="-8.502155989408493">
        <ele>142.88999999999999</ele>
        <time>2025-05-03T13:24:23Z</time>
      </trkpt>
      <trkpt lat="41.03230400942266" lon="-8.50219395942986">
        <ele>143.84999999999999</ele>
        <time>2025-05-03T13:24:24Z</time>
      </trkpt>
      <trkpt lat="41.032334016636014" lon="-8.50223301909864">
        <ele>144.34</ele>
        <time>2025-05-03T13:24:25Z</time>
      </trkpt>
      <trkpt lat="41.032419009134173" lon="-8.50225699134171">
        <ele>144.81999999999999</ele>
        <time>2025-05-03T13:24:26Z</time>
      </trkpt>
      <trkpt lat="41.032479023560882" lon="-8.502227989956737">
        <ele>145.30000000000001</ele>
        <time>2025-05-03T13:24:27Z</time>
      </trkpt>
      <trkpt lat="41.032544989138842" lon="-8.502195971086621">
        <ele>146.25999999999999</ele>
        <time>2025-05-03T13:24:28Z</time>
      </trkpt>
      <trkpt lat="41.032617995515466" lon="-8.502160012722015">
        <ele>146.74000000000001</ele>
        <time>2025-05-03T13:24:29Z</time>
      </trkpt>
      <trkpt lat="41.032702988013625" lon="-8.502119025215507">
        <ele>147.22</ele>
        <time>2025-05-03T13:24:30Z</time>
      </trkpt>
      <trkpt lat="41.033086040988564" lon="-8.50193303078413">
        <ele>149.13999999999999</ele>
        <time>2025-05-03T13:24:34Z</time>
      </trkpt>
      <trkpt lat="41.033220989629626" lon="-8.501921966671944">
        <ele>150.09999999999999</ele>
        <time>2025-05-03T13:24:35Z</time>
      </trkpt>
      <trkpt lat="41.033348981291056" lon="-8.501930013298988">
        <ele>151.06</ele>
        <time>2025-05-03T13:24:36Z</time>
      </trkpt>
      <trkpt lat="41.034593023359776" lon="-8.502110978588462">
        <ele>164.03999999999999</ele>
        <time>2025-05-03T13:24:45Z</time>
      </trkpt>
      <trkpt lat="41.034700982272625" lon="-8.502142997458577">
        <ele>165.47999999999999</ele>
        <time>2025-05-03T13:24:46Z</time>
      </trkpt>
      <trkpt lat="41.034799972549081" lon="-8.502253973856568">
        <ele>166.93000000000001</ele>
        <time>2025-05-03T13:24:47Z</time>
      </trkpt>
      <trkpt lat="41.034872978925705" lon="-8.50236201658845">
        <ele>168.37</ele>
        <time>2025-05-03T13:24:48Z</time>
      </trkpt>
      <trkpt lat="41.03494699113071" lon="-8.502469975501299">
        <ele>169.33000000000001</ele>
        <time>2025-05-03T13:24:49Z</time>
      </trkpt>
      <trkpt lat="41.035023014992476" lon="-8.502581035718322">
        <ele>170.77000000000001</ele>
        <time>2025-05-03T13:24:50Z</time>
      </trkpt>
      <trkpt lat="41.035128040239215" lon="-8.502868032082915">
        <ele>172.69</ele>
        <time>2025-05-03T13:24:52Z</time>
      </trkpt>
      <trkpt lat="41.035158969461918" lon="-8.502967022359371">
        <ele>173.66</ele>
        <time>2025-05-03T13:24:53Z</time>
      </trkpt>
      <trkpt lat="41.035158969461918" lon="-8.503124015405774">
        <ele>174.62</ele>
        <time>2025-05-03T13:24:54Z</time>
      </trkpt>
      <trkpt lat="41.035158969461918" lon="-8.503401037305594">
        <ele>176.06</ele>
        <time>2025-05-03T13:24:56Z</time>
      </trkpt>
      <trkpt lat="41.035158969461918" lon="-8.503518970683217">
        <ele>177.02000000000001</ele>
        <time>2025-05-03T13:24:57Z</time>
      </trkpt>
      <trkpt lat="41.035227030515671" lon="-8.503636987879872">
        <ele>177.97999999999999</ele>
        <time>2025-05-03T13:24:58Z</time>
      </trkpt>
      <trkpt lat="41.035300036892295" lon="-8.503663977608085">
        <ele>178.94</ele>
        <time>2025-05-03T13:24:59Z</time>
      </trkpt>
      <trkpt lat="41.035382011905313" lon="-8.503694990649819">
        <ele>180.38</ele>
        <time>2025-05-03T13:25:00Z</time>
      </trkpt>
      <trkpt lat="41.03546398691833" lon="-8.503726003691554">
        <ele>181.34999999999999</ele>
        <time>2025-05-03T13:25:01Z</time>
      </trkpt>
      <trkpt lat="41.035536993294954" lon="-8.503752993419766">
        <ele>182.31</ele>
        <time>2025-05-03T13:25:02Z</time>
      </trkpt>
      <trkpt lat="41.035606982186437" lon="-8.503778977319598">
        <ele>182.78999999999999</ele>
        <time>2025-05-03T13:25:03Z</time>
      </trkpt>
      <trkpt lat="41.035780990496278" lon="-8.503844020888209">
        <ele>186.63</ele>
        <time>2025-05-03T13:25:08Z</time>
      </trkpt>
      <trkpt lat="41.035801023244858" lon="-8.503851983696222">
        <ele>187.59</ele>
        <time>2025-05-03T13:25:09Z</time>
      </trkpt>
      <trkpt lat="41.035830024629831" lon="-8.503862963989377">
        <ele>188.56</ele>
        <time>2025-05-03T13:25:10Z</time>
      </trkpt>
      <trkpt lat="41.035841004922986" lon="-8.50393102504313">
        <ele>189.03999999999999</ele>
        <time>2025-05-03T13:25:11Z</time>
      </trkpt>
      <trkpt lat="41.035833964124322" lon="-8.504028003662825">
        <ele>189.03999999999999</ele>
        <time>2025-05-03T13:25:12Z</time>
      </trkpt>
      <trkpt lat="41.035826001316309" lon="-8.504140991717577">
        <ele>189.52000000000001</ele>
        <time>2025-05-03T13:25:13Z</time>
      </trkpt>
      <trkpt lat="41.035817032679915" lon="-8.504265965893865">
        <ele>189.52000000000001</ele>
        <time>2025-05-03T13:25:14Z</time>
      </trkpt>
      <trkpt lat="41.03580697439611" lon="-8.504403010010719">
        <ele>189.52000000000001</ele>
        <time>2025-05-03T13:25:15Z</time>
      </trkpt>
      <trkpt lat="41.035703960806131" lon="-8.505811002105475">
        <ele>188.08000000000001</ele>
        <time>2025-05-03T13:25:24Z</time>
      </trkpt>
      <trkpt lat="41.035670014098287" lon="-8.506697975099087">
        <ele>187.11000000000001</ele>
        <time>2025-05-03T13:25:30Z</time>
      </trkpt>
      <trkpt lat="41.035708989948034" lon="-8.506838036701083">
        <ele>187.11000000000001</ele>
        <time>2025-05-03T13:25:31Z</time>
      </trkpt>
      <trkpt lat="41.035761963576078" lon="-8.506974996998906">
        <ele>187.11000000000001</ele>
        <time>2025-05-03T13:25:32Z</time>
      </trkpt>
      <trkpt lat="41.036255992949009" lon="-8.508385000750423">
        <ele>192.40000000000001</ele>
        <time>2025-05-03T13:25:42Z</time>
      </trkpt>
      <trkpt lat="41.036650026217103" lon="-8.509684028103948">
        <ele>198.65000000000001</ele>
        <time>2025-05-03T13:25:51Z</time>
      </trkpt>
      <trkpt lat="41.036951020359993" lon="-8.510616011917591">
        <ele>202.49000000000001</ele>
        <time>2025-05-03T13:25:58Z</time>
      </trkpt>
      <trkpt lat="41.0370749887079" lon="-8.51100099273026">
        <ele>203.46000000000001</ele>
        <time>2025-05-03T13:26:02Z</time>
      </trkpt>
      <trkpt lat="41.037186970934272" lon="-8.511208025738597">
        <ele>204.41999999999999</ele>
        <time>2025-05-03T13:26:07Z</time>
      </trkpt>
      <trkpt lat="41.037472039461136" lon="-8.511694008484483">
        <ele>205.38</ele>
        <time>2025-05-03T13:26:13Z</time>
      </trkpt>
      <trkpt lat="41.03823303245008" lon="-8.512925980612636">
        <ele>209.69999999999999</ele>
        <time>2025-05-03T13:26:25Z</time>
      </trkpt>
      <trkpt lat="41.038480969145894" lon="-8.51353601552546">
        <ele>209.69999999999999</ele>
        <time>2025-05-03T13:26:30Z</time>
      </trkpt>
      <trkpt lat="41.038536038249731" lon="-8.513779006898403">
        <ele>208.74000000000001</ele>
        <time>2025-05-03T13:26:32Z</time>
      </trkpt>
      <trkpt lat="41.038564033806324" lon="-8.513903981074691">
        <ele>208.25999999999999</ele>
        <time>2025-05-03T13:26:33Z</time>
      </trkpt>
      <trkpt lat="41.03855699300766" lon="-8.514039013534784">
        <ele>207.30000000000001</ele>
        <time>2025-05-03T13:26:34Z</time>
      </trkpt>
      <trkpt lat="41.038537966087461" lon="-8.514178991317749">
        <ele>206.81999999999999</ele>
        <time>2025-05-03T13:26:35Z</time>
      </trkpt>
      <trkpt lat="41.038520028814673" lon="-8.514317963272333">
        <ele>206.34</ele>
        <time>2025-05-03T13:26:36Z</time>
      </trkpt>
      <trkpt lat="41.03844802826643" lon="-8.514864966273308">
        <ele>202.49000000000001</ele>
        <time>2025-05-03T13:26:41Z</time>
      </trkpt>
      <trkpt lat="41.038439981639385" lon="-8.514922969043255">
        <ele>202.00999999999999</ele>
        <time>2025-05-03T13:26:42Z</time>
      </trkpt>
      <trkpt lat="41.038453979417682" lon="-8.515088008716703">
        <ele>200.09</ele>
        <time>2025-05-03T13:26:44Z</time>
      </trkpt>
      <trkpt lat="41.038509970530868" lon="-8.515119021758437">
        <ele>199.13</ele>
        <time>2025-05-03T13:26:45Z</time>
      </trkpt>
      <trkpt lat="41.038585994392633" lon="-8.515162020921707">
        <ele>198.16999999999999</ele>
        <time>2025-05-03T13:26:46Z</time>
      </trkpt>
      <trkpt lat="41.038678027689457" lon="-8.515216000378132">
        <ele>197.69</ele>
        <time>2025-05-03T13:26:47Z</time>
      </trkpt>
      <trkpt lat="41.038775006309152" lon="-8.51527601480484">
        <ele>196.72999999999999</ele>
        <time>2025-05-03T13:26:48Z</time>
      </trkpt>
      <trkpt lat="41.038877014070749" lon="-8.51533804088831">
        <ele>196.25</ele>
        <time>2025-05-03T13:26:49Z</time>
      </trkpt>
      <trkpt lat="41.039064014330506" lon="-8.515496039763093">
        <ele>195.28</ele>
        <time>2025-05-03T13:26:51Z</time>
      </trkpt>
      <trkpt lat="41.039135009050369" lon="-8.515588995069265">
        <ele>194.80000000000001</ele>
        <time>2025-05-03T13:26:52Z</time>
      </trkpt>
      <trkpt lat="41.039208015426993" lon="-8.515683962032199">
        <ele>194.31999999999999</ele>
        <time>2025-05-03T13:26:53Z</time>
      </trkpt>
      <trkpt lat="41.039284039288759" lon="-8.515789993107319">
        <ele>194.31999999999999</ele>
        <time>2025-05-03T13:26:54Z</time>
      </trkpt>
      <trkpt lat="41.039338018745184" lon="-8.51592100225389">
        <ele>194.31999999999999</ele>
        <time>2025-05-03T13:26:55Z</time>
      </trkpt>
      <trkpt lat="41.039899019524455" lon="-8.517294963821769">
        <ele>195.77000000000001</ele>
        <time>2025-05-03T13:27:05Z</time>
      </trkpt>
      <trkpt lat="41.040381984785199" lon="-8.518491983413696">
        <ele>197.69</ele>
        <time>2025-05-03T13:27:15Z</time>
      </trkpt>
      <trkpt lat="41.040649032220244" lon="-8.519085003063083">
        <ele>198.65000000000001</ele>
        <time>2025-05-03T13:27:20Z</time>
      </trkpt>
      <trkpt lat="41.04070502333343" lon="-8.519192039966583">
        <ele>198.65000000000001</ele>
        <time>2025-05-03T13:27:21Z</time>
      </trkpt>
      <trkpt lat="41.040774006396532" lon="-8.519290024414659">
        <ele>198.65000000000001</ele>
        <time>2025-05-03T13:27:22Z</time>
      </trkpt>
      <trkpt lat="41.040853969752789" lon="-8.519364036619663">
        <ele>198.65000000000001</ele>
        <time>2025-05-03T13:27:23Z</time>
      </trkpt>
      <trkpt lat="41.040934016928077" lon="-8.519426984712482">
        <ele>198.65000000000001</ele>
        <time>2025-05-03T13:27:24Z</time>
      </trkpt>
      <trkpt lat="41.041009034961462" lon="-8.519471995532513">
        <ele>198.65000000000001</ele>
        <time>2025-05-03T13:27:25Z</time>
      </trkpt>
      <trkpt lat="41.041078018024564" lon="-8.519513988867402">
        <ele>198.65000000000001</ele>
        <time>2025-05-03T13:27:26Z</time>
      </trkpt>
      <trkpt lat="41.041530976071954" lon="-8.519741976633668">
        <ele>199.61000000000001</ele>
        <time>2025-05-03T13:27:36Z</time>
      </trkpt>
      <trkpt lat="41.041599037125707" lon="-8.519781036302447">
        <ele>200.56999999999999</ele>
        <time>2025-05-03T13:27:47Z</time>
      </trkpt>
      <trkpt lat="41.042164983227849" lon="-8.520050011575222">
        <ele>201.53</ele>
        <time>2025-05-03T13:27:54Z</time>
      </trkpt>
      <trkpt lat="41.042349971830845" lon="-8.520135004073381">
        <ele>202.00999999999999</ele>
        <time>2025-05-03T13:27:56Z</time>
      </trkpt>
      <trkpt lat="41.043227976188064" lon="-8.520542029291391">
        <ele>206.34</ele>
        <time>2025-05-03T13:28:04Z</time>
      </trkpt>
      <trkpt lat="41.044347966089845" lon="-8.521065982058644">
        <ele>210.19</ele>
        <time>2025-05-03T13:28:14Z</time>
      </trkpt>
      <trkpt lat="41.045119017362595" lon="-8.521378040313721">
        <ele>214.03</ele>
        <time>2025-05-03T13:28:21Z</time>
      </trkpt>
      <trkpt lat="41.045219013467431" lon="-8.521375022828579">
        <ele>214.50999999999999</ele>
        <time>2025-05-03T13:28:22Z</time>
      </trkpt>
      <trkpt lat="41.045324960723519" lon="-8.521351972594857">
        <ele>215.47</ele>
        <time>2025-05-03T13:28:23Z</time>
      </trkpt>
      <trkpt lat="41.045544985681772" lon="-8.521306039765477">
        <ele>215.94999999999999</ele>
        <time>2025-05-03T13:28:25Z</time>
      </trkpt>
      <trkpt lat="41.045656967908144" lon="-8.521291958168149">
        <ele>216.43000000000001</ele>
        <time>2025-05-03T13:28:26Z</time>
      </trkpt>
      <trkpt lat="41.045773979276419" lon="-8.521291958168149">
        <ele>217.40000000000001</ele>
        <time>2025-05-03T13:28:27Z</time>
      </trkpt>
      <trkpt lat="41.046567996963859" lon="-8.521309979259968">
        <ele>221.24000000000001</ele>
        <time>2025-05-03T13:28:35Z</time>
      </trkpt>
      <trkpt lat="41.046608984470367" lon="-8.521311990916729">
        <ele>221.72</ele>
        <time>2025-05-03T13:28:36Z</time>
      </trkpt>
      <trkpt lat="41.046691965311766" lon="-8.521309979259968">
        <ele>222.68000000000001</ele>
        <time>2025-05-03T13:28:38Z</time>
      </trkpt>
      <trkpt lat="41.046750973910093" lon="-8.521286007016897">
        <ele>223.63999999999999</ele>
        <time>2025-05-03T13:28:39Z</time>
      </trkpt>
      <trkpt lat="41.046892963349819" lon="-8.52122800424695">
        <ele>224.12</ele>
        <time>2025-05-03T13:28:41Z</time>
      </trkpt>
      <trkpt lat="41.047262018546462" lon="-8.521076962351799">
        <ele>226.05000000000001</ele>
        <time>2025-05-03T13:28:45Z</time>
      </trkpt>
      <trkpt lat="41.047350028529763" lon="-8.521004039794207">
        <ele>226.53</ele>
        <time>2025-05-03T13:28:46Z</time>
      </trkpt>
      <trkpt lat="41.047755964100361" lon="-8.520504981279373">
        <ele>227.00999999999999</ele>
        <time>2025-05-03T13:28:51Z</time>
      </trkpt>
      <trkpt lat="41.047841962426901" lon="-8.520398028194904">
        <ele>227.49000000000001</ele>
        <time>2025-05-03T13:28:52Z</time>
      </trkpt>
      <trkpt lat="41.047927960753441" lon="-8.520290991291404">
        <ele>227.97</ele>
        <time>2025-05-03T13:28:53Z</time>
      </trkpt>
      <trkpt lat="41.048856005072594" lon="-8.51914300583303">
        <ele>234.69999999999999</ele>
        <time>2025-05-03T13:29:04Z</time>
      </trkpt>
      <trkpt lat="41.048973016440868" lon="-8.519091038033366">
        <ele>235.66</ele>
        <time>2025-05-03T13:29:05Z</time>
      </trkpt>
      <trkpt lat="41.049086004495621" lon="-8.519052984192967">
        <ele>236.62</ele>
        <time>2025-05-03T13:29:06Z</time>
      </trkpt>
      <trkpt lat="41.050027040764689" lon="-8.518794989213347">
        <ele>241.91</ele>
        <time>2025-05-03T13:29:14Z</time>
      </trkpt>
      <trkpt lat="41.051107970997691" lon="-8.518488965928555">
        <ele>249.59999999999999</ele>
        <time>2025-05-03T13:29:23Z</time>
      </trkpt>
      <trkpt lat="41.052014976739883" lon="-8.517956966534257">
        <ele>254.41</ele>
        <time>2025-05-03T13:29:31Z</time>
      </trkpt>
      <trkpt lat="41.053421040996909" lon="-8.517051972448826">
        <ele>247.19999999999999</ele>
        <time>2025-05-03T13:29:44Z</time>
      </trkpt>
      <trkpt lat="41.054572965949774" lon="-8.516626004129648">
        <ele>240.94999999999999</ele>
        <time>2025-05-03T13:29:54Z</time>
      </trkpt>
      <trkpt lat="41.05578700080514" lon="-8.516648970544338">
        <ele>239.50999999999999</ele>
        <time>2025-05-03T13:30:04Z</time>
      </trkpt>
      <trkpt lat="41.056018006056547" lon="-8.516734968870878">
        <ele>239.02000000000001</ele>
        <time>2025-05-03T13:30:06Z</time>
      </trkpt>
      <trkpt lat="41.056101992726326" lon="-8.516818033531308">
        <ele>238.53999999999999</ele>
        <time>2025-05-03T13:30:07Z</time>
      </trkpt>
      <trkpt lat="41.056188996881247" lon="-8.516920041292906">
        <ele>238.53999999999999</ele>
        <time>2025-05-03T13:30:08Z</time>
      </trkpt>
      <trkpt lat="41.056276001036167" lon="-8.517021965235472">
        <ele>237.58000000000001</ele>
        <time>2025-05-03T13:30:09Z</time>
      </trkpt>
      <trkpt lat="41.056366022676229" lon="-8.517126990482211">
        <ele>237.09999999999999</ele>
        <time>2025-05-03T13:30:10Z</time>
      </trkpt>
      <trkpt lat="41.056846976280212" lon="-8.517819000408053">
        <ele>233.25999999999999</ele>
        <time>2025-05-03T13:30:16Z</time>
      </trkpt>
      <trkpt lat="41.056952001526952" lon="-8.517914973199368">
        <ele>232.78</ele>
        <time>2025-05-03T13:30:17Z</time>
      </trkpt>
      <trkpt lat="41.057065995410085" lon="-8.517958978191018">
        <ele>231.81</ele>
        <time>2025-05-03T13:30:18Z</time>
      </trkpt>
      <trkpt lat="41.057182000949979" lon="-8.518003989011049">
        <ele>231.33000000000001</ele>
        <time>2025-05-03T13:30:19Z</time>
      </trkpt>
      <trkpt lat="41.057303035631776" lon="-8.518009018152952">
        <ele>230.84999999999999</ele>
        <time>2025-05-03T13:30:20Z</time>
      </trkpt>
      <trkpt lat="41.057424992322922" lon="-8.517994014546275">
        <ele>230.37</ele>
        <time>2025-05-03T13:30:21Z</time>
      </trkpt>
      <trkpt lat="41.057540997862816" lon="-8.517942968755961">
        <ele>229.88999999999999</ele>
        <time>2025-05-03T13:30:22Z</time>
      </trkpt>
      <trkpt lat="41.057655997574329" lon="-8.517893012613058">
        <ele>229.41</ele>
        <time>2025-05-03T13:30:23Z</time>
      </trkpt>
      <trkpt lat="41.058725025504827" lon="-8.517609033733606">
        <ele>223.16</ele>
        <time>2025-05-03T13:30:32Z</time>
      </trkpt>
      <trkpt lat="41.058842958882451" lon="-8.517572991549969">
        <ele>222.68000000000001</ele>
        <time>2025-05-03T13:30:33Z</time>
      </trkpt>
      <trkpt lat="41.058962987735868" lon="-8.517565028741956">
        <ele>222.19999999999999</ele>
        <time>2025-05-03T13:30:34Z</time>
      </trkpt>
      <trkpt lat="41.059066001325846" lon="-8.51757500320673">
        <ele>221.72</ele>
        <time>2025-05-03T13:30:35Z</time>
      </trkpt>
      <trkpt lat="41.059150993824005" lon="-8.517596041783691">
        <ele>221.24000000000001</ele>
        <time>2025-05-03T13:30:36Z</time>
      </trkpt>
      <trkpt lat="41.059203967452049" lon="-8.517633005976677">
        <ele>220.75999999999999</ele>
        <time>2025-05-03T13:30:37Z</time>
      </trkpt>
      <trkpt lat="41.059886002913117" lon="-8.518096022307873">
        <ele>216.43000000000001</ele>
        <time>2025-05-03T13:30:49Z</time>
      </trkpt>
      <trkpt lat="41.060023969039321" lon="-8.518179003149271">
        <ele>215.47</ele>
        <time>2025-05-03T13:30:51Z</time>
      </trkpt>
      <trkpt lat="41.060070991516113" lon="-8.518201969563961">
        <ele>214.99000000000001</ele>
        <time>2025-05-03T13:30:52Z</time>
      </trkpt>
      <trkpt lat="41.060161013156176" lon="-8.51819803006947">
        <ele>214.03</ele>
        <time>2025-05-03T13:30:53Z</time>
      </trkpt>
      <trkpt lat="41.060241982340813" lon="-8.518194006755948">
        <ele>213.55000000000001</ele>
        <time>2025-05-03T13:30:54Z</time>
      </trkpt>
      <trkpt lat="41.060327980667353" lon="-8.518188977614045">
        <ele>212.59</ele>
        <time>2025-05-03T13:30:55Z</time>
      </trkpt>
      <trkpt lat="41.060509029775858" lon="-8.518193000927568">
        <ele>211.15000000000001</ele>
        <time>2025-05-03T13:30:57Z</time>
      </trkpt>
      <trkpt lat="41.060585975646973" lon="-8.518224013969302">
        <ele>210.19</ele>
        <time>2025-05-03T13:30:58Z</time>
      </trkpt>
      <trkpt lat="41.060645990073681" lon="-8.518313029780984">
        <ele>209.22</ele>
        <time>2025-05-03T13:30:59Z</time>
      </trkpt>
      <trkpt lat="41.060706004500389" lon="-8.518400033935905">
        <ele>208.25999999999999</ele>
        <time>2025-05-03T13:31:00Z</time>
      </trkpt>
      <trkpt lat="41.060767024755478" lon="-8.518490977585316">
        <ele>207.30000000000001</ele>
        <time>2025-05-03T13:31:01Z</time>
      </trkpt>
      <trkpt lat="41.061126021668315" lon="-8.518980983644724">
        <ele>202.49000000000001</ele>
        <time>2025-05-03T13:31:06Z</time>
      </trkpt>
      <trkpt lat="41.061230963096023" lon="-8.519043009728193">
        <ele>202.00999999999999</ele>
        <time>2025-05-03T13:31:07Z</time>
      </trkpt>
      <trkpt lat="41.062252968549728" lon="-8.519624965265393">
        <ele>192.40000000000001</ele>
        <time>2025-05-03T13:31:17Z</time>
      </trkpt>
      <trkpt lat="41.062538959085941" lon="-8.51983099244535">
        <ele>189.52000000000001</ele>
        <time>2025-05-03T13:31:21Z</time>
      </trkpt>
      <trkpt lat="41.062664017081261" lon="-8.519925959408283">
        <ele>188.56</ele>
        <time>2025-05-03T13:31:23Z</time>
      </trkpt>
      <trkpt lat="41.063172966241837" lon="-8.520381012931466">
        <ele>186.63</ele>
        <time>2025-05-03T13:31:32Z</time>
      </trkpt>
      <trkpt lat="41.063229041174054" lon="-8.520438009873033">
        <ele>186.63</ele>
        <time>2025-05-03T13:31:33Z</time>
      </trkpt>
      <trkpt lat="41.063302969560027" lon="-8.520473968237639">
        <ele>187.11000000000001</ele>
        <time>2025-05-03T13:31:34Z</time>
      </trkpt>
      <trkpt lat="41.063385028392076" lon="-8.520501041784883">
        <ele>186.63</ele>
        <time>2025-05-03T13:31:35Z</time>
      </trkpt>
      <trkpt lat="41.063471026718616" lon="-8.520529959350824">
        <ele>186.63</ele>
        <time>2025-05-03T13:31:36Z</time>
      </trkpt>
      <trkpt lat="41.063559036701918" lon="-8.520545968785882">
        <ele>186.63</ele>
        <time>2025-05-03T13:31:37Z</time>
      </trkpt>
      <trkpt lat="41.063649980351329" lon="-8.520554015412927">
        <ele>186.15000000000001</ele>
        <time>2025-05-03T13:31:38Z</time>
      </trkpt>
      <trkpt lat="41.063741007819772" lon="-8.52056298404932">
        <ele>186.15000000000001</ele>
        <time>2025-05-03T13:31:39Z</time>
      </trkpt>
      <trkpt lat="41.063832035288215" lon="-8.520588967949152">
        <ele>186.15000000000001</ele>
        <time>2025-05-03T13:31:40Z</time>
      </trkpt>
      <trkpt lat="41.063918033614755" lon="-8.520635990425944">
        <ele>185.66999999999999</ele>
        <time>2025-05-03T13:31:41Z</time>
      </trkpt>
      <trkpt lat="41.064037978649139" lon="-8.520771022886038">
        <ele>185.19</ele>
        <time>2025-05-03T13:31:43Z</time>
      </trkpt>
      <trkpt lat="41.064080977812409" lon="-8.520830031484366">
        <ele>184.71000000000001</ele>
        <time>2025-05-03T13:31:44Z</time>
      </trkpt>
      <trkpt lat="41.064120959490538" lon="-8.520895997062326">
        <ele>183.75</ele>
        <time>2025-05-03T13:31:45Z</time>
      </trkpt>
      <trkpt lat="41.064202012494206" lon="-8.521031029522419">
        <ele>182.78999999999999</ele>
        <time>2025-05-03T13:31:47Z</time>
      </trkpt>
      <trkpt lat="41.064255991950631" lon="-8.52112096734345">
        <ele>182.31</ele>
        <time>2025-05-03T13:31:48Z</time>
      </trkpt>
      <trkpt lat="41.064368980005383" lon="-8.521234039217234">
        <ele>180.87</ele>
        <time>2025-05-03T13:31:50Z</time>
      </trkpt>
      <trkpt lat="41.06451197527349" lon="-8.521372005343437">
        <ele>179.41999999999999</ele>
        <time>2025-05-03T13:31:52Z</time>
      </trkpt>
      <trkpt lat="41.065401965752244" lon="-8.522019004449248">
        <ele>175.58000000000001</ele>
        <time>2025-05-03T13:32:03Z</time>
      </trkpt>
      <trkpt lat="41.06547899544239" lon="-8.522101985290647">
        <ele>176.06</ele>
        <time>2025-05-03T13:32:04Z</time>
      </trkpt>
      <trkpt lat="41.065558036789298" lon="-8.522186977788806">
        <ele>175.58000000000001</ele>
        <time>2025-05-03T13:32:05Z</time>
      </trkpt>
      <trkpt lat="41.065608998760581" lon="-8.522292003035545">
        <ele>175.58000000000001</ele>
        <time>2025-05-03T13:32:06Z</time>
      </trkpt>
      <trkpt lat="41.065662978217006" lon="-8.522410020232201">
        <ele>175.58000000000001</ele>
        <time>2025-05-03T13:32:07Z</time>
      </trkpt>
      <trkpt lat="41.065716035664082" lon="-8.522526025772095">
        <ele>175.58000000000001</ele>
        <time>2025-05-03T13:32:08Z</time>
      </trkpt>
      <trkpt lat="41.065838998183608" lon="-8.522764993831515">
        <ele>176.06</ele>
        <time>2025-05-03T13:32:10Z</time>
      </trkpt>
      <trkpt lat="41.065913010388613" lon="-8.522888962179422">
        <ele>176.06</ele>
        <time>2025-05-03T13:32:11Z</time>
      </trkpt>
      <trkpt lat="41.066000014543533" lon="-8.523008991032839">
        <ele>176.06</ele>
        <time>2025-05-03T13:32:12Z</time>
      </trkpt>
      <trkpt lat="41.066105039790273" lon="-8.523089960217476">
        <ele>175.58000000000001</ele>
        <time>2025-05-03T13:32:13Z</time>
      </trkpt>
      <trkpt lat="41.066210987046361" lon="-8.523171013221145">
        <ele>175.58000000000001</ele>
        <time>2025-05-03T13:32:14Z</time>
      </trkpt>
      <trkpt lat="41.066321041435003" lon="-8.523244019597769">
        <ele>175.58000000000001</ele>
        <time>2025-05-03T13:32:15Z</time>
      </trkpt>
      <trkpt lat="41.067619984969497" lon="-8.523983974009752">
        <ele>169.81</ele>
        <time>2025-05-03T13:32:27Z</time>
      </trkpt>
      <trkpt lat="41.068463958799839" lon="-8.524478003382683">
        <ele>166.44999999999999</ele>
        <time>2025-05-03T13:32:35Z</time>
      </trkpt>
      <trkpt lat="41.069595012813807" lon="-8.524969015270472">
        <ele>167.88999999999999</ele>
        <time>2025-05-03T13:32:45Z</time>
      </trkpt>
      <trkpt lat="41.070767976343632" lon="-8.525188034400344">
        <ele>167.88999999999999</ele>
        <time>2025-05-03T13:32:55Z</time>
      </trkpt>
      <trkpt lat="41.070879958570004" lon="-8.525237990543246">
        <ele>167.41</ele>
        <time>2025-05-03T13:32:56Z</time>
      </trkpt>
      <trkpt lat="41.070957994088531" lon="-8.52533002384007">
        <ele>166.93000000000001</ele>
        <time>2025-05-03T13:32:57Z</time>
      </trkpt>
      <trkpt lat="41.071043992415071" lon="-8.525434965267777">
        <ele>166.44999999999999</ele>
        <time>2025-05-03T13:32:58Z</time>
      </trkpt>
      <trkpt lat="41.071130996569991" lon="-8.525542002171278">
        <ele>165</ele>
        <time>2025-05-03T13:32:59Z</time>
      </trkpt>
      <trkpt lat="41.071216994896531" lon="-8.525650966912508">
        <ele>164.03999999999999</ele>
        <time>2025-05-03T13:33:00Z</time>
      </trkpt>
      <trkpt lat="41.071298969909549" lon="-8.525755992159247">
        <ele>163.08000000000001</ele>
        <time>2025-05-03T13:33:01Z</time>
      </trkpt>
      <trkpt lat="41.071512959897518" lon="-8.526028990745544">
        <ele>159.72</ele>
        <time>2025-05-03T13:33:04Z</time>
      </trkpt>
      <trkpt lat="41.071590995416045" lon="-8.526106020435691">
        <ele>158.75</ele>
        <time>2025-05-03T13:33:05Z</time>
      </trkpt>
      <trkpt lat="41.071675987914205" lon="-8.526166034862399">
        <ele>157.78999999999999</ele>
        <time>2025-05-03T13:33:06Z</time>
      </trkpt>
      <trkpt lat="41.071770032867789" lon="-8.526204004883766">
        <ele>156.34999999999999</ele>
        <time>2025-05-03T13:33:07Z</time>
      </trkpt>
      <trkpt lat="41.071863994002342" lon="-8.526230994611979">
        <ele>155.38999999999999</ele>
        <time>2025-05-03T13:33:08Z</time>
      </trkpt>
      <trkpt lat="41.071952003985643" lon="-8.52625597268343">
        <ele>154.43000000000001</ele>
        <time>2025-05-03T13:33:09Z</time>
      </trkpt>
      <trkpt lat="41.072040013968945" lon="-8.526282962411642">
        <ele>153.47</ele>
        <time>2025-05-03T13:33:10Z</time>
      </trkpt>
      <trkpt lat="41.072388030588627" lon="-8.526398967951536">
        <ele>151.06</ele>
        <time>2025-05-03T13:33:14Z</time>
      </trkpt>
      <trkpt lat="41.072465982288122" lon="-8.52646904066205">
        <ele>150.09999999999999</ele>
        <time>2025-05-03T13:33:15Z</time>
      </trkpt>
      <trkpt lat="41.072543011978269" lon="-8.526537017896771">
        <ele>149.62</ele>
        <time>2025-05-03T13:33:16Z</time>
      </trkpt>
      <trkpt lat="41.07261098921299" lon="-8.526617987081409">
        <ele>148.66</ele>
        <time>2025-05-03T13:33:17Z</time>
      </trkpt>
      <trkpt lat="41.072672009468079" lon="-8.526713037863374">
        <ele>147.22</ele>
        <time>2025-05-03T13:33:18Z</time>
      </trkpt>
      <trkpt lat="41.072734035551548" lon="-8.526810016483069">
        <ele>146.25999999999999</ele>
        <time>2025-05-03T13:33:19Z</time>
      </trkpt>
      <trkpt lat="41.073153968900442" lon="-8.527505965903401">
        <ele>139.53</ele>
        <time>2025-05-03T13:33:26Z</time>
      </trkpt>
      <trkpt lat="41.073813959956169" lon="-8.528566025197506">
        <ele>133.75999999999999</ele>
        <time>2025-05-03T13:33:35Z</time>
      </trkpt>
      <trkpt lat="41.07462901622057" lon="-8.529509995132685">
        <ele>130.40000000000001</ele>
        <time>2025-05-03T13:33:45Z</time>
      </trkpt>
      <trkpt lat="41.074727000668645" lon="-8.529575038701296">
        <ele>130.40000000000001</ele>
        <time>2025-05-03T13:33:46Z</time>
      </trkpt>
      <trkpt lat="41.074921963736415" lon="-8.529682997614145">
        <ele>130.40000000000001</ele>
        <time>2025-05-03T13:33:48Z</time>
      </trkpt>
      <trkpt lat="41.076079001650214" lon="-8.529968988150358">
        <ele>136.16</ele>
        <time>2025-05-03T13:33:58Z</time>
      </trkpt>
      <trkpt lat="41.077780025079846" lon="-8.53003503754735">
        <ele>141.93000000000001</ele>
        <time>2025-05-03T13:34:12Z</time>
      </trkpt>
      <trkpt lat="41.079310979694128" lon="-8.530198987573385">
        <ele>136.63999999999999</ele>
        <time>2025-05-03T13:34:25Z</time>
      </trkpt>
      <trkpt lat="41.080562984570861" lon="-8.530601989477873">
        <ele>131.36000000000001</ele>
        <time>2025-05-03T13:34:36Z</time>
      </trkpt>
      <trkpt lat="41.08176201581955" lon="-8.530856966972351">
        <ele>123.19</ele>
        <time>2025-05-03T13:34:46Z</time>
      </trkpt>
      <trkpt lat="41.082027973607183" lon="-8.530816985294223">
        <ele>121.26000000000001</ele>
        <time>2025-05-03T13:34:48Z</time>
      </trkpt>
      <trkpt lat="41.082164011895657" lon="-8.530792007222772">
        <ele>120.78</ele>
        <time>2025-05-03T13:34:49Z</time>
      </trkpt>
      <trkpt lat="41.083463961258531" lon="-8.530781026929617">
        <ele>121.73999999999999</ele>
        <time>2025-05-03T13:35:00Z</time>
      </trkpt>
      <trkpt lat="41.085147969424725" lon="-8.530797036364675">
        <ele>122.70999999999999</ele>
        <time>2025-05-03T13:35:14Z</time>
      </trkpt>
      <trkpt lat="41.086316993460059" lon="-8.531066011637449">
        <ele>122.70999999999999</ele>
        <time>2025-05-03T13:35:24Z</time>
      </trkpt>
      <trkpt lat="41.087733032181859" lon="-8.531528022140265">
        <ele>121.26000000000001</ele>
        <time>2025-05-03T13:35:36Z</time>
      </trkpt>
      <trkpt lat="41.088957963511348" lon="-8.53216496296227">
        <ele>122.22</ele>
        <time>2025-05-03T13:35:47Z</time>
      </trkpt>
      <trkpt lat="41.089135995134711" lon="-8.532379036769271">
        <ele>122.22</ele>
        <time>2025-05-03T13:35:49Z</time>
      </trkpt>
      <trkpt lat="41.089719040319324" lon="-8.533552000299096">
        <ele>119.81999999999999</ele>
        <time>2025-05-03T13:35:58Z</time>
      </trkpt>
      <trkpt lat="41.090015005320311" lon="-8.534853961318731">
        <ele>117.42</ele>
        <time>2025-05-03T13:36:07Z</time>
      </trkpt>
      <trkpt lat="41.090021962299943" lon="-8.535185968503356">
        <ele>116.94</ele>
        <time>2025-05-03T13:36:10Z</time>
      </trkpt>
      <trkpt lat="41.09003696590662" lon="-8.535302979871631">
        <ele>116.45999999999999</ele>
        <time>2025-05-03T13:36:11Z</time>
      </trkpt>
      <trkpt lat="41.090086000040174" lon="-8.535462990403175">
        <ele>116.45999999999999</ele>
        <time>2025-05-03T13:36:12Z</time>
      </trkpt>
      <trkpt lat="41.090621016919613" lon="-8.536700997501612">
        <ele>115.01000000000001</ele>
        <time>2025-05-03T13:36:20Z</time>
      </trkpt>
      <trkpt lat="41.090964004397392" lon="-8.537839008495212">
        <ele>113.09</ele>
        <time>2025-05-03T13:36:28Z</time>
      </trkpt>
      <trkpt lat="41.091488040983677" lon="-8.539630975574255">
        <ele>110.20999999999999</ele>
        <time>2025-05-03T13:36:41Z</time>
      </trkpt>
      <trkpt lat="41.091957008466125" lon="-8.541238959878683">
        <ele>106.84</ele>
        <time>2025-05-03T13:36:52Z</time>
      </trkpt>
      <trkpt lat="41.092348024249077" lon="-8.542593978345394">
        <ele>103.48</ele>
        <time>2025-05-03T13:37:02Z</time>
      </trkpt>
      <trkpt lat="41.092853033915162" lon="-8.544402038678527">
        <ele>99.629999999999995</ele>
        <time>2025-05-03T13:37:14Z</time>
      </trkpt>
      <trkpt lat="41.093328958377242" lon="-8.54602100327611">
        <ele>98.670000000000002</ele>
        <time>2025-05-03T13:37:25Z</time>
      </trkpt>
      <trkpt lat="41.093930024653673" lon="-8.548135003075004">
        <ele>96.269999999999996</ele>
        <time>2025-05-03T13:37:39Z</time>
      </trkpt>
      <trkpt lat="41.094401003792882" lon="-8.549725972115994">
        <ele>94.349999999999994</ele>
        <time>2025-05-03T13:37:50Z</time>
      </trkpt>
      <trkpt lat="41.094484990462661" lon="-8.549968041479588">
        <ele>92.420000000000002</ele>
        <time>2025-05-03T13:37:55Z</time>
      </trkpt>
      <trkpt lat="41.094490019604564" lon="-8.549981033429503">
        <ele>92.420000000000002</ele>
        <time>2025-05-03T13:37:56Z</time>
      </trkpt>
      <trkpt lat="41.094653969630599" lon="-8.550105001777411">
        <ele>91.459999999999994</ele>
        <time>2025-05-03T13:37:58Z</time>
      </trkpt>
      <trkpt lat="41.094575012102723" lon="-8.550259983167052">
        <ele>91.459999999999994</ele>
        <time>2025-05-03T13:37:59Z</time>
      </trkpt>
      <trkpt lat="41.09458900988102" lon="-8.55033902451396">
        <ele>90.980000000000004</ele>
        <time>2025-05-03T13:38:00Z</time>
      </trkpt>
      <trkpt lat="41.094618011265993" lon="-8.550451006740332">
        <ele>90.5</ele>
        <time>2025-05-03T13:38:01Z</time>
      </trkpt>
      <trkpt lat="41.094661010429263" lon="-8.550582015886903">
        <ele>90.019999999999996</ele>
        <time>2025-05-03T13:38:02Z</time>
      </trkpt>
      <trkpt lat="41.094692023470998" lon="-8.550701960921288">
        <ele>89.540000000000006</ele>
        <time>2025-05-03T13:38:03Z</time>
      </trkpt>
      <trkpt lat="41.094727981835604" lon="-8.550843028351665">
        <ele>88.579999999999998</ele>
        <time>2025-05-03T13:38:04Z</time>
      </trkpt>
      <trkpt lat="41.094767041504383" lon="-8.550991974771023">
        <ele>87.620000000000005</ele>
        <time>2025-05-03T13:38:05Z</time>
      </trkpt>
      <trkpt lat="41.095232991501689" lon="-8.552641030400991">
        <ele>81.370000000000005</ele>
        <time>2025-05-03T13:38:16Z</time>
      </trkpt>
      <trkpt lat="41.09570698812604" lon="-8.554283967241645">
        <ele>73.200000000000003</ele>
        <time>2025-05-03T13:38:26Z</time>
      </trkpt>
      <trkpt lat="41.096095992252231" lon="-8.555634962394834">
        <ele>68.390000000000001</ele>
        <time>2025-05-03T13:38:33Z</time>
      </trkpt>
      <trkpt lat="41.096150977537036" lon="-8.555827997624874">
        <ele>67.430000000000007</ele>
        <time>2025-05-03T13:38:34Z</time>
      </trkpt>
      <trkpt lat="41.096323980018497" lon="-8.556398972868919">
        <ele>65.030000000000001</ele>
        <time>2025-05-03T13:38:37Z</time>
      </trkpt>
      <trkpt lat="41.096381982788444" lon="-8.556594019755721">
        <ele>64.549999999999997</ele>
        <time>2025-05-03T13:38:38Z</time>
      </trkpt>
      <trkpt lat="41.096548028290272" lon="-8.557175975292921">
        <ele>64.069999999999993</ele>
        <time>2025-05-03T13:38:41Z</time>
      </trkpt>
      <trkpt lat="41.096602007746696" lon="-8.557362975552678">
        <ele>64.069999999999993</ele>
        <time>2025-05-03T13:38:42Z</time>
      </trkpt>
      <trkpt lat="41.096812980249524" lon="-8.558128997683525">
        <ele>63.579999999999998</ele>
        <time>2025-05-03T13:38:46Z</time>
      </trkpt>
      <trkpt lat="41.097171977162361" lon="-8.559373039752245">
        <ele>61.18</ele>
        <time>2025-05-03T13:38:54Z</time>
      </trkpt>
      <trkpt lat="41.097629964351654" lon="-8.560969037935138">
        <ele>63.579999999999998</ele>
        <time>2025-05-03T13:39:05Z</time>
      </trkpt>
      <trkpt lat="41.098105972632766" lon="-8.562612980604172">
        <ele>70.310000000000002</ele>
        <time>2025-05-03T13:39:16Z</time>
      </trkpt>
      <trkpt lat="41.098602013662457" lon="-8.564341999590397">
        <ele>72.239999999999995</ele>
        <time>2025-05-03T13:39:27Z</time>
      </trkpt>
      <trkpt lat="41.098855985328555" lon="-8.565211035311222">
        <ele>69.349999999999994</ele>
        <time>2025-05-03T13:39:33Z</time>
      </trkpt>
      <trkpt lat="41.098899990320206" lon="-8.565345983952284">
        <ele>68.870000000000005</ele>
        <time>2025-05-03T13:39:34Z</time>
      </trkpt>
      <trkpt lat="41.098946006968617" lon="-8.56548797339201">
        <ele>68.390000000000001</ele>
        <time>2025-05-03T13:39:35Z</time>
      </trkpt>
      <trkpt lat="41.098990011960268" lon="-8.565627029165626">
        <ele>67.430000000000007</ele>
        <time>2025-05-03T13:39:36Z</time>
      </trkpt>
      <trkpt lat="41.09903996810317" lon="-8.565757032483816">
        <ele>66.950000000000003</ele>
        <time>2025-05-03T13:39:37Z</time>
      </trkpt>
      <trkpt lat="41.09910199418664" lon="-8.565889969468117">
        <ele>66.469999999999999</ele>
        <time>2025-05-03T13:39:38Z</time>
      </trkpt>
      <trkpt lat="41.099164020270109" lon="-8.566021984443069">
        <ele>65.989999999999995</ele>
        <time>2025-05-03T13:39:39Z</time>
      </trkpt>
      <trkpt lat="41.099239038303494" lon="-8.566134972497821">
        <ele>65.510000000000005</ele>
        <time>2025-05-03T13:39:40Z</time>
      </trkpt>
      <trkpt lat="41.099524023011327" lon="-8.566477037966251">
        <ele>64.069999999999993</ele>
        <time>2025-05-03T13:39:43Z</time>
      </trkpt>
      <trkpt lat="41.099624019116163" lon="-8.566592959687114">
        <ele>64.069999999999993</ele>
        <time>2025-05-03T13:39:44Z</time>
      </trkpt>
      <trkpt lat="41.099979998543859" lon="-8.566823964938521">
        <ele>64.069999999999993</ele>
        <time>2025-05-03T13:39:47Z</time>
      </trkpt>
      <trkpt lat="41.100913994014263" lon="-8.567153038457036">
        <ele>70.310000000000002</ele>
        <time>2025-05-03T13:39:55Z</time>
      </trkpt>
      <trkpt lat="41.101019019261003" lon="-8.567079026252031">
        <ele>71.269999999999996</ele>
        <time>2025-05-03T13:39:56Z</time>
      </trkpt>
      <trkpt lat="41.10112002119422" lon="-8.567052958533168">
        <ele>71.760000000000005</ele>
        <time>2025-05-03T13:39:57Z</time>
      </trkpt>
      <trkpt lat="41.10124901868403" lon="-8.567019011825323">
        <ele>72.719999999999999</ele>
        <time>2025-05-03T13:39:58Z</time>
      </trkpt>
      <trkpt lat="41.101313978433609" lon="-8.56694701127708">
        <ele>73.680000000000007</ele>
        <time>2025-05-03T13:39:59Z</time>
      </trkpt>
      <trkpt lat="41.101411040872335" lon="-8.566838968545198">
        <ele>74.640000000000001</ele>
        <time>2025-05-03T13:40:00Z</time>
      </trkpt>
      <trkpt lat="41.101511958986521" lon="-8.566727992147207">
        <ele>76.079999999999998</ele>
        <time>2025-05-03T13:40:01Z</time>
      </trkpt>
      <trkpt lat="41.101828962564468" lon="-8.566451976075769">
        <ele>79.450000000000003</ele>
        <time>2025-05-03T13:40:04Z</time>
      </trkpt>
      <trkpt lat="41.101946979761124" lon="-8.566404031589627">
        <ele>80.890000000000001</ele>
        <time>2025-05-03T13:40:05Z</time>
      </trkpt>
      <trkpt lat="41.102064996957779" lon="-8.566379975527525">
        <ele>82.329999999999998</ele>
        <time>2025-05-03T13:40:06Z</time>
      </trkpt>
      <trkpt lat="41.102185025811195" lon="-8.566394979134202">
        <ele>83.769999999999996</ele>
        <time>2025-05-03T13:40:07Z</time>
      </trkpt>
      <trkpt lat="41.102286027744412" lon="-8.566462034359574">
        <ele>85.209999999999994</ele>
        <time>2025-05-03T13:40:08Z</time>
      </trkpt>
      <trkpt lat="41.10239096917212" lon="-8.566535040736198">
        <ele>86.659999999999997</ele>
        <time>2025-05-03T13:40:09Z</time>
      </trkpt>
      <trkpt lat="41.102457018569112" lon="-8.566635958850384">
        <ele>88.099999999999994</ele>
        <time>2025-05-03T13:40:10Z</time>
      </trkpt>
      <trkpt lat="41.102565983310342" lon="-8.566768979653716">
        <ele>89.060000000000002</ele>
        <time>2025-05-03T13:40:11Z</time>
      </trkpt>
      <trkpt lat="41.102661034092307" lon="-8.566822037100792">
        <ele>90.5</ele>
        <time>2025-05-03T13:40:12Z</time>
      </trkpt>
      <trkpt lat="41.102858008816838" lon="-8.566933013498783">
        <ele>91.939999999999998</ele>
        <time>2025-05-03T13:40:14Z</time>
      </trkpt>
      <trkpt lat="41.102963034063578" lon="-8.566940976306796">
        <ele>92.420000000000002</ele>
        <time>2025-05-03T13:40:15Z</time>
      </trkpt>
      <trkpt lat="41.103059006854892" lon="-8.56694801710546">
        <ele>92.420000000000002</ele>
        <time>2025-05-03T13:40:16Z</time>
      </trkpt>
      <trkpt lat="41.103149028494954" lon="-8.566949022933841">
        <ele>92.900000000000006</ele>
        <time>2025-05-03T13:40:17Z</time>
      </trkpt>
      <trkpt lat="41.103246007114649" lon="-8.566907029598951">
        <ele>92.900000000000006</ele>
        <time>2025-05-03T13:40:18Z</time>
      </trkpt>
      <trkpt lat="41.104101967066526" lon="-8.566537974402309">
        <ele>92.900000000000006</ele>
        <time>2025-05-03T13:40:24Z</time>
      </trkpt>
      <trkpt lat="41.106053022667766" lon="-8.56574596837163">
        <ele>89.060000000000002</ele>
        <time>2025-05-03T13:40:34Z</time>
      </trkpt>
      <trkpt lat="41.107507031410933" lon="-8.565470036119223">
        <ele>87.140000000000001</ele>
        <time>2025-05-03T13:40:41Z</time>
      </trkpt>
      <trkpt lat="41.109049972146749" lon="-8.565761977806687">
        <ele>83.769999999999996</ele>
        <time>2025-05-03T13:40:48Z</time>
      </trkpt>
      <trkpt lat="41.110613029450178" lon="-8.566697984933853">
        <ele>80.409999999999997</ele>
        <time>2025-05-03T13:40:55Z</time>
      </trkpt>
      <trkpt lat="41.11220701597631" lon="-8.56813196092844">
        <ele>75.120000000000005</ele>
        <time>2025-05-03T13:41:03Z</time>
      </trkpt>
      <trkpt lat="41.113723972812295" lon="-8.569521009922028">
        <ele>70.790000000000006</ele>
        <time>2025-05-03T13:41:11Z</time>
      </trkpt>
      <trkpt lat="41.115019982680678" lon="-8.570675030350685">
        <ele>69.829999999999998</ele>
        <time>2025-05-03T13:41:18Z</time>
      </trkpt>
      <trkpt lat="41.116655040532351" lon="-8.571667028591037">
        <ele>66.469999999999999</ele>
        <time>2025-05-03T13:41:26Z</time>
      </trkpt>
      <trkpt lat="41.118179038167" lon="-8.571970034390688">
        <ele>61.18</ele>
        <time>2025-05-03T13:41:33Z</time>
      </trkpt>
      <trkpt lat="41.120463022962213" lon="-8.572329031303525">
        <ele>54.450000000000003</ele>
        <time>2025-05-03T13:41:43Z</time>
      </trkpt>
      <trkpt lat="41.122423969209194" lon="-8.572923978790641">
        <ele>53.490000000000002</ele>
        <time>2025-05-03T13:41:52Z</time>
      </trkpt>
      <trkpt lat="41.124616004526615" lon="-8.573635015636683">
        <ele>58.299999999999997</ele>
        <time>2025-05-03T13:42:02Z</time>
      </trkpt>
      <trkpt lat="41.126030031591654" lon="-8.574098031967878">
        <ele>59.259999999999998</ele>
        <time>2025-05-03T13:42:09Z</time>
      </trkpt>
      <trkpt lat="41.127705993130803" lon="-8.574893977493048">
        <ele>62.140000000000001</ele>
        <time>2025-05-03T13:42:18Z</time>
      </trkpt>
      <trkpt lat="41.129611032083631" lon="-8.575817998498678">
        <ele>62.619999999999997</ele>
        <time>2025-05-03T13:42:27Z</time>
      </trkpt>
      <trkpt lat="41.129836002364755" lon="-8.575858986005187">
        <ele>62.619999999999997</ele>
        <time>2025-05-03T13:42:28Z</time>
      </trkpt>
      <trkpt lat="41.131704999133945" lon="-8.576174983754754">
        <ele>60.700000000000003</ele>
        <time>2025-05-03T13:42:37Z</time>
      </trkpt>
      <trkpt lat="41.133653037250042" lon="-8.576554013416171">
        <ele>52.530000000000001</ele>
        <time>2025-05-03T13:42:47Z</time>
      </trkpt>
      <trkpt lat="41.134894983842969" lon="-8.577415002509952">
        <ele>44.840000000000003</ele>
        <time>2025-05-03T13:42:54Z</time>
      </trkpt>
      <trkpt lat="41.135490015149117" lon="-8.578132996335626">
        <ele>40.030000000000001</ele>
        <time>2025-05-03T13:42:58Z</time>
      </trkpt>
      <trkpt lat="41.13609803840518" lon="-8.578940005972982">
        <ele>35.229999999999997</ele>
        <time>2025-05-03T13:43:03Z</time>
      </trkpt>
      <trkpt lat="41.136221000924706" lon="-8.579032039269805">
        <ele>34.259999999999998</ele>
        <time>2025-05-03T13:43:04Z</time>
      </trkpt>
      <trkpt lat="41.136339018121362" lon="-8.579112002626061">
        <ele>33.780000000000001</ele>
        <time>2025-05-03T13:43:05Z</time>
      </trkpt>
      <trkpt lat="41.136467009782791" lon="-8.579163970425725">
        <ele>33.299999999999997</ele>
        <time>2025-05-03T13:43:06Z</time>
      </trkpt>
      <trkpt lat="41.136603970080614" lon="-8.579159025102854">
        <ele>32.82</ele>
        <time>2025-05-03T13:43:07Z</time>
      </trkpt>
      <trkpt lat="41.136744031682611" lon="-8.579153995960951">
        <ele>32.340000000000003</ele>
        <time>2025-05-03T13:43:08Z</time>
      </trkpt>
      <trkpt lat="41.136883003637195" lon="-8.579148966819048">
        <ele>31.859999999999999</ele>
        <time>2025-05-03T13:43:09Z</time>
      </trkpt>
      <trkpt lat="41.137149967253208" lon="-8.579160030931234">
        <ele>30.899999999999999</ele>
        <time>2025-05-03T13:43:11Z</time>
      </trkpt>
      <trkpt lat="41.137277036905289" lon="-8.579193977639079">
        <ele>30.420000000000002</ele>
        <time>2025-05-03T13:43:12Z</time>
      </trkpt>
      <trkpt lat="41.137405028566718" lon="-8.579228008165956">
        <ele>29.460000000000001</ele>
        <time>2025-05-03T13:43:13Z</time>
      </trkpt>
      <trkpt lat="41.13749798387289" lon="-8.579314006492496">
        <ele>28.5</ele>
        <time>2025-05-03T13:43:14Z</time>
      </trkpt>
      <trkpt lat="41.137595968320966" lon="-8.579405033960939">
        <ele>28.02</ele>
        <time>2025-05-03T13:43:15Z</time>
      </trkpt>
      <trkpt lat="41.137696970254183" lon="-8.579500000923872">
        <ele>27.050000000000001</ele>
        <time>2025-05-03T13:43:16Z</time>
      </trkpt>
      <trkpt lat="41.137772994115949" lon="-8.579652970656753">
        <ele>26.57</ele>
        <time>2025-05-03T13:43:17Z</time>
      </trkpt>
      <trkpt lat="41.137855974957347" lon="-8.579828990623355">
        <ele>26.09</ele>
        <time>2025-05-03T13:43:18Z</time>
      </trkpt>
      <trkpt lat="41.137898974120617" lon="-8.580001993104816">
        <ele>25.129999999999999</ele>
        <time>2025-05-03T13:43:19Z</time>
      </trkpt>
      <trkpt lat="41.137920012697577" lon="-8.580212965607643">
        <ele>24.649999999999999</ele>
        <time>2025-05-03T13:43:20Z</time>
      </trkpt>
      <trkpt lat="41.137920012697577" lon="-8.580425027757883">
        <ele>23.690000000000001</ele>
        <time>2025-05-03T13:43:21Z</time>
      </trkpt>
      <trkpt lat="41.137899979948997" lon="-8.580641029402614">
        <ele>23.210000000000001</ele>
        <time>2025-05-03T13:43:22Z</time>
      </trkpt>
      <trkpt lat="41.137820016592741" lon="-8.580834986642003">
        <ele>22.73</ele>
        <time>2025-05-03T13:43:23Z</time>
      </trkpt>
      <trkpt lat="41.137724965810776" lon="-8.581007989123464">
        <ele>22.73</ele>
        <time>2025-05-03T13:43:24Z</time>
      </trkpt>
      <trkpt lat="41.137619018554687" lon="-8.581159031018615">
        <ele>22.25</ele>
        <time>2025-05-03T13:43:25Z</time>
      </trkpt>
      <trkpt lat="41.137491026893258" lon="-8.581266989931464">
        <ele>22.73</ele>
        <time>2025-05-03T13:43:26Z</time>
      </trkpt>
      <trkpt lat="41.137329004704952" lon="-8.581356005743146">
        <ele>22.73</ele>
        <time>2025-05-03T13:43:27Z</time>
      </trkpt>
      <trkpt lat="41.137172011658549" lon="-8.581443009898067">
        <ele>23.210000000000001</ele>
        <time>2025-05-03T13:43:28Z</time>
      </trkpt>
      <trkpt lat="41.137009989470243" lon="-8.581533031538129">
        <ele>24.170000000000002</ele>
        <time>2025-05-03T13:43:29Z</time>
      </trkpt>
      <trkpt lat="41.135453972965479" lon="-8.582520000636578">
        <ele>35.229999999999997</ele>
        <time>2025-05-03T13:43:39Z</time>
      </trkpt>
      <trkpt lat="41.135322041809559" lon="-8.582644974812865">
        <ele>36.189999999999998</ele>
        <time>2025-05-03T13:43:40Z</time>
      </trkpt>
      <trkpt lat="41.135193966329098" lon="-8.582789981737733">
        <ele>37.149999999999999</ele>
        <time>2025-05-03T13:43:41Z</time>
      </trkpt>
      <trkpt lat="41.134288972243667" lon="-8.584451023489237">
        <ele>45.799999999999997</ele>
        <time>2025-05-03T13:43:50Z</time>
      </trkpt>
      <trkpt lat="41.132943006232381" lon="-8.587131975218654">
        <ele>56.369999999999997</ele>
        <time>2025-05-03T13:44:03Z</time>
      </trkpt>
      <trkpt lat="41.131721008569002" lon="-8.589563984423876">
        <ele>64.069999999999993</ele>
        <time>2025-05-03T13:44:14Z</time>
      </trkpt>
      <trkpt lat="41.130927996709943" lon="-8.590830992907286">
        <ele>66.950000000000003</ele>
        <time>2025-05-03T13:44:21Z</time>
      </trkpt>
      <trkpt lat="41.130560031160712" lon="-8.591372966766357">
        <ele>66.950000000000003</ele>
        <time>2025-05-03T13:44:25Z</time>
      </trkpt>
      <trkpt lat="41.1305330414325" lon="-8.591588968411088">
        <ele>66.469999999999999</ele>
        <time>2025-05-03T13:44:26Z</time>
      </trkpt>
      <trkpt lat="41.130510997027159" lon="-8.591760965064168">
        <ele>65.989999999999995</ele>
        <time>2025-05-03T13:44:27Z</time>
      </trkpt>
      <trkpt lat="41.130488030612469" lon="-8.591946037486196">
        <ele>65.030000000000001</ele>
        <time>2025-05-03T13:44:28Z</time>
      </trkpt>
      <trkpt lat="41.130463974550366" lon="-8.592136977240443">
        <ele>64.549999999999997</ele>
        <time>2025-05-03T13:44:29Z</time>
      </trkpt>
      <trkpt lat="41.130440002307296" lon="-8.592329006642103">
        <ele>64.549999999999997</ele>
        <time>2025-05-03T13:44:30Z</time>
      </trkpt>
      <trkpt lat="41.130366995930672" lon="-8.592670988291502">
        <ele>64.549999999999997</ele>
        <time>2025-05-03T13:44:32Z</time>
      </trkpt>
      <trkpt lat="41.130326008424163" lon="-8.592847008258104">
        <ele>64.549999999999997</ele>
        <time>2025-05-03T13:44:33Z</time>
      </trkpt>
      <trkpt lat="41.130251996219158" lon="-8.592979023233056">
        <ele>64.549999999999997</ele>
        <time>2025-05-03T13:44:34Z</time>
      </trkpt>
      <trkpt lat="41.130163986235857" lon="-8.593134004622698">
        <ele>64.549999999999997</ele>
        <time>2025-05-03T13:44:35Z</time>
      </trkpt>
      <trkpt lat="41.130073964595795" lon="-8.593290997669101">
        <ele>64.549999999999997</ele>
        <time>2025-05-03T13:44:36Z</time>
      </trkpt>
      <trkpt lat="41.129163019359112" lon="-8.59457896091044">
        <ele>65.510000000000005</ele>
        <time>2025-05-03T13:44:45Z</time>
      </trkpt>
      <trkpt lat="41.128751970827579" lon="-8.594927983358502">
        <ele>66.469999999999999</ele>
        <time>2025-05-03T13:44:49Z</time>
      </trkpt>
      <trkpt lat="41.128629008308053" lon="-8.594999983906746">
        <ele>66.469999999999999</ele>
        <time>2025-05-03T13:44:50Z</time>
      </trkpt>
      <trkpt lat="41.128502022475004" lon="-8.595069972798228">
        <ele>66.469999999999999</ele>
        <time>2025-05-03T13:44:51Z</time>
      </trkpt>
      <trkpt lat="41.127682020887733" lon="-8.595344983041287">
        <ele>67.430000000000007</ele>
        <time>2025-05-03T13:44:57Z</time>
      </trkpt>
      <trkpt lat="41.126783983781934" lon="-8.595636002719402">
        <ele>68.390000000000001</ele>
        <time>2025-05-03T13:45:05Z</time>
      </trkpt>
      <trkpt lat="41.126681976020336" lon="-8.59567497856915">
        <ele>68.390000000000001</ele>
        <time>2025-05-03T13:45:06Z</time>
      </trkpt>
      <trkpt lat="41.126246033236384" lon="-8.595883017405868">
        <ele>69.349999999999994</ele>
        <time>2025-05-03T13:45:10Z</time>
      </trkpt>
      <trkpt lat="41.12612902186811" lon="-8.595969015732408">
        <ele>70.310000000000002</ele>
        <time>2025-05-03T13:45:11Z</time>
      </trkpt>
      <trkpt lat="41.125167030841112" lon="-8.596371011808515">
        <ele>76.079999999999998</ele>
        <time>2025-05-03T13:45:21Z</time>
      </trkpt>
      <trkpt lat="41.124975001439452" lon="-8.596531022340059">
        <ele>76.079999999999998</ele>
        <time>2025-05-03T13:45:25Z</time>
      </trkpt>
      <trkpt lat="41.124934013932943" lon="-8.596574021503329">
        <ele>75.599999999999994</ele>
        <time>2025-05-03T13:45:26Z</time>
      </trkpt>
      <trkpt lat="41.124881962314248" lon="-8.596635041758418">
        <ele>75.120000000000005</ele>
        <time>2025-05-03T13:45:27Z</time>
      </trkpt>
      <trkpt lat="41.124831000342965" lon="-8.596729002892971">
        <ele>75.120000000000005</ele>
        <time>2025-05-03T13:45:28Z</time>
      </trkpt>
      <trkpt lat="41.124838041141629" lon="-8.596844002604485">
        <ele>75.120000000000005</ele>
        <time>2025-05-03T13:45:29Z</time>
      </trkpt>
      <trkpt lat="41.124852038919926" lon="-8.596974005922675">
        <ele>75.120000000000005</ele>
        <time>2025-05-03T13:45:30Z</time>
      </trkpt>
      <trkpt lat="41.1248620133847" lon="-8.597066961228848">
        <ele>75.120000000000005</ele>
        <time>2025-05-03T13:45:31Z</time>
      </trkpt>
      <trkpt lat="41.124900989234447" lon="-8.597448002547026">
        <ele>78</ele>
        <time>2025-05-03T13:45:36Z</time>
      </trkpt>
      <trkpt lat="41.124910041689873" lon="-8.597527965903282">
        <ele>78.480000000000004</ele>
        <time>2025-05-03T13:45:37Z</time>
      </trkpt>
      <trkpt lat="41.124958992004395" lon="-8.597831977531314">
        <ele>81.370000000000005</ele>
        <time>2025-05-03T13:45:41Z</time>
      </trkpt>
      <trkpt lat="41.12497097812593" lon="-8.59797396697104">
        <ele>82.810000000000002</ele>
        <time>2025-05-03T13:45:43Z</time>
      </trkpt>
      <trkpt lat="41.124977013096213" lon="-8.598046973347664">
        <ele>83.769999999999996</ele>
        <time>2025-05-03T13:45:44Z</time>
      </trkpt>
      <trkpt lat="41.125130988657475" lon="-8.598154010251164">
        <ele>84.730000000000004</ele>
        <time>2025-05-03T13:45:45Z</time>
      </trkpt>
      <trkpt lat="41.12514297477901" lon="-8.598172031342983">
        <ele>85.209999999999994</ele>
        <time>2025-05-03T13:45:46Z</time>
      </trkpt>
      <trkpt lat="41.125189997255802" lon="-8.598242020234466">
        <ele>85.689999999999998</ele>
        <time>2025-05-03T13:45:47Z</time>
      </trkpt>
      <trkpt lat="41.125216986984015" lon="-8.598282001912594">
        <ele>86.180000000000007</ele>
        <time>2025-05-03T13:45:48Z</time>
      </trkpt>
      <trkpt lat="41.125367023050785" lon="-8.598348973318934">
        <ele>87.620000000000005</ele>
        <time>2025-05-03T13:45:50Z</time>
      </trkpt>
      <trkpt lat="41.125426031649113" lon="-8.598365988582373">
        <ele>88.099999999999994</ele>
        <time>2025-05-03T13:45:51Z</time>
      </trkpt>
      <trkpt lat="41.1261519882828" lon="-8.598239002749324">
        <ele>85.689999999999998</ele>
        <time>2025-05-03T13:46:00Z</time>
      </trkpt>
      <trkpt lat="41.127061005681753" lon="-8.598095001652837">
        <ele>79.930000000000007</ele>
        <time>2025-05-03T13:46:09Z</time>
      </trkpt>
      <trkpt lat="41.127642039209604" lon="-8.598002968356013">
        <ele>75.120000000000005</ele>
        <time>2025-05-03T13:46:15Z</time>
      </trkpt>
      <trkpt lat="41.12862397916615" lon="-8.597833989188075">
        <ele>69.829999999999998</ele>
        <time>2025-05-03T13:46:23Z</time>
      </trkpt>
      <trkpt lat="41.1295469943434" lon="-8.597661992534995">
        <ele>64.069999999999993</ele>
        <time>2025-05-03T13:46:31Z</time>
      </trkpt>
      <trkpt lat="41.129662999883294" lon="-8.597641037777066">
        <ele>63.579999999999998</ele>
        <time>2025-05-03T13:46:32Z</time>
      </trkpt>
      <trkpt lat="41.129882019013166" lon="-8.5975650139153">
        <ele>61.659999999999997</ele>
        <time>2025-05-03T13:46:34Z</time>
      </trkpt>
      <trkpt lat="41.130247972905636" lon="-8.597341971471906">
        <ele>58.299999999999997</ele>
        <time>2025-05-03T13:46:38Z</time>
      </trkpt>
      <trkpt lat="41.130493981763721" lon="-8.597105015069246">
        <ele>54.93</ele>
        <time>2025-05-03T13:46:42Z</time>
      </trkpt>
      <trkpt lat="41.130537986755371" lon="-8.597050029784441">
        <ele>54.450000000000003</ele>
        <time>2025-05-03T13:46:43Z</time>
      </trkpt>
      <trkpt lat="41.130581991747022" lon="-8.596983980387449">
        <ele>53.969999999999999</ele>
        <time>2025-05-03T13:46:44Z</time>
      </trkpt>
      <trkpt lat="41.130590038374066" lon="-8.596902005374432">
        <ele>53.490000000000002</ele>
        <time>2025-05-03T13:46:45Z</time>
      </trkpt>
      <trkpt lat="41.130598001182079" lon="-8.596815001219511">
        <ele>52.530000000000001</ele>
        <time>2025-05-03T13:46:46Z</time>
      </trkpt>
      <trkpt lat="41.130628008395433" lon="-8.596721962094307">
        <ele>52.049999999999997</ele>
        <time>2025-05-03T13:46:47Z</time>
      </trkpt>
      <trkpt lat="41.130674025043845" lon="-8.596657002344728">
        <ele>51.57</ele>
        <time>2025-05-03T13:46:48Z</time>
      </trkpt>
      <trkpt lat="41.130720041692257" lon="-8.596591958776116">
        <ele>51.57</ele>
        <time>2025-05-03T13:46:49Z</time>
      </trkpt>
      <trkpt lat="41.130800005048513" lon="-8.596557006239891">
        <ele>51.090000000000003</ele>
        <time>2025-05-03T13:46:50Z</time>
      </trkpt>
      <trkpt lat="41.130869993939996" lon="-8.59657603316009">
        <ele>51.090000000000003</ele>
        <time>2025-05-03T13:46:51Z</time>
      </trkpt>
      <trkpt lat="41.130949035286903" lon="-8.5965979937464">
        <ele>51.090000000000003</ele>
        <time>2025-05-03T13:46:52Z</time>
      </trkpt>
      <trkpt lat="41.131011983379722" lon="-8.596653984859586">
        <ele>51.090000000000003</ele>
        <time>2025-05-03T13:46:53Z</time>
      </trkpt>
      <trkpt lat="41.131053976714611" lon="-8.596737971529365">
        <ele>51.090000000000003</ele>
        <time>2025-05-03T13:46:54Z</time>
      </trkpt>
      <trkpt lat="41.131075015291572" lon="-8.596779964864254">
        <ele>51.090000000000003</ele>
        <time>2025-05-03T13:46:55Z</time>
      </trkpt>
      <trkpt lat="41.13115799613297" lon="-8.596978029236198">
        <ele>50.609999999999999</ele>
        <time>2025-05-03T13:46:56Z</time>
      </trkpt>
      <trkpt lat="41.13122396171093" lon="-8.59700501896441">
        <ele>50.609999999999999</ele>
        <time>2025-05-03T13:46:57Z</time>
      </trkpt>
      <trkpt lat="41.131296968087554" lon="-8.597035026177764">
        <ele>51.090000000000003</ele>
        <time>2025-05-03T13:46:58Z</time>
      </trkpt>
      <trkpt lat="41.13137299194932" lon="-8.597066961228848">
        <ele>50.609999999999999</ele>
        <time>2025-05-03T13:46:59Z</time>
      </trkpt>
      <trkpt lat="41.131619000807405" lon="-8.597171986475587">
        <ele>51.090000000000003</ele>
        <time>2025-05-03T13:47:02Z</time>
      </trkpt>
      <trkpt lat="41.131859980523586" lon="-8.597343983128667">
        <ele>51.090000000000003</ele>
        <time>2025-05-03T13:47:05Z</time>
      </trkpt>
      <trkpt lat="41.132001969963312" lon="-8.597497036680579">
        <ele>51.090000000000003</ele>
        <time>2025-05-03T13:47:07Z</time>
      </trkpt>
      <trkpt lat="41.132148988544941" lon="-8.597683031111956">
        <ele>51.090000000000003</ele>
        <time>2025-05-03T13:47:09Z</time>
      </trkpt>
      <trkpt lat="41.132202968001366" lon="-8.597798030823469">
        <ele>51.090000000000003</ele>
        <time>2025-05-03T13:47:10Z</time>
      </trkpt>
      <trkpt lat="41.132307993248105" lon="-8.598018977791071">
        <ele>49.649999999999999</ele>
        <time>2025-05-03T13:47:12Z</time>
      </trkpt>
      <trkpt lat="41.132358033210039" lon="-8.598128026351333">
        <ele>48.68</ele>
        <time>2025-05-03T13:47:13Z</time>
      </trkpt>
      <trkpt lat="41.132603036239743" lon="-8.598689027130604">
        <ele>46.759999999999998</ele>
        <time>2025-05-03T13:47:20Z</time>
      </trkpt>
      <trkpt lat="41.132603036239743" lon="-8.598689027130604">
        <ele>46.280000000000001</ele>
        <time>2025-05-03T13:47:31Z</time>
      </trkpt>
      <trkpt lat="41.132716024294496" lon="-8.598950039595366">
        <ele>46.280000000000001</ele>
        <time>2025-05-03T13:47:48Z</time>
      </trkpt>
      <trkpt lat="41.132753994315863" lon="-8.599036959931254">
        <ele>46.280000000000001</ele>
        <time>2025-05-03T13:47:49Z</time>
      </trkpt>
      <trkpt lat="41.133154984563589" lon="-8.599936002865434">
        <ele>50.130000000000003</ele>
        <time>2025-05-03T13:47:56Z</time>
      </trkpt>
      <trkpt lat="41.134018991142511" lon="-8.601745991036296">
        <ele>67.430000000000007</ele>
        <time>2025-05-03T13:48:09Z</time>
      </trkpt>
      <trkpt lat="41.134485024958849" lon="-8.602201966568828">
        <ele>74.159999999999997</ele>
        <time>2025-05-03T13:48:14Z</time>
      </trkpt>
      <trkpt lat="41.134588960558176" lon="-8.602258041501045">
        <ele>75.120000000000005</ele>
        <time>2025-05-03T13:48:15Z</time>
      </trkpt>
      <trkpt lat="41.134697003290057" lon="-8.602316966280341">
        <ele>76.079999999999998</ele>
        <time>2025-05-03T13:48:16Z</time>
      </trkpt>
      <trkpt lat="41.134806973859668" lon="-8.602376980707049">
        <ele>76.560000000000002</ele>
        <time>2025-05-03T13:48:17Z</time>
      </trkpt>
      <trkpt lat="41.134924991056323" lon="-8.602430960163474">
        <ele>77.040000000000006</ele>
        <time>2025-05-03T13:48:18Z</time>
      </trkpt>
      <trkpt lat="41.135050971060991" lon="-8.602462979033589">
        <ele>77.519999999999996</ele>
        <time>2025-05-03T13:48:19Z</time>
      </trkpt>
      <trkpt lat="41.135190026834607" lon="-8.60248401761055">
        <ele>77.519999999999996</ele>
        <time>2025-05-03T13:48:20Z</time>
      </trkpt>
      <trkpt lat="41.135323969647288" lon="-8.602469014003873">
        <ele>77.519999999999996</ele>
        <time>2025-05-03T13:48:21Z</time>
      </trkpt>
      <trkpt lat="41.135456990450621" lon="-8.602454010397196">
        <ele>77.040000000000006</ele>
        <time>2025-05-03T13:48:22Z</time>
      </trkpt>
      <trkpt lat="41.135585987940431" lon="-8.602426014840603">
        <ele>77.040000000000006</ele>
        <time>2025-05-03T13:48:23Z</time>
      </trkpt>
      <trkpt lat="41.135708028450608" lon="-8.602375974878669">
        <ele>77.040000000000006</ele>
        <time>2025-05-03T13:48:24Z</time>
      </trkpt>
      <trkpt lat="41.135831996798515" lon="-8.602325012907386">
        <ele>77.519999999999996</ele>
        <time>2025-05-03T13:48:25Z</time>
      </trkpt>
      <trkpt lat="41.136597013100982" lon="-8.601895021274686">
        <ele>76.560000000000002</ele>
        <time>2025-05-03T13:48:33Z</time>
      </trkpt>
      <trkpt lat="41.136953998357058" lon="-8.601679019629955">
        <ele>75.599999999999994</ele>
        <time>2025-05-03T13:48:41Z</time>
      </trkpt>
      <trkpt lat="41.136990962550044" lon="-8.601655969396234">
        <ele>74.640000000000001</ele>
        <time>2025-05-03T13:48:52Z</time>
      </trkpt>
      <trkpt lat="41.137251975014806" lon="-8.601524038240314">
        <ele>73.680000000000007</ele>
        <time>2025-05-03T13:49:03Z</time>
      </trkpt>
      <trkpt lat="41.138048004359007" lon="-8.60115397721529">
        <ele>74.640000000000001</ele>
        <time>2025-05-03T13:49:12Z</time>
      </trkpt>
      <trkpt lat="41.138520995154977" lon="-8.601165963336825">
        <ele>75.599999999999994</ele>
        <time>2025-05-03T13:49:16Z</time>
      </trkpt>
      <trkpt lat="41.139929993078113" lon="-8.601448014378548">
        <ele>79.930000000000007</ele>
        <time>2025-05-03T13:49:28Z</time>
      </trkpt>
      <trkpt lat="41.141259027644992" lon="-8.601730987429619">
        <ele>83.769999999999996</ele>
        <time>2025-05-03T13:49:40Z</time>
      </trkpt>
      <trkpt lat="41.142767015844584" lon="-8.602030975744128">
        <ele>80.409999999999997</ele>
        <time>2025-05-03T13:49:53Z</time>
      </trkpt>
      <trkpt lat="41.142885033041239" lon="-8.602056037634611">
        <ele>79.930000000000007</ele>
        <time>2025-05-03T13:49:54Z</time>
      </trkpt>
      <trkpt lat="41.143241012468934" lon="-8.602123009040952">
        <ele>79.450000000000003</ele>
        <time>2025-05-03T13:49:57Z</time>
      </trkpt>
      <trkpt lat="41.143346037715673" lon="-8.602173971012235">
        <ele>78.969999999999999</ele>
        <time>2025-05-03T13:49:58Z</time>
      </trkpt>
      <trkpt lat="41.144218007102609" lon="-8.602595999836922">
        <ele>82.810000000000002</ele>
        <time>2025-05-03T13:50:07Z</time>
      </trkpt>
      <trkpt lat="41.144670965149999" lon="-8.602820970118046">
        <ele>86.659999999999997</ele>
        <time>2025-05-03T13:50:12Z</time>
      </trkpt>
      <trkpt lat="41.144949998706579" lon="-8.602966982871294">
        <ele>90.019999999999996</ele>
        <time>2025-05-03T13:50:16Z</time>
      </trkpt>
      <trkpt lat="41.145015964284539" lon="-8.60300000756979">
        <ele>90.5</ele>
        <time>2025-05-03T13:50:17Z</time>
      </trkpt>
      <trkpt lat="41.145084025338292" lon="-8.603034038096666">
        <ele>91.459999999999994</ele>
        <time>2025-05-03T13:50:18Z</time>
      </trkpt>
      <trkpt lat="41.145153008401394" lon="-8.603073013946414">
        <ele>91.939999999999998</ele>
        <time>2025-05-03T13:50:19Z</time>
      </trkpt>
      <trkpt lat="41.145212016999722" lon="-8.603107966482639">
        <ele>92.420000000000002</ele>
        <time>2025-05-03T13:50:20Z</time>
      </trkpt>
      <trkpt lat="41.145375967025757" lon="-8.603197988122702">
        <ele>95.790000000000006</ele>
        <time>2025-05-03T13:50:26Z</time>
      </trkpt>
      <trkpt lat="41.145516028627753" lon="-8.603261020034552">
        <ele>98.670000000000002</ele>
        <time>2025-05-03T13:50:32Z</time>
      </trkpt>
      <trkpt lat="41.145503036677837" lon="-8.60334500670433">
        <ele>99.150000000000006</ele>
        <time>2025-05-03T13:50:33Z</time>
      </trkpt>
      <trkpt lat="41.145495995879173" lon="-8.603391023352742">
        <ele>99.629999999999995</ele>
        <time>2025-05-03T13:50:34Z</time>
      </trkpt>
      <trkpt lat="41.14548996090889" lon="-8.603432010859251">
        <ele>100.11</ele>
        <time>2025-05-03T13:50:35Z</time>
      </trkpt>
      <trkpt lat="41.145483003929257" lon="-8.603480961173773">
        <ele>100.59999999999999</ele>
        <time>2025-05-03T13:50:36Z</time>
      </trkpt>
      <trkpt lat="41.145438998937607" lon="-8.603767035529017">
        <ele>100.59999999999999</ele>
        <time>2025-05-03T13:50:41Z</time>
      </trkpt>
      <trkpt lat="41.145408991724253" lon="-8.603969039395452">
        <ele>100.59999999999999</ele>
        <time>2025-05-03T13:50:42Z</time>
      </trkpt>
      <trkpt lat="41.145408991724253" lon="-8.603969039395452">
        <ele>100.11</ele>
        <time>2025-05-03T13:50:43Z</time>
      </trkpt>
      <trkpt lat="41.145360041409731" lon="-8.604205995798111">
        <ele>98.670000000000002</ele>
        <time>2025-05-03T13:50:52Z</time>
      </trkpt>
      <trkpt lat="41.145360041409731" lon="-8.604205995798111">
        <ele>98.189999999999998</ele>
        <time>2025-05-03T13:51:14Z</time>
      </trkpt>
      <trkpt lat="41.145314024761319" lon="-8.604314038529992">
        <ele>98.189999999999998</ele>
        <time>2025-05-03T13:51:28Z</time>
      </trkpt>
      <trkpt lat="41.145282005891204" lon="-8.604361983016133">
        <ele>97.709999999999994</ele>
        <time>2025-05-03T13:51:29Z</time>
      </trkpt>
      <trkpt lat="41.14525300450623" lon="-8.604399031028152">
        <ele>97.709999999999994</ele>
        <time>2025-05-03T13:51:30Z</time>
      </trkpt>
      <trkpt lat="41.145200030878186" lon="-8.604416968300939">
        <ele>97.230000000000004</ele>
        <time>2025-05-03T13:51:31Z</time>
      </trkpt>
      <trkpt lat="41.145141022279859" lon="-8.604445969685912">
        <ele>96.75</ele>
        <time>2025-05-03T13:51:32Z</time>
      </trkpt>
      <trkpt lat="41.145085031166673" lon="-8.604473965242505">
        <ele>96.269999999999996</ele>
        <time>2025-05-03T13:51:33Z</time>
      </trkpt>
      <trkpt lat="41.145027028396726" lon="-8.604502966627479">
        <ele>95.790000000000006</ele>
        <time>2025-05-03T13:51:34Z</time>
      </trkpt>
      <trkpt lat="41.144969025626779" lon="-8.604531968012452">
        <ele>95.790000000000006</ele>
        <time>2025-05-03T13:51:35Z</time>
      </trkpt>
      <trkpt lat="41.144636012613773" lon="-8.60467697493732">
        <ele>93.870000000000005</ele>
        <time>2025-05-03T13:51:41Z</time>
      </trkpt>
      <trkpt lat="41.144591001793742" lon="-8.604699019342661">
        <ele>93.390000000000001</ele>
        <time>2025-05-03T13:51:42Z</time>
      </trkpt>
      <trkpt lat="41.144508020952344" lon="-8.60474101267755">
        <ele>92.900000000000006</ele>
        <time>2025-05-03T13:51:45Z</time>
      </trkpt>
      <trkpt lat="41.14450098015368" lon="-8.604744030162692">
        <ele>92.900000000000006</ele>
        <time>2025-05-03T13:51:46Z</time>
      </trkpt>
      <trkpt lat="41.14450098015368" lon="-8.604744030162692">
        <ele>92.420000000000002</ele>
        <time>2025-05-03T13:52:03Z</time>
      </trkpt>
      <trkpt lat="41.144471978768706" lon="-8.604759033769369">
        <ele>91.939999999999998</ele>
        <time>2025-05-03T13:52:29Z</time>
      </trkpt>
      <trkpt lat="41.144121028482914" lon="-8.60491300933063">
        <ele>91.939999999999998</ele>
        <time>2025-05-03T13:52:40Z</time>
      </trkpt>
      <trkpt lat="41.144100995734334" lon="-8.604922983795404">
        <ele>91.459999999999994</ele>
        <time>2025-05-03T13:52:41Z</time>
      </trkpt>
      <trkpt lat="41.144083980470896" lon="-8.604931030422449">
        <ele>91.459999999999994</ele>
        <time>2025-05-03T13:52:42Z</time>
      </trkpt>
      <trkpt lat="41.144083980470896" lon="-8.604931030422449">
        <ele>90.980000000000004</ele>
        <time>2025-05-03T13:52:55Z</time>
      </trkpt>
      <trkpt lat="41.144083980470896" lon="-8.604931030422449">
        <ele>90.980000000000004</ele>
        <time>2025-05-03T13:53:17Z</time>
      </trkpt>
      <trkpt lat="41.144083980470896" lon="-8.604931030422449">
        <ele>90.980000000000004</ele>
        <time>2025-05-03T13:53:41Z</time>
      </trkpt>
      <trkpt lat="41.144083980470896" lon="-8.604931030422449">
        <ele>89.060000000000002</ele>
        <time>2025-05-03T13:54:17Z</time>
      </trkpt>
      <trkpt lat="41.144074006006122" lon="-8.60493597574532">
        <ele>89.060000000000002</ele>
        <time>2025-05-03T13:54:23Z</time>
      </trkpt>
      <trkpt lat="41.144078029319644" lon="-8.604933964088559">
        <ele>89.060000000000002</ele>
        <time>2025-05-03T13:54:24Z</time>
      </trkpt>
    </trkseg>
  </trk>

</gpx>